﻿<?xml version="1.0" encoding="UTF-8"?>
<gpx xmlns="http://www.topografix.com/GPX/1/1" creator="HOLUX ezTour Plus" version="1.1">
<metadata>
<link href="http://www.holux.com"><text>HOLUX Technology, Inc.</text></link>
<time>2012-08-01T18:46:23Z</time></metadata>
<trk>
<name><![CDATA[raw2]]></name>
<trkseg>
<trkpt lat="64.279777527" lon="-21.086629868">
<ele>89.482422</ele>
<time>2012-07-19T12:01:36Z</time>
<speed>0.060000</speed>
<extensions>
<speed>0.1</speed>
<temp>0.00</temp>
<bpm>0</bpm>
<rpm>0.00</rpm>
</extensions>
</trkpt>
<trkpt lat="64.279815674" lon="-21.086763382">
<ele>89.488281</ele>
<time>2012-07-19T12:01:41Z</time>
<speed>0.050000</speed>
<extensions>
<speed>0.1</speed>
<temp>0.00</temp>
<bpm>0</bpm>
<rpm>0.00</rpm>
</extensions>
</trkpt>
<trkpt lat="64.279830933" lon="-21.086851120">
<ele>89.490234</ele>
<time>2012-07-19T12:01:46Z</time>
<speed>0.030000</speed>
<extensions>
<speed>0.0</speed>
<temp>0.00</temp>
<bpm>0</bpm>
<rpm>0.00</rpm>
</extensions>
</trkpt>
<trkpt lat="64.279838562" lon="-21.086874008">
<ele>89.511719</ele>
<time>2012-07-19T12:01:51Z</time>
<speed>0.200000</speed>
<extensions>
<speed>0.2</speed>
<temp>0.00</temp>
<bpm>0</bpm>
<rpm>0.00</rpm>
</extensions>
</trkpt>
<trkpt lat="64.279869080" lon="-21.087177277">
<ele>91.439453</ele>
<time>2012-07-19T12:01:56Z</time>
<speed>0.150000</speed>
<extensions>
<speed>0.2</speed>
<temp>0.00</temp>
<bpm>0</bpm>
<rpm>0.00</rpm>
</extensions>
</trkpt>
<trkpt lat="64.279876709" lon="-21.087251663">
<ele>92.664063</ele>
<time>2012-07-19T12:02:01Z</time>
<speed>0.070000</speed>
<extensions>
<speed>0.1</speed>
<temp>0.00</temp>
<bpm>0</bpm>
<rpm>0.00</rpm>
</extensions>
</trkpt>
<trkpt lat="64.279869080" lon="-21.087238312">
<ele>92.667969</ele>
<time>2012-07-19T12:02:06Z</time>
<speed>0.020000</speed>
<extensions>
<speed>0.0</speed>
<temp>0.00</temp>
<bpm>0</bpm>
<rpm>0.00</rpm>
</extensions>
</trkpt>
<trkpt lat="64.279861450" lon="-21.087234497">
<ele>92.728516</ele>
<time>2012-07-19T12:02:11Z</time>
<extensions>
<speed>0.0</speed>
<temp>0.00</temp>
<bpm>0</bpm>
<rpm>0.00</rpm>
</extensions>
</trkpt>
<trkpt lat="64.279861450" lon="-21.087232590">
<ele>92.759766</ele>
<time>2012-07-19T12:02:16Z</time>
<speed>0.010000</speed>
<extensions>
<speed>0.0</speed>
<temp>0.00</temp>
<bpm>0</bpm>
<rpm>0.00</rpm>
</extensions>
</trkpt>
<trkpt lat="64.279861450" lon="-21.087230682">
<ele>92.792969</ele>
<time>2012-07-19T12:02:21Z</time>
<speed>0.380000</speed>
<extensions>
<speed>0.4</speed>
<temp>0.00</temp>
<bpm>0</bpm>
<rpm>0.00</rpm>
</extensions>
</trkpt>
<trkpt lat="64.279869080" lon="-21.087221146">
<ele>94.875000</ele>
<time>2012-07-19T12:02:26Z</time>
<speed>0.080000</speed>
<extensions>
<speed>0.1</speed>
<temp>0.00</temp>
<bpm>0</bpm>
<rpm>0.00</rpm>
</extensions>
</trkpt>
<trkpt lat="64.279869080" lon="-21.087217331">
<ele>94.921875</ele>
<time>2012-07-19T12:02:31Z</time>
<speed>0.020000</speed>
<extensions>
<speed>0.0</speed>
<temp>0.00</temp>
<bpm>0</bpm>
<rpm>0.00</rpm>
</extensions>
</trkpt>
<trkpt lat="64.279869080" lon="-21.087219238">
<ele>94.945313</ele>
<time>2012-07-19T12:02:36Z</time>
<speed>0.020000</speed>
<extensions>
<speed>0.0</speed>
<temp>0.00</temp>
<bpm>0</bpm>
<rpm>0.00</rpm>
</extensions>
</trkpt>
<trkpt lat="64.279869080" lon="-21.087224960">
<ele>94.976563</ele>
<time>2012-07-19T12:02:41Z</time>
<speed>0.020000</speed>
<extensions>
<speed>0.0</speed>
<temp>0.00</temp>
<bpm>0</bpm>
<rpm>0.00</rpm>
</extensions>
</trkpt>
<trkpt lat="64.279869080" lon="-21.087224960">
<ele>94.998047</ele>
<time>2012-07-19T12:02:46Z</time>
<speed>0.010000</speed>
<extensions>
<speed>0.0</speed>
<temp>0.00</temp>
<bpm>0</bpm>
<rpm>0.00</rpm>
</extensions>
</trkpt>
<trkpt lat="64.279869080" lon="-21.087226868">
<ele>94.970703</ele>
<time>2012-07-19T12:02:51Z</time>
<extensions>
<speed>0.0</speed>
<temp>0.00</temp>
<bpm>0</bpm>
<rpm>0.00</rpm>
</extensions>
</trkpt>
<trkpt lat="64.279869080" lon="-21.087226868">
<ele>94.966797</ele>
<time>2012-07-19T12:02:56Z</time>
<extensions>
<speed>0.0</speed>
<temp>0.00</temp>
<bpm>0</bpm>
<rpm>0.00</rpm>
</extensions>
</trkpt>
<trkpt lat="64.279869080" lon="-21.087224960">
<ele>94.980469</ele>
<time>2012-07-19T12:03:01Z</time>
<speed>0.040000</speed>
<extensions>
<speed>0.0</speed>
<temp>0.00</temp>
<bpm>0</bpm>
<rpm>0.00</rpm>
</extensions>
</trkpt>
<trkpt lat="64.279869080" lon="-21.087224960">
<ele>95.041016</ele>
<time>2012-07-19T12:03:06Z</time>
<extensions>
<speed>0.0</speed>
<temp>0.00</temp>
<bpm>0</bpm>
<rpm>0.00</rpm>
</extensions>
</trkpt>
<trkpt lat="64.279869080" lon="-21.087224960">
<ele>95.048828</ele>
<time>2012-07-19T12:03:11Z</time>
<speed>0.010000</speed>
<extensions>
<speed>0.0</speed>
<temp>0.00</temp>
<bpm>0</bpm>
<rpm>0.00</rpm>
</extensions>
</trkpt>
<trkpt lat="64.279869080" lon="-21.087224960">
<ele>94.990234</ele>
<time>2012-07-19T12:03:16Z</time>
<speed>0.060000</speed>
<extensions>
<speed>0.1</speed>
<temp>0.00</temp>
<bpm>0</bpm>
<rpm>0.00</rpm>
</extensions>
</trkpt>
<trkpt lat="64.279869080" lon="-21.087223053">
<ele>94.933594</ele>
<time>2012-07-19T12:03:21Z</time>
<extensions>
<speed>0.0</speed>
<temp>0.00</temp>
<bpm>0</bpm>
<rpm>0.00</rpm>
</extensions>
</trkpt>
<trkpt lat="64.279869080" lon="-21.087224960">
<ele>94.921875</ele>
<time>2012-07-19T12:03:26Z</time>
<speed>0.020000</speed>
<extensions>
<speed>0.0</speed>
<temp>0.00</temp>
<bpm>0</bpm>
<rpm>0.00</rpm>
</extensions>
</trkpt>
<trkpt lat="64.279869080" lon="-21.087224960">
<ele>94.912109</ele>
<time>2012-07-19T12:03:31Z</time>
<extensions>
<speed>0.0</speed>
<temp>0.00</temp>
<bpm>0</bpm>
<rpm>0.00</rpm>
</extensions>
</trkpt>
<trkpt lat="64.279869080" lon="-21.087226868">
<ele>94.931641</ele>
<time>2012-07-19T12:03:36Z</time>
<extensions>
<speed>0.0</speed>
<temp>0.00</temp>
<bpm>0</bpm>
<rpm>0.00</rpm>
</extensions>
</trkpt>
<trkpt lat="64.279869080" lon="-21.087226868">
<ele>94.939453</ele>
<time>2012-07-19T12:03:41Z</time>
<extensions>
<speed>0.0</speed>
<temp>0.00</temp>
<bpm>0</bpm>
<rpm>0.00</rpm>
</extensions>
</trkpt>
<trkpt lat="64.279869080" lon="-21.087226868">
<ele>94.945313</ele>
<time>2012-07-19T12:03:46Z</time>
<extensions>
<speed>0.0</speed>
<temp>0.00</temp>
<bpm>0</bpm>
<rpm>0.00</rpm>
</extensions>
</trkpt>
<trkpt lat="64.279869080" lon="-21.087228775">
<ele>94.945313</ele>
<time>2012-07-19T12:03:51Z</time>
<speed>0.010000</speed>
<extensions>
<speed>0.0</speed>
<temp>0.00</temp>
<bpm>0</bpm>
<rpm>0.00</rpm>
</extensions>
</trkpt>
<trkpt lat="64.279869080" lon="-21.087228775">
<ele>94.980469</ele>
<time>2012-07-19T12:03:56Z</time>
<extensions>
<speed>0.0</speed>
<temp>0.00</temp>
<bpm>0</bpm>
<rpm>0.00</rpm>
</extensions>
</trkpt>
<trkpt lat="64.279869080" lon="-21.087228775">
<ele>95.056641</ele>
<time>2012-07-19T12:04:01Z</time>
<extensions>
<speed>0.0</speed>
<temp>0.00</temp>
<bpm>0</bpm>
<rpm>0.00</rpm>
</extensions>
</trkpt>
<trkpt lat="64.279869080" lon="-21.087228775">
<ele>95.113281</ele>
<time>2012-07-19T12:04:06Z</time>
<extensions>
<speed>0.0</speed>
<temp>0.00</temp>
<bpm>0</bpm>
<rpm>0.00</rpm>
</extensions>
</trkpt>
<trkpt lat="64.279869080" lon="-21.087230682">
<ele>95.173828</ele>
<time>2012-07-19T12:04:11Z</time>
<extensions>
<speed>0.0</speed>
<temp>0.00</temp>
<bpm>0</bpm>
<rpm>0.00</rpm>
</extensions>
</trkpt>
<trkpt lat="64.279869080" lon="-21.087230682">
<ele>95.222656</ele>
<time>2012-07-19T12:04:16Z</time>
<extensions>
<speed>0.0</speed>
<temp>0.00</temp>
<bpm>0</bpm>
<rpm>0.00</rpm>
</extensions>
</trkpt>
<trkpt lat="64.279869080" lon="-21.087230682">
<ele>95.269531</ele>
<time>2012-07-19T12:04:21Z</time>
<extensions>
<speed>0.0</speed>
<temp>0.00</temp>
<bpm>0</bpm>
<rpm>0.00</rpm>
</extensions>
</trkpt>
<trkpt lat="64.279869080" lon="-21.087230682">
<ele>95.302734</ele>
<time>2012-07-19T12:04:26Z</time>
<extensions>
<speed>0.0</speed>
<temp>0.00</temp>
<bpm>0</bpm>
<rpm>0.00</rpm>
</extensions>
</trkpt>
<trkpt lat="64.279869080" lon="-21.087232590">
<ele>95.326172</ele>
<time>2012-07-19T12:04:31Z</time>
<extensions>
<speed>0.0</speed>
<temp>0.00</temp>
<bpm>0</bpm>
<rpm>0.00</rpm>
</extensions>
</trkpt>
<trkpt lat="64.279869080" lon="-21.087232590">
<ele>95.349609</ele>
<time>2012-07-19T12:04:36Z</time>
<extensions>
<speed>0.0</speed>
<temp>0.00</temp>
<bpm>0</bpm>
<rpm>0.00</rpm>
</extensions>
</trkpt>
<trkpt lat="64.279869080" lon="-21.087232590">
<ele>95.375000</ele>
<time>2012-07-19T12:04:41Z</time>
<speed>0.010000</speed>
<extensions>
<speed>0.0</speed>
<temp>0.00</temp>
<bpm>0</bpm>
<rpm>0.00</rpm>
</extensions>
</trkpt>
<trkpt lat="64.279869080" lon="-21.087232590">
<ele>95.390625</ele>
<time>2012-07-19T12:04:46Z</time>
<extensions>
<speed>0.0</speed>
<temp>0.00</temp>
<bpm>0</bpm>
<rpm>0.00</rpm>
</extensions>
</trkpt>
<trkpt lat="64.279869080" lon="-21.087232590">
<ele>95.412109</ele>
<time>2012-07-19T12:04:51Z</time>
<extensions>
<speed>0.0</speed>
<temp>0.00</temp>
<bpm>0</bpm>
<rpm>0.00</rpm>
</extensions>
</trkpt>
<trkpt lat="64.279869080" lon="-21.087232590">
<ele>95.433594</ele>
<time>2012-07-19T12:04:56Z</time>
<extensions>
<speed>0.0</speed>
<temp>0.00</temp>
<bpm>0</bpm>
<rpm>0.00</rpm>
</extensions>
</trkpt>
<trkpt lat="64.279869080" lon="-21.087232590">
<ele>95.474609</ele>
<time>2012-07-19T12:05:01Z</time>
<extensions>
<speed>0.0</speed>
<temp>0.00</temp>
<bpm>0</bpm>
<rpm>0.00</rpm>
</extensions>
</trkpt>
<trkpt lat="64.279869080" lon="-21.087232590">
<ele>95.515625</ele>
<time>2012-07-19T12:05:06Z</time>
<extensions>
<speed>0.0</speed>
<temp>0.00</temp>
<bpm>0</bpm>
<rpm>0.00</rpm>
</extensions>
</trkpt>
<trkpt lat="64.279869080" lon="-21.087232590">
<ele>95.539063</ele>
<time>2012-07-19T12:05:11Z</time>
<extensions>
<speed>0.0</speed>
<temp>0.00</temp>
<bpm>0</bpm>
<rpm>0.00</rpm>
</extensions>
</trkpt>
<trkpt lat="64.279869080" lon="-21.087232590">
<ele>95.568359</ele>
<time>2012-07-19T12:05:16Z</time>
<extensions>
<speed>0.0</speed>
<temp>0.00</temp>
<bpm>0</bpm>
<rpm>0.00</rpm>
</extensions>
</trkpt>
<trkpt lat="64.279869080" lon="-21.087234497">
<ele>95.595703</ele>
<time>2012-07-19T12:05:21Z</time>
<extensions>
<speed>0.0</speed>
<temp>0.00</temp>
<bpm>0</bpm>
<rpm>0.00</rpm>
</extensions>
</trkpt>
<trkpt lat="64.279869080" lon="-21.087234497">
<ele>95.619141</ele>
<time>2012-07-19T12:05:26Z</time>
<extensions>
<speed>0.0</speed>
<temp>0.00</temp>
<bpm>0</bpm>
<rpm>0.00</rpm>
</extensions>
</trkpt>
<trkpt lat="64.279869080" lon="-21.087234497">
<ele>95.646484</ele>
<time>2012-07-19T12:05:31Z</time>
<extensions>
<speed>0.0</speed>
<temp>0.00</temp>
<bpm>0</bpm>
<rpm>0.00</rpm>
</extensions>
</trkpt>
<trkpt lat="64.279869080" lon="-21.087234497">
<ele>95.667969</ele>
<time>2012-07-19T12:05:36Z</time>
<extensions>
<speed>0.0</speed>
<temp>0.00</temp>
<bpm>0</bpm>
<rpm>0.00</rpm>
</extensions>
</trkpt>
<trkpt lat="64.279869080" lon="-21.087236404">
<ele>95.697266</ele>
<time>2012-07-19T12:05:41Z</time>
<extensions>
<speed>0.0</speed>
<temp>0.00</temp>
<bpm>0</bpm>
<rpm>0.00</rpm>
</extensions>
</trkpt>
<trkpt lat="64.279876709" lon="-21.087236404">
<ele>95.732422</ele>
<time>2012-07-19T12:05:46Z</time>
<extensions>
<speed>0.0</speed>
<temp>0.00</temp>
<bpm>0</bpm>
<rpm>0.00</rpm>
</extensions>
</trkpt>
<trkpt lat="64.279876709" lon="-21.087236404">
<ele>95.763672</ele>
<time>2012-07-19T12:05:51Z</time>
<extensions>
<speed>0.0</speed>
<temp>0.00</temp>
<bpm>0</bpm>
<rpm>0.00</rpm>
</extensions>
</trkpt>
<trkpt lat="64.279876709" lon="-21.087236404">
<ele>95.796875</ele>
<time>2012-07-19T12:05:56Z</time>
<extensions>
<speed>0.0</speed>
<temp>0.00</temp>
<bpm>0</bpm>
<rpm>0.00</rpm>
</extensions>
</trkpt>
<trkpt lat="64.279876709" lon="-21.087236404">
<ele>95.820313</ele>
<time>2012-07-19T12:06:01Z</time>
<speed>0.010000</speed>
<extensions>
<speed>0.0</speed>
<temp>0.00</temp>
<bpm>0</bpm>
<rpm>0.00</rpm>
</extensions>
</trkpt>
<trkpt lat="64.279876709" lon="-21.087236404">
<ele>95.839844</ele>
<time>2012-07-19T12:06:06Z</time>
<extensions>
<speed>0.0</speed>
<temp>0.00</temp>
<bpm>0</bpm>
<rpm>0.00</rpm>
</extensions>
</trkpt>
<trkpt lat="64.279876709" lon="-21.087238312">
<ele>95.859375</ele>
<time>2012-07-19T12:06:11Z</time>
<extensions>
<speed>0.0</speed>
<temp>0.00</temp>
<bpm>0</bpm>
<rpm>0.00</rpm>
</extensions>
</trkpt>
<trkpt lat="64.279876709" lon="-21.087238312">
<ele>95.880859</ele>
<time>2012-07-19T12:06:16Z</time>
<extensions>
<speed>0.0</speed>
<temp>0.00</temp>
<bpm>0</bpm>
<rpm>0.00</rpm>
</extensions>
</trkpt>
<trkpt lat="64.279876709" lon="-21.087238312">
<ele>95.902344</ele>
<time>2012-07-19T12:06:21Z</time>
<speed>0.010000</speed>
<extensions>
<speed>0.0</speed>
<temp>0.00</temp>
<bpm>0</bpm>
<rpm>0.00</rpm>
</extensions>
</trkpt>
<trkpt lat="64.279876709" lon="-21.087238312">
<ele>95.925781</ele>
<time>2012-07-19T12:06:26Z</time>
<speed>0.040000</speed>
<extensions>
<speed>0.0</speed>
<temp>0.00</temp>
<bpm>0</bpm>
<rpm>0.00</rpm>
</extensions>
</trkpt>
<trkpt lat="64.279876709" lon="-21.087240219">
<ele>95.935547</ele>
<time>2012-07-19T12:06:31Z</time>
<speed>0.020000</speed>
<extensions>
<speed>0.0</speed>
<temp>0.00</temp>
<bpm>0</bpm>
<rpm>0.00</rpm>
</extensions>
</trkpt>
<trkpt lat="64.279876709" lon="-21.087240219">
<ele>95.958984</ele>
<time>2012-07-19T12:06:36Z</time>
<speed>0.010000</speed>
<extensions>
<speed>0.0</speed>
<temp>0.00</temp>
<bpm>0</bpm>
<rpm>0.00</rpm>
</extensions>
</trkpt>
<trkpt lat="64.279876709" lon="-21.087240219">
<ele>95.966797</ele>
<time>2012-07-19T12:06:41Z</time>
<speed>0.050000</speed>
<extensions>
<speed>0.1</speed>
<temp>0.00</temp>
<bpm>0</bpm>
<rpm>0.00</rpm>
</extensions>
</trkpt>
<trkpt lat="64.279891968" lon="-21.087259293">
<ele>97.091797</ele>
<time>2012-07-19T12:06:46Z</time>
<speed>0.040000</speed>
<extensions>
<speed>0.0</speed>
<temp>0.00</temp>
<bpm>0</bpm>
<rpm>0.00</rpm>
</extensions>
</trkpt>
<trkpt lat="64.279884338" lon="-21.087265015">
<ele>97.097656</ele>
<time>2012-07-19T12:06:51Z</time>
<speed>0.030000</speed>
<extensions>
<speed>0.0</speed>
<temp>0.00</temp>
<bpm>0</bpm>
<rpm>0.00</rpm>
</extensions>
</trkpt>
<trkpt lat="64.279884338" lon="-21.087265015">
<ele>97.193359</ele>
<time>2012-07-19T12:06:56Z</time>
<extensions>
<speed>0.0</speed>
<temp>0.00</temp>
<bpm>0</bpm>
<rpm>0.00</rpm>
</extensions>
</trkpt>
<trkpt lat="64.279884338" lon="-21.087265015">
<ele>97.273438</ele>
<time>2012-07-19T12:07:01Z</time>
<extensions>
<speed>0.0</speed>
<temp>0.00</temp>
<bpm>0</bpm>
<rpm>0.00</rpm>
</extensions>
</trkpt>
<trkpt lat="64.279884338" lon="-21.087265015">
<ele>97.335938</ele>
<time>2012-07-19T12:07:06Z</time>
<extensions>
<speed>0.0</speed>
<temp>0.00</temp>
<bpm>0</bpm>
<rpm>0.00</rpm>
</extensions>
</trkpt>
<trkpt lat="64.279884338" lon="-21.087265015">
<ele>97.386719</ele>
<time>2012-07-19T12:07:11Z</time>
<extensions>
<speed>0.0</speed>
<temp>0.00</temp>
<bpm>0</bpm>
<rpm>0.00</rpm>
</extensions>
</trkpt>
<trkpt lat="64.279884338" lon="-21.087265015">
<ele>97.439453</ele>
<time>2012-07-19T12:07:16Z</time>
<extensions>
<speed>0.0</speed>
<temp>0.00</temp>
<bpm>0</bpm>
<rpm>0.00</rpm>
</extensions>
</trkpt>
<trkpt lat="64.279884338" lon="-21.087265015">
<ele>97.472656</ele>
<time>2012-07-19T12:07:21Z</time>
<extensions>
<speed>0.0</speed>
<temp>0.00</temp>
<bpm>0</bpm>
<rpm>0.00</rpm>
</extensions>
</trkpt>
<trkpt lat="64.279884338" lon="-21.087266922">
<ele>97.503906</ele>
<time>2012-07-19T12:07:26Z</time>
<extensions>
<speed>0.0</speed>
<temp>0.00</temp>
<bpm>0</bpm>
<rpm>0.00</rpm>
</extensions>
</trkpt>
<trkpt lat="64.279884338" lon="-21.087266922">
<ele>97.535156</ele>
<time>2012-07-19T12:07:31Z</time>
<extensions>
<speed>0.0</speed>
<temp>0.00</temp>
<bpm>0</bpm>
<rpm>0.00</rpm>
</extensions>
</trkpt>
<trkpt lat="64.279884338" lon="-21.087266922">
<ele>97.562500</ele>
<time>2012-07-19T12:07:36Z</time>
<extensions>
<speed>0.0</speed>
<temp>0.00</temp>
<bpm>0</bpm>
<rpm>0.00</rpm>
</extensions>
</trkpt>
<trkpt lat="64.279884338" lon="-21.087266922">
<ele>97.587891</ele>
<time>2012-07-19T12:07:41Z</time>
<extensions>
<speed>0.0</speed>
<temp>0.00</temp>
<bpm>0</bpm>
<rpm>0.00</rpm>
</extensions>
</trkpt>
<trkpt lat="64.279884338" lon="-21.087266922">
<ele>97.623047</ele>
<time>2012-07-19T12:07:46Z</time>
<extensions>
<speed>0.0</speed>
<temp>0.00</temp>
<bpm>0</bpm>
<rpm>0.00</rpm>
</extensions>
</trkpt>
<trkpt lat="64.279884338" lon="-21.087266922">
<ele>97.648438</ele>
<time>2012-07-19T12:07:51Z</time>
<speed>0.010000</speed>
<extensions>
<speed>0.0</speed>
<temp>0.00</temp>
<bpm>0</bpm>
<rpm>0.00</rpm>
</extensions>
</trkpt>
<trkpt lat="64.279884338" lon="-21.087268829">
<ele>97.667969</ele>
<time>2012-07-19T12:07:56Z</time>
<speed>0.010000</speed>
<extensions>
<speed>0.0</speed>
<temp>0.00</temp>
<bpm>0</bpm>
<rpm>0.00</rpm>
</extensions>
</trkpt>
<trkpt lat="64.279884338" lon="-21.087268829">
<ele>97.697266</ele>
<time>2012-07-19T12:08:01Z</time>
<extensions>
<speed>0.0</speed>
<temp>0.00</temp>
<bpm>0</bpm>
<rpm>0.00</rpm>
</extensions>
</trkpt>
<trkpt lat="64.279884338" lon="-21.087268829">
<ele>97.722656</ele>
<time>2012-07-19T12:08:06Z</time>
<speed>0.020000</speed>
<extensions>
<speed>0.0</speed>
<temp>0.00</temp>
<bpm>0</bpm>
<rpm>0.00</rpm>
</extensions>
</trkpt>
<trkpt lat="64.279891968" lon="-21.087274551">
<ele>97.607422</ele>
<time>2012-07-19T12:08:11Z</time>
<speed>0.030000</speed>
<extensions>
<speed>0.0</speed>
<temp>0.00</temp>
<bpm>0</bpm>
<rpm>0.00</rpm>
</extensions>
</trkpt>
<trkpt lat="64.279891968" lon="-21.087274551">
<ele>97.625000</ele>
<time>2012-07-19T12:08:16Z</time>
<extensions>
<speed>0.0</speed>
<temp>0.00</temp>
<bpm>0</bpm>
<rpm>0.00</rpm>
</extensions>
</trkpt>
<trkpt lat="64.279891968" lon="-21.087274551">
<ele>97.642578</ele>
<time>2012-07-19T12:08:21Z</time>
<extensions>
<speed>0.0</speed>
<temp>0.00</temp>
<bpm>0</bpm>
<rpm>0.00</rpm>
</extensions>
</trkpt>
<trkpt lat="64.279891968" lon="-21.087274551">
<ele>97.648438</ele>
<time>2012-07-19T12:08:26Z</time>
<speed>0.010000</speed>
<extensions>
<speed>0.0</speed>
<temp>0.00</temp>
<bpm>0</bpm>
<rpm>0.00</rpm>
</extensions>
</trkpt>
<trkpt lat="64.279876709" lon="-21.087299347">
<ele>98.833984</ele>
<time>2012-07-19T12:08:31Z</time>
<speed>0.720000</speed>
<extensions>
<speed>0.7</speed>
<temp>0.00</temp>
<bpm>0</bpm>
<rpm>0.00</rpm>
</extensions>
</trkpt>
<trkpt lat="64.279869080" lon="-21.087360382">
<ele>100.923828</ele>
<time>2012-07-19T12:08:36Z</time>
<speed>0.920000</speed>
<extensions>
<speed>0.9</speed>
<temp>0.00</temp>
<bpm>0</bpm>
<rpm>0.00</rpm>
</extensions>
</trkpt>
<trkpt lat="64.279830933" lon="-21.087423325">
<ele>103.554688</ele>
<time>2012-07-19T12:08:41Z</time>
<speed>1.280000</speed>
<extensions>
<speed>1.3</speed>
<temp>0.00</temp>
<bpm>0</bpm>
<rpm>0.00</rpm>
</extensions>
</trkpt>
<trkpt lat="64.279777527" lon="-21.087423325">
<ele>106.437500</ele>
<time>2012-07-19T12:08:46Z</time>
<speed>1.350000</speed>
<extensions>
<speed>1.4</speed>
<temp>0.00</temp>
<bpm>0</bpm>
<rpm>0.00</rpm>
</extensions>
</trkpt>
<trkpt lat="64.279724121" lon="-21.087440491">
<ele>108.226563</ele>
<time>2012-07-19T12:08:51Z</time>
<speed>1.240000</speed>
<extensions>
<speed>1.2</speed>
<temp>0.00</temp>
<bpm>0</bpm>
<rpm>0.00</rpm>
</extensions>
</trkpt>
<trkpt lat="64.279663086" lon="-21.087436676">
<ele>109.652344</ele>
<time>2012-07-19T12:08:56Z</time>
<speed>1.380000</speed>
<extensions>
<speed>1.4</speed>
<temp>0.00</temp>
<bpm>0</bpm>
<rpm>0.00</rpm>
</extensions>
</trkpt>
<trkpt lat="64.279624939" lon="-21.087421417">
<ele>110.714844</ele>
<time>2012-07-19T12:09:01Z</time>
<speed>0.840000</speed>
<extensions>
<speed>0.8</speed>
<temp>0.00</temp>
<bpm>0</bpm>
<rpm>0.00</rpm>
</extensions>
</trkpt>
<trkpt lat="64.279602051" lon="-21.087394714">
<ele>111.222656</ele>
<time>2012-07-19T12:09:06Z</time>
<speed>0.480000</speed>
<extensions>
<speed>0.5</speed>
<temp>0.00</temp>
<bpm>0</bpm>
<rpm>0.00</rpm>
</extensions>
</trkpt>
<trkpt lat="64.279602051" lon="-21.087390900">
<ele>111.820313</ele>
<time>2012-07-19T12:09:11Z</time>
<speed>0.020000</speed>
<extensions>
<speed>0.0</speed>
<temp>0.00</temp>
<bpm>0</bpm>
<rpm>0.00</rpm>
</extensions>
</trkpt>
<trkpt lat="64.279602051" lon="-21.087390900">
<ele>111.867188</ele>
<time>2012-07-19T12:09:16Z</time>
<extensions>
<speed>0.0</speed>
<temp>0.00</temp>
<bpm>0</bpm>
<rpm>0.00</rpm>
</extensions>
</trkpt>
<trkpt lat="64.279602051" lon="-21.087392807">
<ele>111.859375</ele>
<time>2012-07-19T12:09:21Z</time>
<speed>0.020000</speed>
<extensions>
<speed>0.0</speed>
<temp>0.00</temp>
<bpm>0</bpm>
<rpm>0.00</rpm>
</extensions>
</trkpt>
<trkpt lat="64.279602051" lon="-21.087392807">
<ele>111.880859</ele>
<time>2012-07-19T12:09:26Z</time>
<speed>0.020000</speed>
<extensions>
<speed>0.0</speed>
<temp>0.00</temp>
<bpm>0</bpm>
<rpm>0.00</rpm>
</extensions>
</trkpt>
<trkpt lat="64.279602051" lon="-21.087392807">
<ele>111.880859</ele>
<time>2012-07-19T12:09:31Z</time>
<speed>0.040000</speed>
<extensions>
<speed>0.0</speed>
<temp>0.00</temp>
<bpm>0</bpm>
<rpm>0.00</rpm>
</extensions>
</trkpt>
<trkpt lat="64.279602051" lon="-21.087394714">
<ele>111.900391</ele>
<time>2012-07-19T12:09:36Z</time>
<speed>0.010000</speed>
<extensions>
<speed>0.0</speed>
<temp>0.00</temp>
<bpm>0</bpm>
<rpm>0.00</rpm>
</extensions>
</trkpt>
<trkpt lat="64.279602051" lon="-21.087394714">
<ele>111.914063</ele>
<time>2012-07-19T12:09:41Z</time>
<extensions>
<speed>0.0</speed>
<temp>0.00</temp>
<bpm>0</bpm>
<rpm>0.00</rpm>
</extensions>
</trkpt>
<trkpt lat="64.279602051" lon="-21.087394714">
<ele>111.927734</ele>
<time>2012-07-19T12:09:46Z</time>
<extensions>
<speed>0.0</speed>
<temp>0.00</temp>
<bpm>0</bpm>
<rpm>0.00</rpm>
</extensions>
</trkpt>
<trkpt lat="64.279602051" lon="-21.087394714">
<ele>111.941406</ele>
<time>2012-07-19T12:09:51Z</time>
<extensions>
<speed>0.0</speed>
<temp>0.00</temp>
<bpm>0</bpm>
<rpm>0.00</rpm>
</extensions>
</trkpt>
<trkpt lat="64.279602051" lon="-21.087394714">
<ele>111.953125</ele>
<time>2012-07-19T12:09:56Z</time>
<extensions>
<speed>0.0</speed>
<temp>0.00</temp>
<bpm>0</bpm>
<rpm>0.00</rpm>
</extensions>
</trkpt>
<trkpt lat="64.279602051" lon="-21.087394714">
<ele>111.964844</ele>
<time>2012-07-19T12:10:01Z</time>
<extensions>
<speed>0.0</speed>
<temp>0.00</temp>
<bpm>0</bpm>
<rpm>0.00</rpm>
</extensions>
</trkpt>
<trkpt lat="64.279602051" lon="-21.087394714">
<ele>111.972656</ele>
<time>2012-07-19T12:10:06Z</time>
<speed>0.010000</speed>
<extensions>
<speed>0.0</speed>
<temp>0.00</temp>
<bpm>0</bpm>
<rpm>0.00</rpm>
</extensions>
</trkpt>
<trkpt lat="64.279602051" lon="-21.087394714">
<ele>111.980469</ele>
<time>2012-07-19T12:10:11Z</time>
<speed>0.010000</speed>
<extensions>
<speed>0.0</speed>
<temp>0.00</temp>
<bpm>0</bpm>
<rpm>0.00</rpm>
</extensions>
</trkpt>
<trkpt lat="64.279602051" lon="-21.087394714">
<ele>111.990234</ele>
<time>2012-07-19T12:10:16Z</time>
<speed>0.030000</speed>
<extensions>
<speed>0.0</speed>
<temp>0.00</temp>
<bpm>0</bpm>
<rpm>0.00</rpm>
</extensions>
</trkpt>
<trkpt lat="64.279602051" lon="-21.087394714">
<ele>111.994141</ele>
<time>2012-07-19T12:10:21Z</time>
<extensions>
<speed>0.0</speed>
<temp>0.00</temp>
<bpm>0</bpm>
<rpm>0.00</rpm>
</extensions>
</trkpt>
<trkpt lat="64.279602051" lon="-21.087396622">
<ele>112.013672</ele>
<time>2012-07-19T12:10:26Z</time>
<extensions>
<speed>0.0</speed>
<temp>0.00</temp>
<bpm>0</bpm>
<rpm>0.00</rpm>
</extensions>
</trkpt>
<trkpt lat="64.279602051" lon="-21.087396622">
<ele>112.027344</ele>
<time>2012-07-19T12:10:31Z</time>
<speed>0.010000</speed>
<extensions>
<speed>0.0</speed>
<temp>0.00</temp>
<bpm>0</bpm>
<rpm>0.00</rpm>
</extensions>
</trkpt>
<trkpt lat="64.279602051" lon="-21.087396622">
<ele>112.044922</ele>
<time>2012-07-19T12:10:36Z</time>
<speed>0.130000</speed>
<extensions>
<speed>0.1</speed>
<temp>0.00</temp>
<bpm>0</bpm>
<rpm>0.00</rpm>
</extensions>
</trkpt>
<trkpt lat="64.279586792" lon="-21.087329865">
<ele>112.431641</ele>
<time>2012-07-19T12:10:41Z</time>
<speed>1.550000</speed>
<extensions>
<speed>1.5</speed>
<temp>0.00</temp>
<bpm>0</bpm>
<rpm>0.00</rpm>
</extensions>
</trkpt>
<trkpt lat="64.279579163" lon="-21.087184906">
<ele>112.480469</ele>
<time>2012-07-19T12:10:46Z</time>
<speed>1.710000</speed>
<extensions>
<speed>1.7</speed>
<temp>0.00</temp>
<bpm>0</bpm>
<rpm>0.00</rpm>
</extensions>
</trkpt>
<trkpt lat="64.279571533" lon="-21.087295532">
<ele>112.345703</ele>
<time>2012-07-19T12:10:51Z</time>
<speed>1.830000</speed>
<extensions>
<speed>1.8</speed>
<temp>0.00</temp>
<bpm>0</bpm>
<rpm>0.00</rpm>
</extensions>
</trkpt>
<trkpt lat="64.279609680" lon="-21.087285995">
<ele>112.560547</ele>
<time>2012-07-19T12:10:56Z</time>
<speed>1.820000</speed>
<extensions>
<speed>1.8</speed>
<temp>0.00</temp>
<bpm>0</bpm>
<rpm>0.00</rpm>
</extensions>
</trkpt>
<trkpt lat="64.279556274" lon="-21.087194443">
<ele>113.937500</ele>
<time>2012-07-19T12:11:01Z</time>
<speed>1.560000</speed>
<extensions>
<speed>1.6</speed>
<temp>0.00</temp>
<bpm>0</bpm>
<rpm>0.00</rpm>
</extensions>
</trkpt>
<trkpt lat="64.279518127" lon="-21.087121964">
<ele>115.369141</ele>
<time>2012-07-19T12:11:06Z</time>
<extensions>
<speed>0.0</speed>
<temp>0.00</temp>
<bpm>0</bpm>
<rpm>0.00</rpm>
</extensions>
</trkpt>
<trkpt lat="64.279518127" lon="-21.087120056">
<ele>115.658203</ele>
<time>2012-07-19T12:11:11Z</time>
<extensions>
<speed>0.0</speed>
<temp>0.00</temp>
<bpm>0</bpm>
<rpm>0.00</rpm>
</extensions>
</trkpt>
<trkpt lat="64.279518127" lon="-21.087121964">
<ele>115.656250</ele>
<time>2012-07-19T12:11:16Z</time>
<extensions>
<speed>0.0</speed>
<temp>0.00</temp>
<bpm>0</bpm>
<rpm>0.00</rpm>
</extensions>
</trkpt>
<trkpt lat="64.279518127" lon="-21.087121964">
<ele>115.652344</ele>
<time>2012-07-19T12:11:21Z</time>
<extensions>
<speed>0.0</speed>
<temp>0.00</temp>
<bpm>0</bpm>
<rpm>0.00</rpm>
</extensions>
</trkpt>
<trkpt lat="64.279518127" lon="-21.087121964">
<ele>115.650391</ele>
<time>2012-07-19T12:11:26Z</time>
<extensions>
<speed>0.0</speed>
<temp>0.00</temp>
<bpm>0</bpm>
<rpm>0.00</rpm>
</extensions>
</trkpt>
<trkpt lat="64.279518127" lon="-21.087121964">
<ele>115.656250</ele>
<time>2012-07-19T12:11:31Z</time>
<extensions>
<speed>0.0</speed>
<temp>0.00</temp>
<bpm>0</bpm>
<rpm>0.00</rpm>
</extensions>
</trkpt>
<trkpt lat="64.279518127" lon="-21.087121964">
<ele>115.664063</ele>
<time>2012-07-19T12:11:36Z</time>
<extensions>
<speed>0.0</speed>
<temp>0.00</temp>
<bpm>0</bpm>
<rpm>0.00</rpm>
</extensions>
</trkpt>
<trkpt lat="64.279518127" lon="-21.087121964">
<ele>115.673828</ele>
<time>2012-07-19T12:11:41Z</time>
<extensions>
<speed>0.0</speed>
<temp>0.00</temp>
<bpm>0</bpm>
<rpm>0.00</rpm>
</extensions>
</trkpt>
<trkpt lat="64.279518127" lon="-21.087121964">
<ele>115.679688</ele>
<time>2012-07-19T12:11:46Z</time>
<extensions>
<speed>0.0</speed>
<temp>0.00</temp>
<bpm>0</bpm>
<rpm>0.00</rpm>
</extensions>
</trkpt>
<trkpt lat="64.279518127" lon="-21.087121964">
<ele>115.683594</ele>
<time>2012-07-19T12:11:51Z</time>
<extensions>
<speed>0.0</speed>
<temp>0.00</temp>
<bpm>0</bpm>
<rpm>0.00</rpm>
</extensions>
</trkpt>
<trkpt lat="64.279518127" lon="-21.087121964">
<ele>115.689453</ele>
<time>2012-07-19T12:11:56Z</time>
<extensions>
<speed>0.0</speed>
<temp>0.00</temp>
<bpm>0</bpm>
<rpm>0.00</rpm>
</extensions>
</trkpt>
<trkpt lat="64.279518127" lon="-21.087121964">
<ele>115.701172</ele>
<time>2012-07-19T12:12:01Z</time>
<extensions>
<speed>0.0</speed>
<temp>0.00</temp>
<bpm>0</bpm>
<rpm>0.00</rpm>
</extensions>
</trkpt>
<trkpt lat="64.279518127" lon="-21.087121964">
<ele>115.705078</ele>
<time>2012-07-19T12:12:06Z</time>
<extensions>
<speed>0.0</speed>
<temp>0.00</temp>
<bpm>0</bpm>
<rpm>0.00</rpm>
</extensions>
</trkpt>
<trkpt lat="64.279518127" lon="-21.087121964">
<ele>115.710938</ele>
<time>2012-07-19T12:12:11Z</time>
<extensions>
<speed>0.0</speed>
<temp>0.00</temp>
<bpm>0</bpm>
<rpm>0.00</rpm>
</extensions>
</trkpt>
<trkpt lat="64.279518127" lon="-21.087121964">
<ele>115.710938</ele>
<time>2012-07-19T12:12:16Z</time>
<extensions>
<speed>0.0</speed>
<temp>0.00</temp>
<bpm>0</bpm>
<rpm>0.00</rpm>
</extensions>
</trkpt>
<trkpt lat="64.279518127" lon="-21.087121964">
<ele>115.712891</ele>
<time>2012-07-19T12:12:21Z</time>
<extensions>
<speed>0.0</speed>
<temp>0.00</temp>
<bpm>0</bpm>
<rpm>0.00</rpm>
</extensions>
</trkpt>
<trkpt lat="64.279518127" lon="-21.087121964">
<ele>115.712891</ele>
<time>2012-07-19T12:12:26Z</time>
<extensions>
<speed>0.0</speed>
<temp>0.00</temp>
<bpm>0</bpm>
<rpm>0.00</rpm>
</extensions>
</trkpt>
<trkpt lat="64.279518127" lon="-21.087123871">
<ele>115.794922</ele>
<time>2012-07-19T12:12:31Z</time>
<extensions>
<speed>0.0</speed>
<temp>0.00</temp>
<bpm>0</bpm>
<rpm>0.00</rpm>
</extensions>
</trkpt>
<trkpt lat="64.279518127" lon="-21.087129593">
<ele>116.105469</ele>
<time>2012-07-19T12:12:36Z</time>
<speed>0.010000</speed>
<extensions>
<speed>0.0</speed>
<temp>0.00</temp>
<bpm>0</bpm>
<rpm>0.00</rpm>
</extensions>
</trkpt>
<trkpt lat="64.279518127" lon="-21.087125778">
<ele>116.197266</ele>
<time>2012-07-19T12:12:41Z</time>
<extensions>
<speed>0.0</speed>
<temp>0.00</temp>
<bpm>0</bpm>
<rpm>0.00</rpm>
</extensions>
</trkpt>
<trkpt lat="64.279518127" lon="-21.087125778">
<ele>116.224609</ele>
<time>2012-07-19T12:12:46Z</time>
<extensions>
<speed>0.0</speed>
<temp>0.00</temp>
<bpm>0</bpm>
<rpm>0.00</rpm>
</extensions>
</trkpt>
<trkpt lat="64.279510498" lon="-21.087133408">
<ele>116.126953</ele>
<time>2012-07-19T12:12:51Z</time>
<extensions>
<speed>0.0</speed>
<temp>0.00</temp>
<bpm>0</bpm>
<rpm>0.00</rpm>
</extensions>
</trkpt>
<trkpt lat="64.279510498" lon="-21.087142944">
<ele>116.060547</ele>
<time>2012-07-19T12:12:56Z</time>
<extensions>
<speed>0.0</speed>
<temp>0.00</temp>
<bpm>0</bpm>
<rpm>0.00</rpm>
</extensions>
</trkpt>
<trkpt lat="64.279510498" lon="-21.087148666">
<ele>116.078125</ele>
<time>2012-07-19T12:13:01Z</time>
<extensions>
<speed>0.0</speed>
<temp>0.00</temp>
<bpm>0</bpm>
<rpm>0.00</rpm>
</extensions>
</trkpt>
<trkpt lat="64.279510498" lon="-21.087150574">
<ele>115.943359</ele>
<time>2012-07-19T12:13:06Z</time>
<speed>0.010000</speed>
<extensions>
<speed>0.0</speed>
<temp>0.00</temp>
<bpm>0</bpm>
<rpm>0.00</rpm>
</extensions>
</trkpt>
<trkpt lat="64.279510498" lon="-21.087160110">
<ele>115.853516</ele>
<time>2012-07-19T12:13:11Z</time>
<extensions>
<speed>0.0</speed>
<temp>0.00</temp>
<bpm>0</bpm>
<rpm>0.00</rpm>
</extensions>
</trkpt>
<trkpt lat="64.279510498" lon="-21.087163925">
<ele>115.726563</ele>
<time>2012-07-19T12:13:16Z</time>
<extensions>
<speed>0.0</speed>
<temp>0.00</temp>
<bpm>0</bpm>
<rpm>0.00</rpm>
</extensions>
</trkpt>
<trkpt lat="64.279510498" lon="-21.087162018">
<ele>115.730469</ele>
<time>2012-07-19T12:13:21Z</time>
<extensions>
<speed>0.0</speed>
<temp>0.00</temp>
<bpm>0</bpm>
<rpm>0.00</rpm>
</extensions>
</trkpt>
<trkpt lat="64.279510498" lon="-21.087162018">
<ele>115.730469</ele>
<time>2012-07-19T12:13:26Z</time>
<speed>0.020000</speed>
<extensions>
<speed>0.0</speed>
<temp>0.00</temp>
<bpm>0</bpm>
<rpm>0.00</rpm>
</extensions>
</trkpt>
<trkpt lat="64.279510498" lon="-21.087162018">
<ele>115.732422</ele>
<time>2012-07-19T12:13:31Z</time>
<speed>0.020000</speed>
<extensions>
<speed>0.0</speed>
<temp>0.00</temp>
<bpm>0</bpm>
<rpm>0.00</rpm>
</extensions>
</trkpt>
<trkpt lat="64.279495239" lon="-21.087135315">
<ele>115.822266</ele>
<time>2012-07-19T12:13:36Z</time>
<speed>1.360000</speed>
<extensions>
<speed>1.4</speed>
<temp>0.00</temp>
<bpm>0</bpm>
<rpm>0.00</rpm>
</extensions>
</trkpt>
<trkpt lat="64.279434204" lon="-21.087026596">
<ele>117.093750</ele>
<time>2012-07-19T12:13:41Z</time>
<speed>1.400000</speed>
<extensions>
<speed>1.4</speed>
<temp>0.00</temp>
<bpm>0</bpm>
<rpm>0.00</rpm>
</extensions>
</trkpt>
<trkpt lat="64.279396057" lon="-21.086935043">
<ele>117.482422</ele>
<time>2012-07-19T12:13:46Z</time>
<speed>0.840000</speed>
<extensions>
<speed>0.8</speed>
<temp>0.00</temp>
<bpm>0</bpm>
<rpm>0.00</rpm>
</extensions>
</trkpt>
<trkpt lat="64.279380798" lon="-21.086828232">
<ele>117.412109</ele>
<time>2012-07-19T12:13:51Z</time>
<speed>1.120000</speed>
<extensions>
<speed>1.1</speed>
<temp>0.00</temp>
<bpm>0</bpm>
<rpm>0.00</rpm>
</extensions>
</trkpt>
<trkpt lat="64.279365540" lon="-21.086706161">
<ele>117.537109</ele>
<time>2012-07-19T12:13:56Z</time>
<speed>1.020000</speed>
<extensions>
<speed>1.0</speed>
<temp>0.00</temp>
<bpm>0</bpm>
<rpm>0.00</rpm>
</extensions>
</trkpt>
<trkpt lat="64.279327393" lon="-21.086585999">
<ele>118.230469</ele>
<time>2012-07-19T12:14:01Z</time>
<speed>2.000000</speed>
<extensions>
<speed>2.0</speed>
<temp>0.00</temp>
<bpm>0</bpm>
<rpm>0.00</rpm>
</extensions>
</trkpt>
<trkpt lat="64.279289246" lon="-21.086357117">
<ele>118.080078</ele>
<time>2012-07-19T12:14:06Z</time>
<speed>2.460000</speed>
<extensions>
<speed>2.5</speed>
<temp>0.00</temp>
<bpm>0</bpm>
<rpm>0.00</rpm>
</extensions>
</trkpt>
<trkpt lat="64.279281616" lon="-21.086051941">
<ele>117.734375</ele>
<time>2012-07-19T12:14:11Z</time>
<speed>3.170000</speed>
<extensions>
<speed>3.2</speed>
<temp>0.00</temp>
<bpm>0</bpm>
<rpm>0.00</rpm>
</extensions>
</trkpt>
<trkpt lat="64.279273987" lon="-21.085681915">
<ele>116.814453</ele>
<time>2012-07-19T12:14:16Z</time>
<speed>3.810000</speed>
<extensions>
<speed>3.8</speed>
<temp>0.00</temp>
<bpm>0</bpm>
<rpm>0.00</rpm>
</extensions>
</trkpt>
<trkpt lat="64.279258728" lon="-21.085287094">
<ele>115.892578</ele>
<time>2012-07-19T12:14:21Z</time>
<speed>3.890000</speed>
<extensions>
<speed>3.9</speed>
<temp>0.00</temp>
<bpm>0</bpm>
<rpm>0.00</rpm>
</extensions>
</trkpt>
<trkpt lat="64.279235840" lon="-21.084897995">
<ele>115.466797</ele>
<time>2012-07-19T12:14:26Z</time>
<speed>3.790000</speed>
<extensions>
<speed>3.8</speed>
<temp>0.00</temp>
<bpm>0</bpm>
<rpm>0.00</rpm>
</extensions>
</trkpt>
<trkpt lat="64.279205322" lon="-21.084497452">
<ele>114.957031</ele>
<time>2012-07-19T12:14:31Z</time>
<speed>3.960000</speed>
<extensions>
<speed>4.0</speed>
<temp>0.00</temp>
<bpm>0</bpm>
<rpm>0.00</rpm>
</extensions>
</trkpt>
<trkpt lat="64.279167175" lon="-21.084096909">
<ele>114.191406</ele>
<time>2012-07-19T12:14:36Z</time>
<speed>3.740000</speed>
<extensions>
<speed>3.7</speed>
<temp>0.00</temp>
<bpm>0</bpm>
<rpm>0.00</rpm>
</extensions>
</trkpt>
<trkpt lat="64.279129028" lon="-21.083763123">
<ele>115.146484</ele>
<time>2012-07-19T12:14:41Z</time>
<speed>2.910000</speed>
<extensions>
<speed>2.9</speed>
<temp>0.00</temp>
<bpm>0</bpm>
<rpm>0.00</rpm>
</extensions>
</trkpt>
<trkpt lat="64.279090881" lon="-21.083490372">
<ele>115.513672</ele>
<time>2012-07-19T12:14:46Z</time>
<speed>3.190000</speed>
<extensions>
<speed>3.2</speed>
<temp>0.00</temp>
<bpm>0</bpm>
<rpm>0.00</rpm>
</extensions>
</trkpt>
<trkpt lat="64.279037476" lon="-21.083152771">
<ele>115.599609</ele>
<time>2012-07-19T12:14:51Z</time>
<speed>3.800000</speed>
<extensions>
<speed>3.8</speed>
<temp>0.00</temp>
<bpm>0</bpm>
<rpm>0.00</rpm>
</extensions>
</trkpt>
<trkpt lat="64.278976440" lon="-21.082771301">
<ele>116.574219</ele>
<time>2012-07-19T12:14:56Z</time>
<speed>3.870000</speed>
<extensions>
<speed>3.9</speed>
<temp>0.00</temp>
<bpm>0</bpm>
<rpm>0.00</rpm>
</extensions>
</trkpt>
<trkpt lat="64.278900146" lon="-21.082403183">
<ele>117.185547</ele>
<time>2012-07-19T12:15:01Z</time>
<speed>3.930000</speed>
<extensions>
<speed>3.9</speed>
<temp>0.00</temp>
<bpm>0</bpm>
<rpm>0.00</rpm>
</extensions>
</trkpt>
<trkpt lat="64.278831482" lon="-21.082065582">
<ele>118.291016</ele>
<time>2012-07-19T12:15:06Z</time>
<speed>3.830000</speed>
<extensions>
<speed>3.8</speed>
<temp>0.00</temp>
<bpm>0</bpm>
<rpm>0.00</rpm>
</extensions>
</trkpt>
<trkpt lat="64.278747559" lon="-21.081729889">
<ele>119.208984</ele>
<time>2012-07-19T12:15:11Z</time>
<speed>3.310000</speed>
<extensions>
<speed>3.3</speed>
<temp>0.00</temp>
<bpm>0</bpm>
<rpm>0.00</rpm>
</extensions>
</trkpt>
<trkpt lat="64.278678894" lon="-21.081418991">
<ele>119.417969</ele>
<time>2012-07-19T12:15:16Z</time>
<speed>3.350000</speed>
<extensions>
<speed>3.4</speed>
<temp>0.00</temp>
<bpm>0</bpm>
<rpm>0.00</rpm>
</extensions>
</trkpt>
<trkpt lat="64.278625488" lon="-21.081155777">
<ele>119.558594</ele>
<time>2012-07-19T12:15:21Z</time>
<speed>2.220000</speed>
<extensions>
<speed>2.2</speed>
<temp>0.00</temp>
<bpm>0</bpm>
<rpm>0.00</rpm>
</extensions>
</trkpt>
<trkpt lat="64.278564453" lon="-21.080968857">
<ele>120.150391</ele>
<time>2012-07-19T12:15:26Z</time>
<speed>2.610000</speed>
<extensions>
<speed>2.6</speed>
<temp>0.00</temp>
<bpm>0</bpm>
<rpm>0.00</rpm>
</extensions>
</trkpt>
<trkpt lat="64.278503418" lon="-21.080705643">
<ele>120.173828</ele>
<time>2012-07-19T12:15:31Z</time>
<speed>3.090000</speed>
<extensions>
<speed>3.1</speed>
<temp>0.00</temp>
<bpm>0</bpm>
<rpm>0.00</rpm>
</extensions>
</trkpt>
<trkpt lat="64.278457642" lon="-21.080472946">
<ele>120.892578</ele>
<time>2012-07-19T12:15:36Z</time>
<speed>1.950000</speed>
<extensions>
<speed>1.9</speed>
<temp>0.00</temp>
<bpm>0</bpm>
<rpm>0.00</rpm>
</extensions>
</trkpt>
<trkpt lat="64.278396606" lon="-21.080270767">
<ele>121.650391</ele>
<time>2012-07-19T12:15:41Z</time>
<speed>2.650000</speed>
<extensions>
<speed>2.6</speed>
<temp>0.00</temp>
<bpm>0</bpm>
<rpm>0.00</rpm>
</extensions>
</trkpt>
<trkpt lat="64.278343201" lon="-21.080015182">
<ele>122.095703</ele>
<time>2012-07-19T12:15:46Z</time>
<speed>3.300000</speed>
<extensions>
<speed>3.3</speed>
<temp>0.00</temp>
<bpm>0</bpm>
<rpm>0.00</rpm>
</extensions>
</trkpt>
<trkpt lat="64.278274536" lon="-21.079708099">
<ele>123.267578</ele>
<time>2012-07-19T12:15:51Z</time>
<speed>3.520000</speed>
<extensions>
<speed>3.5</speed>
<temp>0.00</temp>
<bpm>0</bpm>
<rpm>0.00</rpm>
</extensions>
</trkpt>
<trkpt lat="64.278190613" lon="-21.079383850">
<ele>123.560547</ele>
<time>2012-07-19T12:15:56Z</time>
<speed>3.870000</speed>
<extensions>
<speed>3.9</speed>
<temp>0.00</temp>
<bpm>0</bpm>
<rpm>0.00</rpm>
</extensions>
</trkpt>
<trkpt lat="64.278106689" lon="-21.079015732">
<ele>123.759766</ele>
<time>2012-07-19T12:16:01Z</time>
<speed>4.120000</speed>
<extensions>
<speed>4.1</speed>
<temp>0.00</temp>
<bpm>0</bpm>
<rpm>0.00</rpm>
</extensions>
</trkpt>
<trkpt lat="64.278015137" lon="-21.078634262">
<ele>123.462891</ele>
<time>2012-07-19T12:16:06Z</time>
<speed>4.280000</speed>
<extensions>
<speed>4.3</speed>
<temp>0.00</temp>
<bpm>0</bpm>
<rpm>0.00</rpm>
</extensions>
</trkpt>
<trkpt lat="64.277923584" lon="-21.078227997">
<ele>123.646484</ele>
<time>2012-07-19T12:16:11Z</time>
<speed>4.320000</speed>
<extensions>
<speed>4.3</speed>
<temp>0.00</temp>
<bpm>0</bpm>
<rpm>0.00</rpm>
</extensions>
</trkpt>
<trkpt lat="64.277824402" lon="-21.077848434">
<ele>123.818359</ele>
<time>2012-07-19T12:16:16Z</time>
<speed>4.150000</speed>
<extensions>
<speed>4.1</speed>
<temp>0.00</temp>
<bpm>0</bpm>
<rpm>0.00</rpm>
</extensions>
</trkpt>
<trkpt lat="64.277740479" lon="-21.077478409">
<ele>123.736328</ele>
<time>2012-07-19T12:16:21Z</time>
<speed>4.030000</speed>
<extensions>
<speed>4.0</speed>
<temp>0.00</temp>
<bpm>0</bpm>
<rpm>0.00</rpm>
</extensions>
</trkpt>
<trkpt lat="64.277671814" lon="-21.077173233">
<ele>123.710938</ele>
<time>2012-07-19T12:16:26Z</time>
<speed>3.220000</speed>
<extensions>
<speed>3.2</speed>
<temp>0.00</temp>
<bpm>0</bpm>
<rpm>0.00</rpm>
</extensions>
</trkpt>
<trkpt lat="64.277603149" lon="-21.076885223">
<ele>123.714844</ele>
<time>2012-07-19T12:16:31Z</time>
<speed>3.230000</speed>
<extensions>
<speed>3.2</speed>
<temp>0.00</temp>
<bpm>0</bpm>
<rpm>0.00</rpm>
</extensions>
</trkpt>
<trkpt lat="64.277534485" lon="-21.076618195">
<ele>123.490234</ele>
<time>2012-07-19T12:16:36Z</time>
<speed>2.990000</speed>
<extensions>
<speed>3.0</speed>
<temp>0.00</temp>
<bpm>0</bpm>
<rpm>0.00</rpm>
</extensions>
</trkpt>
<trkpt lat="64.277465820" lon="-21.076372147">
<ele>123.068359</ele>
<time>2012-07-19T12:16:41Z</time>
<speed>2.900000</speed>
<extensions>
<speed>2.9</speed>
<temp>0.00</temp>
<bpm>0</bpm>
<rpm>0.00</rpm>
</extensions>
</trkpt>
<trkpt lat="64.277389526" lon="-21.076108932">
<ele>123.320313</ele>
<time>2012-07-19T12:16:46Z</time>
<speed>3.200000</speed>
<extensions>
<speed>3.2</speed>
<temp>0.00</temp>
<bpm>0</bpm>
<rpm>0.00</rpm>
</extensions>
</trkpt>
<trkpt lat="64.277313232" lon="-21.075859070">
<ele>123.501953</ele>
<time>2012-07-19T12:16:51Z</time>
<speed>2.290000</speed>
<extensions>
<speed>2.3</speed>
<temp>0.00</temp>
<bpm>0</bpm>
<rpm>0.00</rpm>
</extensions>
</trkpt>
<trkpt lat="64.277252197" lon="-21.075679779">
<ele>123.697266</ele>
<time>2012-07-19T12:16:56Z</time>
<speed>2.740000</speed>
<extensions>
<speed>2.7</speed>
<temp>0.00</temp>
<bpm>0</bpm>
<rpm>0.00</rpm>
</extensions>
</trkpt>
<trkpt lat="64.277122498" lon="-21.075464249">
<ele>124.705078</ele>
<time>2012-07-19T12:17:01Z</time>
<speed>3.630000</speed>
<extensions>
<speed>3.6</speed>
<temp>0.00</temp>
<bpm>0</bpm>
<rpm>0.00</rpm>
</extensions>
</trkpt>
<trkpt lat="64.276992798" lon="-21.075229645">
<ele>124.298828</ele>
<time>2012-07-19T12:17:06Z</time>
<speed>3.840000</speed>
<extensions>
<speed>3.8</speed>
<temp>0.00</temp>
<bpm>0</bpm>
<rpm>0.00</rpm>
</extensions>
</trkpt>
<trkpt lat="64.276840210" lon="-21.075014114">
<ele>123.001953</ele>
<time>2012-07-19T12:17:11Z</time>
<speed>3.860000</speed>
<extensions>
<speed>3.9</speed>
<temp>0.00</temp>
<bpm>0</bpm>
<rpm>0.00</rpm>
</extensions>
</trkpt>
<trkpt lat="64.276695251" lon="-21.074815750">
<ele>122.441406</ele>
<time>2012-07-19T12:17:16Z</time>
<speed>3.930000</speed>
<extensions>
<speed>3.9</speed>
<temp>0.00</temp>
<bpm>0</bpm>
<rpm>0.00</rpm>
</extensions>
</trkpt>
<trkpt lat="64.276527405" lon="-21.074663162">
<ele>122.070313</ele>
<time>2012-07-19T12:17:21Z</time>
<speed>4.070000</speed>
<extensions>
<speed>4.1</speed>
<temp>0.00</temp>
<bpm>0</bpm>
<rpm>0.00</rpm>
</extensions>
</trkpt>
<trkpt lat="64.276344299" lon="-21.074522018">
<ele>122.748047</ele>
<time>2012-07-19T12:17:26Z</time>
<speed>4.220000</speed>
<extensions>
<speed>4.2</speed>
<temp>0.00</temp>
<bpm>0</bpm>
<rpm>0.00</rpm>
</extensions>
</trkpt>
<trkpt lat="64.276145935" lon="-21.074413300">
<ele>124.966797</ele>
<time>2012-07-19T12:17:31Z</time>
<speed>4.420000</speed>
<extensions>
<speed>4.4</speed>
<temp>0.00</temp>
<bpm>0</bpm>
<rpm>0.00</rpm>
</extensions>
</trkpt>
<trkpt lat="64.275947571" lon="-21.074367523">
<ele>127.423828</ele>
<time>2012-07-19T12:17:36Z</time>
<speed>4.220000</speed>
<extensions>
<speed>4.2</speed>
<temp>0.00</temp>
<bpm>0</bpm>
<rpm>0.00</rpm>
</extensions>
</trkpt>
<trkpt lat="64.275749207" lon="-21.074357986">
<ele>129.140625</ele>
<time>2012-07-19T12:17:41Z</time>
<speed>4.490000</speed>
<extensions>
<speed>4.5</speed>
<temp>0.00</temp>
<bpm>0</bpm>
<rpm>0.00</rpm>
</extensions>
</trkpt>
<trkpt lat="64.275535583" lon="-21.074369431">
<ele>130.730469</ele>
<time>2012-07-19T12:17:46Z</time>
<speed>4.540000</speed>
<extensions>
<speed>4.5</speed>
<temp>0.00</temp>
<bpm>0</bpm>
<rpm>0.00</rpm>
</extensions>
</trkpt>
<trkpt lat="64.275329590" lon="-21.074359894">
<ele>131.339844</ele>
<time>2012-07-19T12:17:51Z</time>
<speed>3.890000</speed>
<extensions>
<speed>3.9</speed>
<temp>0.00</temp>
<bpm>0</bpm>
<rpm>0.00</rpm>
</extensions>
</trkpt>
<trkpt lat="64.275154114" lon="-21.074314117">
<ele>129.644531</ele>
<time>2012-07-19T12:17:56Z</time>
<speed>3.820000</speed>
<extensions>
<speed>3.8</speed>
<temp>0.00</temp>
<bpm>0</bpm>
<rpm>0.00</rpm>
</extensions>
</trkpt>
<trkpt lat="64.274978638" lon="-21.074243546">
<ele>129.242188</ele>
<time>2012-07-19T12:18:01Z</time>
<speed>4.020000</speed>
<extensions>
<speed>4.0</speed>
<temp>0.00</temp>
<bpm>0</bpm>
<rpm>0.00</rpm>
</extensions>
</trkpt>
<trkpt lat="64.274787903" lon="-21.074134827">
<ele>129.410156</ele>
<time>2012-07-19T12:18:06Z</time>
<speed>4.790000</speed>
<extensions>
<speed>4.8</speed>
<temp>0.00</temp>
<bpm>0</bpm>
<rpm>0.00</rpm>
</extensions>
</trkpt>
<trkpt lat="64.274574280" lon="-21.073986053">
<ele>126.998047</ele>
<time>2012-07-19T12:18:11Z</time>
<speed>5.240000</speed>
<extensions>
<speed>5.2</speed>
<temp>0.00</temp>
<bpm>0</bpm>
<rpm>0.00</rpm>
</extensions>
</trkpt>
<trkpt lat="64.274353027" lon="-21.073797226">
<ele>124.085938</ele>
<time>2012-07-19T12:18:16Z</time>
<speed>5.570000</speed>
<extensions>
<speed>5.6</speed>
<temp>0.00</temp>
<bpm>0</bpm>
<rpm>0.00</rpm>
</extensions>
</trkpt>
<trkpt lat="64.274124146" lon="-21.073568344">
<ele>122.750000</ele>
<time>2012-07-19T12:18:21Z</time>
<speed>5.690000</speed>
<extensions>
<speed>5.7</speed>
<temp>0.00</temp>
<bpm>0</bpm>
<rpm>0.00</rpm>
</extensions>
</trkpt>
<trkpt lat="64.273925781" lon="-21.073333740">
<ele>122.076172</ele>
<time>2012-07-19T12:18:26Z</time>
<speed>4.660000</speed>
<extensions>
<speed>4.7</speed>
<temp>0.00</temp>
<bpm>0</bpm>
<rpm>0.00</rpm>
</extensions>
</trkpt>
<trkpt lat="64.273765564" lon="-21.073131561">
<ele>121.041016</ele>
<time>2012-07-19T12:18:31Z</time>
<speed>3.910000</speed>
<extensions>
<speed>3.9</speed>
<temp>0.00</temp>
<bpm>0</bpm>
<rpm>0.00</rpm>
</extensions>
</trkpt>
<trkpt lat="64.273612976" lon="-21.072885513">
<ele>121.392578</ele>
<time>2012-07-19T12:18:36Z</time>
<speed>4.230000</speed>
<extensions>
<speed>4.2</speed>
<temp>0.00</temp>
<bpm>0</bpm>
<rpm>0.00</rpm>
</extensions>
</trkpt>
<trkpt lat="64.273460388" lon="-21.072597504">
<ele>122.142578</ele>
<time>2012-07-19T12:18:41Z</time>
<speed>4.290000</speed>
<extensions>
<speed>4.3</speed>
<temp>0.00</temp>
<bpm>0</bpm>
<rpm>0.00</rpm>
</extensions>
</trkpt>
<trkpt lat="64.273315430" lon="-21.072320938">
<ele>123.382813</ele>
<time>2012-07-19T12:18:46Z</time>
<speed>4.070000</speed>
<extensions>
<speed>4.1</speed>
<temp>0.00</temp>
<bpm>0</bpm>
<rpm>0.00</rpm>
</extensions>
</trkpt>
<trkpt lat="64.273178101" lon="-21.072032928">
<ele>124.544922</ele>
<time>2012-07-19T12:18:51Z</time>
<speed>3.830000</speed>
<extensions>
<speed>3.8</speed>
<temp>0.00</temp>
<bpm>0</bpm>
<rpm>0.00</rpm>
</extensions>
</trkpt>
<trkpt lat="64.273063660" lon="-21.071756363">
<ele>124.517578</ele>
<time>2012-07-19T12:18:56Z</time>
<speed>3.930000</speed>
<extensions>
<speed>3.9</speed>
<temp>0.00</temp>
<bpm>0</bpm>
<rpm>0.00</rpm>
</extensions>
</trkpt>
<trkpt lat="64.272941589" lon="-21.071477890">
<ele>125.269531</ele>
<time>2012-07-19T12:19:01Z</time>
<speed>4.050000</speed>
<extensions>
<speed>4.0</speed>
<temp>0.00</temp>
<bpm>0</bpm>
<rpm>0.00</rpm>
</extensions>
</trkpt>
<trkpt lat="64.272804260" lon="-21.071151733">
<ele>126.527344</ele>
<time>2012-07-19T12:19:06Z</time>
<speed>4.350000</speed>
<extensions>
<speed>4.3</speed>
<temp>0.00</temp>
<bpm>0</bpm>
<rpm>0.00</rpm>
</extensions>
</trkpt>
<trkpt lat="64.272659302" lon="-21.070833206">
<ele>126.875000</ele>
<time>2012-07-19T12:19:11Z</time>
<speed>4.370000</speed>
<extensions>
<speed>4.4</speed>
<temp>0.00</temp>
<bpm>0</bpm>
<rpm>0.00</rpm>
</extensions>
</trkpt>
<trkpt lat="64.272529602" lon="-21.070533752">
<ele>127.794922</ele>
<time>2012-07-19T12:19:16Z</time>
<speed>3.960000</speed>
<extensions>
<speed>4.0</speed>
<temp>0.00</temp>
<bpm>0</bpm>
<rpm>0.00</rpm>
</extensions>
</trkpt>
<trkpt lat="64.272407532" lon="-21.070245743">
<ele>128.574219</ele>
<time>2012-07-19T12:19:21Z</time>
<speed>3.460000</speed>
<extensions>
<speed>3.5</speed>
<temp>0.00</temp>
<bpm>0</bpm>
<rpm>0.00</rpm>
</extensions>
</trkpt>
<trkpt lat="64.272300720" lon="-21.070007324">
<ele>128.539063</ele>
<time>2012-07-19T12:19:26Z</time>
<speed>3.740000</speed>
<extensions>
<speed>3.7</speed>
<temp>0.00</temp>
<bpm>0</bpm>
<rpm>0.00</rpm>
</extensions>
</trkpt>
<trkpt lat="64.272186279" lon="-21.069684982">
<ele>129.476563</ele>
<time>2012-07-19T12:19:31Z</time>
<speed>4.150000</speed>
<extensions>
<speed>4.1</speed>
<temp>0.00</temp>
<bpm>0</bpm>
<rpm>0.00</rpm>
</extensions>
</trkpt>
<trkpt lat="64.272064209" lon="-21.069351196">
<ele>130.390625</ele>
<time>2012-07-19T12:19:36Z</time>
<speed>4.130000</speed>
<extensions>
<speed>4.1</speed>
<temp>0.00</temp>
<bpm>0</bpm>
<rpm>0.00</rpm>
</extensions>
</trkpt>
<trkpt lat="64.271934509" lon="-21.069034576">
<ele>131.859375</ele>
<time>2012-07-19T12:19:41Z</time>
<speed>4.050000</speed>
<extensions>
<speed>4.0</speed>
<temp>0.00</temp>
<bpm>0</bpm>
<rpm>0.00</rpm>
</extensions>
</trkpt>
<trkpt lat="64.271812439" lon="-21.068702698">
<ele>132.695313</ele>
<time>2012-07-19T12:19:46Z</time>
<speed>4.320000</speed>
<extensions>
<speed>4.3</speed>
<temp>0.00</temp>
<bpm>0</bpm>
<rpm>0.00</rpm>
</extensions>
</trkpt>
<trkpt lat="64.271682739" lon="-21.068355560">
<ele>133.066406</ele>
<time>2012-07-19T12:19:51Z</time>
<speed>4.500000</speed>
<extensions>
<speed>4.5</speed>
<temp>0.00</temp>
<bpm>0</bpm>
<rpm>0.00</rpm>
</extensions>
</trkpt>
<trkpt lat="64.271553040" lon="-21.068000793">
<ele>133.351563</ele>
<time>2012-07-19T12:19:56Z</time>
<speed>4.490000</speed>
<extensions>
<speed>4.5</speed>
<temp>0.00</temp>
<bpm>0</bpm>
<rpm>0.00</rpm>
</extensions>
</trkpt>
<trkpt lat="64.271430969" lon="-21.067640305">
<ele>133.371094</ele>
<time>2012-07-19T12:20:01Z</time>
<speed>4.560000</speed>
<extensions>
<speed>4.6</speed>
<temp>0.00</temp>
<bpm>0</bpm>
<rpm>0.00</rpm>
</extensions>
</trkpt>
<trkpt lat="64.271301270" lon="-21.067277908">
<ele>133.210938</ele>
<time>2012-07-19T12:20:06Z</time>
<speed>4.590000</speed>
<extensions>
<speed>4.6</speed>
<temp>0.00</temp>
<bpm>0</bpm>
<rpm>0.00</rpm>
</extensions>
</trkpt>
<trkpt lat="64.271163940" lon="-21.066930771">
<ele>133.480469</ele>
<time>2012-07-19T12:20:11Z</time>
<speed>4.700000</speed>
<extensions>
<speed>4.7</speed>
<temp>0.00</temp>
<bpm>0</bpm>
<rpm>0.00</rpm>
</extensions>
</trkpt>
<trkpt lat="64.271011353" lon="-21.066614151">
<ele>133.359375</ele>
<time>2012-07-19T12:20:16Z</time>
<speed>4.700000</speed>
<extensions>
<speed>4.7</speed>
<temp>0.00</temp>
<bpm>0</bpm>
<rpm>0.00</rpm>
</extensions>
</trkpt>
<trkpt lat="64.270843506" lon="-21.066347122">
<ele>132.636719</ele>
<time>2012-07-19T12:20:21Z</time>
<speed>4.690000</speed>
<extensions>
<speed>4.7</speed>
<temp>0.00</temp>
<bpm>0</bpm>
<rpm>0.00</rpm>
</extensions>
</trkpt>
<trkpt lat="64.270660400" lon="-21.066095352">
<ele>133.464844</ele>
<time>2012-07-19T12:20:26Z</time>
<speed>4.590000</speed>
<extensions>
<speed>4.6</speed>
<temp>0.00</temp>
<bpm>0</bpm>
<rpm>0.00</rpm>
</extensions>
</trkpt>
<trkpt lat="64.270469666" lon="-21.065868378">
<ele>133.519531</ele>
<time>2012-07-19T12:20:31Z</time>
<speed>4.960000</speed>
<extensions>
<speed>5.0</speed>
<temp>0.00</temp>
<bpm>0</bpm>
<rpm>0.00</rpm>
</extensions>
</trkpt>
<trkpt lat="64.270256042" lon="-21.065660477">
<ele>132.886719</ele>
<time>2012-07-19T12:20:36Z</time>
<speed>5.140000</speed>
<extensions>
<speed>5.1</speed>
<temp>0.00</temp>
<bpm>0</bpm>
<rpm>0.00</rpm>
</extensions>
</trkpt>
<trkpt lat="64.270050049" lon="-21.065469742">
<ele>133.023438</ele>
<time>2012-07-19T12:20:41Z</time>
<speed>4.620000</speed>
<extensions>
<speed>4.6</speed>
<temp>0.00</temp>
<bpm>0</bpm>
<rpm>0.00</rpm>
</extensions>
</trkpt>
<trkpt lat="64.269851685" lon="-21.065307617">
<ele>133.847656</ele>
<time>2012-07-19T12:20:46Z</time>
<speed>4.550000</speed>
<extensions>
<speed>4.5</speed>
<temp>0.00</temp>
<bpm>0</bpm>
<rpm>0.00</rpm>
</extensions>
</trkpt>
<trkpt lat="64.269653320" lon="-21.065145493">
<ele>134.199219</ele>
<time>2012-07-19T12:20:51Z</time>
<speed>4.500000</speed>
<extensions>
<speed>4.5</speed>
<temp>0.00</temp>
<bpm>0</bpm>
<rpm>0.00</rpm>
</extensions>
</trkpt>
<trkpt lat="64.269454956" lon="-21.064947128">
<ele>134.597656</ele>
<time>2012-07-19T12:20:56Z</time>
<speed>4.940000</speed>
<extensions>
<speed>4.9</speed>
<temp>0.00</temp>
<bpm>0</bpm>
<rpm>0.00</rpm>
</extensions>
</trkpt>
<trkpt lat="64.269264221" lon="-21.064737320">
<ele>134.820313</ele>
<time>2012-07-19T12:21:01Z</time>
<speed>5.060000</speed>
<extensions>
<speed>5.1</speed>
<temp>0.00</temp>
<bpm>0</bpm>
<rpm>0.00</rpm>
</extensions>
</trkpt>
<trkpt lat="64.269058228" lon="-21.064525604">
<ele>134.207031</ele>
<time>2012-07-19T12:21:06Z</time>
<speed>5.170000</speed>
<extensions>
<speed>5.2</speed>
<temp>0.00</temp>
<bpm>0</bpm>
<rpm>0.00</rpm>
</extensions>
</trkpt>
<trkpt lat="64.268844604" lon="-21.064319611">
<ele>134.355469</ele>
<time>2012-07-19T12:21:11Z</time>
<speed>4.910000</speed>
<extensions>
<speed>4.9</speed>
<temp>0.00</temp>
<bpm>0</bpm>
<rpm>0.00</rpm>
</extensions>
</trkpt>
<trkpt lat="64.268653870" lon="-21.064105988">
<ele>134.683594</ele>
<time>2012-07-19T12:21:16Z</time>
<speed>4.770000</speed>
<extensions>
<speed>4.8</speed>
<temp>0.00</temp>
<bpm>0</bpm>
<rpm>0.00</rpm>
</extensions>
</trkpt>
<trkpt lat="64.268463135" lon="-21.063882828">
<ele>134.648438</ele>
<time>2012-07-19T12:21:21Z</time>
<speed>4.700000</speed>
<extensions>
<speed>4.7</speed>
<temp>0.00</temp>
<bpm>0</bpm>
<rpm>0.00</rpm>
</extensions>
</trkpt>
<trkpt lat="64.268280029" lon="-21.063665390">
<ele>133.902344</ele>
<time>2012-07-19T12:21:26Z</time>
<speed>4.480000</speed>
<extensions>
<speed>4.5</speed>
<temp>0.00</temp>
<bpm>0</bpm>
<rpm>0.00</rpm>
</extensions>
</trkpt>
<trkpt lat="64.268112183" lon="-21.063476563">
<ele>133.250000</ele>
<time>2012-07-19T12:21:31Z</time>
<speed>4.520000</speed>
<extensions>
<speed>4.5</speed>
<temp>0.00</temp>
<bpm>0</bpm>
<rpm>0.00</rpm>
</extensions>
</trkpt>
<trkpt lat="64.267936707" lon="-21.063196182">
<ele>133.042969</ele>
<time>2012-07-19T12:21:36Z</time>
<speed>4.850000</speed>
<extensions>
<speed>4.8</speed>
<temp>0.00</temp>
<bpm>0</bpm>
<rpm>0.00</rpm>
</extensions>
</trkpt>
<trkpt lat="64.267738342" lon="-21.062923431">
<ele>131.871094</ele>
<time>2012-07-19T12:21:41Z</time>
<speed>5.110000</speed>
<extensions>
<speed>5.1</speed>
<temp>0.00</temp>
<bpm>0</bpm>
<rpm>0.00</rpm>
</extensions>
</trkpt>
<trkpt lat="64.267555237" lon="-21.062623978">
<ele>132.386719</ele>
<time>2012-07-19T12:21:46Z</time>
<speed>4.880000</speed>
<extensions>
<speed>4.9</speed>
<temp>0.00</temp>
<bpm>0</bpm>
<rpm>0.00</rpm>
</extensions>
</trkpt>
<trkpt lat="64.267372131" lon="-21.062330246">
<ele>131.605469</ele>
<time>2012-07-19T12:21:51Z</time>
<speed>4.800000</speed>
<extensions>
<speed>4.8</speed>
<temp>0.00</temp>
<bpm>0</bpm>
<rpm>0.00</rpm>
</extensions>
</trkpt>
<trkpt lat="64.267211914" lon="-21.062046051">
<ele>131.562500</ele>
<time>2012-07-19T12:21:56Z</time>
<speed>4.200000</speed>
<extensions>
<speed>4.2</speed>
<temp>0.00</temp>
<bpm>0</bpm>
<rpm>0.00</rpm>
</extensions>
</trkpt>
<trkpt lat="64.267051697" lon="-21.061786652">
<ele>131.125000</ele>
<time>2012-07-19T12:22:01Z</time>
<speed>4.160000</speed>
<extensions>
<speed>4.2</speed>
<temp>0.00</temp>
<bpm>0</bpm>
<rpm>0.00</rpm>
</extensions>
</trkpt>
<trkpt lat="64.266906738" lon="-21.061506271">
<ele>130.222656</ele>
<time>2012-07-19T12:22:06Z</time>
<speed>4.640000</speed>
<extensions>
<speed>4.6</speed>
<temp>0.00</temp>
<bpm>0</bpm>
<rpm>0.00</rpm>
</extensions>
</trkpt>
<trkpt lat="64.266746521" lon="-21.061138153">
<ele>129.839844</ele>
<time>2012-07-19T12:22:11Z</time>
<speed>5.420000</speed>
<extensions>
<speed>5.4</speed>
<temp>0.00</temp>
<bpm>0</bpm>
<rpm>0.00</rpm>
</extensions>
</trkpt>
<trkpt lat="64.266563416" lon="-21.060726166">
<ele>129.914063</ele>
<time>2012-07-19T12:22:16Z</time>
<speed>5.940000</speed>
<extensions>
<speed>5.9</speed>
<temp>0.00</temp>
<bpm>0</bpm>
<rpm>0.00</rpm>
</extensions>
</trkpt>
<trkpt lat="64.266380310" lon="-21.060279846">
<ele>129.121094</ele>
<time>2012-07-19T12:22:21Z</time>
<speed>6.070000</speed>
<extensions>
<speed>6.1</speed>
<temp>0.00</temp>
<bpm>0</bpm>
<rpm>0.00</rpm>
</extensions>
</trkpt>
<trkpt lat="64.266189575" lon="-21.059822083">
<ele>129.191406</ele>
<time>2012-07-19T12:22:26Z</time>
<speed>5.910000</speed>
<extensions>
<speed>5.9</speed>
<temp>0.00</temp>
<bpm>0</bpm>
<rpm>0.00</rpm>
</extensions>
</trkpt>
<trkpt lat="64.266006470" lon="-21.059368134">
<ele>128.757813</ele>
<time>2012-07-19T12:22:31Z</time>
<speed>6.240000</speed>
<extensions>
<speed>6.2</speed>
<temp>0.00</temp>
<bpm>0</bpm>
<rpm>0.00</rpm>
</extensions>
</trkpt>
<trkpt lat="64.265815735" lon="-21.058868408">
<ele>128.449219</ele>
<time>2012-07-19T12:22:36Z</time>
<speed>6.440000</speed>
<extensions>
<speed>6.4</speed>
<temp>0.00</temp>
<bpm>0</bpm>
<rpm>0.00</rpm>
</extensions>
</trkpt>
<trkpt lat="64.265632629" lon="-21.058353424">
<ele>127.224609</ele>
<time>2012-07-19T12:22:41Z</time>
<speed>6.920000</speed>
<extensions>
<speed>6.9</speed>
<temp>0.00</temp>
<bpm>0</bpm>
<rpm>0.00</rpm>
</extensions>
</trkpt>
<trkpt lat="64.265426636" lon="-21.057788849">
<ele>126.316406</ele>
<time>2012-07-19T12:22:46Z</time>
<speed>6.920000</speed>
<extensions>
<speed>6.9</speed>
<temp>0.00</temp>
<bpm>0</bpm>
<rpm>0.00</rpm>
</extensions>
</trkpt>
<trkpt lat="64.265235901" lon="-21.057264328">
<ele>125.599609</ele>
<time>2012-07-19T12:22:51Z</time>
<speed>6.500000</speed>
<extensions>
<speed>6.5</speed>
<temp>0.00</temp>
<bpm>0</bpm>
<rpm>0.00</rpm>
</extensions>
</trkpt>
<trkpt lat="64.265029907" lon="-21.056766510">
<ele>125.593750</ele>
<time>2012-07-19T12:22:56Z</time>
<speed>6.300000</speed>
<extensions>
<speed>6.3</speed>
<temp>0.00</temp>
<bpm>0</bpm>
<rpm>0.00</rpm>
</extensions>
</trkpt>
<trkpt lat="64.264823914" lon="-21.056306839">
<ele>125.574219</ele>
<time>2012-07-19T12:23:01Z</time>
<speed>6.210000</speed>
<extensions>
<speed>6.2</speed>
<temp>0.00</temp>
<bpm>0</bpm>
<rpm>0.00</rpm>
</extensions>
</trkpt>
<trkpt lat="64.264625549" lon="-21.055904388">
<ele>124.435547</ele>
<time>2012-07-19T12:23:06Z</time>
<speed>6.350000</speed>
<extensions>
<speed>6.4</speed>
<temp>0.00</temp>
<bpm>0</bpm>
<rpm>0.00</rpm>
</extensions>
</trkpt>
<trkpt lat="64.264404297" lon="-21.055450439">
<ele>123.806641</ele>
<time>2012-07-19T12:23:11Z</time>
<speed>6.520000</speed>
<extensions>
<speed>6.5</speed>
<temp>0.00</temp>
<bpm>0</bpm>
<rpm>0.00</rpm>
</extensions>
</trkpt>
<trkpt lat="64.264183044" lon="-21.055053711">
<ele>122.621094</ele>
<time>2012-07-19T12:23:16Z</time>
<speed>6.360000</speed>
<extensions>
<speed>6.4</speed>
<temp>0.00</temp>
<bpm>0</bpm>
<rpm>0.00</rpm>
</extensions>
</trkpt>
<trkpt lat="64.263961792" lon="-21.054689407">
<ele>121.939453</ele>
<time>2012-07-19T12:23:21Z</time>
<speed>5.960000</speed>
<extensions>
<speed>6.0</speed>
<temp>0.00</temp>
<bpm>0</bpm>
<rpm>0.00</rpm>
</extensions>
</trkpt>
<trkpt lat="64.263748169" lon="-21.054328918">
<ele>122.166016</ele>
<time>2012-07-19T12:23:26Z</time>
<speed>6.040000</speed>
<extensions>
<speed>6.0</speed>
<temp>0.00</temp>
<bpm>0</bpm>
<rpm>0.00</rpm>
</extensions>
</trkpt>
<trkpt lat="64.263519287" lon="-21.053974152">
<ele>121.478516</ele>
<time>2012-07-19T12:23:31Z</time>
<speed>6.400000</speed>
<extensions>
<speed>6.4</speed>
<temp>0.00</temp>
<bpm>0</bpm>
<rpm>0.00</rpm>
</extensions>
</trkpt>
<trkpt lat="64.263275146" lon="-21.053602219">
<ele>120.451172</ele>
<time>2012-07-19T12:23:36Z</time>
<speed>6.650000</speed>
<extensions>
<speed>6.7</speed>
<temp>0.00</temp>
<bpm>0</bpm>
<rpm>0.00</rpm>
</extensions>
</trkpt>
<trkpt lat="64.263015747" lon="-21.053228378">
<ele>119.267578</ele>
<time>2012-07-19T12:23:41Z</time>
<speed>6.840000</speed>
<extensions>
<speed>6.8</speed>
<temp>0.00</temp>
<bpm>0</bpm>
<rpm>0.00</rpm>
</extensions>
</trkpt>
<trkpt lat="64.262748718" lon="-21.052900314">
<ele>119.082031</ele>
<time>2012-07-19T12:23:46Z</time>
<speed>6.510000</speed>
<extensions>
<speed>6.5</speed>
<temp>0.00</temp>
<bpm>0</bpm>
<rpm>0.00</rpm>
</extensions>
</trkpt>
<trkpt lat="64.262474060" lon="-21.052574158">
<ele>118.931641</ele>
<time>2012-07-19T12:23:51Z</time>
<speed>6.760000</speed>
<extensions>
<speed>6.8</speed>
<temp>0.00</temp>
<bpm>0</bpm>
<rpm>0.00</rpm>
</extensions>
</trkpt>
<trkpt lat="64.262199402" lon="-21.052268982">
<ele>118.683594</ele>
<time>2012-07-19T12:23:56Z</time>
<speed>6.750000</speed>
<extensions>
<speed>6.7</speed>
<temp>0.00</temp>
<bpm>0</bpm>
<rpm>0.00</rpm>
</extensions>
</trkpt>
<trkpt lat="64.261924744" lon="-21.051946640">
<ele>118.123047</ele>
<time>2012-07-19T12:24:01Z</time>
<speed>6.770000</speed>
<extensions>
<speed>6.8</speed>
<temp>0.00</temp>
<bpm>0</bpm>
<rpm>0.00</rpm>
</extensions>
</trkpt>
<trkpt lat="64.261672974" lon="-21.051607132">
<ele>119.033203</ele>
<time>2012-07-19T12:24:06Z</time>
<speed>6.080000</speed>
<extensions>
<speed>6.1</speed>
<temp>0.00</temp>
<bpm>0</bpm>
<rpm>0.00</rpm>
</extensions>
</trkpt>
<trkpt lat="64.261474609" lon="-21.051259995">
<ele>118.892578</ele>
<time>2012-07-19T12:24:11Z</time>
<speed>5.370000</speed>
<extensions>
<speed>5.4</speed>
<temp>0.00</temp>
<bpm>0</bpm>
<rpm>0.00</rpm>
</extensions>
</trkpt>
<trkpt lat="64.261299133" lon="-21.050939560">
<ele>119.623047</ele>
<time>2012-07-19T12:24:16Z</time>
<speed>4.860000</speed>
<extensions>
<speed>4.9</speed>
<temp>0.00</temp>
<bpm>0</bpm>
<rpm>0.00</rpm>
</extensions>
</trkpt>
<trkpt lat="64.261146545" lon="-21.050577164">
<ele>119.623047</ele>
<time>2012-07-19T12:24:21Z</time>
<speed>5.070000</speed>
<extensions>
<speed>5.1</speed>
<temp>0.00</temp>
<bpm>0</bpm>
<rpm>0.00</rpm>
</extensions>
</trkpt>
<trkpt lat="64.260986328" lon="-21.050191879">
<ele>119.720703</ele>
<time>2012-07-19T12:24:26Z</time>
<speed>5.340000</speed>
<extensions>
<speed>5.3</speed>
<temp>0.00</temp>
<bpm>0</bpm>
<rpm>0.00</rpm>
</extensions>
</trkpt>
<trkpt lat="64.260833740" lon="-21.049766541">
<ele>119.156250</ele>
<time>2012-07-19T12:24:31Z</time>
<speed>5.340000</speed>
<extensions>
<speed>5.3</speed>
<temp>0.00</temp>
<bpm>0</bpm>
<rpm>0.00</rpm>
</extensions>
</trkpt>
<trkpt lat="64.260681152" lon="-21.049325943">
<ele>120.300781</ele>
<time>2012-07-19T12:24:36Z</time>
<speed>5.160000</speed>
<extensions>
<speed>5.2</speed>
<temp>0.00</temp>
<bpm>0</bpm>
<rpm>0.00</rpm>
</extensions>
</trkpt>
<trkpt lat="64.260566711" lon="-21.048929214">
<ele>121.869141</ele>
<time>2012-07-19T12:24:41Z</time>
<speed>3.960000</speed>
<extensions>
<speed>4.0</speed>
<temp>0.00</temp>
<bpm>0</bpm>
<rpm>0.00</rpm>
</extensions>
</trkpt>
<trkpt lat="64.260482788" lon="-21.048599243">
<ele>123.447266</ele>
<time>2012-07-19T12:24:46Z</time>
<speed>2.760000</speed>
<extensions>
<speed>2.8</speed>
<temp>0.00</temp>
<bpm>0</bpm>
<rpm>0.00</rpm>
</extensions>
</trkpt>
<trkpt lat="64.260429382" lon="-21.048324585">
<ele>124.613281</ele>
<time>2012-07-19T12:24:51Z</time>
<speed>3.150000</speed>
<extensions>
<speed>3.2</speed>
<temp>0.00</temp>
<bpm>0</bpm>
<rpm>0.00</rpm>
</extensions>
</trkpt>
<trkpt lat="64.260375977" lon="-21.048021317">
<ele>126.162109</ele>
<time>2012-07-19T12:24:56Z</time>
<speed>3.310000</speed>
<extensions>
<speed>3.3</speed>
<temp>0.00</temp>
<bpm>0</bpm>
<rpm>0.00</rpm>
</extensions>
</trkpt>
<trkpt lat="64.260322571" lon="-21.047698975">
<ele>126.664063</ele>
<time>2012-07-19T12:25:01Z</time>
<speed>3.520000</speed>
<extensions>
<speed>3.5</speed>
<temp>0.00</temp>
<bpm>0</bpm>
<rpm>0.00</rpm>
</extensions>
</trkpt>
<trkpt lat="64.260261536" lon="-21.047349930">
<ele>125.927734</ele>
<time>2012-07-19T12:25:06Z</time>
<speed>3.810000</speed>
<extensions>
<speed>3.8</speed>
<temp>0.00</temp>
<bpm>0</bpm>
<rpm>0.00</rpm>
</extensions>
</trkpt>
<trkpt lat="64.260185242" lon="-21.046981812">
<ele>125.265625</ele>
<time>2012-07-19T12:25:11Z</time>
<speed>3.920000</speed>
<extensions>
<speed>3.9</speed>
<temp>0.00</temp>
<bpm>0</bpm>
<rpm>0.00</rpm>
</extensions>
</trkpt>
<trkpt lat="64.260124207" lon="-21.046579361">
<ele>125.224609</ele>
<time>2012-07-19T12:25:16Z</time>
<speed>4.150000</speed>
<extensions>
<speed>4.1</speed>
<temp>0.00</temp>
<bpm>0</bpm>
<rpm>0.00</rpm>
</extensions>
</trkpt>
<trkpt lat="64.260078430" lon="-21.046129227">
<ele>125.847656</ele>
<time>2012-07-19T12:25:21Z</time>
<speed>4.420000</speed>
<extensions>
<speed>4.4</speed>
<temp>0.00</temp>
<bpm>0</bpm>
<rpm>0.00</rpm>
</extensions>
</trkpt>
<trkpt lat="64.260047913" lon="-21.045696259">
<ele>126.087891</ele>
<time>2012-07-19T12:25:26Z</time>
<speed>4.460000</speed>
<extensions>
<speed>4.5</speed>
<temp>0.00</temp>
<bpm>0</bpm>
<rpm>0.00</rpm>
</extensions>
</trkpt>
<trkpt lat="64.260025024" lon="-21.045251846">
<ele>127.000000</ele>
<time>2012-07-19T12:25:31Z</time>
<speed>4.300000</speed>
<extensions>
<speed>4.3</speed>
<temp>0.00</temp>
<bpm>0</bpm>
<rpm>0.00</rpm>
</extensions>
</trkpt>
<trkpt lat="64.260017395" lon="-21.044837952">
<ele>128.058594</ele>
<time>2012-07-19T12:25:36Z</time>
<speed>3.920000</speed>
<extensions>
<speed>3.9</speed>
<temp>0.00</temp>
<bpm>0</bpm>
<rpm>0.00</rpm>
</extensions>
</trkpt>
<trkpt lat="64.260025024" lon="-21.044441223">
<ele>129.152344</ele>
<time>2012-07-19T12:25:41Z</time>
<speed>3.400000</speed>
<extensions>
<speed>3.4</speed>
<temp>0.00</temp>
<bpm>0</bpm>
<rpm>0.00</rpm>
</extensions>
</trkpt>
<trkpt lat="64.260032654" lon="-21.044071198">
<ele>130.574219</ele>
<time>2012-07-19T12:25:46Z</time>
<speed>3.400000</speed>
<extensions>
<speed>3.4</speed>
<temp>0.00</temp>
<bpm>0</bpm>
<rpm>0.00</rpm>
</extensions>
</trkpt>
<trkpt lat="64.260047913" lon="-21.043724060">
<ele>131.433594</ele>
<time>2012-07-19T12:25:51Z</time>
<speed>3.350000</speed>
<extensions>
<speed>3.4</speed>
<temp>0.00</temp>
<bpm>0</bpm>
<rpm>0.00</rpm>
</extensions>
</trkpt>
<trkpt lat="64.260063171" lon="-21.043363571">
<ele>132.460938</ele>
<time>2012-07-19T12:25:56Z</time>
<speed>3.630000</speed>
<extensions>
<speed>3.6</speed>
<temp>0.00</temp>
<bpm>0</bpm>
<rpm>0.00</rpm>
</extensions>
</trkpt>
<trkpt lat="64.260070801" lon="-21.042980194">
<ele>133.542969</ele>
<time>2012-07-19T12:26:01Z</time>
<speed>3.620000</speed>
<extensions>
<speed>3.6</speed>
<temp>0.00</temp>
<bpm>0</bpm>
<rpm>0.00</rpm>
</extensions>
</trkpt>
<trkpt lat="64.260078430" lon="-21.042613983">
<ele>134.625000</ele>
<time>2012-07-19T12:26:06Z</time>
<speed>3.480000</speed>
<extensions>
<speed>3.5</speed>
<temp>0.00</temp>
<bpm>0</bpm>
<rpm>0.00</rpm>
</extensions>
</trkpt>
<trkpt lat="64.260086060" lon="-21.042259216">
<ele>135.609375</ele>
<time>2012-07-19T12:26:11Z</time>
<speed>3.520000</speed>
<extensions>
<speed>3.5</speed>
<temp>0.00</temp>
<bpm>0</bpm>
<rpm>0.00</rpm>
</extensions>
</trkpt>
<trkpt lat="64.260093689" lon="-21.041904449">
<ele>135.875000</ele>
<time>2012-07-19T12:26:16Z</time>
<speed>3.400000</speed>
<extensions>
<speed>3.4</speed>
<temp>0.00</temp>
<bpm>0</bpm>
<rpm>0.00</rpm>
</extensions>
</trkpt>
<trkpt lat="64.260108948" lon="-21.041557312">
<ele>136.363281</ele>
<time>2012-07-19T12:26:21Z</time>
<speed>3.490000</speed>
<extensions>
<speed>3.5</speed>
<temp>0.00</temp>
<bpm>0</bpm>
<rpm>0.00</rpm>
</extensions>
</trkpt>
<trkpt lat="64.260116577" lon="-21.041208267">
<ele>136.898438</ele>
<time>2012-07-19T12:26:26Z</time>
<speed>3.280000</speed>
<extensions>
<speed>3.3</speed>
<temp>0.00</temp>
<bpm>0</bpm>
<rpm>0.00</rpm>
</extensions>
</trkpt>
<trkpt lat="64.260124207" lon="-21.040895462">
<ele>137.843750</ele>
<time>2012-07-19T12:26:31Z</time>
<speed>2.710000</speed>
<extensions>
<speed>2.7</speed>
<temp>0.00</temp>
<bpm>0</bpm>
<rpm>0.00</rpm>
</extensions>
</trkpt>
<trkpt lat="64.260124207" lon="-21.040616989">
<ele>138.253906</ele>
<time>2012-07-19T12:26:36Z</time>
<speed>2.480000</speed>
<extensions>
<speed>2.5</speed>
<temp>0.00</temp>
<bpm>0</bpm>
<rpm>0.00</rpm>
</extensions>
</trkpt>
<trkpt lat="64.260108948" lon="-21.040353775">
<ele>138.492188</ele>
<time>2012-07-19T12:26:41Z</time>
<speed>2.110000</speed>
<extensions>
<speed>2.1</speed>
<temp>0.00</temp>
<bpm>0</bpm>
<rpm>0.00</rpm>
</extensions>
</trkpt>
<trkpt lat="64.260116577" lon="-21.040218353">
<ele>138.796875</ele>
<time>2012-07-19T12:26:46Z</time>
<speed>1.180000</speed>
<extensions>
<speed>1.2</speed>
<temp>0.00</temp>
<bpm>0</bpm>
<rpm>0.00</rpm>
</extensions>
</trkpt>
<trkpt lat="64.260101318" lon="-21.040063858">
<ele>138.386719</ele>
<time>2012-07-19T12:26:51Z</time>
<speed>1.730000</speed>
<extensions>
<speed>1.7</speed>
<temp>0.00</temp>
<bpm>0</bpm>
<rpm>0.00</rpm>
</extensions>
</trkpt>
<trkpt lat="64.260093689" lon="-21.039859772">
<ele>139.230469</ele>
<time>2012-07-19T12:26:56Z</time>
<speed>2.140000</speed>
<extensions>
<speed>2.1</speed>
<temp>0.00</temp>
<bpm>0</bpm>
<rpm>0.00</rpm>
</extensions>
</trkpt>
<trkpt lat="64.260063171" lon="-21.039625168">
<ele>139.011719</ele>
<time>2012-07-19T12:27:01Z</time>
<speed>2.580000</speed>
<extensions>
<speed>2.6</speed>
<temp>0.00</temp>
<bpm>0</bpm>
<rpm>0.00</rpm>
</extensions>
</trkpt>
<trkpt lat="64.260032654" lon="-21.039356232">
<ele>139.191406</ele>
<time>2012-07-19T12:27:06Z</time>
<speed>2.600000</speed>
<extensions>
<speed>2.6</speed>
<temp>0.00</temp>
<bpm>0</bpm>
<rpm>0.00</rpm>
</extensions>
</trkpt>
<trkpt lat="64.259994507" lon="-21.039106369">
<ele>138.742188</ele>
<time>2012-07-19T12:27:11Z</time>
<speed>2.540000</speed>
<extensions>
<speed>2.5</speed>
<temp>0.00</temp>
<bpm>0</bpm>
<rpm>0.00</rpm>
</extensions>
</trkpt>
<trkpt lat="64.259948730" lon="-21.038856506">
<ele>138.449219</ele>
<time>2012-07-19T12:27:16Z</time>
<speed>2.810000</speed>
<extensions>
<speed>2.8</speed>
<temp>0.00</temp>
<bpm>0</bpm>
<rpm>0.00</rpm>
</extensions>
</trkpt>
<trkpt lat="64.259902954" lon="-21.038608551">
<ele>139.226563</ele>
<time>2012-07-19T12:27:21Z</time>
<speed>2.820000</speed>
<extensions>
<speed>2.8</speed>
<temp>0.00</temp>
<bpm>0</bpm>
<rpm>0.00</rpm>
</extensions>
</trkpt>
<trkpt lat="64.259841919" lon="-21.038326263">
<ele>141.703125</ele>
<time>2012-07-19T12:27:26Z</time>
<speed>2.880000</speed>
<extensions>
<speed>2.9</speed>
<temp>0.00</temp>
<bpm>0</bpm>
<rpm>0.00</rpm>
</extensions>
</trkpt>
<trkpt lat="64.259788513" lon="-21.038112640">
<ele>142.476563</ele>
<time>2012-07-19T12:27:31Z</time>
<speed>2.310000</speed>
<extensions>
<speed>2.3</speed>
<temp>0.00</temp>
<bpm>0</bpm>
<rpm>0.00</rpm>
</extensions>
</trkpt>
<trkpt lat="64.259712219" lon="-21.037912369">
<ele>141.601563</ele>
<time>2012-07-19T12:27:36Z</time>
<speed>2.770000</speed>
<extensions>
<speed>2.8</speed>
<temp>0.00</temp>
<bpm>0</bpm>
<rpm>0.00</rpm>
</extensions>
</trkpt>
<trkpt lat="64.259628296" lon="-21.037696838">
<ele>141.398438</ele>
<time>2012-07-19T12:27:41Z</time>
<speed>2.630000</speed>
<extensions>
<speed>2.6</speed>
<temp>0.00</temp>
<bpm>0</bpm>
<rpm>0.00</rpm>
</extensions>
</trkpt>
<trkpt lat="64.259544373" lon="-21.037509918">
<ele>142.175781</ele>
<time>2012-07-19T12:27:46Z</time>
<speed>2.620000</speed>
<extensions>
<speed>2.6</speed>
<temp>0.00</temp>
<bpm>0</bpm>
<rpm>0.00</rpm>
</extensions>
</trkpt>
<trkpt lat="64.259445190" lon="-21.037311554">
<ele>143.046875</ele>
<time>2012-07-19T12:27:51Z</time>
<speed>2.670000</speed>
<extensions>
<speed>2.7</speed>
<temp>0.00</temp>
<bpm>0</bpm>
<rpm>0.00</rpm>
</extensions>
</trkpt>
<trkpt lat="64.259353638" lon="-21.037153244">
<ele>143.386719</ele>
<time>2012-07-19T12:27:56Z</time>
<speed>1.670000</speed>
<extensions>
<speed>1.7</speed>
<temp>0.00</temp>
<bpm>0</bpm>
<rpm>0.00</rpm>
</extensions>
</trkpt>
<trkpt lat="64.259269714" lon="-21.037044525">
<ele>143.808594</ele>
<time>2012-07-19T12:28:01Z</time>
<speed>2.440000</speed>
<extensions>
<speed>2.4</speed>
<temp>0.00</temp>
<bpm>0</bpm>
<rpm>0.00</rpm>
</extensions>
</trkpt>
<trkpt lat="64.259178162" lon="-21.036924362">
<ele>143.546875</ele>
<time>2012-07-19T12:28:06Z</time>
<speed>2.300000</speed>
<extensions>
<speed>2.3</speed>
<temp>0.00</temp>
<bpm>0</bpm>
<rpm>0.00</rpm>
</extensions>
</trkpt>
<trkpt lat="64.259124756" lon="-21.036859512">
<ele>143.523438</ele>
<time>2012-07-19T12:28:11Z</time>
<speed>1.100000</speed>
<extensions>
<speed>1.1</speed>
<temp>0.00</temp>
<bpm>0</bpm>
<rpm>0.00</rpm>
</extensions>
</trkpt>
<trkpt lat="64.259048462" lon="-21.036766052">
<ele>144.660156</ele>
<time>2012-07-19T12:28:16Z</time>
<speed>2.300000</speed>
<extensions>
<speed>2.3</speed>
<temp>0.00</temp>
<bpm>0</bpm>
<rpm>0.00</rpm>
</extensions>
</trkpt>
<trkpt lat="64.258941650" lon="-21.036640167">
<ele>145.562500</ele>
<time>2012-07-19T12:28:21Z</time>
<speed>2.470000</speed>
<extensions>
<speed>2.5</speed>
<temp>0.00</temp>
<bpm>0</bpm>
<rpm>0.00</rpm>
</extensions>
</trkpt>
<trkpt lat="64.258857727" lon="-21.036478043">
<ele>146.917969</ele>
<time>2012-07-19T12:28:26Z</time>
<speed>2.450000</speed>
<extensions>
<speed>2.4</speed>
<temp>0.00</temp>
<bpm>0</bpm>
<rpm>0.00</rpm>
</extensions>
</trkpt>
<trkpt lat="64.258773804" lon="-21.036285400">
<ele>148.398438</ele>
<time>2012-07-19T12:28:31Z</time>
<speed>2.610000</speed>
<extensions>
<speed>2.6</speed>
<temp>0.00</temp>
<bpm>0</bpm>
<rpm>0.00</rpm>
</extensions>
</trkpt>
<trkpt lat="64.258682251" lon="-21.036108017">
<ele>149.601563</ele>
<time>2012-07-19T12:28:36Z</time>
<speed>2.810000</speed>
<extensions>
<speed>2.8</speed>
<temp>0.00</temp>
<bpm>0</bpm>
<rpm>0.00</rpm>
</extensions>
</trkpt>
<trkpt lat="64.258598328" lon="-21.035909653">
<ele>150.082031</ele>
<time>2012-07-19T12:28:41Z</time>
<speed>1.770000</speed>
<extensions>
<speed>1.8</speed>
<temp>0.00</temp>
<bpm>0</bpm>
<rpm>0.00</rpm>
</extensions>
</trkpt>
<trkpt lat="64.258529663" lon="-21.035718918">
<ele>150.960938</ele>
<time>2012-07-19T12:28:46Z</time>
<speed>2.410000</speed>
<extensions>
<speed>2.4</speed>
<temp>0.00</temp>
<bpm>0</bpm>
<rpm>0.00</rpm>
</extensions>
</trkpt>
<trkpt lat="64.258499146" lon="-21.035633087">
<ele>151.011719</ele>
<time>2012-07-19T12:28:51Z</time>
<speed>0.040000</speed>
<extensions>
<speed>0.0</speed>
<temp>0.00</temp>
<bpm>0</bpm>
<rpm>0.00</rpm>
</extensions>
</trkpt>
<trkpt lat="64.258499146" lon="-21.035640717">
<ele>150.718750</ele>
<time>2012-07-19T12:28:56Z</time>
<speed>0.020000</speed>
<extensions>
<speed>0.0</speed>
<temp>0.00</temp>
<bpm>0</bpm>
<rpm>0.00</rpm>
</extensions>
</trkpt>
<trkpt lat="64.258499146" lon="-21.035638809">
<ele>150.699219</ele>
<time>2012-07-19T12:29:01Z</time>
<speed>0.010000</speed>
<extensions>
<speed>0.0</speed>
<temp>0.00</temp>
<bpm>0</bpm>
<rpm>0.00</rpm>
</extensions>
</trkpt>
<trkpt lat="64.258499146" lon="-21.035638809">
<ele>150.679688</ele>
<time>2012-07-19T12:29:06Z</time>
<extensions>
<speed>0.0</speed>
<temp>0.00</temp>
<bpm>0</bpm>
<rpm>0.00</rpm>
</extensions>
</trkpt>
<trkpt lat="64.258499146" lon="-21.035638809">
<ele>150.640625</ele>
<time>2012-07-19T12:29:11Z</time>
<speed>0.120000</speed>
<extensions>
<speed>0.1</speed>
<temp>0.00</temp>
<bpm>0</bpm>
<rpm>0.00</rpm>
</extensions>
</trkpt>
<trkpt lat="64.258491516" lon="-21.035629272">
<ele>150.628906</ele>
<time>2012-07-19T12:29:16Z</time>
<speed>0.010000</speed>
<extensions>
<speed>0.0</speed>
<temp>0.00</temp>
<bpm>0</bpm>
<rpm>0.00</rpm>
</extensions>
</trkpt>
<trkpt lat="64.258491516" lon="-21.035627365">
<ele>150.656250</ele>
<time>2012-07-19T12:29:21Z</time>
<extensions>
<speed>0.0</speed>
<temp>0.00</temp>
<bpm>0</bpm>
<rpm>0.00</rpm>
</extensions>
</trkpt>
<trkpt lat="64.258491516" lon="-21.035627365">
<ele>150.675781</ele>
<time>2012-07-19T12:29:26Z</time>
<speed>0.010000</speed>
<extensions>
<speed>0.0</speed>
<temp>0.00</temp>
<bpm>0</bpm>
<rpm>0.00</rpm>
</extensions>
</trkpt>
<trkpt lat="64.258491516" lon="-21.035629272">
<ele>150.656250</ele>
<time>2012-07-19T12:29:31Z</time>
<extensions>
<speed>0.0</speed>
<temp>0.00</temp>
<bpm>0</bpm>
<rpm>0.00</rpm>
</extensions>
</trkpt>
<trkpt lat="64.258491516" lon="-21.035629272">
<ele>150.656250</ele>
<time>2012-07-19T12:29:36Z</time>
<speed>0.010000</speed>
<extensions>
<speed>0.0</speed>
<temp>0.00</temp>
<bpm>0</bpm>
<rpm>0.00</rpm>
</extensions>
</trkpt>
<trkpt lat="64.258491516" lon="-21.035629272">
<ele>150.648438</ele>
<time>2012-07-19T12:29:41Z</time>
<speed>0.010000</speed>
<extensions>
<speed>0.0</speed>
<temp>0.00</temp>
<bpm>0</bpm>
<rpm>0.00</rpm>
</extensions>
</trkpt>
<trkpt lat="64.258491516" lon="-21.035629272">
<ele>150.656250</ele>
<time>2012-07-19T12:29:46Z</time>
<speed>0.010000</speed>
<extensions>
<speed>0.0</speed>
<temp>0.00</temp>
<bpm>0</bpm>
<rpm>0.00</rpm>
</extensions>
</trkpt>
<trkpt lat="64.258491516" lon="-21.035631180">
<ele>150.699219</ele>
<time>2012-07-19T12:29:51Z</time>
<extensions>
<speed>0.0</speed>
<temp>0.00</temp>
<bpm>0</bpm>
<rpm>0.00</rpm>
</extensions>
</trkpt>
<trkpt lat="64.258491516" lon="-21.035631180">
<ele>150.714844</ele>
<time>2012-07-19T12:29:56Z</time>
<extensions>
<speed>0.0</speed>
<temp>0.00</temp>
<bpm>0</bpm>
<rpm>0.00</rpm>
</extensions>
</trkpt>
<trkpt lat="64.258491516" lon="-21.035631180">
<ele>150.738281</ele>
<time>2012-07-19T12:30:01Z</time>
<speed>0.010000</speed>
<extensions>
<speed>0.0</speed>
<temp>0.00</temp>
<bpm>0</bpm>
<rpm>0.00</rpm>
</extensions>
</trkpt>
<trkpt lat="64.258491516" lon="-21.035629272">
<ele>150.769531</ele>
<time>2012-07-19T12:30:06Z</time>
<extensions>
<speed>0.0</speed>
<temp>0.00</temp>
<bpm>0</bpm>
<rpm>0.00</rpm>
</extensions>
</trkpt>
<trkpt lat="64.258491516" lon="-21.035629272">
<ele>150.808594</ele>
<time>2012-07-19T12:30:11Z</time>
<speed>0.010000</speed>
<extensions>
<speed>0.0</speed>
<temp>0.00</temp>
<bpm>0</bpm>
<rpm>0.00</rpm>
</extensions>
</trkpt>
<trkpt lat="64.258483887" lon="-21.035629272">
<ele>150.835938</ele>
<time>2012-07-19T12:30:16Z</time>
<extensions>
<speed>0.0</speed>
<temp>0.00</temp>
<bpm>0</bpm>
<rpm>0.00</rpm>
</extensions>
</trkpt>
<trkpt lat="64.258483887" lon="-21.035629272">
<ele>150.855469</ele>
<time>2012-07-19T12:30:21Z</time>
<extensions>
<speed>0.0</speed>
<temp>0.00</temp>
<bpm>0</bpm>
<rpm>0.00</rpm>
</extensions>
</trkpt>
<trkpt lat="64.258483887" lon="-21.035629272">
<ele>150.878906</ele>
<time>2012-07-19T12:30:26Z</time>
<extensions>
<speed>0.0</speed>
<temp>0.00</temp>
<bpm>0</bpm>
<rpm>0.00</rpm>
</extensions>
</trkpt>
<trkpt lat="64.258483887" lon="-21.035629272">
<ele>150.902344</ele>
<time>2012-07-19T12:30:31Z</time>
<speed>0.070000</speed>
<extensions>
<speed>0.1</speed>
<temp>0.00</temp>
<bpm>0</bpm>
<rpm>0.00</rpm>
</extensions>
</trkpt>
<trkpt lat="64.258483887" lon="-21.035619736">
<ele>150.882813</ele>
<time>2012-07-19T12:30:36Z</time>
<speed>0.250000</speed>
<extensions>
<speed>0.2</speed>
<temp>0.00</temp>
<bpm>0</bpm>
<rpm>0.00</rpm>
</extensions>
</trkpt>
<trkpt lat="64.258445740" lon="-21.035465240">
<ele>150.093750</ele>
<time>2012-07-19T12:30:41Z</time>
<speed>2.250000</speed>
<extensions>
<speed>2.3</speed>
<temp>0.00</temp>
<bpm>0</bpm>
<rpm>0.00</rpm>
</extensions>
</trkpt>
<trkpt lat="64.258392334" lon="-21.035226822">
<ele>149.777344</ele>
<time>2012-07-19T12:30:46Z</time>
<speed>2.140000</speed>
<extensions>
<speed>2.1</speed>
<temp>0.00</temp>
<bpm>0</bpm>
<rpm>0.00</rpm>
</extensions>
</trkpt>
<trkpt lat="64.258338928" lon="-21.034988403">
<ele>149.523438</ele>
<time>2012-07-19T12:30:51Z</time>
<speed>2.810000</speed>
<extensions>
<speed>2.8</speed>
<temp>0.00</temp>
<bpm>0</bpm>
<rpm>0.00</rpm>
</extensions>
</trkpt>
<trkpt lat="64.258285522" lon="-21.034675598">
<ele>151.839844</ele>
<time>2012-07-19T12:30:56Z</time>
<speed>3.360000</speed>
<extensions>
<speed>3.4</speed>
<temp>0.00</temp>
<bpm>0</bpm>
<rpm>0.00</rpm>
</extensions>
</trkpt>
<trkpt lat="64.258224487" lon="-21.034349442">
<ele>152.222656</ele>
<time>2012-07-19T12:31:01Z</time>
<speed>3.600000</speed>
<extensions>
<speed>3.6</speed>
<temp>0.00</temp>
<bpm>0</bpm>
<rpm>0.00</rpm>
</extensions>
</trkpt>
<trkpt lat="64.258171082" lon="-21.033975601">
<ele>151.156250</ele>
<time>2012-07-19T12:31:06Z</time>
<speed>4.030000</speed>
<extensions>
<speed>4.0</speed>
<temp>0.00</temp>
<bpm>0</bpm>
<rpm>0.00</rpm>
</extensions>
</trkpt>
<trkpt lat="64.258132935" lon="-21.033529282">
<ele>151.417969</ele>
<time>2012-07-19T12:31:11Z</time>
<speed>4.160000</speed>
<extensions>
<speed>4.2</speed>
<temp>0.00</temp>
<bpm>0</bpm>
<rpm>0.00</rpm>
</extensions>
</trkpt>
<trkpt lat="64.258132935" lon="-21.033113480">
<ele>152.808594</ele>
<time>2012-07-19T12:31:16Z</time>
<speed>4.100000</speed>
<extensions>
<speed>4.1</speed>
<temp>0.00</temp>
<bpm>0</bpm>
<rpm>0.00</rpm>
</extensions>
</trkpt>
<trkpt lat="64.258132935" lon="-21.032688141">
<ele>153.917969</ele>
<time>2012-07-19T12:31:21Z</time>
<speed>4.160000</speed>
<extensions>
<speed>4.2</speed>
<temp>0.00</temp>
<bpm>0</bpm>
<rpm>0.00</rpm>
</extensions>
</trkpt>
<trkpt lat="64.258155823" lon="-21.032251358">
<ele>155.066406</ele>
<time>2012-07-19T12:31:26Z</time>
<speed>4.230000</speed>
<extensions>
<speed>4.2</speed>
<temp>0.00</temp>
<bpm>0</bpm>
<rpm>0.00</rpm>
</extensions>
</trkpt>
<trkpt lat="64.258155823" lon="-21.031803131">
<ele>156.757813</ele>
<time>2012-07-19T12:31:31Z</time>
<speed>4.270000</speed>
<extensions>
<speed>4.3</speed>
<temp>0.00</temp>
<bpm>0</bpm>
<rpm>0.00</rpm>
</extensions>
</trkpt>
<trkpt lat="64.258132935" lon="-21.031372070">
<ele>158.035156</ele>
<time>2012-07-19T12:31:36Z</time>
<speed>3.380000</speed>
<extensions>
<speed>3.4</speed>
<temp>0.00</temp>
<bpm>0</bpm>
<rpm>0.00</rpm>
</extensions>
</trkpt>
<trkpt lat="64.258110046" lon="-21.031124115">
<ele>158.035156</ele>
<time>2012-07-19T12:31:41Z</time>
<speed>1.830000</speed>
<extensions>
<speed>1.8</speed>
<temp>0.00</temp>
<bpm>0</bpm>
<rpm>0.00</rpm>
</extensions>
</trkpt>
<trkpt lat="64.258079529" lon="-21.030908585">
<ele>156.570313</ele>
<time>2012-07-19T12:31:46Z</time>
<speed>2.590000</speed>
<extensions>
<speed>2.6</speed>
<temp>0.00</temp>
<bpm>0</bpm>
<rpm>0.00</rpm>
</extensions>
</trkpt>
<trkpt lat="64.258056641" lon="-21.030714035">
<ele>156.175781</ele>
<time>2012-07-19T12:31:51Z</time>
<speed>1.020000</speed>
<extensions>
<speed>1.0</speed>
<temp>0.00</temp>
<bpm>0</bpm>
<rpm>0.00</rpm>
</extensions>
</trkpt>
<trkpt lat="64.258033752" lon="-21.030578613">
<ele>156.250000</ele>
<time>2012-07-19T12:31:56Z</time>
<speed>2.220000</speed>
<extensions>
<speed>2.2</speed>
<temp>0.00</temp>
<bpm>0</bpm>
<rpm>0.00</rpm>
</extensions>
</trkpt>
<trkpt lat="64.257972717" lon="-21.030344009">
<ele>155.582031</ele>
<time>2012-07-19T12:32:01Z</time>
<speed>3.250000</speed>
<extensions>
<speed>3.2</speed>
<temp>0.00</temp>
<bpm>0</bpm>
<rpm>0.00</rpm>
</extensions>
</trkpt>
<trkpt lat="64.257896423" lon="-21.030038834">
<ele>154.996094</ele>
<time>2012-07-19T12:32:06Z</time>
<speed>3.530000</speed>
<extensions>
<speed>3.5</speed>
<temp>0.00</temp>
<bpm>0</bpm>
<rpm>0.00</rpm>
</extensions>
</trkpt>
<trkpt lat="64.257804871" lon="-21.029706955">
<ele>155.023438</ele>
<time>2012-07-19T12:32:11Z</time>
<speed>3.590000</speed>
<extensions>
<speed>3.6</speed>
<temp>0.00</temp>
<bpm>0</bpm>
<rpm>0.00</rpm>
</extensions>
</trkpt>
<trkpt lat="64.257720947" lon="-21.029495239">
<ele>155.738281</ele>
<time>2012-07-19T12:32:16Z</time>
<speed>2.330000</speed>
<extensions>
<speed>2.3</speed>
<temp>0.00</temp>
<bpm>0</bpm>
<rpm>0.00</rpm>
</extensions>
</trkpt>
<trkpt lat="64.257629395" lon="-21.029289246">
<ele>155.785156</ele>
<time>2012-07-19T12:32:21Z</time>
<speed>3.480000</speed>
<extensions>
<speed>3.5</speed>
<temp>0.00</temp>
<bpm>0</bpm>
<rpm>0.00</rpm>
</extensions>
</trkpt>
<trkpt lat="64.257507324" lon="-21.029056549">
<ele>155.414063</ele>
<time>2012-07-19T12:32:26Z</time>
<speed>3.700000</speed>
<extensions>
<speed>3.7</speed>
<temp>0.00</temp>
<bpm>0</bpm>
<rpm>0.00</rpm>
</extensions>
</trkpt>
<trkpt lat="64.257377625" lon="-21.028850555">
<ele>156.796875</ele>
<time>2012-07-19T12:32:31Z</time>
<speed>3.370000</speed>
<extensions>
<speed>3.4</speed>
<temp>0.00</temp>
<bpm>0</bpm>
<rpm>0.00</rpm>
</extensions>
</trkpt>
<trkpt lat="64.257225037" lon="-21.028680801">
<ele>158.933594</ele>
<time>2012-07-19T12:32:36Z</time>
<speed>3.880000</speed>
<extensions>
<speed>3.9</speed>
<temp>0.00</temp>
<bpm>0</bpm>
<rpm>0.00</rpm>
</extensions>
</trkpt>
<trkpt lat="64.257072449" lon="-21.028553009">
<ele>161.617188</ele>
<time>2012-07-19T12:32:41Z</time>
<speed>3.090000</speed>
<extensions>
<speed>3.1</speed>
<temp>0.00</temp>
<bpm>0</bpm>
<rpm>0.00</rpm>
</extensions>
</trkpt>
<trkpt lat="64.256935120" lon="-21.028444290">
<ele>161.781250</ele>
<time>2012-07-19T12:32:46Z</time>
<speed>3.220000</speed>
<extensions>
<speed>3.2</speed>
<temp>0.00</temp>
<bpm>0</bpm>
<rpm>0.00</rpm>
</extensions>
</trkpt>
<trkpt lat="64.256782532" lon="-21.028366089">
<ele>163.425781</ele>
<time>2012-07-19T12:32:51Z</time>
<speed>3.740000</speed>
<extensions>
<speed>3.7</speed>
<temp>0.00</temp>
<bpm>0</bpm>
<rpm>0.00</rpm>
</extensions>
</trkpt>
<trkpt lat="64.256599426" lon="-21.028257370">
<ele>163.945313</ele>
<time>2012-07-19T12:32:56Z</time>
<speed>4.510000</speed>
<extensions>
<speed>4.5</speed>
<temp>0.00</temp>
<bpm>0</bpm>
<rpm>0.00</rpm>
</extensions>
</trkpt>
<trkpt lat="64.256378174" lon="-21.028135300">
<ele>164.273438</ele>
<time>2012-07-19T12:33:01Z</time>
<speed>5.660000</speed>
<extensions>
<speed>5.7</speed>
<temp>0.00</temp>
<bpm>0</bpm>
<rpm>0.00</rpm>
</extensions>
</trkpt>
<trkpt lat="64.256118774" lon="-21.028009415">
<ele>164.394531</ele>
<time>2012-07-19T12:33:06Z</time>
<speed>5.630000</speed>
<extensions>
<speed>5.6</speed>
<temp>0.00</temp>
<bpm>0</bpm>
<rpm>0.00</rpm>
</extensions>
</trkpt>
<trkpt lat="64.255874634" lon="-21.027891159">
<ele>165.582031</ele>
<time>2012-07-19T12:33:11Z</time>
<speed>5.400000</speed>
<extensions>
<speed>5.4</speed>
<temp>0.00</temp>
<bpm>0</bpm>
<rpm>0.00</rpm>
</extensions>
</trkpt>
<trkpt lat="64.255630493" lon="-21.027774811">
<ele>166.480469</ele>
<time>2012-07-19T12:33:16Z</time>
<speed>4.870000</speed>
<extensions>
<speed>4.9</speed>
<temp>0.00</temp>
<bpm>0</bpm>
<rpm>0.00</rpm>
</extensions>
</trkpt>
<trkpt lat="64.255432129" lon="-21.027687073">
<ele>166.847656</ele>
<time>2012-07-19T12:33:21Z</time>
<speed>4.460000</speed>
<extensions>
<speed>4.5</speed>
<temp>0.00</temp>
<bpm>0</bpm>
<rpm>0.00</rpm>
</extensions>
</trkpt>
<trkpt lat="64.255233765" lon="-21.027597427">
<ele>167.210938</ele>
<time>2012-07-19T12:33:26Z</time>
<speed>4.160000</speed>
<extensions>
<speed>4.2</speed>
<temp>0.00</temp>
<bpm>0</bpm>
<rpm>0.00</rpm>
</extensions>
</trkpt>
<trkpt lat="64.255165100" lon="-21.027568817">
<ele>166.343750</ele>
<time>2012-07-19T12:33:31Z</time>
<speed>1.010000</speed>
<extensions>
<speed>1.0</speed>
<temp>0.00</temp>
<bpm>0</bpm>
<rpm>0.00</rpm>
</extensions>
</trkpt>
<trkpt lat="64.255081177" lon="-21.027498245">
<ele>167.160156</ele>
<time>2012-07-19T12:33:36Z</time>
<speed>3.150000</speed>
<extensions>
<speed>3.2</speed>
<temp>0.00</temp>
<bpm>0</bpm>
<rpm>0.00</rpm>
</extensions>
</trkpt>
<trkpt lat="64.254913330" lon="-21.027410507">
<ele>167.636719</ele>
<time>2012-07-19T12:33:41Z</time>
<speed>4.220000</speed>
<extensions>
<speed>4.2</speed>
<temp>0.00</temp>
<bpm>0</bpm>
<rpm>0.00</rpm>
</extensions>
</trkpt>
<trkpt lat="64.254714966" lon="-21.027288437">
<ele>167.761719</ele>
<time>2012-07-19T12:33:46Z</time>
<speed>4.830000</speed>
<extensions>
<speed>4.8</speed>
<temp>0.00</temp>
<bpm>0</bpm>
<rpm>0.00</rpm>
</extensions>
</trkpt>
<trkpt lat="64.254646301" lon="-21.027231216">
<ele>166.656250</ele>
<time>2012-07-19T12:33:51Z</time>
<extensions>
<speed>0.0</speed>
<temp>0.00</temp>
<bpm>0</bpm>
<rpm>0.00</rpm>
</extensions>
</trkpt>
<trkpt lat="64.254646301" lon="-21.027229309">
<ele>166.468750</ele>
<time>2012-07-19T12:33:56Z</time>
<speed>0.010000</speed>
<extensions>
<speed>0.0</speed>
<temp>0.00</temp>
<bpm>0</bpm>
<rpm>0.00</rpm>
</extensions>
</trkpt>
<trkpt lat="64.254646301" lon="-21.027229309">
<ele>166.515625</ele>
<time>2012-07-19T12:34:01Z</time>
<extensions>
<speed>0.0</speed>
<temp>0.00</temp>
<bpm>0</bpm>
<rpm>0.00</rpm>
</extensions>
</trkpt>
<trkpt lat="64.254646301" lon="-21.027229309">
<ele>166.542969</ele>
<time>2012-07-19T12:34:06Z</time>
<speed>0.050000</speed>
<extensions>
<speed>0.1</speed>
<temp>0.00</temp>
<bpm>0</bpm>
<rpm>0.00</rpm>
</extensions>
</trkpt>
<trkpt lat="64.254646301" lon="-21.027227402">
<ele>166.527344</ele>
<time>2012-07-19T12:34:11Z</time>
<speed>0.010000</speed>
<extensions>
<speed>0.0</speed>
<temp>0.00</temp>
<bpm>0</bpm>
<rpm>0.00</rpm>
</extensions>
</trkpt>
<trkpt lat="64.254646301" lon="-21.027227402">
<ele>166.464844</ele>
<time>2012-07-19T12:34:16Z</time>
<speed>0.160000</speed>
<extensions>
<speed>0.2</speed>
<temp>0.00</temp>
<bpm>0</bpm>
<rpm>0.00</rpm>
</extensions>
</trkpt>
<trkpt lat="64.254577637" lon="-21.027166367">
<ele>166.226563</ele>
<time>2012-07-19T12:34:21Z</time>
<speed>3.050000</speed>
<extensions>
<speed>3.0</speed>
<temp>0.00</temp>
<bpm>0</bpm>
<rpm>0.00</rpm>
</extensions>
</trkpt>
<trkpt lat="64.254516602" lon="-21.027044296">
<ele>165.480469</ele>
<time>2012-07-19T12:34:26Z</time>
<speed>2.300000</speed>
<extensions>
<speed>2.3</speed>
<temp>0.00</temp>
<bpm>0</bpm>
<rpm>0.00</rpm>
</extensions>
</trkpt>
<trkpt lat="64.254661560" lon="-21.027130127">
<ele>165.535156</ele>
<time>2012-07-19T12:34:31Z</time>
<speed>3.640000</speed>
<extensions>
<speed>3.6</speed>
<temp>0.00</temp>
<bpm>0</bpm>
<rpm>0.00</rpm>
</extensions>
</trkpt>
<trkpt lat="64.254776001" lon="-21.027187347">
<ele>165.511719</ele>
<time>2012-07-19T12:34:36Z</time>
<speed>1.940000</speed>
<extensions>
<speed>1.9</speed>
<temp>0.00</temp>
<bpm>0</bpm>
<rpm>0.00</rpm>
</extensions>
</trkpt>
<trkpt lat="64.254760742" lon="-21.027303696">
<ele>166.105469</ele>
<time>2012-07-19T12:34:41Z</time>
<speed>1.490000</speed>
<extensions>
<speed>1.5</speed>
<temp>0.00</temp>
<bpm>0</bpm>
<rpm>0.00</rpm>
</extensions>
</trkpt>
<trkpt lat="64.254745483" lon="-21.027315140">
<ele>165.707031</ele>
<time>2012-07-19T12:34:46Z</time>
<speed>0.230000</speed>
<extensions>
<speed>0.2</speed>
<temp>0.00</temp>
<bpm>0</bpm>
<rpm>0.00</rpm>
</extensions>
</trkpt>
<trkpt lat="64.254745483" lon="-21.027315140">
<ele>165.722656</ele>
<time>2012-07-19T12:34:51Z</time>
<speed>0.040000</speed>
<extensions>
<speed>0.0</speed>
<temp>0.00</temp>
<bpm>0</bpm>
<rpm>0.00</rpm>
</extensions>
</trkpt>
<trkpt lat="64.254745483" lon="-21.027315140">
<ele>165.773438</ele>
<time>2012-07-19T12:34:56Z</time>
<speed>0.040000</speed>
<extensions>
<speed>0.0</speed>
<temp>0.00</temp>
<bpm>0</bpm>
<rpm>0.00</rpm>
</extensions>
</trkpt>
<trkpt lat="64.254745483" lon="-21.027315140">
<ele>165.765625</ele>
<time>2012-07-19T12:35:01Z</time>
<speed>0.010000</speed>
<extensions>
<speed>0.0</speed>
<temp>0.00</temp>
<bpm>0</bpm>
<rpm>0.00</rpm>
</extensions>
</trkpt>
<trkpt lat="64.254745483" lon="-21.027313232">
<ele>165.734375</ele>
<time>2012-07-19T12:35:06Z</time>
<speed>0.020000</speed>
<extensions>
<speed>0.0</speed>
<temp>0.00</temp>
<bpm>0</bpm>
<rpm>0.00</rpm>
</extensions>
</trkpt>
<trkpt lat="64.254745483" lon="-21.027313232">
<ele>165.667969</ele>
<time>2012-07-19T12:35:11Z</time>
<speed>0.010000</speed>
<extensions>
<speed>0.0</speed>
<temp>0.00</temp>
<bpm>0</bpm>
<rpm>0.00</rpm>
</extensions>
</trkpt>
<trkpt lat="64.254745483" lon="-21.027309418">
<ele>165.605469</ele>
<time>2012-07-19T12:35:16Z</time>
<speed>0.050000</speed>
<extensions>
<speed>0.1</speed>
<temp>0.00</temp>
<bpm>0</bpm>
<rpm>0.00</rpm>
</extensions>
</trkpt>
<trkpt lat="64.254745483" lon="-21.027309418">
<ele>165.570313</ele>
<time>2012-07-19T12:35:21Z</time>
<extensions>
<speed>0.0</speed>
<temp>0.00</temp>
<bpm>0</bpm>
<rpm>0.00</rpm>
</extensions>
</trkpt>
<trkpt lat="64.254745483" lon="-21.027309418">
<ele>165.578125</ele>
<time>2012-07-19T12:35:26Z</time>
<extensions>
<speed>0.0</speed>
<temp>0.00</temp>
<bpm>0</bpm>
<rpm>0.00</rpm>
</extensions>
</trkpt>
<trkpt lat="64.254745483" lon="-21.027309418">
<ele>165.578125</ele>
<time>2012-07-19T12:35:31Z</time>
<speed>0.010000</speed>
<extensions>
<speed>0.0</speed>
<temp>0.00</temp>
<bpm>0</bpm>
<rpm>0.00</rpm>
</extensions>
</trkpt>
<trkpt lat="64.254745483" lon="-21.027309418">
<ele>165.593750</ele>
<time>2012-07-19T12:35:36Z</time>
<speed>0.130000</speed>
<extensions>
<speed>0.1</speed>
<temp>0.00</temp>
<bpm>0</bpm>
<rpm>0.00</rpm>
</extensions>
</trkpt>
<trkpt lat="64.254684448" lon="-21.027248383">
<ele>165.562500</ele>
<time>2012-07-19T12:35:41Z</time>
<speed>2.460000</speed>
<extensions>
<speed>2.5</speed>
<temp>0.00</temp>
<bpm>0</bpm>
<rpm>0.00</rpm>
</extensions>
</trkpt>
<trkpt lat="64.254554749" lon="-21.027164459">
<ele>165.214844</ele>
<time>2012-07-19T12:35:46Z</time>
<speed>3.430000</speed>
<extensions>
<speed>3.4</speed>
<temp>0.00</temp>
<bpm>0</bpm>
<rpm>0.00</rpm>
</extensions>
</trkpt>
<trkpt lat="64.254386902" lon="-21.027055740">
<ele>164.691406</ele>
<time>2012-07-19T12:35:51Z</time>
<speed>4.240000</speed>
<extensions>
<speed>4.2</speed>
<temp>0.00</temp>
<bpm>0</bpm>
<rpm>0.00</rpm>
</extensions>
</trkpt>
<trkpt lat="64.254196167" lon="-21.026887894">
<ele>164.574219</ele>
<time>2012-07-19T12:35:56Z</time>
<speed>4.660000</speed>
<extensions>
<speed>4.7</speed>
<temp>0.00</temp>
<bpm>0</bpm>
<rpm>0.00</rpm>
</extensions>
</trkpt>
<trkpt lat="64.253990173" lon="-21.026674271">
<ele>164.402344</ele>
<time>2012-07-19T12:36:01Z</time>
<speed>5.030000</speed>
<extensions>
<speed>5.0</speed>
<temp>0.00</temp>
<bpm>0</bpm>
<rpm>0.00</rpm>
</extensions>
</trkpt>
<trkpt lat="64.253784180" lon="-21.026449203">
<ele>163.871094</ele>
<time>2012-07-19T12:36:06Z</time>
<speed>5.190000</speed>
<extensions>
<speed>5.2</speed>
<temp>0.00</temp>
<bpm>0</bpm>
<rpm>0.00</rpm>
</extensions>
</trkpt>
<trkpt lat="64.253562927" lon="-21.026189804">
<ele>163.546875</ele>
<time>2012-07-19T12:36:11Z</time>
<speed>5.590000</speed>
<extensions>
<speed>5.6</speed>
<temp>0.00</temp>
<bpm>0</bpm>
<rpm>0.00</rpm>
</extensions>
</trkpt>
<trkpt lat="64.253341675" lon="-21.025920868">
<ele>162.949219</ele>
<time>2012-07-19T12:36:16Z</time>
<speed>5.640000</speed>
<extensions>
<speed>5.6</speed>
<temp>0.00</temp>
<bpm>0</bpm>
<rpm>0.00</rpm>
</extensions>
</trkpt>
<trkpt lat="64.253128052" lon="-21.025602341">
<ele>162.605469</ele>
<time>2012-07-19T12:36:21Z</time>
<speed>5.720000</speed>
<extensions>
<speed>5.7</speed>
<temp>0.00</temp>
<bpm>0</bpm>
<rpm>0.00</rpm>
</extensions>
</trkpt>
<trkpt lat="64.252922058" lon="-21.025262833">
<ele>162.414063</ele>
<time>2012-07-19T12:36:26Z</time>
<speed>5.440000</speed>
<extensions>
<speed>5.4</speed>
<temp>0.00</temp>
<bpm>0</bpm>
<rpm>0.00</rpm>
</extensions>
</trkpt>
<trkpt lat="64.252731323" lon="-21.024951935">
<ele>162.000000</ele>
<time>2012-07-19T12:36:31Z</time>
<speed>4.740000</speed>
<extensions>
<speed>4.7</speed>
<temp>0.00</temp>
<bpm>0</bpm>
<rpm>0.00</rpm>
</extensions>
</trkpt>
<trkpt lat="64.252571106" lon="-21.024604797">
<ele>161.855469</ele>
<time>2012-07-19T12:36:36Z</time>
<speed>5.080000</speed>
<extensions>
<speed>5.1</speed>
<temp>0.00</temp>
<bpm>0</bpm>
<rpm>0.00</rpm>
</extensions>
</trkpt>
<trkpt lat="64.252403259" lon="-21.024248123">
<ele>161.738281</ele>
<time>2012-07-19T12:36:41Z</time>
<speed>5.200000</speed>
<extensions>
<speed>5.2</speed>
<temp>0.00</temp>
<bpm>0</bpm>
<rpm>0.00</rpm>
</extensions>
</trkpt>
<trkpt lat="64.252220154" lon="-21.023910522">
<ele>160.707031</ele>
<time>2012-07-19T12:36:46Z</time>
<speed>5.280000</speed>
<extensions>
<speed>5.3</speed>
<temp>0.00</temp>
<bpm>0</bpm>
<rpm>0.00</rpm>
</extensions>
</trkpt>
<trkpt lat="64.252037048" lon="-21.023567200">
<ele>159.792969</ele>
<time>2012-07-19T12:36:51Z</time>
<speed>5.210000</speed>
<extensions>
<speed>5.2</speed>
<temp>0.00</temp>
<bpm>0</bpm>
<rpm>0.00</rpm>
</extensions>
</trkpt>
<trkpt lat="64.251869202" lon="-21.023271561">
<ele>160.339844</ele>
<time>2012-07-19T12:36:56Z</time>
<speed>4.100000</speed>
<extensions>
<speed>4.1</speed>
<temp>0.00</temp>
<bpm>0</bpm>
<rpm>0.00</rpm>
</extensions>
</trkpt>
<trkpt lat="64.251716614" lon="-21.023086548">
<ele>161.500000</ele>
<time>2012-07-19T12:37:01Z</time>
<speed>3.560000</speed>
<extensions>
<speed>3.6</speed>
<temp>0.00</temp>
<bpm>0</bpm>
<rpm>0.00</rpm>
</extensions>
</trkpt>
<trkpt lat="64.251586914" lon="-21.022977829">
<ele>163.308594</ele>
<time>2012-07-19T12:37:06Z</time>
<speed>2.410000</speed>
<extensions>
<speed>2.4</speed>
<temp>0.00</temp>
<bpm>0</bpm>
<rpm>0.00</rpm>
</extensions>
</trkpt>
<trkpt lat="64.251502991" lon="-21.022893906">
<ele>165.355469</ele>
<time>2012-07-19T12:37:11Z</time>
<speed>2.650000</speed>
<extensions>
<speed>2.6</speed>
<temp>0.00</temp>
<bpm>0</bpm>
<rpm>0.00</rpm>
</extensions>
</trkpt>
<trkpt lat="64.251373291" lon="-21.022809982">
<ele>167.488281</ele>
<time>2012-07-19T12:37:16Z</time>
<speed>3.040000</speed>
<extensions>
<speed>3.0</speed>
<temp>0.00</temp>
<bpm>0</bpm>
<rpm>0.00</rpm>
</extensions>
</trkpt>
<trkpt lat="64.251243591" lon="-21.022752762">
<ele>168.691406</ele>
<time>2012-07-19T12:37:21Z</time>
<speed>3.110000</speed>
<extensions>
<speed>3.1</speed>
<temp>0.00</temp>
<bpm>0</bpm>
<rpm>0.00</rpm>
</extensions>
</trkpt>
<trkpt lat="64.251113892" lon="-21.022701263">
<ele>170.628906</ele>
<time>2012-07-19T12:37:26Z</time>
<speed>2.900000</speed>
<extensions>
<speed>2.9</speed>
<temp>0.00</temp>
<bpm>0</bpm>
<rpm>0.00</rpm>
</extensions>
</trkpt>
<trkpt lat="64.250961304" lon="-21.022697449">
<ele>172.242188</ele>
<time>2012-07-19T12:37:31Z</time>
<speed>3.700000</speed>
<extensions>
<speed>3.7</speed>
<temp>0.00</temp>
<bpm>0</bpm>
<rpm>0.00</rpm>
</extensions>
</trkpt>
<trkpt lat="64.250793457" lon="-21.022722244">
<ele>173.851563</ele>
<time>2012-07-19T12:37:36Z</time>
<speed>3.860000</speed>
<extensions>
<speed>3.9</speed>
<temp>0.00</temp>
<bpm>0</bpm>
<rpm>0.00</rpm>
</extensions>
</trkpt>
<trkpt lat="64.250625610" lon="-21.022758484">
<ele>175.148438</ele>
<time>2012-07-19T12:37:41Z</time>
<speed>3.880000</speed>
<extensions>
<speed>3.9</speed>
<temp>0.00</temp>
<bpm>0</bpm>
<rpm>0.00</rpm>
</extensions>
</trkpt>
<trkpt lat="64.250434875" lon="-21.022794724">
<ele>175.628906</ele>
<time>2012-07-19T12:37:46Z</time>
<speed>4.740000</speed>
<extensions>
<speed>4.7</speed>
<temp>0.00</temp>
<bpm>0</bpm>
<rpm>0.00</rpm>
</extensions>
</trkpt>
<trkpt lat="64.250190735" lon="-21.022855759">
<ele>174.328125</ele>
<time>2012-07-19T12:37:51Z</time>
<speed>5.700000</speed>
<extensions>
<speed>5.7</speed>
<temp>0.00</temp>
<bpm>0</bpm>
<rpm>0.00</rpm>
</extensions>
</trkpt>
<trkpt lat="64.249931335" lon="-21.022939682">
<ele>175.242188</ele>
<time>2012-07-19T12:37:56Z</time>
<speed>5.360000</speed>
<extensions>
<speed>5.4</speed>
<temp>0.00</temp>
<bpm>0</bpm>
<rpm>0.00</rpm>
</extensions>
</trkpt>
<trkpt lat="64.249732971" lon="-21.022996902">
<ele>177.566406</ele>
<time>2012-07-19T12:38:01Z</time>
<speed>2.830000</speed>
<extensions>
<speed>2.8</speed>
<temp>0.00</temp>
<bpm>0</bpm>
<rpm>0.00</rpm>
</extensions>
</trkpt>
<trkpt lat="64.249626160" lon="-21.023021698">
<ele>177.296875</ele>
<time>2012-07-19T12:38:06Z</time>
<speed>2.220000</speed>
<extensions>
<speed>2.2</speed>
<temp>0.00</temp>
<bpm>0</bpm>
<rpm>0.00</rpm>
</extensions>
</trkpt>
<trkpt lat="64.249519348" lon="-21.023048401">
<ele>178.035156</ele>
<time>2012-07-19T12:38:11Z</time>
<speed>2.310000</speed>
<extensions>
<speed>2.3</speed>
<temp>0.00</temp>
<bpm>0</bpm>
<rpm>0.00</rpm>
</extensions>
</trkpt>
<trkpt lat="64.249427795" lon="-21.023075104">
<ele>179.167969</ele>
<time>2012-07-19T12:38:16Z</time>
<speed>2.180000</speed>
<extensions>
<speed>2.2</speed>
<temp>0.00</temp>
<bpm>0</bpm>
<rpm>0.00</rpm>
</extensions>
</trkpt>
<trkpt lat="64.249320984" lon="-21.023103714">
<ele>178.597656</ele>
<time>2012-07-19T12:38:21Z</time>
<speed>2.360000</speed>
<extensions>
<speed>2.4</speed>
<temp>0.00</temp>
<bpm>0</bpm>
<rpm>0.00</rpm>
</extensions>
</trkpt>
<trkpt lat="64.249206543" lon="-21.023130417">
<ele>176.460938</ele>
<time>2012-07-19T12:38:26Z</time>
<speed>2.490000</speed>
<extensions>
<speed>2.5</speed>
<temp>0.00</temp>
<bpm>0</bpm>
<rpm>0.00</rpm>
</extensions>
</trkpt>
<trkpt lat="64.249099731" lon="-21.023164749">
<ele>178.191406</ele>
<time>2012-07-19T12:38:31Z</time>
<speed>2.210000</speed>
<extensions>
<speed>2.2</speed>
<temp>0.00</temp>
<bpm>0</bpm>
<rpm>0.00</rpm>
</extensions>
</trkpt>
<trkpt lat="64.249000549" lon="-21.023206711">
<ele>178.738281</ele>
<time>2012-07-19T12:38:36Z</time>
<speed>2.310000</speed>
<extensions>
<speed>2.3</speed>
<temp>0.00</temp>
<bpm>0</bpm>
<rpm>0.00</rpm>
</extensions>
</trkpt>
<trkpt lat="64.248893738" lon="-21.023244858">
<ele>179.617188</ele>
<time>2012-07-19T12:38:41Z</time>
<speed>2.150000</speed>
<extensions>
<speed>2.1</speed>
<temp>0.00</temp>
<bpm>0</bpm>
<rpm>0.00</rpm>
</extensions>
</trkpt>
<trkpt lat="64.248786926" lon="-21.023300171">
<ele>181.085938</ele>
<time>2012-07-19T12:38:46Z</time>
<speed>2.510000</speed>
<extensions>
<speed>2.5</speed>
<temp>0.00</temp>
<bpm>0</bpm>
<rpm>0.00</rpm>
</extensions>
</trkpt>
<trkpt lat="64.248680115" lon="-21.023368835">
<ele>182.773438</ele>
<time>2012-07-19T12:38:51Z</time>
<speed>2.490000</speed>
<extensions>
<speed>2.5</speed>
<temp>0.00</temp>
<bpm>0</bpm>
<rpm>0.00</rpm>
</extensions>
</trkpt>
<trkpt lat="64.248565674" lon="-21.023437500">
<ele>183.855469</ele>
<time>2012-07-19T12:38:56Z</time>
<speed>2.850000</speed>
<extensions>
<speed>2.9</speed>
<temp>0.00</temp>
<bpm>0</bpm>
<rpm>0.00</rpm>
</extensions>
</trkpt>
<trkpt lat="64.248443604" lon="-21.023550034">
<ele>184.746094</ele>
<time>2012-07-19T12:39:01Z</time>
<speed>3.170000</speed>
<extensions>
<speed>3.2</speed>
<temp>0.00</temp>
<bpm>0</bpm>
<rpm>0.00</rpm>
</extensions>
</trkpt>
<trkpt lat="64.248313904" lon="-21.023683548">
<ele>185.976563</ele>
<time>2012-07-19T12:39:06Z</time>
<speed>3.300000</speed>
<extensions>
<speed>3.3</speed>
<temp>0.00</temp>
<bpm>0</bpm>
<rpm>0.00</rpm>
</extensions>
</trkpt>
<trkpt lat="64.248176575" lon="-21.023815155">
<ele>186.929688</ele>
<time>2012-07-19T12:39:11Z</time>
<speed>3.180000</speed>
<extensions>
<speed>3.2</speed>
<temp>0.00</temp>
<bpm>0</bpm>
<rpm>0.00</rpm>
</extensions>
</trkpt>
<trkpt lat="64.248046875" lon="-21.023950577">
<ele>188.710938</ele>
<time>2012-07-19T12:39:16Z</time>
<speed>2.390000</speed>
<extensions>
<speed>2.4</speed>
<temp>0.00</temp>
<bpm>0</bpm>
<rpm>0.00</rpm>
</extensions>
</trkpt>
<trkpt lat="64.247985840" lon="-21.024032593">
<ele>189.437500</ele>
<time>2012-07-19T12:39:21Z</time>
<speed>1.400000</speed>
<extensions>
<speed>1.4</speed>
<temp>0.00</temp>
<bpm>0</bpm>
<rpm>0.00</rpm>
</extensions>
</trkpt>
<trkpt lat="64.247940063" lon="-21.024143219">
<ele>187.769531</ele>
<time>2012-07-19T12:39:26Z</time>
<speed>1.400000</speed>
<extensions>
<speed>1.4</speed>
<temp>0.00</temp>
<bpm>0</bpm>
<rpm>0.00</rpm>
</extensions>
</trkpt>
<trkpt lat="64.247932434" lon="-21.024307251">
<ele>187.707031</ele>
<time>2012-07-19T12:39:31Z</time>
<speed>1.480000</speed>
<extensions>
<speed>1.5</speed>
<temp>0.00</temp>
<bpm>0</bpm>
<rpm>0.00</rpm>
</extensions>
</trkpt>
<trkpt lat="64.247940063" lon="-21.024398804">
<ele>186.652344</ele>
<time>2012-07-19T12:39:36Z</time>
<speed>0.060000</speed>
<extensions>
<speed>0.1</speed>
<temp>0.00</temp>
<bpm>0</bpm>
<rpm>0.00</rpm>
</extensions>
</trkpt>
<trkpt lat="64.247940063" lon="-21.024402618">
<ele>186.433594</ele>
<time>2012-07-19T12:39:41Z</time>
<speed>0.070000</speed>
<extensions>
<speed>0.1</speed>
<temp>0.00</temp>
<bpm>0</bpm>
<rpm>0.00</rpm>
</extensions>
</trkpt>
<trkpt lat="64.247940063" lon="-21.024402618">
<ele>186.406250</ele>
<time>2012-07-19T12:39:46Z</time>
<speed>0.010000</speed>
<extensions>
<speed>0.0</speed>
<temp>0.00</temp>
<bpm>0</bpm>
<rpm>0.00</rpm>
</extensions>
</trkpt>
<trkpt lat="64.247940063" lon="-21.024404526">
<ele>186.371094</ele>
<time>2012-07-19T12:39:51Z</time>
<speed>0.010000</speed>
<extensions>
<speed>0.0</speed>
<temp>0.00</temp>
<bpm>0</bpm>
<rpm>0.00</rpm>
</extensions>
</trkpt>
<trkpt lat="64.247940063" lon="-21.024404526">
<ele>186.355469</ele>
<time>2012-07-19T12:39:56Z</time>
<extensions>
<speed>0.0</speed>
<temp>0.00</temp>
<bpm>0</bpm>
<rpm>0.00</rpm>
</extensions>
</trkpt>
<trkpt lat="64.247940063" lon="-21.024404526">
<ele>186.347656</ele>
<time>2012-07-19T12:40:01Z</time>
<extensions>
<speed>0.0</speed>
<temp>0.00</temp>
<bpm>0</bpm>
<rpm>0.00</rpm>
</extensions>
</trkpt>
<trkpt lat="64.247940063" lon="-21.024404526">
<ele>186.316406</ele>
<time>2012-07-19T12:40:06Z</time>
<extensions>
<speed>0.0</speed>
<temp>0.00</temp>
<bpm>0</bpm>
<rpm>0.00</rpm>
</extensions>
</trkpt>
<trkpt lat="64.247940063" lon="-21.024404526">
<ele>186.296875</ele>
<time>2012-07-19T12:40:11Z</time>
<speed>0.010000</speed>
<extensions>
<speed>0.0</speed>
<temp>0.00</temp>
<bpm>0</bpm>
<rpm>0.00</rpm>
</extensions>
</trkpt>
<trkpt lat="64.247940063" lon="-21.024406433">
<ele>186.273438</ele>
<time>2012-07-19T12:40:16Z</time>
<extensions>
<speed>0.0</speed>
<temp>0.00</temp>
<bpm>0</bpm>
<rpm>0.00</rpm>
</extensions>
</trkpt>
<trkpt lat="64.247940063" lon="-21.024406433">
<ele>186.238281</ele>
<time>2012-07-19T12:40:21Z</time>
<extensions>
<speed>0.0</speed>
<temp>0.00</temp>
<bpm>0</bpm>
<rpm>0.00</rpm>
</extensions>
</trkpt>
<trkpt lat="64.247940063" lon="-21.024406433">
<ele>186.183594</ele>
<time>2012-07-19T12:40:26Z</time>
<extensions>
<speed>0.0</speed>
<temp>0.00</temp>
<bpm>0</bpm>
<rpm>0.00</rpm>
</extensions>
</trkpt>
<trkpt lat="64.247940063" lon="-21.024406433">
<ele>186.164063</ele>
<time>2012-07-19T12:40:31Z</time>
<speed>0.010000</speed>
<extensions>
<speed>0.0</speed>
<temp>0.00</temp>
<bpm>0</bpm>
<rpm>0.00</rpm>
</extensions>
</trkpt>
<trkpt lat="64.247940063" lon="-21.024406433">
<ele>186.132813</ele>
<time>2012-07-19T12:40:36Z</time>
<extensions>
<speed>0.0</speed>
<temp>0.00</temp>
<bpm>0</bpm>
<rpm>0.00</rpm>
</extensions>
</trkpt>
<trkpt lat="64.247940063" lon="-21.024406433">
<ele>186.117188</ele>
<time>2012-07-19T12:40:41Z</time>
<extensions>
<speed>0.0</speed>
<temp>0.00</temp>
<bpm>0</bpm>
<rpm>0.00</rpm>
</extensions>
</trkpt>
<trkpt lat="64.247940063" lon="-21.024406433">
<ele>186.097656</ele>
<time>2012-07-19T12:40:46Z</time>
<extensions>
<speed>0.0</speed>
<temp>0.00</temp>
<bpm>0</bpm>
<rpm>0.00</rpm>
</extensions>
</trkpt>
<trkpt lat="64.247940063" lon="-21.024406433">
<ele>186.078125</ele>
<time>2012-07-19T12:40:51Z</time>
<extensions>
<speed>0.0</speed>
<temp>0.00</temp>
<bpm>0</bpm>
<rpm>0.00</rpm>
</extensions>
</trkpt>
<trkpt lat="64.247940063" lon="-21.024408340">
<ele>186.062500</ele>
<time>2012-07-19T12:40:56Z</time>
<extensions>
<speed>0.0</speed>
<temp>0.00</temp>
<bpm>0</bpm>
<rpm>0.00</rpm>
</extensions>
</trkpt>
<trkpt lat="64.247940063" lon="-21.024408340">
<ele>186.031250</ele>
<time>2012-07-19T12:41:01Z</time>
<extensions>
<speed>0.0</speed>
<temp>0.00</temp>
<bpm>0</bpm>
<rpm>0.00</rpm>
</extensions>
</trkpt>
<trkpt lat="64.247940063" lon="-21.024408340">
<ele>186.019531</ele>
<time>2012-07-19T12:41:06Z</time>
<extensions>
<speed>0.0</speed>
<temp>0.00</temp>
<bpm>0</bpm>
<rpm>0.00</rpm>
</extensions>
</trkpt>
<trkpt lat="64.247940063" lon="-21.024408340">
<ele>186.011719</ele>
<time>2012-07-19T12:41:11Z</time>
<extensions>
<speed>0.0</speed>
<temp>0.00</temp>
<bpm>0</bpm>
<rpm>0.00</rpm>
</extensions>
</trkpt>
<trkpt lat="64.247940063" lon="-21.024408340">
<ele>186.003906</ele>
<time>2012-07-19T12:41:16Z</time>
<extensions>
<speed>0.0</speed>
<temp>0.00</temp>
<bpm>0</bpm>
<rpm>0.00</rpm>
</extensions>
</trkpt>
<trkpt lat="64.247940063" lon="-21.024408340">
<ele>186.003906</ele>
<time>2012-07-19T12:41:21Z</time>
<extensions>
<speed>0.0</speed>
<temp>0.00</temp>
<bpm>0</bpm>
<rpm>0.00</rpm>
</extensions>
</trkpt>
<trkpt lat="64.247940063" lon="-21.024408340">
<ele>186.003906</ele>
<time>2012-07-19T12:41:26Z</time>
<speed>0.260000</speed>
<extensions>
<speed>0.3</speed>
<temp>0.00</temp>
<bpm>0</bpm>
<rpm>0.00</rpm>
</extensions>
</trkpt>
<trkpt lat="64.247924805" lon="-21.024421692">
<ele>185.957031</ele>
<time>2012-07-19T12:41:31Z</time>
<speed>0.760000</speed>
<extensions>
<speed>0.8</speed>
<temp>0.00</temp>
<bpm>0</bpm>
<rpm>0.00</rpm>
</extensions>
</trkpt>
<trkpt lat="64.247917175" lon="-21.024402618">
<ele>185.984375</ele>
<time>2012-07-19T12:41:36Z</time>
<extensions>
<speed>0.0</speed>
<temp>0.00</temp>
<bpm>0</bpm>
<rpm>0.00</rpm>
</extensions>
</trkpt>
<trkpt lat="64.247917175" lon="-21.024402618">
<ele>185.929688</ele>
<time>2012-07-19T12:41:41Z</time>
<speed>0.210000</speed>
<extensions>
<speed>0.2</speed>
<temp>0.00</temp>
<bpm>0</bpm>
<rpm>0.00</rpm>
</extensions>
</trkpt>
<trkpt lat="64.247917175" lon="-21.024394989">
<ele>186.035156</ele>
<time>2012-07-19T12:41:46Z</time>
<speed>0.100000</speed>
<extensions>
<speed>0.1</speed>
<temp>0.00</temp>
<bpm>0</bpm>
<rpm>0.00</rpm>
</extensions>
</trkpt>
<trkpt lat="64.247909546" lon="-21.024368286">
<ele>186.078125</ele>
<time>2012-07-19T12:41:51Z</time>
<speed>0.290000</speed>
<extensions>
<speed>0.3</speed>
<temp>0.00</temp>
<bpm>0</bpm>
<rpm>0.00</rpm>
</extensions>
</trkpt>
<trkpt lat="64.247901917" lon="-21.024318695">
<ele>186.000000</ele>
<time>2012-07-19T12:41:56Z</time>
<speed>0.550000</speed>
<extensions>
<speed>0.6</speed>
<temp>0.00</temp>
<bpm>0</bpm>
<rpm>0.00</rpm>
</extensions>
</trkpt>
<trkpt lat="64.247879028" lon="-21.024267197">
<ele>186.214844</ele>
<time>2012-07-19T12:42:01Z</time>
<speed>0.870000</speed>
<extensions>
<speed>0.9</speed>
<temp>0.00</temp>
<bpm>0</bpm>
<rpm>0.00</rpm>
</extensions>
</trkpt>
<trkpt lat="64.247871399" lon="-21.024219513">
<ele>186.675781</ele>
<time>2012-07-19T12:42:06Z</time>
<extensions>
<speed>0.0</speed>
<temp>0.00</temp>
<bpm>0</bpm>
<rpm>0.00</rpm>
</extensions>
</trkpt>
<trkpt lat="64.247863770" lon="-21.024209976">
<ele>187.070313</ele>
<time>2012-07-19T12:42:11Z</time>
<speed>0.790000</speed>
<extensions>
<speed>0.8</speed>
<temp>0.00</temp>
<bpm>0</bpm>
<rpm>0.00</rpm>
</extensions>
</trkpt>
<trkpt lat="64.247810364" lon="-21.024209976">
<ele>187.593750</ele>
<time>2012-07-19T12:42:16Z</time>
<speed>1.210000</speed>
<extensions>
<speed>1.2</speed>
<temp>0.00</temp>
<bpm>0</bpm>
<rpm>0.00</rpm>
</extensions>
</trkpt>
<trkpt lat="64.247756958" lon="-21.024213791">
<ele>186.976563</ele>
<time>2012-07-19T12:42:21Z</time>
<speed>1.700000</speed>
<extensions>
<speed>1.7</speed>
<temp>0.00</temp>
<bpm>0</bpm>
<rpm>0.00</rpm>
</extensions>
</trkpt>
<trkpt lat="64.247673035" lon="-21.024261475">
<ele>186.542969</ele>
<time>2012-07-19T12:42:26Z</time>
<speed>2.400000</speed>
<extensions>
<speed>2.4</speed>
<temp>0.00</temp>
<bpm>0</bpm>
<rpm>0.00</rpm>
</extensions>
</trkpt>
<trkpt lat="64.247543335" lon="-21.024324417">
<ele>186.046875</ele>
<time>2012-07-19T12:42:31Z</time>
<speed>3.220000</speed>
<extensions>
<speed>3.2</speed>
<temp>0.00</temp>
<bpm>0</bpm>
<rpm>0.00</rpm>
</extensions>
</trkpt>
<trkpt lat="64.247390747" lon="-21.024400711">
<ele>185.292969</ele>
<time>2012-07-19T12:42:36Z</time>
<speed>4.220000</speed>
<extensions>
<speed>4.2</speed>
<temp>0.00</temp>
<bpm>0</bpm>
<rpm>0.00</rpm>
</extensions>
</trkpt>
<trkpt lat="64.247161865" lon="-21.024465561">
<ele>183.898438</ele>
<time>2012-07-19T12:42:41Z</time>
<speed>5.800000</speed>
<extensions>
<speed>5.8</speed>
<temp>0.00</temp>
<bpm>0</bpm>
<rpm>0.00</rpm>
</extensions>
</trkpt>
<trkpt lat="64.246864319" lon="-21.024511337">
<ele>182.082031</ele>
<time>2012-07-19T12:42:46Z</time>
<speed>6.960000</speed>
<extensions>
<speed>7.0</speed>
<temp>0.00</temp>
<bpm>0</bpm>
<rpm>0.00</rpm>
</extensions>
</trkpt>
<trkpt lat="64.246559143" lon="-21.024486542">
<ele>181.703125</ele>
<time>2012-07-19T12:42:51Z</time>
<speed>6.160000</speed>
<extensions>
<speed>6.2</speed>
<temp>0.00</temp>
<bpm>0</bpm>
<rpm>0.00</rpm>
</extensions>
</trkpt>
<trkpt lat="64.246322632" lon="-21.024429321">
<ele>182.093750</ele>
<time>2012-07-19T12:42:56Z</time>
<speed>4.850000</speed>
<extensions>
<speed>4.8</speed>
<temp>0.00</temp>
<bpm>0</bpm>
<rpm>0.00</rpm>
</extensions>
</trkpt>
<trkpt lat="64.246116638" lon="-21.024389267">
<ele>182.703125</ele>
<time>2012-07-19T12:43:01Z</time>
<speed>4.600000</speed>
<extensions>
<speed>4.6</speed>
<temp>0.00</temp>
<bpm>0</bpm>
<rpm>0.00</rpm>
</extensions>
</trkpt>
<trkpt lat="64.245918274" lon="-21.024353027">
<ele>183.660156</ele>
<time>2012-07-19T12:43:06Z</time>
<speed>4.210000</speed>
<extensions>
<speed>4.2</speed>
<temp>0.00</temp>
<bpm>0</bpm>
<rpm>0.00</rpm>
</extensions>
</trkpt>
<trkpt lat="64.245735168" lon="-21.024330139">
<ele>184.492188</ele>
<time>2012-07-19T12:43:11Z</time>
<speed>4.380000</speed>
<extensions>
<speed>4.4</speed>
<temp>0.00</temp>
<bpm>0</bpm>
<rpm>0.00</rpm>
</extensions>
</trkpt>
<trkpt lat="64.245536804" lon="-21.024314880">
<ele>185.101563</ele>
<time>2012-07-19T12:43:16Z</time>
<speed>4.630000</speed>
<extensions>
<speed>4.6</speed>
<temp>0.00</temp>
<bpm>0</bpm>
<rpm>0.00</rpm>
</extensions>
</trkpt>
<trkpt lat="64.245315552" lon="-21.024343491">
<ele>185.007813</ele>
<time>2012-07-19T12:43:21Z</time>
<speed>5.160000</speed>
<extensions>
<speed>5.2</speed>
<temp>0.00</temp>
<bpm>0</bpm>
<rpm>0.00</rpm>
</extensions>
</trkpt>
<trkpt lat="64.245063782" lon="-21.024377823">
<ele>183.769531</ele>
<time>2012-07-19T12:43:26Z</time>
<speed>5.630000</speed>
<extensions>
<speed>5.6</speed>
<temp>0.00</temp>
<bpm>0</bpm>
<rpm>0.00</rpm>
</extensions>
</trkpt>
<trkpt lat="64.244819641" lon="-21.024438858">
<ele>183.171875</ele>
<time>2012-07-19T12:43:31Z</time>
<speed>5.740000</speed>
<extensions>
<speed>5.7</speed>
<temp>0.00</temp>
<bpm>0</bpm>
<rpm>0.00</rpm>
</extensions>
</trkpt>
<trkpt lat="64.244560242" lon="-21.024534225">
<ele>183.050781</ele>
<time>2012-07-19T12:43:36Z</time>
<speed>6.020000</speed>
<extensions>
<speed>6.0</speed>
<temp>0.00</temp>
<bpm>0</bpm>
<rpm>0.00</rpm>
</extensions>
</trkpt>
<trkpt lat="64.244270325" lon="-21.024705887">
<ele>182.257813</ele>
<time>2012-07-19T12:43:41Z</time>
<speed>6.950000</speed>
<extensions>
<speed>7.0</speed>
<temp>0.00</temp>
<bpm>0</bpm>
<rpm>0.00</rpm>
</extensions>
</trkpt>
<trkpt lat="64.243988037" lon="-21.024944305">
<ele>181.820313</ele>
<time>2012-07-19T12:43:46Z</time>
<speed>6.680000</speed>
<extensions>
<speed>6.7</speed>
<temp>0.00</temp>
<bpm>0</bpm>
<rpm>0.00</rpm>
</extensions>
</trkpt>
<trkpt lat="64.243721008" lon="-21.025203705">
<ele>182.460938</ele>
<time>2012-07-19T12:43:51Z</time>
<speed>6.130000</speed>
<extensions>
<speed>6.1</speed>
<temp>0.00</temp>
<bpm>0</bpm>
<rpm>0.00</rpm>
</extensions>
</trkpt>
<trkpt lat="64.243461609" lon="-21.025489807">
<ele>182.406250</ele>
<time>2012-07-19T12:43:56Z</time>
<speed>6.710000</speed>
<extensions>
<speed>6.7</speed>
<temp>0.00</temp>
<bpm>0</bpm>
<rpm>0.00</rpm>
</extensions>
</trkpt>
<trkpt lat="64.243179321" lon="-21.025789261">
<ele>182.367188</ele>
<time>2012-07-19T12:44:01Z</time>
<speed>6.980000</speed>
<extensions>
<speed>7.0</speed>
<temp>0.00</temp>
<bpm>0</bpm>
<rpm>0.00</rpm>
</extensions>
</trkpt>
<trkpt lat="64.242881775" lon="-21.026088715">
<ele>181.648438</ele>
<time>2012-07-19T12:44:06Z</time>
<speed>7.110000</speed>
<extensions>
<speed>7.1</speed>
<temp>0.00</temp>
<bpm>0</bpm>
<rpm>0.00</rpm>
</extensions>
</trkpt>
<trkpt lat="64.242607117" lon="-21.026369095">
<ele>181.437500</ele>
<time>2012-07-19T12:44:11Z</time>
<speed>6.670000</speed>
<extensions>
<speed>6.7</speed>
<temp>0.00</temp>
<bpm>0</bpm>
<rpm>0.00</rpm>
</extensions>
</trkpt>
<trkpt lat="64.242332458" lon="-21.026664734">
<ele>180.890625</ele>
<time>2012-07-19T12:44:16Z</time>
<speed>7.100000</speed>
<extensions>
<speed>7.1</speed>
<temp>0.00</temp>
<bpm>0</bpm>
<rpm>0.00</rpm>
</extensions>
</trkpt>
<trkpt lat="64.242027283" lon="-21.026975632">
<ele>180.238281</ele>
<time>2012-07-19T12:44:21Z</time>
<speed>7.640000</speed>
<extensions>
<speed>7.6</speed>
<temp>0.00</temp>
<bpm>0</bpm>
<rpm>0.00</rpm>
</extensions>
</trkpt>
<trkpt lat="64.241691589" lon="-21.027284622">
<ele>178.371094</ele>
<time>2012-07-19T12:44:26Z</time>
<speed>8.580000</speed>
<extensions>
<speed>8.6</speed>
<temp>0.00</temp>
<bpm>0</bpm>
<rpm>0.00</rpm>
</extensions>
</trkpt>
<trkpt lat="64.241310120" lon="-21.027639389">
<ele>176.484375</ele>
<time>2012-07-19T12:44:31Z</time>
<speed>9.310000</speed>
<extensions>
<speed>9.3</speed>
<temp>0.00</temp>
<bpm>0</bpm>
<rpm>0.00</rpm>
</extensions>
</trkpt>
<trkpt lat="64.240913391" lon="-21.027936935">
<ele>175.015625</ele>
<time>2012-07-19T12:44:36Z</time>
<speed>9.050001</speed>
<extensions>
<speed>9.1</speed>
<temp>0.00</temp>
<bpm>0</bpm>
<rpm>0.00</rpm>
</extensions>
</trkpt>
<trkpt lat="64.240524292" lon="-21.028194427">
<ele>173.457031</ele>
<time>2012-07-19T12:44:41Z</time>
<speed>9.040000</speed>
<extensions>
<speed>9.0</speed>
<temp>0.00</temp>
<bpm>0</bpm>
<rpm>0.00</rpm>
</extensions>
</trkpt>
<trkpt lat="64.240119934" lon="-21.028419495">
<ele>171.285156</ele>
<time>2012-07-19T12:44:46Z</time>
<speed>9.240000</speed>
<extensions>
<speed>9.2</speed>
<temp>0.00</temp>
<bpm>0</bpm>
<rpm>0.00</rpm>
</extensions>
</trkpt>
<trkpt lat="64.239723206" lon="-21.028594971">
<ele>170.246094</ele>
<time>2012-07-19T12:44:51Z</time>
<speed>8.800000</speed>
<extensions>
<speed>8.8</speed>
<temp>0.00</temp>
<bpm>0</bpm>
<rpm>0.00</rpm>
</extensions>
</trkpt>
<trkpt lat="64.239356995" lon="-21.028730392">
<ele>170.812500</ele>
<time>2012-07-19T12:44:56Z</time>
<speed>7.060000</speed>
<extensions>
<speed>7.1</speed>
<temp>0.00</temp>
<bpm>0</bpm>
<rpm>0.00</rpm>
</extensions>
</trkpt>
<trkpt lat="64.239074707" lon="-21.028827667">
<ele>171.722656</ele>
<time>2012-07-19T12:45:01Z</time>
<speed>5.640000</speed>
<extensions>
<speed>5.6</speed>
<temp>0.00</temp>
<bpm>0</bpm>
<rpm>0.00</rpm>
</extensions>
</trkpt>
<trkpt lat="64.238861084" lon="-21.028882980">
<ele>173.015625</ele>
<time>2012-07-19T12:45:06Z</time>
<speed>4.350000</speed>
<extensions>
<speed>4.3</speed>
<temp>0.00</temp>
<bpm>0</bpm>
<rpm>0.00</rpm>
</extensions>
</trkpt>
<trkpt lat="64.238677979" lon="-21.028928757">
<ele>173.957031</ele>
<time>2012-07-19T12:45:11Z</time>
<speed>4.060000</speed>
<extensions>
<speed>4.1</speed>
<temp>0.00</temp>
<bpm>0</bpm>
<rpm>0.00</rpm>
</extensions>
</trkpt>
<trkpt lat="64.238510132" lon="-21.028957367">
<ele>174.304688</ele>
<time>2012-07-19T12:45:16Z</time>
<speed>4.070000</speed>
<extensions>
<speed>4.1</speed>
<temp>0.00</temp>
<bpm>0</bpm>
<rpm>0.00</rpm>
</extensions>
</trkpt>
<trkpt lat="64.238327026" lon="-21.028995514">
<ele>174.664063</ele>
<time>2012-07-19T12:45:21Z</time>
<speed>4.250000</speed>
<extensions>
<speed>4.3</speed>
<temp>0.00</temp>
<bpm>0</bpm>
<rpm>0.00</rpm>
</extensions>
</trkpt>
<trkpt lat="64.238136292" lon="-21.029012680">
<ele>175.031250</ele>
<time>2012-07-19T12:45:26Z</time>
<speed>4.230000</speed>
<extensions>
<speed>4.2</speed>
<temp>0.00</temp>
<bpm>0</bpm>
<rpm>0.00</rpm>
</extensions>
</trkpt>
<trkpt lat="64.237930298" lon="-21.029029846">
<ele>175.234375</ele>
<time>2012-07-19T12:45:31Z</time>
<speed>4.710000</speed>
<extensions>
<speed>4.7</speed>
<temp>0.00</temp>
<bpm>0</bpm>
<rpm>0.00</rpm>
</extensions>
</trkpt>
<trkpt lat="64.237731934" lon="-21.029018402">
<ele>174.937500</ele>
<time>2012-07-19T12:45:36Z</time>
<speed>4.680000</speed>
<extensions>
<speed>4.7</speed>
<temp>0.00</temp>
<bpm>0</bpm>
<rpm>0.00</rpm>
</extensions>
</trkpt>
<trkpt lat="64.237525940" lon="-21.028991699">
<ele>174.726563</ele>
<time>2012-07-19T12:45:41Z</time>
<speed>4.790000</speed>
<extensions>
<speed>4.8</speed>
<temp>0.00</temp>
<bpm>0</bpm>
<rpm>0.00</rpm>
</extensions>
</trkpt>
<trkpt lat="64.237312317" lon="-21.028955460">
<ele>174.730469</ele>
<time>2012-07-19T12:45:46Z</time>
<speed>4.550000</speed>
<extensions>
<speed>4.5</speed>
<temp>0.00</temp>
<bpm>0</bpm>
<rpm>0.00</rpm>
</extensions>
</trkpt>
<trkpt lat="64.237098694" lon="-21.028892517">
<ele>174.738281</ele>
<time>2012-07-19T12:45:51Z</time>
<speed>5.080000</speed>
<extensions>
<speed>5.1</speed>
<temp>0.00</temp>
<bpm>0</bpm>
<rpm>0.00</rpm>
</extensions>
</trkpt>
<trkpt lat="64.236869812" lon="-21.028816223">
<ele>174.988281</ele>
<time>2012-07-19T12:45:56Z</time>
<speed>4.800000</speed>
<extensions>
<speed>4.8</speed>
<temp>0.00</temp>
<bpm>0</bpm>
<rpm>0.00</rpm>
</extensions>
</trkpt>
<trkpt lat="64.236625671" lon="-21.028738022">
<ele>174.718750</ele>
<time>2012-07-19T12:46:01Z</time>
<speed>5.730000</speed>
<extensions>
<speed>5.7</speed>
<temp>0.00</temp>
<bpm>0</bpm>
<rpm>0.00</rpm>
</extensions>
</trkpt>
<trkpt lat="64.236358643" lon="-21.028635025">
<ele>174.562500</ele>
<time>2012-07-19T12:46:06Z</time>
<speed>6.040000</speed>
<extensions>
<speed>6.0</speed>
<temp>0.00</temp>
<bpm>0</bpm>
<rpm>0.00</rpm>
</extensions>
</trkpt>
<trkpt lat="64.236083984" lon="-21.028614044">
<ele>174.878906</ele>
<time>2012-07-19T12:46:11Z</time>
<speed>6.030000</speed>
<extensions>
<speed>6.0</speed>
<temp>0.00</temp>
<bpm>0</bpm>
<rpm>0.00</rpm>
</extensions>
</trkpt>
<trkpt lat="64.235809326" lon="-21.028656006">
<ele>174.742188</ele>
<time>2012-07-19T12:46:16Z</time>
<speed>5.980000</speed>
<extensions>
<speed>6.0</speed>
<temp>0.00</temp>
<bpm>0</bpm>
<rpm>0.00</rpm>
</extensions>
</trkpt>
<trkpt lat="64.235542297" lon="-21.028728485">
<ele>174.949219</ele>
<time>2012-07-19T12:46:21Z</time>
<speed>5.910000</speed>
<extensions>
<speed>5.9</speed>
<temp>0.00</temp>
<bpm>0</bpm>
<rpm>0.00</rpm>
</extensions>
</trkpt>
<trkpt lat="64.235290527" lon="-21.028818130">
<ele>174.957031</ele>
<time>2012-07-19T12:46:26Z</time>
<speed>5.690000</speed>
<extensions>
<speed>5.7</speed>
<temp>0.00</temp>
<bpm>0</bpm>
<rpm>0.00</rpm>
</extensions>
</trkpt>
<trkpt lat="64.235054016" lon="-21.028934479">
<ele>175.035156</ele>
<time>2012-07-19T12:46:31Z</time>
<speed>5.470000</speed>
<extensions>
<speed>5.5</speed>
<temp>0.00</temp>
<bpm>0</bpm>
<rpm>0.00</rpm>
</extensions>
</trkpt>
<trkpt lat="64.234832764" lon="-21.029081345">
<ele>175.753906</ele>
<time>2012-07-19T12:46:36Z</time>
<speed>5.100000</speed>
<extensions>
<speed>5.1</speed>
<temp>0.00</temp>
<bpm>0</bpm>
<rpm>0.00</rpm>
</extensions>
</trkpt>
<trkpt lat="64.234603882" lon="-21.029262543">
<ele>175.664063</ele>
<time>2012-07-19T12:46:41Z</time>
<speed>5.630000</speed>
<extensions>
<speed>5.6</speed>
<temp>0.00</temp>
<bpm>0</bpm>
<rpm>0.00</rpm>
</extensions>
</trkpt>
<trkpt lat="64.234344482" lon="-21.029483795">
<ele>174.777344</ele>
<time>2012-07-19T12:46:46Z</time>
<speed>6.500000</speed>
<extensions>
<speed>6.5</speed>
<temp>0.00</temp>
<bpm>0</bpm>
<rpm>0.00</rpm>
</extensions>
</trkpt>
<trkpt lat="64.234054565" lon="-21.029710770">
<ele>174.269531</ele>
<time>2012-07-19T12:46:51Z</time>
<speed>6.660000</speed>
<extensions>
<speed>6.7</speed>
<temp>0.00</temp>
<bpm>0</bpm>
<rpm>0.00</rpm>
</extensions>
</trkpt>
<trkpt lat="64.233764648" lon="-21.029981613">
<ele>173.871094</ele>
<time>2012-07-19T12:46:56Z</time>
<speed>7.070000</speed>
<extensions>
<speed>7.1</speed>
<temp>0.00</temp>
<bpm>0</bpm>
<rpm>0.00</rpm>
</extensions>
</trkpt>
<trkpt lat="64.233482361" lon="-21.030282974">
<ele>174.292969</ele>
<time>2012-07-19T12:47:01Z</time>
<speed>6.480000</speed>
<extensions>
<speed>6.5</speed>
<temp>0.00</temp>
<bpm>0</bpm>
<rpm>0.00</rpm>
</extensions>
</trkpt>
<trkpt lat="64.233253479" lon="-21.030643463">
<ele>175.066406</ele>
<time>2012-07-19T12:47:06Z</time>
<speed>6.480000</speed>
<extensions>
<speed>6.5</speed>
<temp>0.00</temp>
<bpm>0</bpm>
<rpm>0.00</rpm>
</extensions>
</trkpt>
<trkpt lat="64.233016968" lon="-21.031124115">
<ele>174.296875</ele>
<time>2012-07-19T12:47:11Z</time>
<speed>6.880000</speed>
<extensions>
<speed>6.9</speed>
<temp>0.00</temp>
<bpm>0</bpm>
<rpm>0.00</rpm>
</extensions>
</trkpt>
<trkpt lat="64.232803345" lon="-21.031682968">
<ele>173.054688</ele>
<time>2012-07-19T12:47:16Z</time>
<speed>6.940000</speed>
<extensions>
<speed>6.9</speed>
<temp>0.00</temp>
<bpm>0</bpm>
<rpm>0.00</rpm>
</extensions>
</trkpt>
<trkpt lat="64.232643127" lon="-21.032270432">
<ele>172.890625</ele>
<time>2012-07-19T12:47:21Z</time>
<speed>6.740000</speed>
<extensions>
<speed>6.7</speed>
<temp>0.00</temp>
<bpm>0</bpm>
<rpm>0.00</rpm>
</extensions>
</trkpt>
<trkpt lat="64.232513428" lon="-21.032894135">
<ele>172.031250</ele>
<time>2012-07-19T12:47:26Z</time>
<speed>6.770000</speed>
<extensions>
<speed>6.8</speed>
<temp>0.00</temp>
<bpm>0</bpm>
<rpm>0.00</rpm>
</extensions>
</trkpt>
<trkpt lat="64.232429504" lon="-21.033559799">
<ele>170.718750</ele>
<time>2012-07-19T12:47:31Z</time>
<speed>6.720000</speed>
<extensions>
<speed>6.7</speed>
<temp>0.00</temp>
<bpm>0</bpm>
<rpm>0.00</rpm>
</extensions>
</trkpt>
<trkpt lat="64.232383728" lon="-21.034242630">
<ele>169.402344</ele>
<time>2012-07-19T12:47:36Z</time>
<speed>6.690000</speed>
<extensions>
<speed>6.7</speed>
<temp>0.00</temp>
<bpm>0</bpm>
<rpm>0.00</rpm>
</extensions>
</trkpt>
<trkpt lat="64.232383728" lon="-21.035068512">
<ele>165.972656</ele>
<time>2012-07-19T12:47:41Z</time>
<speed>8.760000</speed>
<extensions>
<speed>8.8</speed>
<temp>0.00</temp>
<bpm>0</bpm>
<rpm>0.00</rpm>
</extensions>
</trkpt>
<trkpt lat="64.232376099" lon="-21.036119461">
<ele>160.914063</ele>
<time>2012-07-19T12:47:46Z</time>
<speed>10.920000</speed>
<extensions>
<speed>10.9</speed>
<temp>0.00</temp>
<bpm>0</bpm>
<rpm>0.00</rpm>
</extensions>
</trkpt>
<trkpt lat="64.232284546" lon="-21.037279129">
<ele>155.527344</ele>
<time>2012-07-19T12:47:51Z</time>
<speed>11.860000</speed>
<extensions>
<speed>11.9</speed>
<temp>0.00</temp>
<bpm>0</bpm>
<rpm>0.00</rpm>
</extensions>
</trkpt>
<trkpt lat="64.232078552" lon="-21.038482666">
<ele>147.457031</ele>
<time>2012-07-19T12:47:56Z</time>
<speed>13.200000</speed>
<extensions>
<speed>13.2</speed>
<temp>0.00</temp>
<bpm>0</bpm>
<rpm>0.00</rpm>
</extensions>
</trkpt>
<trkpt lat="64.231803894" lon="-21.039644241">
<ele>144.324219</ele>
<time>2012-07-19T12:48:01Z</time>
<speed>12.030000</speed>
<extensions>
<speed>12.0</speed>
<temp>0.00</temp>
<bpm>0</bpm>
<rpm>0.00</rpm>
</extensions>
</trkpt>
<trkpt lat="64.231567383" lon="-21.040622711">
<ele>144.179688</ele>
<time>2012-07-19T12:48:06Z</time>
<speed>9.870000</speed>
<extensions>
<speed>9.9</speed>
<temp>0.00</temp>
<bpm>0</bpm>
<rpm>0.00</rpm>
</extensions>
</trkpt>
<trkpt lat="64.231376648" lon="-21.041435242">
<ele>143.519531</ele>
<time>2012-07-19T12:48:11Z</time>
<speed>8.580000</speed>
<extensions>
<speed>8.6</speed>
<temp>0.00</temp>
<bpm>0</bpm>
<rpm>0.00</rpm>
</extensions>
</trkpt>
<trkpt lat="64.231231689" lon="-21.042209625">
<ele>143.203125</ele>
<time>2012-07-19T12:48:16Z</time>
<speed>7.870000</speed>
<extensions>
<speed>7.9</speed>
<temp>0.00</temp>
<bpm>0</bpm>
<rpm>0.00</rpm>
</extensions>
</trkpt>
<trkpt lat="64.231124878" lon="-21.042957306">
<ele>142.566406</ele>
<time>2012-07-19T12:48:21Z</time>
<speed>7.470000</speed>
<extensions>
<speed>7.5</speed>
<temp>0.00</temp>
<bpm>0</bpm>
<rpm>0.00</rpm>
</extensions>
</trkpt>
<trkpt lat="64.231040955" lon="-21.043710709">
<ele>141.011719</ele>
<time>2012-07-19T12:48:26Z</time>
<speed>7.760000</speed>
<extensions>
<speed>7.8</speed>
<temp>0.00</temp>
<bpm>0</bpm>
<rpm>0.00</rpm>
</extensions>
</trkpt>
<trkpt lat="64.230949402" lon="-21.044496536">
<ele>139.601563</ele>
<time>2012-07-19T12:48:31Z</time>
<speed>8.040000</speed>
<extensions>
<speed>8.0</speed>
<temp>0.00</temp>
<bpm>0</bpm>
<rpm>0.00</rpm>
</extensions>
</trkpt>
<trkpt lat="64.230857849" lon="-21.045316696">
<ele>137.871094</ele>
<time>2012-07-19T12:48:36Z</time>
<speed>8.190000</speed>
<extensions>
<speed>8.2</speed>
<temp>0.00</temp>
<bpm>0</bpm>
<rpm>0.00</rpm>
</extensions>
</trkpt>
<trkpt lat="64.230758667" lon="-21.046129227">
<ele>136.707031</ele>
<time>2012-07-19T12:48:41Z</time>
<speed>8.350000</speed>
<extensions>
<speed>8.3</speed>
<temp>0.00</temp>
<bpm>0</bpm>
<rpm>0.00</rpm>
</extensions>
</trkpt>
<trkpt lat="64.230651855" lon="-21.046976089">
<ele>134.886719</ele>
<time>2012-07-19T12:48:46Z</time>
<speed>8.740000</speed>
<extensions>
<speed>8.7</speed>
<temp>0.00</temp>
<bpm>0</bpm>
<rpm>0.00</rpm>
</extensions>
</trkpt>
<trkpt lat="64.230552673" lon="-21.047838211">
<ele>133.960938</ele>
<time>2012-07-19T12:48:51Z</time>
<speed>8.250000</speed>
<extensions>
<speed>8.3</speed>
<temp>0.00</temp>
<bpm>0</bpm>
<rpm>0.00</rpm>
</extensions>
</trkpt>
<trkpt lat="64.230438232" lon="-21.048599243">
<ele>134.179688</ele>
<time>2012-07-19T12:48:56Z</time>
<speed>7.140000</speed>
<extensions>
<speed>7.1</speed>
<temp>0.00</temp>
<bpm>0</bpm>
<rpm>0.00</rpm>
</extensions>
</trkpt>
<trkpt lat="64.230308533" lon="-21.049226761">
<ele>134.921875</ele>
<time>2012-07-19T12:49:01Z</time>
<speed>6.150000</speed>
<extensions>
<speed>6.1</speed>
<temp>0.00</temp>
<bpm>0</bpm>
<rpm>0.00</rpm>
</extensions>
</trkpt>
<trkpt lat="64.230171204" lon="-21.049709320">
<ele>136.117188</ele>
<time>2012-07-19T12:49:06Z</time>
<speed>5.160000</speed>
<extensions>
<speed>5.2</speed>
<temp>0.00</temp>
<bpm>0</bpm>
<rpm>0.00</rpm>
</extensions>
</trkpt>
<trkpt lat="64.230033875" lon="-21.050113678">
<ele>137.113281</ele>
<time>2012-07-19T12:49:11Z</time>
<speed>4.920000</speed>
<extensions>
<speed>4.9</speed>
<temp>0.00</temp>
<bpm>0</bpm>
<rpm>0.00</rpm>
</extensions>
</trkpt>
<trkpt lat="64.229881287" lon="-21.050445557">
<ele>137.851563</ele>
<time>2012-07-19T12:49:16Z</time>
<speed>3.740000</speed>
<extensions>
<speed>3.7</speed>
<temp>0.00</temp>
<bpm>0</bpm>
<rpm>0.00</rpm>
</extensions>
</trkpt>
<trkpt lat="64.229759216" lon="-21.050724030">
<ele>138.519531</ele>
<time>2012-07-19T12:49:21Z</time>
<speed>4.180000</speed>
<extensions>
<speed>4.2</speed>
<temp>0.00</temp>
<bpm>0</bpm>
<rpm>0.00</rpm>
</extensions>
</trkpt>
<trkpt lat="64.229606628" lon="-21.051002502">
<ele>139.386719</ele>
<time>2012-07-19T12:49:26Z</time>
<speed>4.800000</speed>
<extensions>
<speed>4.8</speed>
<temp>0.00</temp>
<bpm>0</bpm>
<rpm>0.00</rpm>
</extensions>
</trkpt>
<trkpt lat="64.229431152" lon="-21.051277161">
<ele>140.761719</ele>
<time>2012-07-19T12:49:31Z</time>
<speed>4.930000</speed>
<extensions>
<speed>4.9</speed>
<temp>0.00</temp>
<bpm>0</bpm>
<rpm>0.00</rpm>
</extensions>
</trkpt>
<trkpt lat="64.229248047" lon="-21.051509857">
<ele>141.441406</ele>
<time>2012-07-19T12:49:36Z</time>
<speed>4.590000</speed>
<extensions>
<speed>4.6</speed>
<temp>0.00</temp>
<bpm>0</bpm>
<rpm>0.00</rpm>
</extensions>
</trkpt>
<trkpt lat="64.229110718" lon="-21.051664352">
<ele>142.066406</ele>
<time>2012-07-19T12:49:41Z</time>
<speed>2.520000</speed>
<extensions>
<speed>2.5</speed>
<temp>0.00</temp>
<bpm>0</bpm>
<rpm>0.00</rpm>
</extensions>
</trkpt>
<trkpt lat="64.229019165" lon="-21.051755905">
<ele>142.656250</ele>
<time>2012-07-19T12:49:46Z</time>
<speed>2.750000</speed>
<extensions>
<speed>2.7</speed>
<temp>0.00</temp>
<bpm>0</bpm>
<rpm>0.00</rpm>
</extensions>
</trkpt>
<trkpt lat="64.228889465" lon="-21.051855087">
<ele>142.992188</ele>
<time>2012-07-19T12:49:51Z</time>
<speed>3.540000</speed>
<extensions>
<speed>3.5</speed>
<temp>0.00</temp>
<bpm>0</bpm>
<rpm>0.00</rpm>
</extensions>
</trkpt>
<trkpt lat="64.228744507" lon="-21.051925659">
<ele>143.765625</ele>
<time>2012-07-19T12:49:56Z</time>
<speed>3.810000</speed>
<extensions>
<speed>3.8</speed>
<temp>0.00</temp>
<bpm>0</bpm>
<rpm>0.00</rpm>
</extensions>
</trkpt>
<trkpt lat="64.228569031" lon="-21.051994324">
<ele>144.011719</ele>
<time>2012-07-19T12:50:01Z</time>
<speed>4.470000</speed>
<extensions>
<speed>4.5</speed>
<temp>0.00</temp>
<bpm>0</bpm>
<rpm>0.00</rpm>
</extensions>
</trkpt>
<trkpt lat="64.228355408" lon="-21.052057266">
<ele>143.917969</ele>
<time>2012-07-19T12:50:06Z</time>
<speed>4.640000</speed>
<extensions>
<speed>4.6</speed>
<temp>0.00</temp>
<bpm>0</bpm>
<rpm>0.00</rpm>
</extensions>
</trkpt>
<trkpt lat="64.228134155" lon="-21.052125931">
<ele>143.792969</ele>
<time>2012-07-19T12:50:11Z</time>
<speed>5.260000</speed>
<extensions>
<speed>5.3</speed>
<temp>0.00</temp>
<bpm>0</bpm>
<rpm>0.00</rpm>
</extensions>
</trkpt>
<trkpt lat="64.227890015" lon="-21.052206039">
<ele>143.386719</ele>
<time>2012-07-19T12:50:16Z</time>
<speed>5.640000</speed>
<extensions>
<speed>5.6</speed>
<temp>0.00</temp>
<bpm>0</bpm>
<rpm>0.00</rpm>
</extensions>
</trkpt>
<trkpt lat="64.227645874" lon="-21.052284241">
<ele>142.933594</ele>
<time>2012-07-19T12:50:21Z</time>
<speed>5.460000</speed>
<extensions>
<speed>5.5</speed>
<temp>0.00</temp>
<bpm>0</bpm>
<rpm>0.00</rpm>
</extensions>
</trkpt>
<trkpt lat="64.227424622" lon="-21.052368164">
<ele>142.933594</ele>
<time>2012-07-19T12:50:26Z</time>
<speed>4.710000</speed>
<extensions>
<speed>4.7</speed>
<temp>0.00</temp>
<bpm>0</bpm>
<rpm>0.00</rpm>
</extensions>
</trkpt>
<trkpt lat="64.227210999" lon="-21.052429199">
<ele>143.097656</ele>
<time>2012-07-19T12:50:31Z</time>
<speed>4.530000</speed>
<extensions>
<speed>4.5</speed>
<temp>0.00</temp>
<bpm>0</bpm>
<rpm>0.00</rpm>
</extensions>
</trkpt>
<trkpt lat="64.227020264" lon="-21.052494049">
<ele>143.621094</ele>
<time>2012-07-19T12:50:36Z</time>
<speed>4.260000</speed>
<extensions>
<speed>4.3</speed>
<temp>0.00</temp>
<bpm>0</bpm>
<rpm>0.00</rpm>
</extensions>
</trkpt>
<trkpt lat="64.226821899" lon="-21.052562714">
<ele>144.175781</ele>
<time>2012-07-19T12:50:41Z</time>
<speed>4.800000</speed>
<extensions>
<speed>4.8</speed>
<temp>0.00</temp>
<bpm>0</bpm>
<rpm>0.00</rpm>
</extensions>
</trkpt>
<trkpt lat="64.226608276" lon="-21.052661896">
<ele>144.988281</ele>
<time>2012-07-19T12:50:46Z</time>
<speed>4.700000</speed>
<extensions>
<speed>4.7</speed>
<temp>0.00</temp>
<bpm>0</bpm>
<rpm>0.00</rpm>
</extensions>
</trkpt>
<trkpt lat="64.226409912" lon="-21.052721024">
<ele>145.386719</ele>
<time>2012-07-19T12:50:51Z</time>
<speed>4.630000</speed>
<extensions>
<speed>4.6</speed>
<temp>0.00</temp>
<bpm>0</bpm>
<rpm>0.00</rpm>
</extensions>
</trkpt>
<trkpt lat="64.226181030" lon="-21.052785873">
<ele>145.628906</ele>
<time>2012-07-19T12:50:56Z</time>
<speed>4.850000</speed>
<extensions>
<speed>4.8</speed>
<temp>0.00</temp>
<bpm>0</bpm>
<rpm>0.00</rpm>
</extensions>
</trkpt>
<trkpt lat="64.225967407" lon="-21.052858353">
<ele>145.773438</ele>
<time>2012-07-19T12:51:01Z</time>
<speed>5.080000</speed>
<extensions>
<speed>5.1</speed>
<temp>0.00</temp>
<bpm>0</bpm>
<rpm>0.00</rpm>
</extensions>
</trkpt>
<trkpt lat="64.225738525" lon="-21.052936554">
<ele>145.773438</ele>
<time>2012-07-19T12:51:06Z</time>
<speed>5.130000</speed>
<extensions>
<speed>5.1</speed>
<temp>0.00</temp>
<bpm>0</bpm>
<rpm>0.00</rpm>
</extensions>
</trkpt>
<trkpt lat="64.225517273" lon="-21.053005219">
<ele>145.460938</ele>
<time>2012-07-19T12:51:11Z</time>
<speed>5.260000</speed>
<extensions>
<speed>5.3</speed>
<temp>0.00</temp>
<bpm>0</bpm>
<rpm>0.00</rpm>
</extensions>
</trkpt>
<trkpt lat="64.225288391" lon="-21.053083420">
<ele>145.339844</ele>
<time>2012-07-19T12:51:16Z</time>
<speed>5.290000</speed>
<extensions>
<speed>5.3</speed>
<temp>0.00</temp>
<bpm>0</bpm>
<rpm>0.00</rpm>
</extensions>
</trkpt>
<trkpt lat="64.225051880" lon="-21.053155899">
<ele>145.023438</ele>
<time>2012-07-19T12:51:21Z</time>
<speed>5.010000</speed>
<extensions>
<speed>5.0</speed>
<temp>0.00</temp>
<bpm>0</bpm>
<rpm>0.00</rpm>
</extensions>
</trkpt>
<trkpt lat="64.224845886" lon="-21.053232193">
<ele>144.652344</ele>
<time>2012-07-19T12:51:26Z</time>
<speed>5.000000</speed>
<extensions>
<speed>5.0</speed>
<temp>0.00</temp>
<bpm>0</bpm>
<rpm>0.00</rpm>
</extensions>
</trkpt>
<trkpt lat="64.224632263" lon="-21.053306580">
<ele>144.144531</ele>
<time>2012-07-19T12:51:31Z</time>
<speed>4.660000</speed>
<extensions>
<speed>4.7</speed>
<temp>0.00</temp>
<bpm>0</bpm>
<rpm>0.00</rpm>
</extensions>
</trkpt>
<trkpt lat="64.224426270" lon="-21.053379059">
<ele>144.011719</ele>
<time>2012-07-19T12:51:36Z</time>
<speed>4.240000</speed>
<extensions>
<speed>4.2</speed>
<temp>0.00</temp>
<bpm>0</bpm>
<rpm>0.00</rpm>
</extensions>
</trkpt>
<trkpt lat="64.224227905" lon="-21.053455353">
<ele>143.750000</ele>
<time>2012-07-19T12:51:41Z</time>
<speed>4.660000</speed>
<extensions>
<speed>4.7</speed>
<temp>0.00</temp>
<bpm>0</bpm>
<rpm>0.00</rpm>
</extensions>
</trkpt>
<trkpt lat="64.224014282" lon="-21.053529739">
<ele>143.828125</ele>
<time>2012-07-19T12:51:46Z</time>
<speed>4.690000</speed>
<extensions>
<speed>4.7</speed>
<temp>0.00</temp>
<bpm>0</bpm>
<rpm>0.00</rpm>
</extensions>
</trkpt>
<trkpt lat="64.223823547" lon="-21.053604126">
<ele>144.031250</ele>
<time>2012-07-19T12:51:51Z</time>
<speed>4.300000</speed>
<extensions>
<speed>4.3</speed>
<temp>0.00</temp>
<bpm>0</bpm>
<rpm>0.00</rpm>
</extensions>
</trkpt>
<trkpt lat="64.223625183" lon="-21.053665161">
<ele>143.605469</ele>
<time>2012-07-19T12:51:56Z</time>
<speed>4.700000</speed>
<extensions>
<speed>4.7</speed>
<temp>0.00</temp>
<bpm>0</bpm>
<rpm>0.00</rpm>
</extensions>
</trkpt>
<trkpt lat="64.223426819" lon="-21.053718567">
<ele>144.363281</ele>
<time>2012-07-19T12:52:01Z</time>
<speed>4.300000</speed>
<extensions>
<speed>4.3</speed>
<temp>0.00</temp>
<bpm>0</bpm>
<rpm>0.00</rpm>
</extensions>
</trkpt>
<trkpt lat="64.223236084" lon="-21.053777695">
<ele>144.257813</ele>
<time>2012-07-19T12:52:06Z</time>
<speed>4.210000</speed>
<extensions>
<speed>4.2</speed>
<temp>0.00</temp>
<bpm>0</bpm>
<rpm>0.00</rpm>
</extensions>
</trkpt>
<trkpt lat="64.223052979" lon="-21.053834915">
<ele>144.855469</ele>
<time>2012-07-19T12:52:11Z</time>
<speed>4.050000</speed>
<extensions>
<speed>4.0</speed>
<temp>0.00</temp>
<bpm>0</bpm>
<rpm>0.00</rpm>
</extensions>
</trkpt>
<trkpt lat="64.222877502" lon="-21.053884506">
<ele>145.863281</ele>
<time>2012-07-19T12:52:16Z</time>
<speed>3.990000</speed>
<extensions>
<speed>4.0</speed>
<temp>0.00</temp>
<bpm>0</bpm>
<rpm>0.00</rpm>
</extensions>
</trkpt>
<trkpt lat="64.222702026" lon="-21.053958893">
<ele>145.902344</ele>
<time>2012-07-19T12:52:21Z</time>
<speed>3.730000</speed>
<extensions>
<speed>3.7</speed>
<temp>0.00</temp>
<bpm>0</bpm>
<rpm>0.00</rpm>
</extensions>
</trkpt>
<trkpt lat="64.222526550" lon="-21.054008484">
<ele>146.312500</ele>
<time>2012-07-19T12:52:26Z</time>
<speed>3.920000</speed>
<extensions>
<speed>3.9</speed>
<temp>0.00</temp>
<bpm>0</bpm>
<rpm>0.00</rpm>
</extensions>
</trkpt>
<trkpt lat="64.222358704" lon="-21.054082870">
<ele>146.675781</ele>
<time>2012-07-19T12:52:31Z</time>
<speed>3.940000</speed>
<extensions>
<speed>3.9</speed>
<temp>0.00</temp>
<bpm>0</bpm>
<rpm>0.00</rpm>
</extensions>
</trkpt>
<trkpt lat="64.222183228" lon="-21.054124832">
<ele>147.492188</ele>
<time>2012-07-19T12:52:36Z</time>
<speed>3.820000</speed>
<extensions>
<speed>3.8</speed>
<temp>0.00</temp>
<bpm>0</bpm>
<rpm>0.00</rpm>
</extensions>
</trkpt>
<trkpt lat="64.222000122" lon="-21.054216385">
<ele>146.429688</ele>
<time>2012-07-19T12:52:41Z</time>
<speed>3.760000</speed>
<extensions>
<speed>3.8</speed>
<temp>0.00</temp>
<bpm>0</bpm>
<rpm>0.00</rpm>
</extensions>
</trkpt>
<trkpt lat="64.221832275" lon="-21.054254532">
<ele>146.738281</ele>
<time>2012-07-19T12:52:46Z</time>
<speed>3.600000</speed>
<extensions>
<speed>3.6</speed>
<temp>0.00</temp>
<bpm>0</bpm>
<rpm>0.00</rpm>
</extensions>
</trkpt>
<trkpt lat="64.221664429" lon="-21.054273605">
<ele>146.664063</ele>
<time>2012-07-19T12:52:51Z</time>
<speed>3.470000</speed>
<extensions>
<speed>3.5</speed>
<temp>0.00</temp>
<bpm>0</bpm>
<rpm>0.00</rpm>
</extensions>
</trkpt>
<trkpt lat="64.221511841" lon="-21.054313660">
<ele>145.578125</ele>
<time>2012-07-19T12:52:56Z</time>
<speed>3.480000</speed>
<extensions>
<speed>3.5</speed>
<temp>0.00</temp>
<bpm>0</bpm>
<rpm>0.00</rpm>
</extensions>
</trkpt>
<trkpt lat="64.221336365" lon="-21.054328918">
<ele>145.109375</ele>
<time>2012-07-19T12:53:01Z</time>
<speed>4.040000</speed>
<extensions>
<speed>4.0</speed>
<temp>0.00</temp>
<bpm>0</bpm>
<rpm>0.00</rpm>
</extensions>
</trkpt>
<trkpt lat="64.221153259" lon="-21.054349899">
<ele>144.500000</ele>
<time>2012-07-19T12:53:06Z</time>
<speed>3.990000</speed>
<extensions>
<speed>4.0</speed>
<temp>0.00</temp>
<bpm>0</bpm>
<rpm>0.00</rpm>
</extensions>
</trkpt>
<trkpt lat="64.220970154" lon="-21.054344177">
<ele>144.492188</ele>
<time>2012-07-19T12:53:11Z</time>
<speed>4.140000</speed>
<extensions>
<speed>4.1</speed>
<temp>0.00</temp>
<bpm>0</bpm>
<rpm>0.00</rpm>
</extensions>
</trkpt>
<trkpt lat="64.220779419" lon="-21.054315567">
<ele>144.125000</ele>
<time>2012-07-19T12:53:16Z</time>
<speed>3.880000</speed>
<extensions>
<speed>3.9</speed>
<temp>0.00</temp>
<bpm>0</bpm>
<rpm>0.00</rpm>
</extensions>
</trkpt>
<trkpt lat="64.220611572" lon="-21.054273605">
<ele>143.937500</ele>
<time>2012-07-19T12:53:21Z</time>
<speed>3.700000</speed>
<extensions>
<speed>3.7</speed>
<temp>0.00</temp>
<bpm>0</bpm>
<rpm>0.00</rpm>
</extensions>
</trkpt>
<trkpt lat="64.220428467" lon="-21.054229736">
<ele>143.875000</ele>
<time>2012-07-19T12:53:26Z</time>
<speed>4.410000</speed>
<extensions>
<speed>4.4</speed>
<temp>0.00</temp>
<bpm>0</bpm>
<rpm>0.00</rpm>
</extensions>
</trkpt>
<trkpt lat="64.220245361" lon="-21.054153442">
<ele>144.042969</ele>
<time>2012-07-19T12:53:31Z</time>
<speed>4.070000</speed>
<extensions>
<speed>4.1</speed>
<temp>0.00</temp>
<bpm>0</bpm>
<rpm>0.00</rpm>
</extensions>
</trkpt>
<trkpt lat="64.220054626" lon="-21.054044724">
<ele>144.316406</ele>
<time>2012-07-19T12:53:36Z</time>
<speed>4.480000</speed>
<extensions>
<speed>4.5</speed>
<temp>0.00</temp>
<bpm>0</bpm>
<rpm>0.00</rpm>
</extensions>
</trkpt>
<trkpt lat="64.219856262" lon="-21.053943634">
<ele>144.437500</ele>
<time>2012-07-19T12:53:41Z</time>
<speed>4.250000</speed>
<extensions>
<speed>4.3</speed>
<temp>0.00</temp>
<bpm>0</bpm>
<rpm>0.00</rpm>
</extensions>
</trkpt>
<trkpt lat="64.219673157" lon="-21.053825378">
<ele>145.152344</ele>
<time>2012-07-19T12:53:46Z</time>
<speed>4.410000</speed>
<extensions>
<speed>4.4</speed>
<temp>0.00</temp>
<bpm>0</bpm>
<rpm>0.00</rpm>
</extensions>
</trkpt>
<trkpt lat="64.219474792" lon="-21.053688049">
<ele>145.390625</ele>
<time>2012-07-19T12:53:51Z</time>
<speed>4.440000</speed>
<extensions>
<speed>4.4</speed>
<temp>0.00</temp>
<bpm>0</bpm>
<rpm>0.00</rpm>
</extensions>
</trkpt>
<trkpt lat="64.219299316" lon="-21.053565979">
<ele>145.460938</ele>
<time>2012-07-19T12:53:56Z</time>
<speed>3.760000</speed>
<extensions>
<speed>3.8</speed>
<temp>0.00</temp>
<bpm>0</bpm>
<rpm>0.00</rpm>
</extensions>
</trkpt>
<trkpt lat="64.219146729" lon="-21.053434372">
<ele>145.785156</ele>
<time>2012-07-19T12:54:01Z</time>
<speed>3.320000</speed>
<extensions>
<speed>3.3</speed>
<temp>0.00</temp>
<bpm>0</bpm>
<rpm>0.00</rpm>
</extensions>
</trkpt>
<trkpt lat="64.219009399" lon="-21.053304672">
<ele>146.550781</ele>
<time>2012-07-19T12:54:06Z</time>
<speed>3.610000</speed>
<extensions>
<speed>3.6</speed>
<temp>0.00</temp>
<bpm>0</bpm>
<rpm>0.00</rpm>
</extensions>
</trkpt>
<trkpt lat="64.218849182" lon="-21.053148270">
<ele>147.125000</ele>
<time>2012-07-19T12:54:11Z</time>
<speed>3.860000</speed>
<extensions>
<speed>3.9</speed>
<temp>0.00</temp>
<bpm>0</bpm>
<rpm>0.00</rpm>
</extensions>
</trkpt>
<trkpt lat="64.218704224" lon="-21.052989960">
<ele>147.921875</ele>
<time>2012-07-19T12:54:16Z</time>
<speed>3.670000</speed>
<extensions>
<speed>3.7</speed>
<temp>0.00</temp>
<bpm>0</bpm>
<rpm>0.00</rpm>
</extensions>
</trkpt>
<trkpt lat="64.218551636" lon="-21.052848816">
<ele>149.191406</ele>
<time>2012-07-19T12:54:21Z</time>
<speed>3.640000</speed>
<extensions>
<speed>3.6</speed>
<temp>0.00</temp>
<bpm>0</bpm>
<rpm>0.00</rpm>
</extensions>
</trkpt>
<trkpt lat="64.218406677" lon="-21.052690506">
<ele>149.937500</ele>
<time>2012-07-19T12:54:26Z</time>
<speed>3.730000</speed>
<extensions>
<speed>3.7</speed>
<temp>0.00</temp>
<bpm>0</bpm>
<rpm>0.00</rpm>
</extensions>
</trkpt>
<trkpt lat="64.218246460" lon="-21.052516937">
<ele>150.398438</ele>
<time>2012-07-19T12:54:31Z</time>
<speed>3.730000</speed>
<extensions>
<speed>3.7</speed>
<temp>0.00</temp>
<bpm>0</bpm>
<rpm>0.00</rpm>
</extensions>
</trkpt>
<trkpt lat="64.218093872" lon="-21.052368164">
<ele>150.871094</ele>
<time>2012-07-19T12:54:36Z</time>
<speed>3.660000</speed>
<extensions>
<speed>3.7</speed>
<temp>0.00</temp>
<bpm>0</bpm>
<rpm>0.00</rpm>
</extensions>
</trkpt>
<trkpt lat="64.217941284" lon="-21.052211761">
<ele>151.140625</ele>
<time>2012-07-19T12:54:41Z</time>
<speed>3.850000</speed>
<extensions>
<speed>3.8</speed>
<temp>0.00</temp>
<bpm>0</bpm>
<rpm>0.00</rpm>
</extensions>
</trkpt>
<trkpt lat="64.217788696" lon="-21.052057266">
<ele>151.382813</ele>
<time>2012-07-19T12:54:46Z</time>
<speed>4.020000</speed>
<extensions>
<speed>4.0</speed>
<temp>0.00</temp>
<bpm>0</bpm>
<rpm>0.00</rpm>
</extensions>
</trkpt>
<trkpt lat="64.217620850" lon="-21.051885605">
<ele>151.742188</ele>
<time>2012-07-19T12:54:51Z</time>
<speed>4.070000</speed>
<extensions>
<speed>4.1</speed>
<temp>0.00</temp>
<bpm>0</bpm>
<rpm>0.00</rpm>
</extensions>
</trkpt>
<trkpt lat="64.217445374" lon="-21.051713943">
<ele>152.179688</ele>
<time>2012-07-19T12:54:56Z</time>
<speed>4.400000</speed>
<extensions>
<speed>4.4</speed>
<temp>0.00</temp>
<bpm>0</bpm>
<rpm>0.00</rpm>
</extensions>
</trkpt>
<trkpt lat="64.217262268" lon="-21.051538467">
<ele>152.492188</ele>
<time>2012-07-19T12:55:01Z</time>
<speed>4.570000</speed>
<extensions>
<speed>4.6</speed>
<temp>0.00</temp>
<bpm>0</bpm>
<rpm>0.00</rpm>
</extensions>
</trkpt>
<trkpt lat="64.217071533" lon="-21.051342010">
<ele>152.906250</ele>
<time>2012-07-19T12:55:06Z</time>
<speed>4.640000</speed>
<extensions>
<speed>4.6</speed>
<temp>0.00</temp>
<bpm>0</bpm>
<rpm>0.00</rpm>
</extensions>
</trkpt>
<trkpt lat="64.216880798" lon="-21.051145554">
<ele>152.992188</ele>
<time>2012-07-19T12:55:11Z</time>
<speed>4.650000</speed>
<extensions>
<speed>4.6</speed>
<temp>0.00</temp>
<bpm>0</bpm>
<rpm>0.00</rpm>
</extensions>
</trkpt>
<trkpt lat="64.216690063" lon="-21.050943375">
<ele>152.906250</ele>
<time>2012-07-19T12:55:16Z</time>
<speed>4.550000</speed>
<extensions>
<speed>4.5</speed>
<temp>0.00</temp>
<bpm>0</bpm>
<rpm>0.00</rpm>
</extensions>
</trkpt>
<trkpt lat="64.216506958" lon="-21.050771713">
<ele>153.320313</ele>
<time>2012-07-19T12:55:21Z</time>
<speed>4.120000</speed>
<extensions>
<speed>4.1</speed>
<temp>0.00</temp>
<bpm>0</bpm>
<rpm>0.00</rpm>
</extensions>
</trkpt>
<trkpt lat="64.216346741" lon="-21.050607681">
<ele>153.816406</ele>
<time>2012-07-19T12:55:26Z</time>
<speed>3.850000</speed>
<extensions>
<speed>3.8</speed>
<temp>0.00</temp>
<bpm>0</bpm>
<rpm>0.00</rpm>
</extensions>
</trkpt>
<trkpt lat="64.216178894" lon="-21.050449371">
<ele>154.492188</ele>
<time>2012-07-19T12:55:31Z</time>
<speed>4.130000</speed>
<extensions>
<speed>4.1</speed>
<temp>0.00</temp>
<bpm>0</bpm>
<rpm>0.00</rpm>
</extensions>
</trkpt>
<trkpt lat="64.216011047" lon="-21.050296783">
<ele>154.476563</ele>
<time>2012-07-19T12:55:36Z</time>
<speed>3.490000</speed>
<extensions>
<speed>3.5</speed>
<temp>0.00</temp>
<bpm>0</bpm>
<rpm>0.00</rpm>
</extensions>
</trkpt>
<trkpt lat="64.215866089" lon="-21.050161362">
<ele>154.542969</ele>
<time>2012-07-19T12:55:41Z</time>
<speed>3.310000</speed>
<extensions>
<speed>3.3</speed>
<temp>0.00</temp>
<bpm>0</bpm>
<rpm>0.00</rpm>
</extensions>
</trkpt>
<trkpt lat="64.215736389" lon="-21.050024033">
<ele>155.093750</ele>
<time>2012-07-19T12:55:46Z</time>
<speed>3.310000</speed>
<extensions>
<speed>3.3</speed>
<temp>0.00</temp>
<bpm>0</bpm>
<rpm>0.00</rpm>
</extensions>
</trkpt>
<trkpt lat="64.215606689" lon="-21.049886703">
<ele>155.648438</ele>
<time>2012-07-19T12:55:51Z</time>
<speed>3.220000</speed>
<extensions>
<speed>3.2</speed>
<temp>0.00</temp>
<bpm>0</bpm>
<rpm>0.00</rpm>
</extensions>
</trkpt>
<trkpt lat="64.215476990" lon="-21.049757004">
<ele>156.566406</ele>
<time>2012-07-19T12:55:56Z</time>
<speed>3.170000</speed>
<extensions>
<speed>3.2</speed>
<temp>0.00</temp>
<bpm>0</bpm>
<rpm>0.00</rpm>
</extensions>
</trkpt>
<trkpt lat="64.215347290" lon="-21.049621582">
<ele>157.339844</ele>
<time>2012-07-19T12:56:01Z</time>
<speed>3.000000</speed>
<extensions>
<speed>3.0</speed>
<temp>0.00</temp>
<bpm>0</bpm>
<rpm>0.00</rpm>
</extensions>
</trkpt>
<trkpt lat="64.215225220" lon="-21.049501419">
<ele>158.089844</ele>
<time>2012-07-19T12:56:06Z</time>
<speed>2.900000</speed>
<extensions>
<speed>2.9</speed>
<temp>0.00</temp>
<bpm>0</bpm>
<rpm>0.00</rpm>
</extensions>
</trkpt>
<trkpt lat="64.215110779" lon="-21.049373627">
<ele>158.792969</ele>
<time>2012-07-19T12:56:11Z</time>
<speed>2.990000</speed>
<extensions>
<speed>3.0</speed>
<temp>0.00</temp>
<bpm>0</bpm>
<rpm>0.00</rpm>
</extensions>
</trkpt>
<trkpt lat="64.214981079" lon="-21.049247742">
<ele>159.078125</ele>
<time>2012-07-19T12:56:16Z</time>
<speed>3.210000</speed>
<extensions>
<speed>3.2</speed>
<temp>0.00</temp>
<bpm>0</bpm>
<rpm>0.00</rpm>
</extensions>
</trkpt>
<trkpt lat="64.214859009" lon="-21.049121857">
<ele>159.726563</ele>
<time>2012-07-19T12:56:21Z</time>
<speed>2.990000</speed>
<extensions>
<speed>3.0</speed>
<temp>0.00</temp>
<bpm>0</bpm>
<rpm>0.00</rpm>
</extensions>
</trkpt>
<trkpt lat="64.214729309" lon="-21.048994064">
<ele>160.070313</ele>
<time>2012-07-19T12:56:26Z</time>
<speed>3.170000</speed>
<extensions>
<speed>3.2</speed>
<temp>0.00</temp>
<bpm>0</bpm>
<rpm>0.00</rpm>
</extensions>
</trkpt>
<trkpt lat="64.214599609" lon="-21.048873901">
<ele>160.554688</ele>
<time>2012-07-19T12:56:31Z</time>
<speed>3.170000</speed>
<extensions>
<speed>3.2</speed>
<temp>0.00</temp>
<bpm>0</bpm>
<rpm>0.00</rpm>
</extensions>
</trkpt>
<trkpt lat="64.214469910" lon="-21.048732758">
<ele>161.242188</ele>
<time>2012-07-19T12:56:36Z</time>
<speed>3.190000</speed>
<extensions>
<speed>3.2</speed>
<temp>0.00</temp>
<bpm>0</bpm>
<rpm>0.00</rpm>
</extensions>
</trkpt>
<trkpt lat="64.214340210" lon="-21.048589706">
<ele>161.765625</ele>
<time>2012-07-19T12:56:41Z</time>
<speed>3.210000</speed>
<extensions>
<speed>3.2</speed>
<temp>0.00</temp>
<bpm>0</bpm>
<rpm>0.00</rpm>
</extensions>
</trkpt>
<trkpt lat="64.214210510" lon="-21.048458099">
<ele>162.011719</ele>
<time>2012-07-19T12:56:46Z</time>
<speed>3.280000</speed>
<extensions>
<speed>3.3</speed>
<temp>0.00</temp>
<bpm>0</bpm>
<rpm>0.00</rpm>
</extensions>
</trkpt>
<trkpt lat="64.214080811" lon="-21.048326492">
<ele>162.437500</ele>
<time>2012-07-19T12:56:51Z</time>
<speed>2.890000</speed>
<extensions>
<speed>2.9</speed>
<temp>0.00</temp>
<bpm>0</bpm>
<rpm>0.00</rpm>
</extensions>
</trkpt>
<trkpt lat="64.213981628" lon="-21.048215866">
<ele>162.824219</ele>
<time>2012-07-19T12:56:56Z</time>
<speed>2.200000</speed>
<extensions>
<speed>2.2</speed>
<temp>0.00</temp>
<bpm>0</bpm>
<rpm>0.00</rpm>
</extensions>
</trkpt>
<trkpt lat="64.213851929" lon="-21.048103333">
<ele>162.363281</ele>
<time>2012-07-19T12:57:01Z</time>
<speed>3.630000</speed>
<extensions>
<speed>3.6</speed>
<temp>0.00</temp>
<bpm>0</bpm>
<rpm>0.00</rpm>
</extensions>
</trkpt>
<trkpt lat="64.213699341" lon="-21.047967911">
<ele>162.429688</ele>
<time>2012-07-19T12:57:06Z</time>
<speed>3.500000</speed>
<extensions>
<speed>3.5</speed>
<temp>0.00</temp>
<bpm>0</bpm>
<rpm>0.00</rpm>
</extensions>
</trkpt>
<trkpt lat="64.213554382" lon="-21.047826767">
<ele>162.039063</ele>
<time>2012-07-19T12:57:11Z</time>
<speed>3.360000</speed>
<extensions>
<speed>3.4</speed>
<temp>0.00</temp>
<bpm>0</bpm>
<rpm>0.00</rpm>
</extensions>
</trkpt>
<trkpt lat="64.213417053" lon="-21.047697067">
<ele>162.335938</ele>
<time>2012-07-19T12:57:16Z</time>
<speed>3.630000</speed>
<extensions>
<speed>3.6</speed>
<temp>0.00</temp>
<bpm>0</bpm>
<rpm>0.00</rpm>
</extensions>
</trkpt>
<trkpt lat="64.213264465" lon="-21.047523499">
<ele>162.367188</ele>
<time>2012-07-19T12:57:21Z</time>
<speed>3.760000</speed>
<extensions>
<speed>3.8</speed>
<temp>0.00</temp>
<bpm>0</bpm>
<rpm>0.00</rpm>
</extensions>
</trkpt>
<trkpt lat="64.213104248" lon="-21.047382355">
<ele>162.246094</ele>
<time>2012-07-19T12:57:26Z</time>
<speed>4.000000</speed>
<extensions>
<speed>4.0</speed>
<temp>0.00</temp>
<bpm>0</bpm>
<rpm>0.00</rpm>
</extensions>
</trkpt>
<trkpt lat="64.212951660" lon="-21.047250748">
<ele>161.968750</ele>
<time>2012-07-19T12:57:31Z</time>
<speed>3.670000</speed>
<extensions>
<speed>3.7</speed>
<temp>0.00</temp>
<bpm>0</bpm>
<rpm>0.00</rpm>
</extensions>
</trkpt>
<trkpt lat="64.212791443" lon="-21.047094345">
<ele>161.957031</ele>
<time>2012-07-19T12:57:36Z</time>
<speed>3.980000</speed>
<extensions>
<speed>4.0</speed>
<temp>0.00</temp>
<bpm>0</bpm>
<rpm>0.00</rpm>
</extensions>
</trkpt>
<trkpt lat="64.212631226" lon="-21.046936035">
<ele>162.093750</ele>
<time>2012-07-19T12:57:41Z</time>
<speed>3.890000</speed>
<extensions>
<speed>3.9</speed>
<temp>0.00</temp>
<bpm>0</bpm>
<rpm>0.00</rpm>
</extensions>
</trkpt>
<trkpt lat="64.212471008" lon="-21.046762466">
<ele>162.179688</ele>
<time>2012-07-19T12:57:46Z</time>
<speed>4.080000</speed>
<extensions>
<speed>4.1</speed>
<temp>0.00</temp>
<bpm>0</bpm>
<rpm>0.00</rpm>
</extensions>
</trkpt>
<trkpt lat="64.212295532" lon="-21.046594620">
<ele>161.917969</ele>
<time>2012-07-19T12:57:51Z</time>
<speed>4.360000</speed>
<extensions>
<speed>4.4</speed>
<temp>0.00</temp>
<bpm>0</bpm>
<rpm>0.00</rpm>
</extensions>
</trkpt>
<trkpt lat="64.212112427" lon="-21.046400070">
<ele>162.082031</ele>
<time>2012-07-19T12:57:56Z</time>
<speed>4.390000</speed>
<extensions>
<speed>4.4</speed>
<temp>0.00</temp>
<bpm>0</bpm>
<rpm>0.00</rpm>
</extensions>
</trkpt>
<trkpt lat="64.211936951" lon="-21.046216965">
<ele>162.511719</ele>
<time>2012-07-19T12:58:01Z</time>
<speed>4.150000</speed>
<extensions>
<speed>4.1</speed>
<temp>0.00</temp>
<bpm>0</bpm>
<rpm>0.00</rpm>
</extensions>
</trkpt>
<trkpt lat="64.211753845" lon="-21.046028137">
<ele>162.472656</ele>
<time>2012-07-19T12:58:06Z</time>
<speed>4.710000</speed>
<extensions>
<speed>4.7</speed>
<temp>0.00</temp>
<bpm>0</bpm>
<rpm>0.00</rpm>
</extensions>
</trkpt>
<trkpt lat="64.211563110" lon="-21.045827866">
<ele>162.316406</ele>
<time>2012-07-19T12:58:11Z</time>
<speed>4.410000</speed>
<extensions>
<speed>4.4</speed>
<temp>0.00</temp>
<bpm>0</bpm>
<rpm>0.00</rpm>
</extensions>
</trkpt>
<trkpt lat="64.211372375" lon="-21.045658112">
<ele>161.960938</ele>
<time>2012-07-19T12:58:16Z</time>
<speed>4.410000</speed>
<extensions>
<speed>4.4</speed>
<temp>0.00</temp>
<bpm>0</bpm>
<rpm>0.00</rpm>
</extensions>
</trkpt>
<trkpt lat="64.211196899" lon="-21.045473099">
<ele>161.734375</ele>
<time>2012-07-19T12:58:21Z</time>
<speed>4.640000</speed>
<extensions>
<speed>4.6</speed>
<temp>0.00</temp>
<bpm>0</bpm>
<rpm>0.00</rpm>
</extensions>
</trkpt>
<trkpt lat="64.210998535" lon="-21.045291901">
<ele>162.261719</ele>
<time>2012-07-19T12:58:26Z</time>
<speed>4.440000</speed>
<extensions>
<speed>4.4</speed>
<temp>0.00</temp>
<bpm>0</bpm>
<rpm>0.00</rpm>
</extensions>
</trkpt>
<trkpt lat="64.210830688" lon="-21.045122147">
<ele>162.343750</ele>
<time>2012-07-19T12:58:31Z</time>
<speed>4.050000</speed>
<extensions>
<speed>4.0</speed>
<temp>0.00</temp>
<bpm>0</bpm>
<rpm>0.00</rpm>
</extensions>
</trkpt>
<trkpt lat="64.210647583" lon="-21.044933319">
<ele>162.429688</ele>
<time>2012-07-19T12:58:36Z</time>
<speed>4.490000</speed>
<extensions>
<speed>4.5</speed>
<temp>0.00</temp>
<bpm>0</bpm>
<rpm>0.00</rpm>
</extensions>
</trkpt>
<trkpt lat="64.210456848" lon="-21.044742584">
<ele>162.960938</ele>
<time>2012-07-19T12:58:41Z</time>
<speed>4.650000</speed>
<extensions>
<speed>4.6</speed>
<temp>0.00</temp>
<bpm>0</bpm>
<rpm>0.00</rpm>
</extensions>
</trkpt>
<trkpt lat="64.210266113" lon="-21.044559479">
<ele>163.484375</ele>
<time>2012-07-19T12:58:46Z</time>
<speed>4.260000</speed>
<extensions>
<speed>4.3</speed>
<temp>0.00</temp>
<bpm>0</bpm>
<rpm>0.00</rpm>
</extensions>
</trkpt>
<trkpt lat="64.210121155" lon="-21.044399261">
<ele>163.914063</ele>
<time>2012-07-19T12:58:51Z</time>
<speed>3.600000</speed>
<extensions>
<speed>3.6</speed>
<temp>0.00</temp>
<bpm>0</bpm>
<rpm>0.00</rpm>
</extensions>
</trkpt>
<trkpt lat="64.209960938" lon="-21.044242859">
<ele>164.726563</ele>
<time>2012-07-19T12:58:56Z</time>
<speed>3.960000</speed>
<extensions>
<speed>4.0</speed>
<temp>0.00</temp>
<bpm>0</bpm>
<rpm>0.00</rpm>
</extensions>
</trkpt>
<trkpt lat="64.209800720" lon="-21.044082642">
<ele>165.226563</ele>
<time>2012-07-19T12:59:01Z</time>
<speed>4.050000</speed>
<extensions>
<speed>4.0</speed>
<temp>0.00</temp>
<bpm>0</bpm>
<rpm>0.00</rpm>
</extensions>
</trkpt>
<trkpt lat="64.209632874" lon="-21.043924332">
<ele>165.628906</ele>
<time>2012-07-19T12:59:06Z</time>
<speed>3.690000</speed>
<extensions>
<speed>3.7</speed>
<temp>0.00</temp>
<bpm>0</bpm>
<rpm>0.00</rpm>
</extensions>
</trkpt>
<trkpt lat="64.209480286" lon="-21.043762207">
<ele>166.121094</ele>
<time>2012-07-19T12:59:11Z</time>
<speed>3.730000</speed>
<extensions>
<speed>3.7</speed>
<temp>0.00</temp>
<bpm>0</bpm>
<rpm>0.00</rpm>
</extensions>
</trkpt>
<trkpt lat="64.209327698" lon="-21.043607712">
<ele>166.449219</ele>
<time>2012-07-19T12:59:16Z</time>
<speed>3.600000</speed>
<extensions>
<speed>3.6</speed>
<temp>0.00</temp>
<bpm>0</bpm>
<rpm>0.00</rpm>
</extensions>
</trkpt>
<trkpt lat="64.209182739" lon="-21.043445587">
<ele>166.511719</ele>
<time>2012-07-19T12:59:21Z</time>
<speed>3.910000</speed>
<extensions>
<speed>3.9</speed>
<temp>0.00</temp>
<bpm>0</bpm>
<rpm>0.00</rpm>
</extensions>
</trkpt>
<trkpt lat="64.209022522" lon="-21.043277740">
<ele>167.117188</ele>
<time>2012-07-19T12:59:26Z</time>
<speed>3.850000</speed>
<extensions>
<speed>3.8</speed>
<temp>0.00</temp>
<bpm>0</bpm>
<rpm>0.00</rpm>
</extensions>
</trkpt>
<trkpt lat="64.208869934" lon="-21.043148041">
<ele>166.984375</ele>
<time>2012-07-19T12:59:31Z</time>
<speed>3.590000</speed>
<extensions>
<speed>3.6</speed>
<temp>0.00</temp>
<bpm>0</bpm>
<rpm>0.00</rpm>
</extensions>
</trkpt>
<trkpt lat="64.208732605" lon="-21.043010712">
<ele>167.066406</ele>
<time>2012-07-19T12:59:36Z</time>
<speed>3.250000</speed>
<extensions>
<speed>3.2</speed>
<temp>0.00</temp>
<bpm>0</bpm>
<rpm>0.00</rpm>
</extensions>
</trkpt>
<trkpt lat="64.208580017" lon="-21.042869568">
<ele>167.078125</ele>
<time>2012-07-19T12:59:41Z</time>
<speed>3.830000</speed>
<extensions>
<speed>3.8</speed>
<temp>0.00</temp>
<bpm>0</bpm>
<rpm>0.00</rpm>
</extensions>
</trkpt>
<trkpt lat="64.208419800" lon="-21.042720795">
<ele>167.039063</ele>
<time>2012-07-19T12:59:46Z</time>
<speed>3.570000</speed>
<extensions>
<speed>3.6</speed>
<temp>0.00</temp>
<bpm>0</bpm>
<rpm>0.00</rpm>
</extensions>
</trkpt>
<trkpt lat="64.208274841" lon="-21.042575836">
<ele>167.109375</ele>
<time>2012-07-19T12:59:51Z</time>
<speed>3.570000</speed>
<extensions>
<speed>3.6</speed>
<temp>0.00</temp>
<bpm>0</bpm>
<rpm>0.00</rpm>
</extensions>
</trkpt>
<trkpt lat="64.208114624" lon="-21.042411804">
<ele>167.644531</ele>
<time>2012-07-19T12:59:56Z</time>
<speed>3.610000</speed>
<extensions>
<speed>3.6</speed>
<temp>0.00</temp>
<bpm>0</bpm>
<rpm>0.00</rpm>
</extensions>
</trkpt>
<trkpt lat="64.207962036" lon="-21.042257309">
<ele>167.894531</ele>
<time>2012-07-19T13:00:01Z</time>
<speed>3.610000</speed>
<extensions>
<speed>3.6</speed>
<temp>0.00</temp>
<bpm>0</bpm>
<rpm>0.00</rpm>
</extensions>
</trkpt>
<trkpt lat="64.207817078" lon="-21.042110443">
<ele>168.109375</ele>
<time>2012-07-19T13:00:06Z</time>
<speed>3.650000</speed>
<extensions>
<speed>3.7</speed>
<temp>0.00</temp>
<bpm>0</bpm>
<rpm>0.00</rpm>
</extensions>
</trkpt>
<trkpt lat="64.207672119" lon="-21.041982651">
<ele>167.847656</ele>
<time>2012-07-19T13:00:11Z</time>
<speed>3.410000</speed>
<extensions>
<speed>3.4</speed>
<temp>0.00</temp>
<bpm>0</bpm>
<rpm>0.00</rpm>
</extensions>
</trkpt>
<trkpt lat="64.207527161" lon="-21.041830063">
<ele>167.992188</ele>
<time>2012-07-19T13:00:16Z</time>
<speed>3.610000</speed>
<extensions>
<speed>3.6</speed>
<temp>0.00</temp>
<bpm>0</bpm>
<rpm>0.00</rpm>
</extensions>
</trkpt>
<trkpt lat="64.207389832" lon="-21.041669846">
<ele>168.867188</ele>
<time>2012-07-19T13:00:21Z</time>
<speed>3.390000</speed>
<extensions>
<speed>3.4</speed>
<temp>0.00</temp>
<bpm>0</bpm>
<rpm>0.00</rpm>
</extensions>
</trkpt>
<trkpt lat="64.207252502" lon="-21.041555405">
<ele>168.921875</ele>
<time>2012-07-19T13:00:26Z</time>
<speed>3.150000</speed>
<extensions>
<speed>3.2</speed>
<temp>0.00</temp>
<bpm>0</bpm>
<rpm>0.00</rpm>
</extensions>
</trkpt>
<trkpt lat="64.207138062" lon="-21.041433334">
<ele>168.738281</ele>
<time>2012-07-19T13:00:31Z</time>
<speed>3.080000</speed>
<extensions>
<speed>3.1</speed>
<temp>0.00</temp>
<bpm>0</bpm>
<rpm>0.00</rpm>
</extensions>
</trkpt>
<trkpt lat="64.207015991" lon="-21.041313171">
<ele>169.574219</ele>
<time>2012-07-19T13:00:36Z</time>
<speed>2.400000</speed>
<extensions>
<speed>2.4</speed>
<temp>0.00</temp>
<bpm>0</bpm>
<rpm>0.00</rpm>
</extensions>
</trkpt>
<trkpt lat="64.206893921" lon="-21.041158676">
<ele>170.238281</ele>
<time>2012-07-19T13:00:41Z</time>
<speed>3.950000</speed>
<extensions>
<speed>4.0</speed>
<temp>0.00</temp>
<bpm>0</bpm>
<rpm>0.00</rpm>
</extensions>
</trkpt>
<trkpt lat="64.206733704" lon="-21.041006088">
<ele>170.753906</ele>
<time>2012-07-19T13:00:46Z</time>
<speed>3.350000</speed>
<extensions>
<speed>3.4</speed>
<temp>0.00</temp>
<bpm>0</bpm>
<rpm>0.00</rpm>
</extensions>
</trkpt>
<trkpt lat="64.206611633" lon="-21.040887833">
<ele>171.160156</ele>
<time>2012-07-19T13:00:51Z</time>
<speed>2.820000</speed>
<extensions>
<speed>2.8</speed>
<temp>0.00</temp>
<bpm>0</bpm>
<rpm>0.00</rpm>
</extensions>
</trkpt>
<trkpt lat="64.206489563" lon="-21.040763855">
<ele>171.480469</ele>
<time>2012-07-19T13:00:56Z</time>
<speed>3.030000</speed>
<extensions>
<speed>3.0</speed>
<temp>0.00</temp>
<bpm>0</bpm>
<rpm>0.00</rpm>
</extensions>
</trkpt>
<trkpt lat="64.206367493" lon="-21.040645599">
<ele>171.710938</ele>
<time>2012-07-19T13:01:01Z</time>
<speed>2.630000</speed>
<extensions>
<speed>2.6</speed>
<temp>0.00</temp>
<bpm>0</bpm>
<rpm>0.00</rpm>
</extensions>
</trkpt>
<trkpt lat="64.206237793" lon="-21.040531158">
<ele>170.828125</ele>
<time>2012-07-19T13:01:06Z</time>
<speed>3.530000</speed>
<extensions>
<speed>3.5</speed>
<temp>0.00</temp>
<bpm>0</bpm>
<rpm>0.00</rpm>
</extensions>
</trkpt>
<trkpt lat="64.206100464" lon="-21.040367126">
<ele>171.191406</ele>
<time>2012-07-19T13:01:11Z</time>
<speed>3.210000</speed>
<extensions>
<speed>3.2</speed>
<temp>0.00</temp>
<bpm>0</bpm>
<rpm>0.00</rpm>
</extensions>
</trkpt>
<trkpt lat="64.205955505" lon="-21.040246964">
<ele>171.300781</ele>
<time>2012-07-19T13:01:16Z</time>
<speed>3.390000</speed>
<extensions>
<speed>3.4</speed>
<temp>0.00</temp>
<bpm>0</bpm>
<rpm>0.00</rpm>
</extensions>
</trkpt>
<trkpt lat="64.205810547" lon="-21.040107727">
<ele>171.492188</ele>
<time>2012-07-19T13:01:21Z</time>
<speed>3.500000</speed>
<extensions>
<speed>3.5</speed>
<temp>0.00</temp>
<bpm>0</bpm>
<rpm>0.00</rpm>
</extensions>
</trkpt>
<trkpt lat="64.205650330" lon="-21.039985657">
<ele>170.789063</ele>
<time>2012-07-19T13:01:26Z</time>
<speed>3.750000</speed>
<extensions>
<speed>3.8</speed>
<temp>0.00</temp>
<bpm>0</bpm>
<rpm>0.00</rpm>
</extensions>
</trkpt>
<trkpt lat="64.205505371" lon="-21.039831161">
<ele>170.792969</ele>
<time>2012-07-19T13:01:31Z</time>
<speed>3.510000</speed>
<extensions>
<speed>3.5</speed>
<temp>0.00</temp>
<bpm>0</bpm>
<rpm>0.00</rpm>
</extensions>
</trkpt>
<trkpt lat="64.205360413" lon="-21.039640427">
<ele>170.914063</ele>
<time>2012-07-19T13:01:36Z</time>
<speed>3.870000</speed>
<extensions>
<speed>3.9</speed>
<temp>0.00</temp>
<bpm>0</bpm>
<rpm>0.00</rpm>
</extensions>
</trkpt>
<trkpt lat="64.205200195" lon="-21.039457321">
<ele>170.625000</ele>
<time>2012-07-19T13:01:41Z</time>
<speed>3.570000</speed>
<extensions>
<speed>3.6</speed>
<temp>0.00</temp>
<bpm>0</bpm>
<rpm>0.00</rpm>
</extensions>
</trkpt>
<trkpt lat="64.205078125" lon="-21.039295197">
<ele>170.957031</ele>
<time>2012-07-19T13:01:46Z</time>
<speed>2.890000</speed>
<extensions>
<speed>2.9</speed>
<temp>0.00</temp>
<bpm>0</bpm>
<rpm>0.00</rpm>
</extensions>
</trkpt>
<trkpt lat="64.204948425" lon="-21.039180756">
<ele>170.867188</ele>
<time>2012-07-19T13:01:51Z</time>
<speed>3.230000</speed>
<extensions>
<speed>3.2</speed>
<temp>0.00</temp>
<bpm>0</bpm>
<rpm>0.00</rpm>
</extensions>
</trkpt>
<trkpt lat="64.204803467" lon="-21.038986206">
<ele>170.867188</ele>
<time>2012-07-19T13:01:56Z</time>
<speed>4.180000</speed>
<extensions>
<speed>4.2</speed>
<temp>0.00</temp>
<bpm>0</bpm>
<rpm>0.00</rpm>
</extensions>
</trkpt>
<trkpt lat="64.204635620" lon="-21.038764954">
<ele>170.925781</ele>
<time>2012-07-19T13:02:01Z</time>
<speed>4.500000</speed>
<extensions>
<speed>4.5</speed>
<temp>0.00</temp>
<bpm>0</bpm>
<rpm>0.00</rpm>
</extensions>
</trkpt>
<trkpt lat="64.204452515" lon="-21.038547516">
<ele>170.539063</ele>
<time>2012-07-19T13:02:06Z</time>
<speed>4.800000</speed>
<extensions>
<speed>4.8</speed>
<temp>0.00</temp>
<bpm>0</bpm>
<rpm>0.00</rpm>
</extensions>
</trkpt>
<trkpt lat="64.204254150" lon="-21.038295746">
<ele>170.183594</ele>
<time>2012-07-19T13:02:11Z</time>
<speed>5.410000</speed>
<extensions>
<speed>5.4</speed>
<temp>0.00</temp>
<bpm>0</bpm>
<rpm>0.00</rpm>
</extensions>
</trkpt>
<trkpt lat="64.204048157" lon="-21.038003922">
<ele>170.085938</ele>
<time>2012-07-19T13:02:16Z</time>
<speed>5.820000</speed>
<extensions>
<speed>5.8</speed>
<temp>0.00</temp>
<bpm>0</bpm>
<rpm>0.00</rpm>
</extensions>
</trkpt>
<trkpt lat="64.203819275" lon="-21.037691116">
<ele>169.640625</ele>
<time>2012-07-19T13:02:21Z</time>
<speed>5.960000</speed>
<extensions>
<speed>6.0</speed>
<temp>0.00</temp>
<bpm>0</bpm>
<rpm>0.00</rpm>
</extensions>
</trkpt>
<trkpt lat="64.203582764" lon="-21.037397385">
<ele>169.671875</ele>
<time>2012-07-19T13:02:26Z</time>
<speed>6.020000</speed>
<extensions>
<speed>6.0</speed>
<temp>0.00</temp>
<bpm>0</bpm>
<rpm>0.00</rpm>
</extensions>
</trkpt>
<trkpt lat="64.203353882" lon="-21.037088394">
<ele>169.937500</ele>
<time>2012-07-19T13:02:31Z</time>
<speed>5.830000</speed>
<extensions>
<speed>5.8</speed>
<temp>0.00</temp>
<bpm>0</bpm>
<rpm>0.00</rpm>
</extensions>
</trkpt>
<trkpt lat="64.203132629" lon="-21.036802292">
<ele>170.171875</ele>
<time>2012-07-19T13:02:36Z</time>
<speed>5.560000</speed>
<extensions>
<speed>5.6</speed>
<temp>0.00</temp>
<bpm>0</bpm>
<rpm>0.00</rpm>
</extensions>
</trkpt>
<trkpt lat="64.202926636" lon="-21.036544800">
<ele>169.753906</ele>
<time>2012-07-19T13:02:41Z</time>
<speed>4.680000</speed>
<extensions>
<speed>4.7</speed>
<temp>0.00</temp>
<bpm>0</bpm>
<rpm>0.00</rpm>
</extensions>
</trkpt>
<trkpt lat="64.202743530" lon="-21.036291122">
<ele>169.996094</ele>
<time>2012-07-19T13:02:46Z</time>
<speed>4.820000</speed>
<extensions>
<speed>4.8</speed>
<temp>0.00</temp>
<bpm>0</bpm>
<rpm>0.00</rpm>
</extensions>
</trkpt>
<trkpt lat="64.202552795" lon="-21.036046982">
<ele>169.886719</ele>
<time>2012-07-19T13:02:51Z</time>
<speed>4.920000</speed>
<extensions>
<speed>4.9</speed>
<temp>0.00</temp>
<bpm>0</bpm>
<rpm>0.00</rpm>
</extensions>
</trkpt>
<trkpt lat="64.202369690" lon="-21.035797119">
<ele>170.027344</ele>
<time>2012-07-19T13:02:56Z</time>
<speed>4.760000</speed>
<extensions>
<speed>4.8</speed>
<temp>0.00</temp>
<bpm>0</bpm>
<rpm>0.00</rpm>
</extensions>
</trkpt>
<trkpt lat="64.202186584" lon="-21.035552979">
<ele>169.425781</ele>
<time>2012-07-19T13:03:01Z</time>
<speed>5.010000</speed>
<extensions>
<speed>5.0</speed>
<temp>0.00</temp>
<bpm>0</bpm>
<rpm>0.00</rpm>
</extensions>
</trkpt>
<trkpt lat="64.201980591" lon="-21.035282135">
<ele>169.269531</ele>
<time>2012-07-19T13:03:06Z</time>
<speed>5.340000</speed>
<extensions>
<speed>5.3</speed>
<temp>0.00</temp>
<bpm>0</bpm>
<rpm>0.00</rpm>
</extensions>
</trkpt>
<trkpt lat="64.201774597" lon="-21.034996033">
<ele>168.906250</ele>
<time>2012-07-19T13:03:11Z</time>
<speed>5.570000</speed>
<extensions>
<speed>5.6</speed>
<temp>0.00</temp>
<bpm>0</bpm>
<rpm>0.00</rpm>
</extensions>
</trkpt>
<trkpt lat="64.201545715" lon="-21.034700394">
<ele>168.261719</ele>
<time>2012-07-19T13:03:16Z</time>
<speed>5.820000</speed>
<extensions>
<speed>5.8</speed>
<temp>0.00</temp>
<bpm>0</bpm>
<rpm>0.00</rpm>
</extensions>
</trkpt>
<trkpt lat="64.201316833" lon="-21.034406662">
<ele>167.703125</ele>
<time>2012-07-19T13:03:21Z</time>
<speed>5.990000</speed>
<extensions>
<speed>6.0</speed>
<temp>0.00</temp>
<bpm>0</bpm>
<rpm>0.00</rpm>
</extensions>
</trkpt>
<trkpt lat="64.201087952" lon="-21.034107208">
<ele>167.117188</ele>
<time>2012-07-19T13:03:26Z</time>
<speed>5.660000</speed>
<extensions>
<speed>5.7</speed>
<temp>0.00</temp>
<bpm>0</bpm>
<rpm>0.00</rpm>
</extensions>
</trkpt>
<trkpt lat="64.200859070" lon="-21.033819199">
<ele>166.371094</ele>
<time>2012-07-19T13:03:31Z</time>
<speed>5.820000</speed>
<extensions>
<speed>5.8</speed>
<temp>0.00</temp>
<bpm>0</bpm>
<rpm>0.00</rpm>
</extensions>
</trkpt>
<trkpt lat="64.200637817" lon="-21.033527374">
<ele>166.402344</ele>
<time>2012-07-19T13:03:36Z</time>
<speed>5.660000</speed>
<extensions>
<speed>5.7</speed>
<temp>0.00</temp>
<bpm>0</bpm>
<rpm>0.00</rpm>
</extensions>
</trkpt>
<trkpt lat="64.200439453" lon="-21.033256531">
<ele>166.457031</ele>
<time>2012-07-19T13:03:41Z</time>
<speed>4.660000</speed>
<extensions>
<speed>4.7</speed>
<temp>0.00</temp>
<bpm>0</bpm>
<rpm>0.00</rpm>
</extensions>
</trkpt>
<trkpt lat="64.200271606" lon="-21.033020020">
<ele>166.609375</ele>
<time>2012-07-19T13:03:46Z</time>
<speed>4.340000</speed>
<extensions>
<speed>4.3</speed>
<temp>0.00</temp>
<bpm>0</bpm>
<rpm>0.00</rpm>
</extensions>
</trkpt>
<trkpt lat="64.200096130" lon="-21.032796860">
<ele>166.683594</ele>
<time>2012-07-19T13:03:51Z</time>
<speed>4.570000</speed>
<extensions>
<speed>4.6</speed>
<temp>0.00</temp>
<bpm>0</bpm>
<rpm>0.00</rpm>
</extensions>
</trkpt>
<trkpt lat="64.199943542" lon="-21.032587051">
<ele>166.699219</ele>
<time>2012-07-19T13:03:56Z</time>
<speed>3.800000</speed>
<extensions>
<speed>3.8</speed>
<temp>0.00</temp>
<bpm>0</bpm>
<rpm>0.00</rpm>
</extensions>
</trkpt>
<trkpt lat="64.199768066" lon="-21.032360077">
<ele>166.589844</ele>
<time>2012-07-19T13:04:01Z</time>
<speed>4.610000</speed>
<extensions>
<speed>4.6</speed>
<temp>0.00</temp>
<bpm>0</bpm>
<rpm>0.00</rpm>
</extensions>
</trkpt>
<trkpt lat="64.199577332" lon="-21.032098770">
<ele>166.632813</ele>
<time>2012-07-19T13:04:06Z</time>
<speed>4.990000</speed>
<extensions>
<speed>5.0</speed>
<temp>0.00</temp>
<bpm>0</bpm>
<rpm>0.00</rpm>
</extensions>
</trkpt>
<trkpt lat="64.199371338" lon="-21.031833649">
<ele>166.664063</ele>
<time>2012-07-19T13:04:11Z</time>
<speed>5.070000</speed>
<extensions>
<speed>5.1</speed>
<temp>0.00</temp>
<bpm>0</bpm>
<rpm>0.00</rpm>
</extensions>
</trkpt>
<trkpt lat="64.199195862" lon="-21.031589508">
<ele>167.035156</ele>
<time>2012-07-19T13:04:16Z</time>
<speed>3.930000</speed>
<extensions>
<speed>3.9</speed>
<temp>0.00</temp>
<bpm>0</bpm>
<rpm>0.00</rpm>
</extensions>
</trkpt>
<trkpt lat="64.199050903" lon="-21.031391144">
<ele>167.125000</ele>
<time>2012-07-19T13:04:21Z</time>
<speed>3.540000</speed>
<extensions>
<speed>3.5</speed>
<temp>0.00</temp>
<bpm>0</bpm>
<rpm>0.00</rpm>
</extensions>
</trkpt>
<trkpt lat="64.198913574" lon="-21.031188965">
<ele>166.953125</ele>
<time>2012-07-19T13:04:26Z</time>
<speed>4.000000</speed>
<extensions>
<speed>4.0</speed>
<temp>0.00</temp>
<bpm>0</bpm>
<rpm>0.00</rpm>
</extensions>
</trkpt>
<trkpt lat="64.198760986" lon="-21.030956268">
<ele>167.382813</ele>
<time>2012-07-19T13:04:31Z</time>
<speed>4.110000</speed>
<extensions>
<speed>4.1</speed>
<temp>0.00</temp>
<bpm>0</bpm>
<rpm>0.00</rpm>
</extensions>
</trkpt>
<trkpt lat="64.198608398" lon="-21.030738831">
<ele>167.679688</ele>
<time>2012-07-19T13:04:36Z</time>
<speed>3.690000</speed>
<extensions>
<speed>3.7</speed>
<temp>0.00</temp>
<bpm>0</bpm>
<rpm>0.00</rpm>
</extensions>
</trkpt>
<trkpt lat="64.198486328" lon="-21.030532837">
<ele>167.566406</ele>
<time>2012-07-19T13:04:41Z</time>
<speed>3.560000</speed>
<extensions>
<speed>3.6</speed>
<temp>0.00</temp>
<bpm>0</bpm>
<rpm>0.00</rpm>
</extensions>
</trkpt>
<trkpt lat="64.198348999" lon="-21.030317307">
<ele>167.855469</ele>
<time>2012-07-19T13:04:46Z</time>
<speed>3.780000</speed>
<extensions>
<speed>3.8</speed>
<temp>0.00</temp>
<bpm>0</bpm>
<rpm>0.00</rpm>
</extensions>
</trkpt>
<trkpt lat="64.198226929" lon="-21.030090332">
<ele>168.375000</ele>
<time>2012-07-19T13:04:51Z</time>
<speed>3.700000</speed>
<extensions>
<speed>3.7</speed>
<temp>0.00</temp>
<bpm>0</bpm>
<rpm>0.00</rpm>
</extensions>
</trkpt>
<trkpt lat="64.198112488" lon="-21.029886246">
<ele>168.023438</ele>
<time>2012-07-19T13:04:56Z</time>
<speed>3.360000</speed>
<extensions>
<speed>3.4</speed>
<temp>0.00</temp>
<bpm>0</bpm>
<rpm>0.00</rpm>
</extensions>
</trkpt>
<trkpt lat="64.197990417" lon="-21.029634476">
<ele>167.976563</ele>
<time>2012-07-19T13:05:01Z</time>
<speed>3.730000</speed>
<extensions>
<speed>3.7</speed>
<temp>0.00</temp>
<bpm>0</bpm>
<rpm>0.00</rpm>
</extensions>
</trkpt>
<trkpt lat="64.197860718" lon="-21.029382706">
<ele>168.261719</ele>
<time>2012-07-19T13:05:06Z</time>
<speed>3.930000</speed>
<extensions>
<speed>3.9</speed>
<temp>0.00</temp>
<bpm>0</bpm>
<rpm>0.00</rpm>
</extensions>
</trkpt>
<trkpt lat="64.197731018" lon="-21.029096603">
<ele>168.699219</ele>
<time>2012-07-19T13:05:11Z</time>
<speed>4.150000</speed>
<extensions>
<speed>4.1</speed>
<temp>0.00</temp>
<bpm>0</bpm>
<rpm>0.00</rpm>
</extensions>
</trkpt>
<trkpt lat="64.197601318" lon="-21.028835297">
<ele>168.968750</ele>
<time>2012-07-19T13:05:16Z</time>
<speed>3.670000</speed>
<extensions>
<speed>3.7</speed>
<temp>0.00</temp>
<bpm>0</bpm>
<rpm>0.00</rpm>
</extensions>
</trkpt>
<trkpt lat="64.197479248" lon="-21.028579712">
<ele>168.949219</ele>
<time>2012-07-19T13:05:21Z</time>
<speed>3.700000</speed>
<extensions>
<speed>3.7</speed>
<temp>0.00</temp>
<bpm>0</bpm>
<rpm>0.00</rpm>
</extensions>
</trkpt>
<trkpt lat="64.197364807" lon="-21.028308868">
<ele>168.839844</ele>
<time>2012-07-19T13:05:26Z</time>
<speed>3.750000</speed>
<extensions>
<speed>3.8</speed>
<temp>0.00</temp>
<bpm>0</bpm>
<rpm>0.00</rpm>
</extensions>
</trkpt>
<trkpt lat="64.197242737" lon="-21.028026581">
<ele>168.593750</ele>
<time>2012-07-19T13:05:31Z</time>
<speed>4.280000</speed>
<extensions>
<speed>4.3</speed>
<temp>0.00</temp>
<bpm>0</bpm>
<rpm>0.00</rpm>
</extensions>
</trkpt>
<trkpt lat="64.197097778" lon="-21.027700424">
<ele>168.296875</ele>
<time>2012-07-19T13:05:36Z</time>
<speed>4.500000</speed>
<extensions>
<speed>4.5</speed>
<temp>0.00</temp>
<bpm>0</bpm>
<rpm>0.00</rpm>
</extensions>
</trkpt>
<trkpt lat="64.196968079" lon="-21.027397156">
<ele>167.976563</ele>
<time>2012-07-19T13:05:41Z</time>
<speed>4.280000</speed>
<extensions>
<speed>4.3</speed>
<temp>0.00</temp>
<bpm>0</bpm>
<rpm>0.00</rpm>
</extensions>
</trkpt>
<trkpt lat="64.196846008" lon="-21.027011871">
<ele>167.289063</ele>
<time>2012-07-19T13:05:46Z</time>
<speed>4.770000</speed>
<extensions>
<speed>4.8</speed>
<temp>0.00</temp>
<bpm>0</bpm>
<rpm>0.00</rpm>
</extensions>
</trkpt>
<trkpt lat="64.196716309" lon="-21.026657104">
<ele>166.945313</ele>
<time>2012-07-19T13:05:51Z</time>
<speed>4.050000</speed>
<extensions>
<speed>4.0</speed>
<temp>0.00</temp>
<bpm>0</bpm>
<rpm>0.00</rpm>
</extensions>
</trkpt>
<trkpt lat="64.196617126" lon="-21.026346207">
<ele>166.593750</ele>
<time>2012-07-19T13:05:56Z</time>
<speed>3.700000</speed>
<extensions>
<speed>3.7</speed>
<temp>0.00</temp>
<bpm>0</bpm>
<rpm>0.00</rpm>
</extensions>
</trkpt>
<trkpt lat="64.196502686" lon="-21.025995255">
<ele>166.085938</ele>
<time>2012-07-19T13:06:01Z</time>
<speed>4.570000</speed>
<extensions>
<speed>4.6</speed>
<temp>0.00</temp>
<bpm>0</bpm>
<rpm>0.00</rpm>
</extensions>
</trkpt>
<trkpt lat="64.196380615" lon="-21.025609970">
<ele>165.660156</ele>
<time>2012-07-19T13:06:06Z</time>
<speed>4.830000</speed>
<extensions>
<speed>4.8</speed>
<temp>0.00</temp>
<bpm>0</bpm>
<rpm>0.00</rpm>
</extensions>
</trkpt>
<trkpt lat="64.196250916" lon="-21.025180817">
<ele>165.144531</ele>
<time>2012-07-19T13:06:11Z</time>
<speed>5.060000</speed>
<extensions>
<speed>5.1</speed>
<temp>0.00</temp>
<bpm>0</bpm>
<rpm>0.00</rpm>
</extensions>
</trkpt>
<trkpt lat="64.196128845" lon="-21.024726868">
<ele>164.429688</ele>
<time>2012-07-19T13:06:16Z</time>
<speed>5.250000</speed>
<extensions>
<speed>5.2</speed>
<temp>0.00</temp>
<bpm>0</bpm>
<rpm>0.00</rpm>
</extensions>
</trkpt>
<trkpt lat="64.196006775" lon="-21.024253845">
<ele>164.144531</ele>
<time>2012-07-19T13:06:21Z</time>
<speed>5.360000</speed>
<extensions>
<speed>5.4</speed>
<temp>0.00</temp>
<bpm>0</bpm>
<rpm>0.00</rpm>
</extensions>
</trkpt>
<trkpt lat="64.195884705" lon="-21.023767471">
<ele>162.890625</ele>
<time>2012-07-19T13:06:26Z</time>
<speed>5.360000</speed>
<extensions>
<speed>5.4</speed>
<temp>0.00</temp>
<bpm>0</bpm>
<rpm>0.00</rpm>
</extensions>
</trkpt>
<trkpt lat="64.195770264" lon="-21.023284912">
<ele>162.507813</ele>
<time>2012-07-19T13:06:31Z</time>
<speed>5.420000</speed>
<extensions>
<speed>5.4</speed>
<temp>0.00</temp>
<bpm>0</bpm>
<rpm>0.00</rpm>
</extensions>
</trkpt>
<trkpt lat="64.195671082" lon="-21.022764206">
<ele>160.363281</ele>
<time>2012-07-19T13:06:36Z</time>
<speed>5.530000</speed>
<extensions>
<speed>5.5</speed>
<temp>0.00</temp>
<bpm>0</bpm>
<rpm>0.00</rpm>
</extensions>
</trkpt>
<trkpt lat="64.195564270" lon="-21.022228241">
<ele>160.085938</ele>
<time>2012-07-19T13:06:41Z</time>
<speed>5.710000</speed>
<extensions>
<speed>5.7</speed>
<temp>0.00</temp>
<bpm>0</bpm>
<rpm>0.00</rpm>
</extensions>
</trkpt>
<trkpt lat="64.195465088" lon="-21.021707535">
<ele>160.171875</ele>
<time>2012-07-19T13:06:46Z</time>
<speed>5.330000</speed>
<extensions>
<speed>5.3</speed>
<temp>0.00</temp>
<bpm>0</bpm>
<rpm>0.00</rpm>
</extensions>
</trkpt>
<trkpt lat="64.195373535" lon="-21.021188736">
<ele>159.136719</ele>
<time>2012-07-19T13:06:51Z</time>
<speed>5.500000</speed>
<extensions>
<speed>5.5</speed>
<temp>0.00</temp>
<bpm>0</bpm>
<rpm>0.00</rpm>
</extensions>
</trkpt>
<trkpt lat="64.195289612" lon="-21.020650864">
<ele>158.449219</ele>
<time>2012-07-19T13:06:56Z</time>
<speed>5.560000</speed>
<extensions>
<speed>5.6</speed>
<temp>0.00</temp>
<bpm>0</bpm>
<rpm>0.00</rpm>
</extensions>
</trkpt>
<trkpt lat="64.195205688" lon="-21.020107269">
<ele>159.253906</ele>
<time>2012-07-19T13:07:01Z</time>
<speed>5.640000</speed>
<extensions>
<speed>5.6</speed>
<temp>0.00</temp>
<bpm>0</bpm>
<rpm>0.00</rpm>
</extensions>
</trkpt>
<trkpt lat="64.195129395" lon="-21.019556046">
<ele>159.066406</ele>
<time>2012-07-19T13:07:06Z</time>
<speed>5.710000</speed>
<extensions>
<speed>5.7</speed>
<temp>0.00</temp>
<bpm>0</bpm>
<rpm>0.00</rpm>
</extensions>
</trkpt>
<trkpt lat="64.195060730" lon="-21.019027710">
<ele>156.730469</ele>
<time>2012-07-19T13:07:11Z</time>
<speed>4.980000</speed>
<extensions>
<speed>5.0</speed>
<temp>0.00</temp>
<bpm>0</bpm>
<rpm>0.00</rpm>
</extensions>
</trkpt>
<trkpt lat="64.195007324" lon="-21.018535614">
<ele>155.074219</ele>
<time>2012-07-19T13:07:16Z</time>
<speed>5.180000</speed>
<extensions>
<speed>5.2</speed>
<temp>0.00</temp>
<bpm>0</bpm>
<rpm>0.00</rpm>
</extensions>
</trkpt>
<trkpt lat="64.194953918" lon="-21.018009186">
<ele>153.316406</ele>
<time>2012-07-19T13:07:21Z</time>
<speed>5.420000</speed>
<extensions>
<speed>5.4</speed>
<temp>0.00</temp>
<bpm>0</bpm>
<rpm>0.00</rpm>
</extensions>
</trkpt>
<trkpt lat="64.194915771" lon="-21.017475128">
<ele>152.449219</ele>
<time>2012-07-19T13:07:26Z</time>
<speed>5.490000</speed>
<extensions>
<speed>5.5</speed>
<temp>0.00</temp>
<bpm>0</bpm>
<rpm>0.00</rpm>
</extensions>
</trkpt>
<trkpt lat="64.194877625" lon="-21.016929626">
<ele>150.550781</ele>
<time>2012-07-19T13:07:31Z</time>
<speed>5.600000</speed>
<extensions>
<speed>5.6</speed>
<temp>0.00</temp>
<bpm>0</bpm>
<rpm>0.00</rpm>
</extensions>
</trkpt>
<trkpt lat="64.194839478" lon="-21.016397476">
<ele>149.246094</ele>
<time>2012-07-19T13:07:36Z</time>
<speed>4.690000</speed>
<extensions>
<speed>4.7</speed>
<temp>0.00</temp>
<bpm>0</bpm>
<rpm>0.00</rpm>
</extensions>
</trkpt>
<trkpt lat="64.194816589" lon="-21.015939713">
<ele>148.917969</ele>
<time>2012-07-19T13:07:41Z</time>
<speed>4.730000</speed>
<extensions>
<speed>4.7</speed>
<temp>0.00</temp>
<bpm>0</bpm>
<rpm>0.00</rpm>
</extensions>
</trkpt>
<trkpt lat="64.194808960" lon="-21.015443802">
<ele>150.160156</ele>
<time>2012-07-19T13:07:46Z</time>
<speed>4.610000</speed>
<extensions>
<speed>4.6</speed>
<temp>0.00</temp>
<bpm>0</bpm>
<rpm>0.00</rpm>
</extensions>
</trkpt>
<trkpt lat="64.194801331" lon="-21.014978409">
<ele>152.742188</ele>
<time>2012-07-19T13:07:51Z</time>
<speed>4.570000</speed>
<extensions>
<speed>4.6</speed>
<temp>0.00</temp>
<bpm>0</bpm>
<rpm>0.00</rpm>
</extensions>
</trkpt>
<trkpt lat="64.194786072" lon="-21.014516830">
<ele>152.984375</ele>
<time>2012-07-19T13:07:56Z</time>
<speed>4.660000</speed>
<extensions>
<speed>4.7</speed>
<temp>0.00</temp>
<bpm>0</bpm>
<rpm>0.00</rpm>
</extensions>
</trkpt>
<trkpt lat="64.194793701" lon="-21.014043808">
<ele>151.925781</ele>
<time>2012-07-19T13:08:01Z</time>
<speed>4.570000</speed>
<extensions>
<speed>4.6</speed>
<temp>0.00</temp>
<bpm>0</bpm>
<rpm>0.00</rpm>
</extensions>
</trkpt>
<trkpt lat="64.194793701" lon="-21.013570786">
<ele>152.992188</ele>
<time>2012-07-19T13:08:06Z</time>
<speed>4.530000</speed>
<extensions>
<speed>4.5</speed>
<temp>0.00</temp>
<bpm>0</bpm>
<rpm>0.00</rpm>
</extensions>
</trkpt>
<trkpt lat="64.194793701" lon="-21.013101578">
<ele>153.878906</ele>
<time>2012-07-19T13:08:11Z</time>
<speed>4.470000</speed>
<extensions>
<speed>4.5</speed>
<temp>0.00</temp>
<bpm>0</bpm>
<rpm>0.00</rpm>
</extensions>
</trkpt>
<trkpt lat="64.194801331" lon="-21.012613297">
<ele>153.820313</ele>
<time>2012-07-19T13:08:16Z</time>
<speed>4.690000</speed>
<extensions>
<speed>4.7</speed>
<temp>0.00</temp>
<bpm>0</bpm>
<rpm>0.00</rpm>
</extensions>
</trkpt>
<trkpt lat="64.194824219" lon="-21.012123108">
<ele>155.480469</ele>
<time>2012-07-19T13:08:21Z</time>
<speed>4.780000</speed>
<extensions>
<speed>4.8</speed>
<temp>0.00</temp>
<bpm>0</bpm>
<rpm>0.00</rpm>
</extensions>
</trkpt>
<trkpt lat="64.194847107" lon="-21.011638641">
<ele>154.968750</ele>
<time>2012-07-19T13:08:26Z</time>
<speed>4.790000</speed>
<extensions>
<speed>4.8</speed>
<temp>0.00</temp>
<bpm>0</bpm>
<rpm>0.00</rpm>
</extensions>
</trkpt>
<trkpt lat="64.194869995" lon="-21.011188507">
<ele>155.683594</ele>
<time>2012-07-19T13:08:31Z</time>
<speed>4.350000</speed>
<extensions>
<speed>4.3</speed>
<temp>0.00</temp>
<bpm>0</bpm>
<rpm>0.00</rpm>
</extensions>
</trkpt>
<trkpt lat="64.194892883" lon="-21.010730743">
<ele>156.171875</ele>
<time>2012-07-19T13:08:36Z</time>
<speed>4.590000</speed>
<extensions>
<speed>4.6</speed>
<temp>0.00</temp>
<bpm>0</bpm>
<rpm>0.00</rpm>
</extensions>
</trkpt>
<trkpt lat="64.194923401" lon="-21.010257721">
<ele>157.226563</ele>
<time>2012-07-19T13:08:41Z</time>
<speed>4.520000</speed>
<extensions>
<speed>4.5</speed>
<temp>0.00</temp>
<bpm>0</bpm>
<rpm>0.00</rpm>
</extensions>
</trkpt>
<trkpt lat="64.194946289" lon="-21.009853363">
<ele>158.136719</ele>
<time>2012-07-19T13:08:46Z</time>
<speed>3.380000</speed>
<extensions>
<speed>3.4</speed>
<temp>0.00</temp>
<bpm>0</bpm>
<rpm>0.00</rpm>
</extensions>
</trkpt>
<trkpt lat="64.194961548" lon="-21.009517670">
<ele>158.542969</ele>
<time>2012-07-19T13:08:51Z</time>
<speed>3.020000</speed>
<extensions>
<speed>3.0</speed>
<temp>0.00</temp>
<bpm>0</bpm>
<rpm>0.00</rpm>
</extensions>
</trkpt>
<trkpt lat="64.194992065" lon="-21.009159088">
<ele>159.316406</ele>
<time>2012-07-19T13:08:56Z</time>
<speed>3.900000</speed>
<extensions>
<speed>3.9</speed>
<temp>0.00</temp>
<bpm>0</bpm>
<rpm>0.00</rpm>
</extensions>
</trkpt>
<trkpt lat="64.195007324" lon="-21.008802414">
<ele>160.214844</ele>
<time>2012-07-19T13:09:01Z</time>
<speed>3.010000</speed>
<extensions>
<speed>3.0</speed>
<temp>0.00</temp>
<bpm>0</bpm>
<rpm>0.00</rpm>
</extensions>
</trkpt>
<trkpt lat="64.195030212" lon="-21.008499146">
<ele>160.476563</ele>
<time>2012-07-19T13:09:06Z</time>
<speed>2.810000</speed>
<extensions>
<speed>2.8</speed>
<temp>0.00</temp>
<bpm>0</bpm>
<rpm>0.00</rpm>
</extensions>
</trkpt>
<trkpt lat="64.195045471" lon="-21.008220673">
<ele>160.871094</ele>
<time>2012-07-19T13:09:11Z</time>
<speed>2.740000</speed>
<extensions>
<speed>2.7</speed>
<temp>0.00</temp>
<bpm>0</bpm>
<rpm>0.00</rpm>
</extensions>
</trkpt>
<trkpt lat="64.195060730" lon="-21.007946014">
<ele>161.617188</ele>
<time>2012-07-19T13:09:16Z</time>
<speed>2.420000</speed>
<extensions>
<speed>2.4</speed>
<temp>0.00</temp>
<bpm>0</bpm>
<rpm>0.00</rpm>
</extensions>
</trkpt>
<trkpt lat="64.195075989" lon="-21.007751465">
<ele>162.078125</ele>
<time>2012-07-19T13:09:21Z</time>
<speed>1.450000</speed>
<extensions>
<speed>1.4</speed>
<temp>0.00</temp>
<bpm>0</bpm>
<rpm>0.00</rpm>
</extensions>
</trkpt>
<trkpt lat="64.195083618" lon="-21.007614136">
<ele>162.417969</ele>
<time>2012-07-19T13:09:26Z</time>
<speed>1.690000</speed>
<extensions>
<speed>1.7</speed>
<temp>0.00</temp>
<bpm>0</bpm>
<rpm>0.00</rpm>
</extensions>
</trkpt>
<trkpt lat="64.195091248" lon="-21.007410049">
<ele>162.820313</ele>
<time>2012-07-19T13:09:31Z</time>
<speed>1.940000</speed>
<extensions>
<speed>1.9</speed>
<temp>0.00</temp>
<bpm>0</bpm>
<rpm>0.00</rpm>
</extensions>
</trkpt>
<trkpt lat="64.195106506" lon="-21.007190704">
<ele>163.183594</ele>
<time>2012-07-19T13:09:36Z</time>
<speed>2.290000</speed>
<extensions>
<speed>2.3</speed>
<temp>0.00</temp>
<bpm>0</bpm>
<rpm>0.00</rpm>
</extensions>
</trkpt>
<trkpt lat="64.195121765" lon="-21.006954193">
<ele>163.433594</ele>
<time>2012-07-19T13:09:41Z</time>
<speed>2.080000</speed>
<extensions>
<speed>2.1</speed>
<temp>0.00</temp>
<bpm>0</bpm>
<rpm>0.00</rpm>
</extensions>
</trkpt>
<trkpt lat="64.195137024" lon="-21.006711960">
<ele>164.011719</ele>
<time>2012-07-19T13:09:46Z</time>
<speed>2.880000</speed>
<extensions>
<speed>2.9</speed>
<temp>0.00</temp>
<bpm>0</bpm>
<rpm>0.00</rpm>
</extensions>
</trkpt>
<trkpt lat="64.195152283" lon="-21.006412506">
<ele>164.382813</ele>
<time>2012-07-19T13:09:51Z</time>
<speed>2.920000</speed>
<extensions>
<speed>2.9</speed>
<temp>0.00</temp>
<bpm>0</bpm>
<rpm>0.00</rpm>
</extensions>
</trkpt>
<trkpt lat="64.195167542" lon="-21.006134033">
<ele>164.597656</ele>
<time>2012-07-19T13:09:56Z</time>
<speed>2.820000</speed>
<extensions>
<speed>2.8</speed>
<temp>0.00</temp>
<bpm>0</bpm>
<rpm>0.00</rpm>
</extensions>
</trkpt>
<trkpt lat="64.195190430" lon="-21.005838394">
<ele>165.328125</ele>
<time>2012-07-19T13:10:01Z</time>
<speed>2.890000</speed>
<extensions>
<speed>2.9</speed>
<temp>0.00</temp>
<bpm>0</bpm>
<rpm>0.00</rpm>
</extensions>
</trkpt>
<trkpt lat="64.195205688" lon="-21.005554199">
<ele>165.589844</ele>
<time>2012-07-19T13:10:06Z</time>
<speed>2.890000</speed>
<extensions>
<speed>2.9</speed>
<temp>0.00</temp>
<bpm>0</bpm>
<rpm>0.00</rpm>
</extensions>
</trkpt>
<trkpt lat="64.195228577" lon="-21.005250931">
<ele>166.144531</ele>
<time>2012-07-19T13:10:11Z</time>
<speed>2.930000</speed>
<extensions>
<speed>2.9</speed>
<temp>0.00</temp>
<bpm>0</bpm>
<rpm>0.00</rpm>
</extensions>
</trkpt>
<trkpt lat="64.195243835" lon="-21.004932404">
<ele>166.933594</ele>
<time>2012-07-19T13:10:16Z</time>
<speed>3.050000</speed>
<extensions>
<speed>3.0</speed>
<temp>0.00</temp>
<bpm>0</bpm>
<rpm>0.00</rpm>
</extensions>
</trkpt>
<trkpt lat="64.195266724" lon="-21.004632950">
<ele>167.433594</ele>
<time>2012-07-19T13:10:21Z</time>
<speed>3.000000</speed>
<extensions>
<speed>3.0</speed>
<temp>0.00</temp>
<bpm>0</bpm>
<rpm>0.00</rpm>
</extensions>
</trkpt>
<trkpt lat="64.195281982" lon="-21.004327774">
<ele>167.921875</ele>
<time>2012-07-19T13:10:26Z</time>
<speed>3.120000</speed>
<extensions>
<speed>3.1</speed>
<temp>0.00</temp>
<bpm>0</bpm>
<rpm>0.00</rpm>
</extensions>
</trkpt>
<trkpt lat="64.195297241" lon="-21.003995895">
<ele>168.527344</ele>
<time>2012-07-19T13:10:31Z</time>
<speed>3.100000</speed>
<extensions>
<speed>3.1</speed>
<temp>0.00</temp>
<bpm>0</bpm>
<rpm>0.00</rpm>
</extensions>
</trkpt>
<trkpt lat="64.195320129" lon="-21.003671646">
<ele>168.953125</ele>
<time>2012-07-19T13:10:36Z</time>
<speed>3.200000</speed>
<extensions>
<speed>3.2</speed>
<temp>0.00</temp>
<bpm>0</bpm>
<rpm>0.00</rpm>
</extensions>
</trkpt>
<trkpt lat="64.195350647" lon="-21.003334045">
<ele>169.511719</ele>
<time>2012-07-19T13:10:41Z</time>
<speed>3.310000</speed>
<extensions>
<speed>3.3</speed>
<temp>0.00</temp>
<bpm>0</bpm>
<rpm>0.00</rpm>
</extensions>
</trkpt>
<trkpt lat="64.195365906" lon="-21.003002167">
<ele>169.878906</ele>
<time>2012-07-19T13:10:46Z</time>
<speed>3.230000</speed>
<extensions>
<speed>3.2</speed>
<temp>0.00</temp>
<bpm>0</bpm>
<rpm>0.00</rpm>
</extensions>
</trkpt>
<trkpt lat="64.195388794" lon="-21.002674103">
<ele>170.308594</ele>
<time>2012-07-19T13:10:51Z</time>
<speed>3.470000</speed>
<extensions>
<speed>3.5</speed>
<temp>0.00</temp>
<bpm>0</bpm>
<rpm>0.00</rpm>
</extensions>
</trkpt>
<trkpt lat="64.195411682" lon="-21.002315521">
<ele>170.714844</ele>
<time>2012-07-19T13:10:56Z</time>
<speed>3.500000</speed>
<extensions>
<speed>3.5</speed>
<temp>0.00</temp>
<bpm>0</bpm>
<rpm>0.00</rpm>
</extensions>
</trkpt>
<trkpt lat="64.195434570" lon="-21.001941681">
<ele>170.875000</ele>
<time>2012-07-19T13:11:01Z</time>
<speed>3.670000</speed>
<extensions>
<speed>3.7</speed>
<temp>0.00</temp>
<bpm>0</bpm>
<rpm>0.00</rpm>
</extensions>
</trkpt>
<trkpt lat="64.195457458" lon="-21.001544952">
<ele>171.179688</ele>
<time>2012-07-19T13:11:06Z</time>
<speed>3.880000</speed>
<extensions>
<speed>3.9</speed>
<temp>0.00</temp>
<bpm>0</bpm>
<rpm>0.00</rpm>
</extensions>
</trkpt>
<trkpt lat="64.195480347" lon="-21.001152039">
<ele>171.539063</ele>
<time>2012-07-19T13:11:11Z</time>
<speed>4.000000</speed>
<extensions>
<speed>4.0</speed>
<temp>0.00</temp>
<bpm>0</bpm>
<rpm>0.00</rpm>
</extensions>
</trkpt>
<trkpt lat="64.195510864" lon="-21.000730515">
<ele>171.898438</ele>
<time>2012-07-19T13:11:16Z</time>
<speed>3.940000</speed>
<extensions>
<speed>3.9</speed>
<temp>0.00</temp>
<bpm>0</bpm>
<rpm>0.00</rpm>
</extensions>
</trkpt>
<trkpt lat="64.195526123" lon="-21.000356674">
<ele>172.503906</ele>
<time>2012-07-19T13:11:21Z</time>
<speed>3.880000</speed>
<extensions>
<speed>3.9</speed>
<temp>0.00</temp>
<bpm>0</bpm>
<rpm>0.00</rpm>
</extensions>
</trkpt>
<trkpt lat="64.195549011" lon="-20.999969482">
<ele>172.699219</ele>
<time>2012-07-19T13:11:26Z</time>
<speed>3.820000</speed>
<extensions>
<speed>3.8</speed>
<temp>0.00</temp>
<bpm>0</bpm>
<rpm>0.00</rpm>
</extensions>
</trkpt>
<trkpt lat="64.195571899" lon="-20.999588013">
<ele>173.328125</ele>
<time>2012-07-19T13:11:31Z</time>
<speed>3.530000</speed>
<extensions>
<speed>3.5</speed>
<temp>0.00</temp>
<bpm>0</bpm>
<rpm>0.00</rpm>
</extensions>
</trkpt>
<trkpt lat="64.195594788" lon="-20.999212265">
<ele>173.656250</ele>
<time>2012-07-19T13:11:36Z</time>
<speed>3.830000</speed>
<extensions>
<speed>3.8</speed>
<temp>0.00</temp>
<bpm>0</bpm>
<rpm>0.00</rpm>
</extensions>
</trkpt>
<trkpt lat="64.195625305" lon="-20.998819351">
<ele>173.699219</ele>
<time>2012-07-19T13:11:41Z</time>
<speed>3.860000</speed>
<extensions>
<speed>3.9</speed>
<temp>0.00</temp>
<bpm>0</bpm>
<rpm>0.00</rpm>
</extensions>
</trkpt>
<trkpt lat="64.195640564" lon="-20.998439789">
<ele>174.222656</ele>
<time>2012-07-19T13:11:46Z</time>
<speed>3.720000</speed>
<extensions>
<speed>3.7</speed>
<temp>0.00</temp>
<bpm>0</bpm>
<rpm>0.00</rpm>
</extensions>
</trkpt>
<trkpt lat="64.195663452" lon="-20.998067856">
<ele>174.566406</ele>
<time>2012-07-19T13:11:51Z</time>
<speed>3.600000</speed>
<extensions>
<speed>3.6</speed>
<temp>0.00</temp>
<bpm>0</bpm>
<rpm>0.00</rpm>
</extensions>
</trkpt>
<trkpt lat="64.195693970" lon="-20.997674942">
<ele>175.058594</ele>
<time>2012-07-19T13:11:56Z</time>
<speed>4.140000</speed>
<extensions>
<speed>4.1</speed>
<temp>0.00</temp>
<bpm>0</bpm>
<rpm>0.00</rpm>
</extensions>
</trkpt>
<trkpt lat="64.195716858" lon="-20.997268677">
<ele>175.503906</ele>
<time>2012-07-19T13:12:01Z</time>
<speed>3.970000</speed>
<extensions>
<speed>4.0</speed>
<temp>0.00</temp>
<bpm>0</bpm>
<rpm>0.00</rpm>
</extensions>
</trkpt>
<trkpt lat="64.195739746" lon="-20.996879578">
<ele>176.082031</ele>
<time>2012-07-19T13:12:06Z</time>
<speed>3.610000</speed>
<extensions>
<speed>3.6</speed>
<temp>0.00</temp>
<bpm>0</bpm>
<rpm>0.00</rpm>
</extensions>
</trkpt>
<trkpt lat="64.195762634" lon="-20.996530533">
<ele>176.101563</ele>
<time>2012-07-19T13:12:11Z</time>
<speed>3.700000</speed>
<extensions>
<speed>3.7</speed>
<temp>0.00</temp>
<bpm>0</bpm>
<rpm>0.00</rpm>
</extensions>
</trkpt>
<trkpt lat="64.195785522" lon="-20.996131897">
<ele>176.726563</ele>
<time>2012-07-19T13:12:16Z</time>
<speed>3.910000</speed>
<extensions>
<speed>3.9</speed>
<temp>0.00</temp>
<bpm>0</bpm>
<rpm>0.00</rpm>
</extensions>
</trkpt>
<trkpt lat="64.195808411" lon="-20.995712280">
<ele>177.144531</ele>
<time>2012-07-19T13:12:21Z</time>
<speed>4.110000</speed>
<extensions>
<speed>4.1</speed>
<temp>0.00</temp>
<bpm>0</bpm>
<rpm>0.00</rpm>
</extensions>
</trkpt>
<trkpt lat="64.195838928" lon="-20.995275497">
<ele>177.488281</ele>
<time>2012-07-19T13:12:26Z</time>
<speed>4.330000</speed>
<extensions>
<speed>4.3</speed>
<temp>0.00</temp>
<bpm>0</bpm>
<rpm>0.00</rpm>
</extensions>
</trkpt>
<trkpt lat="64.195861816" lon="-20.994815826">
<ele>177.671875</ele>
<time>2012-07-19T13:12:31Z</time>
<speed>4.640000</speed>
<extensions>
<speed>4.6</speed>
<temp>0.00</temp>
<bpm>0</bpm>
<rpm>0.00</rpm>
</extensions>
</trkpt>
<trkpt lat="64.195884705" lon="-20.994333267">
<ele>178.273438</ele>
<time>2012-07-19T13:12:36Z</time>
<speed>4.590000</speed>
<extensions>
<speed>4.6</speed>
<temp>0.00</temp>
<bpm>0</bpm>
<rpm>0.00</rpm>
</extensions>
</trkpt>
<trkpt lat="64.195907593" lon="-20.993846893">
<ele>178.035156</ele>
<time>2012-07-19T13:12:41Z</time>
<speed>4.750000</speed>
<extensions>
<speed>4.8</speed>
<temp>0.00</temp>
<bpm>0</bpm>
<rpm>0.00</rpm>
</extensions>
</trkpt>
<trkpt lat="64.195938110" lon="-20.993377686">
<ele>178.312500</ele>
<time>2012-07-19T13:12:46Z</time>
<speed>4.670000</speed>
<extensions>
<speed>4.7</speed>
<temp>0.00</temp>
<bpm>0</bpm>
<rpm>0.00</rpm>
</extensions>
</trkpt>
<trkpt lat="64.195968628" lon="-20.992910385">
<ele>178.234375</ele>
<time>2012-07-19T13:12:51Z</time>
<speed>4.530000</speed>
<extensions>
<speed>4.5</speed>
<temp>0.00</temp>
<bpm>0</bpm>
<rpm>0.00</rpm>
</extensions>
</trkpt>
<trkpt lat="64.195991516" lon="-20.992444992">
<ele>177.687500</ele>
<time>2012-07-19T13:12:56Z</time>
<speed>4.500000</speed>
<extensions>
<speed>4.5</speed>
<temp>0.00</temp>
<bpm>0</bpm>
<rpm>0.00</rpm>
</extensions>
</trkpt>
<trkpt lat="64.196014404" lon="-20.991996765">
<ele>178.406250</ele>
<time>2012-07-19T13:13:01Z</time>
<speed>4.370000</speed>
<extensions>
<speed>4.4</speed>
<temp>0.00</temp>
<bpm>0</bpm>
<rpm>0.00</rpm>
</extensions>
</trkpt>
<trkpt lat="64.196037292" lon="-20.991563797">
<ele>178.753906</ele>
<time>2012-07-19T13:13:06Z</time>
<speed>4.290000</speed>
<extensions>
<speed>4.3</speed>
<temp>0.00</temp>
<bpm>0</bpm>
<rpm>0.00</rpm>
</extensions>
</trkpt>
<trkpt lat="64.196060181" lon="-20.991138458">
<ele>179.062500</ele>
<time>2012-07-19T13:13:11Z</time>
<speed>4.260000</speed>
<extensions>
<speed>4.3</speed>
<temp>0.00</temp>
<bpm>0</bpm>
<rpm>0.00</rpm>
</extensions>
</trkpt>
<trkpt lat="64.196067810" lon="-20.990705490">
<ele>179.250000</ele>
<time>2012-07-19T13:13:16Z</time>
<speed>4.390000</speed>
<extensions>
<speed>4.4</speed>
<temp>0.00</temp>
<bpm>0</bpm>
<rpm>0.00</rpm>
</extensions>
</trkpt>
<trkpt lat="64.196090698" lon="-20.990264893">
<ele>179.980469</ele>
<time>2012-07-19T13:13:21Z</time>
<speed>4.190000</speed>
<extensions>
<speed>4.2</speed>
<temp>0.00</temp>
<bpm>0</bpm>
<rpm>0.00</rpm>
</extensions>
</trkpt>
<trkpt lat="64.196105957" lon="-20.989830017">
<ele>180.402344</ele>
<time>2012-07-19T13:13:26Z</time>
<speed>4.290000</speed>
<extensions>
<speed>4.3</speed>
<temp>0.00</temp>
<bpm>0</bpm>
<rpm>0.00</rpm>
</extensions>
</trkpt>
<trkpt lat="64.196121216" lon="-20.989397049">
<ele>180.398438</ele>
<time>2012-07-19T13:13:31Z</time>
<speed>4.150000</speed>
<extensions>
<speed>4.1</speed>
<temp>0.00</temp>
<bpm>0</bpm>
<rpm>0.00</rpm>
</extensions>
</trkpt>
<trkpt lat="64.196136475" lon="-20.988965988">
<ele>179.500000</ele>
<time>2012-07-19T13:13:36Z</time>
<speed>3.980000</speed>
<extensions>
<speed>4.0</speed>
<temp>0.00</temp>
<bpm>0</bpm>
<rpm>0.00</rpm>
</extensions>
</trkpt>
<trkpt lat="64.196144104" lon="-20.988548279">
<ele>179.089844</ele>
<time>2012-07-19T13:13:41Z</time>
<speed>4.140000</speed>
<extensions>
<speed>4.1</speed>
<temp>0.00</temp>
<bpm>0</bpm>
<rpm>0.00</rpm>
</extensions>
</trkpt>
<trkpt lat="64.196151733" lon="-20.988124847">
<ele>177.757813</ele>
<time>2012-07-19T13:13:46Z</time>
<speed>4.170000</speed>
<extensions>
<speed>4.2</speed>
<temp>0.00</temp>
<bpm>0</bpm>
<rpm>0.00</rpm>
</extensions>
</trkpt>
<trkpt lat="64.196159363" lon="-20.987693787">
<ele>177.941406</ele>
<time>2012-07-19T13:13:51Z</time>
<speed>4.220000</speed>
<extensions>
<speed>4.2</speed>
<temp>0.00</temp>
<bpm>0</bpm>
<rpm>0.00</rpm>
</extensions>
</trkpt>
<trkpt lat="64.196174622" lon="-20.987268448">
<ele>178.167969</ele>
<time>2012-07-19T13:13:56Z</time>
<speed>4.150000</speed>
<extensions>
<speed>4.1</speed>
<temp>0.00</temp>
<bpm>0</bpm>
<rpm>0.00</rpm>
</extensions>
</trkpt>
<trkpt lat="64.196174622" lon="-20.986829758">
<ele>177.421875</ele>
<time>2012-07-19T13:14:01Z</time>
<speed>4.350000</speed>
<extensions>
<speed>4.3</speed>
<temp>0.00</temp>
<bpm>0</bpm>
<rpm>0.00</rpm>
</extensions>
</trkpt>
<trkpt lat="64.196174622" lon="-20.986371994">
<ele>177.945313</ele>
<time>2012-07-19T13:14:06Z</time>
<speed>4.500000</speed>
<extensions>
<speed>4.5</speed>
<temp>0.00</temp>
<bpm>0</bpm>
<rpm>0.00</rpm>
</extensions>
</trkpt>
<trkpt lat="64.196182251" lon="-20.985919952">
<ele>178.035156</ele>
<time>2012-07-19T13:14:11Z</time>
<speed>4.510000</speed>
<extensions>
<speed>4.5</speed>
<temp>0.00</temp>
<bpm>0</bpm>
<rpm>0.00</rpm>
</extensions>
</trkpt>
<trkpt lat="64.196182251" lon="-20.985481262">
<ele>178.570313</ele>
<time>2012-07-19T13:14:16Z</time>
<speed>4.400000</speed>
<extensions>
<speed>4.4</speed>
<temp>0.00</temp>
<bpm>0</bpm>
<rpm>0.00</rpm>
</extensions>
</trkpt>
<trkpt lat="64.196189880" lon="-20.985036850">
<ele>178.253906</ele>
<time>2012-07-19T13:14:21Z</time>
<speed>3.810000</speed>
<extensions>
<speed>3.8</speed>
<temp>0.00</temp>
<bpm>0</bpm>
<rpm>0.00</rpm>
</extensions>
</trkpt>
<trkpt lat="64.196189880" lon="-20.984615326">
<ele>177.441406</ele>
<time>2012-07-19T13:14:26Z</time>
<speed>4.180000</speed>
<extensions>
<speed>4.2</speed>
<temp>0.00</temp>
<bpm>0</bpm>
<rpm>0.00</rpm>
</extensions>
</trkpt>
<trkpt lat="64.196182251" lon="-20.984170914">
<ele>177.054688</ele>
<time>2012-07-19T13:14:31Z</time>
<speed>3.920000</speed>
<extensions>
<speed>3.9</speed>
<temp>0.00</temp>
<bpm>0</bpm>
<rpm>0.00</rpm>
</extensions>
</trkpt>
<trkpt lat="64.196174622" lon="-20.983762741">
<ele>177.085938</ele>
<time>2012-07-19T13:14:36Z</time>
<speed>3.910000</speed>
<extensions>
<speed>3.9</speed>
<temp>0.00</temp>
<bpm>0</bpm>
<rpm>0.00</rpm>
</extensions>
</trkpt>
<trkpt lat="64.196174622" lon="-20.983362198">
<ele>177.527344</ele>
<time>2012-07-19T13:14:41Z</time>
<speed>3.990000</speed>
<extensions>
<speed>4.0</speed>
<temp>0.00</temp>
<bpm>0</bpm>
<rpm>0.00</rpm>
</extensions>
</trkpt>
<trkpt lat="64.196159363" lon="-20.982936859">
<ele>178.617188</ele>
<time>2012-07-19T13:14:46Z</time>
<speed>3.990000</speed>
<extensions>
<speed>4.0</speed>
<temp>0.00</temp>
<bpm>0</bpm>
<rpm>0.00</rpm>
</extensions>
</trkpt>
<trkpt lat="64.196151733" lon="-20.982568741">
<ele>178.757813</ele>
<time>2012-07-19T13:14:51Z</time>
<speed>3.450000</speed>
<extensions>
<speed>3.5</speed>
<temp>0.00</temp>
<bpm>0</bpm>
<rpm>0.00</rpm>
</extensions>
</trkpt>
<trkpt lat="64.196151733" lon="-20.982173920">
<ele>177.925781</ele>
<time>2012-07-19T13:14:56Z</time>
<speed>3.820000</speed>
<extensions>
<speed>3.8</speed>
<temp>0.00</temp>
<bpm>0</bpm>
<rpm>0.00</rpm>
</extensions>
</trkpt>
<trkpt lat="64.196136475" lon="-20.981773376">
<ele>177.734375</ele>
<time>2012-07-19T13:15:01Z</time>
<speed>3.640000</speed>
<extensions>
<speed>3.6</speed>
<temp>0.00</temp>
<bpm>0</bpm>
<rpm>0.00</rpm>
</extensions>
</trkpt>
<trkpt lat="64.196128845" lon="-20.981353760">
<ele>179.257813</ele>
<time>2012-07-19T13:15:06Z</time>
<speed>4.100000</speed>
<extensions>
<speed>4.1</speed>
<temp>0.00</temp>
<bpm>0</bpm>
<rpm>0.00</rpm>
</extensions>
</trkpt>
<trkpt lat="64.196121216" lon="-20.980966568">
<ele>180.097656</ele>
<time>2012-07-19T13:15:11Z</time>
<speed>3.580000</speed>
<extensions>
<speed>3.6</speed>
<temp>0.00</temp>
<bpm>0</bpm>
<rpm>0.00</rpm>
</extensions>
</trkpt>
<trkpt lat="64.196105957" lon="-20.980609894">
<ele>180.578125</ele>
<time>2012-07-19T13:15:16Z</time>
<speed>3.540000</speed>
<extensions>
<speed>3.5</speed>
<temp>0.00</temp>
<bpm>0</bpm>
<rpm>0.00</rpm>
</extensions>
</trkpt>
<trkpt lat="64.196098328" lon="-20.980312347">
<ele>180.437500</ele>
<time>2012-07-19T13:15:21Z</time>
<speed>2.670000</speed>
<extensions>
<speed>2.7</speed>
<temp>0.00</temp>
<bpm>0</bpm>
<rpm>0.00</rpm>
</extensions>
</trkpt>
<trkpt lat="64.196067810" lon="-20.979997635">
<ele>180.316406</ele>
<time>2012-07-19T13:15:26Z</time>
<speed>3.320000</speed>
<extensions>
<speed>3.3</speed>
<temp>0.00</temp>
<bpm>0</bpm>
<rpm>0.00</rpm>
</extensions>
</trkpt>
<trkpt lat="64.196052551" lon="-20.979677200">
<ele>181.070313</ele>
<time>2012-07-19T13:15:31Z</time>
<speed>2.850000</speed>
<extensions>
<speed>2.9</speed>
<temp>0.00</temp>
<bpm>0</bpm>
<rpm>0.00</rpm>
</extensions>
</trkpt>
<trkpt lat="64.196060181" lon="-20.979415894">
<ele>181.839844</ele>
<time>2012-07-19T13:15:36Z</time>
<speed>3.050000</speed>
<extensions>
<speed>3.0</speed>
<temp>0.00</temp>
<bpm>0</bpm>
<rpm>0.00</rpm>
</extensions>
</trkpt>
<trkpt lat="64.196044922" lon="-20.979055405">
<ele>182.085938</ele>
<time>2012-07-19T13:15:41Z</time>
<speed>3.740000</speed>
<extensions>
<speed>3.7</speed>
<temp>0.00</temp>
<bpm>0</bpm>
<rpm>0.00</rpm>
</extensions>
</trkpt>
<trkpt lat="64.196029663" lon="-20.978683472">
<ele>182.804688</ele>
<time>2012-07-19T13:15:46Z</time>
<speed>3.300000</speed>
<extensions>
<speed>3.3</speed>
<temp>0.00</temp>
<bpm>0</bpm>
<rpm>0.00</rpm>
</extensions>
</trkpt>
<trkpt lat="64.196006775" lon="-20.978336334">
<ele>183.238281</ele>
<time>2012-07-19T13:15:51Z</time>
<speed>3.270000</speed>
<extensions>
<speed>3.3</speed>
<temp>0.00</temp>
<bpm>0</bpm>
<rpm>0.00</rpm>
</extensions>
</trkpt>
<trkpt lat="64.195991516" lon="-20.978004456">
<ele>183.367188</ele>
<time>2012-07-19T13:15:56Z</time>
<speed>3.210000</speed>
<extensions>
<speed>3.2</speed>
<temp>0.00</temp>
<bpm>0</bpm>
<rpm>0.00</rpm>
</extensions>
</trkpt>
<trkpt lat="64.195976257" lon="-20.977657318">
<ele>184.265625</ele>
<time>2012-07-19T13:16:01Z</time>
<speed>2.990000</speed>
<extensions>
<speed>3.0</speed>
<temp>0.00</temp>
<bpm>0</bpm>
<rpm>0.00</rpm>
</extensions>
</trkpt>
<trkpt lat="64.195945740" lon="-20.977369308">
<ele>185.769531</ele>
<time>2012-07-19T13:16:06Z</time>
<speed>3.260000</speed>
<extensions>
<speed>3.3</speed>
<temp>0.00</temp>
<bpm>0</bpm>
<rpm>0.00</rpm>
</extensions>
</trkpt>
<trkpt lat="64.195922852" lon="-20.977039337">
<ele>187.312500</ele>
<time>2012-07-19T13:16:11Z</time>
<speed>3.300000</speed>
<extensions>
<speed>3.3</speed>
<temp>0.00</temp>
<bpm>0</bpm>
<rpm>0.00</rpm>
</extensions>
</trkpt>
<trkpt lat="64.195907593" lon="-20.976707458">
<ele>187.492188</ele>
<time>2012-07-19T13:16:16Z</time>
<speed>3.220000</speed>
<extensions>
<speed>3.2</speed>
<temp>0.00</temp>
<bpm>0</bpm>
<rpm>0.00</rpm>
</extensions>
</trkpt>
<trkpt lat="64.195884705" lon="-20.976362228">
<ele>188.789063</ele>
<time>2012-07-19T13:16:21Z</time>
<speed>3.060000</speed>
<extensions>
<speed>3.1</speed>
<temp>0.00</temp>
<bpm>0</bpm>
<rpm>0.00</rpm>
</extensions>
</trkpt>
<trkpt lat="64.195861816" lon="-20.976036072">
<ele>189.632813</ele>
<time>2012-07-19T13:16:26Z</time>
<speed>2.840000</speed>
<extensions>
<speed>2.8</speed>
<temp>0.00</temp>
<bpm>0</bpm>
<rpm>0.00</rpm>
</extensions>
</trkpt>
<trkpt lat="64.195846558" lon="-20.975725174">
<ele>190.031250</ele>
<time>2012-07-19T13:16:31Z</time>
<speed>3.100000</speed>
<extensions>
<speed>3.1</speed>
<temp>0.00</temp>
<bpm>0</bpm>
<rpm>0.00</rpm>
</extensions>
</trkpt>
<trkpt lat="64.195823669" lon="-20.975475311">
<ele>190.839844</ele>
<time>2012-07-19T13:16:36Z</time>
<speed>1.920000</speed>
<extensions>
<speed>1.9</speed>
<temp>0.00</temp>
<bpm>0</bpm>
<rpm>0.00</rpm>
</extensions>
</trkpt>
<trkpt lat="64.195808411" lon="-20.975242615">
<ele>191.871094</ele>
<time>2012-07-19T13:16:41Z</time>
<speed>2.800000</speed>
<extensions>
<speed>2.8</speed>
<temp>0.00</temp>
<bpm>0</bpm>
<rpm>0.00</rpm>
</extensions>
</trkpt>
<trkpt lat="64.195793152" lon="-20.974948883">
<ele>192.957031</ele>
<time>2012-07-19T13:16:46Z</time>
<speed>2.890000</speed>
<extensions>
<speed>2.9</speed>
<temp>0.00</temp>
<bpm>0</bpm>
<rpm>0.00</rpm>
</extensions>
</trkpt>
<trkpt lat="64.195762634" lon="-20.974649429">
<ele>194.003906</ele>
<time>2012-07-19T13:16:51Z</time>
<speed>2.810000</speed>
<extensions>
<speed>2.8</speed>
<temp>0.00</temp>
<bpm>0</bpm>
<rpm>0.00</rpm>
</extensions>
</trkpt>
<trkpt lat="64.195739746" lon="-20.974357605">
<ele>193.503906</ele>
<time>2012-07-19T13:16:56Z</time>
<speed>2.720000</speed>
<extensions>
<speed>2.7</speed>
<temp>0.00</temp>
<bpm>0</bpm>
<rpm>0.00</rpm>
</extensions>
</trkpt>
<trkpt lat="64.195716858" lon="-20.974065781">
<ele>193.937500</ele>
<time>2012-07-19T13:17:01Z</time>
<speed>2.700000</speed>
<extensions>
<speed>2.7</speed>
<temp>0.00</temp>
<bpm>0</bpm>
<rpm>0.00</rpm>
</extensions>
</trkpt>
<trkpt lat="64.195693970" lon="-20.973760605">
<ele>194.316406</ele>
<time>2012-07-19T13:17:06Z</time>
<speed>3.060000</speed>
<extensions>
<speed>3.1</speed>
<temp>0.00</temp>
<bpm>0</bpm>
<rpm>0.00</rpm>
</extensions>
</trkpt>
<trkpt lat="64.195671082" lon="-20.973451614">
<ele>194.296875</ele>
<time>2012-07-19T13:17:11Z</time>
<speed>2.920000</speed>
<extensions>
<speed>2.9</speed>
<temp>0.00</temp>
<bpm>0</bpm>
<rpm>0.00</rpm>
</extensions>
</trkpt>
<trkpt lat="64.195648193" lon="-20.973169327">
<ele>194.093750</ele>
<time>2012-07-19T13:17:16Z</time>
<speed>2.850000</speed>
<extensions>
<speed>2.9</speed>
<temp>0.00</temp>
<bpm>0</bpm>
<rpm>0.00</rpm>
</extensions>
</trkpt>
<trkpt lat="64.195610046" lon="-20.972864151">
<ele>194.972656</ele>
<time>2012-07-19T13:17:21Z</time>
<speed>2.980000</speed>
<extensions>
<speed>3.0</speed>
<temp>0.00</temp>
<bpm>0</bpm>
<rpm>0.00</rpm>
</extensions>
</trkpt>
<trkpt lat="64.195594788" lon="-20.972568512">
<ele>194.832031</ele>
<time>2012-07-19T13:17:26Z</time>
<speed>3.030000</speed>
<extensions>
<speed>3.0</speed>
<temp>0.00</temp>
<bpm>0</bpm>
<rpm>0.00</rpm>
</extensions>
</trkpt>
<trkpt lat="64.195564270" lon="-20.972261429">
<ele>195.542969</ele>
<time>2012-07-19T13:17:31Z</time>
<speed>3.100000</speed>
<extensions>
<speed>3.1</speed>
<temp>0.00</temp>
<bpm>0</bpm>
<rpm>0.00</rpm>
</extensions>
</trkpt>
<trkpt lat="64.195533752" lon="-20.971946716">
<ele>195.796875</ele>
<time>2012-07-19T13:17:36Z</time>
<speed>3.160000</speed>
<extensions>
<speed>3.2</speed>
<temp>0.00</temp>
<bpm>0</bpm>
<rpm>0.00</rpm>
</extensions>
</trkpt>
<trkpt lat="64.195495605" lon="-20.971656799">
<ele>197.007813</ele>
<time>2012-07-19T13:17:41Z</time>
<speed>3.340000</speed>
<extensions>
<speed>3.3</speed>
<temp>0.00</temp>
<bpm>0</bpm>
<rpm>0.00</rpm>
</extensions>
</trkpt>
<trkpt lat="64.195472717" lon="-20.971323013">
<ele>197.410156</ele>
<time>2012-07-19T13:17:46Z</time>
<speed>3.100000</speed>
<extensions>
<speed>3.1</speed>
<temp>0.00</temp>
<bpm>0</bpm>
<rpm>0.00</rpm>
</extensions>
</trkpt>
<trkpt lat="64.195442200" lon="-20.971008301">
<ele>197.605469</ele>
<time>2012-07-19T13:17:51Z</time>
<speed>3.090000</speed>
<extensions>
<speed>3.1</speed>
<temp>0.00</temp>
<bpm>0</bpm>
<rpm>0.00</rpm>
</extensions>
</trkpt>
<trkpt lat="64.195411682" lon="-20.970708847">
<ele>197.683594</ele>
<time>2012-07-19T13:17:56Z</time>
<speed>3.280000</speed>
<extensions>
<speed>3.3</speed>
<temp>0.00</temp>
<bpm>0</bpm>
<rpm>0.00</rpm>
</extensions>
</trkpt>
<trkpt lat="64.195365906" lon="-20.970371246">
<ele>199.312500</ele>
<time>2012-07-19T13:18:01Z</time>
<speed>3.470000</speed>
<extensions>
<speed>3.5</speed>
<temp>0.00</temp>
<bpm>0</bpm>
<rpm>0.00</rpm>
</extensions>
</trkpt>
<trkpt lat="64.195335388" lon="-20.970035553">
<ele>199.652344</ele>
<time>2012-07-19T13:18:06Z</time>
<speed>3.440000</speed>
<extensions>
<speed>3.4</speed>
<temp>0.00</temp>
<bpm>0</bpm>
<rpm>0.00</rpm>
</extensions>
</trkpt>
<trkpt lat="64.195297241" lon="-20.969655991">
<ele>200.289063</ele>
<time>2012-07-19T13:18:11Z</time>
<speed>3.860000</speed>
<extensions>
<speed>3.9</speed>
<temp>0.00</temp>
<bpm>0</bpm>
<rpm>0.00</rpm>
</extensions>
</trkpt>
<trkpt lat="64.195251465" lon="-20.969299316">
<ele>201.152344</ele>
<time>2012-07-19T13:18:16Z</time>
<speed>3.670000</speed>
<extensions>
<speed>3.7</speed>
<temp>0.00</temp>
<bpm>0</bpm>
<rpm>0.00</rpm>
</extensions>
</trkpt>
<trkpt lat="64.195205688" lon="-20.968917847">
<ele>201.714844</ele>
<time>2012-07-19T13:18:21Z</time>
<speed>4.050000</speed>
<extensions>
<speed>4.0</speed>
<temp>0.00</temp>
<bpm>0</bpm>
<rpm>0.00</rpm>
</extensions>
</trkpt>
<trkpt lat="64.195152283" lon="-20.968542099">
<ele>202.753906</ele>
<time>2012-07-19T13:18:26Z</time>
<speed>4.020000</speed>
<extensions>
<speed>4.0</speed>
<temp>0.00</temp>
<bpm>0</bpm>
<rpm>0.00</rpm>
</extensions>
</trkpt>
<trkpt lat="64.195106506" lon="-20.968132019">
<ele>201.730469</ele>
<time>2012-07-19T13:18:31Z</time>
<speed>4.040000</speed>
<extensions>
<speed>4.0</speed>
<temp>0.00</temp>
<bpm>0</bpm>
<rpm>0.00</rpm>
</extensions>
</trkpt>
<trkpt lat="64.195060730" lon="-20.967699051">
<ele>200.574219</ele>
<time>2012-07-19T13:18:36Z</time>
<speed>4.370000</speed>
<extensions>
<speed>4.4</speed>
<temp>0.00</temp>
<bpm>0</bpm>
<rpm>0.00</rpm>
</extensions>
</trkpt>
<trkpt lat="64.195014954" lon="-20.967258453">
<ele>199.535156</ele>
<time>2012-07-19T13:18:41Z</time>
<speed>4.440000</speed>
<extensions>
<speed>4.4</speed>
<temp>0.00</temp>
<bpm>0</bpm>
<rpm>0.00</rpm>
</extensions>
</trkpt>
<trkpt lat="64.194953918" lon="-20.966825485">
<ele>200.050781</ele>
<time>2012-07-19T13:18:46Z</time>
<speed>4.490000</speed>
<extensions>
<speed>4.5</speed>
<temp>0.00</temp>
<bpm>0</bpm>
<rpm>0.00</rpm>
</extensions>
</trkpt>
<trkpt lat="64.194900513" lon="-20.966382980">
<ele>199.175781</ele>
<time>2012-07-19T13:18:51Z</time>
<speed>4.390000</speed>
<extensions>
<speed>4.4</speed>
<temp>0.00</temp>
<bpm>0</bpm>
<rpm>0.00</rpm>
</extensions>
</trkpt>
<trkpt lat="64.194839478" lon="-20.965944290">
<ele>199.183594</ele>
<time>2012-07-19T13:18:56Z</time>
<speed>4.300000</speed>
<extensions>
<speed>4.3</speed>
<temp>0.00</temp>
<bpm>0</bpm>
<rpm>0.00</rpm>
</extensions>
</trkpt>
<trkpt lat="64.194786072" lon="-20.965471268">
<ele>198.367188</ele>
<time>2012-07-19T13:19:01Z</time>
<speed>4.810000</speed>
<extensions>
<speed>4.8</speed>
<temp>0.00</temp>
<bpm>0</bpm>
<rpm>0.00</rpm>
</extensions>
</trkpt>
<trkpt lat="64.194717407" lon="-20.964982986">
<ele>197.707031</ele>
<time>2012-07-19T13:19:06Z</time>
<speed>5.220000</speed>
<extensions>
<speed>5.2</speed>
<temp>0.00</temp>
<bpm>0</bpm>
<rpm>0.00</rpm>
</extensions>
</trkpt>
<trkpt lat="64.194648743" lon="-20.964462280">
<ele>198.328125</ele>
<time>2012-07-19T13:19:11Z</time>
<speed>4.980000</speed>
<extensions>
<speed>5.0</speed>
<temp>0.00</temp>
<bpm>0</bpm>
<rpm>0.00</rpm>
</extensions>
</trkpt>
<trkpt lat="64.194595337" lon="-20.963962555">
<ele>198.515625</ele>
<time>2012-07-19T13:19:16Z</time>
<speed>5.180000</speed>
<extensions>
<speed>5.2</speed>
<temp>0.00</temp>
<bpm>0</bpm>
<rpm>0.00</rpm>
</extensions>
</trkpt>
<trkpt lat="64.194534302" lon="-20.963403702">
<ele>197.964844</ele>
<time>2012-07-19T13:19:21Z</time>
<speed>5.850000</speed>
<extensions>
<speed>5.8</speed>
<temp>0.00</temp>
<bpm>0</bpm>
<rpm>0.00</rpm>
</extensions>
</trkpt>
<trkpt lat="64.194465637" lon="-20.962823868">
<ele>198.605469</ele>
<time>2012-07-19T13:19:26Z</time>
<speed>5.910000</speed>
<extensions>
<speed>5.9</speed>
<temp>0.00</temp>
<bpm>0</bpm>
<rpm>0.00</rpm>
</extensions>
</trkpt>
<trkpt lat="64.194396973" lon="-20.962244034">
<ele>198.019531</ele>
<time>2012-07-19T13:19:31Z</time>
<speed>5.260000</speed>
<extensions>
<speed>5.3</speed>
<temp>0.00</temp>
<bpm>0</bpm>
<rpm>0.00</rpm>
</extensions>
</trkpt>
<trkpt lat="64.194343567" lon="-20.961767197">
<ele>197.976563</ele>
<time>2012-07-19T13:19:36Z</time>
<speed>4.350000</speed>
<extensions>
<speed>4.3</speed>
<temp>0.00</temp>
<bpm>0</bpm>
<rpm>0.00</rpm>
</extensions>
</trkpt>
<trkpt lat="64.194297791" lon="-20.961347580">
<ele>197.718750</ele>
<time>2012-07-19T13:19:41Z</time>
<speed>3.970000</speed>
<extensions>
<speed>4.0</speed>
<temp>0.00</temp>
<bpm>0</bpm>
<rpm>0.00</rpm>
</extensions>
</trkpt>
<trkpt lat="64.194244385" lon="-20.960893631">
<ele>197.667969</ele>
<time>2012-07-19T13:19:46Z</time>
<speed>4.850000</speed>
<extensions>
<speed>4.8</speed>
<temp>0.00</temp>
<bpm>0</bpm>
<rpm>0.00</rpm>
</extensions>
</trkpt>
<trkpt lat="64.194175720" lon="-20.960430145">
<ele>197.812500</ele>
<time>2012-07-19T13:19:51Z</time>
<speed>4.460000</speed>
<extensions>
<speed>4.5</speed>
<temp>0.00</temp>
<bpm>0</bpm>
<rpm>0.00</rpm>
</extensions>
</trkpt>
<trkpt lat="64.194137573" lon="-20.960056305">
<ele>199.066406</ele>
<time>2012-07-19T13:19:56Z</time>
<speed>3.490000</speed>
<extensions>
<speed>3.5</speed>
<temp>0.00</temp>
<bpm>0</bpm>
<rpm>0.00</rpm>
</extensions>
</trkpt>
<trkpt lat="64.194084167" lon="-20.959667206">
<ele>199.312500</ele>
<time>2012-07-19T13:20:01Z</time>
<speed>4.380000</speed>
<extensions>
<speed>4.4</speed>
<temp>0.00</temp>
<bpm>0</bpm>
<rpm>0.00</rpm>
</extensions>
</trkpt>
<trkpt lat="64.194023132" lon="-20.959211349">
<ele>199.699219</ele>
<time>2012-07-19T13:20:06Z</time>
<speed>4.810000</speed>
<extensions>
<speed>4.8</speed>
<temp>0.00</temp>
<bpm>0</bpm>
<rpm>0.00</rpm>
</extensions>
</trkpt>
<trkpt lat="64.193977356" lon="-20.958715439">
<ele>199.257813</ele>
<time>2012-07-19T13:20:11Z</time>
<speed>5.010000</speed>
<extensions>
<speed>5.0</speed>
<temp>0.00</temp>
<bpm>0</bpm>
<rpm>0.00</rpm>
</extensions>
</trkpt>
<trkpt lat="64.193908691" lon="-20.958230972">
<ele>199.964844</ele>
<time>2012-07-19T13:20:16Z</time>
<speed>4.910000</speed>
<extensions>
<speed>4.9</speed>
<temp>0.00</temp>
<bpm>0</bpm>
<rpm>0.00</rpm>
</extensions>
</trkpt>
<trkpt lat="64.193840027" lon="-20.957746506">
<ele>200.910156</ele>
<time>2012-07-19T13:20:21Z</time>
<speed>5.170000</speed>
<extensions>
<speed>5.2</speed>
<temp>0.00</temp>
<bpm>0</bpm>
<rpm>0.00</rpm>
</extensions>
</trkpt>
<trkpt lat="64.193786621" lon="-20.957241058">
<ele>201.441406</ele>
<time>2012-07-19T13:20:26Z</time>
<speed>5.290000</speed>
<extensions>
<speed>5.3</speed>
<temp>0.00</temp>
<bpm>0</bpm>
<rpm>0.00</rpm>
</extensions>
</trkpt>
<trkpt lat="64.193725586" lon="-20.956712723">
<ele>202.332031</ele>
<time>2012-07-19T13:20:31Z</time>
<speed>5.560000</speed>
<extensions>
<speed>5.6</speed>
<temp>0.00</temp>
<bpm>0</bpm>
<rpm>0.00</rpm>
</extensions>
</trkpt>
<trkpt lat="64.193656921" lon="-20.956186295">
<ele>202.218750</ele>
<time>2012-07-19T13:20:36Z</time>
<speed>4.710000</speed>
<extensions>
<speed>4.7</speed>
<temp>0.00</temp>
<bpm>0</bpm>
<rpm>0.00</rpm>
</extensions>
</trkpt>
<trkpt lat="64.193603516" lon="-20.955696106">
<ele>202.156250</ele>
<time>2012-07-19T13:20:41Z</time>
<speed>4.470000</speed>
<extensions>
<speed>4.5</speed>
<temp>0.00</temp>
<bpm>0</bpm>
<rpm>0.00</rpm>
</extensions>
</trkpt>
<trkpt lat="64.193557739" lon="-20.955295563">
<ele>202.320313</ele>
<time>2012-07-19T13:20:46Z</time>
<speed>4.080000</speed>
<extensions>
<speed>4.1</speed>
<temp>0.00</temp>
<bpm>0</bpm>
<rpm>0.00</rpm>
</extensions>
</trkpt>
<trkpt lat="64.193504333" lon="-20.954895020">
<ele>202.507813</ele>
<time>2012-07-19T13:20:51Z</time>
<speed>4.110000</speed>
<extensions>
<speed>4.1</speed>
<temp>0.00</temp>
<bpm>0</bpm>
<rpm>0.00</rpm>
</extensions>
</trkpt>
<trkpt lat="64.193450928" lon="-20.954507828">
<ele>202.023438</ele>
<time>2012-07-19T13:20:56Z</time>
<speed>3.910000</speed>
<extensions>
<speed>3.9</speed>
<temp>0.00</temp>
<bpm>0</bpm>
<rpm>0.00</rpm>
</extensions>
</trkpt>
<trkpt lat="64.193405151" lon="-20.954156876">
<ele>202.339844</ele>
<time>2012-07-19T13:21:01Z</time>
<speed>3.480000</speed>
<extensions>
<speed>3.5</speed>
<temp>0.00</temp>
<bpm>0</bpm>
<rpm>0.00</rpm>
</extensions>
</trkpt>
<trkpt lat="64.193359375" lon="-20.953792572">
<ele>204.078125</ele>
<time>2012-07-19T13:21:06Z</time>
<speed>4.250000</speed>
<extensions>
<speed>4.3</speed>
<temp>0.00</temp>
<bpm>0</bpm>
<rpm>0.00</rpm>
</extensions>
</trkpt>
<trkpt lat="64.193298340" lon="-20.953346252">
<ele>204.683594</ele>
<time>2012-07-19T13:21:11Z</time>
<speed>4.640000</speed>
<extensions>
<speed>4.6</speed>
<temp>0.00</temp>
<bpm>0</bpm>
<rpm>0.00</rpm>
</extensions>
</trkpt>
<trkpt lat="64.193244934" lon="-20.952867508">
<ele>204.441406</ele>
<time>2012-07-19T13:21:16Z</time>
<speed>4.840000</speed>
<extensions>
<speed>4.8</speed>
<temp>0.00</temp>
<bpm>0</bpm>
<rpm>0.00</rpm>
</extensions>
</trkpt>
<trkpt lat="64.193191528" lon="-20.952394485">
<ele>205.503906</ele>
<time>2012-07-19T13:21:21Z</time>
<speed>4.790000</speed>
<extensions>
<speed>4.8</speed>
<temp>0.00</temp>
<bpm>0</bpm>
<rpm>0.00</rpm>
</extensions>
</trkpt>
<trkpt lat="64.193130493" lon="-20.951911926">
<ele>206.742188</ele>
<time>2012-07-19T13:21:26Z</time>
<speed>5.230000</speed>
<extensions>
<speed>5.2</speed>
<temp>0.00</temp>
<bpm>0</bpm>
<rpm>0.00</rpm>
</extensions>
</trkpt>
<trkpt lat="64.193077087" lon="-20.951478958">
<ele>206.335938</ele>
<time>2012-07-19T13:21:31Z</time>
<speed>4.070000</speed>
<extensions>
<speed>4.1</speed>
<temp>0.00</temp>
<bpm>0</bpm>
<rpm>0.00</rpm>
</extensions>
</trkpt>
<trkpt lat="64.193038940" lon="-20.951030731">
<ele>206.195313</ele>
<time>2012-07-19T13:21:36Z</time>
<speed>4.450000</speed>
<extensions>
<speed>4.5</speed>
<temp>0.00</temp>
<bpm>0</bpm>
<rpm>0.00</rpm>
</extensions>
</trkpt>
<trkpt lat="64.192985535" lon="-20.950597763">
<ele>207.312500</ele>
<time>2012-07-19T13:21:41Z</time>
<speed>4.550000</speed>
<extensions>
<speed>4.5</speed>
<temp>0.00</temp>
<bpm>0</bpm>
<rpm>0.00</rpm>
</extensions>
</trkpt>
<trkpt lat="64.192939758" lon="-20.950157166">
<ele>206.484375</ele>
<time>2012-07-19T13:21:46Z</time>
<speed>3.850000</speed>
<extensions>
<speed>3.8</speed>
<temp>0.00</temp>
<bpm>0</bpm>
<rpm>0.00</rpm>
</extensions>
</trkpt>
<trkpt lat="64.192848206" lon="-20.949914932">
<ele>207.675781</ele>
<time>2012-07-19T13:21:51Z</time>
<speed>2.960000</speed>
<extensions>
<speed>3.0</speed>
<temp>0.00</temp>
<bpm>0</bpm>
<rpm>0.00</rpm>
</extensions>
</trkpt>
<trkpt lat="64.192695618" lon="-20.949945450">
<ele>208.398438</ele>
<time>2012-07-19T13:21:56Z</time>
<speed>3.940000</speed>
<extensions>
<speed>3.9</speed>
<temp>0.00</temp>
<bpm>0</bpm>
<rpm>0.00</rpm>
</extensions>
</trkpt>
<trkpt lat="64.192565918" lon="-20.950237274">
<ele>212.039063</ele>
<time>2012-07-19T13:22:01Z</time>
<speed>3.620000</speed>
<extensions>
<speed>3.6</speed>
<temp>0.00</temp>
<bpm>0</bpm>
<rpm>0.00</rpm>
</extensions>
</trkpt>
<trkpt lat="64.192527771" lon="-20.950639725">
<ele>213.507813</ele>
<time>2012-07-19T13:22:06Z</time>
<speed>3.740000</speed>
<extensions>
<speed>3.7</speed>
<temp>0.00</temp>
<bpm>0</bpm>
<rpm>0.00</rpm>
</extensions>
</trkpt>
<trkpt lat="64.192489624" lon="-20.951007843">
<ele>214.640625</ele>
<time>2012-07-19T13:22:11Z</time>
<speed>2.650000</speed>
<extensions>
<speed>2.6</speed>
<temp>0.00</temp>
<bpm>0</bpm>
<rpm>0.00</rpm>
</extensions>
</trkpt>
<trkpt lat="64.192436218" lon="-20.951210022">
<ele>214.957031</ele>
<time>2012-07-19T13:22:16Z</time>
<speed>2.500000</speed>
<extensions>
<speed>2.5</speed>
<temp>0.00</temp>
<bpm>0</bpm>
<rpm>0.00</rpm>
</extensions>
</trkpt>
<trkpt lat="64.192398071" lon="-20.951351166">
<ele>214.898438</ele>
<time>2012-07-19T13:22:21Z</time>
<speed>1.520000</speed>
<extensions>
<speed>1.5</speed>
<temp>0.00</temp>
<bpm>0</bpm>
<rpm>0.00</rpm>
</extensions>
</trkpt>
<trkpt lat="64.192390442" lon="-20.951341629">
<ele>214.136719</ele>
<time>2012-07-19T13:22:26Z</time>
<speed>0.060000</speed>
<extensions>
<speed>0.1</speed>
<temp>0.00</temp>
<bpm>0</bpm>
<rpm>0.00</rpm>
</extensions>
</trkpt>
<trkpt lat="64.192375183" lon="-20.951337814">
<ele>213.910156</ele>
<time>2012-07-19T13:22:31Z</time>
<speed>0.130000</speed>
<extensions>
<speed>0.1</speed>
<temp>0.00</temp>
<bpm>0</bpm>
<rpm>0.00</rpm>
</extensions>
</trkpt>
<trkpt lat="64.192375183" lon="-20.951347351">
<ele>213.800781</ele>
<time>2012-07-19T13:22:36Z</time>
<speed>0.100000</speed>
<extensions>
<speed>0.1</speed>
<temp>0.00</temp>
<bpm>0</bpm>
<rpm>0.00</rpm>
</extensions>
</trkpt>
<trkpt lat="64.192375183" lon="-20.951358795">
<ele>213.746094</ele>
<time>2012-07-19T13:22:41Z</time>
<speed>0.080000</speed>
<extensions>
<speed>0.1</speed>
<temp>0.00</temp>
<bpm>0</bpm>
<rpm>0.00</rpm>
</extensions>
</trkpt>
<trkpt lat="64.192375183" lon="-20.951360703">
<ele>213.722656</ele>
<time>2012-07-19T13:22:46Z</time>
<speed>0.050000</speed>
<extensions>
<speed>0.1</speed>
<temp>0.00</temp>
<bpm>0</bpm>
<rpm>0.00</rpm>
</extensions>
</trkpt>
<trkpt lat="64.192375183" lon="-20.951358795">
<ele>213.710938</ele>
<time>2012-07-19T13:22:51Z</time>
<speed>0.090000</speed>
<extensions>
<speed>0.1</speed>
<temp>0.00</temp>
<bpm>0</bpm>
<rpm>0.00</rpm>
</extensions>
</trkpt>
<trkpt lat="64.192382813" lon="-20.951358795">
<ele>213.687500</ele>
<time>2012-07-19T13:22:56Z</time>
<speed>0.110000</speed>
<extensions>
<speed>0.1</speed>
<temp>0.00</temp>
<bpm>0</bpm>
<rpm>0.00</rpm>
</extensions>
</trkpt>
<trkpt lat="64.192382813" lon="-20.951360703">
<ele>213.648438</ele>
<time>2012-07-19T13:23:01Z</time>
<speed>0.090000</speed>
<extensions>
<speed>0.1</speed>
<temp>0.00</temp>
<bpm>0</bpm>
<rpm>0.00</rpm>
</extensions>
</trkpt>
<trkpt lat="64.192382813" lon="-20.951349258">
<ele>213.609375</ele>
<time>2012-07-19T13:23:06Z</time>
<speed>0.110000</speed>
<extensions>
<speed>0.1</speed>
<temp>0.00</temp>
<bpm>0</bpm>
<rpm>0.00</rpm>
</extensions>
</trkpt>
<trkpt lat="64.192390442" lon="-20.951349258">
<ele>213.562500</ele>
<time>2012-07-19T13:23:11Z</time>
<speed>0.080000</speed>
<extensions>
<speed>0.1</speed>
<temp>0.00</temp>
<bpm>0</bpm>
<rpm>0.00</rpm>
</extensions>
</trkpt>
<trkpt lat="64.192390442" lon="-20.951364517">
<ele>213.453125</ele>
<time>2012-07-19T13:23:16Z</time>
<speed>0.100000</speed>
<extensions>
<speed>0.1</speed>
<temp>0.00</temp>
<bpm>0</bpm>
<rpm>0.00</rpm>
</extensions>
</trkpt>
<trkpt lat="64.192390442" lon="-20.951362610">
<ele>213.339844</ele>
<time>2012-07-19T13:23:21Z</time>
<speed>0.180000</speed>
<extensions>
<speed>0.2</speed>
<temp>0.00</temp>
<bpm>0</bpm>
<rpm>0.00</rpm>
</extensions>
</trkpt>
<trkpt lat="64.192390442" lon="-20.951347351">
<ele>213.269531</ele>
<time>2012-07-19T13:23:26Z</time>
<speed>0.100000</speed>
<extensions>
<speed>0.1</speed>
<temp>0.00</temp>
<bpm>0</bpm>
<rpm>0.00</rpm>
</extensions>
</trkpt>
<trkpt lat="64.192390442" lon="-20.951334000">
<ele>213.214844</ele>
<time>2012-07-19T13:23:31Z</time>
<speed>0.170000</speed>
<extensions>
<speed>0.2</speed>
<temp>0.00</temp>
<bpm>0</bpm>
<rpm>0.00</rpm>
</extensions>
</trkpt>
<trkpt lat="64.192390442" lon="-20.951320648">
<ele>213.246094</ele>
<time>2012-07-19T13:23:36Z</time>
<speed>0.050000</speed>
<extensions>
<speed>0.1</speed>
<temp>0.00</temp>
<bpm>0</bpm>
<rpm>0.00</rpm>
</extensions>
</trkpt>
<trkpt lat="64.192390442" lon="-20.951318741">
<ele>213.269531</ele>
<time>2012-07-19T13:23:41Z</time>
<speed>0.050000</speed>
<extensions>
<speed>0.1</speed>
<temp>0.00</temp>
<bpm>0</bpm>
<rpm>0.00</rpm>
</extensions>
</trkpt>
<trkpt lat="64.192390442" lon="-20.951322556">
<ele>213.253906</ele>
<time>2012-07-19T13:23:46Z</time>
<speed>0.120000</speed>
<extensions>
<speed>0.1</speed>
<temp>0.00</temp>
<bpm>0</bpm>
<rpm>0.00</rpm>
</extensions>
</trkpt>
<trkpt lat="64.192398071" lon="-20.951330185">
<ele>213.210938</ele>
<time>2012-07-19T13:23:51Z</time>
<speed>0.140000</speed>
<extensions>
<speed>0.1</speed>
<temp>0.00</temp>
<bpm>0</bpm>
<rpm>0.00</rpm>
</extensions>
</trkpt>
<trkpt lat="64.192398071" lon="-20.951343536">
<ele>213.167969</ele>
<time>2012-07-19T13:23:56Z</time>
<speed>0.080000</speed>
<extensions>
<speed>0.1</speed>
<temp>0.00</temp>
<bpm>0</bpm>
<rpm>0.00</rpm>
</extensions>
</trkpt>
<trkpt lat="64.192398071" lon="-20.951345444">
<ele>213.109375</ele>
<time>2012-07-19T13:24:01Z</time>
<speed>0.010000</speed>
<extensions>
<speed>0.0</speed>
<temp>0.00</temp>
<bpm>0</bpm>
<rpm>0.00</rpm>
</extensions>
</trkpt>
<trkpt lat="64.192405701" lon="-20.951337814">
<ele>213.074219</ele>
<time>2012-07-19T13:24:06Z</time>
<speed>0.120000</speed>
<extensions>
<speed>0.1</speed>
<temp>0.00</temp>
<bpm>0</bpm>
<rpm>0.00</rpm>
</extensions>
</trkpt>
<trkpt lat="64.192405701" lon="-20.951334000">
<ele>213.015625</ele>
<time>2012-07-19T13:24:11Z</time>
<speed>0.060000</speed>
<extensions>
<speed>0.1</speed>
<temp>0.00</temp>
<bpm>0</bpm>
<rpm>0.00</rpm>
</extensions>
</trkpt>
<trkpt lat="64.192405701" lon="-20.951324463">
<ele>212.972656</ele>
<time>2012-07-19T13:24:16Z</time>
<speed>0.140000</speed>
<extensions>
<speed>0.1</speed>
<temp>0.00</temp>
<bpm>0</bpm>
<rpm>0.00</rpm>
</extensions>
</trkpt>
<trkpt lat="64.192413330" lon="-20.951318741">
<ele>212.917969</ele>
<time>2012-07-19T13:24:21Z</time>
<speed>0.100000</speed>
<extensions>
<speed>0.1</speed>
<temp>0.00</temp>
<bpm>0</bpm>
<rpm>0.00</rpm>
</extensions>
</trkpt>
<trkpt lat="64.192413330" lon="-20.951311111">
<ele>212.875000</ele>
<time>2012-07-19T13:24:26Z</time>
<speed>0.060000</speed>
<extensions>
<speed>0.1</speed>
<temp>0.00</temp>
<bpm>0</bpm>
<rpm>0.00</rpm>
</extensions>
</trkpt>
<trkpt lat="64.192420959" lon="-20.951311111">
<ele>212.824219</ele>
<time>2012-07-19T13:24:31Z</time>
<speed>0.020000</speed>
<extensions>
<speed>0.0</speed>
<temp>0.00</temp>
<bpm>0</bpm>
<rpm>0.00</rpm>
</extensions>
</trkpt>
<trkpt lat="64.192420959" lon="-20.951311111">
<ele>212.753906</ele>
<time>2012-07-19T13:24:36Z</time>
<speed>0.100000</speed>
<extensions>
<speed>0.1</speed>
<temp>0.00</temp>
<bpm>0</bpm>
<rpm>0.00</rpm>
</extensions>
</trkpt>
<trkpt lat="64.192420959" lon="-20.951309204">
<ele>212.703125</ele>
<time>2012-07-19T13:24:41Z</time>
<speed>0.020000</speed>
<extensions>
<speed>0.0</speed>
<temp>0.00</temp>
<bpm>0</bpm>
<rpm>0.00</rpm>
</extensions>
</trkpt>
<trkpt lat="64.192420959" lon="-20.951309204">
<ele>212.687500</ele>
<time>2012-07-19T13:24:46Z</time>
<speed>0.010000</speed>
<extensions>
<speed>0.0</speed>
<temp>0.00</temp>
<bpm>0</bpm>
<rpm>0.00</rpm>
</extensions>
</trkpt>
<trkpt lat="64.192420959" lon="-20.951309204">
<ele>212.675781</ele>
<time>2012-07-19T13:24:51Z</time>
<speed>0.020000</speed>
<extensions>
<speed>0.0</speed>
<temp>0.00</temp>
<bpm>0</bpm>
<rpm>0.00</rpm>
</extensions>
</trkpt>
<trkpt lat="64.192420959" lon="-20.951309204">
<ele>212.660156</ele>
<time>2012-07-19T13:24:56Z</time>
<speed>0.010000</speed>
<extensions>
<speed>0.0</speed>
<temp>0.00</temp>
<bpm>0</bpm>
<rpm>0.00</rpm>
</extensions>
</trkpt>
<trkpt lat="64.192420959" lon="-20.951309204">
<ele>212.648438</ele>
<time>2012-07-19T13:25:01Z</time>
<extensions>
<speed>0.0</speed>
<temp>0.00</temp>
<bpm>0</bpm>
<rpm>0.00</rpm>
</extensions>
</trkpt>
<trkpt lat="64.192420959" lon="-20.951309204">
<ele>212.652344</ele>
<time>2012-07-19T13:25:06Z</time>
<extensions>
<speed>0.0</speed>
<temp>0.00</temp>
<bpm>0</bpm>
<rpm>0.00</rpm>
</extensions>
</trkpt>
<trkpt lat="64.192420959" lon="-20.951309204">
<ele>212.640625</ele>
<time>2012-07-19T13:25:11Z</time>
<extensions>
<speed>0.0</speed>
<temp>0.00</temp>
<bpm>0</bpm>
<rpm>0.00</rpm>
</extensions>
</trkpt>
<trkpt lat="64.192420959" lon="-20.951309204">
<ele>212.636719</ele>
<time>2012-07-19T13:25:16Z</time>
<extensions>
<speed>0.0</speed>
<temp>0.00</temp>
<bpm>0</bpm>
<rpm>0.00</rpm>
</extensions>
</trkpt>
<trkpt lat="64.192420959" lon="-20.951309204">
<ele>212.625000</ele>
<time>2012-07-19T13:25:21Z</time>
<speed>0.010000</speed>
<extensions>
<speed>0.0</speed>
<temp>0.00</temp>
<bpm>0</bpm>
<rpm>0.00</rpm>
</extensions>
</trkpt>
<trkpt lat="64.192420959" lon="-20.951309204">
<ele>212.597656</ele>
<time>2012-07-19T13:25:26Z</time>
<speed>0.010000</speed>
<extensions>
<speed>0.0</speed>
<temp>0.00</temp>
<bpm>0</bpm>
<rpm>0.00</rpm>
</extensions>
</trkpt>
<trkpt lat="64.192420959" lon="-20.951309204">
<ele>212.593750</ele>
<time>2012-07-19T13:25:31Z</time>
<speed>0.010000</speed>
<extensions>
<speed>0.0</speed>
<temp>0.00</temp>
<bpm>0</bpm>
<rpm>0.00</rpm>
</extensions>
</trkpt>
<trkpt lat="64.192420959" lon="-20.951309204">
<ele>212.558594</ele>
<time>2012-07-19T13:25:36Z</time>
<speed>0.020000</speed>
<extensions>
<speed>0.0</speed>
<temp>0.00</temp>
<bpm>0</bpm>
<rpm>0.00</rpm>
</extensions>
</trkpt>
<trkpt lat="64.192420959" lon="-20.951309204">
<ele>212.535156</ele>
<time>2012-07-19T13:25:41Z</time>
<speed>0.010000</speed>
<extensions>
<speed>0.0</speed>
<temp>0.00</temp>
<bpm>0</bpm>
<rpm>0.00</rpm>
</extensions>
</trkpt>
<trkpt lat="64.192420959" lon="-20.951309204">
<ele>212.527344</ele>
<time>2012-07-19T13:25:46Z</time>
<speed>0.010000</speed>
<extensions>
<speed>0.0</speed>
<temp>0.00</temp>
<bpm>0</bpm>
<rpm>0.00</rpm>
</extensions>
</trkpt>
<trkpt lat="64.192420959" lon="-20.951309204">
<ele>212.523438</ele>
<time>2012-07-19T13:25:51Z</time>
<speed>0.010000</speed>
<extensions>
<speed>0.0</speed>
<temp>0.00</temp>
<bpm>0</bpm>
<rpm>0.00</rpm>
</extensions>
</trkpt>
<trkpt lat="64.192420959" lon="-20.951309204">
<ele>212.519531</ele>
<time>2012-07-19T13:25:56Z</time>
<speed>0.010000</speed>
<extensions>
<speed>0.0</speed>
<temp>0.00</temp>
<bpm>0</bpm>
<rpm>0.00</rpm>
</extensions>
</trkpt>
<trkpt lat="64.192420959" lon="-20.951309204">
<ele>212.507813</ele>
<time>2012-07-19T13:26:01Z</time>
<extensions>
<speed>0.0</speed>
<temp>0.00</temp>
<bpm>0</bpm>
<rpm>0.00</rpm>
</extensions>
</trkpt>
<trkpt lat="64.192420959" lon="-20.951309204">
<ele>212.488281</ele>
<time>2012-07-19T13:26:06Z</time>
<extensions>
<speed>0.0</speed>
<temp>0.00</temp>
<bpm>0</bpm>
<rpm>0.00</rpm>
</extensions>
</trkpt>
<trkpt lat="64.192420959" lon="-20.951309204">
<ele>212.464844</ele>
<time>2012-07-19T13:26:11Z</time>
<extensions>
<speed>0.0</speed>
<temp>0.00</temp>
<bpm>0</bpm>
<rpm>0.00</rpm>
</extensions>
</trkpt>
<trkpt lat="64.192420959" lon="-20.951309204">
<ele>212.445313</ele>
<time>2012-07-19T13:26:16Z</time>
<extensions>
<speed>0.0</speed>
<temp>0.00</temp>
<bpm>0</bpm>
<rpm>0.00</rpm>
</extensions>
</trkpt>
<trkpt lat="64.192420959" lon="-20.951309204">
<ele>212.414063</ele>
<time>2012-07-19T13:26:21Z</time>
<speed>0.010000</speed>
<extensions>
<speed>0.0</speed>
<temp>0.00</temp>
<bpm>0</bpm>
<rpm>0.00</rpm>
</extensions>
</trkpt>
<trkpt lat="64.192413330" lon="-20.951309204">
<ele>212.414063</ele>
<time>2012-07-19T13:26:26Z</time>
<extensions>
<speed>0.0</speed>
<temp>0.00</temp>
<bpm>0</bpm>
<rpm>0.00</rpm>
</extensions>
</trkpt>
<trkpt lat="64.192413330" lon="-20.951307297">
<ele>212.410156</ele>
<time>2012-07-19T13:26:31Z</time>
<extensions>
<speed>0.0</speed>
<temp>0.00</temp>
<bpm>0</bpm>
<rpm>0.00</rpm>
</extensions>
</trkpt>
<trkpt lat="64.192413330" lon="-20.951307297">
<ele>212.398438</ele>
<time>2012-07-19T13:26:36Z</time>
<extensions>
<speed>0.0</speed>
<temp>0.00</temp>
<bpm>0</bpm>
<rpm>0.00</rpm>
</extensions>
</trkpt>
<trkpt lat="64.192413330" lon="-20.951307297">
<ele>212.367188</ele>
<time>2012-07-19T13:26:41Z</time>
<speed>0.010000</speed>
<extensions>
<speed>0.0</speed>
<temp>0.00</temp>
<bpm>0</bpm>
<rpm>0.00</rpm>
</extensions>
</trkpt>
<trkpt lat="64.192413330" lon="-20.951307297">
<ele>212.328125</ele>
<time>2012-07-19T13:26:46Z</time>
<extensions>
<speed>0.0</speed>
<temp>0.00</temp>
<bpm>0</bpm>
<rpm>0.00</rpm>
</extensions>
</trkpt>
<trkpt lat="64.192413330" lon="-20.951307297">
<ele>212.308594</ele>
<time>2012-07-19T13:26:51Z</time>
<extensions>
<speed>0.0</speed>
<temp>0.00</temp>
<bpm>0</bpm>
<rpm>0.00</rpm>
</extensions>
</trkpt>
<trkpt lat="64.192413330" lon="-20.951307297">
<ele>212.289063</ele>
<time>2012-07-19T13:26:56Z</time>
<extensions>
<speed>0.0</speed>
<temp>0.00</temp>
<bpm>0</bpm>
<rpm>0.00</rpm>
</extensions>
</trkpt>
<trkpt lat="64.192413330" lon="-20.951307297">
<ele>212.273438</ele>
<time>2012-07-19T13:27:01Z</time>
<speed>0.010000</speed>
<extensions>
<speed>0.0</speed>
<temp>0.00</temp>
<bpm>0</bpm>
<rpm>0.00</rpm>
</extensions>
</trkpt>
<trkpt lat="64.192413330" lon="-20.951307297">
<ele>212.242188</ele>
<time>2012-07-19T13:27:06Z</time>
<extensions>
<speed>0.0</speed>
<temp>0.00</temp>
<bpm>0</bpm>
<rpm>0.00</rpm>
</extensions>
</trkpt>
<trkpt lat="64.192413330" lon="-20.951305389">
<ele>212.222656</ele>
<time>2012-07-19T13:27:11Z</time>
<extensions>
<speed>0.0</speed>
<temp>0.00</temp>
<bpm>0</bpm>
<rpm>0.00</rpm>
</extensions>
</trkpt>
<trkpt lat="64.192413330" lon="-20.951305389">
<ele>212.199219</ele>
<time>2012-07-19T13:27:16Z</time>
<speed>0.010000</speed>
<extensions>
<speed>0.0</speed>
<temp>0.00</temp>
<bpm>0</bpm>
<rpm>0.00</rpm>
</extensions>
</trkpt>
<trkpt lat="64.192413330" lon="-20.951305389">
<ele>212.187500</ele>
<time>2012-07-19T13:27:21Z</time>
<speed>0.030000</speed>
<extensions>
<speed>0.0</speed>
<temp>0.00</temp>
<bpm>0</bpm>
<rpm>0.00</rpm>
</extensions>
</trkpt>
<trkpt lat="64.192413330" lon="-20.951305389">
<ele>212.171875</ele>
<time>2012-07-19T13:27:26Z</time>
<extensions>
<speed>0.0</speed>
<temp>0.00</temp>
<bpm>0</bpm>
<rpm>0.00</rpm>
</extensions>
</trkpt>
<trkpt lat="64.192413330" lon="-20.951303482">
<ele>212.140625</ele>
<time>2012-07-19T13:27:31Z</time>
<speed>0.010000</speed>
<extensions>
<speed>0.0</speed>
<temp>0.00</temp>
<bpm>0</bpm>
<rpm>0.00</rpm>
</extensions>
</trkpt>
<trkpt lat="64.192413330" lon="-20.951303482">
<ele>212.132813</ele>
<time>2012-07-19T13:27:36Z</time>
<speed>0.010000</speed>
<extensions>
<speed>0.0</speed>
<temp>0.00</temp>
<bpm>0</bpm>
<rpm>0.00</rpm>
</extensions>
</trkpt>
<trkpt lat="64.192413330" lon="-20.951303482">
<ele>212.113281</ele>
<time>2012-07-19T13:27:41Z</time>
<speed>0.020000</speed>
<extensions>
<speed>0.0</speed>
<temp>0.00</temp>
<bpm>0</bpm>
<rpm>0.00</rpm>
</extensions>
</trkpt>
<trkpt lat="64.192413330" lon="-20.951303482">
<ele>212.097656</ele>
<time>2012-07-19T13:27:46Z</time>
<extensions>
<speed>0.0</speed>
<temp>0.00</temp>
<bpm>0</bpm>
<rpm>0.00</rpm>
</extensions>
</trkpt>
<trkpt lat="64.192413330" lon="-20.951303482">
<ele>212.085938</ele>
<time>2012-07-19T13:27:51Z</time>
<speed>0.010000</speed>
<extensions>
<speed>0.0</speed>
<temp>0.00</temp>
<bpm>0</bpm>
<rpm>0.00</rpm>
</extensions>
</trkpt>
<trkpt lat="64.192413330" lon="-20.951301575">
<ele>212.070313</ele>
<time>2012-07-19T13:27:56Z</time>
<speed>0.020000</speed>
<extensions>
<speed>0.0</speed>
<temp>0.00</temp>
<bpm>0</bpm>
<rpm>0.00</rpm>
</extensions>
</trkpt>
<trkpt lat="64.192413330" lon="-20.951301575">
<ele>212.066406</ele>
<time>2012-07-19T13:28:01Z</time>
<speed>0.010000</speed>
<extensions>
<speed>0.0</speed>
<temp>0.00</temp>
<bpm>0</bpm>
<rpm>0.00</rpm>
</extensions>
</trkpt>
<trkpt lat="64.192413330" lon="-20.951301575">
<ele>212.050781</ele>
<time>2012-07-19T13:28:06Z</time>
<speed>0.010000</speed>
<extensions>
<speed>0.0</speed>
<temp>0.00</temp>
<bpm>0</bpm>
<rpm>0.00</rpm>
</extensions>
</trkpt>
<trkpt lat="64.192413330" lon="-20.951301575">
<ele>212.011719</ele>
<time>2012-07-19T13:28:11Z</time>
<extensions>
<speed>0.0</speed>
<temp>0.00</temp>
<bpm>0</bpm>
<rpm>0.00</rpm>
</extensions>
</trkpt>
<trkpt lat="64.192413330" lon="-20.951301575">
<ele>212.000000</ele>
<time>2012-07-19T13:28:16Z</time>
<extensions>
<speed>0.0</speed>
<temp>0.00</temp>
<bpm>0</bpm>
<rpm>0.00</rpm>
</extensions>
</trkpt>
<trkpt lat="64.192413330" lon="-20.951301575">
<ele>211.984375</ele>
<time>2012-07-19T13:28:21Z</time>
<extensions>
<speed>0.0</speed>
<temp>0.00</temp>
<bpm>0</bpm>
<rpm>0.00</rpm>
</extensions>
</trkpt>
<trkpt lat="64.192413330" lon="-20.951301575">
<ele>211.957031</ele>
<time>2012-07-19T13:28:26Z</time>
<extensions>
<speed>0.0</speed>
<temp>0.00</temp>
<bpm>0</bpm>
<rpm>0.00</rpm>
</extensions>
</trkpt>
<trkpt lat="64.192413330" lon="-20.951301575">
<ele>211.933594</ele>
<time>2012-07-19T13:28:31Z</time>
<speed>0.010000</speed>
<extensions>
<speed>0.0</speed>
<temp>0.00</temp>
<bpm>0</bpm>
<rpm>0.00</rpm>
</extensions>
</trkpt>
<trkpt lat="64.192413330" lon="-20.951301575">
<ele>211.925781</ele>
<time>2012-07-19T13:28:36Z</time>
<speed>0.010000</speed>
<extensions>
<speed>0.0</speed>
<temp>0.00</temp>
<bpm>0</bpm>
<rpm>0.00</rpm>
</extensions>
</trkpt>
<trkpt lat="64.192413330" lon="-20.951299667">
<ele>211.890625</ele>
<time>2012-07-19T13:28:41Z</time>
<speed>0.030000</speed>
<extensions>
<speed>0.0</speed>
<temp>0.00</temp>
<bpm>0</bpm>
<rpm>0.00</rpm>
</extensions>
</trkpt>
<trkpt lat="64.192413330" lon="-20.951299667">
<ele>211.871094</ele>
<time>2012-07-19T13:28:46Z</time>
<speed>0.020000</speed>
<extensions>
<speed>0.0</speed>
<temp>0.00</temp>
<bpm>0</bpm>
<rpm>0.00</rpm>
</extensions>
</trkpt>
<trkpt lat="64.192413330" lon="-20.951299667">
<ele>211.863281</ele>
<time>2012-07-19T13:28:51Z</time>
<speed>0.030000</speed>
<extensions>
<speed>0.0</speed>
<temp>0.00</temp>
<bpm>0</bpm>
<rpm>0.00</rpm>
</extensions>
</trkpt>
<trkpt lat="64.192413330" lon="-20.951299667">
<ele>211.859375</ele>
<time>2012-07-19T13:28:56Z</time>
<extensions>
<speed>0.0</speed>
<temp>0.00</temp>
<bpm>0</bpm>
<rpm>0.00</rpm>
</extensions>
</trkpt>
<trkpt lat="64.192413330" lon="-20.951299667">
<ele>211.855469</ele>
<time>2012-07-19T13:29:01Z</time>
<speed>0.010000</speed>
<extensions>
<speed>0.0</speed>
<temp>0.00</temp>
<bpm>0</bpm>
<rpm>0.00</rpm>
</extensions>
</trkpt>
<trkpt lat="64.192413330" lon="-20.951299667">
<ele>211.847656</ele>
<time>2012-07-19T13:29:06Z</time>
<speed>0.020000</speed>
<extensions>
<speed>0.0</speed>
<temp>0.00</temp>
<bpm>0</bpm>
<rpm>0.00</rpm>
</extensions>
</trkpt>
<trkpt lat="64.192413330" lon="-20.951297760">
<ele>211.816406</ele>
<time>2012-07-19T13:29:11Z</time>
<extensions>
<speed>0.0</speed>
<temp>0.00</temp>
<bpm>0</bpm>
<rpm>0.00</rpm>
</extensions>
</trkpt>
<trkpt lat="64.192413330" lon="-20.951297760">
<ele>211.781250</ele>
<time>2012-07-19T13:29:16Z</time>
<speed>0.010000</speed>
<extensions>
<speed>0.0</speed>
<temp>0.00</temp>
<bpm>0</bpm>
<rpm>0.00</rpm>
</extensions>
</trkpt>
<trkpt lat="64.192413330" lon="-20.951297760">
<ele>211.773438</ele>
<time>2012-07-19T13:29:21Z</time>
<extensions>
<speed>0.0</speed>
<temp>0.00</temp>
<bpm>0</bpm>
<rpm>0.00</rpm>
</extensions>
</trkpt>
<trkpt lat="64.192413330" lon="-20.951297760">
<ele>211.765625</ele>
<time>2012-07-19T13:29:26Z</time>
<speed>0.010000</speed>
<extensions>
<speed>0.0</speed>
<temp>0.00</temp>
<bpm>0</bpm>
<rpm>0.00</rpm>
</extensions>
</trkpt>
<trkpt lat="64.192413330" lon="-20.951299667">
<ele>211.757813</ele>
<time>2012-07-19T13:29:31Z</time>
<speed>0.010000</speed>
<extensions>
<speed>0.0</speed>
<temp>0.00</temp>
<bpm>0</bpm>
<rpm>0.00</rpm>
</extensions>
</trkpt>
<trkpt lat="64.192413330" lon="-20.951297760">
<ele>211.742188</ele>
<time>2012-07-19T13:29:36Z</time>
<speed>0.040000</speed>
<extensions>
<speed>0.0</speed>
<temp>0.00</temp>
<bpm>0</bpm>
<rpm>0.00</rpm>
</extensions>
</trkpt>
<trkpt lat="64.192413330" lon="-20.951297760">
<ele>211.726563</ele>
<time>2012-07-19T13:29:41Z</time>
<speed>0.020000</speed>
<extensions>
<speed>0.0</speed>
<temp>0.00</temp>
<bpm>0</bpm>
<rpm>0.00</rpm>
</extensions>
</trkpt>
<trkpt lat="64.192405701" lon="-20.951297760">
<ele>211.703125</ele>
<time>2012-07-19T13:29:46Z</time>
<speed>0.010000</speed>
<extensions>
<speed>0.0</speed>
<temp>0.00</temp>
<bpm>0</bpm>
<rpm>0.00</rpm>
</extensions>
</trkpt>
<trkpt lat="64.192405701" lon="-20.951297760">
<ele>211.691406</ele>
<time>2012-07-19T13:29:51Z</time>
<speed>0.010000</speed>
<extensions>
<speed>0.0</speed>
<temp>0.00</temp>
<bpm>0</bpm>
<rpm>0.00</rpm>
</extensions>
</trkpt>
<trkpt lat="64.192405701" lon="-20.951299667">
<ele>211.675781</ele>
<time>2012-07-19T13:29:56Z</time>
<speed>0.010000</speed>
<extensions>
<speed>0.0</speed>
<temp>0.00</temp>
<bpm>0</bpm>
<rpm>0.00</rpm>
</extensions>
</trkpt>
<trkpt lat="64.192405701" lon="-20.951297760">
<ele>211.648438</ele>
<time>2012-07-19T13:30:01Z</time>
<speed>0.010000</speed>
<extensions>
<speed>0.0</speed>
<temp>0.00</temp>
<bpm>0</bpm>
<rpm>0.00</rpm>
</extensions>
</trkpt>
<trkpt lat="64.192405701" lon="-20.951297760">
<ele>211.601563</ele>
<time>2012-07-19T13:30:06Z</time>
<speed>0.010000</speed>
<extensions>
<speed>0.0</speed>
<temp>0.00</temp>
<bpm>0</bpm>
<rpm>0.00</rpm>
</extensions>
</trkpt>
<trkpt lat="64.192405701" lon="-20.951297760">
<ele>211.535156</ele>
<time>2012-07-19T13:30:11Z</time>
<extensions>
<speed>0.0</speed>
<temp>0.00</temp>
<bpm>0</bpm>
<rpm>0.00</rpm>
</extensions>
</trkpt>
<trkpt lat="64.192405701" lon="-20.951297760">
<ele>211.492188</ele>
<time>2012-07-19T13:30:16Z</time>
<extensions>
<speed>0.0</speed>
<temp>0.00</temp>
<bpm>0</bpm>
<rpm>0.00</rpm>
</extensions>
</trkpt>
<trkpt lat="64.192405701" lon="-20.951297760">
<ele>211.449219</ele>
<time>2012-07-19T13:30:21Z</time>
<extensions>
<speed>0.0</speed>
<temp>0.00</temp>
<bpm>0</bpm>
<rpm>0.00</rpm>
</extensions>
</trkpt>
<trkpt lat="64.192405701" lon="-20.951297760">
<ele>211.410156</ele>
<time>2012-07-19T13:30:26Z</time>
<extensions>
<speed>0.0</speed>
<temp>0.00</temp>
<bpm>0</bpm>
<rpm>0.00</rpm>
</extensions>
</trkpt>
<trkpt lat="64.192405701" lon="-20.951297760">
<ele>211.367188</ele>
<time>2012-07-19T13:30:31Z</time>
<speed>0.010000</speed>
<extensions>
<speed>0.0</speed>
<temp>0.00</temp>
<bpm>0</bpm>
<rpm>0.00</rpm>
</extensions>
</trkpt>
<trkpt lat="64.192405701" lon="-20.951297760">
<ele>211.335938</ele>
<time>2012-07-19T13:30:36Z</time>
<extensions>
<speed>0.0</speed>
<temp>0.00</temp>
<bpm>0</bpm>
<rpm>0.00</rpm>
</extensions>
</trkpt>
<trkpt lat="64.192405701" lon="-20.951297760">
<ele>211.300781</ele>
<time>2012-07-19T13:30:41Z</time>
<extensions>
<speed>0.0</speed>
<temp>0.00</temp>
<bpm>0</bpm>
<rpm>0.00</rpm>
</extensions>
</trkpt>
<trkpt lat="64.192405701" lon="-20.951295853">
<ele>211.242188</ele>
<time>2012-07-19T13:30:46Z</time>
<speed>0.010000</speed>
<extensions>
<speed>0.0</speed>
<temp>0.00</temp>
<bpm>0</bpm>
<rpm>0.00</rpm>
</extensions>
</trkpt>
<trkpt lat="64.192405701" lon="-20.951295853">
<ele>211.207031</ele>
<time>2012-07-19T13:30:51Z</time>
<extensions>
<speed>0.0</speed>
<temp>0.00</temp>
<bpm>0</bpm>
<rpm>0.00</rpm>
</extensions>
</trkpt>
<trkpt lat="64.192405701" lon="-20.951295853">
<ele>211.187500</ele>
<time>2012-07-19T13:30:56Z</time>
<speed>0.010000</speed>
<extensions>
<speed>0.0</speed>
<temp>0.00</temp>
<bpm>0</bpm>
<rpm>0.00</rpm>
</extensions>
</trkpt>
<trkpt lat="64.192405701" lon="-20.951295853">
<ele>211.171875</ele>
<time>2012-07-19T13:31:01Z</time>
<speed>0.010000</speed>
<extensions>
<speed>0.0</speed>
<temp>0.00</temp>
<bpm>0</bpm>
<rpm>0.00</rpm>
</extensions>
</trkpt>
<trkpt lat="64.192405701" lon="-20.951295853">
<ele>211.156250</ele>
<time>2012-07-19T13:31:06Z</time>
<extensions>
<speed>0.0</speed>
<temp>0.00</temp>
<bpm>0</bpm>
<rpm>0.00</rpm>
</extensions>
</trkpt>
<trkpt lat="64.192405701" lon="-20.951295853">
<ele>211.140625</ele>
<time>2012-07-19T13:31:11Z</time>
<extensions>
<speed>0.0</speed>
<temp>0.00</temp>
<bpm>0</bpm>
<rpm>0.00</rpm>
</extensions>
</trkpt>
<trkpt lat="64.192405701" lon="-20.951295853">
<ele>211.113281</ele>
<time>2012-07-19T13:31:16Z</time>
<speed>0.030000</speed>
<extensions>
<speed>0.0</speed>
<temp>0.00</temp>
<bpm>0</bpm>
<rpm>0.00</rpm>
</extensions>
</trkpt>
<trkpt lat="64.192405701" lon="-20.951295853">
<ele>211.097656</ele>
<time>2012-07-19T13:31:21Z</time>
<extensions>
<speed>0.0</speed>
<temp>0.00</temp>
<bpm>0</bpm>
<rpm>0.00</rpm>
</extensions>
</trkpt>
<trkpt lat="64.192405701" lon="-20.951295853">
<ele>211.066406</ele>
<time>2012-07-19T13:31:26Z</time>
<extensions>
<speed>0.0</speed>
<temp>0.00</temp>
<bpm>0</bpm>
<rpm>0.00</rpm>
</extensions>
</trkpt>
<trkpt lat="64.192405701" lon="-20.951295853">
<ele>211.015625</ele>
<time>2012-07-19T13:31:31Z</time>
<extensions>
<speed>0.0</speed>
<temp>0.00</temp>
<bpm>0</bpm>
<rpm>0.00</rpm>
</extensions>
</trkpt>
<trkpt lat="64.192405701" lon="-20.951295853">
<ele>210.968750</ele>
<time>2012-07-19T13:31:36Z</time>
<extensions>
<speed>0.0</speed>
<temp>0.00</temp>
<bpm>0</bpm>
<rpm>0.00</rpm>
</extensions>
</trkpt>
<trkpt lat="64.192405701" lon="-20.951295853">
<ele>210.953125</ele>
<time>2012-07-19T13:31:41Z</time>
<speed>0.020000</speed>
<extensions>
<speed>0.0</speed>
<temp>0.00</temp>
<bpm>0</bpm>
<rpm>0.00</rpm>
</extensions>
</trkpt>
<trkpt lat="64.192405701" lon="-20.951295853">
<ele>210.925781</ele>
<time>2012-07-19T13:31:46Z</time>
<extensions>
<speed>0.0</speed>
<temp>0.00</temp>
<bpm>0</bpm>
<rpm>0.00</rpm>
</extensions>
</trkpt>
<trkpt lat="64.192405701" lon="-20.951293945">
<ele>210.914063</ele>
<time>2012-07-19T13:31:51Z</time>
<speed>0.010000</speed>
<extensions>
<speed>0.0</speed>
<temp>0.00</temp>
<bpm>0</bpm>
<rpm>0.00</rpm>
</extensions>
</trkpt>
<trkpt lat="64.192405701" lon="-20.951293945">
<ele>210.902344</ele>
<time>2012-07-19T13:31:56Z</time>
<speed>0.010000</speed>
<extensions>
<speed>0.0</speed>
<temp>0.00</temp>
<bpm>0</bpm>
<rpm>0.00</rpm>
</extensions>
</trkpt>
<trkpt lat="64.192405701" lon="-20.951293945">
<ele>210.878906</ele>
<time>2012-07-19T13:32:01Z</time>
<extensions>
<speed>0.0</speed>
<temp>0.00</temp>
<bpm>0</bpm>
<rpm>0.00</rpm>
</extensions>
</trkpt>
<trkpt lat="64.192405701" lon="-20.951293945">
<ele>210.878906</ele>
<time>2012-07-19T13:32:06Z</time>
<speed>0.020000</speed>
<extensions>
<speed>0.0</speed>
<temp>0.00</temp>
<bpm>0</bpm>
<rpm>0.00</rpm>
</extensions>
</trkpt>
<trkpt lat="64.192405701" lon="-20.951293945">
<ele>210.863281</ele>
<time>2012-07-19T13:32:11Z</time>
<speed>0.020000</speed>
<extensions>
<speed>0.0</speed>
<temp>0.00</temp>
<bpm>0</bpm>
<rpm>0.00</rpm>
</extensions>
</trkpt>
<trkpt lat="64.192405701" lon="-20.951293945">
<ele>210.832031</ele>
<time>2012-07-19T13:32:16Z</time>
<speed>0.010000</speed>
<extensions>
<speed>0.0</speed>
<temp>0.00</temp>
<bpm>0</bpm>
<rpm>0.00</rpm>
</extensions>
</trkpt>
<trkpt lat="64.192405701" lon="-20.951293945">
<ele>210.820313</ele>
<time>2012-07-19T13:32:21Z</time>
<extensions>
<speed>0.0</speed>
<temp>0.00</temp>
<bpm>0</bpm>
<rpm>0.00</rpm>
</extensions>
</trkpt>
<trkpt lat="64.192405701" lon="-20.951292038">
<ele>210.808594</ele>
<time>2012-07-19T13:32:26Z</time>
<speed>0.030000</speed>
<extensions>
<speed>0.0</speed>
<temp>0.00</temp>
<bpm>0</bpm>
<rpm>0.00</rpm>
</extensions>
</trkpt>
<trkpt lat="64.192405701" lon="-20.951292038">
<ele>210.789063</ele>
<time>2012-07-19T13:32:31Z</time>
<speed>0.010000</speed>
<extensions>
<speed>0.0</speed>
<temp>0.00</temp>
<bpm>0</bpm>
<rpm>0.00</rpm>
</extensions>
</trkpt>
<trkpt lat="64.192405701" lon="-20.951292038">
<ele>210.777344</ele>
<time>2012-07-19T13:32:36Z</time>
<speed>0.020000</speed>
<extensions>
<speed>0.0</speed>
<temp>0.00</temp>
<bpm>0</bpm>
<rpm>0.00</rpm>
</extensions>
</trkpt>
<trkpt lat="64.192405701" lon="-20.951292038">
<ele>210.757813</ele>
<time>2012-07-19T13:32:41Z</time>
<speed>0.010000</speed>
<extensions>
<speed>0.0</speed>
<temp>0.00</temp>
<bpm>0</bpm>
<rpm>0.00</rpm>
</extensions>
</trkpt>
<trkpt lat="64.192405701" lon="-20.951290131">
<ele>210.726563</ele>
<time>2012-07-19T13:32:46Z</time>
<speed>0.010000</speed>
<extensions>
<speed>0.0</speed>
<temp>0.00</temp>
<bpm>0</bpm>
<rpm>0.00</rpm>
</extensions>
</trkpt>
<trkpt lat="64.192405701" lon="-20.951290131">
<ele>210.699219</ele>
<time>2012-07-19T13:32:51Z</time>
<extensions>
<speed>0.0</speed>
<temp>0.00</temp>
<bpm>0</bpm>
<rpm>0.00</rpm>
</extensions>
</trkpt>
<trkpt lat="64.192398071" lon="-20.951290131">
<ele>210.648438</ele>
<time>2012-07-19T13:32:56Z</time>
<extensions>
<speed>0.0</speed>
<temp>0.00</temp>
<bpm>0</bpm>
<rpm>0.00</rpm>
</extensions>
</trkpt>
<trkpt lat="64.192398071" lon="-20.951290131">
<ele>210.613281</ele>
<time>2012-07-19T13:33:01Z</time>
<speed>0.010000</speed>
<extensions>
<speed>0.0</speed>
<temp>0.00</temp>
<bpm>0</bpm>
<rpm>0.00</rpm>
</extensions>
</trkpt>
<trkpt lat="64.192398071" lon="-20.951290131">
<ele>210.593750</ele>
<time>2012-07-19T13:33:06Z</time>
<speed>0.010000</speed>
<extensions>
<speed>0.0</speed>
<temp>0.00</temp>
<bpm>0</bpm>
<rpm>0.00</rpm>
</extensions>
</trkpt>
<trkpt lat="64.192398071" lon="-20.951290131">
<ele>210.566406</ele>
<time>2012-07-19T13:33:11Z</time>
<speed>0.010000</speed>
<extensions>
<speed>0.0</speed>
<temp>0.00</temp>
<bpm>0</bpm>
<rpm>0.00</rpm>
</extensions>
</trkpt>
<trkpt lat="64.192398071" lon="-20.951288223">
<ele>210.535156</ele>
<time>2012-07-19T13:33:16Z</time>
<speed>0.030000</speed>
<extensions>
<speed>0.0</speed>
<temp>0.00</temp>
<bpm>0</bpm>
<rpm>0.00</rpm>
</extensions>
</trkpt>
<trkpt lat="64.192398071" lon="-20.951288223">
<ele>210.539063</ele>
<time>2012-07-19T13:33:21Z</time>
<extensions>
<speed>0.0</speed>
<temp>0.00</temp>
<bpm>0</bpm>
<rpm>0.00</rpm>
</extensions>
</trkpt>
<trkpt lat="64.192398071" lon="-20.951288223">
<ele>210.527344</ele>
<time>2012-07-19T13:33:26Z</time>
<speed>0.020000</speed>
<extensions>
<speed>0.0</speed>
<temp>0.00</temp>
<bpm>0</bpm>
<rpm>0.00</rpm>
</extensions>
</trkpt>
<trkpt lat="64.192398071" lon="-20.951288223">
<ele>210.500000</ele>
<time>2012-07-19T13:33:31Z</time>
<speed>0.030000</speed>
<extensions>
<speed>0.0</speed>
<temp>0.00</temp>
<bpm>0</bpm>
<rpm>0.00</rpm>
</extensions>
</trkpt>
<trkpt lat="64.192398071" lon="-20.951286316">
<ele>210.445313</ele>
<time>2012-07-19T13:33:36Z</time>
<speed>0.010000</speed>
<extensions>
<speed>0.0</speed>
<temp>0.00</temp>
<bpm>0</bpm>
<rpm>0.00</rpm>
</extensions>
</trkpt>
<trkpt lat="64.192398071" lon="-20.951286316">
<ele>210.382813</ele>
<time>2012-07-19T13:33:41Z</time>
<speed>0.030000</speed>
<extensions>
<speed>0.0</speed>
<temp>0.00</temp>
<bpm>0</bpm>
<rpm>0.00</rpm>
</extensions>
</trkpt>
<trkpt lat="64.192398071" lon="-20.951286316">
<ele>210.343750</ele>
<time>2012-07-19T13:33:46Z</time>
<speed>0.010000</speed>
<extensions>
<speed>0.0</speed>
<temp>0.00</temp>
<bpm>0</bpm>
<rpm>0.00</rpm>
</extensions>
</trkpt>
<trkpt lat="64.192398071" lon="-20.951286316">
<ele>210.300781</ele>
<time>2012-07-19T13:33:51Z</time>
<speed>0.010000</speed>
<extensions>
<speed>0.0</speed>
<temp>0.00</temp>
<bpm>0</bpm>
<rpm>0.00</rpm>
</extensions>
</trkpt>
<trkpt lat="64.192398071" lon="-20.951286316">
<ele>210.253906</ele>
<time>2012-07-19T13:33:56Z</time>
<extensions>
<speed>0.0</speed>
<temp>0.00</temp>
<bpm>0</bpm>
<rpm>0.00</rpm>
</extensions>
</trkpt>
<trkpt lat="64.192398071" lon="-20.951286316">
<ele>210.175781</ele>
<time>2012-07-19T13:34:01Z</time>
<extensions>
<speed>0.0</speed>
<temp>0.00</temp>
<bpm>0</bpm>
<rpm>0.00</rpm>
</extensions>
</trkpt>
<trkpt lat="64.192398071" lon="-20.951284409">
<ele>210.160156</ele>
<time>2012-07-19T13:34:06Z</time>
<speed>0.010000</speed>
<extensions>
<speed>0.0</speed>
<temp>0.00</temp>
<bpm>0</bpm>
<rpm>0.00</rpm>
</extensions>
</trkpt>
<trkpt lat="64.192398071" lon="-20.951284409">
<ele>210.121094</ele>
<time>2012-07-19T13:34:11Z</time>
<speed>0.020000</speed>
<extensions>
<speed>0.0</speed>
<temp>0.00</temp>
<bpm>0</bpm>
<rpm>0.00</rpm>
</extensions>
</trkpt>
<trkpt lat="64.192398071" lon="-20.951284409">
<ele>210.082031</ele>
<time>2012-07-19T13:34:16Z</time>
<speed>0.010000</speed>
<extensions>
<speed>0.0</speed>
<temp>0.00</temp>
<bpm>0</bpm>
<rpm>0.00</rpm>
</extensions>
</trkpt>
<trkpt lat="64.192398071" lon="-20.951284409">
<ele>210.027344</ele>
<time>2012-07-19T13:34:21Z</time>
<speed>0.010000</speed>
<extensions>
<speed>0.0</speed>
<temp>0.00</temp>
<bpm>0</bpm>
<rpm>0.00</rpm>
</extensions>
</trkpt>
<trkpt lat="64.192398071" lon="-20.951284409">
<ele>209.992188</ele>
<time>2012-07-19T13:34:26Z</time>
<speed>0.030000</speed>
<extensions>
<speed>0.0</speed>
<temp>0.00</temp>
<bpm>0</bpm>
<rpm>0.00</rpm>
</extensions>
</trkpt>
<trkpt lat="64.192398071" lon="-20.951284409">
<ele>209.941406</ele>
<time>2012-07-19T13:34:31Z</time>
<speed>0.020000</speed>
<extensions>
<speed>0.0</speed>
<temp>0.00</temp>
<bpm>0</bpm>
<rpm>0.00</rpm>
</extensions>
</trkpt>
<trkpt lat="64.192398071" lon="-20.951284409">
<ele>209.902344</ele>
<time>2012-07-19T13:34:36Z</time>
<speed>0.020000</speed>
<extensions>
<speed>0.0</speed>
<temp>0.00</temp>
<bpm>0</bpm>
<rpm>0.00</rpm>
</extensions>
</trkpt>
<trkpt lat="64.192398071" lon="-20.951284409">
<ele>209.875000</ele>
<time>2012-07-19T13:34:41Z</time>
<speed>0.020000</speed>
<extensions>
<speed>0.0</speed>
<temp>0.00</temp>
<bpm>0</bpm>
<rpm>0.00</rpm>
</extensions>
</trkpt>
<trkpt lat="64.192398071" lon="-20.951282501">
<ele>209.863281</ele>
<time>2012-07-19T13:34:46Z</time>
<extensions>
<speed>0.0</speed>
<temp>0.00</temp>
<bpm>0</bpm>
<rpm>0.00</rpm>
</extensions>
</trkpt>
<trkpt lat="64.192398071" lon="-20.951282501">
<ele>209.847656</ele>
<time>2012-07-19T13:34:51Z</time>
<extensions>
<speed>0.0</speed>
<temp>0.00</temp>
<bpm>0</bpm>
<rpm>0.00</rpm>
</extensions>
</trkpt>
<trkpt lat="64.192398071" lon="-20.951282501">
<ele>209.839844</ele>
<time>2012-07-19T13:34:56Z</time>
<speed>0.010000</speed>
<extensions>
<speed>0.0</speed>
<temp>0.00</temp>
<bpm>0</bpm>
<rpm>0.00</rpm>
</extensions>
</trkpt>
<trkpt lat="64.192398071" lon="-20.951282501">
<ele>209.820313</ele>
<time>2012-07-19T13:35:01Z</time>
<speed>0.020000</speed>
<extensions>
<speed>0.0</speed>
<temp>0.00</temp>
<bpm>0</bpm>
<rpm>0.00</rpm>
</extensions>
</trkpt>
<trkpt lat="64.192398071" lon="-20.951282501">
<ele>209.808594</ele>
<time>2012-07-19T13:35:06Z</time>
<extensions>
<speed>0.0</speed>
<temp>0.00</temp>
<bpm>0</bpm>
<rpm>0.00</rpm>
</extensions>
</trkpt>
<trkpt lat="64.192398071" lon="-20.951282501">
<ele>209.796875</ele>
<time>2012-07-19T13:35:11Z</time>
<extensions>
<speed>0.0</speed>
<temp>0.00</temp>
<bpm>0</bpm>
<rpm>0.00</rpm>
</extensions>
</trkpt>
<trkpt lat="64.192398071" lon="-20.951282501">
<ele>209.781250</ele>
<time>2012-07-19T13:35:16Z</time>
<speed>0.010000</speed>
<extensions>
<speed>0.0</speed>
<temp>0.00</temp>
<bpm>0</bpm>
<rpm>0.00</rpm>
</extensions>
</trkpt>
<trkpt lat="64.192398071" lon="-20.951282501">
<ele>209.765625</ele>
<time>2012-07-19T13:35:21Z</time>
<speed>0.010000</speed>
<extensions>
<speed>0.0</speed>
<temp>0.00</temp>
<bpm>0</bpm>
<rpm>0.00</rpm>
</extensions>
</trkpt>
<trkpt lat="64.192398071" lon="-20.951282501">
<ele>209.753906</ele>
<time>2012-07-19T13:35:26Z</time>
<extensions>
<speed>0.0</speed>
<temp>0.00</temp>
<bpm>0</bpm>
<rpm>0.00</rpm>
</extensions>
</trkpt>
<trkpt lat="64.192398071" lon="-20.951282501">
<ele>209.738281</ele>
<time>2012-07-19T13:35:31Z</time>
<speed>0.010000</speed>
<extensions>
<speed>0.0</speed>
<temp>0.00</temp>
<bpm>0</bpm>
<rpm>0.00</rpm>
</extensions>
</trkpt>
<trkpt lat="64.192398071" lon="-20.951282501">
<ele>209.734375</ele>
<time>2012-07-19T13:35:36Z</time>
<speed>0.010000</speed>
<extensions>
<speed>0.0</speed>
<temp>0.00</temp>
<bpm>0</bpm>
<rpm>0.00</rpm>
</extensions>
</trkpt>
<trkpt lat="64.192398071" lon="-20.951282501">
<ele>209.738281</ele>
<time>2012-07-19T13:35:41Z</time>
<extensions>
<speed>0.0</speed>
<temp>0.00</temp>
<bpm>0</bpm>
<rpm>0.00</rpm>
</extensions>
</trkpt>
<trkpt lat="64.192398071" lon="-20.951280594">
<ele>209.722656</ele>
<time>2012-07-19T13:35:46Z</time>
<speed>0.010000</speed>
<extensions>
<speed>0.0</speed>
<temp>0.00</temp>
<bpm>0</bpm>
<rpm>0.00</rpm>
</extensions>
</trkpt>
<trkpt lat="64.192398071" lon="-20.951280594">
<ele>209.707031</ele>
<time>2012-07-19T13:35:51Z</time>
<speed>0.010000</speed>
<extensions>
<speed>0.0</speed>
<temp>0.00</temp>
<bpm>0</bpm>
<rpm>0.00</rpm>
</extensions>
</trkpt>
<trkpt lat="64.192398071" lon="-20.951280594">
<ele>209.687500</ele>
<time>2012-07-19T13:35:56Z</time>
<speed>0.010000</speed>
<extensions>
<speed>0.0</speed>
<temp>0.00</temp>
<bpm>0</bpm>
<rpm>0.00</rpm>
</extensions>
</trkpt>
<trkpt lat="64.192398071" lon="-20.951280594">
<ele>209.667969</ele>
<time>2012-07-19T13:36:01Z</time>
<speed>0.010000</speed>
<extensions>
<speed>0.0</speed>
<temp>0.00</temp>
<bpm>0</bpm>
<rpm>0.00</rpm>
</extensions>
</trkpt>
<trkpt lat="64.192398071" lon="-20.951280594">
<ele>209.644531</ele>
<time>2012-07-19T13:36:06Z</time>
<speed>0.010000</speed>
<extensions>
<speed>0.0</speed>
<temp>0.00</temp>
<bpm>0</bpm>
<rpm>0.00</rpm>
</extensions>
</trkpt>
<trkpt lat="64.192398071" lon="-20.951280594">
<ele>209.636719</ele>
<time>2012-07-19T13:36:11Z</time>
<extensions>
<speed>0.0</speed>
<temp>0.00</temp>
<bpm>0</bpm>
<rpm>0.00</rpm>
</extensions>
</trkpt>
<trkpt lat="64.192398071" lon="-20.951280594">
<ele>209.597656</ele>
<time>2012-07-19T13:36:16Z</time>
<speed>0.010000</speed>
<extensions>
<speed>0.0</speed>
<temp>0.00</temp>
<bpm>0</bpm>
<rpm>0.00</rpm>
</extensions>
</trkpt>
<trkpt lat="64.192398071" lon="-20.951280594">
<ele>209.578125</ele>
<time>2012-07-19T13:36:21Z</time>
<extensions>
<speed>0.0</speed>
<temp>0.00</temp>
<bpm>0</bpm>
<rpm>0.00</rpm>
</extensions>
</trkpt>
<trkpt lat="64.192398071" lon="-20.951280594">
<ele>209.558594</ele>
<time>2012-07-19T13:36:26Z</time>
<extensions>
<speed>0.0</speed>
<temp>0.00</temp>
<bpm>0</bpm>
<rpm>0.00</rpm>
</extensions>
</trkpt>
<trkpt lat="64.192398071" lon="-20.951280594">
<ele>209.519531</ele>
<time>2012-07-19T13:36:31Z</time>
<extensions>
<speed>0.0</speed>
<temp>0.00</temp>
<bpm>0</bpm>
<rpm>0.00</rpm>
</extensions>
</trkpt>
<trkpt lat="64.192390442" lon="-20.951280594">
<ele>209.464844</ele>
<time>2012-07-19T13:36:36Z</time>
<speed>0.030000</speed>
<extensions>
<speed>0.0</speed>
<temp>0.00</temp>
<bpm>0</bpm>
<rpm>0.00</rpm>
</extensions>
</trkpt>
<trkpt lat="64.192390442" lon="-20.951280594">
<ele>209.433594</ele>
<time>2012-07-19T13:36:41Z</time>
<extensions>
<speed>0.0</speed>
<temp>0.00</temp>
<bpm>0</bpm>
<rpm>0.00</rpm>
</extensions>
</trkpt>
<trkpt lat="64.192390442" lon="-20.951280594">
<ele>209.382813</ele>
<time>2012-07-19T13:36:46Z</time>
<extensions>
<speed>0.0</speed>
<temp>0.00</temp>
<bpm>0</bpm>
<rpm>0.00</rpm>
</extensions>
</trkpt>
<trkpt lat="64.192390442" lon="-20.951280594">
<ele>209.359375</ele>
<time>2012-07-19T13:36:51Z</time>
<speed>0.010000</speed>
<extensions>
<speed>0.0</speed>
<temp>0.00</temp>
<bpm>0</bpm>
<rpm>0.00</rpm>
</extensions>
</trkpt>
<trkpt lat="64.192390442" lon="-20.951280594">
<ele>209.316406</ele>
<time>2012-07-19T13:36:56Z</time>
<extensions>
<speed>0.0</speed>
<temp>0.00</temp>
<bpm>0</bpm>
<rpm>0.00</rpm>
</extensions>
</trkpt>
<trkpt lat="64.192390442" lon="-20.951278687">
<ele>209.296875</ele>
<time>2012-07-19T13:37:01Z</time>
<speed>0.010000</speed>
<extensions>
<speed>0.0</speed>
<temp>0.00</temp>
<bpm>0</bpm>
<rpm>0.00</rpm>
</extensions>
</trkpt>
<trkpt lat="64.192390442" lon="-20.951278687">
<ele>209.265625</ele>
<time>2012-07-19T13:37:06Z</time>
<speed>0.010000</speed>
<extensions>
<speed>0.0</speed>
<temp>0.00</temp>
<bpm>0</bpm>
<rpm>0.00</rpm>
</extensions>
</trkpt>
<trkpt lat="64.192390442" lon="-20.951278687">
<ele>209.226563</ele>
<time>2012-07-19T13:37:11Z</time>
<speed>0.010000</speed>
<extensions>
<speed>0.0</speed>
<temp>0.00</temp>
<bpm>0</bpm>
<rpm>0.00</rpm>
</extensions>
</trkpt>
<trkpt lat="64.192390442" lon="-20.951278687">
<ele>209.191406</ele>
<time>2012-07-19T13:37:16Z</time>
<extensions>
<speed>0.0</speed>
<temp>0.00</temp>
<bpm>0</bpm>
<rpm>0.00</rpm>
</extensions>
</trkpt>
<trkpt lat="64.192390442" lon="-20.951278687">
<ele>209.156250</ele>
<time>2012-07-19T13:37:21Z</time>
<extensions>
<speed>0.0</speed>
<temp>0.00</temp>
<bpm>0</bpm>
<rpm>0.00</rpm>
</extensions>
</trkpt>
<trkpt lat="64.192390442" lon="-20.951278687">
<ele>209.125000</ele>
<time>2012-07-19T13:37:26Z</time>
<extensions>
<speed>0.0</speed>
<temp>0.00</temp>
<bpm>0</bpm>
<rpm>0.00</rpm>
</extensions>
</trkpt>
<trkpt lat="64.192390442" lon="-20.951278687">
<ele>209.105469</ele>
<time>2012-07-19T13:37:31Z</time>
<extensions>
<speed>0.0</speed>
<temp>0.00</temp>
<bpm>0</bpm>
<rpm>0.00</rpm>
</extensions>
</trkpt>
<trkpt lat="64.192390442" lon="-20.951278687">
<ele>209.097656</ele>
<time>2012-07-19T13:37:36Z</time>
<speed>0.010000</speed>
<extensions>
<speed>0.0</speed>
<temp>0.00</temp>
<bpm>0</bpm>
<rpm>0.00</rpm>
</extensions>
</trkpt>
<trkpt lat="64.192390442" lon="-20.951278687">
<ele>209.070313</ele>
<time>2012-07-19T13:37:41Z</time>
<extensions>
<speed>0.0</speed>
<temp>0.00</temp>
<bpm>0</bpm>
<rpm>0.00</rpm>
</extensions>
</trkpt>
<trkpt lat="64.192390442" lon="-20.951278687">
<ele>209.031250</ele>
<time>2012-07-19T13:37:46Z</time>
<speed>0.010000</speed>
<extensions>
<speed>0.0</speed>
<temp>0.00</temp>
<bpm>0</bpm>
<rpm>0.00</rpm>
</extensions>
</trkpt>
<trkpt lat="64.192390442" lon="-20.951278687">
<ele>209.007813</ele>
<time>2012-07-19T13:37:51Z</time>
<extensions>
<speed>0.0</speed>
<temp>0.00</temp>
<bpm>0</bpm>
<rpm>0.00</rpm>
</extensions>
</trkpt>
<trkpt lat="64.192390442" lon="-20.951278687">
<ele>208.988281</ele>
<time>2012-07-19T13:37:56Z</time>
<speed>0.010000</speed>
<extensions>
<speed>0.0</speed>
<temp>0.00</temp>
<bpm>0</bpm>
<rpm>0.00</rpm>
</extensions>
</trkpt>
<trkpt lat="64.192390442" lon="-20.951278687">
<ele>208.953125</ele>
<time>2012-07-19T13:38:01Z</time>
<speed>0.010000</speed>
<extensions>
<speed>0.0</speed>
<temp>0.00</temp>
<bpm>0</bpm>
<rpm>0.00</rpm>
</extensions>
</trkpt>
<trkpt lat="64.192390442" lon="-20.951278687">
<ele>208.941406</ele>
<time>2012-07-19T13:38:06Z</time>
<extensions>
<speed>0.0</speed>
<temp>0.00</temp>
<bpm>0</bpm>
<rpm>0.00</rpm>
</extensions>
</trkpt>
<trkpt lat="64.192390442" lon="-20.951278687">
<ele>208.914063</ele>
<time>2012-07-19T13:38:11Z</time>
<extensions>
<speed>0.0</speed>
<temp>0.00</temp>
<bpm>0</bpm>
<rpm>0.00</rpm>
</extensions>
</trkpt>
<trkpt lat="64.192390442" lon="-20.951278687">
<ele>208.898438</ele>
<time>2012-07-19T13:38:16Z</time>
<extensions>
<speed>0.0</speed>
<temp>0.00</temp>
<bpm>0</bpm>
<rpm>0.00</rpm>
</extensions>
</trkpt>
<trkpt lat="64.192390442" lon="-20.951278687">
<ele>208.886719</ele>
<time>2012-07-19T13:38:21Z</time>
<speed>0.010000</speed>
<extensions>
<speed>0.0</speed>
<temp>0.00</temp>
<bpm>0</bpm>
<rpm>0.00</rpm>
</extensions>
</trkpt>
<trkpt lat="64.192390442" lon="-20.951278687">
<ele>208.890625</ele>
<time>2012-07-19T13:38:26Z</time>
<extensions>
<speed>0.0</speed>
<temp>0.00</temp>
<bpm>0</bpm>
<rpm>0.00</rpm>
</extensions>
</trkpt>
<trkpt lat="64.192390442" lon="-20.951278687">
<ele>208.886719</ele>
<time>2012-07-19T13:38:31Z</time>
<extensions>
<speed>0.0</speed>
<temp>0.00</temp>
<bpm>0</bpm>
<rpm>0.00</rpm>
</extensions>
</trkpt>
<trkpt lat="64.192390442" lon="-20.951278687">
<ele>208.843750</ele>
<time>2012-07-19T13:38:36Z</time>
<extensions>
<speed>0.0</speed>
<temp>0.00</temp>
<bpm>0</bpm>
<rpm>0.00</rpm>
</extensions>
</trkpt>
<trkpt lat="64.192390442" lon="-20.951278687">
<ele>208.820313</ele>
<time>2012-07-19T13:38:41Z</time>
<speed>0.010000</speed>
<extensions>
<speed>0.0</speed>
<temp>0.00</temp>
<bpm>0</bpm>
<rpm>0.00</rpm>
</extensions>
</trkpt>
<trkpt lat="64.192390442" lon="-20.951278687">
<ele>208.769531</ele>
<time>2012-07-19T13:38:46Z</time>
<extensions>
<speed>0.0</speed>
<temp>0.00</temp>
<bpm>0</bpm>
<rpm>0.00</rpm>
</extensions>
</trkpt>
<trkpt lat="64.192390442" lon="-20.951280594">
<ele>208.746094</ele>
<time>2012-07-19T13:38:51Z</time>
<extensions>
<speed>0.0</speed>
<temp>0.00</temp>
<bpm>0</bpm>
<rpm>0.00</rpm>
</extensions>
</trkpt>
<trkpt lat="64.192390442" lon="-20.951280594">
<ele>208.730469</ele>
<time>2012-07-19T13:38:56Z</time>
<speed>0.010000</speed>
<extensions>
<speed>0.0</speed>
<temp>0.00</temp>
<bpm>0</bpm>
<rpm>0.00</rpm>
</extensions>
</trkpt>
<trkpt lat="64.192390442" lon="-20.951280594">
<ele>208.710938</ele>
<time>2012-07-19T13:39:01Z</time>
<speed>0.010000</speed>
<extensions>
<speed>0.0</speed>
<temp>0.00</temp>
<bpm>0</bpm>
<rpm>0.00</rpm>
</extensions>
</trkpt>
<trkpt lat="64.192390442" lon="-20.951280594">
<ele>208.675781</ele>
<time>2012-07-19T13:39:06Z</time>
<extensions>
<speed>0.0</speed>
<temp>0.00</temp>
<bpm>0</bpm>
<rpm>0.00</rpm>
</extensions>
</trkpt>
<trkpt lat="64.192390442" lon="-20.951280594">
<ele>208.667969</ele>
<time>2012-07-19T13:39:11Z</time>
<extensions>
<speed>0.0</speed>
<temp>0.00</temp>
<bpm>0</bpm>
<rpm>0.00</rpm>
</extensions>
</trkpt>
<trkpt lat="64.192390442" lon="-20.951280594">
<ele>208.656250</ele>
<time>2012-07-19T13:39:16Z</time>
<extensions>
<speed>0.0</speed>
<temp>0.00</temp>
<bpm>0</bpm>
<rpm>0.00</rpm>
</extensions>
</trkpt>
<trkpt lat="64.192390442" lon="-20.951280594">
<ele>208.628906</ele>
<time>2012-07-19T13:39:21Z</time>
<extensions>
<speed>0.0</speed>
<temp>0.00</temp>
<bpm>0</bpm>
<rpm>0.00</rpm>
</extensions>
</trkpt>
<trkpt lat="64.192390442" lon="-20.951280594">
<ele>208.613281</ele>
<time>2012-07-19T13:39:26Z</time>
<speed>0.030000</speed>
<extensions>
<speed>0.0</speed>
<temp>0.00</temp>
<bpm>0</bpm>
<rpm>0.00</rpm>
</extensions>
</trkpt>
<trkpt lat="64.192390442" lon="-20.951280594">
<ele>208.578125</ele>
<time>2012-07-19T13:39:31Z</time>
<extensions>
<speed>0.0</speed>
<temp>0.00</temp>
<bpm>0</bpm>
<rpm>0.00</rpm>
</extensions>
</trkpt>
<trkpt lat="64.192390442" lon="-20.951280594">
<ele>208.558594</ele>
<time>2012-07-19T13:39:36Z</time>
<speed>0.030000</speed>
<extensions>
<speed>0.0</speed>
<temp>0.00</temp>
<bpm>0</bpm>
<rpm>0.00</rpm>
</extensions>
</trkpt>
<trkpt lat="64.192390442" lon="-20.951280594">
<ele>208.542969</ele>
<time>2012-07-19T13:39:41Z</time>
<speed>0.020000</speed>
<extensions>
<speed>0.0</speed>
<temp>0.00</temp>
<bpm>0</bpm>
<rpm>0.00</rpm>
</extensions>
</trkpt>
<trkpt lat="64.192390442" lon="-20.951280594">
<ele>208.531250</ele>
<time>2012-07-19T13:39:46Z</time>
<speed>0.020000</speed>
<extensions>
<speed>0.0</speed>
<temp>0.00</temp>
<bpm>0</bpm>
<rpm>0.00</rpm>
</extensions>
</trkpt>
<trkpt lat="64.192390442" lon="-20.951280594">
<ele>208.503906</ele>
<time>2012-07-19T13:39:51Z</time>
<speed>0.010000</speed>
<extensions>
<speed>0.0</speed>
<temp>0.00</temp>
<bpm>0</bpm>
<rpm>0.00</rpm>
</extensions>
</trkpt>
<trkpt lat="64.192390442" lon="-20.951280594">
<ele>208.488281</ele>
<time>2012-07-19T13:39:56Z</time>
<speed>0.010000</speed>
<extensions>
<speed>0.0</speed>
<temp>0.00</temp>
<bpm>0</bpm>
<rpm>0.00</rpm>
</extensions>
</trkpt>
<trkpt lat="64.192390442" lon="-20.951280594">
<ele>208.492188</ele>
<time>2012-07-19T13:40:01Z</time>
<speed>0.030000</speed>
<extensions>
<speed>0.0</speed>
<temp>0.00</temp>
<bpm>0</bpm>
<rpm>0.00</rpm>
</extensions>
</trkpt>
<trkpt lat="64.192390442" lon="-20.951282501">
<ele>208.503906</ele>
<time>2012-07-19T13:40:06Z</time>
<speed>0.010000</speed>
<extensions>
<speed>0.0</speed>
<temp>0.00</temp>
<bpm>0</bpm>
<rpm>0.00</rpm>
</extensions>
</trkpt>
<trkpt lat="64.192390442" lon="-20.951282501">
<ele>208.500000</ele>
<time>2012-07-19T13:40:11Z</time>
<extensions>
<speed>0.0</speed>
<temp>0.00</temp>
<bpm>0</bpm>
<rpm>0.00</rpm>
</extensions>
</trkpt>
<trkpt lat="64.192390442" lon="-20.951282501">
<ele>208.500000</ele>
<time>2012-07-19T13:40:16Z</time>
<extensions>
<speed>0.0</speed>
<temp>0.00</temp>
<bpm>0</bpm>
<rpm>0.00</rpm>
</extensions>
</trkpt>
<trkpt lat="64.192390442" lon="-20.951282501">
<ele>208.496094</ele>
<time>2012-07-19T13:40:21Z</time>
<speed>0.010000</speed>
<extensions>
<speed>0.0</speed>
<temp>0.00</temp>
<bpm>0</bpm>
<rpm>0.00</rpm>
</extensions>
</trkpt>
<trkpt lat="64.192390442" lon="-20.951282501">
<ele>208.507813</ele>
<time>2012-07-19T13:40:26Z</time>
<extensions>
<speed>0.0</speed>
<temp>0.00</temp>
<bpm>0</bpm>
<rpm>0.00</rpm>
</extensions>
</trkpt>
<trkpt lat="64.192390442" lon="-20.951282501">
<ele>208.503906</ele>
<time>2012-07-19T13:40:31Z</time>
<extensions>
<speed>0.0</speed>
<temp>0.00</temp>
<bpm>0</bpm>
<rpm>0.00</rpm>
</extensions>
</trkpt>
<trkpt lat="64.192390442" lon="-20.951282501">
<ele>208.492188</ele>
<time>2012-07-19T13:40:36Z</time>
<extensions>
<speed>0.0</speed>
<temp>0.00</temp>
<bpm>0</bpm>
<rpm>0.00</rpm>
</extensions>
</trkpt>
<trkpt lat="64.192390442" lon="-20.951284409">
<ele>208.484375</ele>
<time>2012-07-19T13:40:41Z</time>
<speed>0.010000</speed>
<extensions>
<speed>0.0</speed>
<temp>0.00</temp>
<bpm>0</bpm>
<rpm>0.00</rpm>
</extensions>
</trkpt>
<trkpt lat="64.192390442" lon="-20.951284409">
<ele>208.476563</ele>
<time>2012-07-19T13:40:46Z</time>
<speed>0.010000</speed>
<extensions>
<speed>0.0</speed>
<temp>0.00</temp>
<bpm>0</bpm>
<rpm>0.00</rpm>
</extensions>
</trkpt>
<trkpt lat="64.192390442" lon="-20.951284409">
<ele>208.453125</ele>
<time>2012-07-19T13:40:51Z</time>
<extensions>
<speed>0.0</speed>
<temp>0.00</temp>
<bpm>0</bpm>
<rpm>0.00</rpm>
</extensions>
</trkpt>
<trkpt lat="64.192390442" lon="-20.951284409">
<ele>208.449219</ele>
<time>2012-07-19T13:40:56Z</time>
<speed>0.010000</speed>
<extensions>
<speed>0.0</speed>
<temp>0.00</temp>
<bpm>0</bpm>
<rpm>0.00</rpm>
</extensions>
</trkpt>
<trkpt lat="64.192390442" lon="-20.951284409">
<ele>208.453125</ele>
<time>2012-07-19T13:41:01Z</time>
<speed>0.010000</speed>
<extensions>
<speed>0.0</speed>
<temp>0.00</temp>
<bpm>0</bpm>
<rpm>0.00</rpm>
</extensions>
</trkpt>
<trkpt lat="64.192390442" lon="-20.951284409">
<ele>208.468750</ele>
<time>2012-07-19T13:41:06Z</time>
<speed>0.010000</speed>
<extensions>
<speed>0.0</speed>
<temp>0.00</temp>
<bpm>0</bpm>
<rpm>0.00</rpm>
</extensions>
</trkpt>
<trkpt lat="64.192390442" lon="-20.951284409">
<ele>208.460938</ele>
<time>2012-07-19T13:41:11Z</time>
<speed>0.010000</speed>
<extensions>
<speed>0.0</speed>
<temp>0.00</temp>
<bpm>0</bpm>
<rpm>0.00</rpm>
</extensions>
</trkpt>
<trkpt lat="64.192390442" lon="-20.951284409">
<ele>208.460938</ele>
<time>2012-07-19T13:41:16Z</time>
<extensions>
<speed>0.0</speed>
<temp>0.00</temp>
<bpm>0</bpm>
<rpm>0.00</rpm>
</extensions>
</trkpt>
<trkpt lat="64.192390442" lon="-20.951284409">
<ele>208.445313</ele>
<time>2012-07-19T13:41:21Z</time>
<speed>0.010000</speed>
<extensions>
<speed>0.0</speed>
<temp>0.00</temp>
<bpm>0</bpm>
<rpm>0.00</rpm>
</extensions>
</trkpt>
<trkpt lat="64.192390442" lon="-20.951284409">
<ele>208.421875</ele>
<time>2012-07-19T13:41:26Z</time>
<speed>0.010000</speed>
<extensions>
<speed>0.0</speed>
<temp>0.00</temp>
<bpm>0</bpm>
<rpm>0.00</rpm>
</extensions>
</trkpt>
<trkpt lat="64.192390442" lon="-20.951284409">
<ele>208.410156</ele>
<time>2012-07-19T13:41:31Z</time>
<extensions>
<speed>0.0</speed>
<temp>0.00</temp>
<bpm>0</bpm>
<rpm>0.00</rpm>
</extensions>
</trkpt>
<trkpt lat="64.192390442" lon="-20.951284409">
<ele>208.378906</ele>
<time>2012-07-19T13:41:36Z</time>
<speed>0.010000</speed>
<extensions>
<speed>0.0</speed>
<temp>0.00</temp>
<bpm>0</bpm>
<rpm>0.00</rpm>
</extensions>
</trkpt>
<trkpt lat="64.192390442" lon="-20.951284409">
<ele>208.359375</ele>
<time>2012-07-19T13:41:41Z</time>
<extensions>
<speed>0.0</speed>
<temp>0.00</temp>
<bpm>0</bpm>
<rpm>0.00</rpm>
</extensions>
</trkpt>
<trkpt lat="64.192390442" lon="-20.951284409">
<ele>208.382813</ele>
<time>2012-07-19T13:41:46Z</time>
<extensions>
<speed>0.0</speed>
<temp>0.00</temp>
<bpm>0</bpm>
<rpm>0.00</rpm>
</extensions>
</trkpt>
<trkpt lat="64.192390442" lon="-20.951284409">
<ele>208.394531</ele>
<time>2012-07-19T13:41:51Z</time>
<extensions>
<speed>0.0</speed>
<temp>0.00</temp>
<bpm>0</bpm>
<rpm>0.00</rpm>
</extensions>
</trkpt>
<trkpt lat="64.192390442" lon="-20.951284409">
<ele>208.406250</ele>
<time>2012-07-19T13:41:56Z</time>
<speed>0.010000</speed>
<extensions>
<speed>0.0</speed>
<temp>0.00</temp>
<bpm>0</bpm>
<rpm>0.00</rpm>
</extensions>
</trkpt>
<trkpt lat="64.192390442" lon="-20.951286316">
<ele>208.406250</ele>
<time>2012-07-19T13:42:01Z</time>
<speed>0.030000</speed>
<extensions>
<speed>0.0</speed>
<temp>0.00</temp>
<bpm>0</bpm>
<rpm>0.00</rpm>
</extensions>
</trkpt>
<trkpt lat="64.192390442" lon="-20.951286316">
<ele>208.406250</ele>
<time>2012-07-19T13:42:06Z</time>
<speed>0.090000</speed>
<extensions>
<speed>0.1</speed>
<temp>0.00</temp>
<bpm>0</bpm>
<rpm>0.00</rpm>
</extensions>
</trkpt>
<trkpt lat="64.192390442" lon="-20.951286316">
<ele>208.648438</ele>
<time>2012-07-19T13:42:11Z</time>
<speed>0.050000</speed>
<extensions>
<speed>0.1</speed>
<temp>0.00</temp>
<bpm>0</bpm>
<rpm>0.00</rpm>
</extensions>
</trkpt>
<trkpt lat="64.192390442" lon="-20.951286316">
<ele>208.621094</ele>
<time>2012-07-19T13:42:16Z</time>
<extensions>
<speed>0.0</speed>
<temp>0.00</temp>
<bpm>0</bpm>
<rpm>0.00</rpm>
</extensions>
</trkpt>
<trkpt lat="64.192390442" lon="-20.951286316">
<ele>208.585938</ele>
<time>2012-07-19T13:42:21Z</time>
<extensions>
<speed>0.0</speed>
<temp>0.00</temp>
<bpm>0</bpm>
<rpm>0.00</rpm>
</extensions>
</trkpt>
<trkpt lat="64.192390442" lon="-20.951284409">
<ele>208.570313</ele>
<time>2012-07-19T13:42:26Z</time>
<extensions>
<speed>0.0</speed>
<temp>0.00</temp>
<bpm>0</bpm>
<rpm>0.00</rpm>
</extensions>
</trkpt>
<trkpt lat="64.192390442" lon="-20.951284409">
<ele>208.574219</ele>
<time>2012-07-19T13:42:31Z</time>
<speed>0.270000</speed>
<extensions>
<speed>0.3</speed>
<temp>0.00</temp>
<bpm>0</bpm>
<rpm>0.00</rpm>
</extensions>
</trkpt>
<trkpt lat="64.192398071" lon="-20.951284409">
<ele>208.390625</ele>
<time>2012-07-19T13:42:36Z</time>
<speed>0.790000</speed>
<extensions>
<speed>0.8</speed>
<temp>0.00</temp>
<bpm>0</bpm>
<rpm>0.00</rpm>
</extensions>
</trkpt>
<trkpt lat="64.192436218" lon="-20.951244354">
<ele>206.621094</ele>
<time>2012-07-19T13:42:41Z</time>
<speed>1.090000</speed>
<extensions>
<speed>1.1</speed>
<temp>0.00</temp>
<bpm>0</bpm>
<rpm>0.00</rpm>
</extensions>
</trkpt>
<trkpt lat="64.192436218" lon="-20.951128006">
<ele>204.136719</ele>
<time>2012-07-19T13:42:46Z</time>
<speed>1.430000</speed>
<extensions>
<speed>1.4</speed>
<temp>0.00</temp>
<bpm>0</bpm>
<rpm>0.00</rpm>
</extensions>
</trkpt>
<trkpt lat="64.192459106" lon="-20.950986862">
<ele>203.042969</ele>
<time>2012-07-19T13:42:51Z</time>
<speed>1.150000</speed>
<extensions>
<speed>1.1</speed>
<temp>0.00</temp>
<bpm>0</bpm>
<rpm>0.00</rpm>
</extensions>
</trkpt>
<trkpt lat="64.192474365" lon="-20.950885773">
<ele>203.097656</ele>
<time>2012-07-19T13:42:56Z</time>
<speed>0.030000</speed>
<extensions>
<speed>0.0</speed>
<temp>0.00</temp>
<bpm>0</bpm>
<rpm>0.00</rpm>
</extensions>
</trkpt>
<trkpt lat="64.192481995" lon="-20.950872421">
<ele>203.140625</ele>
<time>2012-07-19T13:43:01Z</time>
<speed>0.880000</speed>
<extensions>
<speed>0.9</speed>
<temp>0.00</temp>
<bpm>0</bpm>
<rpm>0.00</rpm>
</extensions>
</trkpt>
<trkpt lat="64.192497253" lon="-20.950674057">
<ele>202.992188</ele>
<time>2012-07-19T13:43:06Z</time>
<speed>2.480000</speed>
<extensions>
<speed>2.5</speed>
<temp>0.00</temp>
<bpm>0</bpm>
<rpm>0.00</rpm>
</extensions>
</trkpt>
<trkpt lat="64.192527771" lon="-20.950414658">
<ele>203.296875</ele>
<time>2012-07-19T13:43:11Z</time>
<speed>2.370000</speed>
<extensions>
<speed>2.4</speed>
<temp>0.00</temp>
<bpm>0</bpm>
<rpm>0.00</rpm>
</extensions>
</trkpt>
<trkpt lat="64.192588806" lon="-20.950149536">
<ele>202.742188</ele>
<time>2012-07-19T13:43:16Z</time>
<speed>3.240000</speed>
<extensions>
<speed>3.2</speed>
<temp>0.00</temp>
<bpm>0</bpm>
<rpm>0.00</rpm>
</extensions>
</trkpt>
<trkpt lat="64.192703247" lon="-20.949924469">
<ele>202.402344</ele>
<time>2012-07-19T13:43:21Z</time>
<speed>3.260000</speed>
<extensions>
<speed>3.3</speed>
<temp>0.00</temp>
<bpm>0</bpm>
<rpm>0.00</rpm>
</extensions>
</trkpt>
<trkpt lat="64.192810059" lon="-20.949693680">
<ele>202.230469</ele>
<time>2012-07-19T13:43:26Z</time>
<speed>3.150000</speed>
<extensions>
<speed>3.2</speed>
<temp>0.00</temp>
<bpm>0</bpm>
<rpm>0.00</rpm>
</extensions>
</trkpt>
<trkpt lat="64.192848206" lon="-20.949399948">
<ele>202.523438</ele>
<time>2012-07-19T13:43:31Z</time>
<speed>3.110000</speed>
<extensions>
<speed>3.1</speed>
<temp>0.00</temp>
<bpm>0</bpm>
<rpm>0.00</rpm>
</extensions>
</trkpt>
<trkpt lat="64.192802429" lon="-20.949087143">
<ele>202.554688</ele>
<time>2012-07-19T13:43:36Z</time>
<speed>3.490000</speed>
<extensions>
<speed>3.5</speed>
<temp>0.00</temp>
<bpm>0</bpm>
<rpm>0.00</rpm>
</extensions>
</trkpt>
<trkpt lat="64.192756653" lon="-20.948717117">
<ele>202.734375</ele>
<time>2012-07-19T13:43:41Z</time>
<speed>3.880000</speed>
<extensions>
<speed>3.9</speed>
<temp>0.00</temp>
<bpm>0</bpm>
<rpm>0.00</rpm>
</extensions>
</trkpt>
<trkpt lat="64.192703247" lon="-20.948322296">
<ele>201.992188</ele>
<time>2012-07-19T13:43:46Z</time>
<speed>3.750000</speed>
<extensions>
<speed>3.8</speed>
<temp>0.00</temp>
<bpm>0</bpm>
<rpm>0.00</rpm>
</extensions>
</trkpt>
<trkpt lat="64.192657471" lon="-20.947935104">
<ele>201.156250</ele>
<time>2012-07-19T13:43:51Z</time>
<speed>4.170000</speed>
<extensions>
<speed>4.2</speed>
<temp>0.00</temp>
<bpm>0</bpm>
<rpm>0.00</rpm>
</extensions>
</trkpt>
<trkpt lat="64.192611694" lon="-20.947490692">
<ele>200.527344</ele>
<time>2012-07-19T13:43:56Z</time>
<speed>4.560000</speed>
<extensions>
<speed>4.6</speed>
<temp>0.00</temp>
<bpm>0</bpm>
<rpm>0.00</rpm>
</extensions>
</trkpt>
<trkpt lat="64.192558289" lon="-20.947021484">
<ele>199.117188</ele>
<time>2012-07-19T13:44:01Z</time>
<speed>4.930000</speed>
<extensions>
<speed>4.9</speed>
<temp>0.00</temp>
<bpm>0</bpm>
<rpm>0.00</rpm>
</extensions>
</trkpt>
<trkpt lat="64.192489624" lon="-20.946569443">
<ele>199.789063</ele>
<time>2012-07-19T13:44:06Z</time>
<speed>4.980000</speed>
<extensions>
<speed>5.0</speed>
<temp>0.00</temp>
<bpm>0</bpm>
<rpm>0.00</rpm>
</extensions>
</trkpt>
<trkpt lat="64.192428589" lon="-20.946107864">
<ele>201.277344</ele>
<time>2012-07-19T13:44:11Z</time>
<speed>4.930000</speed>
<extensions>
<speed>4.9</speed>
<temp>0.00</temp>
<bpm>0</bpm>
<rpm>0.00</rpm>
</extensions>
</trkpt>
<trkpt lat="64.192367554" lon="-20.945625305">
<ele>202.636719</ele>
<time>2012-07-19T13:44:16Z</time>
<speed>5.250000</speed>
<extensions>
<speed>5.2</speed>
<temp>0.00</temp>
<bpm>0</bpm>
<rpm>0.00</rpm>
</extensions>
</trkpt>
<trkpt lat="64.192306519" lon="-20.945106506">
<ele>202.703125</ele>
<time>2012-07-19T13:44:21Z</time>
<speed>5.380000</speed>
<extensions>
<speed>5.4</speed>
<temp>0.00</temp>
<bpm>0</bpm>
<rpm>0.00</rpm>
</extensions>
</trkpt>
<trkpt lat="64.192245483" lon="-20.944566727">
<ele>200.921875</ele>
<time>2012-07-19T13:44:26Z</time>
<speed>5.500000</speed>
<extensions>
<speed>5.5</speed>
<temp>0.00</temp>
<bpm>0</bpm>
<rpm>0.00</rpm>
</extensions>
</trkpt>
<trkpt lat="64.192192078" lon="-20.944025040">
<ele>200.332031</ele>
<time>2012-07-19T13:44:31Z</time>
<speed>5.160000</speed>
<extensions>
<speed>5.2</speed>
<temp>0.00</temp>
<bpm>0</bpm>
<rpm>0.00</rpm>
</extensions>
</trkpt>
<trkpt lat="64.192146301" lon="-20.943553925">
<ele>202.164063</ele>
<time>2012-07-19T13:44:36Z</time>
<speed>4.460000</speed>
<extensions>
<speed>4.5</speed>
<temp>0.00</temp>
<bpm>0</bpm>
<rpm>0.00</rpm>
</extensions>
</trkpt>
<trkpt lat="64.192092896" lon="-20.943147659">
<ele>202.312500</ele>
<time>2012-07-19T13:44:41Z</time>
<speed>3.810000</speed>
<extensions>
<speed>3.8</speed>
<temp>0.00</temp>
<bpm>0</bpm>
<rpm>0.00</rpm>
</extensions>
</trkpt>
<trkpt lat="64.192047119" lon="-20.942733765">
<ele>203.484375</ele>
<time>2012-07-19T13:44:46Z</time>
<speed>4.560000</speed>
<extensions>
<speed>4.6</speed>
<temp>0.00</temp>
<bpm>0</bpm>
<rpm>0.00</rpm>
</extensions>
</trkpt>
<trkpt lat="64.192008972" lon="-20.942251205">
<ele>204.339844</ele>
<time>2012-07-19T13:44:51Z</time>
<speed>5.050000</speed>
<extensions>
<speed>5.1</speed>
<temp>0.00</temp>
<bpm>0</bpm>
<rpm>0.00</rpm>
</extensions>
</trkpt>
<trkpt lat="64.191963196" lon="-20.941732407">
<ele>204.292969</ele>
<time>2012-07-19T13:44:56Z</time>
<speed>5.450000</speed>
<extensions>
<speed>5.5</speed>
<temp>0.00</temp>
<bpm>0</bpm>
<rpm>0.00</rpm>
</extensions>
</trkpt>
<trkpt lat="64.191917419" lon="-20.941171646">
<ele>203.136719</ele>
<time>2012-07-19T13:45:01Z</time>
<speed>5.500000</speed>
<extensions>
<speed>5.5</speed>
<temp>0.00</temp>
<bpm>0</bpm>
<rpm>0.00</rpm>
</extensions>
</trkpt>
<trkpt lat="64.191879272" lon="-20.940612793">
<ele>204.593750</ele>
<time>2012-07-19T13:45:06Z</time>
<speed>5.420000</speed>
<extensions>
<speed>5.4</speed>
<temp>0.00</temp>
<bpm>0</bpm>
<rpm>0.00</rpm>
</extensions>
</trkpt>
<trkpt lat="64.191841125" lon="-20.940080643">
<ele>206.121094</ele>
<time>2012-07-19T13:45:11Z</time>
<speed>5.360000</speed>
<extensions>
<speed>5.4</speed>
<temp>0.00</temp>
<bpm>0</bpm>
<rpm>0.00</rpm>
</extensions>
</trkpt>
<trkpt lat="64.191802979" lon="-20.939540863">
<ele>205.140625</ele>
<time>2012-07-19T13:45:16Z</time>
<speed>5.390000</speed>
<extensions>
<speed>5.4</speed>
<temp>0.00</temp>
<bpm>0</bpm>
<rpm>0.00</rpm>
</extensions>
</trkpt>
<trkpt lat="64.191764832" lon="-20.938976288">
<ele>205.578125</ele>
<time>2012-07-19T13:45:21Z</time>
<speed>5.730000</speed>
<extensions>
<speed>5.7</speed>
<temp>0.00</temp>
<bpm>0</bpm>
<rpm>0.00</rpm>
</extensions>
</trkpt>
<trkpt lat="64.191726685" lon="-20.938400269">
<ele>206.398438</ele>
<time>2012-07-19T13:45:26Z</time>
<speed>5.670000</speed>
<extensions>
<speed>5.7</speed>
<temp>0.00</temp>
<bpm>0</bpm>
<rpm>0.00</rpm>
</extensions>
</trkpt>
<trkpt lat="64.191696167" lon="-20.937799454">
<ele>206.335938</ele>
<time>2012-07-19T13:45:31Z</time>
<speed>5.860000</speed>
<extensions>
<speed>5.9</speed>
<temp>0.00</temp>
<bpm>0</bpm>
<rpm>0.00</rpm>
</extensions>
</trkpt>
<trkpt lat="64.191665649" lon="-20.937192917">
<ele>206.488281</ele>
<time>2012-07-19T13:45:36Z</time>
<speed>5.900000</speed>
<extensions>
<speed>5.9</speed>
<temp>0.00</temp>
<bpm>0</bpm>
<rpm>0.00</rpm>
</extensions>
</trkpt>
<trkpt lat="64.191635132" lon="-20.936578751">
<ele>206.390625</ele>
<time>2012-07-19T13:45:41Z</time>
<speed>6.020000</speed>
<extensions>
<speed>6.0</speed>
<temp>0.00</temp>
<bpm>0</bpm>
<rpm>0.00</rpm>
</extensions>
</trkpt>
<trkpt lat="64.191612244" lon="-20.935920715">
<ele>204.960938</ele>
<time>2012-07-19T13:45:46Z</time>
<speed>6.020000</speed>
<extensions>
<speed>6.0</speed>
<temp>0.00</temp>
<bpm>0</bpm>
<rpm>0.00</rpm>
</extensions>
</trkpt>
<trkpt lat="64.191589355" lon="-20.935264587">
<ele>203.257813</ele>
<time>2012-07-19T13:45:51Z</time>
<speed>6.050000</speed>
<extensions>
<speed>6.1</speed>
<temp>0.00</temp>
<bpm>0</bpm>
<rpm>0.00</rpm>
</extensions>
</trkpt>
<trkpt lat="64.191566467" lon="-20.934669495">
<ele>203.429688</ele>
<time>2012-07-19T13:45:56Z</time>
<speed>5.790000</speed>
<extensions>
<speed>5.8</speed>
<temp>0.00</temp>
<bpm>0</bpm>
<rpm>0.00</rpm>
</extensions>
</trkpt>
<trkpt lat="64.191551208" lon="-20.934061050">
<ele>202.925781</ele>
<time>2012-07-19T13:46:01Z</time>
<speed>5.610000</speed>
<extensions>
<speed>5.6</speed>
<temp>0.00</temp>
<bpm>0</bpm>
<rpm>0.00</rpm>
</extensions>
</trkpt>
<trkpt lat="64.191543579" lon="-20.933540344">
<ele>203.035156</ele>
<time>2012-07-19T13:46:06Z</time>
<speed>4.650000</speed>
<extensions>
<speed>4.6</speed>
<temp>0.00</temp>
<bpm>0</bpm>
<rpm>0.00</rpm>
</extensions>
</trkpt>
<trkpt lat="64.191535950" lon="-20.933073044">
<ele>203.851563</ele>
<time>2012-07-19T13:46:11Z</time>
<speed>4.930000</speed>
<extensions>
<speed>4.9</speed>
<temp>0.00</temp>
<bpm>0</bpm>
<rpm>0.00</rpm>
</extensions>
</trkpt>
<trkpt lat="64.191528320" lon="-20.932548523">
<ele>204.179688</ele>
<time>2012-07-19T13:46:16Z</time>
<speed>5.330000</speed>
<extensions>
<speed>5.3</speed>
<temp>0.00</temp>
<bpm>0</bpm>
<rpm>0.00</rpm>
</extensions>
</trkpt>
<trkpt lat="64.191528320" lon="-20.931985855">
<ele>204.757813</ele>
<time>2012-07-19T13:46:21Z</time>
<speed>5.570000</speed>
<extensions>
<speed>5.6</speed>
<temp>0.00</temp>
<bpm>0</bpm>
<rpm>0.00</rpm>
</extensions>
</trkpt>
<trkpt lat="64.191528320" lon="-20.931413651">
<ele>204.957031</ele>
<time>2012-07-19T13:46:26Z</time>
<speed>5.660000</speed>
<extensions>
<speed>5.7</speed>
<temp>0.00</temp>
<bpm>0</bpm>
<rpm>0.00</rpm>
</extensions>
</trkpt>
<trkpt lat="64.191528320" lon="-20.930835724">
<ele>205.578125</ele>
<time>2012-07-19T13:46:31Z</time>
<speed>5.690000</speed>
<extensions>
<speed>5.7</speed>
<temp>0.00</temp>
<bpm>0</bpm>
<rpm>0.00</rpm>
</extensions>
</trkpt>
<trkpt lat="64.191543579" lon="-20.930253983">
<ele>205.789063</ele>
<time>2012-07-19T13:46:36Z</time>
<speed>5.580000</speed>
<extensions>
<speed>5.6</speed>
<temp>0.00</temp>
<bpm>0</bpm>
<rpm>0.00</rpm>
</extensions>
</trkpt>
<trkpt lat="64.191551208" lon="-20.929676056">
<ele>207.289063</ele>
<time>2012-07-19T13:46:41Z</time>
<speed>5.820000</speed>
<extensions>
<speed>5.8</speed>
<temp>0.00</temp>
<bpm>0</bpm>
<rpm>0.00</rpm>
</extensions>
</trkpt>
<trkpt lat="64.191566467" lon="-20.929069519">
<ele>206.183594</ele>
<time>2012-07-19T13:46:46Z</time>
<speed>5.690000</speed>
<extensions>
<speed>5.7</speed>
<temp>0.00</temp>
<bpm>0</bpm>
<rpm>0.00</rpm>
</extensions>
</trkpt>
<trkpt lat="64.191581726" lon="-20.928527832">
<ele>206.972656</ele>
<time>2012-07-19T13:46:51Z</time>
<speed>5.510000</speed>
<extensions>
<speed>5.5</speed>
<temp>0.00</temp>
<bpm>0</bpm>
<rpm>0.00</rpm>
</extensions>
</trkpt>
<trkpt lat="64.191596985" lon="-20.927963257">
<ele>207.410156</ele>
<time>2012-07-19T13:46:56Z</time>
<speed>5.580000</speed>
<extensions>
<speed>5.6</speed>
<temp>0.00</temp>
<bpm>0</bpm>
<rpm>0.00</rpm>
</extensions>
</trkpt>
<trkpt lat="64.191619873" lon="-20.927406311">
<ele>207.640625</ele>
<time>2012-07-19T13:47:01Z</time>
<speed>5.470000</speed>
<extensions>
<speed>5.5</speed>
<temp>0.00</temp>
<bpm>0</bpm>
<rpm>0.00</rpm>
</extensions>
</trkpt>
<trkpt lat="64.191650391" lon="-20.926837921">
<ele>208.410156</ele>
<time>2012-07-19T13:47:06Z</time>
<speed>5.720000</speed>
<extensions>
<speed>5.7</speed>
<temp>0.00</temp>
<bpm>0</bpm>
<rpm>0.00</rpm>
</extensions>
</trkpt>
<trkpt lat="64.191673279" lon="-20.926248550">
<ele>208.085938</ele>
<time>2012-07-19T13:47:11Z</time>
<speed>5.840000</speed>
<extensions>
<speed>5.8</speed>
<temp>0.00</temp>
<bpm>0</bpm>
<rpm>0.00</rpm>
</extensions>
</trkpt>
<trkpt lat="64.191703796" lon="-20.925640106">
<ele>208.144531</ele>
<time>2012-07-19T13:47:16Z</time>
<speed>6.170000</speed>
<extensions>
<speed>6.2</speed>
<temp>0.00</temp>
<bpm>0</bpm>
<rpm>0.00</rpm>
</extensions>
</trkpt>
<trkpt lat="64.191741943" lon="-20.925014496">
<ele>208.472656</ele>
<time>2012-07-19T13:47:21Z</time>
<speed>5.870000</speed>
<extensions>
<speed>5.9</speed>
<temp>0.00</temp>
<bpm>0</bpm>
<rpm>0.00</rpm>
</extensions>
</trkpt>
<trkpt lat="64.191780090" lon="-20.924398422">
<ele>208.699219</ele>
<time>2012-07-19T13:47:26Z</time>
<speed>6.090000</speed>
<extensions>
<speed>6.1</speed>
<temp>0.00</temp>
<bpm>0</bpm>
<rpm>0.00</rpm>
</extensions>
</trkpt>
<trkpt lat="64.191825867" lon="-20.923757553">
<ele>209.289063</ele>
<time>2012-07-19T13:47:31Z</time>
<speed>6.130000</speed>
<extensions>
<speed>6.1</speed>
<temp>0.00</temp>
<bpm>0</bpm>
<rpm>0.00</rpm>
</extensions>
</trkpt>
<trkpt lat="64.191871643" lon="-20.923114777">
<ele>208.996094</ele>
<time>2012-07-19T13:47:36Z</time>
<speed>6.130000</speed>
<extensions>
<speed>6.1</speed>
<temp>0.00</temp>
<bpm>0</bpm>
<rpm>0.00</rpm>
</extensions>
</trkpt>
<trkpt lat="64.191925049" lon="-20.922498703">
<ele>209.312500</ele>
<time>2012-07-19T13:47:41Z</time>
<speed>6.310000</speed>
<extensions>
<speed>6.3</speed>
<temp>0.00</temp>
<bpm>0</bpm>
<rpm>0.00</rpm>
</extensions>
</trkpt>
<trkpt lat="64.191978455" lon="-20.921840668">
<ele>209.441406</ele>
<time>2012-07-19T13:47:46Z</time>
<speed>6.640000</speed>
<extensions>
<speed>6.6</speed>
<temp>0.00</temp>
<bpm>0</bpm>
<rpm>0.00</rpm>
</extensions>
</trkpt>
<trkpt lat="64.192039490" lon="-20.921171188">
<ele>209.656250</ele>
<time>2012-07-19T13:47:51Z</time>
<speed>6.660000</speed>
<extensions>
<speed>6.7</speed>
<temp>0.00</temp>
<bpm>0</bpm>
<rpm>0.00</rpm>
</extensions>
</trkpt>
<trkpt lat="64.192108154" lon="-20.920492172">
<ele>209.707031</ele>
<time>2012-07-19T13:47:56Z</time>
<speed>6.940000</speed>
<extensions>
<speed>6.9</speed>
<temp>0.00</temp>
<bpm>0</bpm>
<rpm>0.00</rpm>
</extensions>
</trkpt>
<trkpt lat="64.192176819" lon="-20.919776917">
<ele>209.503906</ele>
<time>2012-07-19T13:48:01Z</time>
<speed>7.300000</speed>
<extensions>
<speed>7.3</speed>
<temp>0.00</temp>
<bpm>0</bpm>
<rpm>0.00</rpm>
</extensions>
</trkpt>
<trkpt lat="64.192253113" lon="-20.919036865">
<ele>208.972656</ele>
<time>2012-07-19T13:48:06Z</time>
<speed>7.490000</speed>
<extensions>
<speed>7.5</speed>
<temp>0.00</temp>
<bpm>0</bpm>
<rpm>0.00</rpm>
</extensions>
</trkpt>
<trkpt lat="64.192337036" lon="-20.918283463">
<ele>208.558594</ele>
<time>2012-07-19T13:48:11Z</time>
<speed>7.610000</speed>
<extensions>
<speed>7.6</speed>
<temp>0.00</temp>
<bpm>0</bpm>
<rpm>0.00</rpm>
</extensions>
</trkpt>
<trkpt lat="64.192436218" lon="-20.917518616">
<ele>207.914063</ele>
<time>2012-07-19T13:48:16Z</time>
<speed>7.890000</speed>
<extensions>
<speed>7.9</speed>
<temp>0.00</temp>
<bpm>0</bpm>
<rpm>0.00</rpm>
</extensions>
</trkpt>
<trkpt lat="64.192535400" lon="-20.916721344">
<ele>207.082031</ele>
<time>2012-07-19T13:48:21Z</time>
<speed>8.180000</speed>
<extensions>
<speed>8.2</speed>
<temp>0.00</temp>
<bpm>0</bpm>
<rpm>0.00</rpm>
</extensions>
</trkpt>
<trkpt lat="64.192649841" lon="-20.915910721">
<ele>206.238281</ele>
<time>2012-07-19T13:48:26Z</time>
<speed>8.340000</speed>
<extensions>
<speed>8.3</speed>
<temp>0.00</temp>
<bpm>0</bpm>
<rpm>0.00</rpm>
</extensions>
</trkpt>
<trkpt lat="64.192771912" lon="-20.915094376">
<ele>205.535156</ele>
<time>2012-07-19T13:48:31Z</time>
<speed>8.480000</speed>
<extensions>
<speed>8.5</speed>
<temp>0.00</temp>
<bpm>0</bpm>
<rpm>0.00</rpm>
</extensions>
</trkpt>
<trkpt lat="64.192901611" lon="-20.914262772">
<ele>205.164063</ele>
<time>2012-07-19T13:48:36Z</time>
<speed>8.470000</speed>
<extensions>
<speed>8.5</speed>
<temp>0.00</temp>
<bpm>0</bpm>
<rpm>0.00</rpm>
</extensions>
</trkpt>
<trkpt lat="64.193031311" lon="-20.913446426">
<ele>204.781250</ele>
<time>2012-07-19T13:48:41Z</time>
<speed>8.280000</speed>
<extensions>
<speed>8.3</speed>
<temp>0.00</temp>
<bpm>0</bpm>
<rpm>0.00</rpm>
</extensions>
</trkpt>
<trkpt lat="64.193168640" lon="-20.912660599">
<ele>204.562500</ele>
<time>2012-07-19T13:48:46Z</time>
<speed>8.080000</speed>
<extensions>
<speed>8.1</speed>
<temp>0.00</temp>
<bpm>0</bpm>
<rpm>0.00</rpm>
</extensions>
</trkpt>
<trkpt lat="64.193305969" lon="-20.911905289">
<ele>204.316406</ele>
<time>2012-07-19T13:48:51Z</time>
<speed>7.870000</speed>
<extensions>
<speed>7.9</speed>
<temp>0.00</temp>
<bpm>0</bpm>
<rpm>0.00</rpm>
</extensions>
</trkpt>
<trkpt lat="64.193443298" lon="-20.911155701">
<ele>204.054688</ele>
<time>2012-07-19T13:48:56Z</time>
<speed>7.920000</speed>
<extensions>
<speed>7.9</speed>
<temp>0.00</temp>
<bpm>0</bpm>
<rpm>0.00</rpm>
</extensions>
</trkpt>
<trkpt lat="64.193580627" lon="-20.910409927">
<ele>203.652344</ele>
<time>2012-07-19T13:49:01Z</time>
<speed>8.020000</speed>
<extensions>
<speed>8.0</speed>
<temp>0.00</temp>
<bpm>0</bpm>
<rpm>0.00</rpm>
</extensions>
</trkpt>
<trkpt lat="64.193733215" lon="-20.909654617">
<ele>203.058594</ele>
<time>2012-07-19T13:49:06Z</time>
<speed>8.070000</speed>
<extensions>
<speed>8.1</speed>
<temp>0.00</temp>
<bpm>0</bpm>
<rpm>0.00</rpm>
</extensions>
</trkpt>
<trkpt lat="64.193893433" lon="-20.908906937">
<ele>202.160156</ele>
<time>2012-07-19T13:49:11Z</time>
<speed>8.200000</speed>
<extensions>
<speed>8.2</speed>
<temp>0.00</temp>
<bpm>0</bpm>
<rpm>0.00</rpm>
</extensions>
</trkpt>
<trkpt lat="64.194061279" lon="-20.908143997">
<ele>201.363281</ele>
<time>2012-07-19T13:49:16Z</time>
<speed>8.210000</speed>
<extensions>
<speed>8.2</speed>
<temp>0.00</temp>
<bpm>0</bpm>
<rpm>0.00</rpm>
</extensions>
</trkpt>
<trkpt lat="64.194229126" lon="-20.907392502">
<ele>199.894531</ele>
<time>2012-07-19T13:49:21Z</time>
<speed>8.400000</speed>
<extensions>
<speed>8.4</speed>
<temp>0.00</temp>
<bpm>0</bpm>
<rpm>0.00</rpm>
</extensions>
</trkpt>
<trkpt lat="64.194404602" lon="-20.906608582">
<ele>198.527344</ele>
<time>2012-07-19T13:49:26Z</time>
<speed>8.870000</speed>
<extensions>
<speed>8.9</speed>
<temp>0.00</temp>
<bpm>0</bpm>
<rpm>0.00</rpm>
</extensions>
</trkpt>
<trkpt lat="64.194580078" lon="-20.905788422">
<ele>197.261719</ele>
<time>2012-07-19T13:49:31Z</time>
<speed>8.770000</speed>
<extensions>
<speed>8.8</speed>
<temp>0.00</temp>
<bpm>0</bpm>
<rpm>0.00</rpm>
</extensions>
</trkpt>
<trkpt lat="64.194755554" lon="-20.904975891">
<ele>195.808594</ele>
<time>2012-07-19T13:49:36Z</time>
<speed>8.870000</speed>
<extensions>
<speed>8.9</speed>
<temp>0.00</temp>
<bpm>0</bpm>
<rpm>0.00</rpm>
</extensions>
</trkpt>
<trkpt lat="64.194931030" lon="-20.904134750">
<ele>194.511719</ele>
<time>2012-07-19T13:49:41Z</time>
<speed>9.030000</speed>
<extensions>
<speed>9.0</speed>
<temp>0.00</temp>
<bpm>0</bpm>
<rpm>0.00</rpm>
</extensions>
</trkpt>
<trkpt lat="64.195098877" lon="-20.903272629">
<ele>192.980469</ele>
<time>2012-07-19T13:49:46Z</time>
<speed>9.230000</speed>
<extensions>
<speed>9.2</speed>
<temp>0.00</temp>
<bpm>0</bpm>
<rpm>0.00</rpm>
</extensions>
</trkpt>
<trkpt lat="64.195259094" lon="-20.902395248">
<ele>191.378906</ele>
<time>2012-07-19T13:49:51Z</time>
<speed>9.230000</speed>
<extensions>
<speed>9.2</speed>
<temp>0.00</temp>
<bpm>0</bpm>
<rpm>0.00</rpm>
</extensions>
</trkpt>
<trkpt lat="64.195411682" lon="-20.901515961">
<ele>190.218750</ele>
<time>2012-07-19T13:49:56Z</time>
<speed>9.180000</speed>
<extensions>
<speed>9.2</speed>
<temp>0.00</temp>
<bpm>0</bpm>
<rpm>0.00</rpm>
</extensions>
</trkpt>
<trkpt lat="64.195564270" lon="-20.900630951">
<ele>189.054688</ele>
<time>2012-07-19T13:50:01Z</time>
<speed>9.140000</speed>
<extensions>
<speed>9.1</speed>
<temp>0.00</temp>
<bpm>0</bpm>
<rpm>0.00</rpm>
</extensions>
</trkpt>
<trkpt lat="64.195701599" lon="-20.899765015">
<ele>188.363281</ele>
<time>2012-07-19T13:50:06Z</time>
<speed>8.920000</speed>
<extensions>
<speed>8.9</speed>
<temp>0.00</temp>
<bpm>0</bpm>
<rpm>0.00</rpm>
</extensions>
</trkpt>
<trkpt lat="64.195838928" lon="-20.898908615">
<ele>187.710938</ele>
<time>2012-07-19T13:50:11Z</time>
<speed>8.710000</speed>
<extensions>
<speed>8.7</speed>
<temp>0.00</temp>
<bpm>0</bpm>
<rpm>0.00</rpm>
</extensions>
</trkpt>
<trkpt lat="64.195960999" lon="-20.898071289">
<ele>187.648438</ele>
<time>2012-07-19T13:50:16Z</time>
<speed>8.400000</speed>
<extensions>
<speed>8.4</speed>
<temp>0.00</temp>
<bpm>0</bpm>
<rpm>0.00</rpm>
</extensions>
</trkpt>
<trkpt lat="64.196075439" lon="-20.897274017">
<ele>187.511719</ele>
<time>2012-07-19T13:50:21Z</time>
<speed>8.040000</speed>
<extensions>
<speed>8.0</speed>
<temp>0.00</temp>
<bpm>0</bpm>
<rpm>0.00</rpm>
</extensions>
</trkpt>
<trkpt lat="64.196205139" lon="-20.896486282">
<ele>188.187500</ele>
<time>2012-07-19T13:50:26Z</time>
<speed>8.150000</speed>
<extensions>
<speed>8.2</speed>
<temp>0.00</temp>
<bpm>0</bpm>
<rpm>0.00</rpm>
</extensions>
</trkpt>
<trkpt lat="64.196304321" lon="-20.895696640">
<ele>187.867188</ele>
<time>2012-07-19T13:50:31Z</time>
<speed>7.950000</speed>
<extensions>
<speed>8.0</speed>
<temp>0.00</temp>
<bpm>0</bpm>
<rpm>0.00</rpm>
</extensions>
</trkpt>
<trkpt lat="64.196403503" lon="-20.894920349">
<ele>187.714844</ele>
<time>2012-07-19T13:50:36Z</time>
<speed>7.770000</speed>
<extensions>
<speed>7.8</speed>
<temp>0.00</temp>
<bpm>0</bpm>
<rpm>0.00</rpm>
</extensions>
</trkpt>
<trkpt lat="64.196495056" lon="-20.894155502">
<ele>187.644531</ele>
<time>2012-07-19T13:50:41Z</time>
<speed>7.570000</speed>
<extensions>
<speed>7.6</speed>
<temp>0.00</temp>
<bpm>0</bpm>
<rpm>0.00</rpm>
</extensions>
</trkpt>
<trkpt lat="64.196563721" lon="-20.893445969">
<ele>187.222656</ele>
<time>2012-07-19T13:50:46Z</time>
<speed>7.030000</speed>
<extensions>
<speed>7.0</speed>
<temp>0.00</temp>
<bpm>0</bpm>
<rpm>0.00</rpm>
</extensions>
</trkpt>
<trkpt lat="64.196640015" lon="-20.892730713">
<ele>187.078125</ele>
<time>2012-07-19T13:50:51Z</time>
<speed>7.180000</speed>
<extensions>
<speed>7.2</speed>
<temp>0.00</temp>
<bpm>0</bpm>
<rpm>0.00</rpm>
</extensions>
</trkpt>
<trkpt lat="64.196716309" lon="-20.892005920">
<ele>186.667969</ele>
<time>2012-07-19T13:50:56Z</time>
<speed>7.430000</speed>
<extensions>
<speed>7.4</speed>
<temp>0.00</temp>
<bpm>0</bpm>
<rpm>0.00</rpm>
</extensions>
</trkpt>
<trkpt lat="64.196792603" lon="-20.891250610">
<ele>186.335938</ele>
<time>2012-07-19T13:51:01Z</time>
<speed>7.650000</speed>
<extensions>
<speed>7.7</speed>
<temp>0.00</temp>
<bpm>0</bpm>
<rpm>0.00</rpm>
</extensions>
</trkpt>
<trkpt lat="64.196868896" lon="-20.890468597">
<ele>186.390625</ele>
<time>2012-07-19T13:51:06Z</time>
<speed>8.170000</speed>
<extensions>
<speed>8.2</speed>
<temp>0.00</temp>
<bpm>0</bpm>
<rpm>0.00</rpm>
</extensions>
</trkpt>
<trkpt lat="64.196937561" lon="-20.889673233">
<ele>185.824219</ele>
<time>2012-07-19T13:51:11Z</time>
<speed>7.920000</speed>
<extensions>
<speed>7.9</speed>
<temp>0.00</temp>
<bpm>0</bpm>
<rpm>0.00</rpm>
</extensions>
</trkpt>
<trkpt lat="64.196990967" lon="-20.888868332">
<ele>185.210938</ele>
<time>2012-07-19T13:51:16Z</time>
<speed>7.990000</speed>
<extensions>
<speed>8.0</speed>
<temp>0.00</temp>
<bpm>0</bpm>
<rpm>0.00</rpm>
</extensions>
</trkpt>
<trkpt lat="64.197052002" lon="-20.888084412">
<ele>185.441406</ele>
<time>2012-07-19T13:51:21Z</time>
<speed>7.480000</speed>
<extensions>
<speed>7.5</speed>
<temp>0.00</temp>
<bpm>0</bpm>
<rpm>0.00</rpm>
</extensions>
</trkpt>
<trkpt lat="64.197090149" lon="-20.887340546">
<ele>185.117188</ele>
<time>2012-07-19T13:51:26Z</time>
<speed>7.110000</speed>
<extensions>
<speed>7.1</speed>
<temp>0.00</temp>
<bpm>0</bpm>
<rpm>0.00</rpm>
</extensions>
</trkpt>
<trkpt lat="64.197135925" lon="-20.886646271">
<ele>184.562500</ele>
<time>2012-07-19T13:51:31Z</time>
<speed>6.720000</speed>
<extensions>
<speed>6.7</speed>
<temp>0.00</temp>
<bpm>0</bpm>
<rpm>0.00</rpm>
</extensions>
</trkpt>
<trkpt lat="64.197181702" lon="-20.885986328">
<ele>184.171875</ele>
<time>2012-07-19T13:51:36Z</time>
<speed>6.320000</speed>
<extensions>
<speed>6.3</speed>
<temp>0.00</temp>
<bpm>0</bpm>
<rpm>0.00</rpm>
</extensions>
</trkpt>
<trkpt lat="64.197219849" lon="-20.885341644">
<ele>183.742188</ele>
<time>2012-07-19T13:51:41Z</time>
<speed>6.650000</speed>
<extensions>
<speed>6.7</speed>
<temp>0.00</temp>
<bpm>0</bpm>
<rpm>0.00</rpm>
</extensions>
</trkpt>
<trkpt lat="64.197265625" lon="-20.884634018">
<ele>183.003906</ele>
<time>2012-07-19T13:51:46Z</time>
<speed>6.430000</speed>
<extensions>
<speed>6.4</speed>
<temp>0.00</temp>
<bpm>0</bpm>
<rpm>0.00</rpm>
</extensions>
</trkpt>
<trkpt lat="64.197319031" lon="-20.883901596">
<ele>182.390625</ele>
<time>2012-07-19T13:51:51Z</time>
<speed>7.410000</speed>
<extensions>
<speed>7.4</speed>
<temp>0.00</temp>
<bpm>0</bpm>
<rpm>0.00</rpm>
</extensions>
</trkpt>
<trkpt lat="64.197380066" lon="-20.883134842">
<ele>181.914063</ele>
<time>2012-07-19T13:51:56Z</time>
<speed>7.500000</speed>
<extensions>
<speed>7.5</speed>
<temp>0.00</temp>
<bpm>0</bpm>
<rpm>0.00</rpm>
</extensions>
</trkpt>
<trkpt lat="64.197441101" lon="-20.882369995">
<ele>181.269531</ele>
<time>2012-07-19T13:52:01Z</time>
<speed>7.510000</speed>
<extensions>
<speed>7.5</speed>
<temp>0.00</temp>
<bpm>0</bpm>
<rpm>0.00</rpm>
</extensions>
</trkpt>
<trkpt lat="64.197502136" lon="-20.881597519">
<ele>180.656250</ele>
<time>2012-07-19T13:52:06Z</time>
<speed>7.440000</speed>
<extensions>
<speed>7.4</speed>
<temp>0.00</temp>
<bpm>0</bpm>
<rpm>0.00</rpm>
</extensions>
</trkpt>
<trkpt lat="64.197578430" lon="-20.880859375">
<ele>180.484375</ele>
<time>2012-07-19T13:52:11Z</time>
<speed>7.480000</speed>
<extensions>
<speed>7.5</speed>
<temp>0.00</temp>
<bpm>0</bpm>
<rpm>0.00</rpm>
</extensions>
</trkpt>
<trkpt lat="64.197662354" lon="-20.880111694">
<ele>180.390625</ele>
<time>2012-07-19T13:52:16Z</time>
<speed>7.450000</speed>
<extensions>
<speed>7.4</speed>
<temp>0.00</temp>
<bpm>0</bpm>
<rpm>0.00</rpm>
</extensions>
</trkpt>
<trkpt lat="64.197731018" lon="-20.879373550">
<ele>180.144531</ele>
<time>2012-07-19T13:52:21Z</time>
<speed>7.460000</speed>
<extensions>
<speed>7.5</speed>
<temp>0.00</temp>
<bpm>0</bpm>
<rpm>0.00</rpm>
</extensions>
</trkpt>
<trkpt lat="64.197822571" lon="-20.878633499">
<ele>180.019531</ele>
<time>2012-07-19T13:52:26Z</time>
<speed>7.340000</speed>
<extensions>
<speed>7.3</speed>
<temp>0.00</temp>
<bpm>0</bpm>
<rpm>0.00</rpm>
</extensions>
</trkpt>
<trkpt lat="64.197906494" lon="-20.877908707">
<ele>179.730469</ele>
<time>2012-07-19T13:52:31Z</time>
<speed>7.140000</speed>
<extensions>
<speed>7.1</speed>
<temp>0.00</temp>
<bpm>0</bpm>
<rpm>0.00</rpm>
</extensions>
</trkpt>
<trkpt lat="64.197990417" lon="-20.877222061">
<ele>179.406250</ele>
<time>2012-07-19T13:52:36Z</time>
<speed>6.800000</speed>
<extensions>
<speed>6.8</speed>
<temp>0.00</temp>
<bpm>0</bpm>
<rpm>0.00</rpm>
</extensions>
</trkpt>
<trkpt lat="64.198059082" lon="-20.876573563">
<ele>178.554688</ele>
<time>2012-07-19T13:52:41Z</time>
<speed>6.630000</speed>
<extensions>
<speed>6.6</speed>
<temp>0.00</temp>
<bpm>0</bpm>
<rpm>0.00</rpm>
</extensions>
</trkpt>
<trkpt lat="64.198150635" lon="-20.875915527">
<ele>178.589844</ele>
<time>2012-07-19T13:52:46Z</time>
<speed>6.660000</speed>
<extensions>
<speed>6.7</speed>
<temp>0.00</temp>
<bpm>0</bpm>
<rpm>0.00</rpm>
</extensions>
</trkpt>
<trkpt lat="64.198242188" lon="-20.875265121">
<ele>178.871094</ele>
<time>2012-07-19T13:52:51Z</time>
<speed>6.490000</speed>
<extensions>
<speed>6.5</speed>
<temp>0.00</temp>
<bpm>0</bpm>
<rpm>0.00</rpm>
</extensions>
</trkpt>
<trkpt lat="64.198318481" lon="-20.874624252">
<ele>178.695313</ele>
<time>2012-07-19T13:52:56Z</time>
<speed>6.420000</speed>
<extensions>
<speed>6.4</speed>
<temp>0.00</temp>
<bpm>0</bpm>
<rpm>0.00</rpm>
</extensions>
</trkpt>
<trkpt lat="64.198410034" lon="-20.873994827">
<ele>178.984375</ele>
<time>2012-07-19T13:53:01Z</time>
<speed>6.370000</speed>
<extensions>
<speed>6.4</speed>
<temp>0.00</temp>
<bpm>0</bpm>
<rpm>0.00</rpm>
</extensions>
</trkpt>
<trkpt lat="64.198493958" lon="-20.873380661">
<ele>179.222656</ele>
<time>2012-07-19T13:53:06Z</time>
<speed>6.220000</speed>
<extensions>
<speed>6.2</speed>
<temp>0.00</temp>
<bpm>0</bpm>
<rpm>0.00</rpm>
</extensions>
</trkpt>
<trkpt lat="64.198600769" lon="-20.872783661">
<ele>180.421875</ele>
<time>2012-07-19T13:53:11Z</time>
<speed>6.060000</speed>
<extensions>
<speed>6.1</speed>
<temp>0.00</temp>
<bpm>0</bpm>
<rpm>0.00</rpm>
</extensions>
</trkpt>
<trkpt lat="64.198692322" lon="-20.872224808">
<ele>180.769531</ele>
<time>2012-07-19T13:53:16Z</time>
<speed>5.810000</speed>
<extensions>
<speed>5.8</speed>
<temp>0.00</temp>
<bpm>0</bpm>
<rpm>0.00</rpm>
</extensions>
</trkpt>
<trkpt lat="64.198776245" lon="-20.871679306">
<ele>180.898438</ele>
<time>2012-07-19T13:53:21Z</time>
<speed>5.620000</speed>
<extensions>
<speed>5.6</speed>
<temp>0.00</temp>
<bpm>0</bpm>
<rpm>0.00</rpm>
</extensions>
</trkpt>
<trkpt lat="64.198860168" lon="-20.871133804">
<ele>181.093750</ele>
<time>2012-07-19T13:53:26Z</time>
<speed>5.750000</speed>
<extensions>
<speed>5.8</speed>
<temp>0.00</temp>
<bpm>0</bpm>
<rpm>0.00</rpm>
</extensions>
</trkpt>
<trkpt lat="64.198951721" lon="-20.870574951">
<ele>181.320313</ele>
<time>2012-07-19T13:53:31Z</time>
<speed>5.780000</speed>
<extensions>
<speed>5.8</speed>
<temp>0.00</temp>
<bpm>0</bpm>
<rpm>0.00</rpm>
</extensions>
</trkpt>
<trkpt lat="64.199043274" lon="-20.870010376">
<ele>181.421875</ele>
<time>2012-07-19T13:53:36Z</time>
<speed>5.840000</speed>
<extensions>
<speed>5.8</speed>
<temp>0.00</temp>
<bpm>0</bpm>
<rpm>0.00</rpm>
</extensions>
</trkpt>
<trkpt lat="64.199127197" lon="-20.869457245">
<ele>181.597656</ele>
<time>2012-07-19T13:53:41Z</time>
<speed>5.690000</speed>
<extensions>
<speed>5.7</speed>
<temp>0.00</temp>
<bpm>0</bpm>
<rpm>0.00</rpm>
</extensions>
</trkpt>
<trkpt lat="64.199211121" lon="-20.868915558">
<ele>182.281250</ele>
<time>2012-07-19T13:53:46Z</time>
<speed>5.610000</speed>
<extensions>
<speed>5.6</speed>
<temp>0.00</temp>
<bpm>0</bpm>
<rpm>0.00</rpm>
</extensions>
</trkpt>
<trkpt lat="64.199295044" lon="-20.868368149">
<ele>182.585938</ele>
<time>2012-07-19T13:53:51Z</time>
<speed>5.690000</speed>
<extensions>
<speed>5.7</speed>
<temp>0.00</temp>
<bpm>0</bpm>
<rpm>0.00</rpm>
</extensions>
</trkpt>
<trkpt lat="64.199378967" lon="-20.867822647">
<ele>183.128906</ele>
<time>2012-07-19T13:53:56Z</time>
<speed>5.600000</speed>
<extensions>
<speed>5.6</speed>
<temp>0.00</temp>
<bpm>0</bpm>
<rpm>0.00</rpm>
</extensions>
</trkpt>
<trkpt lat="64.199455261" lon="-20.867271423">
<ele>183.382813</ele>
<time>2012-07-19T13:54:01Z</time>
<speed>5.540000</speed>
<extensions>
<speed>5.5</speed>
<temp>0.00</temp>
<bpm>0</bpm>
<rpm>0.00</rpm>
</extensions>
</trkpt>
<trkpt lat="64.199546814" lon="-20.866724014">
<ele>184.503906</ele>
<time>2012-07-19T13:54:06Z</time>
<speed>5.680000</speed>
<extensions>
<speed>5.7</speed>
<temp>0.00</temp>
<bpm>0</bpm>
<rpm>0.00</rpm>
</extensions>
</trkpt>
<trkpt lat="64.199615479" lon="-20.866153717">
<ele>184.914063</ele>
<time>2012-07-19T13:54:11Z</time>
<speed>5.730000</speed>
<extensions>
<speed>5.7</speed>
<temp>0.00</temp>
<bpm>0</bpm>
<rpm>0.00</rpm>
</extensions>
</trkpt>
<trkpt lat="64.199691772" lon="-20.865577698">
<ele>185.789063</ele>
<time>2012-07-19T13:54:16Z</time>
<speed>5.760000</speed>
<extensions>
<speed>5.8</speed>
<temp>0.00</temp>
<bpm>0</bpm>
<rpm>0.00</rpm>
</extensions>
</trkpt>
<trkpt lat="64.199760437" lon="-20.865058899">
<ele>186.769531</ele>
<time>2012-07-19T13:54:21Z</time>
<speed>4.950000</speed>
<extensions>
<speed>4.9</speed>
<temp>0.00</temp>
<bpm>0</bpm>
<rpm>0.00</rpm>
</extensions>
</trkpt>
<trkpt lat="64.199813843" lon="-20.864603043">
<ele>187.238281</ele>
<time>2012-07-19T13:54:26Z</time>
<speed>4.400000</speed>
<extensions>
<speed>4.4</speed>
<temp>0.00</temp>
<bpm>0</bpm>
<rpm>0.00</rpm>
</extensions>
</trkpt>
<trkpt lat="64.199851990" lon="-20.864221573">
<ele>187.996094</ele>
<time>2012-07-19T13:54:31Z</time>
<speed>3.400000</speed>
<extensions>
<speed>3.4</speed>
<temp>0.00</temp>
<bpm>0</bpm>
<rpm>0.00</rpm>
</extensions>
</trkpt>
<trkpt lat="64.199882507" lon="-20.863893509">
<ele>188.332031</ele>
<time>2012-07-19T13:54:36Z</time>
<speed>3.450000</speed>
<extensions>
<speed>3.5</speed>
<temp>0.00</temp>
<bpm>0</bpm>
<rpm>0.00</rpm>
</extensions>
</trkpt>
<trkpt lat="64.199920654" lon="-20.863546371">
<ele>188.628906</ele>
<time>2012-07-19T13:54:41Z</time>
<speed>3.750000</speed>
<extensions>
<speed>3.8</speed>
<temp>0.00</temp>
<bpm>0</bpm>
<rpm>0.00</rpm>
</extensions>
</trkpt>
<trkpt lat="64.199943542" lon="-20.863162994">
<ele>188.898438</ele>
<time>2012-07-19T13:54:46Z</time>
<speed>3.910000</speed>
<extensions>
<speed>3.9</speed>
<temp>0.00</temp>
<bpm>0</bpm>
<rpm>0.00</rpm>
</extensions>
</trkpt>
<trkpt lat="64.199974060" lon="-20.862792969">
<ele>188.964844</ele>
<time>2012-07-19T13:54:51Z</time>
<speed>3.720000</speed>
<extensions>
<speed>3.7</speed>
<temp>0.00</temp>
<bpm>0</bpm>
<rpm>0.00</rpm>
</extensions>
</trkpt>
<trkpt lat="64.200004578" lon="-20.862415314">
<ele>189.308594</ele>
<time>2012-07-19T13:54:56Z</time>
<speed>3.710000</speed>
<extensions>
<speed>3.7</speed>
<temp>0.00</temp>
<bpm>0</bpm>
<rpm>0.00</rpm>
</extensions>
</trkpt>
<trkpt lat="64.200035095" lon="-20.862045288">
<ele>189.535156</ele>
<time>2012-07-19T13:55:01Z</time>
<speed>3.710000</speed>
<extensions>
<speed>3.7</speed>
<temp>0.00</temp>
<bpm>0</bpm>
<rpm>0.00</rpm>
</extensions>
</trkpt>
<trkpt lat="64.200057983" lon="-20.861661911">
<ele>189.792969</ele>
<time>2012-07-19T13:55:06Z</time>
<speed>3.660000</speed>
<extensions>
<speed>3.7</speed>
<temp>0.00</temp>
<bpm>0</bpm>
<rpm>0.00</rpm>
</extensions>
</trkpt>
<trkpt lat="64.200080872" lon="-20.861288071">
<ele>189.734375</ele>
<time>2012-07-19T13:55:11Z</time>
<speed>3.740000</speed>
<extensions>
<speed>3.7</speed>
<temp>0.00</temp>
<bpm>0</bpm>
<rpm>0.00</rpm>
</extensions>
</trkpt>
<trkpt lat="64.200103760" lon="-20.860889435">
<ele>189.777344</ele>
<time>2012-07-19T13:55:16Z</time>
<speed>3.900000</speed>
<extensions>
<speed>3.9</speed>
<temp>0.00</temp>
<bpm>0</bpm>
<rpm>0.00</rpm>
</extensions>
</trkpt>
<trkpt lat="64.200134277" lon="-20.860483170">
<ele>189.792969</ele>
<time>2012-07-19T13:55:21Z</time>
<speed>4.140000</speed>
<extensions>
<speed>4.1</speed>
<temp>0.00</temp>
<bpm>0</bpm>
<rpm>0.00</rpm>
</extensions>
</trkpt>
<trkpt lat="64.200157166" lon="-20.860050201">
<ele>190.277344</ele>
<time>2012-07-19T13:55:26Z</time>
<speed>4.110000</speed>
<extensions>
<speed>4.1</speed>
<temp>0.00</temp>
<bpm>0</bpm>
<rpm>0.00</rpm>
</extensions>
</trkpt>
<trkpt lat="64.200187683" lon="-20.859645844">
<ele>190.542969</ele>
<time>2012-07-19T13:55:31Z</time>
<speed>4.030000</speed>
<extensions>
<speed>4.0</speed>
<temp>0.00</temp>
<bpm>0</bpm>
<rpm>0.00</rpm>
</extensions>
</trkpt>
<trkpt lat="64.200210571" lon="-20.859226227">
<ele>191.125000</ele>
<time>2012-07-19T13:55:36Z</time>
<speed>3.920000</speed>
<extensions>
<speed>3.9</speed>
<temp>0.00</temp>
<bpm>0</bpm>
<rpm>0.00</rpm>
</extensions>
</trkpt>
<trkpt lat="64.200225830" lon="-20.858869553">
<ele>191.226563</ele>
<time>2012-07-19T13:55:41Z</time>
<speed>3.120000</speed>
<extensions>
<speed>3.1</speed>
<temp>0.00</temp>
<bpm>0</bpm>
<rpm>0.00</rpm>
</extensions>
</trkpt>
<trkpt lat="64.200218201" lon="-20.858644485">
<ele>191.171875</ele>
<time>2012-07-19T13:55:46Z</time>
<speed>1.590000</speed>
<extensions>
<speed>1.6</speed>
<temp>0.00</temp>
<bpm>0</bpm>
<rpm>0.00</rpm>
</extensions>
</trkpt>
<trkpt lat="64.200210571" lon="-20.858507156">
<ele>191.011719</ele>
<time>2012-07-19T13:55:51Z</time>
<speed>0.490000</speed>
<extensions>
<speed>0.5</speed>
<temp>0.00</temp>
<bpm>0</bpm>
<rpm>0.00</rpm>
</extensions>
</trkpt>
<trkpt lat="64.200210571" lon="-20.858514786">
<ele>191.527344</ele>
<time>2012-07-19T13:55:56Z</time>
<extensions>
<speed>0.0</speed>
<temp>0.00</temp>
<bpm>0</bpm>
<rpm>0.00</rpm>
</extensions>
</trkpt>
<trkpt lat="64.200210571" lon="-20.858520508">
<ele>190.968750</ele>
<time>2012-07-19T13:56:01Z</time>
<speed>0.070000</speed>
<extensions>
<speed>0.1</speed>
<temp>0.00</temp>
<bpm>0</bpm>
<rpm>0.00</rpm>
</extensions>
</trkpt>
<trkpt lat="64.200210571" lon="-20.858522415">
<ele>190.542969</ele>
<time>2012-07-19T13:56:06Z</time>
<speed>0.010000</speed>
<extensions>
<speed>0.0</speed>
<temp>0.00</temp>
<bpm>0</bpm>
<rpm>0.00</rpm>
</extensions>
</trkpt>
<trkpt lat="64.200210571" lon="-20.858522415">
<ele>190.488281</ele>
<time>2012-07-19T13:56:11Z</time>
<extensions>
<speed>0.0</speed>
<temp>0.00</temp>
<bpm>0</bpm>
<rpm>0.00</rpm>
</extensions>
</trkpt>
<trkpt lat="64.200210571" lon="-20.858522415">
<ele>190.453125</ele>
<time>2012-07-19T13:56:16Z</time>
<extensions>
<speed>0.0</speed>
<temp>0.00</temp>
<bpm>0</bpm>
<rpm>0.00</rpm>
</extensions>
</trkpt>
<trkpt lat="64.200210571" lon="-20.858522415">
<ele>190.425781</ele>
<time>2012-07-19T13:56:21Z</time>
<extensions>
<speed>0.0</speed>
<temp>0.00</temp>
<bpm>0</bpm>
<rpm>0.00</rpm>
</extensions>
</trkpt>
<trkpt lat="64.200210571" lon="-20.858522415">
<ele>190.394531</ele>
<time>2012-07-19T13:56:26Z</time>
<speed>0.010000</speed>
<extensions>
<speed>0.0</speed>
<temp>0.00</temp>
<bpm>0</bpm>
<rpm>0.00</rpm>
</extensions>
</trkpt>
<trkpt lat="64.200210571" lon="-20.858522415">
<ele>190.406250</ele>
<time>2012-07-19T13:56:31Z</time>
<extensions>
<speed>0.0</speed>
<temp>0.00</temp>
<bpm>0</bpm>
<rpm>0.00</rpm>
</extensions>
</trkpt>
<trkpt lat="64.200210571" lon="-20.858522415">
<ele>190.414063</ele>
<time>2012-07-19T13:56:36Z</time>
<extensions>
<speed>0.0</speed>
<temp>0.00</temp>
<bpm>0</bpm>
<rpm>0.00</rpm>
</extensions>
</trkpt>
<trkpt lat="64.200210571" lon="-20.858522415">
<ele>190.406250</ele>
<time>2012-07-19T13:56:41Z</time>
<speed>0.250000</speed>
<extensions>
<speed>0.2</speed>
<temp>0.00</temp>
<bpm>0</bpm>
<rpm>0.00</rpm>
</extensions>
</trkpt>
<trkpt lat="64.200210571" lon="-20.858522415">
<ele>190.398438</ele>
<time>2012-07-19T13:56:46Z</time>
<extensions>
<speed>0.0</speed>
<temp>0.00</temp>
<bpm>0</bpm>
<rpm>0.00</rpm>
</extensions>
</trkpt>
<trkpt lat="64.200210571" lon="-20.858522415">
<ele>190.394531</ele>
<time>2012-07-19T13:56:51Z</time>
<extensions>
<speed>0.0</speed>
<temp>0.00</temp>
<bpm>0</bpm>
<rpm>0.00</rpm>
</extensions>
</trkpt>
<trkpt lat="64.200210571" lon="-20.858522415">
<ele>190.394531</ele>
<time>2012-07-19T13:56:56Z</time>
<extensions>
<speed>0.0</speed>
<temp>0.00</temp>
<bpm>0</bpm>
<rpm>0.00</rpm>
</extensions>
</trkpt>
<trkpt lat="64.200210571" lon="-20.858522415">
<ele>190.394531</ele>
<time>2012-07-19T13:57:01Z</time>
<extensions>
<speed>0.0</speed>
<temp>0.00</temp>
<bpm>0</bpm>
<rpm>0.00</rpm>
</extensions>
</trkpt>
<trkpt lat="64.200210571" lon="-20.858522415">
<ele>190.386719</ele>
<time>2012-07-19T13:57:06Z</time>
<extensions>
<speed>0.0</speed>
<temp>0.00</temp>
<bpm>0</bpm>
<rpm>0.00</rpm>
</extensions>
</trkpt>
<trkpt lat="64.200210571" lon="-20.858522415">
<ele>190.382813</ele>
<time>2012-07-19T13:57:11Z</time>
<extensions>
<speed>0.0</speed>
<temp>0.00</temp>
<bpm>0</bpm>
<rpm>0.00</rpm>
</extensions>
</trkpt>
<trkpt lat="64.200210571" lon="-20.858522415">
<ele>190.390625</ele>
<time>2012-07-19T13:57:16Z</time>
<extensions>
<speed>0.0</speed>
<temp>0.00</temp>
<bpm>0</bpm>
<rpm>0.00</rpm>
</extensions>
</trkpt>
<trkpt lat="64.200210571" lon="-20.858522415">
<ele>190.398438</ele>
<time>2012-07-19T13:57:21Z</time>
<extensions>
<speed>0.0</speed>
<temp>0.00</temp>
<bpm>0</bpm>
<rpm>0.00</rpm>
</extensions>
</trkpt>
<trkpt lat="64.200210571" lon="-20.858516693">
<ele>190.511719</ele>
<time>2012-07-19T13:57:26Z</time>
<speed>0.310000</speed>
<extensions>
<speed>0.3</speed>
<temp>0.00</temp>
<bpm>0</bpm>
<rpm>0.00</rpm>
</extensions>
</trkpt>
<trkpt lat="64.200210571" lon="-20.858509064">
<ele>190.453125</ele>
<time>2012-07-19T13:57:31Z</time>
<extensions>
<speed>0.0</speed>
<temp>0.00</temp>
<bpm>0</bpm>
<rpm>0.00</rpm>
</extensions>
</trkpt>
<trkpt lat="64.200225830" lon="-20.858482361">
<ele>190.605469</ele>
<time>2012-07-19T13:57:36Z</time>
<speed>1.060000</speed>
<extensions>
<speed>1.1</speed>
<temp>0.00</temp>
<bpm>0</bpm>
<rpm>0.00</rpm>
</extensions>
</trkpt>
<trkpt lat="64.200286865" lon="-20.858518600">
<ele>190.656250</ele>
<time>2012-07-19T13:57:41Z</time>
<speed>1.710000</speed>
<extensions>
<speed>1.7</speed>
<temp>0.00</temp>
<bpm>0</bpm>
<rpm>0.00</rpm>
</extensions>
</trkpt>
<trkpt lat="64.200370789" lon="-20.858617783">
<ele>190.402344</ele>
<time>2012-07-19T13:57:46Z</time>
<speed>2.220000</speed>
<extensions>
<speed>2.2</speed>
<temp>0.00</temp>
<bpm>0</bpm>
<rpm>0.00</rpm>
</extensions>
</trkpt>
<trkpt lat="64.200485229" lon="-20.858701706">
<ele>189.582031</ele>
<time>2012-07-19T13:57:51Z</time>
<speed>2.940000</speed>
<extensions>
<speed>2.9</speed>
<temp>0.00</temp>
<bpm>0</bpm>
<rpm>0.00</rpm>
</extensions>
</trkpt>
<trkpt lat="64.200630188" lon="-20.858751297">
<ele>189.382813</ele>
<time>2012-07-19T13:57:56Z</time>
<speed>3.330000</speed>
<extensions>
<speed>3.3</speed>
<temp>0.00</temp>
<bpm>0</bpm>
<rpm>0.00</rpm>
</extensions>
</trkpt>
<trkpt lat="64.200775146" lon="-20.858802795">
<ele>188.082031</ele>
<time>2012-07-19T13:58:01Z</time>
<speed>3.550000</speed>
<extensions>
<speed>3.5</speed>
<temp>0.00</temp>
<bpm>0</bpm>
<rpm>0.00</rpm>
</extensions>
</trkpt>
<trkpt lat="64.200927734" lon="-20.858901978">
<ele>186.785156</ele>
<time>2012-07-19T13:58:06Z</time>
<speed>3.860000</speed>
<extensions>
<speed>3.9</speed>
<temp>0.00</temp>
<bpm>0</bpm>
<rpm>0.00</rpm>
</extensions>
</trkpt>
<trkpt lat="64.201087952" lon="-20.859050751">
<ele>186.933594</ele>
<time>2012-07-19T13:58:11Z</time>
<speed>3.100000</speed>
<extensions>
<speed>3.1</speed>
<temp>0.00</temp>
<bpm>0</bpm>
<rpm>0.00</rpm>
</extensions>
</trkpt>
<trkpt lat="64.201210022" lon="-20.859249115">
<ele>186.433594</ele>
<time>2012-07-19T13:58:16Z</time>
<speed>3.680000</speed>
<extensions>
<speed>3.7</speed>
<temp>0.00</temp>
<bpm>0</bpm>
<rpm>0.00</rpm>
</extensions>
</trkpt>
<trkpt lat="64.201332092" lon="-20.859519958">
<ele>185.988281</ele>
<time>2012-07-19T13:58:21Z</time>
<speed>3.780000</speed>
<extensions>
<speed>3.8</speed>
<temp>0.00</temp>
<bpm>0</bpm>
<rpm>0.00</rpm>
</extensions>
</trkpt>
<trkpt lat="64.201446533" lon="-20.859825134">
<ele>187.484375</ele>
<time>2012-07-19T13:58:26Z</time>
<speed>3.810000</speed>
<extensions>
<speed>3.8</speed>
<temp>0.00</temp>
<bpm>0</bpm>
<rpm>0.00</rpm>
</extensions>
</trkpt>
<trkpt lat="64.201560974" lon="-20.860149384">
<ele>188.906250</ele>
<time>2012-07-19T13:58:31Z</time>
<speed>4.020000</speed>
<extensions>
<speed>4.0</speed>
<temp>0.00</temp>
<bpm>0</bpm>
<rpm>0.00</rpm>
</extensions>
</trkpt>
<trkpt lat="64.201652527" lon="-20.860479355">
<ele>187.980469</ele>
<time>2012-07-19T13:58:36Z</time>
<speed>4.060000</speed>
<extensions>
<speed>4.1</speed>
<temp>0.00</temp>
<bpm>0</bpm>
<rpm>0.00</rpm>
</extensions>
</trkpt>
<trkpt lat="64.201759338" lon="-20.860832214">
<ele>183.285156</ele>
<time>2012-07-19T13:58:41Z</time>
<speed>4.310000</speed>
<extensions>
<speed>4.3</speed>
<temp>0.00</temp>
<bpm>0</bpm>
<rpm>0.00</rpm>
</extensions>
</trkpt>
<trkpt lat="64.201911926" lon="-20.861196518">
<ele>187.402344</ele>
<time>2012-07-19T13:58:46Z</time>
<speed>4.450000</speed>
<extensions>
<speed>4.5</speed>
<temp>0.00</temp>
<bpm>0</bpm>
<rpm>0.00</rpm>
</extensions>
</trkpt>
<trkpt lat="64.202064514" lon="-20.861526489">
<ele>190.058594</ele>
<time>2012-07-19T13:58:51Z</time>
<speed>4.480000</speed>
<extensions>
<speed>4.5</speed>
<temp>0.00</temp>
<bpm>0</bpm>
<rpm>0.00</rpm>
</extensions>
</trkpt>
<trkpt lat="64.202232361" lon="-20.861825943">
<ele>193.113281</ele>
<time>2012-07-19T13:58:56Z</time>
<speed>4.530000</speed>
<extensions>
<speed>4.5</speed>
<temp>0.00</temp>
<bpm>0</bpm>
<rpm>0.00</rpm>
</extensions>
</trkpt>
<trkpt lat="64.202392578" lon="-20.862098694">
<ele>193.820313</ele>
<time>2012-07-19T13:59:01Z</time>
<speed>4.530000</speed>
<extensions>
<speed>4.5</speed>
<temp>0.00</temp>
<bpm>0</bpm>
<rpm>0.00</rpm>
</extensions>
</trkpt>
<trkpt lat="64.202575684" lon="-20.862358093">
<ele>194.339844</ele>
<time>2012-07-19T13:59:06Z</time>
<speed>4.780000</speed>
<extensions>
<speed>4.8</speed>
<temp>0.00</temp>
<bpm>0</bpm>
<rpm>0.00</rpm>
</extensions>
</trkpt>
<trkpt lat="64.202766418" lon="-20.862583160">
<ele>193.984375</ele>
<time>2012-07-19T13:59:11Z</time>
<speed>4.710000</speed>
<extensions>
<speed>4.7</speed>
<temp>0.00</temp>
<bpm>0</bpm>
<rpm>0.00</rpm>
</extensions>
</trkpt>
<trkpt lat="64.202957153" lon="-20.862752914">
<ele>192.753906</ele>
<time>2012-07-19T13:59:16Z</time>
<speed>4.660000</speed>
<extensions>
<speed>4.7</speed>
<temp>0.00</temp>
<bpm>0</bpm>
<rpm>0.00</rpm>
</extensions>
</trkpt>
<trkpt lat="64.203163147" lon="-20.862876892">
<ele>191.664063</ele>
<time>2012-07-19T13:59:21Z</time>
<speed>4.890000</speed>
<extensions>
<speed>4.9</speed>
<temp>0.00</temp>
<bpm>0</bpm>
<rpm>0.00</rpm>
</extensions>
</trkpt>
<trkpt lat="64.203369141" lon="-20.862962723">
<ele>190.847656</ele>
<time>2012-07-19T13:59:26Z</time>
<speed>4.420000</speed>
<extensions>
<speed>4.4</speed>
<temp>0.00</temp>
<bpm>0</bpm>
<rpm>0.00</rpm>
</extensions>
</trkpt>
<trkpt lat="64.203544617" lon="-20.863037109">
<ele>190.136719</ele>
<time>2012-07-19T13:59:31Z</time>
<speed>4.120000</speed>
<extensions>
<speed>4.1</speed>
<temp>0.00</temp>
<bpm>0</bpm>
<rpm>0.00</rpm>
</extensions>
</trkpt>
<trkpt lat="64.203735352" lon="-20.863096237">
<ele>189.246094</ele>
<time>2012-07-19T13:59:36Z</time>
<speed>4.480000</speed>
<extensions>
<speed>4.5</speed>
<temp>0.00</temp>
<bpm>0</bpm>
<rpm>0.00</rpm>
</extensions>
</trkpt>
<trkpt lat="64.203926086" lon="-20.863151550">
<ele>188.617188</ele>
<time>2012-07-19T13:59:41Z</time>
<speed>3.840000</speed>
<extensions>
<speed>3.8</speed>
<temp>0.00</temp>
<bpm>0</bpm>
<rpm>0.00</rpm>
</extensions>
</trkpt>
<trkpt lat="64.204063416" lon="-20.863189697">
<ele>187.492188</ele>
<time>2012-07-19T13:59:46Z</time>
<speed>3.030000</speed>
<extensions>
<speed>3.0</speed>
<temp>0.00</temp>
<bpm>0</bpm>
<rpm>0.00</rpm>
</extensions>
</trkpt>
<trkpt lat="64.204216003" lon="-20.863254547">
<ele>187.007813</ele>
<time>2012-07-19T13:59:51Z</time>
<speed>3.750000</speed>
<extensions>
<speed>3.8</speed>
<temp>0.00</temp>
<bpm>0</bpm>
<rpm>0.00</rpm>
</extensions>
</trkpt>
<trkpt lat="64.204360962" lon="-20.863348007">
<ele>186.722656</ele>
<time>2012-07-19T13:59:56Z</time>
<speed>3.470000</speed>
<extensions>
<speed>3.5</speed>
<temp>0.00</temp>
<bpm>0</bpm>
<rpm>0.00</rpm>
</extensions>
</trkpt>
<trkpt lat="64.204490662" lon="-20.863418579">
<ele>186.351563</ele>
<time>2012-07-19T14:00:01Z</time>
<speed>2.710000</speed>
<extensions>
<speed>2.7</speed>
<temp>0.00</temp>
<bpm>0</bpm>
<rpm>0.00</rpm>
</extensions>
</trkpt>
<trkpt lat="64.204574585" lon="-20.863475800">
<ele>185.562500</ele>
<time>2012-07-19T14:00:06Z</time>
<speed>1.210000</speed>
<extensions>
<speed>1.2</speed>
<temp>0.00</temp>
<bpm>0</bpm>
<rpm>0.00</rpm>
</extensions>
</trkpt>
<trkpt lat="64.204589844" lon="-20.863492966">
<ele>186.503906</ele>
<time>2012-07-19T14:00:11Z</time>
<speed>0.530000</speed>
<extensions>
<speed>0.5</speed>
<temp>0.00</temp>
<bpm>0</bpm>
<rpm>0.00</rpm>
</extensions>
</trkpt>
<trkpt lat="64.204635620" lon="-20.863567352">
<ele>187.050781</ele>
<time>2012-07-19T14:00:16Z</time>
<speed>2.070000</speed>
<extensions>
<speed>2.1</speed>
<temp>0.00</temp>
<bpm>0</bpm>
<rpm>0.00</rpm>
</extensions>
</trkpt>
<trkpt lat="64.204734802" lon="-20.863664627">
<ele>186.429688</ele>
<time>2012-07-19T14:00:21Z</time>
<speed>2.710000</speed>
<extensions>
<speed>2.7</speed>
<temp>0.00</temp>
<bpm>0</bpm>
<rpm>0.00</rpm>
</extensions>
</trkpt>
<trkpt lat="64.204833984" lon="-20.863790512">
<ele>186.132813</ele>
<time>2012-07-19T14:00:26Z</time>
<speed>2.120000</speed>
<extensions>
<speed>2.1</speed>
<temp>0.00</temp>
<bpm>0</bpm>
<rpm>0.00</rpm>
</extensions>
</trkpt>
<trkpt lat="64.204956055" lon="-20.863948822">
<ele>186.281250</ele>
<time>2012-07-19T14:00:31Z</time>
<speed>3.340000</speed>
<extensions>
<speed>3.3</speed>
<temp>0.00</temp>
<bpm>0</bpm>
<rpm>0.00</rpm>
</extensions>
</trkpt>
<trkpt lat="64.205116272" lon="-20.864101410">
<ele>187.667969</ele>
<time>2012-07-19T14:00:36Z</time>
<speed>3.660000</speed>
<extensions>
<speed>3.7</speed>
<temp>0.00</temp>
<bpm>0</bpm>
<rpm>0.00</rpm>
</extensions>
</trkpt>
<trkpt lat="64.205284119" lon="-20.864265442">
<ele>189.027344</ele>
<time>2012-07-19T14:00:41Z</time>
<speed>3.570000</speed>
<extensions>
<speed>3.6</speed>
<temp>0.00</temp>
<bpm>0</bpm>
<rpm>0.00</rpm>
</extensions>
</trkpt>
<trkpt lat="64.205421448" lon="-20.864446640">
<ele>189.730469</ele>
<time>2012-07-19T14:00:46Z</time>
<speed>3.440000</speed>
<extensions>
<speed>3.4</speed>
<temp>0.00</temp>
<bpm>0</bpm>
<rpm>0.00</rpm>
</extensions>
</trkpt>
<trkpt lat="64.205558777" lon="-20.864608765">
<ele>190.167969</ele>
<time>2012-07-19T14:00:51Z</time>
<speed>3.360000</speed>
<extensions>
<speed>3.4</speed>
<temp>0.00</temp>
<bpm>0</bpm>
<rpm>0.00</rpm>
</extensions>
</trkpt>
<trkpt lat="64.205688477" lon="-20.864791870">
<ele>190.554688</ele>
<time>2012-07-19T14:00:56Z</time>
<speed>3.490000</speed>
<extensions>
<speed>3.5</speed>
<temp>0.00</temp>
<bpm>0</bpm>
<rpm>0.00</rpm>
</extensions>
</trkpt>
<trkpt lat="64.205841064" lon="-20.864931107">
<ele>191.339844</ele>
<time>2012-07-19T14:01:01Z</time>
<speed>3.620000</speed>
<extensions>
<speed>3.6</speed>
<temp>0.00</temp>
<bpm>0</bpm>
<rpm>0.00</rpm>
</extensions>
</trkpt>
<trkpt lat="64.205993652" lon="-20.865076065">
<ele>191.269531</ele>
<time>2012-07-19T14:01:06Z</time>
<speed>3.790000</speed>
<extensions>
<speed>3.8</speed>
<temp>0.00</temp>
<bpm>0</bpm>
<rpm>0.00</rpm>
</extensions>
</trkpt>
<trkpt lat="64.206161499" lon="-20.865205765">
<ele>191.570313</ele>
<time>2012-07-19T14:01:11Z</time>
<speed>3.750000</speed>
<extensions>
<speed>3.8</speed>
<temp>0.00</temp>
<bpm>0</bpm>
<rpm>0.00</rpm>
</extensions>
</trkpt>
<trkpt lat="64.206314087" lon="-20.865301132">
<ele>190.585938</ele>
<time>2012-07-19T14:01:16Z</time>
<speed>3.650000</speed>
<extensions>
<speed>3.7</speed>
<temp>0.00</temp>
<bpm>0</bpm>
<rpm>0.00</rpm>
</extensions>
</trkpt>
<trkpt lat="64.206481934" lon="-20.865377426">
<ele>189.457031</ele>
<time>2012-07-19T14:01:21Z</time>
<speed>4.000000</speed>
<extensions>
<speed>4.0</speed>
<temp>0.00</temp>
<bpm>0</bpm>
<rpm>0.00</rpm>
</extensions>
</trkpt>
<trkpt lat="64.206665039" lon="-20.865436554">
<ele>189.210938</ele>
<time>2012-07-19T14:01:26Z</time>
<speed>4.300000</speed>
<extensions>
<speed>4.3</speed>
<temp>0.00</temp>
<bpm>0</bpm>
<rpm>0.00</rpm>
</extensions>
</trkpt>
<trkpt lat="64.206848145" lon="-20.865467072">
<ele>188.207031</ele>
<time>2012-07-19T14:01:31Z</time>
<speed>4.350000</speed>
<extensions>
<speed>4.3</speed>
<temp>0.00</temp>
<bpm>0</bpm>
<rpm>0.00</rpm>
</extensions>
</trkpt>
<trkpt lat="64.207046509" lon="-20.865467072">
<ele>188.417969</ele>
<time>2012-07-19T14:01:36Z</time>
<speed>4.400000</speed>
<extensions>
<speed>4.4</speed>
<temp>0.00</temp>
<bpm>0</bpm>
<rpm>0.00</rpm>
</extensions>
</trkpt>
<trkpt lat="64.207244873" lon="-20.865432739">
<ele>187.906250</ele>
<time>2012-07-19T14:01:41Z</time>
<speed>4.530000</speed>
<extensions>
<speed>4.5</speed>
<temp>0.00</temp>
<bpm>0</bpm>
<rpm>0.00</rpm>
</extensions>
</trkpt>
<trkpt lat="64.207435608" lon="-20.865348816">
<ele>188.027344</ele>
<time>2012-07-19T14:01:46Z</time>
<speed>4.530000</speed>
<extensions>
<speed>4.5</speed>
<temp>0.00</temp>
<bpm>0</bpm>
<rpm>0.00</rpm>
</extensions>
</trkpt>
<trkpt lat="64.207626343" lon="-20.865240097">
<ele>187.937500</ele>
<time>2012-07-19T14:01:51Z</time>
<speed>4.570000</speed>
<extensions>
<speed>4.6</speed>
<temp>0.00</temp>
<bpm>0</bpm>
<rpm>0.00</rpm>
</extensions>
</trkpt>
<trkpt lat="64.207824707" lon="-20.865077972">
<ele>188.261719</ele>
<time>2012-07-19T14:01:56Z</time>
<speed>4.590000</speed>
<extensions>
<speed>4.6</speed>
<temp>0.00</temp>
<bpm>0</bpm>
<rpm>0.00</rpm>
</extensions>
</trkpt>
<trkpt lat="64.208023071" lon="-20.864887238">
<ele>188.707031</ele>
<time>2012-07-19T14:02:01Z</time>
<speed>4.530000</speed>
<extensions>
<speed>4.5</speed>
<temp>0.00</temp>
<bpm>0</bpm>
<rpm>0.00</rpm>
</extensions>
</trkpt>
<trkpt lat="64.208213806" lon="-20.864671707">
<ele>188.867188</ele>
<time>2012-07-19T14:02:06Z</time>
<speed>4.650000</speed>
<extensions>
<speed>4.6</speed>
<temp>0.00</temp>
<bpm>0</bpm>
<rpm>0.00</rpm>
</extensions>
</trkpt>
<trkpt lat="64.208381653" lon="-20.864439011">
<ele>188.820313</ele>
<time>2012-07-19T14:02:11Z</time>
<speed>4.330000</speed>
<extensions>
<speed>4.3</speed>
<temp>0.00</temp>
<bpm>0</bpm>
<rpm>0.00</rpm>
</extensions>
</trkpt>
<trkpt lat="64.208549500" lon="-20.864168167">
<ele>187.992188</ele>
<time>2012-07-19T14:02:16Z</time>
<speed>4.710000</speed>
<extensions>
<speed>4.7</speed>
<temp>0.00</temp>
<bpm>0</bpm>
<rpm>0.00</rpm>
</extensions>
</trkpt>
<trkpt lat="64.208709717" lon="-20.863849640">
<ele>186.726563</ele>
<time>2012-07-19T14:02:21Z</time>
<speed>5.020000</speed>
<extensions>
<speed>5.0</speed>
<temp>0.00</temp>
<bpm>0</bpm>
<rpm>0.00</rpm>
</extensions>
</trkpt>
<trkpt lat="64.208862305" lon="-20.863521576">
<ele>185.945313</ele>
<time>2012-07-19T14:02:26Z</time>
<speed>4.400000</speed>
<extensions>
<speed>4.4</speed>
<temp>0.00</temp>
<bpm>0</bpm>
<rpm>0.00</rpm>
</extensions>
</trkpt>
<trkpt lat="64.209007263" lon="-20.863206863">
<ele>184.957031</ele>
<time>2012-07-19T14:02:31Z</time>
<speed>4.730000</speed>
<extensions>
<speed>4.7</speed>
<temp>0.00</temp>
<bpm>0</bpm>
<rpm>0.00</rpm>
</extensions>
</trkpt>
<trkpt lat="64.209144592" lon="-20.862892151">
<ele>184.554688</ele>
<time>2012-07-19T14:02:36Z</time>
<speed>3.780000</speed>
<extensions>
<speed>3.8</speed>
<temp>0.00</temp>
<bpm>0</bpm>
<rpm>0.00</rpm>
</extensions>
</trkpt>
<trkpt lat="64.209281921" lon="-20.862543106">
<ele>184.582031</ele>
<time>2012-07-19T14:02:41Z</time>
<speed>4.850000</speed>
<extensions>
<speed>4.8</speed>
<temp>0.00</temp>
<bpm>0</bpm>
<rpm>0.00</rpm>
</extensions>
</trkpt>
<trkpt lat="64.209449768" lon="-20.862173080">
<ele>184.519531</ele>
<time>2012-07-19T14:02:46Z</time>
<speed>5.310000</speed>
<extensions>
<speed>5.3</speed>
<temp>0.00</temp>
<bpm>0</bpm>
<rpm>0.00</rpm>
</extensions>
</trkpt>
<trkpt lat="64.209617615" lon="-20.861824036">
<ele>184.582031</ele>
<time>2012-07-19T14:02:51Z</time>
<speed>4.960000</speed>
<extensions>
<speed>5.0</speed>
<temp>0.00</temp>
<bpm>0</bpm>
<rpm>0.00</rpm>
</extensions>
</trkpt>
<trkpt lat="64.209793091" lon="-20.861515045">
<ele>183.976563</ele>
<time>2012-07-19T14:02:56Z</time>
<speed>5.030000</speed>
<extensions>
<speed>5.0</speed>
<temp>0.00</temp>
<bpm>0</bpm>
<rpm>0.00</rpm>
</extensions>
</trkpt>
<trkpt lat="64.209976196" lon="-20.861240387">
<ele>183.539063</ele>
<time>2012-07-19T14:03:01Z</time>
<speed>5.030000</speed>
<extensions>
<speed>5.0</speed>
<temp>0.00</temp>
<bpm>0</bpm>
<rpm>0.00</rpm>
</extensions>
</trkpt>
<trkpt lat="64.210189819" lon="-20.860971451">
<ele>183.703125</ele>
<time>2012-07-19T14:03:06Z</time>
<speed>5.470000</speed>
<extensions>
<speed>5.5</speed>
<temp>0.00</temp>
<bpm>0</bpm>
<rpm>0.00</rpm>
</extensions>
</trkpt>
<trkpt lat="64.210433960" lon="-20.860727310">
<ele>183.406250</ele>
<time>2012-07-19T14:03:11Z</time>
<speed>5.600000</speed>
<extensions>
<speed>5.6</speed>
<temp>0.00</temp>
<bpm>0</bpm>
<rpm>0.00</rpm>
</extensions>
</trkpt>
<trkpt lat="64.210662842" lon="-20.860528946">
<ele>182.906250</ele>
<time>2012-07-19T14:03:16Z</time>
<speed>5.150000</speed>
<extensions>
<speed>5.2</speed>
<temp>0.00</temp>
<bpm>0</bpm>
<rpm>0.00</rpm>
</extensions>
</trkpt>
<trkpt lat="64.210861206" lon="-20.860391617">
<ele>182.437500</ele>
<time>2012-07-19T14:03:21Z</time>
<speed>4.720000</speed>
<extensions>
<speed>4.7</speed>
<temp>0.00</temp>
<bpm>0</bpm>
<rpm>0.00</rpm>
</extensions>
</trkpt>
<trkpt lat="64.211090088" lon="-20.860282898">
<ele>181.742188</ele>
<time>2012-07-19T14:03:26Z</time>
<speed>5.350000</speed>
<extensions>
<speed>5.4</speed>
<temp>0.00</temp>
<bpm>0</bpm>
<rpm>0.00</rpm>
</extensions>
</trkpt>
<trkpt lat="64.211326599" lon="-20.860219955">
<ele>180.613281</ele>
<time>2012-07-19T14:03:31Z</time>
<speed>5.290000</speed>
<extensions>
<speed>5.3</speed>
<temp>0.00</temp>
<bpm>0</bpm>
<rpm>0.00</rpm>
</extensions>
</trkpt>
<trkpt lat="64.211563110" lon="-20.860195160">
<ele>178.738281</ele>
<time>2012-07-19T14:03:36Z</time>
<speed>4.980000</speed>
<extensions>
<speed>5.0</speed>
<temp>0.00</temp>
<bpm>0</bpm>
<rpm>0.00</rpm>
</extensions>
</trkpt>
<trkpt lat="64.211776733" lon="-20.860202789">
<ele>177.210938</ele>
<time>2012-07-19T14:03:41Z</time>
<speed>5.210000</speed>
<extensions>
<speed>5.2</speed>
<temp>0.00</temp>
<bpm>0</bpm>
<rpm>0.00</rpm>
</extensions>
</trkpt>
<trkpt lat="64.212020874" lon="-20.860237122">
<ele>175.597656</ele>
<time>2012-07-19T14:03:46Z</time>
<speed>5.190000</speed>
<extensions>
<speed>5.2</speed>
<temp>0.00</temp>
<bpm>0</bpm>
<rpm>0.00</rpm>
</extensions>
</trkpt>
<trkpt lat="64.212234497" lon="-20.860303879">
<ele>174.574219</ele>
<time>2012-07-19T14:03:51Z</time>
<speed>4.620000</speed>
<extensions>
<speed>4.6</speed>
<temp>0.00</temp>
<bpm>0</bpm>
<rpm>0.00</rpm>
</extensions>
</trkpt>
<trkpt lat="64.212448120" lon="-20.860412598">
<ele>173.753906</ele>
<time>2012-07-19T14:03:56Z</time>
<speed>4.980000</speed>
<extensions>
<speed>5.0</speed>
<temp>0.00</temp>
<bpm>0</bpm>
<rpm>0.00</rpm>
</extensions>
</trkpt>
<trkpt lat="64.212669373" lon="-20.860601425">
<ele>173.390625</ele>
<time>2012-07-19T14:04:01Z</time>
<speed>5.150000</speed>
<extensions>
<speed>5.2</speed>
<temp>0.00</temp>
<bpm>0</bpm>
<rpm>0.00</rpm>
</extensions>
</trkpt>
<trkpt lat="64.212898254" lon="-20.860797882">
<ele>172.585938</ele>
<time>2012-07-19T14:04:06Z</time>
<speed>5.120000</speed>
<extensions>
<speed>5.1</speed>
<temp>0.00</temp>
<bpm>0</bpm>
<rpm>0.00</rpm>
</extensions>
</trkpt>
<trkpt lat="64.213104248" lon="-20.861040115">
<ele>172.570313</ele>
<time>2012-07-19T14:04:11Z</time>
<speed>5.180000</speed>
<extensions>
<speed>5.2</speed>
<temp>0.00</temp>
<bpm>0</bpm>
<rpm>0.00</rpm>
</extensions>
</trkpt>
<trkpt lat="64.213317871" lon="-20.861339569">
<ele>172.257813</ele>
<time>2012-07-19T14:04:16Z</time>
<speed>5.370000</speed>
<extensions>
<speed>5.4</speed>
<temp>0.00</temp>
<bpm>0</bpm>
<rpm>0.00</rpm>
</extensions>
</trkpt>
<trkpt lat="64.213516235" lon="-20.861625671">
<ele>172.347656</ele>
<time>2012-07-19T14:04:21Z</time>
<speed>5.020000</speed>
<extensions>
<speed>5.0</speed>
<temp>0.00</temp>
<bpm>0</bpm>
<rpm>0.00</rpm>
</extensions>
</trkpt>
<trkpt lat="64.213691711" lon="-20.861936569">
<ele>172.753906</ele>
<time>2012-07-19T14:04:26Z</time>
<speed>4.930000</speed>
<extensions>
<speed>4.9</speed>
<temp>0.00</temp>
<bpm>0</bpm>
<rpm>0.00</rpm>
</extensions>
</trkpt>
<trkpt lat="64.213798523" lon="-20.862197876">
<ele>174.242188</ele>
<time>2012-07-19T14:04:31Z</time>
<speed>2.930000</speed>
<extensions>
<speed>2.9</speed>
<temp>0.00</temp>
<bpm>0</bpm>
<rpm>0.00</rpm>
</extensions>
</trkpt>
<trkpt lat="64.213851929" lon="-20.862453461">
<ele>174.382813</ele>
<time>2012-07-19T14:04:36Z</time>
<speed>3.460000</speed>
<extensions>
<speed>3.5</speed>
<temp>0.00</temp>
<bpm>0</bpm>
<rpm>0.00</rpm>
</extensions>
</trkpt>
<trkpt lat="64.213912964" lon="-20.862779617">
<ele>174.433594</ele>
<time>2012-07-19T14:04:41Z</time>
<speed>3.310000</speed>
<extensions>
<speed>3.3</speed>
<temp>0.00</temp>
<bpm>0</bpm>
<rpm>0.00</rpm>
</extensions>
</trkpt>
<trkpt lat="64.213935852" lon="-20.863157272">
<ele>172.632813</ele>
<time>2012-07-19T14:04:46Z</time>
<speed>4.090000</speed>
<extensions>
<speed>4.1</speed>
<temp>0.00</temp>
<bpm>0</bpm>
<rpm>0.00</rpm>
</extensions>
</trkpt>
<trkpt lat="64.213966370" lon="-20.863605499">
<ele>170.292969</ele>
<time>2012-07-19T14:04:51Z</time>
<speed>4.940000</speed>
<extensions>
<speed>4.9</speed>
<temp>0.00</temp>
<bpm>0</bpm>
<rpm>0.00</rpm>
</extensions>
</trkpt>
<trkpt lat="64.213981628" lon="-20.864013672">
<ele>170.339844</ele>
<time>2012-07-19T14:04:56Z</time>
<speed>3.230000</speed>
<extensions>
<speed>3.2</speed>
<temp>0.00</temp>
<bpm>0</bpm>
<rpm>0.00</rpm>
</extensions>
</trkpt>
<trkpt lat="64.213958740" lon="-20.864191055">
<ele>167.437500</ele>
<time>2012-07-19T14:05:01Z</time>
<speed>0.080000</speed>
<extensions>
<speed>0.1</speed>
<temp>0.00</temp>
<bpm>0</bpm>
<rpm>0.00</rpm>
</extensions>
</trkpt>
<trkpt lat="64.213958740" lon="-20.864185333">
<ele>167.417969</ele>
<time>2012-07-19T14:05:06Z</time>
<speed>0.190000</speed>
<extensions>
<speed>0.2</speed>
<temp>0.00</temp>
<bpm>0</bpm>
<rpm>0.00</rpm>
</extensions>
</trkpt>
<trkpt lat="64.213966370" lon="-20.864217758">
<ele>167.292969</ele>
<time>2012-07-19T14:05:11Z</time>
<speed>1.430000</speed>
<extensions>
<speed>1.4</speed>
<temp>0.00</temp>
<bpm>0</bpm>
<rpm>0.00</rpm>
</extensions>
</trkpt>
<trkpt lat="64.214004517" lon="-20.864459991">
<ele>167.976563</ele>
<time>2012-07-19T14:05:16Z</time>
<speed>3.150000</speed>
<extensions>
<speed>3.2</speed>
<temp>0.00</temp>
<bpm>0</bpm>
<rpm>0.00</rpm>
</extensions>
</trkpt>
<trkpt lat="64.214035034" lon="-20.864795685">
<ele>168.343750</ele>
<time>2012-07-19T14:05:21Z</time>
<speed>3.800000</speed>
<extensions>
<speed>3.8</speed>
<temp>0.00</temp>
<bpm>0</bpm>
<rpm>0.00</rpm>
</extensions>
</trkpt>
<trkpt lat="64.214057922" lon="-20.865228653">
<ele>167.191406</ele>
<time>2012-07-19T14:05:26Z</time>
<speed>4.180000</speed>
<extensions>
<speed>4.2</speed>
<temp>0.00</temp>
<bpm>0</bpm>
<rpm>0.00</rpm>
</extensions>
</trkpt>
<trkpt lat="64.214103699" lon="-20.865648270">
<ele>168.265625</ele>
<time>2012-07-19T14:05:31Z</time>
<speed>3.920000</speed>
<extensions>
<speed>3.9</speed>
<temp>0.00</temp>
<bpm>0</bpm>
<rpm>0.00</rpm>
</extensions>
</trkpt>
<trkpt lat="64.214126587" lon="-20.866046906">
<ele>168.570313</ele>
<time>2012-07-19T14:05:36Z</time>
<speed>3.870000</speed>
<extensions>
<speed>3.9</speed>
<temp>0.00</temp>
<bpm>0</bpm>
<rpm>0.00</rpm>
</extensions>
</trkpt>
<trkpt lat="64.214164734" lon="-20.866409302">
<ele>167.625000</ele>
<time>2012-07-19T14:05:41Z</time>
<speed>3.920000</speed>
<extensions>
<speed>3.9</speed>
<temp>0.00</temp>
<bpm>0</bpm>
<rpm>0.00</rpm>
</extensions>
</trkpt>
<trkpt lat="64.214179993" lon="-20.866846085">
<ele>166.265625</ele>
<time>2012-07-19T14:05:46Z</time>
<speed>4.130000</speed>
<extensions>
<speed>4.1</speed>
<temp>0.00</temp>
<bpm>0</bpm>
<rpm>0.00</rpm>
</extensions>
</trkpt>
<trkpt lat="64.214202881" lon="-20.867269516">
<ele>166.203125</ele>
<time>2012-07-19T14:05:51Z</time>
<speed>4.180000</speed>
<extensions>
<speed>4.2</speed>
<temp>0.00</temp>
<bpm>0</bpm>
<rpm>0.00</rpm>
</extensions>
</trkpt>
<trkpt lat="64.214218140" lon="-20.867733002">
<ele>164.632813</ele>
<time>2012-07-19T14:05:56Z</time>
<speed>4.450000</speed>
<extensions>
<speed>4.5</speed>
<temp>0.00</temp>
<bpm>0</bpm>
<rpm>0.00</rpm>
</extensions>
</trkpt>
<trkpt lat="64.214241028" lon="-20.868225098">
<ele>166.988281</ele>
<time>2012-07-19T14:06:01Z</time>
<speed>4.740000</speed>
<extensions>
<speed>4.7</speed>
<temp>0.00</temp>
<bpm>0</bpm>
<rpm>0.00</rpm>
</extensions>
</trkpt>
<trkpt lat="64.214256287" lon="-20.868621826">
<ele>165.078125</ele>
<time>2012-07-19T14:06:06Z</time>
<speed>4.130000</speed>
<extensions>
<speed>4.1</speed>
<temp>0.00</temp>
<bpm>0</bpm>
<rpm>0.00</rpm>
</extensions>
</trkpt>
<trkpt lat="64.214271545" lon="-20.869037628">
<ele>167.500000</ele>
<time>2012-07-19T14:06:11Z</time>
<speed>4.220000</speed>
<extensions>
<speed>4.2</speed>
<temp>0.00</temp>
<bpm>0</bpm>
<rpm>0.00</rpm>
</extensions>
</trkpt>
<trkpt lat="64.214271545" lon="-20.869522095">
<ele>169.363281</ele>
<time>2012-07-19T14:06:16Z</time>
<speed>4.060000</speed>
<extensions>
<speed>4.1</speed>
<temp>0.00</temp>
<bpm>0</bpm>
<rpm>0.00</rpm>
</extensions>
</trkpt>
<trkpt lat="64.214263916" lon="-20.869977951">
<ele>169.230469</ele>
<time>2012-07-19T14:06:21Z</time>
<speed>3.430000</speed>
<extensions>
<speed>3.4</speed>
<temp>0.00</temp>
<bpm>0</bpm>
<rpm>0.00</rpm>
</extensions>
</trkpt>
<trkpt lat="64.214241028" lon="-20.870319366">
<ele>169.285156</ele>
<time>2012-07-19T14:06:26Z</time>
<speed>4.140000</speed>
<extensions>
<speed>4.1</speed>
<temp>0.00</temp>
<bpm>0</bpm>
<rpm>0.00</rpm>
</extensions>
</trkpt>
<trkpt lat="64.214241028" lon="-20.870737076">
<ele>170.507813</ele>
<time>2012-07-19T14:06:31Z</time>
<speed>4.530000</speed>
<extensions>
<speed>4.5</speed>
<temp>0.00</temp>
<bpm>0</bpm>
<rpm>0.00</rpm>
</extensions>
</trkpt>
<trkpt lat="64.214233398" lon="-20.871219635">
<ele>169.347656</ele>
<time>2012-07-19T14:06:36Z</time>
<speed>4.750000</speed>
<extensions>
<speed>4.8</speed>
<temp>0.00</temp>
<bpm>0</bpm>
<rpm>0.00</rpm>
</extensions>
</trkpt>
<trkpt lat="64.214233398" lon="-20.871706009">
<ele>168.402344</ele>
<time>2012-07-19T14:06:41Z</time>
<speed>4.710000</speed>
<extensions>
<speed>4.7</speed>
<temp>0.00</temp>
<bpm>0</bpm>
<rpm>0.00</rpm>
</extensions>
</trkpt>
<trkpt lat="64.214241028" lon="-20.872180939">
<ele>169.347656</ele>
<time>2012-07-19T14:06:46Z</time>
<speed>4.640000</speed>
<extensions>
<speed>4.6</speed>
<temp>0.00</temp>
<bpm>0</bpm>
<rpm>0.00</rpm>
</extensions>
</trkpt>
<trkpt lat="64.214248657" lon="-20.872617722">
<ele>169.394531</ele>
<time>2012-07-19T14:06:51Z</time>
<speed>3.440000</speed>
<extensions>
<speed>3.4</speed>
<temp>0.00</temp>
<bpm>0</bpm>
<rpm>0.00</rpm>
</extensions>
</trkpt>
<trkpt lat="64.214271545" lon="-20.872997284">
<ele>168.914063</ele>
<time>2012-07-19T14:06:56Z</time>
<speed>3.590000</speed>
<extensions>
<speed>3.6</speed>
<temp>0.00</temp>
<bpm>0</bpm>
<rpm>0.00</rpm>
</extensions>
</trkpt>
<trkpt lat="64.214286804" lon="-20.873357773">
<ele>171.054688</ele>
<time>2012-07-19T14:07:01Z</time>
<speed>3.090000</speed>
<extensions>
<speed>3.1</speed>
<temp>0.00</temp>
<bpm>0</bpm>
<rpm>0.00</rpm>
</extensions>
</trkpt>
<trkpt lat="64.214294434" lon="-20.873630524">
<ele>169.996094</ele>
<time>2012-07-19T14:07:06Z</time>
<speed>3.090000</speed>
<extensions>
<speed>3.1</speed>
<temp>0.00</temp>
<bpm>0</bpm>
<rpm>0.00</rpm>
</extensions>
</trkpt>
<trkpt lat="64.214286804" lon="-20.873971939">
<ele>168.214844</ele>
<time>2012-07-19T14:07:11Z</time>
<speed>3.570000</speed>
<extensions>
<speed>3.6</speed>
<temp>0.00</temp>
<bpm>0</bpm>
<rpm>0.00</rpm>
</extensions>
</trkpt>
<trkpt lat="64.214256287" lon="-20.874315262">
<ele>165.218750</ele>
<time>2012-07-19T14:07:16Z</time>
<speed>3.500000</speed>
<extensions>
<speed>3.5</speed>
<temp>0.00</temp>
<bpm>0</bpm>
<rpm>0.00</rpm>
</extensions>
</trkpt>
<trkpt lat="64.214233398" lon="-20.874647141">
<ele>162.789063</ele>
<time>2012-07-19T14:07:21Z</time>
<speed>3.450000</speed>
<extensions>
<speed>3.5</speed>
<temp>0.00</temp>
<bpm>0</bpm>
<rpm>0.00</rpm>
</extensions>
</trkpt>
<trkpt lat="64.214195251" lon="-20.874996185">
<ele>162.734375</ele>
<time>2012-07-19T14:07:26Z</time>
<speed>4.030000</speed>
<extensions>
<speed>4.0</speed>
<temp>0.00</temp>
<bpm>0</bpm>
<rpm>0.00</rpm>
</extensions>
</trkpt>
<trkpt lat="64.214141846" lon="-20.875349045">
<ele>161.460938</ele>
<time>2012-07-19T14:07:31Z</time>
<speed>3.660000</speed>
<extensions>
<speed>3.7</speed>
<temp>0.00</temp>
<bpm>0</bpm>
<rpm>0.00</rpm>
</extensions>
</trkpt>
<trkpt lat="64.214111328" lon="-20.875684738">
<ele>161.539063</ele>
<time>2012-07-19T14:07:36Z</time>
<speed>3.420000</speed>
<extensions>
<speed>3.4</speed>
<temp>0.00</temp>
<bpm>0</bpm>
<rpm>0.00</rpm>
</extensions>
</trkpt>
<trkpt lat="64.214073181" lon="-20.876033783">
<ele>162.957031</ele>
<time>2012-07-19T14:07:41Z</time>
<speed>3.030000</speed>
<extensions>
<speed>3.0</speed>
<temp>0.00</temp>
<bpm>0</bpm>
<rpm>0.00</rpm>
</extensions>
</trkpt>
<trkpt lat="64.213996887" lon="-20.876344681">
<ele>160.894531</ele>
<time>2012-07-19T14:07:46Z</time>
<speed>3.700000</speed>
<extensions>
<speed>3.7</speed>
<temp>0.00</temp>
<bpm>0</bpm>
<rpm>0.00</rpm>
</extensions>
</trkpt>
<trkpt lat="64.213943481" lon="-20.876705170">
<ele>159.105469</ele>
<time>2012-07-19T14:07:51Z</time>
<speed>3.860000</speed>
<extensions>
<speed>3.9</speed>
<temp>0.00</temp>
<bpm>0</bpm>
<rpm>0.00</rpm>
</extensions>
</trkpt>
<trkpt lat="64.213867188" lon="-20.877073288">
<ele>155.910156</ele>
<time>2012-07-19T14:07:56Z</time>
<speed>3.940000</speed>
<extensions>
<speed>3.9</speed>
<temp>0.00</temp>
<bpm>0</bpm>
<rpm>0.00</rpm>
</extensions>
</trkpt>
<trkpt lat="64.213798523" lon="-20.877456665">
<ele>157.363281</ele>
<time>2012-07-19T14:08:01Z</time>
<speed>4.150000</speed>
<extensions>
<speed>4.1</speed>
<temp>0.00</temp>
<bpm>0</bpm>
<rpm>0.00</rpm>
</extensions>
</trkpt>
<trkpt lat="64.213737488" lon="-20.877845764">
<ele>157.820313</ele>
<time>2012-07-19T14:08:06Z</time>
<speed>4.130000</speed>
<extensions>
<speed>4.1</speed>
<temp>0.00</temp>
<bpm>0</bpm>
<rpm>0.00</rpm>
</extensions>
</trkpt>
<trkpt lat="64.213691711" lon="-20.878238678">
<ele>158.925781</ele>
<time>2012-07-19T14:08:11Z</time>
<speed>4.340000</speed>
<extensions>
<speed>4.3</speed>
<temp>0.00</temp>
<bpm>0</bpm>
<rpm>0.00</rpm>
</extensions>
</trkpt>
<trkpt lat="64.213630676" lon="-20.878631592">
<ele>159.996094</ele>
<time>2012-07-19T14:08:16Z</time>
<speed>4.140000</speed>
<extensions>
<speed>4.1</speed>
<temp>0.00</temp>
<bpm>0</bpm>
<rpm>0.00</rpm>
</extensions>
</trkpt>
<trkpt lat="64.213584900" lon="-20.879051208">
<ele>161.214844</ele>
<time>2012-07-19T14:08:21Z</time>
<speed>4.290000</speed>
<extensions>
<speed>4.3</speed>
<temp>0.00</temp>
<bpm>0</bpm>
<rpm>0.00</rpm>
</extensions>
</trkpt>
<trkpt lat="64.213531494" lon="-20.879440308">
<ele>161.121094</ele>
<time>2012-07-19T14:08:26Z</time>
<speed>3.520000</speed>
<extensions>
<speed>3.5</speed>
<temp>0.00</temp>
<bpm>0</bpm>
<rpm>0.00</rpm>
</extensions>
</trkpt>
<trkpt lat="64.213485718" lon="-20.879825592">
<ele>162.816406</ele>
<time>2012-07-19T14:08:31Z</time>
<speed>3.830000</speed>
<extensions>
<speed>3.8</speed>
<temp>0.00</temp>
<bpm>0</bpm>
<rpm>0.00</rpm>
</extensions>
</trkpt>
<trkpt lat="64.213447571" lon="-20.880136490">
<ele>162.468750</ele>
<time>2012-07-19T14:08:36Z</time>
<speed>2.320000</speed>
<extensions>
<speed>2.3</speed>
<temp>0.00</temp>
<bpm>0</bpm>
<rpm>0.00</rpm>
</extensions>
</trkpt>
<trkpt lat="64.213424683" lon="-20.880456924">
<ele>162.054688</ele>
<time>2012-07-19T14:08:41Z</time>
<speed>3.190000</speed>
<extensions>
<speed>3.2</speed>
<temp>0.00</temp>
<bpm>0</bpm>
<rpm>0.00</rpm>
</extensions>
</trkpt>
<trkpt lat="64.213386536" lon="-20.880804062">
<ele>163.472656</ele>
<time>2012-07-19T14:08:46Z</time>
<speed>3.540000</speed>
<extensions>
<speed>3.5</speed>
<temp>0.00</temp>
<bpm>0</bpm>
<rpm>0.00</rpm>
</extensions>
</trkpt>
<trkpt lat="64.213333130" lon="-20.881179810">
<ele>165.828125</ele>
<time>2012-07-19T14:08:51Z</time>
<speed>3.610000</speed>
<extensions>
<speed>3.6</speed>
<temp>0.00</temp>
<bpm>0</bpm>
<rpm>0.00</rpm>
</extensions>
</trkpt>
<trkpt lat="64.213279724" lon="-20.881551743">
<ele>167.542969</ele>
<time>2012-07-19T14:08:56Z</time>
<speed>3.890000</speed>
<extensions>
<speed>3.9</speed>
<temp>0.00</temp>
<bpm>0</bpm>
<rpm>0.00</rpm>
</extensions>
</trkpt>
<trkpt lat="64.213241577" lon="-20.881893158">
<ele>170.554688</ele>
<time>2012-07-19T14:09:01Z</time>
<speed>3.440000</speed>
<extensions>
<speed>3.4</speed>
<temp>0.00</temp>
<bpm>0</bpm>
<rpm>0.00</rpm>
</extensions>
</trkpt>
<trkpt lat="64.213203430" lon="-20.882249832">
<ele>173.445313</ele>
<time>2012-07-19T14:09:06Z</time>
<speed>3.240000</speed>
<extensions>
<speed>3.2</speed>
<temp>0.00</temp>
<bpm>0</bpm>
<rpm>0.00</rpm>
</extensions>
</trkpt>
<trkpt lat="64.213165283" lon="-20.882549286">
<ele>174.671875</ele>
<time>2012-07-19T14:09:11Z</time>
<speed>2.660000</speed>
<extensions>
<speed>2.7</speed>
<temp>0.00</temp>
<bpm>0</bpm>
<rpm>0.00</rpm>
</extensions>
</trkpt>
<trkpt lat="64.213119507" lon="-20.882814407">
<ele>177.058594</ele>
<time>2012-07-19T14:09:16Z</time>
<speed>3.020000</speed>
<extensions>
<speed>3.0</speed>
<temp>0.00</temp>
<bpm>0</bpm>
<rpm>0.00</rpm>
</extensions>
</trkpt>
<trkpt lat="64.213081360" lon="-20.883136749">
<ele>178.320313</ele>
<time>2012-07-19T14:09:21Z</time>
<speed>2.570000</speed>
<extensions>
<speed>2.6</speed>
<temp>0.00</temp>
<bpm>0</bpm>
<rpm>0.00</rpm>
</extensions>
</trkpt>
<trkpt lat="64.213043213" lon="-20.883409500">
<ele>179.730469</ele>
<time>2012-07-19T14:09:26Z</time>
<speed>3.060000</speed>
<extensions>
<speed>3.1</speed>
<temp>0.00</temp>
<bpm>0</bpm>
<rpm>0.00</rpm>
</extensions>
</trkpt>
<trkpt lat="64.213005066" lon="-20.883743286">
<ele>178.726563</ele>
<time>2012-07-19T14:09:31Z</time>
<speed>3.440000</speed>
<extensions>
<speed>3.4</speed>
<temp>0.00</temp>
<bpm>0</bpm>
<rpm>0.00</rpm>
</extensions>
</trkpt>
<trkpt lat="64.212966919" lon="-20.884092331">
<ele>178.660156</ele>
<time>2012-07-19T14:09:36Z</time>
<speed>3.500000</speed>
<extensions>
<speed>3.5</speed>
<temp>0.00</temp>
<bpm>0</bpm>
<rpm>0.00</rpm>
</extensions>
</trkpt>
<trkpt lat="64.212921143" lon="-20.884466171">
<ele>178.046875</ele>
<time>2012-07-19T14:09:41Z</time>
<speed>3.830000</speed>
<extensions>
<speed>3.8</speed>
<temp>0.00</temp>
<bpm>0</bpm>
<rpm>0.00</rpm>
</extensions>
</trkpt>
<trkpt lat="64.212867737" lon="-20.884855270">
<ele>178.414063</ele>
<time>2012-07-19T14:09:46Z</time>
<speed>3.940000</speed>
<extensions>
<speed>3.9</speed>
<temp>0.00</temp>
<bpm>0</bpm>
<rpm>0.00</rpm>
</extensions>
</trkpt>
<trkpt lat="64.212829590" lon="-20.885244370">
<ele>178.496094</ele>
<time>2012-07-19T14:09:51Z</time>
<speed>3.940000</speed>
<extensions>
<speed>3.9</speed>
<temp>0.00</temp>
<bpm>0</bpm>
<rpm>0.00</rpm>
</extensions>
</trkpt>
<trkpt lat="64.212776184" lon="-20.885646820">
<ele>178.492188</ele>
<time>2012-07-19T14:09:56Z</time>
<speed>3.950000</speed>
<extensions>
<speed>4.0</speed>
<temp>0.00</temp>
<bpm>0</bpm>
<rpm>0.00</rpm>
</extensions>
</trkpt>
<trkpt lat="64.212730408" lon="-20.886043549">
<ele>178.468750</ele>
<time>2012-07-19T14:10:01Z</time>
<speed>3.930000</speed>
<extensions>
<speed>3.9</speed>
<temp>0.00</temp>
<bpm>0</bpm>
<rpm>0.00</rpm>
</extensions>
</trkpt>
<trkpt lat="64.212677002" lon="-20.886440277">
<ele>178.773438</ele>
<time>2012-07-19T14:10:06Z</time>
<speed>3.970000</speed>
<extensions>
<speed>4.0</speed>
<temp>0.00</temp>
<bpm>0</bpm>
<rpm>0.00</rpm>
</extensions>
</trkpt>
<trkpt lat="64.212623596" lon="-20.886823654">
<ele>178.957031</ele>
<time>2012-07-19T14:10:11Z</time>
<speed>3.460000</speed>
<extensions>
<speed>3.5</speed>
<temp>0.00</temp>
<bpm>0</bpm>
<rpm>0.00</rpm>
</extensions>
</trkpt>
<trkpt lat="64.212585449" lon="-20.887071609">
<ele>179.292969</ele>
<time>2012-07-19T14:10:16Z</time>
<speed>1.790000</speed>
<extensions>
<speed>1.8</speed>
<temp>0.00</temp>
<bpm>0</bpm>
<rpm>0.00</rpm>
</extensions>
</trkpt>
<trkpt lat="64.212562561" lon="-20.887212753">
<ele>179.382813</ele>
<time>2012-07-19T14:10:21Z</time>
<speed>1.650000</speed>
<extensions>
<speed>1.7</speed>
<temp>0.00</temp>
<bpm>0</bpm>
<rpm>0.00</rpm>
</extensions>
</trkpt>
<trkpt lat="64.212570190" lon="-20.887332916">
<ele>179.003906</ele>
<time>2012-07-19T14:10:26Z</time>
<speed>0.270000</speed>
<extensions>
<speed>0.3</speed>
<temp>0.00</temp>
<bpm>0</bpm>
<rpm>0.00</rpm>
</extensions>
</trkpt>
<trkpt lat="64.212570190" lon="-20.887313843">
<ele>179.246094</ele>
<time>2012-07-19T14:10:31Z</time>
<speed>0.010000</speed>
<extensions>
<speed>0.0</speed>
<temp>0.00</temp>
<bpm>0</bpm>
<rpm>0.00</rpm>
</extensions>
</trkpt>
<trkpt lat="64.212570190" lon="-20.887311935">
<ele>179.253906</ele>
<time>2012-07-19T14:10:36Z</time>
<extensions>
<speed>0.0</speed>
<temp>0.00</temp>
<bpm>0</bpm>
<rpm>0.00</rpm>
</extensions>
</trkpt>
<trkpt lat="64.212570190" lon="-20.887311935">
<ele>179.273438</ele>
<time>2012-07-19T14:10:41Z</time>
<speed>0.040000</speed>
<extensions>
<speed>0.0</speed>
<temp>0.00</temp>
<bpm>0</bpm>
<rpm>0.00</rpm>
</extensions>
</trkpt>
<trkpt lat="64.212570190" lon="-20.887311935">
<ele>179.285156</ele>
<time>2012-07-19T14:10:46Z</time>
<speed>0.010000</speed>
<extensions>
<speed>0.0</speed>
<temp>0.00</temp>
<bpm>0</bpm>
<rpm>0.00</rpm>
</extensions>
</trkpt>
<trkpt lat="64.212570190" lon="-20.887311935">
<ele>179.257813</ele>
<time>2012-07-19T14:10:51Z</time>
<extensions>
<speed>0.0</speed>
<temp>0.00</temp>
<bpm>0</bpm>
<rpm>0.00</rpm>
</extensions>
</trkpt>
<trkpt lat="64.212570190" lon="-20.887310028">
<ele>179.257813</ele>
<time>2012-07-19T14:10:56Z</time>
<extensions>
<speed>0.0</speed>
<temp>0.00</temp>
<bpm>0</bpm>
<rpm>0.00</rpm>
</extensions>
</trkpt>
<trkpt lat="64.212570190" lon="-20.887310028">
<ele>179.253906</ele>
<time>2012-07-19T14:11:01Z</time>
<extensions>
<speed>0.0</speed>
<temp>0.00</temp>
<bpm>0</bpm>
<rpm>0.00</rpm>
</extensions>
</trkpt>
<trkpt lat="64.212570190" lon="-20.887310028">
<ele>179.246094</ele>
<time>2012-07-19T14:11:06Z</time>
<extensions>
<speed>0.0</speed>
<temp>0.00</temp>
<bpm>0</bpm>
<rpm>0.00</rpm>
</extensions>
</trkpt>
<trkpt lat="64.212570190" lon="-20.887310028">
<ele>179.242188</ele>
<time>2012-07-19T14:11:11Z</time>
<extensions>
<speed>0.0</speed>
<temp>0.00</temp>
<bpm>0</bpm>
<rpm>0.00</rpm>
</extensions>
</trkpt>
<trkpt lat="64.212570190" lon="-20.887310028">
<ele>179.234375</ele>
<time>2012-07-19T14:11:16Z</time>
<extensions>
<speed>0.0</speed>
<temp>0.00</temp>
<bpm>0</bpm>
<rpm>0.00</rpm>
</extensions>
</trkpt>
<trkpt lat="64.212570190" lon="-20.887310028">
<ele>179.230469</ele>
<time>2012-07-19T14:11:21Z</time>
<extensions>
<speed>0.0</speed>
<temp>0.00</temp>
<bpm>0</bpm>
<rpm>0.00</rpm>
</extensions>
</trkpt>
<trkpt lat="64.212570190" lon="-20.887308121">
<ele>179.226563</ele>
<time>2012-07-19T14:11:26Z</time>
<extensions>
<speed>0.0</speed>
<temp>0.00</temp>
<bpm>0</bpm>
<rpm>0.00</rpm>
</extensions>
</trkpt>
<trkpt lat="64.212570190" lon="-20.887308121">
<ele>179.222656</ele>
<time>2012-07-19T14:11:31Z</time>
<extensions>
<speed>0.0</speed>
<temp>0.00</temp>
<bpm>0</bpm>
<rpm>0.00</rpm>
</extensions>
</trkpt>
<trkpt lat="64.212570190" lon="-20.887308121">
<ele>179.210938</ele>
<time>2012-07-19T14:11:36Z</time>
<extensions>
<speed>0.0</speed>
<temp>0.00</temp>
<bpm>0</bpm>
<rpm>0.00</rpm>
</extensions>
</trkpt>
<trkpt lat="64.212570190" lon="-20.887308121">
<ele>179.199219</ele>
<time>2012-07-19T14:11:41Z</time>
<speed>0.010000</speed>
<extensions>
<speed>0.0</speed>
<temp>0.00</temp>
<bpm>0</bpm>
<rpm>0.00</rpm>
</extensions>
</trkpt>
<trkpt lat="64.212577820" lon="-20.887323380">
<ele>179.269531</ele>
<time>2012-07-19T14:11:46Z</time>
<speed>1.210000</speed>
<extensions>
<speed>1.2</speed>
<temp>0.00</temp>
<bpm>0</bpm>
<rpm>0.00</rpm>
</extensions>
</trkpt>
<trkpt lat="64.212631226" lon="-20.887413025">
<ele>179.207031</ele>
<time>2012-07-19T14:11:51Z</time>
<speed>1.270000</speed>
<extensions>
<speed>1.3</speed>
<temp>0.00</temp>
<bpm>0</bpm>
<rpm>0.00</rpm>
</extensions>
</trkpt>
<trkpt lat="64.212699890" lon="-20.887437820">
<ele>179.000000</ele>
<time>2012-07-19T14:11:56Z</time>
<speed>2.160000</speed>
<extensions>
<speed>2.2</speed>
<temp>0.00</temp>
<bpm>0</bpm>
<rpm>0.00</rpm>
</extensions>
</trkpt>
<trkpt lat="64.212799072" lon="-20.887487411">
<ele>178.312500</ele>
<time>2012-07-19T14:12:01Z</time>
<speed>2.590000</speed>
<extensions>
<speed>2.6</speed>
<temp>0.00</temp>
<bpm>0</bpm>
<rpm>0.00</rpm>
</extensions>
</trkpt>
<trkpt lat="64.212936401" lon="-20.887544632">
<ele>178.007813</ele>
<time>2012-07-19T14:12:06Z</time>
<speed>3.290000</speed>
<extensions>
<speed>3.3</speed>
<temp>0.00</temp>
<bpm>0</bpm>
<rpm>0.00</rpm>
</extensions>
</trkpt>
<trkpt lat="64.213096619" lon="-20.887620926">
<ele>178.058594</ele>
<time>2012-07-19T14:12:11Z</time>
<speed>3.630000</speed>
<extensions>
<speed>3.6</speed>
<temp>0.00</temp>
<bpm>0</bpm>
<rpm>0.00</rpm>
</extensions>
</trkpt>
<trkpt lat="64.213256836" lon="-20.887689590">
<ele>178.265625</ele>
<time>2012-07-19T14:12:16Z</time>
<speed>3.630000</speed>
<extensions>
<speed>3.6</speed>
<temp>0.00</temp>
<bpm>0</bpm>
<rpm>0.00</rpm>
</extensions>
</trkpt>
<trkpt lat="64.213401794" lon="-20.887716293">
<ele>178.425781</ele>
<time>2012-07-19T14:12:21Z</time>
<speed>3.250000</speed>
<extensions>
<speed>3.2</speed>
<temp>0.00</temp>
<bpm>0</bpm>
<rpm>0.00</rpm>
</extensions>
</trkpt>
<trkpt lat="64.213546753" lon="-20.887689590">
<ele>179.183594</ele>
<time>2012-07-19T14:12:26Z</time>
<speed>3.130000</speed>
<extensions>
<speed>3.1</speed>
<temp>0.00</temp>
<bpm>0</bpm>
<rpm>0.00</rpm>
</extensions>
</trkpt>
<trkpt lat="64.213676453" lon="-20.887639999">
<ele>179.714844</ele>
<time>2012-07-19T14:12:31Z</time>
<speed>2.730000</speed>
<extensions>
<speed>2.7</speed>
<temp>0.00</temp>
<bpm>0</bpm>
<rpm>0.00</rpm>
</extensions>
</trkpt>
<trkpt lat="64.213798523" lon="-20.887575150">
<ele>179.992188</ele>
<time>2012-07-19T14:12:36Z</time>
<speed>3.150000</speed>
<extensions>
<speed>3.2</speed>
<temp>0.00</temp>
<bpm>0</bpm>
<rpm>0.00</rpm>
</extensions>
</trkpt>
<trkpt lat="64.213951111" lon="-20.887470245">
<ele>180.792969</ele>
<time>2012-07-19T14:12:41Z</time>
<speed>3.550000</speed>
<extensions>
<speed>3.5</speed>
<temp>0.00</temp>
<bpm>0</bpm>
<rpm>0.00</rpm>
</extensions>
</trkpt>
<trkpt lat="64.214111328" lon="-20.887269974">
<ele>180.554688</ele>
<time>2012-07-19T14:12:46Z</time>
<speed>4.380000</speed>
<extensions>
<speed>4.4</speed>
<temp>0.00</temp>
<bpm>0</bpm>
<rpm>0.00</rpm>
</extensions>
</trkpt>
<trkpt lat="64.214263916" lon="-20.887001038">
<ele>180.644531</ele>
<time>2012-07-19T14:12:51Z</time>
<speed>4.130000</speed>
<extensions>
<speed>4.1</speed>
<temp>0.00</temp>
<bpm>0</bpm>
<rpm>0.00</rpm>
</extensions>
</trkpt>
<trkpt lat="64.214393616" lon="-20.886745453">
<ele>180.773438</ele>
<time>2012-07-19T14:12:56Z</time>
<speed>3.560000</speed>
<extensions>
<speed>3.6</speed>
<temp>0.00</temp>
<bpm>0</bpm>
<rpm>0.00</rpm>
</extensions>
</trkpt>
<trkpt lat="64.214523315" lon="-20.886493683">
<ele>180.421875</ele>
<time>2012-07-19T14:13:01Z</time>
<speed>4.390000</speed>
<extensions>
<speed>4.4</speed>
<temp>0.00</temp>
<bpm>0</bpm>
<rpm>0.00</rpm>
</extensions>
</trkpt>
<trkpt lat="64.214683533" lon="-20.886192322">
<ele>180.394531</ele>
<time>2012-07-19T14:13:06Z</time>
<speed>4.470000</speed>
<extensions>
<speed>4.5</speed>
<temp>0.00</temp>
<bpm>0</bpm>
<rpm>0.00</rpm>
</extensions>
</trkpt>
<trkpt lat="64.214820862" lon="-20.885959625">
<ele>180.464844</ele>
<time>2012-07-19T14:13:11Z</time>
<speed>3.030000</speed>
<extensions>
<speed>3.0</speed>
<temp>0.00</temp>
<bpm>0</bpm>
<rpm>0.00</rpm>
</extensions>
</trkpt>
<trkpt lat="64.214942932" lon="-20.885765076">
<ele>181.140625</ele>
<time>2012-07-19T14:13:16Z</time>
<speed>3.700000</speed>
<extensions>
<speed>3.7</speed>
<temp>0.00</temp>
<bpm>0</bpm>
<rpm>0.00</rpm>
</extensions>
</trkpt>
<trkpt lat="64.215087891" lon="-20.885549545">
<ele>181.437500</ele>
<time>2012-07-19T14:13:21Z</time>
<speed>3.720000</speed>
<extensions>
<speed>3.7</speed>
<temp>0.00</temp>
<bpm>0</bpm>
<rpm>0.00</rpm>
</extensions>
</trkpt>
<trkpt lat="64.215240479" lon="-20.885353088">
<ele>181.394531</ele>
<time>2012-07-19T14:13:26Z</time>
<speed>4.330000</speed>
<extensions>
<speed>4.3</speed>
<temp>0.00</temp>
<bpm>0</bpm>
<rpm>0.00</rpm>
</extensions>
</trkpt>
<trkpt lat="64.215423584" lon="-20.885133743">
<ele>182.691406</ele>
<time>2012-07-19T14:13:31Z</time>
<speed>4.120000</speed>
<extensions>
<speed>4.1</speed>
<temp>0.00</temp>
<bpm>0</bpm>
<rpm>0.00</rpm>
</extensions>
</trkpt>
<trkpt lat="64.215583801" lon="-20.884878159">
<ele>183.523438</ele>
<time>2012-07-19T14:13:36Z</time>
<speed>4.680000</speed>
<extensions>
<speed>4.7</speed>
<temp>0.00</temp>
<bpm>0</bpm>
<rpm>0.00</rpm>
</extensions>
</trkpt>
<trkpt lat="64.215744019" lon="-20.884557724">
<ele>185.402344</ele>
<time>2012-07-19T14:13:41Z</time>
<speed>4.740000</speed>
<extensions>
<speed>4.7</speed>
<temp>0.00</temp>
<bpm>0</bpm>
<rpm>0.00</rpm>
</extensions>
</trkpt>
<trkpt lat="64.215919495" lon="-20.884296417">
<ele>184.835938</ele>
<time>2012-07-19T14:13:46Z</time>
<speed>4.520000</speed>
<extensions>
<speed>4.5</speed>
<temp>0.00</temp>
<bpm>0</bpm>
<rpm>0.00</rpm>
</extensions>
</trkpt>
<trkpt lat="64.216026306" lon="-20.884113312">
<ele>182.953125</ele>
<time>2012-07-19T14:13:51Z</time>
<speed>2.090000</speed>
<extensions>
<speed>2.1</speed>
<temp>0.00</temp>
<bpm>0</bpm>
<rpm>0.00</rpm>
</extensions>
</trkpt>
<trkpt lat="64.216110229" lon="-20.883983612">
<ele>182.132813</ele>
<time>2012-07-19T14:13:56Z</time>
<speed>2.370000</speed>
<extensions>
<speed>2.4</speed>
<temp>0.00</temp>
<bpm>0</bpm>
<rpm>0.00</rpm>
</extensions>
</trkpt>
<trkpt lat="64.216209412" lon="-20.883863449">
<ele>182.625000</ele>
<time>2012-07-19T14:14:01Z</time>
<speed>2.320000</speed>
<extensions>
<speed>2.3</speed>
<temp>0.00</temp>
<bpm>0</bpm>
<rpm>0.00</rpm>
</extensions>
</trkpt>
<trkpt lat="64.216247559" lon="-20.883808136">
<ele>181.703125</ele>
<time>2012-07-19T14:14:06Z</time>
<speed>0.060000</speed>
<extensions>
<speed>0.1</speed>
<temp>0.00</temp>
<bpm>0</bpm>
<rpm>0.00</rpm>
</extensions>
</trkpt>
<trkpt lat="64.216255188" lon="-20.883794785">
<ele>181.132813</ele>
<time>2012-07-19T14:14:11Z</time>
<speed>0.070000</speed>
<extensions>
<speed>0.1</speed>
<temp>0.00</temp>
<bpm>0</bpm>
<rpm>0.00</rpm>
</extensions>
</trkpt>
<trkpt lat="64.216247559" lon="-20.883796692">
<ele>180.871094</ele>
<time>2012-07-19T14:14:16Z</time>
<extensions>
<speed>0.0</speed>
<temp>0.00</temp>
<bpm>0</bpm>
<rpm>0.00</rpm>
</extensions>
</trkpt>
<trkpt lat="64.216247559" lon="-20.883796692">
<ele>180.824219</ele>
<time>2012-07-19T14:14:21Z</time>
<extensions>
<speed>0.0</speed>
<temp>0.00</temp>
<bpm>0</bpm>
<rpm>0.00</rpm>
</extensions>
</trkpt>
<trkpt lat="64.216247559" lon="-20.883796692">
<ele>180.800781</ele>
<time>2012-07-19T14:14:26Z</time>
<extensions>
<speed>0.0</speed>
<temp>0.00</temp>
<bpm>0</bpm>
<rpm>0.00</rpm>
</extensions>
</trkpt>
<trkpt lat="64.216255188" lon="-20.883792877">
<ele>180.761719</ele>
<time>2012-07-19T14:14:31Z</time>
<speed>0.020000</speed>
<extensions>
<speed>0.0</speed>
<temp>0.00</temp>
<bpm>0</bpm>
<rpm>0.00</rpm>
</extensions>
</trkpt>
<trkpt lat="64.216255188" lon="-20.883787155">
<ele>180.796875</ele>
<time>2012-07-19T14:14:36Z</time>
<speed>0.060000</speed>
<extensions>
<speed>0.1</speed>
<temp>0.00</temp>
<bpm>0</bpm>
<rpm>0.00</rpm>
</extensions>
</trkpt>
<trkpt lat="64.216255188" lon="-20.883787155">
<ele>180.757813</ele>
<time>2012-07-19T14:14:41Z</time>
<speed>0.010000</speed>
<extensions>
<speed>0.0</speed>
<temp>0.00</temp>
<bpm>0</bpm>
<rpm>0.00</rpm>
</extensions>
</trkpt>
<trkpt lat="64.216255188" lon="-20.883789063">
<ele>180.726563</ele>
<time>2012-07-19T14:14:46Z</time>
<speed>0.110000</speed>
<extensions>
<speed>0.1</speed>
<temp>0.00</temp>
<bpm>0</bpm>
<rpm>0.00</rpm>
</extensions>
</trkpt>
<trkpt lat="64.216255188" lon="-20.883787155">
<ele>180.695313</ele>
<time>2012-07-19T14:14:51Z</time>
<speed>0.050000</speed>
<extensions>
<speed>0.1</speed>
<temp>0.00</temp>
<bpm>0</bpm>
<rpm>0.00</rpm>
</extensions>
</trkpt>
<trkpt lat="64.216255188" lon="-20.883787155">
<ele>180.683594</ele>
<time>2012-07-19T14:14:56Z</time>
<speed>0.030000</speed>
<extensions>
<speed>0.0</speed>
<temp>0.00</temp>
<bpm>0</bpm>
<rpm>0.00</rpm>
</extensions>
</trkpt>
<trkpt lat="64.216255188" lon="-20.883787155">
<ele>180.660156</ele>
<time>2012-07-19T14:15:01Z</time>
<speed>0.020000</speed>
<extensions>
<speed>0.0</speed>
<temp>0.00</temp>
<bpm>0</bpm>
<rpm>0.00</rpm>
</extensions>
</trkpt>
<trkpt lat="64.216255188" lon="-20.883787155">
<ele>180.664063</ele>
<time>2012-07-19T14:15:06Z</time>
<speed>0.030000</speed>
<extensions>
<speed>0.0</speed>
<temp>0.00</temp>
<bpm>0</bpm>
<rpm>0.00</rpm>
</extensions>
</trkpt>
<trkpt lat="64.216255188" lon="-20.883789063">
<ele>180.656250</ele>
<time>2012-07-19T14:15:11Z</time>
<speed>0.020000</speed>
<extensions>
<speed>0.0</speed>
<temp>0.00</temp>
<bpm>0</bpm>
<rpm>0.00</rpm>
</extensions>
</trkpt>
<trkpt lat="64.216255188" lon="-20.883787155">
<ele>180.656250</ele>
<time>2012-07-19T14:15:16Z</time>
<speed>0.020000</speed>
<extensions>
<speed>0.0</speed>
<temp>0.00</temp>
<bpm>0</bpm>
<rpm>0.00</rpm>
</extensions>
</trkpt>
<trkpt lat="64.216255188" lon="-20.883789063">
<ele>180.640625</ele>
<time>2012-07-19T14:15:21Z</time>
<extensions>
<speed>0.0</speed>
<temp>0.00</temp>
<bpm>0</bpm>
<rpm>0.00</rpm>
</extensions>
</trkpt>
<trkpt lat="64.216255188" lon="-20.883789063">
<ele>180.617188</ele>
<time>2012-07-19T14:15:26Z</time>
<speed>0.010000</speed>
<extensions>
<speed>0.0</speed>
<temp>0.00</temp>
<bpm>0</bpm>
<rpm>0.00</rpm>
</extensions>
</trkpt>
<trkpt lat="64.216255188" lon="-20.883789063">
<ele>180.593750</ele>
<time>2012-07-19T14:15:31Z</time>
<speed>0.010000</speed>
<extensions>
<speed>0.0</speed>
<temp>0.00</temp>
<bpm>0</bpm>
<rpm>0.00</rpm>
</extensions>
</trkpt>
<trkpt lat="64.216255188" lon="-20.883789063">
<ele>180.574219</ele>
<time>2012-07-19T14:15:36Z</time>
<speed>0.020000</speed>
<extensions>
<speed>0.0</speed>
<temp>0.00</temp>
<bpm>0</bpm>
<rpm>0.00</rpm>
</extensions>
</trkpt>
<trkpt lat="64.216255188" lon="-20.883789063">
<ele>180.554688</ele>
<time>2012-07-19T14:15:41Z</time>
<speed>0.010000</speed>
<extensions>
<speed>0.0</speed>
<temp>0.00</temp>
<bpm>0</bpm>
<rpm>0.00</rpm>
</extensions>
</trkpt>
<trkpt lat="64.216255188" lon="-20.883789063">
<ele>180.535156</ele>
<time>2012-07-19T14:15:46Z</time>
<extensions>
<speed>0.0</speed>
<temp>0.00</temp>
<bpm>0</bpm>
<rpm>0.00</rpm>
</extensions>
</trkpt>
<trkpt lat="64.216255188" lon="-20.883789063">
<ele>180.511719</ele>
<time>2012-07-19T14:15:51Z</time>
<speed>0.010000</speed>
<extensions>
<speed>0.0</speed>
<temp>0.00</temp>
<bpm>0</bpm>
<rpm>0.00</rpm>
</extensions>
</trkpt>
<trkpt lat="64.216255188" lon="-20.883789063">
<ele>180.496094</ele>
<time>2012-07-19T14:15:56Z</time>
<extensions>
<speed>0.0</speed>
<temp>0.00</temp>
<bpm>0</bpm>
<rpm>0.00</rpm>
</extensions>
</trkpt>
<trkpt lat="64.216255188" lon="-20.883789063">
<ele>180.468750</ele>
<time>2012-07-19T14:16:01Z</time>
<extensions>
<speed>0.0</speed>
<temp>0.00</temp>
<bpm>0</bpm>
<rpm>0.00</rpm>
</extensions>
</trkpt>
<trkpt lat="64.216255188" lon="-20.883790970">
<ele>180.457031</ele>
<time>2012-07-19T14:16:06Z</time>
<speed>0.010000</speed>
<extensions>
<speed>0.0</speed>
<temp>0.00</temp>
<bpm>0</bpm>
<rpm>0.00</rpm>
</extensions>
</trkpt>
<trkpt lat="64.216255188" lon="-20.883790970">
<ele>180.433594</ele>
<time>2012-07-19T14:16:11Z</time>
<extensions>
<speed>0.0</speed>
<temp>0.00</temp>
<bpm>0</bpm>
<rpm>0.00</rpm>
</extensions>
</trkpt>
<trkpt lat="64.216255188" lon="-20.883790970">
<ele>180.417969</ele>
<time>2012-07-19T14:16:16Z</time>
<extensions>
<speed>0.0</speed>
<temp>0.00</temp>
<bpm>0</bpm>
<rpm>0.00</rpm>
</extensions>
</trkpt>
<trkpt lat="64.216255188" lon="-20.883790970">
<ele>180.402344</ele>
<time>2012-07-19T14:16:21Z</time>
<speed>0.010000</speed>
<extensions>
<speed>0.0</speed>
<temp>0.00</temp>
<bpm>0</bpm>
<rpm>0.00</rpm>
</extensions>
</trkpt>
<trkpt lat="64.216255188" lon="-20.883790970">
<ele>180.386719</ele>
<time>2012-07-19T14:16:26Z</time>
<speed>0.020000</speed>
<extensions>
<speed>0.0</speed>
<temp>0.00</temp>
<bpm>0</bpm>
<rpm>0.00</rpm>
</extensions>
</trkpt>
<trkpt lat="64.216255188" lon="-20.883790970">
<ele>180.375000</ele>
<time>2012-07-19T14:16:31Z</time>
<speed>0.010000</speed>
<extensions>
<speed>0.0</speed>
<temp>0.00</temp>
<bpm>0</bpm>
<rpm>0.00</rpm>
</extensions>
</trkpt>
<trkpt lat="64.216255188" lon="-20.883790970">
<ele>180.359375</ele>
<time>2012-07-19T14:16:36Z</time>
<extensions>
<speed>0.0</speed>
<temp>0.00</temp>
<bpm>0</bpm>
<rpm>0.00</rpm>
</extensions>
</trkpt>
<trkpt lat="64.216255188" lon="-20.883790970">
<ele>180.335938</ele>
<time>2012-07-19T14:16:41Z</time>
<speed>0.010000</speed>
<extensions>
<speed>0.0</speed>
<temp>0.00</temp>
<bpm>0</bpm>
<rpm>0.00</rpm>
</extensions>
</trkpt>
<trkpt lat="64.216255188" lon="-20.883790970">
<ele>180.316406</ele>
<time>2012-07-19T14:16:46Z</time>
<speed>0.010000</speed>
<extensions>
<speed>0.0</speed>
<temp>0.00</temp>
<bpm>0</bpm>
<rpm>0.00</rpm>
</extensions>
</trkpt>
<trkpt lat="64.216255188" lon="-20.883790970">
<ele>180.304688</ele>
<time>2012-07-19T14:16:51Z</time>
<speed>0.010000</speed>
<extensions>
<speed>0.0</speed>
<temp>0.00</temp>
<bpm>0</bpm>
<rpm>0.00</rpm>
</extensions>
</trkpt>
<trkpt lat="64.216255188" lon="-20.883790970">
<ele>180.292969</ele>
<time>2012-07-19T14:16:56Z</time>
<speed>0.010000</speed>
<extensions>
<speed>0.0</speed>
<temp>0.00</temp>
<bpm>0</bpm>
<rpm>0.00</rpm>
</extensions>
</trkpt>
<trkpt lat="64.216255188" lon="-20.883790970">
<ele>180.273438</ele>
<time>2012-07-19T14:17:01Z</time>
<speed>0.060000</speed>
<extensions>
<speed>0.1</speed>
<temp>0.00</temp>
<bpm>0</bpm>
<rpm>0.00</rpm>
</extensions>
</trkpt>
<trkpt lat="64.216255188" lon="-20.883790970">
<ele>180.253906</ele>
<time>2012-07-19T14:17:06Z</time>
<speed>0.010000</speed>
<extensions>
<speed>0.0</speed>
<temp>0.00</temp>
<bpm>0</bpm>
<rpm>0.00</rpm>
</extensions>
</trkpt>
<trkpt lat="64.216255188" lon="-20.883790970">
<ele>180.242188</ele>
<time>2012-07-19T14:17:11Z</time>
<speed>0.010000</speed>
<extensions>
<speed>0.0</speed>
<temp>0.00</temp>
<bpm>0</bpm>
<rpm>0.00</rpm>
</extensions>
</trkpt>
<trkpt lat="64.216255188" lon="-20.883792877">
<ele>180.222656</ele>
<time>2012-07-19T14:17:16Z</time>
<extensions>
<speed>0.0</speed>
<temp>0.00</temp>
<bpm>0</bpm>
<rpm>0.00</rpm>
</extensions>
</trkpt>
<trkpt lat="64.216255188" lon="-20.883792877">
<ele>180.199219</ele>
<time>2012-07-19T14:17:21Z</time>
<extensions>
<speed>0.0</speed>
<temp>0.00</temp>
<bpm>0</bpm>
<rpm>0.00</rpm>
</extensions>
</trkpt>
<trkpt lat="64.216255188" lon="-20.883792877">
<ele>180.167969</ele>
<time>2012-07-19T14:17:26Z</time>
<extensions>
<speed>0.0</speed>
<temp>0.00</temp>
<bpm>0</bpm>
<rpm>0.00</rpm>
</extensions>
</trkpt>
<trkpt lat="64.216255188" lon="-20.883792877">
<ele>180.144531</ele>
<time>2012-07-19T14:17:31Z</time>
<speed>0.010000</speed>
<extensions>
<speed>0.0</speed>
<temp>0.00</temp>
<bpm>0</bpm>
<rpm>0.00</rpm>
</extensions>
</trkpt>
<trkpt lat="64.216255188" lon="-20.883792877">
<ele>180.125000</ele>
<time>2012-07-19T14:17:36Z</time>
<extensions>
<speed>0.0</speed>
<temp>0.00</temp>
<bpm>0</bpm>
<rpm>0.00</rpm>
</extensions>
</trkpt>
<trkpt lat="64.216255188" lon="-20.883792877">
<ele>180.101563</ele>
<time>2012-07-19T14:17:41Z</time>
<extensions>
<speed>0.0</speed>
<temp>0.00</temp>
<bpm>0</bpm>
<rpm>0.00</rpm>
</extensions>
</trkpt>
<trkpt lat="64.216255188" lon="-20.883794785">
<ele>180.078125</ele>
<time>2012-07-19T14:17:46Z</time>
<extensions>
<speed>0.0</speed>
<temp>0.00</temp>
<bpm>0</bpm>
<rpm>0.00</rpm>
</extensions>
</trkpt>
<trkpt lat="64.216255188" lon="-20.883794785">
<ele>180.054688</ele>
<time>2012-07-19T14:17:51Z</time>
<speed>0.010000</speed>
<extensions>
<speed>0.0</speed>
<temp>0.00</temp>
<bpm>0</bpm>
<rpm>0.00</rpm>
</extensions>
</trkpt>
<trkpt lat="64.216255188" lon="-20.883794785">
<ele>180.031250</ele>
<time>2012-07-19T14:17:56Z</time>
<speed>0.020000</speed>
<extensions>
<speed>0.0</speed>
<temp>0.00</temp>
<bpm>0</bpm>
<rpm>0.00</rpm>
</extensions>
</trkpt>
<trkpt lat="64.216255188" lon="-20.883796692">
<ele>180.000000</ele>
<time>2012-07-19T14:18:01Z</time>
<extensions>
<speed>0.0</speed>
<temp>0.00</temp>
<bpm>0</bpm>
<rpm>0.00</rpm>
</extensions>
</trkpt>
<trkpt lat="64.216255188" lon="-20.883796692">
<ele>179.976563</ele>
<time>2012-07-19T14:18:06Z</time>
<speed>0.010000</speed>
<extensions>
<speed>0.0</speed>
<temp>0.00</temp>
<bpm>0</bpm>
<rpm>0.00</rpm>
</extensions>
</trkpt>
<trkpt lat="64.216255188" lon="-20.883796692">
<ele>179.945313</ele>
<time>2012-07-19T14:18:11Z</time>
<speed>0.020000</speed>
<extensions>
<speed>0.0</speed>
<temp>0.00</temp>
<bpm>0</bpm>
<rpm>0.00</rpm>
</extensions>
</trkpt>
<trkpt lat="64.216255188" lon="-20.883798599">
<ele>179.914063</ele>
<time>2012-07-19T14:18:16Z</time>
<extensions>
<speed>0.0</speed>
<temp>0.00</temp>
<bpm>0</bpm>
<rpm>0.00</rpm>
</extensions>
</trkpt>
<trkpt lat="64.216255188" lon="-20.883798599">
<ele>179.886719</ele>
<time>2012-07-19T14:18:21Z</time>
<speed>0.010000</speed>
<extensions>
<speed>0.0</speed>
<temp>0.00</temp>
<bpm>0</bpm>
<rpm>0.00</rpm>
</extensions>
</trkpt>
<trkpt lat="64.216255188" lon="-20.883800507">
<ele>179.863281</ele>
<time>2012-07-19T14:18:26Z</time>
<speed>0.020000</speed>
<extensions>
<speed>0.0</speed>
<temp>0.00</temp>
<bpm>0</bpm>
<rpm>0.00</rpm>
</extensions>
</trkpt>
<trkpt lat="64.216255188" lon="-20.883800507">
<ele>179.839844</ele>
<time>2012-07-19T14:18:31Z</time>
<speed>0.020000</speed>
<extensions>
<speed>0.0</speed>
<temp>0.00</temp>
<bpm>0</bpm>
<rpm>0.00</rpm>
</extensions>
</trkpt>
<trkpt lat="64.216255188" lon="-20.883800507">
<ele>179.812500</ele>
<time>2012-07-19T14:18:36Z</time>
<extensions>
<speed>0.0</speed>
<temp>0.00</temp>
<bpm>0</bpm>
<rpm>0.00</rpm>
</extensions>
</trkpt>
<trkpt lat="64.216255188" lon="-20.883802414">
<ele>179.785156</ele>
<time>2012-07-19T14:18:41Z</time>
<speed>0.030000</speed>
<extensions>
<speed>0.0</speed>
<temp>0.00</temp>
<bpm>0</bpm>
<rpm>0.00</rpm>
</extensions>
</trkpt>
<trkpt lat="64.216255188" lon="-20.883798599">
<ele>180.125000</ele>
<time>2012-07-19T14:18:46Z</time>
<speed>0.420000</speed>
<extensions>
<speed>0.4</speed>
<temp>0.00</temp>
<bpm>0</bpm>
<rpm>0.00</rpm>
</extensions>
</trkpt>
<trkpt lat="64.216255188" lon="-20.883808136">
<ele>180.507813</ele>
<time>2012-07-19T14:18:51Z</time>
<speed>0.410000</speed>
<extensions>
<speed>0.4</speed>
<temp>0.00</temp>
<bpm>0</bpm>
<rpm>0.00</rpm>
</extensions>
</trkpt>
<trkpt lat="64.216308594" lon="-20.883737564">
<ele>180.867188</ele>
<time>2012-07-19T14:18:56Z</time>
<speed>1.310000</speed>
<extensions>
<speed>1.3</speed>
<temp>0.00</temp>
<bpm>0</bpm>
<rpm>0.00</rpm>
</extensions>
</trkpt>
<trkpt lat="64.216354370" lon="-20.883743286">
<ele>181.476563</ele>
<time>2012-07-19T14:19:01Z</time>
<speed>1.380000</speed>
<extensions>
<speed>1.4</speed>
<temp>0.00</temp>
<bpm>0</bpm>
<rpm>0.00</rpm>
</extensions>
</trkpt>
<trkpt lat="64.216415405" lon="-20.883758545">
<ele>182.382813</ele>
<time>2012-07-19T14:19:06Z</time>
<speed>1.330000</speed>
<extensions>
<speed>1.3</speed>
<temp>0.00</temp>
<bpm>0</bpm>
<rpm>0.00</rpm>
</extensions>
</trkpt>
<trkpt lat="64.216476440" lon="-20.883728027">
<ele>182.632813</ele>
<time>2012-07-19T14:19:11Z</time>
<speed>1.270000</speed>
<extensions>
<speed>1.3</speed>
<temp>0.00</temp>
<bpm>0</bpm>
<rpm>0.00</rpm>
</extensions>
</trkpt>
<trkpt lat="64.216545105" lon="-20.883686066">
<ele>183.070313</ele>
<time>2012-07-19T14:19:16Z</time>
<speed>1.100000</speed>
<extensions>
<speed>1.1</speed>
<temp>0.00</temp>
<bpm>0</bpm>
<rpm>0.00</rpm>
</extensions>
</trkpt>
<trkpt lat="64.216606140" lon="-20.883716583">
<ele>184.117188</ele>
<time>2012-07-19T14:19:21Z</time>
<speed>1.430000</speed>
<extensions>
<speed>1.4</speed>
<temp>0.00</temp>
<bpm>0</bpm>
<rpm>0.00</rpm>
</extensions>
</trkpt>
<trkpt lat="64.216674805" lon="-20.883728027">
<ele>186.195313</ele>
<time>2012-07-19T14:19:26Z</time>
<speed>1.500000</speed>
<extensions>
<speed>1.5</speed>
<temp>0.00</temp>
<bpm>0</bpm>
<rpm>0.00</rpm>
</extensions>
</trkpt>
<trkpt lat="64.216743469" lon="-20.883749008">
<ele>187.113281</ele>
<time>2012-07-19T14:19:31Z</time>
<speed>1.530000</speed>
<extensions>
<speed>1.5</speed>
<temp>0.00</temp>
<bpm>0</bpm>
<rpm>0.00</rpm>
</extensions>
</trkpt>
<trkpt lat="64.216812134" lon="-20.883747101">
<ele>188.367188</ele>
<time>2012-07-19T14:19:36Z</time>
<speed>1.630000</speed>
<extensions>
<speed>1.6</speed>
<temp>0.00</temp>
<bpm>0</bpm>
<rpm>0.00</rpm>
</extensions>
</trkpt>
<trkpt lat="64.216880798" lon="-20.883760452">
<ele>189.804688</ele>
<time>2012-07-19T14:19:41Z</time>
<speed>1.330000</speed>
<extensions>
<speed>1.3</speed>
<temp>0.00</temp>
<bpm>0</bpm>
<rpm>0.00</rpm>
</extensions>
</trkpt>
<trkpt lat="64.216949463" lon="-20.883773804">
<ele>191.851563</ele>
<time>2012-07-19T14:19:46Z</time>
<speed>1.540000</speed>
<extensions>
<speed>1.5</speed>
<temp>0.00</temp>
<bpm>0</bpm>
<rpm>0.00</rpm>
</extensions>
</trkpt>
<trkpt lat="64.217002869" lon="-20.883783340">
<ele>193.058594</ele>
<time>2012-07-19T14:19:51Z</time>
<speed>1.270000</speed>
<extensions>
<speed>1.3</speed>
<temp>0.00</temp>
<bpm>0</bpm>
<rpm>0.00</rpm>
</extensions>
</trkpt>
<trkpt lat="64.217063904" lon="-20.883775711">
<ele>194.605469</ele>
<time>2012-07-19T14:19:56Z</time>
<speed>1.610000</speed>
<extensions>
<speed>1.6</speed>
<temp>0.00</temp>
<bpm>0</bpm>
<rpm>0.00</rpm>
</extensions>
</trkpt>
<trkpt lat="64.217132568" lon="-20.883756638">
<ele>195.398438</ele>
<time>2012-07-19T14:20:01Z</time>
<speed>1.680000</speed>
<extensions>
<speed>1.7</speed>
<temp>0.00</temp>
<bpm>0</bpm>
<rpm>0.00</rpm>
</extensions>
</trkpt>
<trkpt lat="64.217185974" lon="-20.883760452">
<ele>195.292969</ele>
<time>2012-07-19T14:20:06Z</time>
<speed>1.380000</speed>
<extensions>
<speed>1.4</speed>
<temp>0.00</temp>
<bpm>0</bpm>
<rpm>0.00</rpm>
</extensions>
</trkpt>
<trkpt lat="64.217247009" lon="-20.883769989">
<ele>196.812500</ele>
<time>2012-07-19T14:20:11Z</time>
<speed>1.290000</speed>
<extensions>
<speed>1.3</speed>
<temp>0.00</temp>
<bpm>0</bpm>
<rpm>0.00</rpm>
</extensions>
</trkpt>
<trkpt lat="64.217308044" lon="-20.883752823">
<ele>197.710938</ele>
<time>2012-07-19T14:20:16Z</time>
<speed>1.460000</speed>
<extensions>
<speed>1.5</speed>
<temp>0.00</temp>
<bpm>0</bpm>
<rpm>0.00</rpm>
</extensions>
</trkpt>
<trkpt lat="64.217376709" lon="-20.883722305">
<ele>198.523438</ele>
<time>2012-07-19T14:20:21Z</time>
<speed>1.340000</speed>
<extensions>
<speed>1.3</speed>
<temp>0.00</temp>
<bpm>0</bpm>
<rpm>0.00</rpm>
</extensions>
</trkpt>
<trkpt lat="64.217430115" lon="-20.883739471">
<ele>198.644531</ele>
<time>2012-07-19T14:20:26Z</time>
<speed>1.370000</speed>
<extensions>
<speed>1.4</speed>
<temp>0.00</temp>
<bpm>0</bpm>
<rpm>0.00</rpm>
</extensions>
</trkpt>
<trkpt lat="64.217475891" lon="-20.883787155">
<ele>200.488281</ele>
<time>2012-07-19T14:20:31Z</time>
<speed>1.020000</speed>
<extensions>
<speed>1.0</speed>
<temp>0.00</temp>
<bpm>0</bpm>
<rpm>0.00</rpm>
</extensions>
</trkpt>
<trkpt lat="64.217506409" lon="-20.883855820">
<ele>203.546875</ele>
<time>2012-07-19T14:20:36Z</time>
<speed>1.070000</speed>
<extensions>
<speed>1.1</speed>
<temp>0.00</temp>
<bpm>0</bpm>
<rpm>0.00</rpm>
</extensions>
</trkpt>
<trkpt lat="64.217536926" lon="-20.883926392">
<ele>203.132813</ele>
<time>2012-07-19T14:20:41Z</time>
<speed>1.220000</speed>
<extensions>
<speed>1.2</speed>
<temp>0.00</temp>
<bpm>0</bpm>
<rpm>0.00</rpm>
</extensions>
</trkpt>
<trkpt lat="64.217544556" lon="-20.884035110">
<ele>203.839844</ele>
<time>2012-07-19T14:20:46Z</time>
<speed>1.110000</speed>
<extensions>
<speed>1.1</speed>
<temp>0.00</temp>
<bpm>0</bpm>
<rpm>0.00</rpm>
</extensions>
</trkpt>
<trkpt lat="64.217514038" lon="-20.884027481">
<ele>205.054688</ele>
<time>2012-07-19T14:20:51Z</time>
<speed>0.580000</speed>
<extensions>
<speed>0.6</speed>
<temp>0.00</temp>
<bpm>0</bpm>
<rpm>0.00</rpm>
</extensions>
</trkpt>
<trkpt lat="64.217468262" lon="-20.883880615">
<ele>206.285156</ele>
<time>2012-07-19T14:20:56Z</time>
<speed>1.310000</speed>
<extensions>
<speed>1.3</speed>
<temp>0.00</temp>
<bpm>0</bpm>
<rpm>0.00</rpm>
</extensions>
</trkpt>
<trkpt lat="64.217437744" lon="-20.883865356">
<ele>205.222656</ele>
<time>2012-07-19T14:21:01Z</time>
<speed>0.600000</speed>
<extensions>
<speed>0.6</speed>
<temp>0.00</temp>
<bpm>0</bpm>
<rpm>0.00</rpm>
</extensions>
</trkpt>
<trkpt lat="64.217453003" lon="-20.883892059">
<ele>204.417969</ele>
<time>2012-07-19T14:21:06Z</time>
<speed>0.080000</speed>
<extensions>
<speed>0.1</speed>
<temp>0.00</temp>
<bpm>0</bpm>
<rpm>0.00</rpm>
</extensions>
</trkpt>
<trkpt lat="64.217498779" lon="-20.883907318">
<ele>202.234375</ele>
<time>2012-07-19T14:21:11Z</time>
<speed>0.910000</speed>
<extensions>
<speed>0.9</speed>
<temp>0.00</temp>
<bpm>0</bpm>
<rpm>0.00</rpm>
</extensions>
</trkpt>
<trkpt lat="64.217544556" lon="-20.883928299">
<ele>196.203125</ele>
<time>2012-07-19T14:21:16Z</time>
<speed>0.680000</speed>
<extensions>
<speed>0.7</speed>
<temp>0.00</temp>
<bpm>0</bpm>
<rpm>0.00</rpm>
</extensions>
</trkpt>
<trkpt lat="64.217567444" lon="-20.883901596">
<ele>193.226563</ele>
<time>2012-07-19T14:21:21Z</time>
<speed>0.740000</speed>
<extensions>
<speed>0.7</speed>
<temp>0.00</temp>
<bpm>0</bpm>
<rpm>0.00</rpm>
</extensions>
</trkpt>
<trkpt lat="64.217613220" lon="-20.883852005">
<ele>190.160156</ele>
<time>2012-07-19T14:21:26Z</time>
<speed>0.740000</speed>
<extensions>
<speed>0.7</speed>
<temp>0.00</temp>
<bpm>0</bpm>
<rpm>0.00</rpm>
</extensions>
</trkpt>
<trkpt lat="64.217674255" lon="-20.883741379">
<ele>190.730469</ele>
<time>2012-07-19T14:21:31Z</time>
<speed>1.010000</speed>
<extensions>
<speed>1.0</speed>
<temp>0.00</temp>
<bpm>0</bpm>
<rpm>0.00</rpm>
</extensions>
</trkpt>
<trkpt lat="64.217727661" lon="-20.883684158">
<ele>191.070313</ele>
<time>2012-07-19T14:21:36Z</time>
<speed>0.980000</speed>
<extensions>
<speed>1.0</speed>
<temp>0.00</temp>
<bpm>0</bpm>
<rpm>0.00</rpm>
</extensions>
</trkpt>
<trkpt lat="64.217781067" lon="-20.883689880">
<ele>191.433594</ele>
<time>2012-07-19T14:21:41Z</time>
<speed>0.840000</speed>
<extensions>
<speed>0.8</speed>
<temp>0.00</temp>
<bpm>0</bpm>
<rpm>0.00</rpm>
</extensions>
</trkpt>
<trkpt lat="64.217819214" lon="-20.883743286">
<ele>191.671875</ele>
<time>2012-07-19T14:21:46Z</time>
<speed>1.160000</speed>
<extensions>
<speed>1.2</speed>
<temp>0.00</temp>
<bpm>0</bpm>
<rpm>0.00</rpm>
</extensions>
</trkpt>
<trkpt lat="64.217842102" lon="-20.883825302">
<ele>191.886719</ele>
<time>2012-07-19T14:21:51Z</time>
<speed>0.980000</speed>
<extensions>
<speed>1.0</speed>
<temp>0.00</temp>
<bpm>0</bpm>
<rpm>0.00</rpm>
</extensions>
</trkpt>
<trkpt lat="64.217864990" lon="-20.883909225">
<ele>191.800781</ele>
<time>2012-07-19T14:21:56Z</time>
<speed>0.600000</speed>
<extensions>
<speed>0.6</speed>
<temp>0.00</temp>
<bpm>0</bpm>
<rpm>0.00</rpm>
</extensions>
</trkpt>
<trkpt lat="64.217880249" lon="-20.883932114">
<ele>192.640625</ele>
<time>2012-07-19T14:22:01Z</time>
<speed>0.060000</speed>
<extensions>
<speed>0.1</speed>
<temp>0.00</temp>
<bpm>0</bpm>
<rpm>0.00</rpm>
</extensions>
</trkpt>
<trkpt lat="64.217880249" lon="-20.883932114">
<ele>192.433594</ele>
<time>2012-07-19T14:22:06Z</time>
<speed>0.300000</speed>
<extensions>
<speed>0.3</speed>
<temp>0.00</temp>
<bpm>0</bpm>
<rpm>0.00</rpm>
</extensions>
</trkpt>
<trkpt lat="64.217910767" lon="-20.883958817">
<ele>193.144531</ele>
<time>2012-07-19T14:22:11Z</time>
<speed>0.630000</speed>
<extensions>
<speed>0.6</speed>
<temp>0.00</temp>
<bpm>0</bpm>
<rpm>0.00</rpm>
</extensions>
</trkpt>
<trkpt lat="64.217948914" lon="-20.884040833">
<ele>193.558594</ele>
<time>2012-07-19T14:22:16Z</time>
<speed>1.020000</speed>
<extensions>
<speed>1.0</speed>
<temp>0.00</temp>
<bpm>0</bpm>
<rpm>0.00</rpm>
</extensions>
</trkpt>
<trkpt lat="64.217994690" lon="-20.884134293">
<ele>193.945313</ele>
<time>2012-07-19T14:22:21Z</time>
<speed>1.330000</speed>
<extensions>
<speed>1.3</speed>
<temp>0.00</temp>
<bpm>0</bpm>
<rpm>0.00</rpm>
</extensions>
</trkpt>
<trkpt lat="64.218032837" lon="-20.884229660">
<ele>194.386719</ele>
<time>2012-07-19T14:22:26Z</time>
<speed>0.930000</speed>
<extensions>
<speed>0.9</speed>
<temp>0.00</temp>
<bpm>0</bpm>
<rpm>0.00</rpm>
</extensions>
</trkpt>
<trkpt lat="64.218063354" lon="-20.884250641">
<ele>195.722656</ele>
<time>2012-07-19T14:22:31Z</time>
<speed>0.160000</speed>
<extensions>
<speed>0.2</speed>
<temp>0.00</temp>
<bpm>0</bpm>
<rpm>0.00</rpm>
</extensions>
</trkpt>
<trkpt lat="64.218063354" lon="-20.884250641">
<ele>196.480469</ele>
<time>2012-07-19T14:22:36Z</time>
<speed>0.060000</speed>
<extensions>
<speed>0.1</speed>
<temp>0.00</temp>
<bpm>0</bpm>
<rpm>0.00</rpm>
</extensions>
</trkpt>
<trkpt lat="64.218093872" lon="-20.884317398">
<ele>196.816406</ele>
<time>2012-07-19T14:22:41Z</time>
<speed>1.380000</speed>
<extensions>
<speed>1.4</speed>
<temp>0.00</temp>
<bpm>0</bpm>
<rpm>0.00</rpm>
</extensions>
</trkpt>
<trkpt lat="64.218139648" lon="-20.884420395">
<ele>197.164063</ele>
<time>2012-07-19T14:22:46Z</time>
<speed>1.530000</speed>
<extensions>
<speed>1.5</speed>
<temp>0.00</temp>
<bpm>0</bpm>
<rpm>0.00</rpm>
</extensions>
</trkpt>
<trkpt lat="64.218162537" lon="-20.884506226">
<ele>197.710938</ele>
<time>2012-07-19T14:22:51Z</time>
<speed>0.780000</speed>
<extensions>
<speed>0.8</speed>
<temp>0.00</temp>
<bpm>0</bpm>
<rpm>0.00</rpm>
</extensions>
</trkpt>
<trkpt lat="64.218154907" lon="-20.884527206">
<ele>198.007813</ele>
<time>2012-07-19T14:22:56Z</time>
<speed>0.260000</speed>
<extensions>
<speed>0.3</speed>
<temp>0.00</temp>
<bpm>0</bpm>
<rpm>0.00</rpm>
</extensions>
</trkpt>
<trkpt lat="64.218139648" lon="-20.884531021">
<ele>198.265625</ele>
<time>2012-07-19T14:23:01Z</time>
<speed>0.090000</speed>
<extensions>
<speed>0.1</speed>
<temp>0.00</temp>
<bpm>0</bpm>
<rpm>0.00</rpm>
</extensions>
</trkpt>
<trkpt lat="64.218132019" lon="-20.884532928">
<ele>198.300781</ele>
<time>2012-07-19T14:23:06Z</time>
<speed>0.050000</speed>
<extensions>
<speed>0.1</speed>
<temp>0.00</temp>
<bpm>0</bpm>
<rpm>0.00</rpm>
</extensions>
</trkpt>
<trkpt lat="64.218132019" lon="-20.884532928">
<ele>198.316406</ele>
<time>2012-07-19T14:23:11Z</time>
<speed>0.080000</speed>
<extensions>
<speed>0.1</speed>
<temp>0.00</temp>
<bpm>0</bpm>
<rpm>0.00</rpm>
</extensions>
</trkpt>
<trkpt lat="64.218139648" lon="-20.884531021">
<ele>198.328125</ele>
<time>2012-07-19T14:23:16Z</time>
<speed>0.060000</speed>
<extensions>
<speed>0.1</speed>
<temp>0.00</temp>
<bpm>0</bpm>
<rpm>0.00</rpm>
</extensions>
</trkpt>
<trkpt lat="64.218139648" lon="-20.884531021">
<ele>198.347656</ele>
<time>2012-07-19T14:23:21Z</time>
<speed>0.110000</speed>
<extensions>
<speed>0.1</speed>
<temp>0.00</temp>
<bpm>0</bpm>
<rpm>0.00</rpm>
</extensions>
</trkpt>
<trkpt lat="64.218147278" lon="-20.884529114">
<ele>198.386719</ele>
<time>2012-07-19T14:23:26Z</time>
<speed>0.210000</speed>
<extensions>
<speed>0.2</speed>
<temp>0.00</temp>
<bpm>0</bpm>
<rpm>0.00</rpm>
</extensions>
</trkpt>
<trkpt lat="64.218147278" lon="-20.884529114">
<ele>198.472656</ele>
<time>2012-07-19T14:23:31Z</time>
<speed>0.020000</speed>
<extensions>
<speed>0.0</speed>
<temp>0.00</temp>
<bpm>0</bpm>
<rpm>0.00</rpm>
</extensions>
</trkpt>
<trkpt lat="64.218147278" lon="-20.884531021">
<ele>198.527344</ele>
<time>2012-07-19T14:23:36Z</time>
<speed>0.030000</speed>
<extensions>
<speed>0.0</speed>
<temp>0.00</temp>
<bpm>0</bpm>
<rpm>0.00</rpm>
</extensions>
</trkpt>
<trkpt lat="64.218147278" lon="-20.884531021">
<ele>198.550781</ele>
<time>2012-07-19T14:23:41Z</time>
<speed>0.010000</speed>
<extensions>
<speed>0.0</speed>
<temp>0.00</temp>
<bpm>0</bpm>
<rpm>0.00</rpm>
</extensions>
</trkpt>
<trkpt lat="64.218154907" lon="-20.884527206">
<ele>198.570313</ele>
<time>2012-07-19T14:23:46Z</time>
<speed>0.110000</speed>
<extensions>
<speed>0.1</speed>
<temp>0.00</temp>
<bpm>0</bpm>
<rpm>0.00</rpm>
</extensions>
</trkpt>
<trkpt lat="64.218147278" lon="-20.884489059">
<ele>198.187500</ele>
<time>2012-07-19T14:23:51Z</time>
<speed>0.850000</speed>
<extensions>
<speed>0.8</speed>
<temp>0.00</temp>
<bpm>0</bpm>
<rpm>0.00</rpm>
</extensions>
</trkpt>
<trkpt lat="64.218132019" lon="-20.884378433">
<ele>197.476563</ele>
<time>2012-07-19T14:23:56Z</time>
<speed>1.160000</speed>
<extensions>
<speed>1.2</speed>
<temp>0.00</temp>
<bpm>0</bpm>
<rpm>0.00</rpm>
</extensions>
</trkpt>
<trkpt lat="64.218101501" lon="-20.884294510">
<ele>196.871094</ele>
<time>2012-07-19T14:24:01Z</time>
<speed>1.180000</speed>
<extensions>
<speed>1.2</speed>
<temp>0.00</temp>
<bpm>0</bpm>
<rpm>0.00</rpm>
</extensions>
</trkpt>
<trkpt lat="64.218078613" lon="-20.884204865">
<ele>196.136719</ele>
<time>2012-07-19T14:24:06Z</time>
<speed>0.940000</speed>
<extensions>
<speed>0.9</speed>
<temp>0.00</temp>
<bpm>0</bpm>
<rpm>0.00</rpm>
</extensions>
</trkpt>
<trkpt lat="64.218048096" lon="-20.884147644">
<ele>195.484375</ele>
<time>2012-07-19T14:24:11Z</time>
<speed>0.990000</speed>
<extensions>
<speed>1.0</speed>
<temp>0.00</temp>
<bpm>0</bpm>
<rpm>0.00</rpm>
</extensions>
</trkpt>
<trkpt lat="64.218017578" lon="-20.884094238">
<ele>194.648438</ele>
<time>2012-07-19T14:24:16Z</time>
<speed>0.840000</speed>
<extensions>
<speed>0.8</speed>
<temp>0.00</temp>
<bpm>0</bpm>
<rpm>0.00</rpm>
</extensions>
</trkpt>
<trkpt lat="64.217979431" lon="-20.884031296">
<ele>194.082031</ele>
<time>2012-07-19T14:24:21Z</time>
<speed>1.010000</speed>
<extensions>
<speed>1.0</speed>
<temp>0.00</temp>
<bpm>0</bpm>
<rpm>0.00</rpm>
</extensions>
</trkpt>
<trkpt lat="64.217956543" lon="-20.883989334">
<ele>193.617188</ele>
<time>2012-07-19T14:24:26Z</time>
<speed>0.320000</speed>
<extensions>
<speed>0.3</speed>
<temp>0.00</temp>
<bpm>0</bpm>
<rpm>0.00</rpm>
</extensions>
</trkpt>
<trkpt lat="64.217948914" lon="-20.884000778">
<ele>193.402344</ele>
<time>2012-07-19T14:24:31Z</time>
<speed>0.010000</speed>
<extensions>
<speed>0.0</speed>
<temp>0.00</temp>
<bpm>0</bpm>
<rpm>0.00</rpm>
</extensions>
</trkpt>
<trkpt lat="64.217948914" lon="-20.884000778">
<ele>193.402344</ele>
<time>2012-07-19T14:24:36Z</time>
<speed>0.010000</speed>
<extensions>
<speed>0.0</speed>
<temp>0.00</temp>
<bpm>0</bpm>
<rpm>0.00</rpm>
</extensions>
</trkpt>
<trkpt lat="64.217941284" lon="-20.883974075">
<ele>192.843750</ele>
<time>2012-07-19T14:24:41Z</time>
<speed>0.670000</speed>
<extensions>
<speed>0.7</speed>
<temp>0.00</temp>
<bpm>0</bpm>
<rpm>0.00</rpm>
</extensions>
</trkpt>
<trkpt lat="64.217933655" lon="-20.883930206">
<ele>192.390625</ele>
<time>2012-07-19T14:24:46Z</time>
<speed>0.260000</speed>
<extensions>
<speed>0.3</speed>
<temp>0.00</temp>
<bpm>0</bpm>
<rpm>0.00</rpm>
</extensions>
</trkpt>
<trkpt lat="64.217933655" lon="-20.883901596">
<ele>192.218750</ele>
<time>2012-07-19T14:24:51Z</time>
<speed>0.080000</speed>
<extensions>
<speed>0.1</speed>
<temp>0.00</temp>
<bpm>0</bpm>
<rpm>0.00</rpm>
</extensions>
</trkpt>
<trkpt lat="64.217933655" lon="-20.883899689">
<ele>192.304688</ele>
<time>2012-07-19T14:24:56Z</time>
<extensions>
<speed>0.0</speed>
<temp>0.00</temp>
<bpm>0</bpm>
<rpm>0.00</rpm>
</extensions>
</trkpt>
<trkpt lat="64.217933655" lon="-20.883899689">
<ele>192.277344</ele>
<time>2012-07-19T14:25:01Z</time>
<extensions>
<speed>0.0</speed>
<temp>0.00</temp>
<bpm>0</bpm>
<rpm>0.00</rpm>
</extensions>
</trkpt>
<trkpt lat="64.217933655" lon="-20.883899689">
<ele>192.261719</ele>
<time>2012-07-19T14:25:06Z</time>
<speed>0.010000</speed>
<extensions>
<speed>0.0</speed>
<temp>0.00</temp>
<bpm>0</bpm>
<rpm>0.00</rpm>
</extensions>
</trkpt>
<trkpt lat="64.217933655" lon="-20.883899689">
<ele>192.265625</ele>
<time>2012-07-19T14:25:11Z</time>
<extensions>
<speed>0.0</speed>
<temp>0.00</temp>
<bpm>0</bpm>
<rpm>0.00</rpm>
</extensions>
</trkpt>
<trkpt lat="64.217933655" lon="-20.883899689">
<ele>192.261719</ele>
<time>2012-07-19T14:25:16Z</time>
<speed>0.010000</speed>
<extensions>
<speed>0.0</speed>
<temp>0.00</temp>
<bpm>0</bpm>
<rpm>0.00</rpm>
</extensions>
</trkpt>
<trkpt lat="64.217933655" lon="-20.883899689">
<ele>192.261719</ele>
<time>2012-07-19T14:25:21Z</time>
<extensions>
<speed>0.0</speed>
<temp>0.00</temp>
<bpm>0</bpm>
<rpm>0.00</rpm>
</extensions>
</trkpt>
<trkpt lat="64.217933655" lon="-20.883899689">
<ele>192.257813</ele>
<time>2012-07-19T14:25:26Z</time>
<extensions>
<speed>0.0</speed>
<temp>0.00</temp>
<bpm>0</bpm>
<rpm>0.00</rpm>
</extensions>
</trkpt>
<trkpt lat="64.217933655" lon="-20.883899689">
<ele>192.253906</ele>
<time>2012-07-19T14:25:31Z</time>
<speed>0.020000</speed>
<extensions>
<speed>0.0</speed>
<temp>0.00</temp>
<bpm>0</bpm>
<rpm>0.00</rpm>
</extensions>
</trkpt>
<trkpt lat="64.217933655" lon="-20.883899689">
<ele>192.250000</ele>
<time>2012-07-19T14:25:36Z</time>
<speed>0.150000</speed>
<extensions>
<speed>0.2</speed>
<temp>0.00</temp>
<bpm>0</bpm>
<rpm>0.00</rpm>
</extensions>
</trkpt>
<trkpt lat="64.217933655" lon="-20.883899689">
<ele>192.250000</ele>
<time>2012-07-19T14:25:41Z</time>
<extensions>
<speed>0.0</speed>
<temp>0.00</temp>
<bpm>0</bpm>
<rpm>0.00</rpm>
</extensions>
</trkpt>
<trkpt lat="64.217926025" lon="-20.883890152">
<ele>192.265625</ele>
<time>2012-07-19T14:25:46Z</time>
<speed>0.930000</speed>
<extensions>
<speed>0.9</speed>
<temp>0.00</temp>
<bpm>0</bpm>
<rpm>0.00</rpm>
</extensions>
</trkpt>
<trkpt lat="64.217895508" lon="-20.883859634">
<ele>192.847656</ele>
<time>2012-07-19T14:25:51Z</time>
<speed>0.400000</speed>
<extensions>
<speed>0.4</speed>
<temp>0.00</temp>
<bpm>0</bpm>
<rpm>0.00</rpm>
</extensions>
</trkpt>
<trkpt lat="64.217887878" lon="-20.883844376">
<ele>193.140625</ele>
<time>2012-07-19T14:25:56Z</time>
<speed>0.500000</speed>
<extensions>
<speed>0.5</speed>
<temp>0.00</temp>
<bpm>0</bpm>
<rpm>0.00</rpm>
</extensions>
</trkpt>
<trkpt lat="64.217880249" lon="-20.883796692">
<ele>192.347656</ele>
<time>2012-07-19T14:26:01Z</time>
<speed>0.460000</speed>
<extensions>
<speed>0.5</speed>
<temp>0.00</temp>
<bpm>0</bpm>
<rpm>0.00</rpm>
</extensions>
</trkpt>
<trkpt lat="64.217864990" lon="-20.883764267">
<ele>191.972656</ele>
<time>2012-07-19T14:26:06Z</time>
<speed>0.280000</speed>
<extensions>
<speed>0.3</speed>
<temp>0.00</temp>
<bpm>0</bpm>
<rpm>0.00</rpm>
</extensions>
</trkpt>
<trkpt lat="64.217864990" lon="-20.883769989">
<ele>191.906250</ele>
<time>2012-07-19T14:26:11Z</time>
<speed>0.010000</speed>
<extensions>
<speed>0.0</speed>
<temp>0.00</temp>
<bpm>0</bpm>
<rpm>0.00</rpm>
</extensions>
</trkpt>
<trkpt lat="64.217857361" lon="-20.883750916">
<ele>191.968750</ele>
<time>2012-07-19T14:26:16Z</time>
<speed>0.420000</speed>
<extensions>
<speed>0.4</speed>
<temp>0.00</temp>
<bpm>0</bpm>
<rpm>0.00</rpm>
</extensions>
</trkpt>
<trkpt lat="64.217826843" lon="-20.883697510">
<ele>191.492188</ele>
<time>2012-07-19T14:26:21Z</time>
<speed>0.810000</speed>
<extensions>
<speed>0.8</speed>
<temp>0.00</temp>
<bpm>0</bpm>
<rpm>0.00</rpm>
</extensions>
</trkpt>
<trkpt lat="64.217781067" lon="-20.883663177">
<ele>191.003906</ele>
<time>2012-07-19T14:26:26Z</time>
<speed>1.070000</speed>
<extensions>
<speed>1.1</speed>
<temp>0.00</temp>
<bpm>0</bpm>
<rpm>0.00</rpm>
</extensions>
</trkpt>
<trkpt lat="64.217742920" lon="-20.883663177">
<ele>190.980469</ele>
<time>2012-07-19T14:26:31Z</time>
<speed>0.850000</speed>
<extensions>
<speed>0.8</speed>
<temp>0.00</temp>
<bpm>0</bpm>
<rpm>0.00</rpm>
</extensions>
</trkpt>
<trkpt lat="64.217697144" lon="-20.883676529">
<ele>190.691406</ele>
<time>2012-07-19T14:26:36Z</time>
<speed>1.070000</speed>
<extensions>
<speed>1.1</speed>
<temp>0.00</temp>
<bpm>0</bpm>
<rpm>0.00</rpm>
</extensions>
</trkpt>
<trkpt lat="64.217658997" lon="-20.883733749">
<ele>190.632813</ele>
<time>2012-07-19T14:26:41Z</time>
<speed>1.030000</speed>
<extensions>
<speed>1.0</speed>
<temp>0.00</temp>
<bpm>0</bpm>
<rpm>0.00</rpm>
</extensions>
</trkpt>
<trkpt lat="64.217636108" lon="-20.883781433">
<ele>190.773438</ele>
<time>2012-07-19T14:26:46Z</time>
<speed>0.110000</speed>
<extensions>
<speed>0.1</speed>
<temp>0.00</temp>
<bpm>0</bpm>
<rpm>0.00</rpm>
</extensions>
</trkpt>
<trkpt lat="64.217613220" lon="-20.883798599">
<ele>190.851563</ele>
<time>2012-07-19T14:26:51Z</time>
<speed>1.070000</speed>
<extensions>
<speed>1.1</speed>
<temp>0.00</temp>
<bpm>0</bpm>
<rpm>0.00</rpm>
</extensions>
</trkpt>
<trkpt lat="64.217575073" lon="-20.883857727">
<ele>191.035156</ele>
<time>2012-07-19T14:26:56Z</time>
<speed>0.930000</speed>
<extensions>
<speed>0.9</speed>
<temp>0.00</temp>
<bpm>0</bpm>
<rpm>0.00</rpm>
</extensions>
</trkpt>
<trkpt lat="64.217544556" lon="-20.883897781">
<ele>191.140625</ele>
<time>2012-07-19T14:27:01Z</time>
<speed>0.470000</speed>
<extensions>
<speed>0.5</speed>
<temp>0.00</temp>
<bpm>0</bpm>
<rpm>0.00</rpm>
</extensions>
</trkpt>
<trkpt lat="64.217529297" lon="-20.883872986">
<ele>190.250000</ele>
<time>2012-07-19T14:27:06Z</time>
<speed>0.730000</speed>
<extensions>
<speed>0.7</speed>
<temp>0.00</temp>
<bpm>0</bpm>
<rpm>0.00</rpm>
</extensions>
</trkpt>
<trkpt lat="64.217475891" lon="-20.883863449">
<ele>189.804688</ele>
<time>2012-07-19T14:27:11Z</time>
<speed>1.300000</speed>
<extensions>
<speed>1.3</speed>
<temp>0.00</temp>
<bpm>0</bpm>
<rpm>0.00</rpm>
</extensions>
</trkpt>
<trkpt lat="64.217422485" lon="-20.883876801">
<ele>189.417969</ele>
<time>2012-07-19T14:27:16Z</time>
<speed>0.970000</speed>
<extensions>
<speed>1.0</speed>
<temp>0.00</temp>
<bpm>0</bpm>
<rpm>0.00</rpm>
</extensions>
</trkpt>
<trkpt lat="64.217384338" lon="-20.883901596">
<ele>188.917969</ele>
<time>2012-07-19T14:27:21Z</time>
<speed>0.840000</speed>
<extensions>
<speed>0.8</speed>
<temp>0.00</temp>
<bpm>0</bpm>
<rpm>0.00</rpm>
</extensions>
</trkpt>
<trkpt lat="64.217338562" lon="-20.883905411">
<ele>188.210938</ele>
<time>2012-07-19T14:27:26Z</time>
<speed>1.120000</speed>
<extensions>
<speed>1.1</speed>
<temp>0.00</temp>
<bpm>0</bpm>
<rpm>0.00</rpm>
</extensions>
</trkpt>
<trkpt lat="64.217292786" lon="-20.883872986">
<ele>186.566406</ele>
<time>2012-07-19T14:27:31Z</time>
<speed>0.820000</speed>
<extensions>
<speed>0.8</speed>
<temp>0.00</temp>
<bpm>0</bpm>
<rpm>0.00</rpm>
</extensions>
</trkpt>
<trkpt lat="64.217254639" lon="-20.883825302">
<ele>186.250000</ele>
<time>2012-07-19T14:27:36Z</time>
<speed>0.850000</speed>
<extensions>
<speed>0.8</speed>
<temp>0.00</temp>
<bpm>0</bpm>
<rpm>0.00</rpm>
</extensions>
</trkpt>
<trkpt lat="64.217216492" lon="-20.883783340">
<ele>185.644531</ele>
<time>2012-07-19T14:27:41Z</time>
<speed>1.140000</speed>
<extensions>
<speed>1.1</speed>
<temp>0.00</temp>
<bpm>0</bpm>
<rpm>0.00</rpm>
</extensions>
</trkpt>
<trkpt lat="64.217155457" lon="-20.883771896">
<ele>183.628906</ele>
<time>2012-07-19T14:27:46Z</time>
<speed>1.370000</speed>
<extensions>
<speed>1.4</speed>
<temp>0.00</temp>
<bpm>0</bpm>
<rpm>0.00</rpm>
</extensions>
</trkpt>
<trkpt lat="64.217094421" lon="-20.883796692">
<ele>182.652344</ele>
<time>2012-07-19T14:27:51Z</time>
<speed>1.220000</speed>
<extensions>
<speed>1.2</speed>
<temp>0.00</temp>
<bpm>0</bpm>
<rpm>0.00</rpm>
</extensions>
</trkpt>
<trkpt lat="64.217033386" lon="-20.883802414">
<ele>182.648438</ele>
<time>2012-07-19T14:27:56Z</time>
<speed>1.080000</speed>
<extensions>
<speed>1.1</speed>
<temp>0.00</temp>
<bpm>0</bpm>
<rpm>0.00</rpm>
</extensions>
</trkpt>
<trkpt lat="64.216979980" lon="-20.883798599">
<ele>182.160156</ele>
<time>2012-07-19T14:28:01Z</time>
<speed>1.130000</speed>
<extensions>
<speed>1.1</speed>
<temp>0.00</temp>
<bpm>0</bpm>
<rpm>0.00</rpm>
</extensions>
</trkpt>
<trkpt lat="64.216918945" lon="-20.883796692">
<ele>181.355469</ele>
<time>2012-07-19T14:28:06Z</time>
<speed>1.580000</speed>
<extensions>
<speed>1.6</speed>
<temp>0.00</temp>
<bpm>0</bpm>
<rpm>0.00</rpm>
</extensions>
</trkpt>
<trkpt lat="64.216865540" lon="-20.883798599">
<ele>180.710938</ele>
<time>2012-07-19T14:28:11Z</time>
<speed>1.320000</speed>
<extensions>
<speed>1.3</speed>
<temp>0.00</temp>
<bpm>0</bpm>
<rpm>0.00</rpm>
</extensions>
</trkpt>
<trkpt lat="64.216796875" lon="-20.883808136">
<ele>179.511719</ele>
<time>2012-07-19T14:28:16Z</time>
<speed>1.540000</speed>
<extensions>
<speed>1.5</speed>
<temp>0.00</temp>
<bpm>0</bpm>
<rpm>0.00</rpm>
</extensions>
</trkpt>
<trkpt lat="64.216728210" lon="-20.883758545">
<ele>179.417969</ele>
<time>2012-07-19T14:28:21Z</time>
<speed>1.280000</speed>
<extensions>
<speed>1.3</speed>
<temp>0.00</temp>
<bpm>0</bpm>
<rpm>0.00</rpm>
</extensions>
</trkpt>
<trkpt lat="64.216674805" lon="-20.883747101">
<ele>179.695313</ele>
<time>2012-07-19T14:28:26Z</time>
<speed>1.540000</speed>
<extensions>
<speed>1.5</speed>
<temp>0.00</temp>
<bpm>0</bpm>
<rpm>0.00</rpm>
</extensions>
</trkpt>
<trkpt lat="64.216621399" lon="-20.883718491">
<ele>179.722656</ele>
<time>2012-07-19T14:28:31Z</time>
<speed>1.360000</speed>
<extensions>
<speed>1.4</speed>
<temp>0.00</temp>
<bpm>0</bpm>
<rpm>0.00</rpm>
</extensions>
</trkpt>
<trkpt lat="64.216545105" lon="-20.883668900">
<ele>178.746094</ele>
<time>2012-07-19T14:28:36Z</time>
<speed>0.960000</speed>
<extensions>
<speed>1.0</speed>
<temp>0.00</temp>
<bpm>0</bpm>
<rpm>0.00</rpm>
</extensions>
</trkpt>
<trkpt lat="64.216499329" lon="-20.883676529">
<ele>177.535156</ele>
<time>2012-07-19T14:28:41Z</time>
<speed>1.320000</speed>
<extensions>
<speed>1.3</speed>
<temp>0.00</temp>
<bpm>0</bpm>
<rpm>0.00</rpm>
</extensions>
</trkpt>
<trkpt lat="64.216445923" lon="-20.883691788">
<ele>175.875000</ele>
<time>2012-07-19T14:28:46Z</time>
<speed>1.190000</speed>
<extensions>
<speed>1.2</speed>
<temp>0.00</temp>
<bpm>0</bpm>
<rpm>0.00</rpm>
</extensions>
</trkpt>
<trkpt lat="64.216400146" lon="-20.883752823">
<ele>175.550781</ele>
<time>2012-07-19T14:28:51Z</time>
<speed>1.360000</speed>
<extensions>
<speed>1.4</speed>
<temp>0.00</temp>
<bpm>0</bpm>
<rpm>0.00</rpm>
</extensions>
</trkpt>
<trkpt lat="64.216362000" lon="-20.883747101">
<ele>174.996094</ele>
<time>2012-07-19T14:28:56Z</time>
<speed>0.810000</speed>
<extensions>
<speed>0.8</speed>
<temp>0.00</temp>
<bpm>0</bpm>
<rpm>0.00</rpm>
</extensions>
</trkpt>
<trkpt lat="64.216339111" lon="-20.883750916">
<ele>175.566406</ele>
<time>2012-07-19T14:29:01Z</time>
<speed>0.940000</speed>
<extensions>
<speed>0.9</speed>
<temp>0.00</temp>
<bpm>0</bpm>
<rpm>0.00</rpm>
</extensions>
</trkpt>
<trkpt lat="64.216300964" lon="-20.883829117">
<ele>176.121094</ele>
<time>2012-07-19T14:29:06Z</time>
<speed>0.970000</speed>
<extensions>
<speed>1.0</speed>
<temp>0.00</temp>
<bpm>0</bpm>
<rpm>0.00</rpm>
</extensions>
</trkpt>
<trkpt lat="64.216293335" lon="-20.883899689">
<ele>176.843750</ele>
<time>2012-07-19T14:29:11Z</time>
<speed>0.250000</speed>
<extensions>
<speed>0.2</speed>
<temp>0.00</temp>
<bpm>0</bpm>
<rpm>0.00</rpm>
</extensions>
</trkpt>
<trkpt lat="64.216293335" lon="-20.883872986">
<ele>176.964844</ele>
<time>2012-07-19T14:29:16Z</time>
<speed>0.040000</speed>
<extensions>
<speed>0.0</speed>
<temp>0.00</temp>
<bpm>0</bpm>
<rpm>0.00</rpm>
</extensions>
</trkpt>
<trkpt lat="64.216293335" lon="-20.883876801">
<ele>177.152344</ele>
<time>2012-07-19T14:29:21Z</time>
<speed>0.040000</speed>
<extensions>
<speed>0.0</speed>
<temp>0.00</temp>
<bpm>0</bpm>
<rpm>0.00</rpm>
</extensions>
</trkpt>
<trkpt lat="64.216293335" lon="-20.883882523">
<ele>177.324219</ele>
<time>2012-07-19T14:29:26Z</time>
<speed>0.180000</speed>
<extensions>
<speed>0.2</speed>
<temp>0.00</temp>
<bpm>0</bpm>
<rpm>0.00</rpm>
</extensions>
</trkpt>
<trkpt lat="64.216285706" lon="-20.883888245">
<ele>177.480469</ele>
<time>2012-07-19T14:29:31Z</time>
<speed>0.010000</speed>
<extensions>
<speed>0.0</speed>
<temp>0.00</temp>
<bpm>0</bpm>
<rpm>0.00</rpm>
</extensions>
</trkpt>
<trkpt lat="64.216285706" lon="-20.883888245">
<ele>177.503906</ele>
<time>2012-07-19T14:29:36Z</time>
<extensions>
<speed>0.0</speed>
<temp>0.00</temp>
<bpm>0</bpm>
<rpm>0.00</rpm>
</extensions>
</trkpt>
<trkpt lat="64.216285706" lon="-20.883888245">
<ele>177.488281</ele>
<time>2012-07-19T14:29:41Z</time>
<speed>0.010000</speed>
<extensions>
<speed>0.0</speed>
<temp>0.00</temp>
<bpm>0</bpm>
<rpm>0.00</rpm>
</extensions>
</trkpt>
<trkpt lat="64.216285706" lon="-20.883888245">
<ele>177.484375</ele>
<time>2012-07-19T14:29:46Z</time>
<speed>0.050000</speed>
<extensions>
<speed>0.1</speed>
<temp>0.00</temp>
<bpm>0</bpm>
<rpm>0.00</rpm>
</extensions>
</trkpt>
<trkpt lat="64.216285706" lon="-20.883888245">
<ele>177.507813</ele>
<time>2012-07-19T14:29:51Z</time>
<speed>0.040000</speed>
<extensions>
<speed>0.0</speed>
<temp>0.00</temp>
<bpm>0</bpm>
<rpm>0.00</rpm>
</extensions>
</trkpt>
<trkpt lat="64.216285706" lon="-20.883888245">
<ele>177.511719</ele>
<time>2012-07-19T14:29:56Z</time>
<extensions>
<speed>0.0</speed>
<temp>0.00</temp>
<bpm>0</bpm>
<rpm>0.00</rpm>
</extensions>
</trkpt>
<trkpt lat="64.216285706" lon="-20.883888245">
<ele>177.507813</ele>
<time>2012-07-19T14:30:01Z</time>
<extensions>
<speed>0.0</speed>
<temp>0.00</temp>
<bpm>0</bpm>
<rpm>0.00</rpm>
</extensions>
</trkpt>
<trkpt lat="64.216285706" lon="-20.883888245">
<ele>177.507813</ele>
<time>2012-07-19T14:30:06Z</time>
<extensions>
<speed>0.0</speed>
<temp>0.00</temp>
<bpm>0</bpm>
<rpm>0.00</rpm>
</extensions>
</trkpt>
<trkpt lat="64.216285706" lon="-20.883890152">
<ele>177.386719</ele>
<time>2012-07-19T14:30:11Z</time>
<speed>0.010000</speed>
<extensions>
<speed>0.0</speed>
<temp>0.00</temp>
<bpm>0</bpm>
<rpm>0.00</rpm>
</extensions>
</trkpt>
<trkpt lat="64.216270447" lon="-20.883897781">
<ele>176.343750</ele>
<time>2012-07-19T14:30:16Z</time>
<speed>0.120000</speed>
<extensions>
<speed>0.1</speed>
<temp>0.00</temp>
<bpm>0</bpm>
<rpm>0.00</rpm>
</extensions>
</trkpt>
<trkpt lat="64.216262817" lon="-20.883901596">
<ele>176.203125</ele>
<time>2012-07-19T14:30:21Z</time>
<speed>0.070000</speed>
<extensions>
<speed>0.1</speed>
<temp>0.00</temp>
<bpm>0</bpm>
<rpm>0.00</rpm>
</extensions>
</trkpt>
<trkpt lat="64.216270447" lon="-20.883850098">
<ele>176.558594</ele>
<time>2012-07-19T14:30:26Z</time>
<speed>0.020000</speed>
<extensions>
<speed>0.0</speed>
<temp>0.00</temp>
<bpm>0</bpm>
<rpm>0.00</rpm>
</extensions>
</trkpt>
<trkpt lat="64.216270447" lon="-20.883859634">
<ele>176.304688</ele>
<time>2012-07-19T14:30:31Z</time>
<speed>0.030000</speed>
<extensions>
<speed>0.0</speed>
<temp>0.00</temp>
<bpm>0</bpm>
<rpm>0.00</rpm>
</extensions>
</trkpt>
<trkpt lat="64.216278076" lon="-20.883846283">
<ele>177.167969</ele>
<time>2012-07-19T14:30:36Z</time>
<speed>0.020000</speed>
<extensions>
<speed>0.0</speed>
<temp>0.00</temp>
<bpm>0</bpm>
<rpm>0.00</rpm>
</extensions>
</trkpt>
<trkpt lat="64.216285706" lon="-20.883836746">
<ele>178.179688</ele>
<time>2012-07-19T14:30:41Z</time>
<speed>0.010000</speed>
<extensions>
<speed>0.0</speed>
<temp>0.00</temp>
<bpm>0</bpm>
<rpm>0.00</rpm>
</extensions>
</trkpt>
<trkpt lat="64.216285706" lon="-20.883819580">
<ele>178.503906</ele>
<time>2012-07-19T14:30:46Z</time>
<extensions>
<speed>0.0</speed>
<temp>0.00</temp>
<bpm>0</bpm>
<rpm>0.00</rpm>
</extensions>
</trkpt>
<trkpt lat="64.216285706" lon="-20.883842468">
<ele>178.371094</ele>
<time>2012-07-19T14:30:51Z</time>
<speed>0.040000</speed>
<extensions>
<speed>0.0</speed>
<temp>0.00</temp>
<bpm>0</bpm>
<rpm>0.00</rpm>
</extensions>
</trkpt>
<trkpt lat="64.216278076" lon="-20.883855820">
<ele>178.425781</ele>
<time>2012-07-19T14:30:56Z</time>
<speed>0.180000</speed>
<extensions>
<speed>0.2</speed>
<temp>0.00</temp>
<bpm>0</bpm>
<rpm>0.00</rpm>
</extensions>
</trkpt>
<trkpt lat="64.216270447" lon="-20.883850098">
<ele>178.421875</ele>
<time>2012-07-19T14:31:01Z</time>
<speed>0.080000</speed>
<extensions>
<speed>0.1</speed>
<temp>0.00</temp>
<bpm>0</bpm>
<rpm>0.00</rpm>
</extensions>
</trkpt>
<trkpt lat="64.216262817" lon="-20.883857727">
<ele>178.417969</ele>
<time>2012-07-19T14:31:06Z</time>
<speed>0.340000</speed>
<extensions>
<speed>0.3</speed>
<temp>0.00</temp>
<bpm>0</bpm>
<rpm>0.00</rpm>
</extensions>
</trkpt>
<trkpt lat="64.216239929" lon="-20.883829117">
<ele>178.578125</ele>
<time>2012-07-19T14:31:11Z</time>
<speed>0.710000</speed>
<extensions>
<speed>0.7</speed>
<temp>0.00</temp>
<bpm>0</bpm>
<rpm>0.00</rpm>
</extensions>
</trkpt>
<trkpt lat="64.216209412" lon="-20.883836746">
<ele>179.125000</ele>
<time>2012-07-19T14:31:16Z</time>
<speed>0.210000</speed>
<extensions>
<speed>0.2</speed>
<temp>0.00</temp>
<bpm>0</bpm>
<rpm>0.00</rpm>
</extensions>
</trkpt>
<trkpt lat="64.216201782" lon="-20.883838654">
<ele>179.347656</ele>
<time>2012-07-19T14:31:21Z</time>
<speed>0.190000</speed>
<extensions>
<speed>0.2</speed>
<temp>0.00</temp>
<bpm>0</bpm>
<rpm>0.00</rpm>
</extensions>
</trkpt>
<trkpt lat="64.216148376" lon="-20.883993149">
<ele>180.011719</ele>
<time>2012-07-19T14:31:26Z</time>
<speed>2.390000</speed>
<extensions>
<speed>2.4</speed>
<temp>0.00</temp>
<bpm>0</bpm>
<rpm>0.00</rpm>
</extensions>
</trkpt>
<trkpt lat="64.216041565" lon="-20.884214401">
<ele>179.859375</ele>
<time>2012-07-19T14:31:31Z</time>
<speed>3.130000</speed>
<extensions>
<speed>3.1</speed>
<temp>0.00</temp>
<bpm>0</bpm>
<rpm>0.00</rpm>
</extensions>
</trkpt>
<trkpt lat="64.215873718" lon="-20.884426117">
<ele>179.640625</ele>
<time>2012-07-19T14:31:36Z</time>
<speed>4.490000</speed>
<extensions>
<speed>4.5</speed>
<temp>0.00</temp>
<bpm>0</bpm>
<rpm>0.00</rpm>
</extensions>
</trkpt>
<trkpt lat="64.215690613" lon="-20.884721756">
<ele>179.425781</ele>
<time>2012-07-19T14:31:41Z</time>
<speed>4.720000</speed>
<extensions>
<speed>4.7</speed>
<temp>0.00</temp>
<bpm>0</bpm>
<rpm>0.00</rpm>
</extensions>
</trkpt>
<trkpt lat="64.215553284" lon="-20.884988785">
<ele>180.632813</ele>
<time>2012-07-19T14:31:46Z</time>
<speed>3.720000</speed>
<extensions>
<speed>3.7</speed>
<temp>0.00</temp>
<bpm>0</bpm>
<rpm>0.00</rpm>
</extensions>
</trkpt>
<trkpt lat="64.215438843" lon="-20.885168076">
<ele>182.445313</ele>
<time>2012-07-19T14:31:51Z</time>
<speed>3.300000</speed>
<extensions>
<speed>3.3</speed>
<temp>0.00</temp>
<bpm>0</bpm>
<rpm>0.00</rpm>
</extensions>
</trkpt>
<trkpt lat="64.215324402" lon="-20.885326385">
<ele>183.957031</ele>
<time>2012-07-19T14:31:56Z</time>
<speed>3.070000</speed>
<extensions>
<speed>3.1</speed>
<temp>0.00</temp>
<bpm>0</bpm>
<rpm>0.00</rpm>
</extensions>
</trkpt>
<trkpt lat="64.215232849" lon="-20.885461807">
<ele>185.558594</ele>
<time>2012-07-19T14:32:01Z</time>
<speed>2.840000</speed>
<extensions>
<speed>2.8</speed>
<temp>0.00</temp>
<bpm>0</bpm>
<rpm>0.00</rpm>
</extensions>
</trkpt>
<trkpt lat="64.215141296" lon="-20.885557175">
<ele>187.082031</ele>
<time>2012-07-19T14:32:06Z</time>
<speed>2.370000</speed>
<extensions>
<speed>2.4</speed>
<temp>0.00</temp>
<bpm>0</bpm>
<rpm>0.00</rpm>
</extensions>
</trkpt>
<trkpt lat="64.215049744" lon="-20.885690689">
<ele>188.316406</ele>
<time>2012-07-19T14:32:11Z</time>
<speed>2.980000</speed>
<extensions>
<speed>3.0</speed>
<temp>0.00</temp>
<bpm>0</bpm>
<rpm>0.00</rpm>
</extensions>
</trkpt>
<trkpt lat="64.214927673" lon="-20.885858536">
<ele>189.453125</ele>
<time>2012-07-19T14:32:16Z</time>
<speed>3.470000</speed>
<extensions>
<speed>3.5</speed>
<temp>0.00</temp>
<bpm>0</bpm>
<rpm>0.00</rpm>
</extensions>
</trkpt>
<trkpt lat="64.214820862" lon="-20.886032104">
<ele>190.988281</ele>
<time>2012-07-19T14:32:21Z</time>
<speed>2.710000</speed>
<extensions>
<speed>2.7</speed>
<temp>0.00</temp>
<bpm>0</bpm>
<rpm>0.00</rpm>
</extensions>
</trkpt>
<trkpt lat="64.214706421" lon="-20.886201859">
<ele>190.261719</ele>
<time>2012-07-19T14:32:26Z</time>
<speed>3.020000</speed>
<extensions>
<speed>3.0</speed>
<temp>0.00</temp>
<bpm>0</bpm>
<rpm>0.00</rpm>
</extensions>
</trkpt>
<trkpt lat="64.214591980" lon="-20.886383057">
<ele>191.972656</ele>
<time>2012-07-19T14:32:31Z</time>
<speed>2.780000</speed>
<extensions>
<speed>2.8</speed>
<temp>0.00</temp>
<bpm>0</bpm>
<rpm>0.00</rpm>
</extensions>
</trkpt>
<trkpt lat="64.214500427" lon="-20.886535645">
<ele>191.683594</ele>
<time>2012-07-19T14:32:36Z</time>
<speed>2.130000</speed>
<extensions>
<speed>2.1</speed>
<temp>0.00</temp>
<bpm>0</bpm>
<rpm>0.00</rpm>
</extensions>
</trkpt>
<trkpt lat="64.214431763" lon="-20.886659622">
<ele>190.699219</ele>
<time>2012-07-19T14:32:41Z</time>
<speed>1.190000</speed>
<extensions>
<speed>1.2</speed>
<temp>0.00</temp>
<bpm>0</bpm>
<rpm>0.00</rpm>
</extensions>
</trkpt>
<trkpt lat="64.214370728" lon="-20.886756897">
<ele>190.343750</ele>
<time>2012-07-19T14:32:46Z</time>
<speed>1.900000</speed>
<extensions>
<speed>1.9</speed>
<temp>0.00</temp>
<bpm>0</bpm>
<rpm>0.00</rpm>
</extensions>
</trkpt>
<trkpt lat="64.214279175" lon="-20.886901855">
<ele>189.800781</ele>
<time>2012-07-19T14:32:51Z</time>
<speed>2.970000</speed>
<extensions>
<speed>3.0</speed>
<temp>0.00</temp>
<bpm>0</bpm>
<rpm>0.00</rpm>
</extensions>
</trkpt>
<trkpt lat="64.214164734" lon="-20.887100220">
<ele>189.156250</ele>
<time>2012-07-19T14:32:56Z</time>
<speed>3.230000</speed>
<extensions>
<speed>3.2</speed>
<temp>0.00</temp>
<bpm>0</bpm>
<rpm>0.00</rpm>
</extensions>
</trkpt>
<trkpt lat="64.214050293" lon="-20.887292862">
<ele>188.046875</ele>
<time>2012-07-19T14:33:01Z</time>
<speed>2.900000</speed>
<extensions>
<speed>2.9</speed>
<temp>0.00</temp>
<bpm>0</bpm>
<rpm>0.00</rpm>
</extensions>
</trkpt>
<trkpt lat="64.213951111" lon="-20.887420654">
<ele>186.199219</ele>
<time>2012-07-19T14:33:06Z</time>
<speed>2.040000</speed>
<extensions>
<speed>2.0</speed>
<temp>0.00</temp>
<bpm>0</bpm>
<rpm>0.00</rpm>
</extensions>
</trkpt>
<trkpt lat="64.213874817" lon="-20.887512207">
<ele>183.664063</ele>
<time>2012-07-19T14:33:11Z</time>
<speed>1.330000</speed>
<extensions>
<speed>1.3</speed>
<temp>0.00</temp>
<bpm>0</bpm>
<rpm>0.00</rpm>
</extensions>
</trkpt>
<trkpt lat="64.213798523" lon="-20.887578964">
<ele>182.199219</ele>
<time>2012-07-19T14:33:16Z</time>
<speed>1.760000</speed>
<extensions>
<speed>1.8</speed>
<temp>0.00</temp>
<bpm>0</bpm>
<rpm>0.00</rpm>
</extensions>
</trkpt>
<trkpt lat="64.213729858" lon="-20.887626648">
<ele>182.460938</ele>
<time>2012-07-19T14:33:21Z</time>
<speed>2.430000</speed>
<extensions>
<speed>2.4</speed>
<temp>0.00</temp>
<bpm>0</bpm>
<rpm>0.00</rpm>
</extensions>
</trkpt>
<trkpt lat="64.213607788" lon="-20.887699127">
<ele>181.406250</ele>
<time>2012-07-19T14:33:26Z</time>
<speed>3.380000</speed>
<extensions>
<speed>3.4</speed>
<temp>0.00</temp>
<bpm>0</bpm>
<rpm>0.00</rpm>
</extensions>
</trkpt>
<trkpt lat="64.213439941" lon="-20.887763977">
<ele>180.671875</ele>
<time>2012-07-19T14:33:31Z</time>
<speed>3.820000</speed>
<extensions>
<speed>3.8</speed>
<temp>0.00</temp>
<bpm>0</bpm>
<rpm>0.00</rpm>
</extensions>
</trkpt>
<trkpt lat="64.213264465" lon="-20.887762070">
<ele>180.269531</ele>
<time>2012-07-19T14:33:36Z</time>
<speed>3.740000</speed>
<extensions>
<speed>3.7</speed>
<temp>0.00</temp>
<bpm>0</bpm>
<rpm>0.00</rpm>
</extensions>
</trkpt>
<trkpt lat="64.213096619" lon="-20.887691498">
<ele>180.214844</ele>
<time>2012-07-19T14:33:41Z</time>
<speed>3.990000</speed>
<extensions>
<speed>4.0</speed>
<temp>0.00</temp>
<bpm>0</bpm>
<rpm>0.00</rpm>
</extensions>
</trkpt>
<trkpt lat="64.212928772" lon="-20.887603760">
<ele>180.585938</ele>
<time>2012-07-19T14:33:46Z</time>
<speed>3.690000</speed>
<extensions>
<speed>3.7</speed>
<temp>0.00</temp>
<bpm>0</bpm>
<rpm>0.00</rpm>
</extensions>
</trkpt>
<trkpt lat="64.212768555" lon="-20.887537003">
<ele>180.902344</ele>
<time>2012-07-19T14:33:51Z</time>
<speed>3.280000</speed>
<extensions>
<speed>3.3</speed>
<temp>0.00</temp>
<bpm>0</bpm>
<rpm>0.00</rpm>
</extensions>
</trkpt>
<trkpt lat="64.212661743" lon="-20.887493134">
<ele>181.375000</ele>
<time>2012-07-19T14:33:56Z</time>
<speed>1.970000</speed>
<extensions>
<speed>2.0</speed>
<temp>0.00</temp>
<bpm>0</bpm>
<rpm>0.00</rpm>
</extensions>
</trkpt>
<trkpt lat="64.212585449" lon="-20.887434006">
<ele>182.117188</ele>
<time>2012-07-19T14:34:01Z</time>
<speed>2.060000</speed>
<extensions>
<speed>2.1</speed>
<temp>0.00</temp>
<bpm>0</bpm>
<rpm>0.00</rpm>
</extensions>
</trkpt>
<trkpt lat="64.212539673" lon="-20.887254715">
<ele>182.335938</ele>
<time>2012-07-19T14:34:06Z</time>
<speed>1.930000</speed>
<extensions>
<speed>1.9</speed>
<temp>0.00</temp>
<bpm>0</bpm>
<rpm>0.00</rpm>
</extensions>
</trkpt>
<trkpt lat="64.212532043" lon="-20.886978149">
<ele>180.222656</ele>
<time>2012-07-19T14:34:11Z</time>
<speed>2.610000</speed>
<extensions>
<speed>2.6</speed>
<temp>0.00</temp>
<bpm>0</bpm>
<rpm>0.00</rpm>
</extensions>
</trkpt>
<trkpt lat="64.212570190" lon="-20.886730194">
<ele>178.476563</ele>
<time>2012-07-19T14:34:16Z</time>
<speed>1.950000</speed>
<extensions>
<speed>1.9</speed>
<temp>0.00</temp>
<bpm>0</bpm>
<rpm>0.00</rpm>
</extensions>
</trkpt>
<trkpt lat="64.212608337" lon="-20.886543274">
<ele>177.281250</ele>
<time>2012-07-19T14:34:21Z</time>
<speed>2.250000</speed>
<extensions>
<speed>2.3</speed>
<temp>0.00</temp>
<bpm>0</bpm>
<rpm>0.00</rpm>
</extensions>
</trkpt>
<trkpt lat="64.212646484" lon="-20.886323929">
<ele>176.175781</ele>
<time>2012-07-19T14:34:26Z</time>
<speed>1.920000</speed>
<extensions>
<speed>1.9</speed>
<temp>0.00</temp>
<bpm>0</bpm>
<rpm>0.00</rpm>
</extensions>
</trkpt>
<trkpt lat="64.212669373" lon="-20.886108398">
<ele>175.449219</ele>
<time>2012-07-19T14:34:31Z</time>
<speed>2.170000</speed>
<extensions>
<speed>2.2</speed>
<temp>0.00</temp>
<bpm>0</bpm>
<rpm>0.00</rpm>
</extensions>
</trkpt>
<trkpt lat="64.212699890" lon="-20.885879517">
<ele>174.261719</ele>
<time>2012-07-19T14:34:36Z</time>
<speed>2.610000</speed>
<extensions>
<speed>2.6</speed>
<temp>0.00</temp>
<bpm>0</bpm>
<rpm>0.00</rpm>
</extensions>
</trkpt>
<trkpt lat="64.212715149" lon="-20.885622025">
<ele>173.320313</ele>
<time>2012-07-19T14:34:41Z</time>
<speed>3.030000</speed>
<extensions>
<speed>3.0</speed>
<temp>0.00</temp>
<bpm>0</bpm>
<rpm>0.00</rpm>
</extensions>
</trkpt>
<trkpt lat="64.212753296" lon="-20.885284424">
<ele>172.281250</ele>
<time>2012-07-19T14:34:46Z</time>
<speed>3.450000</speed>
<extensions>
<speed>3.5</speed>
<temp>0.00</temp>
<bpm>0</bpm>
<rpm>0.00</rpm>
</extensions>
</trkpt>
<trkpt lat="64.212776184" lon="-20.885038376">
<ele>171.042969</ele>
<time>2012-07-19T14:34:51Z</time>
<speed>2.230000</speed>
<extensions>
<speed>2.2</speed>
<temp>0.00</temp>
<bpm>0</bpm>
<rpm>0.00</rpm>
</extensions>
</trkpt>
<trkpt lat="64.212799072" lon="-20.884807587">
<ele>170.320313</ele>
<time>2012-07-19T14:34:56Z</time>
<speed>2.260000</speed>
<extensions>
<speed>2.3</speed>
<temp>0.00</temp>
<bpm>0</bpm>
<rpm>0.00</rpm>
</extensions>
</trkpt>
<trkpt lat="64.212814331" lon="-20.884592056">
<ele>169.902344</ele>
<time>2012-07-19T14:35:01Z</time>
<speed>2.600000</speed>
<extensions>
<speed>2.6</speed>
<temp>0.00</temp>
<bpm>0</bpm>
<rpm>0.00</rpm>
</extensions>
</trkpt>
<trkpt lat="64.212844849" lon="-20.884315491">
<ele>169.378906</ele>
<time>2012-07-19T14:35:06Z</time>
<speed>3.210000</speed>
<extensions>
<speed>3.2</speed>
<temp>0.00</temp>
<bpm>0</bpm>
<rpm>0.00</rpm>
</extensions>
</trkpt>
<trkpt lat="64.212875366" lon="-20.884012222">
<ele>168.902344</ele>
<time>2012-07-19T14:35:11Z</time>
<speed>2.800000</speed>
<extensions>
<speed>2.8</speed>
<temp>0.00</temp>
<bpm>0</bpm>
<rpm>0.00</rpm>
</extensions>
</trkpt>
<trkpt lat="64.212905884" lon="-20.883792877">
<ele>168.695313</ele>
<time>2012-07-19T14:35:16Z</time>
<speed>1.890000</speed>
<extensions>
<speed>1.9</speed>
<temp>0.00</temp>
<bpm>0</bpm>
<rpm>0.00</rpm>
</extensions>
</trkpt>
<trkpt lat="64.212936401" lon="-20.883562088">
<ele>168.617188</ele>
<time>2012-07-19T14:35:21Z</time>
<speed>2.540000</speed>
<extensions>
<speed>2.5</speed>
<temp>0.00</temp>
<bpm>0</bpm>
<rpm>0.00</rpm>
</extensions>
</trkpt>
<trkpt lat="64.212974548" lon="-20.883333206">
<ele>168.113281</ele>
<time>2012-07-19T14:35:26Z</time>
<speed>2.100000</speed>
<extensions>
<speed>2.1</speed>
<temp>0.00</temp>
<bpm>0</bpm>
<rpm>0.00</rpm>
</extensions>
</trkpt>
<trkpt lat="64.212989807" lon="-20.883113861">
<ele>167.679688</ele>
<time>2012-07-19T14:35:31Z</time>
<speed>2.200000</speed>
<extensions>
<speed>2.2</speed>
<temp>0.00</temp>
<bpm>0</bpm>
<rpm>0.00</rpm>
</extensions>
</trkpt>
<trkpt lat="64.213020325" lon="-20.882892609">
<ele>168.292969</ele>
<time>2012-07-19T14:35:36Z</time>
<speed>2.330000</speed>
<extensions>
<speed>2.3</speed>
<temp>0.00</temp>
<bpm>0</bpm>
<rpm>0.00</rpm>
</extensions>
</trkpt>
<trkpt lat="64.213050842" lon="-20.882652283">
<ele>168.101563</ele>
<time>2012-07-19T14:35:41Z</time>
<speed>2.560000</speed>
<extensions>
<speed>2.6</speed>
<temp>0.00</temp>
<bpm>0</bpm>
<rpm>0.00</rpm>
</extensions>
</trkpt>
<trkpt lat="64.213096619" lon="-20.882410049">
<ele>168.085938</ele>
<time>2012-07-19T14:35:46Z</time>
<speed>2.520000</speed>
<extensions>
<speed>2.5</speed>
<temp>0.00</temp>
<bpm>0</bpm>
<rpm>0.00</rpm>
</extensions>
</trkpt>
<trkpt lat="64.213127136" lon="-20.882137299">
<ele>169.234375</ele>
<time>2012-07-19T14:35:51Z</time>
<speed>3.030000</speed>
<extensions>
<speed>3.0</speed>
<temp>0.00</temp>
<bpm>0</bpm>
<rpm>0.00</rpm>
</extensions>
</trkpt>
<trkpt lat="64.213172913" lon="-20.881847382">
<ele>168.542969</ele>
<time>2012-07-19T14:35:56Z</time>
<speed>2.630000</speed>
<extensions>
<speed>2.6</speed>
<temp>0.00</temp>
<bpm>0</bpm>
<rpm>0.00</rpm>
</extensions>
</trkpt>
<trkpt lat="64.213211060" lon="-20.881580353">
<ele>167.566406</ele>
<time>2012-07-19T14:36:01Z</time>
<speed>2.690000</speed>
<extensions>
<speed>2.7</speed>
<temp>0.00</temp>
<bpm>0</bpm>
<rpm>0.00</rpm>
</extensions>
</trkpt>
<trkpt lat="64.213249207" lon="-20.881317139">
<ele>167.457031</ele>
<time>2012-07-19T14:36:06Z</time>
<speed>2.830000</speed>
<extensions>
<speed>2.8</speed>
<temp>0.00</temp>
<bpm>0</bpm>
<rpm>0.00</rpm>
</extensions>
</trkpt>
<trkpt lat="64.213272095" lon="-20.881027222">
<ele>167.558594</ele>
<time>2012-07-19T14:36:11Z</time>
<speed>3.050000</speed>
<extensions>
<speed>3.0</speed>
<temp>0.00</temp>
<bpm>0</bpm>
<rpm>0.00</rpm>
</extensions>
</trkpt>
<trkpt lat="64.213302612" lon="-20.880708694">
<ele>167.871094</ele>
<time>2012-07-19T14:36:16Z</time>
<speed>3.040000</speed>
<extensions>
<speed>3.0</speed>
<temp>0.00</temp>
<bpm>0</bpm>
<rpm>0.00</rpm>
</extensions>
</trkpt>
<trkpt lat="64.213348389" lon="-20.880422592">
<ele>167.917969</ele>
<time>2012-07-19T14:36:21Z</time>
<speed>2.790000</speed>
<extensions>
<speed>2.8</speed>
<temp>0.00</temp>
<bpm>0</bpm>
<rpm>0.00</rpm>
</extensions>
</trkpt>
<trkpt lat="64.213386536" lon="-20.880132675">
<ele>168.128906</ele>
<time>2012-07-19T14:36:26Z</time>
<speed>3.130000</speed>
<extensions>
<speed>3.1</speed>
<temp>0.00</temp>
<bpm>0</bpm>
<rpm>0.00</rpm>
</extensions>
</trkpt>
<trkpt lat="64.213417053" lon="-20.879840851">
<ele>167.984375</ele>
<time>2012-07-19T14:36:31Z</time>
<speed>3.100000</speed>
<extensions>
<speed>3.1</speed>
<temp>0.00</temp>
<bpm>0</bpm>
<rpm>0.00</rpm>
</extensions>
</trkpt>
<trkpt lat="64.213462830" lon="-20.879539490">
<ele>167.960938</ele>
<time>2012-07-19T14:36:36Z</time>
<speed>3.090000</speed>
<extensions>
<speed>3.1</speed>
<temp>0.00</temp>
<bpm>0</bpm>
<rpm>0.00</rpm>
</extensions>
</trkpt>
<trkpt lat="64.213508606" lon="-20.879230499">
<ele>167.992188</ele>
<time>2012-07-19T14:36:41Z</time>
<speed>3.170000</speed>
<extensions>
<speed>3.2</speed>
<temp>0.00</temp>
<bpm>0</bpm>
<rpm>0.00</rpm>
</extensions>
</trkpt>
<trkpt lat="64.213554382" lon="-20.878917694">
<ele>167.437500</ele>
<time>2012-07-19T14:36:46Z</time>
<speed>3.410000</speed>
<extensions>
<speed>3.4</speed>
<temp>0.00</temp>
<bpm>0</bpm>
<rpm>0.00</rpm>
</extensions>
</trkpt>
<trkpt lat="64.213607788" lon="-20.878580093">
<ele>167.171875</ele>
<time>2012-07-19T14:36:51Z</time>
<speed>3.590000</speed>
<extensions>
<speed>3.6</speed>
<temp>0.00</temp>
<bpm>0</bpm>
<rpm>0.00</rpm>
</extensions>
</trkpt>
<trkpt lat="64.213653564" lon="-20.878206253">
<ele>167.238281</ele>
<time>2012-07-19T14:36:56Z</time>
<speed>3.660000</speed>
<extensions>
<speed>3.7</speed>
<temp>0.00</temp>
<bpm>0</bpm>
<rpm>0.00</rpm>
</extensions>
</trkpt>
<trkpt lat="64.213691711" lon="-20.877857208">
<ele>166.699219</ele>
<time>2012-07-19T14:37:01Z</time>
<speed>3.450000</speed>
<extensions>
<speed>3.5</speed>
<temp>0.00</temp>
<bpm>0</bpm>
<rpm>0.00</rpm>
</extensions>
</trkpt>
<trkpt lat="64.213729858" lon="-20.877538681">
<ele>166.488281</ele>
<time>2012-07-19T14:37:06Z</time>
<speed>3.480000</speed>
<extensions>
<speed>3.5</speed>
<temp>0.00</temp>
<bpm>0</bpm>
<rpm>0.00</rpm>
</extensions>
</trkpt>
<trkpt lat="64.213783264" lon="-20.877189636">
<ele>166.128906</ele>
<time>2012-07-19T14:37:11Z</time>
<speed>3.750000</speed>
<extensions>
<speed>3.8</speed>
<temp>0.00</temp>
<bpm>0</bpm>
<rpm>0.00</rpm>
</extensions>
</trkpt>
<trkpt lat="64.213836670" lon="-20.876853943">
<ele>165.570313</ele>
<time>2012-07-19T14:37:16Z</time>
<speed>3.620000</speed>
<extensions>
<speed>3.6</speed>
<temp>0.00</temp>
<bpm>0</bpm>
<rpm>0.00</rpm>
</extensions>
</trkpt>
<trkpt lat="64.213882446" lon="-20.876495361">
<ele>165.226563</ele>
<time>2012-07-19T14:37:21Z</time>
<speed>3.800000</speed>
<extensions>
<speed>3.8</speed>
<temp>0.00</temp>
<bpm>0</bpm>
<rpm>0.00</rpm>
</extensions>
</trkpt>
<trkpt lat="64.213935852" lon="-20.876106262">
<ele>165.234375</ele>
<time>2012-07-19T14:37:26Z</time>
<speed>3.730000</speed>
<extensions>
<speed>3.7</speed>
<temp>0.00</temp>
<bpm>0</bpm>
<rpm>0.00</rpm>
</extensions>
</trkpt>
<trkpt lat="64.213989258" lon="-20.875732422">
<ele>164.804688</ele>
<time>2012-07-19T14:37:31Z</time>
<speed>3.920000</speed>
<extensions>
<speed>3.9</speed>
<temp>0.00</temp>
<bpm>0</bpm>
<rpm>0.00</rpm>
</extensions>
</trkpt>
<trkpt lat="64.214035034" lon="-20.875339508">
<ele>164.726563</ele>
<time>2012-07-19T14:37:36Z</time>
<speed>3.810000</speed>
<extensions>
<speed>3.8</speed>
<temp>0.00</temp>
<bpm>0</bpm>
<rpm>0.00</rpm>
</extensions>
</trkpt>
<trkpt lat="64.214080811" lon="-20.874977112">
<ele>164.570313</ele>
<time>2012-07-19T14:37:41Z</time>
<speed>3.260000</speed>
<extensions>
<speed>3.3</speed>
<temp>0.00</temp>
<bpm>0</bpm>
<rpm>0.00</rpm>
</extensions>
</trkpt>
<trkpt lat="64.214126587" lon="-20.874628067">
<ele>164.335938</ele>
<time>2012-07-19T14:37:46Z</time>
<speed>3.600000</speed>
<extensions>
<speed>3.6</speed>
<temp>0.00</temp>
<bpm>0</bpm>
<rpm>0.00</rpm>
</extensions>
</trkpt>
<trkpt lat="64.214172363" lon="-20.874248505">
<ele>164.367188</ele>
<time>2012-07-19T14:37:51Z</time>
<speed>3.620000</speed>
<extensions>
<speed>3.6</speed>
<temp>0.00</temp>
<bpm>0</bpm>
<rpm>0.00</rpm>
</extensions>
</trkpt>
<trkpt lat="64.214179993" lon="-20.873882294">
<ele>164.601563</ele>
<time>2012-07-19T14:37:56Z</time>
<speed>3.390000</speed>
<extensions>
<speed>3.4</speed>
<temp>0.00</temp>
<bpm>0</bpm>
<rpm>0.00</rpm>
</extensions>
</trkpt>
<trkpt lat="64.214164734" lon="-20.873506546">
<ele>164.265625</ele>
<time>2012-07-19T14:38:01Z</time>
<speed>3.790000</speed>
<extensions>
<speed>3.8</speed>
<temp>0.00</temp>
<bpm>0</bpm>
<rpm>0.00</rpm>
</extensions>
</trkpt>
<trkpt lat="64.214187622" lon="-20.873044968">
<ele>167.328125</ele>
<time>2012-07-19T14:38:06Z</time>
<speed>3.750000</speed>
<extensions>
<speed>3.8</speed>
<temp>0.00</temp>
<bpm>0</bpm>
<rpm>0.00</rpm>
</extensions>
</trkpt>
<trkpt lat="64.214179993" lon="-20.872613907">
<ele>168.667969</ele>
<time>2012-07-19T14:38:11Z</time>
<speed>3.870000</speed>
<extensions>
<speed>3.9</speed>
<temp>0.00</temp>
<bpm>0</bpm>
<rpm>0.00</rpm>
</extensions>
</trkpt>
<trkpt lat="64.214187622" lon="-20.872219086">
<ele>170.410156</ele>
<time>2012-07-19T14:38:16Z</time>
<speed>3.880000</speed>
<extensions>
<speed>3.9</speed>
<temp>0.00</temp>
<bpm>0</bpm>
<rpm>0.00</rpm>
</extensions>
</trkpt>
<trkpt lat="64.214195251" lon="-20.871835709">
<ele>172.929688</ele>
<time>2012-07-19T14:38:21Z</time>
<speed>3.850000</speed>
<extensions>
<speed>3.8</speed>
<temp>0.00</temp>
<bpm>0</bpm>
<rpm>0.00</rpm>
</extensions>
</trkpt>
<trkpt lat="64.214195251" lon="-20.871431351">
<ele>174.500000</ele>
<time>2012-07-19T14:38:26Z</time>
<speed>3.900000</speed>
<extensions>
<speed>3.9</speed>
<temp>0.00</temp>
<bpm>0</bpm>
<rpm>0.00</rpm>
</extensions>
</trkpt>
<trkpt lat="64.214179993" lon="-20.871019363">
<ele>174.871094</ele>
<time>2012-07-19T14:38:31Z</time>
<speed>4.020000</speed>
<extensions>
<speed>4.0</speed>
<temp>0.00</temp>
<bpm>0</bpm>
<rpm>0.00</rpm>
</extensions>
</trkpt>
<trkpt lat="64.214195251" lon="-20.870605469">
<ele>175.437500</ele>
<time>2012-07-19T14:38:36Z</time>
<speed>4.050000</speed>
<extensions>
<speed>4.0</speed>
<temp>0.00</temp>
<bpm>0</bpm>
<rpm>0.00</rpm>
</extensions>
</trkpt>
<trkpt lat="64.214195251" lon="-20.870168686">
<ele>176.257813</ele>
<time>2012-07-19T14:38:41Z</time>
<speed>3.940000</speed>
<extensions>
<speed>3.9</speed>
<temp>0.00</temp>
<bpm>0</bpm>
<rpm>0.00</rpm>
</extensions>
</trkpt>
<trkpt lat="64.214202881" lon="-20.869779587">
<ele>175.656250</ele>
<time>2012-07-19T14:38:46Z</time>
<speed>4.010000</speed>
<extensions>
<speed>4.0</speed>
<temp>0.00</temp>
<bpm>0</bpm>
<rpm>0.00</rpm>
</extensions>
</trkpt>
<trkpt lat="64.214210510" lon="-20.869363785">
<ele>174.292969</ele>
<time>2012-07-19T14:38:51Z</time>
<speed>4.180000</speed>
<extensions>
<speed>4.2</speed>
<temp>0.00</temp>
<bpm>0</bpm>
<rpm>0.00</rpm>
</extensions>
</trkpt>
<trkpt lat="64.214218140" lon="-20.868976593">
<ele>175.105469</ele>
<time>2012-07-19T14:38:56Z</time>
<speed>3.760000</speed>
<extensions>
<speed>3.8</speed>
<temp>0.00</temp>
<bpm>0</bpm>
<rpm>0.00</rpm>
</extensions>
</trkpt>
<trkpt lat="64.214187622" lon="-20.868570328">
<ele>174.074219</ele>
<time>2012-07-19T14:39:01Z</time>
<speed>4.170000</speed>
<extensions>
<speed>4.2</speed>
<temp>0.00</temp>
<bpm>0</bpm>
<rpm>0.00</rpm>
</extensions>
</trkpt>
<trkpt lat="64.214172363" lon="-20.868158340">
<ele>173.382813</ele>
<time>2012-07-19T14:39:06Z</time>
<speed>3.890000</speed>
<extensions>
<speed>3.9</speed>
<temp>0.00</temp>
<bpm>0</bpm>
<rpm>0.00</rpm>
</extensions>
</trkpt>
<trkpt lat="64.214126587" lon="-20.867729187">
<ele>173.144531</ele>
<time>2012-07-19T14:39:11Z</time>
<speed>4.060000</speed>
<extensions>
<speed>4.1</speed>
<temp>0.00</temp>
<bpm>0</bpm>
<rpm>0.00</rpm>
</extensions>
</trkpt>
<trkpt lat="64.214118958" lon="-20.867309570">
<ele>175.140625</ele>
<time>2012-07-19T14:39:16Z</time>
<speed>4.330000</speed>
<extensions>
<speed>4.3</speed>
<temp>0.00</temp>
<bpm>0</bpm>
<rpm>0.00</rpm>
</extensions>
</trkpt>
<trkpt lat="64.214096069" lon="-20.866905212">
<ele>174.847656</ele>
<time>2012-07-19T14:39:21Z</time>
<speed>4.070000</speed>
<extensions>
<speed>4.1</speed>
<temp>0.00</temp>
<bpm>0</bpm>
<rpm>0.00</rpm>
</extensions>
</trkpt>
<trkpt lat="64.214073181" lon="-20.866468430">
<ele>174.695313</ele>
<time>2012-07-19T14:39:26Z</time>
<speed>4.140000</speed>
<extensions>
<speed>4.1</speed>
<temp>0.00</temp>
<bpm>0</bpm>
<rpm>0.00</rpm>
</extensions>
</trkpt>
<trkpt lat="64.214027405" lon="-20.866018295">
<ele>173.730469</ele>
<time>2012-07-19T14:39:31Z</time>
<speed>4.040000</speed>
<extensions>
<speed>4.0</speed>
<temp>0.00</temp>
<bpm>0</bpm>
<rpm>0.00</rpm>
</extensions>
</trkpt>
<trkpt lat="64.214035034" lon="-20.865615845">
<ele>176.460938</ele>
<time>2012-07-19T14:39:36Z</time>
<speed>4.340000</speed>
<extensions>
<speed>4.3</speed>
<temp>0.00</temp>
<bpm>0</bpm>
<rpm>0.00</rpm>
</extensions>
</trkpt>
<trkpt lat="64.214027405" lon="-20.865180969">
<ele>179.242188</ele>
<time>2012-07-19T14:39:41Z</time>
<speed>4.520000</speed>
<extensions>
<speed>4.5</speed>
<temp>0.00</temp>
<bpm>0</bpm>
<rpm>0.00</rpm>
</extensions>
</trkpt>
<trkpt lat="64.213981628" lon="-20.864711761">
<ele>176.109375</ele>
<time>2012-07-19T14:39:46Z</time>
<speed>4.400000</speed>
<extensions>
<speed>4.4</speed>
<temp>0.00</temp>
<bpm>0</bpm>
<rpm>0.00</rpm>
</extensions>
</trkpt>
<trkpt lat="64.213951111" lon="-20.864271164">
<ele>176.347656</ele>
<time>2012-07-19T14:39:51Z</time>
<speed>4.110000</speed>
<extensions>
<speed>4.1</speed>
<temp>0.00</temp>
<bpm>0</bpm>
<rpm>0.00</rpm>
</extensions>
</trkpt>
<trkpt lat="64.213943481" lon="-20.863973618">
<ele>180.800781</ele>
<time>2012-07-19T14:39:56Z</time>
<speed>2.500000</speed>
<extensions>
<speed>2.5</speed>
<temp>0.00</temp>
<bpm>0</bpm>
<rpm>0.00</rpm>
</extensions>
</trkpt>
<trkpt lat="64.213958740" lon="-20.863906860">
<ele>182.746094</ele>
<time>2012-07-19T14:40:01Z</time>
<speed>0.030000</speed>
<extensions>
<speed>0.0</speed>
<temp>0.00</temp>
<bpm>0</bpm>
<rpm>0.00</rpm>
</extensions>
</trkpt>
<trkpt lat="64.213958740" lon="-20.863910675">
<ele>182.988281</ele>
<time>2012-07-19T14:40:06Z</time>
<speed>0.030000</speed>
<extensions>
<speed>0.0</speed>
<temp>0.00</temp>
<bpm>0</bpm>
<rpm>0.00</rpm>
</extensions>
</trkpt>
<trkpt lat="64.213958740" lon="-20.863912582">
<ele>183.007813</ele>
<time>2012-07-19T14:40:11Z</time>
<speed>0.040000</speed>
<extensions>
<speed>0.0</speed>
<temp>0.00</temp>
<bpm>0</bpm>
<rpm>0.00</rpm>
</extensions>
</trkpt>
<trkpt lat="64.213958740" lon="-20.863912582">
<ele>183.015625</ele>
<time>2012-07-19T14:40:16Z</time>
<speed>0.020000</speed>
<extensions>
<speed>0.0</speed>
<temp>0.00</temp>
<bpm>0</bpm>
<rpm>0.00</rpm>
</extensions>
</trkpt>
<trkpt lat="64.213958740" lon="-20.863912582">
<ele>183.039063</ele>
<time>2012-07-19T14:40:21Z</time>
<speed>0.030000</speed>
<extensions>
<speed>0.0</speed>
<temp>0.00</temp>
<bpm>0</bpm>
<rpm>0.00</rpm>
</extensions>
</trkpt>
<trkpt lat="64.213958740" lon="-20.863916397">
<ele>183.066406</ele>
<time>2012-07-19T14:40:26Z</time>
<speed>0.010000</speed>
<extensions>
<speed>0.0</speed>
<temp>0.00</temp>
<bpm>0</bpm>
<rpm>0.00</rpm>
</extensions>
</trkpt>
<trkpt lat="64.213958740" lon="-20.863916397">
<ele>183.066406</ele>
<time>2012-07-19T14:40:31Z</time>
<extensions>
<speed>0.0</speed>
<temp>0.00</temp>
<bpm>0</bpm>
<rpm>0.00</rpm>
</extensions>
</trkpt>
<trkpt lat="64.213958740" lon="-20.863916397">
<ele>183.085938</ele>
<time>2012-07-19T14:40:36Z</time>
<extensions>
<speed>0.0</speed>
<temp>0.00</temp>
<bpm>0</bpm>
<rpm>0.00</rpm>
</extensions>
</trkpt>
<trkpt lat="64.213958740" lon="-20.863916397">
<ele>183.097656</ele>
<time>2012-07-19T14:40:41Z</time>
<extensions>
<speed>0.0</speed>
<temp>0.00</temp>
<bpm>0</bpm>
<rpm>0.00</rpm>
</extensions>
</trkpt>
<trkpt lat="64.213958740" lon="-20.863916397">
<ele>183.125000</ele>
<time>2012-07-19T14:40:46Z</time>
<extensions>
<speed>0.0</speed>
<temp>0.00</temp>
<bpm>0</bpm>
<rpm>0.00</rpm>
</extensions>
</trkpt>
<trkpt lat="64.213958740" lon="-20.863916397">
<ele>183.152344</ele>
<time>2012-07-19T14:40:51Z</time>
<extensions>
<speed>0.0</speed>
<temp>0.00</temp>
<bpm>0</bpm>
<rpm>0.00</rpm>
</extensions>
</trkpt>
<trkpt lat="64.213958740" lon="-20.863918304">
<ele>183.183594</ele>
<time>2012-07-19T14:40:56Z</time>
<extensions>
<speed>0.0</speed>
<temp>0.00</temp>
<bpm>0</bpm>
<rpm>0.00</rpm>
</extensions>
</trkpt>
<trkpt lat="64.213958740" lon="-20.863918304">
<ele>183.210938</ele>
<time>2012-07-19T14:41:01Z</time>
<speed>0.020000</speed>
<extensions>
<speed>0.0</speed>
<temp>0.00</temp>
<bpm>0</bpm>
<rpm>0.00</rpm>
</extensions>
</trkpt>
<trkpt lat="64.213958740" lon="-20.863918304">
<ele>183.269531</ele>
<time>2012-07-19T14:41:06Z</time>
<extensions>
<speed>0.0</speed>
<temp>0.00</temp>
<bpm>0</bpm>
<rpm>0.00</rpm>
</extensions>
</trkpt>
<trkpt lat="64.213958740" lon="-20.863920212">
<ele>183.300781</ele>
<time>2012-07-19T14:41:11Z</time>
<speed>0.010000</speed>
<extensions>
<speed>0.0</speed>
<temp>0.00</temp>
<bpm>0</bpm>
<rpm>0.00</rpm>
</extensions>
</trkpt>
<trkpt lat="64.213958740" lon="-20.863920212">
<ele>183.312500</ele>
<time>2012-07-19T14:41:16Z</time>
<extensions>
<speed>0.0</speed>
<temp>0.00</temp>
<bpm>0</bpm>
<rpm>0.00</rpm>
</extensions>
</trkpt>
<trkpt lat="64.213958740" lon="-20.863920212">
<ele>183.332031</ele>
<time>2012-07-19T14:41:21Z</time>
<speed>0.010000</speed>
<extensions>
<speed>0.0</speed>
<temp>0.00</temp>
<bpm>0</bpm>
<rpm>0.00</rpm>
</extensions>
</trkpt>
<trkpt lat="64.213958740" lon="-20.863920212">
<ele>183.378906</ele>
<time>2012-07-19T14:41:26Z</time>
<extensions>
<speed>0.0</speed>
<temp>0.00</temp>
<bpm>0</bpm>
<rpm>0.00</rpm>
</extensions>
</trkpt>
<trkpt lat="64.213958740" lon="-20.863922119">
<ele>183.417969</ele>
<time>2012-07-19T14:41:31Z</time>
<extensions>
<speed>0.0</speed>
<temp>0.00</temp>
<bpm>0</bpm>
<rpm>0.00</rpm>
</extensions>
</trkpt>
<trkpt lat="64.213958740" lon="-20.863922119">
<ele>183.441406</ele>
<time>2012-07-19T14:41:36Z</time>
<extensions>
<speed>0.0</speed>
<temp>0.00</temp>
<bpm>0</bpm>
<rpm>0.00</rpm>
</extensions>
</trkpt>
<trkpt lat="64.213958740" lon="-20.863922119">
<ele>183.476563</ele>
<time>2012-07-19T14:41:41Z</time>
<speed>0.160000</speed>
<extensions>
<speed>0.2</speed>
<temp>0.00</temp>
<bpm>0</bpm>
<rpm>0.00</rpm>
</extensions>
</trkpt>
<trkpt lat="64.213958740" lon="-20.863830566">
<ele>184.621094</ele>
<time>2012-07-19T14:41:46Z</time>
<speed>1.610000</speed>
<extensions>
<speed>1.6</speed>
<temp>0.00</temp>
<bpm>0</bpm>
<rpm>0.00</rpm>
</extensions>
</trkpt>
<trkpt lat="64.213966370" lon="-20.863647461">
<ele>186.648438</ele>
<time>2012-07-19T14:41:51Z</time>
<speed>2.030000</speed>
<extensions>
<speed>2.0</speed>
<temp>0.00</temp>
<bpm>0</bpm>
<rpm>0.00</rpm>
</extensions>
</trkpt>
<trkpt lat="64.213966370" lon="-20.863462448">
<ele>189.273438</ele>
<time>2012-07-19T14:41:56Z</time>
<speed>1.380000</speed>
<extensions>
<speed>1.4</speed>
<temp>0.00</temp>
<bpm>0</bpm>
<rpm>0.00</rpm>
</extensions>
</trkpt>
<trkpt lat="64.213958740" lon="-20.863313675">
<ele>191.328125</ele>
<time>2012-07-19T14:42:01Z</time>
<speed>1.760000</speed>
<extensions>
<speed>1.8</speed>
<temp>0.00</temp>
<bpm>0</bpm>
<rpm>0.00</rpm>
</extensions>
</trkpt>
<trkpt lat="64.213966370" lon="-20.863260269">
<ele>194.531250</ele>
<time>2012-07-19T14:42:06Z</time>
<speed>0.060000</speed>
<extensions>
<speed>0.1</speed>
<temp>0.00</temp>
<bpm>0</bpm>
<rpm>0.00</rpm>
</extensions>
</trkpt>
<trkpt lat="64.213973999" lon="-20.863260269">
<ele>194.828125</ele>
<time>2012-07-19T14:42:11Z</time>
<speed>0.020000</speed>
<extensions>
<speed>0.0</speed>
<temp>0.00</temp>
<bpm>0</bpm>
<rpm>0.00</rpm>
</extensions>
</trkpt>
<trkpt lat="64.213973999" lon="-20.863262177">
<ele>195.003906</ele>
<time>2012-07-19T14:42:16Z</time>
<speed>0.070000</speed>
<extensions>
<speed>0.1</speed>
<temp>0.00</temp>
<bpm>0</bpm>
<rpm>0.00</rpm>
</extensions>
</trkpt>
<trkpt lat="64.213973999" lon="-20.863262177">
<ele>195.046875</ele>
<time>2012-07-19T14:42:21Z</time>
<extensions>
<speed>0.0</speed>
<temp>0.00</temp>
<bpm>0</bpm>
<rpm>0.00</rpm>
</extensions>
</trkpt>
<trkpt lat="64.213973999" lon="-20.863262177">
<ele>195.074219</ele>
<time>2012-07-19T14:42:26Z</time>
<extensions>
<speed>0.0</speed>
<temp>0.00</temp>
<bpm>0</bpm>
<rpm>0.00</rpm>
</extensions>
</trkpt>
<trkpt lat="64.213973999" lon="-20.863264084">
<ele>195.101563</ele>
<time>2012-07-19T14:42:31Z</time>
<speed>0.020000</speed>
<extensions>
<speed>0.0</speed>
<temp>0.00</temp>
<bpm>0</bpm>
<rpm>0.00</rpm>
</extensions>
</trkpt>
<trkpt lat="64.213973999" lon="-20.863264084">
<ele>195.148438</ele>
<time>2012-07-19T14:42:36Z</time>
<extensions>
<speed>0.0</speed>
<temp>0.00</temp>
<bpm>0</bpm>
<rpm>0.00</rpm>
</extensions>
</trkpt>
<trkpt lat="64.213973999" lon="-20.863264084">
<ele>195.203125</ele>
<time>2012-07-19T14:42:41Z</time>
<extensions>
<speed>0.0</speed>
<temp>0.00</temp>
<bpm>0</bpm>
<rpm>0.00</rpm>
</extensions>
</trkpt>
<trkpt lat="64.213973999" lon="-20.863264084">
<ele>195.257813</ele>
<time>2012-07-19T14:42:46Z</time>
<extensions>
<speed>0.0</speed>
<temp>0.00</temp>
<bpm>0</bpm>
<rpm>0.00</rpm>
</extensions>
</trkpt>
<trkpt lat="64.213973999" lon="-20.863264084">
<ele>195.312500</ele>
<time>2012-07-19T14:42:51Z</time>
<extensions>
<speed>0.0</speed>
<temp>0.00</temp>
<bpm>0</bpm>
<rpm>0.00</rpm>
</extensions>
</trkpt>
<trkpt lat="64.213973999" lon="-20.863264084">
<ele>195.355469</ele>
<time>2012-07-19T14:42:56Z</time>
<speed>0.020000</speed>
<extensions>
<speed>0.0</speed>
<temp>0.00</temp>
<bpm>0</bpm>
<rpm>0.00</rpm>
</extensions>
</trkpt>
<trkpt lat="64.213973999" lon="-20.863264084">
<ele>195.402344</ele>
<time>2012-07-19T14:43:01Z</time>
<extensions>
<speed>0.0</speed>
<temp>0.00</temp>
<bpm>0</bpm>
<rpm>0.00</rpm>
</extensions>
</trkpt>
<trkpt lat="64.213973999" lon="-20.863264084">
<ele>195.460938</ele>
<time>2012-07-19T14:43:06Z</time>
<extensions>
<speed>0.0</speed>
<temp>0.00</temp>
<bpm>0</bpm>
<rpm>0.00</rpm>
</extensions>
</trkpt>
<trkpt lat="64.213973999" lon="-20.863265991">
<ele>195.496094</ele>
<time>2012-07-19T14:43:11Z</time>
<extensions>
<speed>0.0</speed>
<temp>0.00</temp>
<bpm>0</bpm>
<rpm>0.00</rpm>
</extensions>
</trkpt>
<trkpt lat="64.213973999" lon="-20.863265991">
<ele>195.558594</ele>
<time>2012-07-19T14:43:16Z</time>
<extensions>
<speed>0.0</speed>
<temp>0.00</temp>
<bpm>0</bpm>
<rpm>0.00</rpm>
</extensions>
</trkpt>
<trkpt lat="64.213973999" lon="-20.863265991">
<ele>195.632813</ele>
<time>2012-07-19T14:43:21Z</time>
<speed>0.010000</speed>
<extensions>
<speed>0.0</speed>
<temp>0.00</temp>
<bpm>0</bpm>
<rpm>0.00</rpm>
</extensions>
</trkpt>
<trkpt lat="64.213973999" lon="-20.863265991">
<ele>195.718750</ele>
<time>2012-07-19T14:43:26Z</time>
<extensions>
<speed>0.0</speed>
<temp>0.00</temp>
<bpm>0</bpm>
<rpm>0.00</rpm>
</extensions>
</trkpt>
<trkpt lat="64.213973999" lon="-20.863265991">
<ele>195.796875</ele>
<time>2012-07-19T14:43:31Z</time>
<speed>0.010000</speed>
<extensions>
<speed>0.0</speed>
<temp>0.00</temp>
<bpm>0</bpm>
<rpm>0.00</rpm>
</extensions>
</trkpt>
<trkpt lat="64.213973999" lon="-20.863265991">
<ele>195.851563</ele>
<time>2012-07-19T14:43:36Z</time>
<extensions>
<speed>0.0</speed>
<temp>0.00</temp>
<bpm>0</bpm>
<rpm>0.00</rpm>
</extensions>
</trkpt>
<trkpt lat="64.213973999" lon="-20.863265991">
<ele>195.890625</ele>
<time>2012-07-19T14:43:41Z</time>
<speed>0.010000</speed>
<extensions>
<speed>0.0</speed>
<temp>0.00</temp>
<bpm>0</bpm>
<rpm>0.00</rpm>
</extensions>
</trkpt>
<trkpt lat="64.213973999" lon="-20.863265991">
<ele>195.925781</ele>
<time>2012-07-19T14:43:46Z</time>
<extensions>
<speed>0.0</speed>
<temp>0.00</temp>
<bpm>0</bpm>
<rpm>0.00</rpm>
</extensions>
</trkpt>
<trkpt lat="64.213973999" lon="-20.863265991">
<ele>195.988281</ele>
<time>2012-07-19T14:43:51Z</time>
<speed>0.010000</speed>
<extensions>
<speed>0.0</speed>
<temp>0.00</temp>
<bpm>0</bpm>
<rpm>0.00</rpm>
</extensions>
</trkpt>
<trkpt lat="64.213973999" lon="-20.863267899">
<ele>196.058594</ele>
<time>2012-07-19T14:43:56Z</time>
<extensions>
<speed>0.0</speed>
<temp>0.00</temp>
<bpm>0</bpm>
<rpm>0.00</rpm>
</extensions>
</trkpt>
<trkpt lat="64.213981628" lon="-20.863267899">
<ele>196.093750</ele>
<time>2012-07-19T14:44:01Z</time>
<extensions>
<speed>0.0</speed>
<temp>0.00</temp>
<bpm>0</bpm>
<rpm>0.00</rpm>
</extensions>
</trkpt>
<trkpt lat="64.213981628" lon="-20.863267899">
<ele>196.164063</ele>
<time>2012-07-19T14:44:06Z</time>
<extensions>
<speed>0.0</speed>
<temp>0.00</temp>
<bpm>0</bpm>
<rpm>0.00</rpm>
</extensions>
</trkpt>
<trkpt lat="64.213981628" lon="-20.863267899">
<ele>196.238281</ele>
<time>2012-07-19T14:44:11Z</time>
<speed>0.010000</speed>
<extensions>
<speed>0.0</speed>
<temp>0.00</temp>
<bpm>0</bpm>
<rpm>0.00</rpm>
</extensions>
</trkpt>
<trkpt lat="64.213981628" lon="-20.863267899">
<ele>196.332031</ele>
<time>2012-07-19T14:44:16Z</time>
<extensions>
<speed>0.0</speed>
<temp>0.00</temp>
<bpm>0</bpm>
<rpm>0.00</rpm>
</extensions>
</trkpt>
<trkpt lat="64.213981628" lon="-20.863267899">
<ele>196.382813</ele>
<time>2012-07-19T14:44:21Z</time>
<extensions>
<speed>0.0</speed>
<temp>0.00</temp>
<bpm>0</bpm>
<rpm>0.00</rpm>
</extensions>
</trkpt>
<trkpt lat="64.213981628" lon="-20.863267899">
<ele>196.453125</ele>
<time>2012-07-19T14:44:26Z</time>
<speed>0.010000</speed>
<extensions>
<speed>0.0</speed>
<temp>0.00</temp>
<bpm>0</bpm>
<rpm>0.00</rpm>
</extensions>
</trkpt>
<trkpt lat="64.213981628" lon="-20.863267899">
<ele>196.500000</ele>
<time>2012-07-19T14:44:31Z</time>
<extensions>
<speed>0.0</speed>
<temp>0.00</temp>
<bpm>0</bpm>
<rpm>0.00</rpm>
</extensions>
</trkpt>
<trkpt lat="64.213981628" lon="-20.863267899">
<ele>196.550781</ele>
<time>2012-07-19T14:44:36Z</time>
<extensions>
<speed>0.0</speed>
<temp>0.00</temp>
<bpm>0</bpm>
<rpm>0.00</rpm>
</extensions>
</trkpt>
<trkpt lat="64.213981628" lon="-20.863267899">
<ele>196.625000</ele>
<time>2012-07-19T14:44:41Z</time>
<extensions>
<speed>0.0</speed>
<temp>0.00</temp>
<bpm>0</bpm>
<rpm>0.00</rpm>
</extensions>
</trkpt>
<trkpt lat="64.213981628" lon="-20.863267899">
<ele>196.707031</ele>
<time>2012-07-19T14:44:46Z</time>
<speed>0.010000</speed>
<extensions>
<speed>0.0</speed>
<temp>0.00</temp>
<bpm>0</bpm>
<rpm>0.00</rpm>
</extensions>
</trkpt>
<trkpt lat="64.213981628" lon="-20.863267899">
<ele>196.765625</ele>
<time>2012-07-19T14:44:51Z</time>
<extensions>
<speed>0.0</speed>
<temp>0.00</temp>
<bpm>0</bpm>
<rpm>0.00</rpm>
</extensions>
</trkpt>
<trkpt lat="64.213981628" lon="-20.863267899">
<ele>196.832031</ele>
<time>2012-07-19T14:44:56Z</time>
<extensions>
<speed>0.0</speed>
<temp>0.00</temp>
<bpm>0</bpm>
<rpm>0.00</rpm>
</extensions>
</trkpt>
<trkpt lat="64.213981628" lon="-20.863267899">
<ele>196.894531</ele>
<time>2012-07-19T14:45:01Z</time>
<extensions>
<speed>0.0</speed>
<temp>0.00</temp>
<bpm>0</bpm>
<rpm>0.00</rpm>
</extensions>
</trkpt>
<trkpt lat="64.213981628" lon="-20.863267899">
<ele>196.941406</ele>
<time>2012-07-19T14:45:06Z</time>
<speed>0.010000</speed>
<extensions>
<speed>0.0</speed>
<temp>0.00</temp>
<bpm>0</bpm>
<rpm>0.00</rpm>
</extensions>
</trkpt>
<trkpt lat="64.213981628" lon="-20.863267899">
<ele>197.011719</ele>
<time>2012-07-19T14:45:11Z</time>
<extensions>
<speed>0.0</speed>
<temp>0.00</temp>
<bpm>0</bpm>
<rpm>0.00</rpm>
</extensions>
</trkpt>
<trkpt lat="64.213981628" lon="-20.863267899">
<ele>197.167969</ele>
<time>2012-07-19T14:45:16Z</time>
<speed>0.010000</speed>
<extensions>
<speed>0.0</speed>
<temp>0.00</temp>
<bpm>0</bpm>
<rpm>0.00</rpm>
</extensions>
</trkpt>
<trkpt lat="64.213981628" lon="-20.863267899">
<ele>197.250000</ele>
<time>2012-07-19T14:45:21Z</time>
<extensions>
<speed>0.0</speed>
<temp>0.00</temp>
<bpm>0</bpm>
<rpm>0.00</rpm>
</extensions>
</trkpt>
<trkpt lat="64.213981628" lon="-20.863220215">
<ele>197.515625</ele>
<time>2012-07-19T14:45:26Z</time>
<speed>1.460000</speed>
<extensions>
<speed>1.5</speed>
<temp>0.00</temp>
<bpm>0</bpm>
<rpm>0.00</rpm>
</extensions>
</trkpt>
<trkpt lat="64.213981628" lon="-20.863080978">
<ele>198.234375</ele>
<time>2012-07-19T14:45:31Z</time>
<speed>1.260000</speed>
<extensions>
<speed>1.3</speed>
<temp>0.00</temp>
<bpm>0</bpm>
<rpm>0.00</rpm>
</extensions>
</trkpt>
<trkpt lat="64.213973999" lon="-20.862953186">
<ele>200.171875</ele>
<time>2012-07-19T14:45:36Z</time>
<speed>1.550000</speed>
<extensions>
<speed>1.5</speed>
<temp>0.00</temp>
<bpm>0</bpm>
<rpm>0.00</rpm>
</extensions>
</trkpt>
<trkpt lat="64.213958740" lon="-20.862781525">
<ele>201.988281</ele>
<time>2012-07-19T14:45:41Z</time>
<speed>1.570000</speed>
<extensions>
<speed>1.6</speed>
<temp>0.00</temp>
<bpm>0</bpm>
<rpm>0.00</rpm>
</extensions>
</trkpt>
<trkpt lat="64.213920593" lon="-20.862562180">
<ele>202.816406</ele>
<time>2012-07-19T14:45:46Z</time>
<speed>2.010000</speed>
<extensions>
<speed>2.0</speed>
<temp>0.00</temp>
<bpm>0</bpm>
<rpm>0.00</rpm>
</extensions>
</trkpt>
<trkpt lat="64.213844299" lon="-20.862325668">
<ele>203.140625</ele>
<time>2012-07-19T14:45:51Z</time>
<speed>2.930000</speed>
<extensions>
<speed>2.9</speed>
<temp>0.00</temp>
<bpm>0</bpm>
<rpm>0.00</rpm>
</extensions>
</trkpt>
<trkpt lat="64.213760376" lon="-20.862098694">
<ele>202.089844</ele>
<time>2012-07-19T14:45:56Z</time>
<speed>3.040000</speed>
<extensions>
<speed>3.0</speed>
<temp>0.00</temp>
<bpm>0</bpm>
<rpm>0.00</rpm>
</extensions>
</trkpt>
<trkpt lat="64.213653564" lon="-20.861898422">
<ele>201.074219</ele>
<time>2012-07-19T14:46:01Z</time>
<speed>2.720000</speed>
<extensions>
<speed>2.7</speed>
<temp>0.00</temp>
<bpm>0</bpm>
<rpm>0.00</rpm>
</extensions>
</trkpt>
<trkpt lat="64.213516235" lon="-20.861719131">
<ele>193.902344</ele>
<time>2012-07-19T14:46:06Z</time>
<speed>3.040000</speed>
<extensions>
<speed>3.0</speed>
<temp>0.00</temp>
<bpm>0</bpm>
<rpm>0.00</rpm>
</extensions>
</trkpt>
<trkpt lat="64.213386536" lon="-20.861534119">
<ele>188.222656</ele>
<time>2012-07-19T14:46:11Z</time>
<speed>3.310000</speed>
<extensions>
<speed>3.3</speed>
<temp>0.00</temp>
<bpm>0</bpm>
<rpm>0.00</rpm>
</extensions>
</trkpt>
<trkpt lat="64.213256836" lon="-20.861360550">
<ele>183.605469</ele>
<time>2012-07-19T14:46:16Z</time>
<speed>3.380000</speed>
<extensions>
<speed>3.4</speed>
<temp>0.00</temp>
<bpm>0</bpm>
<rpm>0.00</rpm>
</extensions>
</trkpt>
<trkpt lat="64.213119507" lon="-20.861185074">
<ele>181.320313</ele>
<time>2012-07-19T14:46:21Z</time>
<speed>3.160000</speed>
<extensions>
<speed>3.2</speed>
<temp>0.00</temp>
<bpm>0</bpm>
<rpm>0.00</rpm>
</extensions>
</trkpt>
<trkpt lat="64.212989807" lon="-20.861036301">
<ele>177.746094</ele>
<time>2012-07-19T14:46:26Z</time>
<speed>3.470000</speed>
<extensions>
<speed>3.5</speed>
<temp>0.00</temp>
<bpm>0</bpm>
<rpm>0.00</rpm>
</extensions>
</trkpt>
<trkpt lat="64.212852478" lon="-20.860887527">
<ele>177.093750</ele>
<time>2012-07-19T14:46:31Z</time>
<speed>3.290000</speed>
<extensions>
<speed>3.3</speed>
<temp>0.00</temp>
<bpm>0</bpm>
<rpm>0.00</rpm>
</extensions>
</trkpt>
<trkpt lat="64.212722778" lon="-20.860767365">
<ele>177.972656</ele>
<time>2012-07-19T14:46:36Z</time>
<speed>3.260000</speed>
<extensions>
<speed>3.3</speed>
<temp>0.00</temp>
<bpm>0</bpm>
<rpm>0.00</rpm>
</extensions>
</trkpt>
<trkpt lat="64.212562561" lon="-20.860637665">
<ele>177.343750</ele>
<time>2012-07-19T14:46:41Z</time>
<speed>3.510000</speed>
<extensions>
<speed>3.5</speed>
<temp>0.00</temp>
<bpm>0</bpm>
<rpm>0.00</rpm>
</extensions>
</trkpt>
<trkpt lat="64.212440491" lon="-20.860498428">
<ele>178.976563</ele>
<time>2012-07-19T14:46:46Z</time>
<speed>3.420000</speed>
<extensions>
<speed>3.4</speed>
<temp>0.00</temp>
<bpm>0</bpm>
<rpm>0.00</rpm>
</extensions>
</trkpt>
<trkpt lat="64.212333679" lon="-20.860286713">
<ele>182.308594</ele>
<time>2012-07-19T14:46:51Z</time>
<speed>3.670000</speed>
<extensions>
<speed>3.7</speed>
<temp>0.00</temp>
<bpm>0</bpm>
<rpm>0.00</rpm>
</extensions>
</trkpt>
<trkpt lat="64.212249756" lon="-20.860034943">
<ele>189.675781</ele>
<time>2012-07-19T14:46:56Z</time>
<speed>3.520000</speed>
<extensions>
<speed>3.5</speed>
<temp>0.00</temp>
<bpm>0</bpm>
<rpm>0.00</rpm>
</extensions>
</trkpt>
<trkpt lat="64.212165833" lon="-20.859783173">
<ele>195.578125</ele>
<time>2012-07-19T14:47:01Z</time>
<speed>3.310000</speed>
<extensions>
<speed>3.3</speed>
<temp>0.00</temp>
<bpm>0</bpm>
<rpm>0.00</rpm>
</extensions>
</trkpt>
<trkpt lat="64.212135315" lon="-20.859508514">
<ele>203.566406</ele>
<time>2012-07-19T14:47:06Z</time>
<speed>2.470000</speed>
<extensions>
<speed>2.5</speed>
<temp>0.00</temp>
<bpm>0</bpm>
<rpm>0.00</rpm>
</extensions>
</trkpt>
<trkpt lat="64.212081909" lon="-20.859197617">
<ele>199.613281</ele>
<time>2012-07-19T14:47:11Z</time>
<speed>2.900000</speed>
<extensions>
<speed>2.9</speed>
<temp>0.00</temp>
<bpm>0</bpm>
<rpm>0.00</rpm>
</extensions>
</trkpt>
<trkpt lat="64.212028503" lon="-20.858840942">
<ele>192.750000</ele>
<time>2012-07-19T14:47:16Z</time>
<speed>3.230000</speed>
<extensions>
<speed>3.2</speed>
<temp>0.00</temp>
<bpm>0</bpm>
<rpm>0.00</rpm>
</extensions>
</trkpt>
<trkpt lat="64.211997986" lon="-20.858489990">
<ele>192.082031</ele>
<time>2012-07-19T14:47:21Z</time>
<speed>3.460000</speed>
<extensions>
<speed>3.5</speed>
<temp>0.00</temp>
<bpm>0</bpm>
<rpm>0.00</rpm>
</extensions>
</trkpt>
<trkpt lat="64.211967468" lon="-20.858110428">
<ele>192.406250</ele>
<time>2012-07-19T14:47:26Z</time>
<speed>3.630000</speed>
<extensions>
<speed>3.6</speed>
<temp>0.00</temp>
<bpm>0</bpm>
<rpm>0.00</rpm>
</extensions>
</trkpt>
<trkpt lat="64.211944580" lon="-20.857732773">
<ele>192.316406</ele>
<time>2012-07-19T14:47:31Z</time>
<speed>3.660000</speed>
<extensions>
<speed>3.7</speed>
<temp>0.00</temp>
<bpm>0</bpm>
<rpm>0.00</rpm>
</extensions>
</trkpt>
<trkpt lat="64.211944580" lon="-20.857351303">
<ele>191.640625</ele>
<time>2012-07-19T14:47:36Z</time>
<speed>3.590000</speed>
<extensions>
<speed>3.6</speed>
<temp>0.00</temp>
<bpm>0</bpm>
<rpm>0.00</rpm>
</extensions>
</trkpt>
<trkpt lat="64.211959839" lon="-20.856975555">
<ele>191.324219</ele>
<time>2012-07-19T14:47:41Z</time>
<speed>3.740000</speed>
<extensions>
<speed>3.7</speed>
<temp>0.00</temp>
<bpm>0</bpm>
<rpm>0.00</rpm>
</extensions>
</trkpt>
<trkpt lat="64.211982727" lon="-20.856597900">
<ele>190.453125</ele>
<time>2012-07-19T14:47:46Z</time>
<speed>3.730000</speed>
<extensions>
<speed>3.7</speed>
<temp>0.00</temp>
<bpm>0</bpm>
<rpm>0.00</rpm>
</extensions>
</trkpt>
<trkpt lat="64.211990356" lon="-20.856225967">
<ele>190.273438</ele>
<time>2012-07-19T14:47:51Z</time>
<speed>3.200000</speed>
<extensions>
<speed>3.2</speed>
<temp>0.00</temp>
<bpm>0</bpm>
<rpm>0.00</rpm>
</extensions>
</trkpt>
<trkpt lat="64.211982727" lon="-20.855957031">
<ele>189.714844</ele>
<time>2012-07-19T14:47:56Z</time>
<speed>2.780000</speed>
<extensions>
<speed>2.8</speed>
<temp>0.00</temp>
<bpm>0</bpm>
<rpm>0.00</rpm>
</extensions>
</trkpt>
<trkpt lat="64.211975098" lon="-20.855720520">
<ele>190.230469</ele>
<time>2012-07-19T14:48:01Z</time>
<speed>2.110000</speed>
<extensions>
<speed>2.1</speed>
<temp>0.00</temp>
<bpm>0</bpm>
<rpm>0.00</rpm>
</extensions>
</trkpt>
<trkpt lat="64.211959839" lon="-20.855484009">
<ele>191.117188</ele>
<time>2012-07-19T14:48:06Z</time>
<speed>2.520000</speed>
<extensions>
<speed>2.5</speed>
<temp>0.00</temp>
<bpm>0</bpm>
<rpm>0.00</rpm>
</extensions>
</trkpt>
<trkpt lat="64.211952209" lon="-20.855207443">
<ele>191.582031</ele>
<time>2012-07-19T14:48:11Z</time>
<speed>2.470000</speed>
<extensions>
<speed>2.5</speed>
<temp>0.00</temp>
<bpm>0</bpm>
<rpm>0.00</rpm>
</extensions>
</trkpt>
<trkpt lat="64.211959839" lon="-20.854948044">
<ele>191.433594</ele>
<time>2012-07-19T14:48:16Z</time>
<speed>2.750000</speed>
<extensions>
<speed>2.7</speed>
<temp>0.00</temp>
<bpm>0</bpm>
<rpm>0.00</rpm>
</extensions>
</trkpt>
<trkpt lat="64.211952209" lon="-20.854606628">
<ele>191.003906</ele>
<time>2012-07-19T14:48:21Z</time>
<speed>3.560000</speed>
<extensions>
<speed>3.6</speed>
<temp>0.00</temp>
<bpm>0</bpm>
<rpm>0.00</rpm>
</extensions>
</trkpt>
<trkpt lat="64.211944580" lon="-20.854269028">
<ele>191.398438</ele>
<time>2012-07-19T14:48:26Z</time>
<speed>3.250000</speed>
<extensions>
<speed>3.2</speed>
<temp>0.00</temp>
<bpm>0</bpm>
<rpm>0.00</rpm>
</extensions>
</trkpt>
<trkpt lat="64.211929321" lon="-20.853940964">
<ele>191.484375</ele>
<time>2012-07-19T14:48:31Z</time>
<speed>3.120000</speed>
<extensions>
<speed>3.1</speed>
<temp>0.00</temp>
<bpm>0</bpm>
<rpm>0.00</rpm>
</extensions>
</trkpt>
<trkpt lat="64.211906433" lon="-20.853612900">
<ele>191.777344</ele>
<time>2012-07-19T14:48:36Z</time>
<speed>2.570000</speed>
<extensions>
<speed>2.6</speed>
<temp>0.00</temp>
<bpm>0</bpm>
<rpm>0.00</rpm>
</extensions>
</trkpt>
<trkpt lat="64.211906433" lon="-20.853445053">
<ele>191.457031</ele>
<time>2012-07-19T14:48:41Z</time>
<speed>0.060000</speed>
<extensions>
<speed>0.1</speed>
<temp>0.00</temp>
<bpm>0</bpm>
<rpm>0.00</rpm>
</extensions>
</trkpt>
<trkpt lat="64.211906433" lon="-20.853452682">
<ele>191.253906</ele>
<time>2012-07-19T14:48:46Z</time>
<extensions>
<speed>0.0</speed>
<temp>0.00</temp>
<bpm>0</bpm>
<rpm>0.00</rpm>
</extensions>
</trkpt>
<trkpt lat="64.211906433" lon="-20.853452682">
<ele>191.250000</ele>
<time>2012-07-19T14:48:51Z</time>
<speed>0.010000</speed>
<extensions>
<speed>0.0</speed>
<temp>0.00</temp>
<bpm>0</bpm>
<rpm>0.00</rpm>
</extensions>
</trkpt>
<trkpt lat="64.211906433" lon="-20.853454590">
<ele>191.242188</ele>
<time>2012-07-19T14:48:56Z</time>
<speed>0.020000</speed>
<extensions>
<speed>0.0</speed>
<temp>0.00</temp>
<bpm>0</bpm>
<rpm>0.00</rpm>
</extensions>
</trkpt>
<trkpt lat="64.211906433" lon="-20.853454590">
<ele>191.222656</ele>
<time>2012-07-19T14:49:01Z</time>
<extensions>
<speed>0.0</speed>
<temp>0.00</temp>
<bpm>0</bpm>
<rpm>0.00</rpm>
</extensions>
</trkpt>
<trkpt lat="64.211914063" lon="-20.853410721">
<ele>191.203125</ele>
<time>2012-07-19T14:49:06Z</time>
<speed>0.190000</speed>
<extensions>
<speed>0.2</speed>
<temp>0.00</temp>
<bpm>0</bpm>
<rpm>0.00</rpm>
</extensions>
</trkpt>
<trkpt lat="64.211914063" lon="-20.853408813">
<ele>190.984375</ele>
<time>2012-07-19T14:49:11Z</time>
<speed>0.020000</speed>
<extensions>
<speed>0.0</speed>
<temp>0.00</temp>
<bpm>0</bpm>
<rpm>0.00</rpm>
</extensions>
</trkpt>
<trkpt lat="64.211914063" lon="-20.853406906">
<ele>190.968750</ele>
<time>2012-07-19T14:49:16Z</time>
<speed>0.130000</speed>
<extensions>
<speed>0.1</speed>
<temp>0.00</temp>
<bpm>0</bpm>
<rpm>0.00</rpm>
</extensions>
</trkpt>
<trkpt lat="64.211914063" lon="-20.853401184">
<ele>190.972656</ele>
<time>2012-07-19T14:49:21Z</time>
<extensions>
<speed>0.0</speed>
<temp>0.00</temp>
<bpm>0</bpm>
<rpm>0.00</rpm>
</extensions>
</trkpt>
<trkpt lat="64.211914063" lon="-20.853401184">
<ele>190.992188</ele>
<time>2012-07-19T14:49:26Z</time>
<speed>0.010000</speed>
<extensions>
<speed>0.0</speed>
<temp>0.00</temp>
<bpm>0</bpm>
<rpm>0.00</rpm>
</extensions>
</trkpt>
<trkpt lat="64.211914063" lon="-20.853425980">
<ele>191.046875</ele>
<time>2012-07-19T14:49:31Z</time>
<speed>0.290000</speed>
<extensions>
<speed>0.3</speed>
<temp>0.00</temp>
<bpm>0</bpm>
<rpm>0.00</rpm>
</extensions>
</trkpt>
<trkpt lat="64.211883545" lon="-20.853462219">
<ele>191.363281</ele>
<time>2012-07-19T14:49:36Z</time>
<speed>0.960000</speed>
<extensions>
<speed>1.0</speed>
<temp>0.00</temp>
<bpm>0</bpm>
<rpm>0.00</rpm>
</extensions>
</trkpt>
<trkpt lat="64.211837769" lon="-20.853504181">
<ele>191.507813</ele>
<time>2012-07-19T14:49:41Z</time>
<speed>0.490000</speed>
<extensions>
<speed>0.5</speed>
<temp>0.00</temp>
<bpm>0</bpm>
<rpm>0.00</rpm>
</extensions>
</trkpt>
<trkpt lat="64.211830139" lon="-20.853515625">
<ele>190.542969</ele>
<time>2012-07-19T14:49:46Z</time>
<extensions>
<speed>0.0</speed>
<temp>0.00</temp>
<bpm>0</bpm>
<rpm>0.00</rpm>
</extensions>
</trkpt>
<trkpt lat="64.211830139" lon="-20.853515625">
<ele>190.542969</ele>
<time>2012-07-19T14:49:51Z</time>
<extensions>
<speed>0.0</speed>
<temp>0.00</temp>
<bpm>0</bpm>
<rpm>0.00</rpm>
</extensions>
</trkpt>
<trkpt lat="64.211830139" lon="-20.853515625">
<ele>190.527344</ele>
<time>2012-07-19T14:49:56Z</time>
<extensions>
<speed>0.0</speed>
<temp>0.00</temp>
<bpm>0</bpm>
<rpm>0.00</rpm>
</extensions>
</trkpt>
<trkpt lat="64.211830139" lon="-20.853517532">
<ele>190.515625</ele>
<time>2012-07-19T14:50:01Z</time>
<speed>0.190000</speed>
<extensions>
<speed>0.2</speed>
<temp>0.00</temp>
<bpm>0</bpm>
<rpm>0.00</rpm>
</extensions>
</trkpt>
<trkpt lat="64.211830139" lon="-20.853527069">
<ele>190.820313</ele>
<time>2012-07-19T14:50:06Z</time>
<speed>0.020000</speed>
<extensions>
<speed>0.0</speed>
<temp>0.00</temp>
<bpm>0</bpm>
<rpm>0.00</rpm>
</extensions>
</trkpt>
<trkpt lat="64.211830139" lon="-20.853528976">
<ele>190.812500</ele>
<time>2012-07-19T14:50:11Z</time>
<extensions>
<speed>0.0</speed>
<temp>0.00</temp>
<bpm>0</bpm>
<rpm>0.00</rpm>
</extensions>
</trkpt>
<trkpt lat="64.211830139" lon="-20.853528976">
<ele>190.812500</ele>
<time>2012-07-19T14:50:16Z</time>
<extensions>
<speed>0.0</speed>
<temp>0.00</temp>
<bpm>0</bpm>
<rpm>0.00</rpm>
</extensions>
</trkpt>
<trkpt lat="64.211830139" lon="-20.853528976">
<ele>190.800781</ele>
<time>2012-07-19T14:50:21Z</time>
<extensions>
<speed>0.0</speed>
<temp>0.00</temp>
<bpm>0</bpm>
<rpm>0.00</rpm>
</extensions>
</trkpt>
<trkpt lat="64.211830139" lon="-20.853528976">
<ele>190.796875</ele>
<time>2012-07-19T14:50:26Z</time>
<extensions>
<speed>0.0</speed>
<temp>0.00</temp>
<bpm>0</bpm>
<rpm>0.00</rpm>
</extensions>
</trkpt>
<trkpt lat="64.211830139" lon="-20.853530884">
<ele>190.792969</ele>
<time>2012-07-19T14:50:31Z</time>
<extensions>
<speed>0.0</speed>
<temp>0.00</temp>
<bpm>0</bpm>
<rpm>0.00</rpm>
</extensions>
</trkpt>
<trkpt lat="64.211830139" lon="-20.853530884">
<ele>190.781250</ele>
<time>2012-07-19T14:50:36Z</time>
<extensions>
<speed>0.0</speed>
<temp>0.00</temp>
<bpm>0</bpm>
<rpm>0.00</rpm>
</extensions>
</trkpt>
<trkpt lat="64.211830139" lon="-20.853530884">
<ele>190.792969</ele>
<time>2012-07-19T14:50:41Z</time>
<extensions>
<speed>0.0</speed>
<temp>0.00</temp>
<bpm>0</bpm>
<rpm>0.00</rpm>
</extensions>
</trkpt>
<trkpt lat="64.211830139" lon="-20.853530884">
<ele>190.796875</ele>
<time>2012-07-19T14:50:46Z</time>
<extensions>
<speed>0.0</speed>
<temp>0.00</temp>
<bpm>0</bpm>
<rpm>0.00</rpm>
</extensions>
</trkpt>
<trkpt lat="64.211830139" lon="-20.853530884">
<ele>190.796875</ele>
<time>2012-07-19T14:50:51Z</time>
<extensions>
<speed>0.0</speed>
<temp>0.00</temp>
<bpm>0</bpm>
<rpm>0.00</rpm>
</extensions>
</trkpt>
<trkpt lat="64.211830139" lon="-20.853532791">
<ele>190.785156</ele>
<time>2012-07-19T14:50:56Z</time>
<extensions>
<speed>0.0</speed>
<temp>0.00</temp>
<bpm>0</bpm>
<rpm>0.00</rpm>
</extensions>
</trkpt>
<trkpt lat="64.211830139" lon="-20.853532791">
<ele>190.785156</ele>
<time>2012-07-19T14:51:01Z</time>
<extensions>
<speed>0.0</speed>
<temp>0.00</temp>
<bpm>0</bpm>
<rpm>0.00</rpm>
</extensions>
</trkpt>
<trkpt lat="64.211830139" lon="-20.853532791">
<ele>190.777344</ele>
<time>2012-07-19T14:51:06Z</time>
<extensions>
<speed>0.0</speed>
<temp>0.00</temp>
<bpm>0</bpm>
<rpm>0.00</rpm>
</extensions>
</trkpt>
<trkpt lat="64.211830139" lon="-20.853532791">
<ele>190.773438</ele>
<time>2012-07-19T14:51:11Z</time>
<extensions>
<speed>0.0</speed>
<temp>0.00</temp>
<bpm>0</bpm>
<rpm>0.00</rpm>
</extensions>
</trkpt>
<trkpt lat="64.211830139" lon="-20.853532791">
<ele>190.765625</ele>
<time>2012-07-19T14:51:16Z</time>
<speed>0.010000</speed>
<extensions>
<speed>0.0</speed>
<temp>0.00</temp>
<bpm>0</bpm>
<rpm>0.00</rpm>
</extensions>
</trkpt>
<trkpt lat="64.211830139" lon="-20.853532791">
<ele>190.753906</ele>
<time>2012-07-19T14:51:21Z</time>
<extensions>
<speed>0.0</speed>
<temp>0.00</temp>
<bpm>0</bpm>
<rpm>0.00</rpm>
</extensions>
</trkpt>
<trkpt lat="64.211830139" lon="-20.853534698">
<ele>190.750000</ele>
<time>2012-07-19T14:51:26Z</time>
<extensions>
<speed>0.0</speed>
<temp>0.00</temp>
<bpm>0</bpm>
<rpm>0.00</rpm>
</extensions>
</trkpt>
<trkpt lat="64.211830139" lon="-20.853534698">
<ele>190.750000</ele>
<time>2012-07-19T14:51:31Z</time>
<extensions>
<speed>0.0</speed>
<temp>0.00</temp>
<bpm>0</bpm>
<rpm>0.00</rpm>
</extensions>
</trkpt>
<trkpt lat="64.211830139" lon="-20.853534698">
<ele>190.757813</ele>
<time>2012-07-19T14:51:36Z</time>
<extensions>
<speed>0.0</speed>
<temp>0.00</temp>
<bpm>0</bpm>
<rpm>0.00</rpm>
</extensions>
</trkpt>
<trkpt lat="64.211830139" lon="-20.853534698">
<ele>190.750000</ele>
<time>2012-07-19T14:51:41Z</time>
<extensions>
<speed>0.0</speed>
<temp>0.00</temp>
<bpm>0</bpm>
<rpm>0.00</rpm>
</extensions>
</trkpt>
<trkpt lat="64.211830139" lon="-20.853534698">
<ele>190.738281</ele>
<time>2012-07-19T14:51:46Z</time>
<extensions>
<speed>0.0</speed>
<temp>0.00</temp>
<bpm>0</bpm>
<rpm>0.00</rpm>
</extensions>
</trkpt>
<trkpt lat="64.211830139" lon="-20.853534698">
<ele>190.738281</ele>
<time>2012-07-19T14:51:51Z</time>
<extensions>
<speed>0.0</speed>
<temp>0.00</temp>
<bpm>0</bpm>
<rpm>0.00</rpm>
</extensions>
</trkpt>
<trkpt lat="64.211830139" lon="-20.853536606">
<ele>190.753906</ele>
<time>2012-07-19T14:51:56Z</time>
<extensions>
<speed>0.0</speed>
<temp>0.00</temp>
<bpm>0</bpm>
<rpm>0.00</rpm>
</extensions>
</trkpt>
<trkpt lat="64.211830139" lon="-20.853536606">
<ele>190.746094</ele>
<time>2012-07-19T14:52:01Z</time>
<extensions>
<speed>0.0</speed>
<temp>0.00</temp>
<bpm>0</bpm>
<rpm>0.00</rpm>
</extensions>
</trkpt>
<trkpt lat="64.211830139" lon="-20.853536606">
<ele>190.734375</ele>
<time>2012-07-19T14:52:06Z</time>
<extensions>
<speed>0.0</speed>
<temp>0.00</temp>
<bpm>0</bpm>
<rpm>0.00</rpm>
</extensions>
</trkpt>
<trkpt lat="64.211830139" lon="-20.853536606">
<ele>190.734375</ele>
<time>2012-07-19T14:52:11Z</time>
<extensions>
<speed>0.0</speed>
<temp>0.00</temp>
<bpm>0</bpm>
<rpm>0.00</rpm>
</extensions>
</trkpt>
<trkpt lat="64.211830139" lon="-20.853536606">
<ele>190.734375</ele>
<time>2012-07-19T14:52:16Z</time>
<extensions>
<speed>0.0</speed>
<temp>0.00</temp>
<bpm>0</bpm>
<rpm>0.00</rpm>
</extensions>
</trkpt>
<trkpt lat="64.211830139" lon="-20.853536606">
<ele>190.734375</ele>
<time>2012-07-19T14:52:21Z</time>
<extensions>
<speed>0.0</speed>
<temp>0.00</temp>
<bpm>0</bpm>
<rpm>0.00</rpm>
</extensions>
</trkpt>
<trkpt lat="64.211830139" lon="-20.853536606">
<ele>190.742188</ele>
<time>2012-07-19T14:52:26Z</time>
<extensions>
<speed>0.0</speed>
<temp>0.00</temp>
<bpm>0</bpm>
<rpm>0.00</rpm>
</extensions>
</trkpt>
<trkpt lat="64.211830139" lon="-20.853536606">
<ele>190.750000</ele>
<time>2012-07-19T14:52:31Z</time>
<extensions>
<speed>0.0</speed>
<temp>0.00</temp>
<bpm>0</bpm>
<rpm>0.00</rpm>
</extensions>
</trkpt>
<trkpt lat="64.211830139" lon="-20.853538513">
<ele>190.757813</ele>
<time>2012-07-19T14:52:36Z</time>
<extensions>
<speed>0.0</speed>
<temp>0.00</temp>
<bpm>0</bpm>
<rpm>0.00</rpm>
</extensions>
</trkpt>
<trkpt lat="64.211830139" lon="-20.853538513">
<ele>190.750000</ele>
<time>2012-07-19T14:52:41Z</time>
<extensions>
<speed>0.0</speed>
<temp>0.00</temp>
<bpm>0</bpm>
<rpm>0.00</rpm>
</extensions>
</trkpt>
<trkpt lat="64.211830139" lon="-20.853538513">
<ele>190.742188</ele>
<time>2012-07-19T14:52:46Z</time>
<extensions>
<speed>0.0</speed>
<temp>0.00</temp>
<bpm>0</bpm>
<rpm>0.00</rpm>
</extensions>
</trkpt>
<trkpt lat="64.211830139" lon="-20.853538513">
<ele>190.742188</ele>
<time>2012-07-19T14:52:51Z</time>
<extensions>
<speed>0.0</speed>
<temp>0.00</temp>
<bpm>0</bpm>
<rpm>0.00</rpm>
</extensions>
</trkpt>
<trkpt lat="64.211830139" lon="-20.853538513">
<ele>190.746094</ele>
<time>2012-07-19T14:52:56Z</time>
<extensions>
<speed>0.0</speed>
<temp>0.00</temp>
<bpm>0</bpm>
<rpm>0.00</rpm>
</extensions>
</trkpt>
<trkpt lat="64.211830139" lon="-20.853538513">
<ele>190.742188</ele>
<time>2012-07-19T14:53:01Z</time>
<extensions>
<speed>0.0</speed>
<temp>0.00</temp>
<bpm>0</bpm>
<rpm>0.00</rpm>
</extensions>
</trkpt>
<trkpt lat="64.211830139" lon="-20.853538513">
<ele>190.750000</ele>
<time>2012-07-19T14:53:06Z</time>
<extensions>
<speed>0.0</speed>
<temp>0.00</temp>
<bpm>0</bpm>
<rpm>0.00</rpm>
</extensions>
</trkpt>
<trkpt lat="64.211830139" lon="-20.853538513">
<ele>190.761719</ele>
<time>2012-07-19T14:53:11Z</time>
<extensions>
<speed>0.0</speed>
<temp>0.00</temp>
<bpm>0</bpm>
<rpm>0.00</rpm>
</extensions>
</trkpt>
<trkpt lat="64.211830139" lon="-20.853540421">
<ele>190.769531</ele>
<time>2012-07-19T14:53:16Z</time>
<extensions>
<speed>0.0</speed>
<temp>0.00</temp>
<bpm>0</bpm>
<rpm>0.00</rpm>
</extensions>
</trkpt>
<trkpt lat="64.211830139" lon="-20.853540421">
<ele>190.777344</ele>
<time>2012-07-19T14:53:21Z</time>
<extensions>
<speed>0.0</speed>
<temp>0.00</temp>
<bpm>0</bpm>
<rpm>0.00</rpm>
</extensions>
</trkpt>
<trkpt lat="64.211830139" lon="-20.853540421">
<ele>190.761719</ele>
<time>2012-07-19T14:53:26Z</time>
<speed>0.010000</speed>
<extensions>
<speed>0.0</speed>
<temp>0.00</temp>
<bpm>0</bpm>
<rpm>0.00</rpm>
</extensions>
</trkpt>
<trkpt lat="64.211830139" lon="-20.853540421">
<ele>190.742188</ele>
<time>2012-07-19T14:53:31Z</time>
<extensions>
<speed>0.0</speed>
<temp>0.00</temp>
<bpm>0</bpm>
<rpm>0.00</rpm>
</extensions>
</trkpt>
<trkpt lat="64.211830139" lon="-20.853540421">
<ele>190.738281</ele>
<time>2012-07-19T14:53:36Z</time>
<extensions>
<speed>0.0</speed>
<temp>0.00</temp>
<bpm>0</bpm>
<rpm>0.00</rpm>
</extensions>
</trkpt>
<trkpt lat="64.211830139" lon="-20.853540421">
<ele>190.738281</ele>
<time>2012-07-19T14:53:41Z</time>
<extensions>
<speed>0.0</speed>
<temp>0.00</temp>
<bpm>0</bpm>
<rpm>0.00</rpm>
</extensions>
</trkpt>
<trkpt lat="64.211830139" lon="-20.853540421">
<ele>190.742188</ele>
<time>2012-07-19T14:53:46Z</time>
<extensions>
<speed>0.0</speed>
<temp>0.00</temp>
<bpm>0</bpm>
<rpm>0.00</rpm>
</extensions>
</trkpt>
<trkpt lat="64.211830139" lon="-20.853540421">
<ele>190.734375</ele>
<time>2012-07-19T14:53:51Z</time>
<extensions>
<speed>0.0</speed>
<temp>0.00</temp>
<bpm>0</bpm>
<rpm>0.00</rpm>
</extensions>
</trkpt>
<trkpt lat="64.211830139" lon="-20.853540421">
<ele>190.742188</ele>
<time>2012-07-19T14:53:56Z</time>
<extensions>
<speed>0.0</speed>
<temp>0.00</temp>
<bpm>0</bpm>
<rpm>0.00</rpm>
</extensions>
</trkpt>
<trkpt lat="64.211830139" lon="-20.853542328">
<ele>190.742188</ele>
<time>2012-07-19T14:54:01Z</time>
<extensions>
<speed>0.0</speed>
<temp>0.00</temp>
<bpm>0</bpm>
<rpm>0.00</rpm>
</extensions>
</trkpt>
<trkpt lat="64.211830139" lon="-20.853542328">
<ele>190.746094</ele>
<time>2012-07-19T14:54:06Z</time>
<extensions>
<speed>0.0</speed>
<temp>0.00</temp>
<bpm>0</bpm>
<rpm>0.00</rpm>
</extensions>
</trkpt>
<trkpt lat="64.211830139" lon="-20.853542328">
<ele>190.746094</ele>
<time>2012-07-19T14:54:11Z</time>
<extensions>
<speed>0.0</speed>
<temp>0.00</temp>
<bpm>0</bpm>
<rpm>0.00</rpm>
</extensions>
</trkpt>
<trkpt lat="64.211830139" lon="-20.853542328">
<ele>190.742188</ele>
<time>2012-07-19T14:54:16Z</time>
<extensions>
<speed>0.0</speed>
<temp>0.00</temp>
<bpm>0</bpm>
<rpm>0.00</rpm>
</extensions>
</trkpt>
<trkpt lat="64.211830139" lon="-20.853542328">
<ele>190.738281</ele>
<time>2012-07-19T14:54:21Z</time>
<extensions>
<speed>0.0</speed>
<temp>0.00</temp>
<bpm>0</bpm>
<rpm>0.00</rpm>
</extensions>
</trkpt>
<trkpt lat="64.211830139" lon="-20.853542328">
<ele>190.734375</ele>
<time>2012-07-19T14:54:26Z</time>
<extensions>
<speed>0.0</speed>
<temp>0.00</temp>
<bpm>0</bpm>
<rpm>0.00</rpm>
</extensions>
</trkpt>
<trkpt lat="64.211830139" lon="-20.853542328">
<ele>190.734375</ele>
<time>2012-07-19T14:54:31Z</time>
<extensions>
<speed>0.0</speed>
<temp>0.00</temp>
<bpm>0</bpm>
<rpm>0.00</rpm>
</extensions>
</trkpt>
<trkpt lat="64.211830139" lon="-20.853542328">
<ele>190.730469</ele>
<time>2012-07-19T14:54:36Z</time>
<speed>0.010000</speed>
<extensions>
<speed>0.0</speed>
<temp>0.00</temp>
<bpm>0</bpm>
<rpm>0.00</rpm>
</extensions>
</trkpt>
<trkpt lat="64.211830139" lon="-20.853542328">
<ele>190.738281</ele>
<time>2012-07-19T14:54:41Z</time>
<extensions>
<speed>0.0</speed>
<temp>0.00</temp>
<bpm>0</bpm>
<rpm>0.00</rpm>
</extensions>
</trkpt>
<trkpt lat="64.211830139" lon="-20.853542328">
<ele>190.742188</ele>
<time>2012-07-19T14:54:46Z</time>
<extensions>
<speed>0.0</speed>
<temp>0.00</temp>
<bpm>0</bpm>
<rpm>0.00</rpm>
</extensions>
</trkpt>
<trkpt lat="64.211830139" lon="-20.853542328">
<ele>190.738281</ele>
<time>2012-07-19T14:54:51Z</time>
<extensions>
<speed>0.0</speed>
<temp>0.00</temp>
<bpm>0</bpm>
<rpm>0.00</rpm>
</extensions>
</trkpt>
<trkpt lat="64.211830139" lon="-20.853542328">
<ele>190.730469</ele>
<time>2012-07-19T14:54:56Z</time>
<extensions>
<speed>0.0</speed>
<temp>0.00</temp>
<bpm>0</bpm>
<rpm>0.00</rpm>
</extensions>
</trkpt>
<trkpt lat="64.211830139" lon="-20.853544235">
<ele>190.738281</ele>
<time>2012-07-19T14:55:01Z</time>
<extensions>
<speed>0.0</speed>
<temp>0.00</temp>
<bpm>0</bpm>
<rpm>0.00</rpm>
</extensions>
</trkpt>
<trkpt lat="64.211830139" lon="-20.853544235">
<ele>190.734375</ele>
<time>2012-07-19T14:55:06Z</time>
<extensions>
<speed>0.0</speed>
<temp>0.00</temp>
<bpm>0</bpm>
<rpm>0.00</rpm>
</extensions>
</trkpt>
<trkpt lat="64.211830139" lon="-20.853544235">
<ele>190.746094</ele>
<time>2012-07-19T14:55:11Z</time>
<extensions>
<speed>0.0</speed>
<temp>0.00</temp>
<bpm>0</bpm>
<rpm>0.00</rpm>
</extensions>
</trkpt>
<trkpt lat="64.211830139" lon="-20.853544235">
<ele>190.750000</ele>
<time>2012-07-19T14:55:16Z</time>
<extensions>
<speed>0.0</speed>
<temp>0.00</temp>
<bpm>0</bpm>
<rpm>0.00</rpm>
</extensions>
</trkpt>
<trkpt lat="64.211830139" lon="-20.853544235">
<ele>190.750000</ele>
<time>2012-07-19T14:55:21Z</time>
<extensions>
<speed>0.0</speed>
<temp>0.00</temp>
<bpm>0</bpm>
<rpm>0.00</rpm>
</extensions>
</trkpt>
<trkpt lat="64.211830139" lon="-20.853544235">
<ele>190.746094</ele>
<time>2012-07-19T14:55:26Z</time>
<extensions>
<speed>0.0</speed>
<temp>0.00</temp>
<bpm>0</bpm>
<rpm>0.00</rpm>
</extensions>
</trkpt>
<trkpt lat="64.211830139" lon="-20.853544235">
<ele>190.742188</ele>
<time>2012-07-19T14:55:31Z</time>
<extensions>
<speed>0.0</speed>
<temp>0.00</temp>
<bpm>0</bpm>
<rpm>0.00</rpm>
</extensions>
</trkpt>
<trkpt lat="64.211830139" lon="-20.853544235">
<ele>190.742188</ele>
<time>2012-07-19T14:55:36Z</time>
<extensions>
<speed>0.0</speed>
<temp>0.00</temp>
<bpm>0</bpm>
<rpm>0.00</rpm>
</extensions>
</trkpt>
<trkpt lat="64.211830139" lon="-20.853544235">
<ele>190.742188</ele>
<time>2012-07-19T14:55:41Z</time>
<extensions>
<speed>0.0</speed>
<temp>0.00</temp>
<bpm>0</bpm>
<rpm>0.00</rpm>
</extensions>
</trkpt>
<trkpt lat="64.211830139" lon="-20.853544235">
<ele>190.734375</ele>
<time>2012-07-19T14:55:46Z</time>
<extensions>
<speed>0.0</speed>
<temp>0.00</temp>
<bpm>0</bpm>
<rpm>0.00</rpm>
</extensions>
</trkpt>
<trkpt lat="64.211830139" lon="-20.853546143">
<ele>190.738281</ele>
<time>2012-07-19T14:55:51Z</time>
<speed>0.070000</speed>
<extensions>
<speed>0.1</speed>
<temp>0.00</temp>
<bpm>0</bpm>
<rpm>0.00</rpm>
</extensions>
</trkpt>
<trkpt lat="64.211830139" lon="-20.853555679">
<ele>190.789063</ele>
<time>2012-07-19T14:55:56Z</time>
<speed>0.050000</speed>
<extensions>
<speed>0.1</speed>
<temp>0.00</temp>
<bpm>0</bpm>
<rpm>0.00</rpm>
</extensions>
</trkpt>
<trkpt lat="64.211814880" lon="-20.853559494">
<ele>191.246094</ele>
<time>2012-07-19T14:56:01Z</time>
<speed>0.340000</speed>
<extensions>
<speed>0.3</speed>
<temp>0.00</temp>
<bpm>0</bpm>
<rpm>0.00</rpm>
</extensions>
</trkpt>
<trkpt lat="64.211799622" lon="-20.853513718">
<ele>191.019531</ele>
<time>2012-07-19T14:56:06Z</time>
<speed>0.030000</speed>
<extensions>
<speed>0.0</speed>
<temp>0.00</temp>
<bpm>0</bpm>
<rpm>0.00</rpm>
</extensions>
</trkpt>
<trkpt lat="64.211799622" lon="-20.853466034">
<ele>190.695313</ele>
<time>2012-07-19T14:56:11Z</time>
<speed>0.050000</speed>
<extensions>
<speed>0.1</speed>
<temp>0.00</temp>
<bpm>0</bpm>
<rpm>0.00</rpm>
</extensions>
</trkpt>
<trkpt lat="64.211807251" lon="-20.853448868">
<ele>190.882813</ele>
<time>2012-07-19T14:56:16Z</time>
<speed>0.310000</speed>
<extensions>
<speed>0.3</speed>
<temp>0.00</temp>
<bpm>0</bpm>
<rpm>0.00</rpm>
</extensions>
</trkpt>
<trkpt lat="64.211807251" lon="-20.853410721">
<ele>189.925781</ele>
<time>2012-07-19T14:56:21Z</time>
<speed>0.100000</speed>
<extensions>
<speed>0.1</speed>
<temp>0.00</temp>
<bpm>0</bpm>
<rpm>0.00</rpm>
</extensions>
</trkpt>
<trkpt lat="64.211807251" lon="-20.853399277">
<ele>189.941406</ele>
<time>2012-07-19T14:56:26Z</time>
<speed>0.040000</speed>
<extensions>
<speed>0.0</speed>
<temp>0.00</temp>
<bpm>0</bpm>
<rpm>0.00</rpm>
</extensions>
</trkpt>
<trkpt lat="64.211807251" lon="-20.853397369">
<ele>190.031250</ele>
<time>2012-07-19T14:56:31Z</time>
<speed>0.070000</speed>
<extensions>
<speed>0.1</speed>
<temp>0.00</temp>
<bpm>0</bpm>
<rpm>0.00</rpm>
</extensions>
</trkpt>
<trkpt lat="64.211807251" lon="-20.853391647">
<ele>190.093750</ele>
<time>2012-07-19T14:56:36Z</time>
<extensions>
<speed>0.0</speed>
<temp>0.00</temp>
<bpm>0</bpm>
<rpm>0.00</rpm>
</extensions>
</trkpt>
<trkpt lat="64.211807251" lon="-20.853391647">
<ele>190.089844</ele>
<time>2012-07-19T14:56:41Z</time>
<extensions>
<speed>0.0</speed>
<temp>0.00</temp>
<bpm>0</bpm>
<rpm>0.00</rpm>
</extensions>
</trkpt>
<trkpt lat="64.211807251" lon="-20.853378296">
<ele>190.472656</ele>
<time>2012-07-19T14:56:46Z</time>
<speed>0.230000</speed>
<extensions>
<speed>0.2</speed>
<temp>0.00</temp>
<bpm>0</bpm>
<rpm>0.00</rpm>
</extensions>
</trkpt>
<trkpt lat="64.211814880" lon="-20.853302002">
<ele>191.667969</ele>
<time>2012-07-19T14:56:51Z</time>
<speed>1.020000</speed>
<extensions>
<speed>1.0</speed>
<temp>0.00</temp>
<bpm>0</bpm>
<rpm>0.00</rpm>
</extensions>
</trkpt>
<trkpt lat="64.211837769" lon="-20.853195190">
<ele>192.628906</ele>
<time>2012-07-19T14:56:56Z</time>
<speed>1.060000</speed>
<extensions>
<speed>1.1</speed>
<temp>0.00</temp>
<bpm>0</bpm>
<rpm>0.00</rpm>
</extensions>
</trkpt>
<trkpt lat="64.211837769" lon="-20.853097916">
<ele>193.109375</ele>
<time>2012-07-19T14:57:01Z</time>
<speed>1.310000</speed>
<extensions>
<speed>1.3</speed>
<temp>0.00</temp>
<bpm>0</bpm>
<rpm>0.00</rpm>
</extensions>
</trkpt>
<trkpt lat="64.211822510" lon="-20.853042603">
<ele>192.656250</ele>
<time>2012-07-19T14:57:06Z</time>
<speed>0.190000</speed>
<extensions>
<speed>0.2</speed>
<temp>0.00</temp>
<bpm>0</bpm>
<rpm>0.00</rpm>
</extensions>
</trkpt>
<trkpt lat="64.211822510" lon="-20.852941513">
<ele>193.187500</ele>
<time>2012-07-19T14:57:11Z</time>
<speed>1.560000</speed>
<extensions>
<speed>1.6</speed>
<temp>0.00</temp>
<bpm>0</bpm>
<rpm>0.00</rpm>
</extensions>
</trkpt>
<trkpt lat="64.211814880" lon="-20.852788925">
<ele>193.031250</ele>
<time>2012-07-19T14:57:16Z</time>
<speed>1.620000</speed>
<extensions>
<speed>1.6</speed>
<temp>0.00</temp>
<bpm>0</bpm>
<rpm>0.00</rpm>
</extensions>
</trkpt>
<trkpt lat="64.211799622" lon="-20.852668762">
<ele>193.332031</ele>
<time>2012-07-19T14:57:21Z</time>
<speed>1.650000</speed>
<extensions>
<speed>1.7</speed>
<temp>0.00</temp>
<bpm>0</bpm>
<rpm>0.00</rpm>
</extensions>
</trkpt>
<trkpt lat="64.211784363" lon="-20.852487564">
<ele>193.933594</ele>
<time>2012-07-19T14:57:26Z</time>
<speed>1.520000</speed>
<extensions>
<speed>1.5</speed>
<temp>0.00</temp>
<bpm>0</bpm>
<rpm>0.00</rpm>
</extensions>
</trkpt>
<trkpt lat="64.211753845" lon="-20.852298737">
<ele>193.781250</ele>
<time>2012-07-19T14:57:31Z</time>
<speed>2.160000</speed>
<extensions>
<speed>2.2</speed>
<temp>0.00</temp>
<bpm>0</bpm>
<rpm>0.00</rpm>
</extensions>
</trkpt>
<trkpt lat="64.211723328" lon="-20.852054596">
<ele>194.378906</ele>
<time>2012-07-19T14:57:36Z</time>
<speed>2.800000</speed>
<extensions>
<speed>2.8</speed>
<temp>0.00</temp>
<bpm>0</bpm>
<rpm>0.00</rpm>
</extensions>
</trkpt>
<trkpt lat="64.211708069" lon="-20.851749420">
<ele>193.609375</ele>
<time>2012-07-19T14:57:41Z</time>
<speed>3.150000</speed>
<extensions>
<speed>3.2</speed>
<temp>0.00</temp>
<bpm>0</bpm>
<rpm>0.00</rpm>
</extensions>
</trkpt>
<trkpt lat="64.211669922" lon="-20.851434708">
<ele>194.179688</ele>
<time>2012-07-19T14:57:46Z</time>
<speed>3.400000</speed>
<extensions>
<speed>3.4</speed>
<temp>0.00</temp>
<bpm>0</bpm>
<rpm>0.00</rpm>
</extensions>
</trkpt>
<trkpt lat="64.211639404" lon="-20.851099014">
<ele>194.332031</ele>
<time>2012-07-19T14:57:51Z</time>
<speed>3.320000</speed>
<extensions>
<speed>3.3</speed>
<temp>0.00</temp>
<bpm>0</bpm>
<rpm>0.00</rpm>
</extensions>
</trkpt>
<trkpt lat="64.211616516" lon="-20.850770950">
<ele>194.632813</ele>
<time>2012-07-19T14:57:56Z</time>
<speed>3.440000</speed>
<extensions>
<speed>3.4</speed>
<temp>0.00</temp>
<bpm>0</bpm>
<rpm>0.00</rpm>
</extensions>
</trkpt>
<trkpt lat="64.211601257" lon="-20.850433350">
<ele>194.515625</ele>
<time>2012-07-19T14:58:01Z</time>
<speed>3.270000</speed>
<extensions>
<speed>3.3</speed>
<temp>0.00</temp>
<bpm>0</bpm>
<rpm>0.00</rpm>
</extensions>
</trkpt>
<trkpt lat="64.211585999" lon="-20.850109100">
<ele>194.753906</ele>
<time>2012-07-19T14:58:06Z</time>
<speed>3.090000</speed>
<extensions>
<speed>3.1</speed>
<temp>0.00</temp>
<bpm>0</bpm>
<rpm>0.00</rpm>
</extensions>
</trkpt>
<trkpt lat="64.211563110" lon="-20.849843979">
<ele>195.363281</ele>
<time>2012-07-19T14:58:11Z</time>
<speed>2.650000</speed>
<extensions>
<speed>2.6</speed>
<temp>0.00</temp>
<bpm>0</bpm>
<rpm>0.00</rpm>
</extensions>
</trkpt>
<trkpt lat="64.211555481" lon="-20.849552155">
<ele>194.898438</ele>
<time>2012-07-19T14:58:16Z</time>
<speed>2.710000</speed>
<extensions>
<speed>2.7</speed>
<temp>0.00</temp>
<bpm>0</bpm>
<rpm>0.00</rpm>
</extensions>
</trkpt>
<trkpt lat="64.211540222" lon="-20.849254608">
<ele>194.574219</ele>
<time>2012-07-19T14:58:21Z</time>
<speed>2.910000</speed>
<extensions>
<speed>2.9</speed>
<temp>0.00</temp>
<bpm>0</bpm>
<rpm>0.00</rpm>
</extensions>
</trkpt>
<trkpt lat="64.211532593" lon="-20.848958969">
<ele>195.328125</ele>
<time>2012-07-19T14:58:26Z</time>
<speed>2.810000</speed>
<extensions>
<speed>2.8</speed>
<temp>0.00</temp>
<bpm>0</bpm>
<rpm>0.00</rpm>
</extensions>
</trkpt>
<trkpt lat="64.211517334" lon="-20.848674774">
<ele>196.257813</ele>
<time>2012-07-19T14:58:31Z</time>
<speed>2.900000</speed>
<extensions>
<speed>2.9</speed>
<temp>0.00</temp>
<bpm>0</bpm>
<rpm>0.00</rpm>
</extensions>
</trkpt>
<trkpt lat="64.211494446" lon="-20.848361969">
<ele>197.484375</ele>
<time>2012-07-19T14:58:36Z</time>
<speed>3.120000</speed>
<extensions>
<speed>3.1</speed>
<temp>0.00</temp>
<bpm>0</bpm>
<rpm>0.00</rpm>
</extensions>
</trkpt>
<trkpt lat="64.211494446" lon="-20.848114014">
<ele>197.601563</ele>
<time>2012-07-19T14:58:41Z</time>
<speed>1.830000</speed>
<extensions>
<speed>1.8</speed>
<temp>0.00</temp>
<bpm>0</bpm>
<rpm>0.00</rpm>
</extensions>
</trkpt>
<trkpt lat="64.211502075" lon="-20.847883224">
<ele>197.949219</ele>
<time>2012-07-19T14:58:46Z</time>
<speed>2.810000</speed>
<extensions>
<speed>2.8</speed>
<temp>0.00</temp>
<bpm>0</bpm>
<rpm>0.00</rpm>
</extensions>
</trkpt>
<trkpt lat="64.211494446" lon="-20.847560883">
<ele>199.703125</ele>
<time>2012-07-19T14:58:51Z</time>
<speed>2.690000</speed>
<extensions>
<speed>2.7</speed>
<temp>0.00</temp>
<bpm>0</bpm>
<rpm>0.00</rpm>
</extensions>
</trkpt>
<trkpt lat="64.211486816" lon="-20.847257614">
<ele>200.496094</ele>
<time>2012-07-19T14:58:56Z</time>
<speed>3.080000</speed>
<extensions>
<speed>3.1</speed>
<temp>0.00</temp>
<bpm>0</bpm>
<rpm>0.00</rpm>
</extensions>
</trkpt>
<trkpt lat="64.211463928" lon="-20.846910477">
<ele>200.375000</ele>
<time>2012-07-19T14:59:01Z</time>
<speed>3.490000</speed>
<extensions>
<speed>3.5</speed>
<temp>0.00</temp>
<bpm>0</bpm>
<rpm>0.00</rpm>
</extensions>
</trkpt>
<trkpt lat="64.211463928" lon="-20.846553802">
<ele>200.542969</ele>
<time>2012-07-19T14:59:06Z</time>
<speed>3.540000</speed>
<extensions>
<speed>3.5</speed>
<temp>0.00</temp>
<bpm>0</bpm>
<rpm>0.00</rpm>
</extensions>
</trkpt>
<trkpt lat="64.211456299" lon="-20.846168518">
<ele>200.476563</ele>
<time>2012-07-19T14:59:11Z</time>
<speed>3.620000</speed>
<extensions>
<speed>3.6</speed>
<temp>0.00</temp>
<bpm>0</bpm>
<rpm>0.00</rpm>
</extensions>
</trkpt>
<trkpt lat="64.211456299" lon="-20.845785141">
<ele>199.718750</ele>
<time>2012-07-19T14:59:16Z</time>
<speed>3.620000</speed>
<extensions>
<speed>3.6</speed>
<temp>0.00</temp>
<bpm>0</bpm>
<rpm>0.00</rpm>
</extensions>
</trkpt>
<trkpt lat="64.211479187" lon="-20.845401764">
<ele>200.480469</ele>
<time>2012-07-19T14:59:21Z</time>
<speed>3.630000</speed>
<extensions>
<speed>3.6</speed>
<temp>0.00</temp>
<bpm>0</bpm>
<rpm>0.00</rpm>
</extensions>
</trkpt>
<trkpt lat="64.211502075" lon="-20.845041275">
<ele>200.816406</ele>
<time>2012-07-19T14:59:26Z</time>
<speed>3.330000</speed>
<extensions>
<speed>3.3</speed>
<temp>0.00</temp>
<bpm>0</bpm>
<rpm>0.00</rpm>
</extensions>
</trkpt>
<trkpt lat="64.211524963" lon="-20.844697952">
<ele>201.125000</ele>
<time>2012-07-19T14:59:31Z</time>
<speed>3.290000</speed>
<extensions>
<speed>3.3</speed>
<temp>0.00</temp>
<bpm>0</bpm>
<rpm>0.00</rpm>
</extensions>
</trkpt>
<trkpt lat="64.211563110" lon="-20.844360352">
<ele>201.656250</ele>
<time>2012-07-19T14:59:36Z</time>
<speed>3.320000</speed>
<extensions>
<speed>3.3</speed>
<temp>0.00</temp>
<bpm>0</bpm>
<rpm>0.00</rpm>
</extensions>
</trkpt>
<trkpt lat="64.211601257" lon="-20.844041824">
<ele>201.957031</ele>
<time>2012-07-19T14:59:41Z</time>
<speed>3.360000</speed>
<extensions>
<speed>3.4</speed>
<temp>0.00</temp>
<bpm>0</bpm>
<rpm>0.00</rpm>
</extensions>
</trkpt>
<trkpt lat="64.211616516" lon="-20.843698502">
<ele>202.359375</ele>
<time>2012-07-19T14:59:46Z</time>
<speed>3.460000</speed>
<extensions>
<speed>3.5</speed>
<temp>0.00</temp>
<bpm>0</bpm>
<rpm>0.00</rpm>
</extensions>
</trkpt>
<trkpt lat="64.211639404" lon="-20.843429565">
<ele>201.410156</ele>
<time>2012-07-19T14:59:51Z</time>
<speed>1.680000</speed>
<extensions>
<speed>1.7</speed>
<temp>0.00</temp>
<bpm>0</bpm>
<rpm>0.00</rpm>
</extensions>
</trkpt>
<trkpt lat="64.211631775" lon="-20.843229294">
<ele>201.367188</ele>
<time>2012-07-19T14:59:56Z</time>
<speed>2.610000</speed>
<extensions>
<speed>2.6</speed>
<temp>0.00</temp>
<bpm>0</bpm>
<rpm>0.00</rpm>
</extensions>
</trkpt>
<trkpt lat="64.211616516" lon="-20.842916489">
<ele>204.023438</ele>
<time>2012-07-19T15:00:01Z</time>
<speed>3.060000</speed>
<extensions>
<speed>3.1</speed>
<temp>0.00</temp>
<bpm>0</bpm>
<rpm>0.00</rpm>
</extensions>
</trkpt>
<trkpt lat="64.211578369" lon="-20.842582703">
<ele>205.625000</ele>
<time>2012-07-19T15:00:06Z</time>
<speed>2.930000</speed>
<extensions>
<speed>2.9</speed>
<temp>0.00</temp>
<bpm>0</bpm>
<rpm>0.00</rpm>
</extensions>
</trkpt>
<trkpt lat="64.211555481" lon="-20.842296600">
<ele>207.800781</ele>
<time>2012-07-19T15:00:11Z</time>
<speed>2.660000</speed>
<extensions>
<speed>2.7</speed>
<temp>0.00</temp>
<bpm>0</bpm>
<rpm>0.00</rpm>
</extensions>
</trkpt>
<trkpt lat="64.211517334" lon="-20.842021942">
<ele>208.746094</ele>
<time>2012-07-19T15:00:16Z</time>
<speed>2.570000</speed>
<extensions>
<speed>2.6</speed>
<temp>0.00</temp>
<bpm>0</bpm>
<rpm>0.00</rpm>
</extensions>
</trkpt>
<trkpt lat="64.211471558" lon="-20.841777802">
<ele>209.164063</ele>
<time>2012-07-19T15:00:21Z</time>
<speed>2.780000</speed>
<extensions>
<speed>2.8</speed>
<temp>0.00</temp>
<bpm>0</bpm>
<rpm>0.00</rpm>
</extensions>
</trkpt>
<trkpt lat="64.211402893" lon="-20.841506958">
<ele>210.011719</ele>
<time>2012-07-19T15:00:26Z</time>
<speed>3.110000</speed>
<extensions>
<speed>3.1</speed>
<temp>0.00</temp>
<bpm>0</bpm>
<rpm>0.00</rpm>
</extensions>
</trkpt>
<trkpt lat="64.211341858" lon="-20.841173172">
<ele>209.710938</ele>
<time>2012-07-19T15:00:31Z</time>
<speed>3.530000</speed>
<extensions>
<speed>3.5</speed>
<temp>0.00</temp>
<bpm>0</bpm>
<rpm>0.00</rpm>
</extensions>
</trkpt>
<trkpt lat="64.211303711" lon="-20.840785980">
<ele>209.601563</ele>
<time>2012-07-19T15:00:36Z</time>
<speed>3.850000</speed>
<extensions>
<speed>3.8</speed>
<temp>0.00</temp>
<bpm>0</bpm>
<rpm>0.00</rpm>
</extensions>
</trkpt>
<trkpt lat="64.211296082" lon="-20.840421677">
<ele>209.335938</ele>
<time>2012-07-19T15:00:41Z</time>
<speed>3.880000</speed>
<extensions>
<speed>3.9</speed>
<temp>0.00</temp>
<bpm>0</bpm>
<rpm>0.00</rpm>
</extensions>
</trkpt>
<trkpt lat="64.211288452" lon="-20.840057373">
<ele>208.140625</ele>
<time>2012-07-19T15:00:46Z</time>
<speed>3.990000</speed>
<extensions>
<speed>4.0</speed>
<temp>0.00</temp>
<bpm>0</bpm>
<rpm>0.00</rpm>
</extensions>
</trkpt>
<trkpt lat="64.211296082" lon="-20.839672089">
<ele>207.808594</ele>
<time>2012-07-19T15:00:51Z</time>
<speed>3.940000</speed>
<extensions>
<speed>3.9</speed>
<temp>0.00</temp>
<bpm>0</bpm>
<rpm>0.00</rpm>
</extensions>
</trkpt>
<trkpt lat="64.211296082" lon="-20.839275360">
<ele>207.597656</ele>
<time>2012-07-19T15:00:56Z</time>
<speed>4.050000</speed>
<extensions>
<speed>4.0</speed>
<temp>0.00</temp>
<bpm>0</bpm>
<rpm>0.00</rpm>
</extensions>
</trkpt>
<trkpt lat="64.211296082" lon="-20.838859558">
<ele>207.492188</ele>
<time>2012-07-19T15:01:01Z</time>
<speed>4.050000</speed>
<extensions>
<speed>4.0</speed>
<temp>0.00</temp>
<bpm>0</bpm>
<rpm>0.00</rpm>
</extensions>
</trkpt>
<trkpt lat="64.211303711" lon="-20.838428497">
<ele>207.640625</ele>
<time>2012-07-19T15:01:06Z</time>
<speed>4.220000</speed>
<extensions>
<speed>4.2</speed>
<temp>0.00</temp>
<bpm>0</bpm>
<rpm>0.00</rpm>
</extensions>
</trkpt>
<trkpt lat="64.211303711" lon="-20.837991714">
<ele>207.640625</ele>
<time>2012-07-19T15:01:11Z</time>
<speed>4.190000</speed>
<extensions>
<speed>4.2</speed>
<temp>0.00</temp>
<bpm>0</bpm>
<rpm>0.00</rpm>
</extensions>
</trkpt>
<trkpt lat="64.211296082" lon="-20.837541580">
<ele>208.414063</ele>
<time>2012-07-19T15:01:16Z</time>
<speed>4.290000</speed>
<extensions>
<speed>4.3</speed>
<temp>0.00</temp>
<bpm>0</bpm>
<rpm>0.00</rpm>
</extensions>
</trkpt>
<trkpt lat="64.211296082" lon="-20.837114334">
<ele>208.570313</ele>
<time>2012-07-19T15:01:21Z</time>
<speed>3.790000</speed>
<extensions>
<speed>3.8</speed>
<temp>0.00</temp>
<bpm>0</bpm>
<rpm>0.00</rpm>
</extensions>
</trkpt>
<trkpt lat="64.211280823" lon="-20.836776733">
<ele>209.167969</ele>
<time>2012-07-19T15:01:26Z</time>
<speed>3.390000</speed>
<extensions>
<speed>3.4</speed>
<temp>0.00</temp>
<bpm>0</bpm>
<rpm>0.00</rpm>
</extensions>
</trkpt>
<trkpt lat="64.211280823" lon="-20.836402893">
<ele>210.222656</ele>
<time>2012-07-19T15:01:31Z</time>
<speed>3.570000</speed>
<extensions>
<speed>3.6</speed>
<temp>0.00</temp>
<bpm>0</bpm>
<rpm>0.00</rpm>
</extensions>
</trkpt>
<trkpt lat="64.211280823" lon="-20.836025238">
<ele>211.578125</ele>
<time>2012-07-19T15:01:36Z</time>
<speed>3.350000</speed>
<extensions>
<speed>3.4</speed>
<temp>0.00</temp>
<bpm>0</bpm>
<rpm>0.00</rpm>
</extensions>
</trkpt>
<trkpt lat="64.211273193" lon="-20.835706711">
<ele>210.457031</ele>
<time>2012-07-19T15:01:41Z</time>
<speed>3.500000</speed>
<extensions>
<speed>3.5</speed>
<temp>0.00</temp>
<bpm>0</bpm>
<rpm>0.00</rpm>
</extensions>
</trkpt>
<trkpt lat="64.211273193" lon="-20.835338593">
<ele>211.226563</ele>
<time>2012-07-19T15:01:46Z</time>
<speed>3.670000</speed>
<extensions>
<speed>3.7</speed>
<temp>0.00</temp>
<bpm>0</bpm>
<rpm>0.00</rpm>
</extensions>
</trkpt>
<trkpt lat="64.211265564" lon="-20.834960938">
<ele>210.437500</ele>
<time>2012-07-19T15:01:51Z</time>
<speed>3.430000</speed>
<extensions>
<speed>3.4</speed>
<temp>0.00</temp>
<bpm>0</bpm>
<rpm>0.00</rpm>
</extensions>
</trkpt>
<trkpt lat="64.211273193" lon="-20.834621429">
<ele>210.945313</ele>
<time>2012-07-19T15:01:56Z</time>
<speed>3.160000</speed>
<extensions>
<speed>3.2</speed>
<temp>0.00</temp>
<bpm>0</bpm>
<rpm>0.00</rpm>
</extensions>
</trkpt>
<trkpt lat="64.211280823" lon="-20.834323883">
<ele>210.683594</ele>
<time>2012-07-19T15:02:01Z</time>
<speed>2.340000</speed>
<extensions>
<speed>2.3</speed>
<temp>0.00</temp>
<bpm>0</bpm>
<rpm>0.00</rpm>
</extensions>
</trkpt>
<trkpt lat="64.211288452" lon="-20.834106445">
<ele>210.433594</ele>
<time>2012-07-19T15:02:06Z</time>
<speed>2.530000</speed>
<extensions>
<speed>2.5</speed>
<temp>0.00</temp>
<bpm>0</bpm>
<rpm>0.00</rpm>
</extensions>
</trkpt>
<trkpt lat="64.211303711" lon="-20.833835602">
<ele>210.152344</ele>
<time>2012-07-19T15:02:11Z</time>
<speed>2.640000</speed>
<extensions>
<speed>2.6</speed>
<temp>0.00</temp>
<bpm>0</bpm>
<rpm>0.00</rpm>
</extensions>
</trkpt>
<trkpt lat="64.211334229" lon="-20.833534241">
<ele>211.078125</ele>
<time>2012-07-19T15:02:16Z</time>
<speed>2.990000</speed>
<extensions>
<speed>3.0</speed>
<temp>0.00</temp>
<bpm>0</bpm>
<rpm>0.00</rpm>
</extensions>
</trkpt>
<trkpt lat="64.211357117" lon="-20.833240509">
<ele>211.996094</ele>
<time>2012-07-19T15:02:21Z</time>
<speed>2.790000</speed>
<extensions>
<speed>2.8</speed>
<temp>0.00</temp>
<bpm>0</bpm>
<rpm>0.00</rpm>
</extensions>
</trkpt>
<trkpt lat="64.211395264" lon="-20.832977295">
<ele>212.882813</ele>
<time>2012-07-19T15:02:26Z</time>
<speed>2.850000</speed>
<extensions>
<speed>2.9</speed>
<temp>0.00</temp>
<bpm>0</bpm>
<rpm>0.00</rpm>
</extensions>
</trkpt>
<trkpt lat="64.211418152" lon="-20.832717896">
<ele>212.957031</ele>
<time>2012-07-19T15:02:31Z</time>
<speed>2.850000</speed>
<extensions>
<speed>2.9</speed>
<temp>0.00</temp>
<bpm>0</bpm>
<rpm>0.00</rpm>
</extensions>
</trkpt>
<trkpt lat="64.211441040" lon="-20.832414627">
<ele>212.261719</ele>
<time>2012-07-19T15:02:36Z</time>
<speed>3.120000</speed>
<extensions>
<speed>3.1</speed>
<temp>0.00</temp>
<bpm>0</bpm>
<rpm>0.00</rpm>
</extensions>
</trkpt>
<trkpt lat="64.211463928" lon="-20.832084656">
<ele>211.953125</ele>
<time>2012-07-19T15:02:41Z</time>
<speed>3.270000</speed>
<extensions>
<speed>3.3</speed>
<temp>0.00</temp>
<bpm>0</bpm>
<rpm>0.00</rpm>
</extensions>
</trkpt>
<trkpt lat="64.211463928" lon="-20.831741333">
<ele>211.140625</ele>
<time>2012-07-19T15:02:46Z</time>
<speed>3.040000</speed>
<extensions>
<speed>3.0</speed>
<temp>0.00</temp>
<bpm>0</bpm>
<rpm>0.00</rpm>
</extensions>
</trkpt>
<trkpt lat="64.211463928" lon="-20.831501007">
<ele>210.421875</ele>
<time>2012-07-19T15:02:51Z</time>
<speed>2.490000</speed>
<extensions>
<speed>2.5</speed>
<temp>0.00</temp>
<bpm>0</bpm>
<rpm>0.00</rpm>
</extensions>
</trkpt>
<trkpt lat="64.211463928" lon="-20.831163406">
<ele>211.125000</ele>
<time>2012-07-19T15:02:56Z</time>
<speed>3.630000</speed>
<extensions>
<speed>3.6</speed>
<temp>0.00</temp>
<bpm>0</bpm>
<rpm>0.00</rpm>
</extensions>
</trkpt>
<trkpt lat="64.211456299" lon="-20.830785751">
<ele>211.234375</ele>
<time>2012-07-19T15:03:01Z</time>
<speed>4.060000</speed>
<extensions>
<speed>4.1</speed>
<temp>0.00</temp>
<bpm>0</bpm>
<rpm>0.00</rpm>
</extensions>
</trkpt>
<trkpt lat="64.211463928" lon="-20.830312729">
<ele>212.140625</ele>
<time>2012-07-19T15:03:06Z</time>
<speed>5.080000</speed>
<extensions>
<speed>5.1</speed>
<temp>0.00</temp>
<bpm>0</bpm>
<rpm>0.00</rpm>
</extensions>
</trkpt>
<trkpt lat="64.211502075" lon="-20.829757690">
<ele>212.820313</ele>
<time>2012-07-19T15:03:11Z</time>
<speed>4.900000</speed>
<extensions>
<speed>4.9</speed>
<temp>0.00</temp>
<bpm>0</bpm>
<rpm>0.00</rpm>
</extensions>
</trkpt>
<trkpt lat="64.211555481" lon="-20.829311371">
<ele>213.066406</ele>
<time>2012-07-19T15:03:16Z</time>
<speed>4.410000</speed>
<extensions>
<speed>4.4</speed>
<temp>0.00</temp>
<bpm>0</bpm>
<rpm>0.00</rpm>
</extensions>
</trkpt>
<trkpt lat="64.211616516" lon="-20.828880310">
<ele>213.386719</ele>
<time>2012-07-19T15:03:21Z</time>
<speed>4.060000</speed>
<extensions>
<speed>4.1</speed>
<temp>0.00</temp>
<bpm>0</bpm>
<rpm>0.00</rpm>
</extensions>
</trkpt>
<trkpt lat="64.211639404" lon="-20.828483582">
<ele>214.816406</ele>
<time>2012-07-19T15:03:26Z</time>
<speed>3.710000</speed>
<extensions>
<speed>3.7</speed>
<temp>0.00</temp>
<bpm>0</bpm>
<rpm>0.00</rpm>
</extensions>
</trkpt>
<trkpt lat="64.211647034" lon="-20.828104019">
<ele>214.246094</ele>
<time>2012-07-19T15:03:31Z</time>
<speed>3.780000</speed>
<extensions>
<speed>3.8</speed>
<temp>0.00</temp>
<bpm>0</bpm>
<rpm>0.00</rpm>
</extensions>
</trkpt>
<trkpt lat="64.211631775" lon="-20.827728271">
<ele>214.078125</ele>
<time>2012-07-19T15:03:36Z</time>
<speed>4.180000</speed>
<extensions>
<speed>4.2</speed>
<temp>0.00</temp>
<bpm>0</bpm>
<rpm>0.00</rpm>
</extensions>
</trkpt>
<trkpt lat="64.211631775" lon="-20.827293396">
<ele>214.062500</ele>
<time>2012-07-19T15:03:41Z</time>
<speed>4.260000</speed>
<extensions>
<speed>4.3</speed>
<temp>0.00</temp>
<bpm>0</bpm>
<rpm>0.00</rpm>
</extensions>
</trkpt>
<trkpt lat="64.211631775" lon="-20.826879501">
<ele>214.542969</ele>
<time>2012-07-19T15:03:46Z</time>
<speed>3.940000</speed>
<extensions>
<speed>3.9</speed>
<temp>0.00</temp>
<bpm>0</bpm>
<rpm>0.00</rpm>
</extensions>
</trkpt>
<trkpt lat="64.211631775" lon="-20.826515198">
<ele>214.843750</ele>
<time>2012-07-19T15:03:51Z</time>
<speed>3.520000</speed>
<extensions>
<speed>3.5</speed>
<temp>0.00</temp>
<bpm>0</bpm>
<rpm>0.00</rpm>
</extensions>
</trkpt>
<trkpt lat="64.211631775" lon="-20.826160431">
<ele>214.656250</ele>
<time>2012-07-19T15:03:56Z</time>
<speed>3.510000</speed>
<extensions>
<speed>3.5</speed>
<temp>0.00</temp>
<bpm>0</bpm>
<rpm>0.00</rpm>
</extensions>
</trkpt>
<trkpt lat="64.211631775" lon="-20.825817108">
<ele>215.367188</ele>
<time>2012-07-19T15:04:01Z</time>
<speed>3.370000</speed>
<extensions>
<speed>3.4</speed>
<temp>0.00</temp>
<bpm>0</bpm>
<rpm>0.00</rpm>
</extensions>
</trkpt>
<trkpt lat="64.211639404" lon="-20.825515747">
<ele>215.593750</ele>
<time>2012-07-19T15:04:06Z</time>
<speed>2.180000</speed>
<extensions>
<speed>2.2</speed>
<temp>0.00</temp>
<bpm>0</bpm>
<rpm>0.00</rpm>
</extensions>
</trkpt>
<trkpt lat="64.211654663" lon="-20.825271606">
<ele>218.496094</ele>
<time>2012-07-19T15:04:11Z</time>
<speed>2.300000</speed>
<extensions>
<speed>2.3</speed>
<temp>0.00</temp>
<bpm>0</bpm>
<rpm>0.00</rpm>
</extensions>
</trkpt>
<trkpt lat="64.211654663" lon="-20.825025558">
<ele>219.820313</ele>
<time>2012-07-19T15:04:16Z</time>
<speed>2.410000</speed>
<extensions>
<speed>2.4</speed>
<temp>0.00</temp>
<bpm>0</bpm>
<rpm>0.00</rpm>
</extensions>
</trkpt>
<trkpt lat="64.211647034" lon="-20.824796677">
<ele>219.878906</ele>
<time>2012-07-19T15:04:21Z</time>
<speed>2.010000</speed>
<extensions>
<speed>2.0</speed>
<temp>0.00</temp>
<bpm>0</bpm>
<rpm>0.00</rpm>
</extensions>
</trkpt>
<trkpt lat="64.211669922" lon="-20.824562073">
<ele>221.027344</ele>
<time>2012-07-19T15:04:26Z</time>
<speed>2.410000</speed>
<extensions>
<speed>2.4</speed>
<temp>0.00</temp>
<bpm>0</bpm>
<rpm>0.00</rpm>
</extensions>
</trkpt>
<trkpt lat="64.211662292" lon="-20.824323654">
<ele>220.949219</ele>
<time>2012-07-19T15:04:31Z</time>
<speed>2.390000</speed>
<extensions>
<speed>2.4</speed>
<temp>0.00</temp>
<bpm>0</bpm>
<rpm>0.00</rpm>
</extensions>
</trkpt>
<trkpt lat="64.211662292" lon="-20.824094772">
<ele>220.953125</ele>
<time>2012-07-19T15:04:36Z</time>
<speed>2.030000</speed>
<extensions>
<speed>2.0</speed>
<temp>0.00</temp>
<bpm>0</bpm>
<rpm>0.00</rpm>
</extensions>
</trkpt>
<trkpt lat="64.211662292" lon="-20.823860168">
<ele>222.031250</ele>
<time>2012-07-19T15:04:41Z</time>
<speed>2.100000</speed>
<extensions>
<speed>2.1</speed>
<temp>0.00</temp>
<bpm>0</bpm>
<rpm>0.00</rpm>
</extensions>
</trkpt>
<trkpt lat="64.211677551" lon="-20.823606491">
<ele>222.070313</ele>
<time>2012-07-19T15:04:46Z</time>
<speed>2.520000</speed>
<extensions>
<speed>2.5</speed>
<temp>0.00</temp>
<bpm>0</bpm>
<rpm>0.00</rpm>
</extensions>
</trkpt>
<trkpt lat="64.211708069" lon="-20.823379517">
<ele>221.562500</ele>
<time>2012-07-19T15:04:51Z</time>
<speed>2.830000</speed>
<extensions>
<speed>2.8</speed>
<temp>0.00</temp>
<bpm>0</bpm>
<rpm>0.00</rpm>
</extensions>
</trkpt>
<trkpt lat="64.211746216" lon="-20.823102951">
<ele>222.085938</ele>
<time>2012-07-19T15:04:56Z</time>
<speed>2.830000</speed>
<extensions>
<speed>2.8</speed>
<temp>0.00</temp>
<bpm>0</bpm>
<rpm>0.00</rpm>
</extensions>
</trkpt>
<trkpt lat="64.211807251" lon="-20.822845459">
<ele>222.875000</ele>
<time>2012-07-19T15:05:01Z</time>
<speed>2.970000</speed>
<extensions>
<speed>3.0</speed>
<temp>0.00</temp>
<bpm>0</bpm>
<rpm>0.00</rpm>
</extensions>
</trkpt>
<trkpt lat="64.211875916" lon="-20.822582245">
<ele>224.039063</ele>
<time>2012-07-19T15:05:06Z</time>
<speed>2.940000</speed>
<extensions>
<speed>2.9</speed>
<temp>0.00</temp>
<bpm>0</bpm>
<rpm>0.00</rpm>
</extensions>
</trkpt>
<trkpt lat="64.211936951" lon="-20.822324753">
<ele>224.585938</ele>
<time>2012-07-19T15:05:11Z</time>
<speed>2.730000</speed>
<extensions>
<speed>2.7</speed>
<temp>0.00</temp>
<bpm>0</bpm>
<rpm>0.00</rpm>
</extensions>
</trkpt>
<trkpt lat="64.211982727" lon="-20.822095871">
<ele>224.566406</ele>
<time>2012-07-19T15:05:16Z</time>
<speed>2.240000</speed>
<extensions>
<speed>2.2</speed>
<temp>0.00</temp>
<bpm>0</bpm>
<rpm>0.00</rpm>
</extensions>
</trkpt>
<trkpt lat="64.212020874" lon="-20.821830750">
<ele>224.812500</ele>
<time>2012-07-19T15:05:21Z</time>
<speed>3.080000</speed>
<extensions>
<speed>3.1</speed>
<temp>0.00</temp>
<bpm>0</bpm>
<rpm>0.00</rpm>
</extensions>
</trkpt>
<trkpt lat="64.212066650" lon="-20.821508408">
<ele>224.964844</ele>
<time>2012-07-19T15:05:26Z</time>
<speed>3.670000</speed>
<extensions>
<speed>3.7</speed>
<temp>0.00</temp>
<bpm>0</bpm>
<rpm>0.00</rpm>
</extensions>
</trkpt>
<trkpt lat="64.212120056" lon="-20.821138382">
<ele>224.464844</ele>
<time>2012-07-19T15:05:31Z</time>
<speed>3.940000</speed>
<extensions>
<speed>3.9</speed>
<temp>0.00</temp>
<bpm>0</bpm>
<rpm>0.00</rpm>
</extensions>
</trkpt>
<trkpt lat="64.212165833" lon="-20.820756912">
<ele>224.242188</ele>
<time>2012-07-19T15:05:36Z</time>
<speed>3.740000</speed>
<extensions>
<speed>3.7</speed>
<temp>0.00</temp>
<bpm>0</bpm>
<rpm>0.00</rpm>
</extensions>
</trkpt>
<trkpt lat="64.212211609" lon="-20.820379257">
<ele>224.257813</ele>
<time>2012-07-19T15:05:41Z</time>
<speed>3.650000</speed>
<extensions>
<speed>3.7</speed>
<temp>0.00</temp>
<bpm>0</bpm>
<rpm>0.00</rpm>
</extensions>
</trkpt>
<trkpt lat="64.212242126" lon="-20.819993973">
<ele>224.781250</ele>
<time>2012-07-19T15:05:46Z</time>
<speed>3.820000</speed>
<extensions>
<speed>3.8</speed>
<temp>0.00</temp>
<bpm>0</bpm>
<rpm>0.00</rpm>
</extensions>
</trkpt>
<trkpt lat="64.212280273" lon="-20.819601059">
<ele>224.906250</ele>
<time>2012-07-19T15:05:51Z</time>
<speed>3.680000</speed>
<extensions>
<speed>3.7</speed>
<temp>0.00</temp>
<bpm>0</bpm>
<rpm>0.00</rpm>
</extensions>
</trkpt>
<trkpt lat="64.212310791" lon="-20.819229126">
<ele>225.417969</ele>
<time>2012-07-19T15:05:56Z</time>
<speed>3.060000</speed>
<extensions>
<speed>3.1</speed>
<temp>0.00</temp>
<bpm>0</bpm>
<rpm>0.00</rpm>
</extensions>
</trkpt>
<trkpt lat="64.212318420" lon="-20.818904877">
<ele>226.273438</ele>
<time>2012-07-19T15:06:01Z</time>
<speed>3.270000</speed>
<extensions>
<speed>3.3</speed>
<temp>0.00</temp>
<bpm>0</bpm>
<rpm>0.00</rpm>
</extensions>
</trkpt>
<trkpt lat="64.212333679" lon="-20.818550110">
<ele>226.597656</ele>
<time>2012-07-19T15:06:06Z</time>
<speed>3.360000</speed>
<extensions>
<speed>3.4</speed>
<temp>0.00</temp>
<bpm>0</bpm>
<rpm>0.00</rpm>
</extensions>
</trkpt>
<trkpt lat="64.212348938" lon="-20.818201065">
<ele>226.679688</ele>
<time>2012-07-19T15:06:11Z</time>
<speed>3.170000</speed>
<extensions>
<speed>3.2</speed>
<temp>0.00</temp>
<bpm>0</bpm>
<rpm>0.00</rpm>
</extensions>
</trkpt>
<trkpt lat="64.212356567" lon="-20.817863464">
<ele>227.878906</ele>
<time>2012-07-19T15:06:16Z</time>
<speed>3.270000</speed>
<extensions>
<speed>3.3</speed>
<temp>0.00</temp>
<bpm>0</bpm>
<rpm>0.00</rpm>
</extensions>
</trkpt>
<trkpt lat="64.212364197" lon="-20.817533493">
<ele>228.242188</ele>
<time>2012-07-19T15:06:21Z</time>
<speed>3.290000</speed>
<extensions>
<speed>3.3</speed>
<temp>0.00</temp>
<bpm>0</bpm>
<rpm>0.00</rpm>
</extensions>
</trkpt>
<trkpt lat="64.212364197" lon="-20.817228317">
<ele>227.390625</ele>
<time>2012-07-19T15:06:26Z</time>
<speed>2.990000</speed>
<extensions>
<speed>3.0</speed>
<temp>0.00</temp>
<bpm>0</bpm>
<rpm>0.00</rpm>
</extensions>
</trkpt>
<trkpt lat="64.212371826" lon="-20.816944122">
<ele>228.269531</ele>
<time>2012-07-19T15:06:31Z</time>
<speed>2.390000</speed>
<extensions>
<speed>2.4</speed>
<temp>0.00</temp>
<bpm>0</bpm>
<rpm>0.00</rpm>
</extensions>
</trkpt>
<trkpt lat="64.212371826" lon="-20.816688538">
<ele>228.281250</ele>
<time>2012-07-19T15:06:36Z</time>
<speed>2.750000</speed>
<extensions>
<speed>2.7</speed>
<temp>0.00</temp>
<bpm>0</bpm>
<rpm>0.00</rpm>
</extensions>
</trkpt>
<trkpt lat="64.212379456" lon="-20.816398621">
<ele>227.589844</ele>
<time>2012-07-19T15:06:41Z</time>
<speed>3.160000</speed>
<extensions>
<speed>3.2</speed>
<temp>0.00</temp>
<bpm>0</bpm>
<rpm>0.00</rpm>
</extensions>
</trkpt>
<trkpt lat="64.212394714" lon="-20.816053391">
<ele>227.234375</ele>
<time>2012-07-19T15:06:46Z</time>
<speed>3.380000</speed>
<extensions>
<speed>3.4</speed>
<temp>0.00</temp>
<bpm>0</bpm>
<rpm>0.00</rpm>
</extensions>
</trkpt>
<trkpt lat="64.212394714" lon="-20.815710068">
<ele>228.265625</ele>
<time>2012-07-19T15:06:51Z</time>
<speed>3.380000</speed>
<extensions>
<speed>3.4</speed>
<temp>0.00</temp>
<bpm>0</bpm>
<rpm>0.00</rpm>
</extensions>
</trkpt>
<trkpt lat="64.212387085" lon="-20.815382004">
<ele>228.449219</ele>
<time>2012-07-19T15:06:56Z</time>
<speed>3.350000</speed>
<extensions>
<speed>3.4</speed>
<temp>0.00</temp>
<bpm>0</bpm>
<rpm>0.00</rpm>
</extensions>
</trkpt>
<trkpt lat="64.212387085" lon="-20.815052032">
<ele>228.968750</ele>
<time>2012-07-19T15:07:01Z</time>
<speed>3.280000</speed>
<extensions>
<speed>3.3</speed>
<temp>0.00</temp>
<bpm>0</bpm>
<rpm>0.00</rpm>
</extensions>
</trkpt>
<trkpt lat="64.212387085" lon="-20.814691544">
<ele>230.484375</ele>
<time>2012-07-19T15:07:06Z</time>
<speed>3.590000</speed>
<extensions>
<speed>3.6</speed>
<temp>0.00</temp>
<bpm>0</bpm>
<rpm>0.00</rpm>
</extensions>
</trkpt>
<trkpt lat="64.212387085" lon="-20.814317703">
<ele>233.800781</ele>
<time>2012-07-19T15:07:11Z</time>
<speed>3.680000</speed>
<extensions>
<speed>3.7</speed>
<temp>0.00</temp>
<bpm>0</bpm>
<rpm>0.00</rpm>
</extensions>
</trkpt>
<trkpt lat="64.212379456" lon="-20.813924789">
<ele>234.433594</ele>
<time>2012-07-19T15:07:16Z</time>
<speed>3.670000</speed>
<extensions>
<speed>3.7</speed>
<temp>0.00</temp>
<bpm>0</bpm>
<rpm>0.00</rpm>
</extensions>
</trkpt>
<trkpt lat="64.212356567" lon="-20.813547134">
<ele>235.218750</ele>
<time>2012-07-19T15:07:21Z</time>
<speed>3.430000</speed>
<extensions>
<speed>3.4</speed>
<temp>0.00</temp>
<bpm>0</bpm>
<rpm>0.00</rpm>
</extensions>
</trkpt>
<trkpt lat="64.212318420" lon="-20.813188553">
<ele>235.894531</ele>
<time>2012-07-19T15:07:26Z</time>
<speed>3.360000</speed>
<extensions>
<speed>3.4</speed>
<temp>0.00</temp>
<bpm>0</bpm>
<rpm>0.00</rpm>
</extensions>
</trkpt>
<trkpt lat="64.212295532" lon="-20.812868118">
<ele>234.152344</ele>
<time>2012-07-19T15:07:31Z</time>
<speed>3.510000</speed>
<extensions>
<speed>3.5</speed>
<temp>0.00</temp>
<bpm>0</bpm>
<rpm>0.00</rpm>
</extensions>
</trkpt>
<trkpt lat="64.212257385" lon="-20.812513351">
<ele>233.335938</ele>
<time>2012-07-19T15:07:36Z</time>
<speed>3.660000</speed>
<extensions>
<speed>3.7</speed>
<temp>0.00</temp>
<bpm>0</bpm>
<rpm>0.00</rpm>
</extensions>
</trkpt>
<trkpt lat="64.212226868" lon="-20.812158585">
<ele>232.347656</ele>
<time>2012-07-19T15:07:41Z</time>
<speed>3.390000</speed>
<extensions>
<speed>3.4</speed>
<temp>0.00</temp>
<bpm>0</bpm>
<rpm>0.00</rpm>
</extensions>
</trkpt>
<trkpt lat="64.212203979" lon="-20.811843872">
<ele>232.214844</ele>
<time>2012-07-19T15:07:46Z</time>
<speed>2.670000</speed>
<extensions>
<speed>2.7</speed>
<temp>0.00</temp>
<bpm>0</bpm>
<rpm>0.00</rpm>
</extensions>
</trkpt>
<trkpt lat="64.212188721" lon="-20.811578751">
<ele>231.851563</ele>
<time>2012-07-19T15:07:51Z</time>
<speed>2.670000</speed>
<extensions>
<speed>2.7</speed>
<temp>0.00</temp>
<bpm>0</bpm>
<rpm>0.00</rpm>
</extensions>
</trkpt>
<trkpt lat="64.212173462" lon="-20.811286926">
<ele>231.406250</ele>
<time>2012-07-19T15:07:56Z</time>
<speed>2.640000</speed>
<extensions>
<speed>2.6</speed>
<temp>0.00</temp>
<bpm>0</bpm>
<rpm>0.00</rpm>
</extensions>
</trkpt>
<trkpt lat="64.212173462" lon="-20.811056137">
<ele>231.425781</ele>
<time>2012-07-19T15:08:01Z</time>
<speed>1.910000</speed>
<extensions>
<speed>1.9</speed>
<temp>0.00</temp>
<bpm>0</bpm>
<rpm>0.00</rpm>
</extensions>
</trkpt>
<trkpt lat="64.212173462" lon="-20.810874939">
<ele>230.773438</ele>
<time>2012-07-19T15:08:06Z</time>
<speed>1.770000</speed>
<extensions>
<speed>1.8</speed>
<temp>0.00</temp>
<bpm>0</bpm>
<rpm>0.00</rpm>
</extensions>
</trkpt>
<trkpt lat="64.212165833" lon="-20.810707092">
<ele>230.496094</ele>
<time>2012-07-19T15:08:11Z</time>
<speed>2.030000</speed>
<extensions>
<speed>2.0</speed>
<temp>0.00</temp>
<bpm>0</bpm>
<rpm>0.00</rpm>
</extensions>
</trkpt>
<trkpt lat="64.212173462" lon="-20.810499191">
<ele>229.609375</ele>
<time>2012-07-19T15:08:16Z</time>
<speed>1.920000</speed>
<extensions>
<speed>1.9</speed>
<temp>0.00</temp>
<bpm>0</bpm>
<rpm>0.00</rpm>
</extensions>
</trkpt>
<trkpt lat="64.212188721" lon="-20.810287476">
<ele>229.199219</ele>
<time>2012-07-19T15:08:21Z</time>
<speed>2.060000</speed>
<extensions>
<speed>2.1</speed>
<temp>0.00</temp>
<bpm>0</bpm>
<rpm>0.00</rpm>
</extensions>
</trkpt>
<trkpt lat="64.212196350" lon="-20.810104370">
<ele>229.464844</ele>
<time>2012-07-19T15:08:26Z</time>
<speed>1.660000</speed>
<extensions>
<speed>1.7</speed>
<temp>0.00</temp>
<bpm>0</bpm>
<rpm>0.00</rpm>
</extensions>
</trkpt>
<trkpt lat="64.212219238" lon="-20.809930801">
<ele>230.636719</ele>
<time>2012-07-19T15:08:31Z</time>
<speed>1.700000</speed>
<extensions>
<speed>1.7</speed>
<temp>0.00</temp>
<bpm>0</bpm>
<rpm>0.00</rpm>
</extensions>
</trkpt>
<trkpt lat="64.212242126" lon="-20.809761047">
<ele>231.523438</ele>
<time>2012-07-19T15:08:36Z</time>
<speed>2.030000</speed>
<extensions>
<speed>2.0</speed>
<temp>0.00</temp>
<bpm>0</bpm>
<rpm>0.00</rpm>
</extensions>
</trkpt>
<trkpt lat="64.212257385" lon="-20.809528351">
<ele>232.839844</ele>
<time>2012-07-19T15:08:41Z</time>
<speed>2.360000</speed>
<extensions>
<speed>2.4</speed>
<temp>0.00</temp>
<bpm>0</bpm>
<rpm>0.00</rpm>
</extensions>
</trkpt>
<trkpt lat="64.212280273" lon="-20.809280396">
<ele>233.781250</ele>
<time>2012-07-19T15:08:46Z</time>
<speed>2.130000</speed>
<extensions>
<speed>2.1</speed>
<temp>0.00</temp>
<bpm>0</bpm>
<rpm>0.00</rpm>
</extensions>
</trkpt>
<trkpt lat="64.212280273" lon="-20.809099197">
<ele>234.882813</ele>
<time>2012-07-19T15:08:51Z</time>
<speed>1.970000</speed>
<extensions>
<speed>2.0</speed>
<temp>0.00</temp>
<bpm>0</bpm>
<rpm>0.00</rpm>
</extensions>
</trkpt>
<trkpt lat="64.212280273" lon="-20.808860779">
<ele>236.011719</ele>
<time>2012-07-19T15:08:56Z</time>
<speed>2.280000</speed>
<extensions>
<speed>2.3</speed>
<temp>0.00</temp>
<bpm>0</bpm>
<rpm>0.00</rpm>
</extensions>
</trkpt>
<trkpt lat="64.212280273" lon="-20.808666229">
<ele>236.515625</ele>
<time>2012-07-19T15:09:01Z</time>
<speed>1.860000</speed>
<extensions>
<speed>1.9</speed>
<temp>0.00</temp>
<bpm>0</bpm>
<rpm>0.00</rpm>
</extensions>
</trkpt>
<trkpt lat="64.212280273" lon="-20.808450699">
<ele>237.316406</ele>
<time>2012-07-19T15:09:06Z</time>
<speed>2.090000</speed>
<extensions>
<speed>2.1</speed>
<temp>0.00</temp>
<bpm>0</bpm>
<rpm>0.00</rpm>
</extensions>
</trkpt>
<trkpt lat="64.212287903" lon="-20.808296204">
<ele>238.015625</ele>
<time>2012-07-19T15:09:11Z</time>
<speed>1.740000</speed>
<extensions>
<speed>1.7</speed>
<temp>0.00</temp>
<bpm>0</bpm>
<rpm>0.00</rpm>
</extensions>
</trkpt>
<trkpt lat="64.212287903" lon="-20.808105469">
<ele>238.878906</ele>
<time>2012-07-19T15:09:16Z</time>
<speed>1.690000</speed>
<extensions>
<speed>1.7</speed>
<temp>0.00</temp>
<bpm>0</bpm>
<rpm>0.00</rpm>
</extensions>
</trkpt>
<trkpt lat="64.212287903" lon="-20.807901382">
<ele>239.917969</ele>
<time>2012-07-19T15:09:21Z</time>
<speed>1.980000</speed>
<extensions>
<speed>2.0</speed>
<temp>0.00</temp>
<bpm>0</bpm>
<rpm>0.00</rpm>
</extensions>
</trkpt>
<trkpt lat="64.212272644" lon="-20.807701111">
<ele>240.648438</ele>
<time>2012-07-19T15:09:26Z</time>
<speed>1.810000</speed>
<extensions>
<speed>1.8</speed>
<temp>0.00</temp>
<bpm>0</bpm>
<rpm>0.00</rpm>
</extensions>
</trkpt>
<trkpt lat="64.212280273" lon="-20.807521820">
<ele>240.671875</ele>
<time>2012-07-19T15:09:31Z</time>
<speed>1.940000</speed>
<extensions>
<speed>1.9</speed>
<temp>0.00</temp>
<bpm>0</bpm>
<rpm>0.00</rpm>
</extensions>
</trkpt>
<trkpt lat="64.212280273" lon="-20.807323456">
<ele>241.171875</ele>
<time>2012-07-19T15:09:36Z</time>
<speed>2.310000</speed>
<extensions>
<speed>2.3</speed>
<temp>0.00</temp>
<bpm>0</bpm>
<rpm>0.00</rpm>
</extensions>
</trkpt>
<trkpt lat="64.212280273" lon="-20.807106018">
<ele>241.519531</ele>
<time>2012-07-19T15:09:41Z</time>
<speed>2.250000</speed>
<extensions>
<speed>2.3</speed>
<temp>0.00</temp>
<bpm>0</bpm>
<rpm>0.00</rpm>
</extensions>
</trkpt>
<trkpt lat="64.212272644" lon="-20.806854248">
<ele>241.898438</ele>
<time>2012-07-19T15:09:46Z</time>
<speed>2.440000</speed>
<extensions>
<speed>2.4</speed>
<temp>0.00</temp>
<bpm>0</bpm>
<rpm>0.00</rpm>
</extensions>
</trkpt>
<trkpt lat="64.212257385" lon="-20.806585312">
<ele>243.695313</ele>
<time>2012-07-19T15:09:51Z</time>
<speed>2.540000</speed>
<extensions>
<speed>2.5</speed>
<temp>0.00</temp>
<bpm>0</bpm>
<rpm>0.00</rpm>
</extensions>
</trkpt>
<trkpt lat="64.212234497" lon="-20.806310654">
<ele>245.195313</ele>
<time>2012-07-19T15:09:56Z</time>
<speed>2.650000</speed>
<extensions>
<speed>2.6</speed>
<temp>0.00</temp>
<bpm>0</bpm>
<rpm>0.00</rpm>
</extensions>
</trkpt>
<trkpt lat="64.212219238" lon="-20.806039810">
<ele>246.699219</ele>
<time>2012-07-19T15:10:01Z</time>
<speed>2.070000</speed>
<extensions>
<speed>2.1</speed>
<temp>0.00</temp>
<bpm>0</bpm>
<rpm>0.00</rpm>
</extensions>
</trkpt>
<trkpt lat="64.212196350" lon="-20.805803299">
<ele>247.957031</ele>
<time>2012-07-19T15:10:06Z</time>
<speed>2.620000</speed>
<extensions>
<speed>2.6</speed>
<temp>0.00</temp>
<bpm>0</bpm>
<rpm>0.00</rpm>
</extensions>
</trkpt>
<trkpt lat="64.212165833" lon="-20.805515289">
<ele>248.929688</ele>
<time>2012-07-19T15:10:11Z</time>
<speed>3.030000</speed>
<extensions>
<speed>3.0</speed>
<temp>0.00</temp>
<bpm>0</bpm>
<rpm>0.00</rpm>
</extensions>
</trkpt>
<trkpt lat="64.212127686" lon="-20.805227280">
<ele>249.250000</ele>
<time>2012-07-19T15:10:16Z</time>
<speed>3.130000</speed>
<extensions>
<speed>3.1</speed>
<temp>0.00</temp>
<bpm>0</bpm>
<rpm>0.00</rpm>
</extensions>
</trkpt>
<trkpt lat="64.212104797" lon="-20.804891586">
<ele>250.371094</ele>
<time>2012-07-19T15:10:21Z</time>
<speed>3.430000</speed>
<extensions>
<speed>3.4</speed>
<temp>0.00</temp>
<bpm>0</bpm>
<rpm>0.00</rpm>
</extensions>
</trkpt>
<trkpt lat="64.212074280" lon="-20.804527283">
<ele>251.789063</ele>
<time>2012-07-19T15:10:26Z</time>
<speed>3.620000</speed>
<extensions>
<speed>3.6</speed>
<temp>0.00</temp>
<bpm>0</bpm>
<rpm>0.00</rpm>
</extensions>
</trkpt>
<trkpt lat="64.212036133" lon="-20.804159164">
<ele>252.425781</ele>
<time>2012-07-19T15:10:31Z</time>
<speed>3.770000</speed>
<extensions>
<speed>3.8</speed>
<temp>0.00</temp>
<bpm>0</bpm>
<rpm>0.00</rpm>
</extensions>
</trkpt>
<trkpt lat="64.211997986" lon="-20.803770065">
<ele>253.238281</ele>
<time>2012-07-19T15:10:36Z</time>
<speed>3.890000</speed>
<extensions>
<speed>3.9</speed>
<temp>0.00</temp>
<bpm>0</bpm>
<rpm>0.00</rpm>
</extensions>
</trkpt>
<trkpt lat="64.211936951" lon="-20.803379059">
<ele>253.824219</ele>
<time>2012-07-19T15:10:41Z</time>
<speed>3.430000</speed>
<extensions>
<speed>3.4</speed>
<temp>0.00</temp>
<bpm>0</bpm>
<rpm>0.00</rpm>
</extensions>
</trkpt>
<trkpt lat="64.211875916" lon="-20.803062439">
<ele>254.992188</ele>
<time>2012-07-19T15:10:46Z</time>
<speed>3.770000</speed>
<extensions>
<speed>3.8</speed>
<temp>0.00</temp>
<bpm>0</bpm>
<rpm>0.00</rpm>
</extensions>
</trkpt>
<trkpt lat="64.211814880" lon="-20.802701950">
<ele>255.253906</ele>
<time>2012-07-19T15:10:51Z</time>
<speed>3.930000</speed>
<extensions>
<speed>3.9</speed>
<temp>0.00</temp>
<bpm>0</bpm>
<rpm>0.00</rpm>
</extensions>
</trkpt>
<trkpt lat="64.211738586" lon="-20.802320480">
<ele>255.667969</ele>
<time>2012-07-19T15:10:56Z</time>
<speed>4.090000</speed>
<extensions>
<speed>4.1</speed>
<temp>0.00</temp>
<bpm>0</bpm>
<rpm>0.00</rpm>
</extensions>
</trkpt>
<trkpt lat="64.211662292" lon="-20.801898956">
<ele>256.242188</ele>
<time>2012-07-19T15:11:01Z</time>
<speed>4.380000</speed>
<extensions>
<speed>4.4</speed>
<temp>0.00</temp>
<bpm>0</bpm>
<rpm>0.00</rpm>
</extensions>
</trkpt>
<trkpt lat="64.211593628" lon="-20.801509857">
<ele>255.707031</ele>
<time>2012-07-19T15:11:06Z</time>
<speed>4.180000</speed>
<extensions>
<speed>4.2</speed>
<temp>0.00</temp>
<bpm>0</bpm>
<rpm>0.00</rpm>
</extensions>
</trkpt>
<trkpt lat="64.211517334" lon="-20.801078796">
<ele>256.046875</ele>
<time>2012-07-19T15:11:11Z</time>
<speed>4.560000</speed>
<extensions>
<speed>4.6</speed>
<temp>0.00</temp>
<bpm>0</bpm>
<rpm>0.00</rpm>
</extensions>
</trkpt>
<trkpt lat="64.211433411" lon="-20.800628662">
<ele>255.500000</ele>
<time>2012-07-19T15:11:16Z</time>
<speed>4.800000</speed>
<extensions>
<speed>4.8</speed>
<temp>0.00</temp>
<bpm>0</bpm>
<rpm>0.00</rpm>
</extensions>
</trkpt>
<trkpt lat="64.211357117" lon="-20.800170898">
<ele>254.898438</ele>
<time>2012-07-19T15:11:21Z</time>
<speed>4.600000</speed>
<extensions>
<speed>4.6</speed>
<temp>0.00</temp>
<bpm>0</bpm>
<rpm>0.00</rpm>
</extensions>
</trkpt>
<trkpt lat="64.211288452" lon="-20.799776077">
<ele>255.136719</ele>
<time>2012-07-19T15:11:26Z</time>
<speed>3.580000</speed>
<extensions>
<speed>3.6</speed>
<temp>0.00</temp>
<bpm>0</bpm>
<rpm>0.00</rpm>
</extensions>
</trkpt>
<trkpt lat="64.211257935" lon="-20.799499512">
<ele>255.210938</ele>
<time>2012-07-19T15:11:31Z</time>
<speed>2.360000</speed>
<extensions>
<speed>2.4</speed>
<temp>0.00</temp>
<bpm>0</bpm>
<rpm>0.00</rpm>
</extensions>
</trkpt>
<trkpt lat="64.211235046" lon="-20.799396515">
<ele>254.558594</ele>
<time>2012-07-19T15:11:36Z</time>
<speed>0.050000</speed>
<extensions>
<speed>0.1</speed>
<temp>0.00</temp>
<bpm>0</bpm>
<rpm>0.00</rpm>
</extensions>
</trkpt>
<trkpt lat="64.211235046" lon="-20.799400330">
<ele>254.566406</ele>
<time>2012-07-19T15:11:41Z</time>
<extensions>
<speed>0.0</speed>
<temp>0.00</temp>
<bpm>0</bpm>
<rpm>0.00</rpm>
</extensions>
</trkpt>
<trkpt lat="64.211235046" lon="-20.799400330">
<ele>254.492188</ele>
<time>2012-07-19T15:11:46Z</time>
<speed>0.010000</speed>
<extensions>
<speed>0.0</speed>
<temp>0.00</temp>
<bpm>0</bpm>
<rpm>0.00</rpm>
</extensions>
</trkpt>
<trkpt lat="64.211235046" lon="-20.799402237">
<ele>254.417969</ele>
<time>2012-07-19T15:11:51Z</time>
<extensions>
<speed>0.0</speed>
<temp>0.00</temp>
<bpm>0</bpm>
<rpm>0.00</rpm>
</extensions>
</trkpt>
<trkpt lat="64.211235046" lon="-20.799402237">
<ele>254.281250</ele>
<time>2012-07-19T15:11:56Z</time>
<speed>0.010000</speed>
<extensions>
<speed>0.0</speed>
<temp>0.00</temp>
<bpm>0</bpm>
<rpm>0.00</rpm>
</extensions>
</trkpt>
<trkpt lat="64.211235046" lon="-20.799402237">
<ele>254.171875</ele>
<time>2012-07-19T15:12:01Z</time>
<speed>0.010000</speed>
<extensions>
<speed>0.0</speed>
<temp>0.00</temp>
<bpm>0</bpm>
<rpm>0.00</rpm>
</extensions>
</trkpt>
<trkpt lat="64.211235046" lon="-20.799404144">
<ele>254.089844</ele>
<time>2012-07-19T15:12:06Z</time>
<extensions>
<speed>0.0</speed>
<temp>0.00</temp>
<bpm>0</bpm>
<rpm>0.00</rpm>
</extensions>
</trkpt>
<trkpt lat="64.211235046" lon="-20.799404144">
<ele>254.062500</ele>
<time>2012-07-19T15:12:11Z</time>
<speed>0.020000</speed>
<extensions>
<speed>0.0</speed>
<temp>0.00</temp>
<bpm>0</bpm>
<rpm>0.00</rpm>
</extensions>
</trkpt>
<trkpt lat="64.211235046" lon="-20.799404144">
<ele>254.035156</ele>
<time>2012-07-19T15:12:16Z</time>
<extensions>
<speed>0.0</speed>
<temp>0.00</temp>
<bpm>0</bpm>
<rpm>0.00</rpm>
</extensions>
</trkpt>
<trkpt lat="64.211235046" lon="-20.799404144">
<ele>254.019531</ele>
<time>2012-07-19T15:12:21Z</time>
<extensions>
<speed>0.0</speed>
<temp>0.00</temp>
<bpm>0</bpm>
<rpm>0.00</rpm>
</extensions>
</trkpt>
<trkpt lat="64.211235046" lon="-20.799404144">
<ele>253.996094</ele>
<time>2012-07-19T15:12:26Z</time>
<extensions>
<speed>0.0</speed>
<temp>0.00</temp>
<bpm>0</bpm>
<rpm>0.00</rpm>
</extensions>
</trkpt>
<trkpt lat="64.211235046" lon="-20.799406052">
<ele>253.972656</ele>
<time>2012-07-19T15:12:31Z</time>
<speed>0.010000</speed>
<extensions>
<speed>0.0</speed>
<temp>0.00</temp>
<bpm>0</bpm>
<rpm>0.00</rpm>
</extensions>
</trkpt>
<trkpt lat="64.211235046" lon="-20.799406052">
<ele>253.960938</ele>
<time>2012-07-19T15:12:36Z</time>
<extensions>
<speed>0.0</speed>
<temp>0.00</temp>
<bpm>0</bpm>
<rpm>0.00</rpm>
</extensions>
</trkpt>
<trkpt lat="64.211235046" lon="-20.799406052">
<ele>253.949219</ele>
<time>2012-07-19T15:12:41Z</time>
<speed>0.020000</speed>
<extensions>
<speed>0.0</speed>
<temp>0.00</temp>
<bpm>0</bpm>
<rpm>0.00</rpm>
</extensions>
</trkpt>
<trkpt lat="64.211235046" lon="-20.799406052">
<ele>253.941406</ele>
<time>2012-07-19T15:12:46Z</time>
<extensions>
<speed>0.0</speed>
<temp>0.00</temp>
<bpm>0</bpm>
<rpm>0.00</rpm>
</extensions>
</trkpt>
<trkpt lat="64.211235046" lon="-20.799407959">
<ele>253.933594</ele>
<time>2012-07-19T15:12:51Z</time>
<speed>0.010000</speed>
<extensions>
<speed>0.0</speed>
<temp>0.00</temp>
<bpm>0</bpm>
<rpm>0.00</rpm>
</extensions>
</trkpt>
<trkpt lat="64.211235046" lon="-20.799407959">
<ele>253.910156</ele>
<time>2012-07-19T15:12:56Z</time>
<extensions>
<speed>0.0</speed>
<temp>0.00</temp>
<bpm>0</bpm>
<rpm>0.00</rpm>
</extensions>
</trkpt>
<trkpt lat="64.211235046" lon="-20.799407959">
<ele>253.890625</ele>
<time>2012-07-19T15:13:01Z</time>
<speed>0.010000</speed>
<extensions>
<speed>0.0</speed>
<temp>0.00</temp>
<bpm>0</bpm>
<rpm>0.00</rpm>
</extensions>
</trkpt>
<trkpt lat="64.211235046" lon="-20.799407959">
<ele>253.878906</ele>
<time>2012-07-19T15:13:06Z</time>
<speed>0.010000</speed>
<extensions>
<speed>0.0</speed>
<temp>0.00</temp>
<bpm>0</bpm>
<rpm>0.00</rpm>
</extensions>
</trkpt>
<trkpt lat="64.211235046" lon="-20.799407959">
<ele>253.867188</ele>
<time>2012-07-19T15:13:11Z</time>
<extensions>
<speed>0.0</speed>
<temp>0.00</temp>
<bpm>0</bpm>
<rpm>0.00</rpm>
</extensions>
</trkpt>
<trkpt lat="64.211235046" lon="-20.799407959">
<ele>253.847656</ele>
<time>2012-07-19T15:13:16Z</time>
<extensions>
<speed>0.0</speed>
<temp>0.00</temp>
<bpm>0</bpm>
<rpm>0.00</rpm>
</extensions>
</trkpt>
<trkpt lat="64.211235046" lon="-20.799409866">
<ele>253.828125</ele>
<time>2012-07-19T15:13:21Z</time>
<extensions>
<speed>0.0</speed>
<temp>0.00</temp>
<bpm>0</bpm>
<rpm>0.00</rpm>
</extensions>
</trkpt>
<trkpt lat="64.211235046" lon="-20.799409866">
<ele>253.808594</ele>
<time>2012-07-19T15:13:26Z</time>
<extensions>
<speed>0.0</speed>
<temp>0.00</temp>
<bpm>0</bpm>
<rpm>0.00</rpm>
</extensions>
</trkpt>
<trkpt lat="64.211235046" lon="-20.799409866">
<ele>253.789063</ele>
<time>2012-07-19T15:13:31Z</time>
<extensions>
<speed>0.0</speed>
<temp>0.00</temp>
<bpm>0</bpm>
<rpm>0.00</rpm>
</extensions>
</trkpt>
<trkpt lat="64.211235046" lon="-20.799409866">
<ele>253.757813</ele>
<time>2012-07-19T15:13:36Z</time>
<extensions>
<speed>0.0</speed>
<temp>0.00</temp>
<bpm>0</bpm>
<rpm>0.00</rpm>
</extensions>
</trkpt>
<trkpt lat="64.211235046" lon="-20.799411774">
<ele>253.730469</ele>
<time>2012-07-19T15:13:41Z</time>
<speed>0.010000</speed>
<extensions>
<speed>0.0</speed>
<temp>0.00</temp>
<bpm>0</bpm>
<rpm>0.00</rpm>
</extensions>
</trkpt>
<trkpt lat="64.211235046" lon="-20.799411774">
<ele>253.714844</ele>
<time>2012-07-19T15:13:46Z</time>
<extensions>
<speed>0.0</speed>
<temp>0.00</temp>
<bpm>0</bpm>
<rpm>0.00</rpm>
</extensions>
</trkpt>
<trkpt lat="64.211235046" lon="-20.799411774">
<ele>253.691406</ele>
<time>2012-07-19T15:13:51Z</time>
<extensions>
<speed>0.0</speed>
<temp>0.00</temp>
<bpm>0</bpm>
<rpm>0.00</rpm>
</extensions>
</trkpt>
<trkpt lat="64.211235046" lon="-20.799411774">
<ele>253.675781</ele>
<time>2012-07-19T15:13:56Z</time>
<extensions>
<speed>0.0</speed>
<temp>0.00</temp>
<bpm>0</bpm>
<rpm>0.00</rpm>
</extensions>
</trkpt>
<trkpt lat="64.211235046" lon="-20.799413681">
<ele>253.648438</ele>
<time>2012-07-19T15:14:01Z</time>
<extensions>
<speed>0.0</speed>
<temp>0.00</temp>
<bpm>0</bpm>
<rpm>0.00</rpm>
</extensions>
</trkpt>
<trkpt lat="64.211235046" lon="-20.799381256">
<ele>253.351563</ele>
<time>2012-07-19T15:14:06Z</time>
<speed>1.410000</speed>
<extensions>
<speed>1.4</speed>
<temp>0.00</temp>
<bpm>0</bpm>
<rpm>0.00</rpm>
</extensions>
</trkpt>
<trkpt lat="64.211242676" lon="-20.799196243">
<ele>252.378906</ele>
<time>2012-07-19T15:14:11Z</time>
<speed>2.460000</speed>
<extensions>
<speed>2.5</speed>
<temp>0.00</temp>
<bpm>0</bpm>
<rpm>0.00</rpm>
</extensions>
</trkpt>
<trkpt lat="64.211265564" lon="-20.798934937">
<ele>250.089844</ele>
<time>2012-07-19T15:14:16Z</time>
<speed>3.030000</speed>
<extensions>
<speed>3.0</speed>
<temp>0.00</temp>
<bpm>0</bpm>
<rpm>0.00</rpm>
</extensions>
</trkpt>
<trkpt lat="64.211318970" lon="-20.798616409">
<ele>246.593750</ele>
<time>2012-07-19T15:14:21Z</time>
<speed>3.940000</speed>
<extensions>
<speed>3.9</speed>
<temp>0.00</temp>
<bpm>0</bpm>
<rpm>0.00</rpm>
</extensions>
</trkpt>
<trkpt lat="64.211395264" lon="-20.798225403">
<ele>244.140625</ele>
<time>2012-07-19T15:14:26Z</time>
<speed>4.310000</speed>
<extensions>
<speed>4.3</speed>
<temp>0.00</temp>
<bpm>0</bpm>
<rpm>0.00</rpm>
</extensions>
</trkpt>
<trkpt lat="64.211486816" lon="-20.797794342">
<ele>241.796875</ele>
<time>2012-07-19T15:14:31Z</time>
<speed>4.770000</speed>
<extensions>
<speed>4.8</speed>
<temp>0.00</temp>
<bpm>0</bpm>
<rpm>0.00</rpm>
</extensions>
</trkpt>
<trkpt lat="64.211593628" lon="-20.797290802">
<ele>239.644531</ele>
<time>2012-07-19T15:14:36Z</time>
<speed>5.460000</speed>
<extensions>
<speed>5.5</speed>
<temp>0.00</temp>
<bpm>0</bpm>
<rpm>0.00</rpm>
</extensions>
</trkpt>
<trkpt lat="64.211708069" lon="-20.796741486">
<ele>237.179688</ele>
<time>2012-07-19T15:14:41Z</time>
<speed>6.490000</speed>
<extensions>
<speed>6.5</speed>
<temp>0.00</temp>
<bpm>0</bpm>
<rpm>0.00</rpm>
</extensions>
</trkpt>
<trkpt lat="64.211860657" lon="-20.796079636">
<ele>233.878906</ele>
<time>2012-07-19T15:14:46Z</time>
<speed>7.850000</speed>
<extensions>
<speed>7.9</speed>
<temp>0.00</temp>
<bpm>0</bpm>
<rpm>0.00</rpm>
</extensions>
</trkpt>
<trkpt lat="64.212028503" lon="-20.795310974">
<ele>230.511719</ele>
<time>2012-07-19T15:14:51Z</time>
<speed>7.850000</speed>
<extensions>
<speed>7.9</speed>
<temp>0.00</temp>
<bpm>0</bpm>
<rpm>0.00</rpm>
</extensions>
</trkpt>
<trkpt lat="64.212158203" lon="-20.794717789">
<ele>228.289063</ele>
<time>2012-07-19T15:14:56Z</time>
<speed>6.270000</speed>
<extensions>
<speed>6.3</speed>
<temp>0.00</temp>
<bpm>0</bpm>
<rpm>0.00</rpm>
</extensions>
</trkpt>
<trkpt lat="64.212272644" lon="-20.794168472">
<ele>226.546875</ele>
<time>2012-07-19T15:15:01Z</time>
<speed>6.340000</speed>
<extensions>
<speed>6.3</speed>
<temp>0.00</temp>
<bpm>0</bpm>
<rpm>0.00</rpm>
</extensions>
</trkpt>
<trkpt lat="64.212387085" lon="-20.793563843">
<ele>224.726563</ele>
<time>2012-07-19T15:15:06Z</time>
<speed>6.850000</speed>
<extensions>
<speed>6.8</speed>
<temp>0.00</temp>
<bpm>0</bpm>
<rpm>0.00</rpm>
</extensions>
</trkpt>
<trkpt lat="64.212440491" lon="-20.792774200">
<ele>220.960938</ele>
<time>2012-07-19T15:15:11Z</time>
<speed>8.850000</speed>
<extensions>
<speed>8.9</speed>
<temp>0.00</temp>
<bpm>0</bpm>
<rpm>0.00</rpm>
</extensions>
</trkpt>
<trkpt lat="64.212341309" lon="-20.791957855">
<ele>219.031250</ele>
<time>2012-07-19T15:15:16Z</time>
<speed>6.820000</speed>
<extensions>
<speed>6.8</speed>
<temp>0.00</temp>
<bpm>0</bpm>
<rpm>0.00</rpm>
</extensions>
</trkpt>
<trkpt lat="64.212203979" lon="-20.791481018">
<ele>219.015625</ele>
<time>2012-07-19T15:15:21Z</time>
<speed>5.140000</speed>
<extensions>
<speed>5.1</speed>
<temp>0.00</temp>
<bpm>0</bpm>
<rpm>0.00</rpm>
</extensions>
</trkpt>
<trkpt lat="64.212036133" lon="-20.791015625">
<ele>217.019531</ele>
<time>2012-07-19T15:15:26Z</time>
<speed>6.590000</speed>
<extensions>
<speed>6.6</speed>
<temp>0.00</temp>
<bpm>0</bpm>
<rpm>0.00</rpm>
</extensions>
</trkpt>
<trkpt lat="64.211837769" lon="-20.790391922">
<ele>215.660156</ele>
<time>2012-07-19T15:15:31Z</time>
<speed>7.870000</speed>
<extensions>
<speed>7.9</speed>
<temp>0.00</temp>
<bpm>0</bpm>
<rpm>0.00</rpm>
</extensions>
</trkpt>
<trkpt lat="64.211700439" lon="-20.789630890">
<ele>214.828125</ele>
<time>2012-07-19T15:15:36Z</time>
<speed>8.150000</speed>
<extensions>
<speed>8.2</speed>
<temp>0.00</temp>
<bpm>0</bpm>
<rpm>0.00</rpm>
</extensions>
</trkpt>
<trkpt lat="64.211593628" lon="-20.788846970">
<ele>214.570313</ele>
<time>2012-07-19T15:15:41Z</time>
<speed>7.730000</speed>
<extensions>
<speed>7.7</speed>
<temp>0.00</temp>
<bpm>0</bpm>
<rpm>0.00</rpm>
</extensions>
</trkpt>
<trkpt lat="64.211486816" lon="-20.788099289">
<ele>213.976563</ele>
<time>2012-07-19T15:15:46Z</time>
<speed>7.570000</speed>
<extensions>
<speed>7.6</speed>
<temp>0.00</temp>
<bpm>0</bpm>
<rpm>0.00</rpm>
</extensions>
</trkpt>
<trkpt lat="64.211395264" lon="-20.787313461">
<ele>212.828125</ele>
<time>2012-07-19T15:15:51Z</time>
<speed>7.890000</speed>
<extensions>
<speed>7.9</speed>
<temp>0.00</temp>
<bpm>0</bpm>
<rpm>0.00</rpm>
</extensions>
</trkpt>
<trkpt lat="64.211311340" lon="-20.786550522">
<ele>213.210938</ele>
<time>2012-07-19T15:15:56Z</time>
<speed>7.470000</speed>
<extensions>
<speed>7.5</speed>
<temp>0.00</temp>
<bpm>0</bpm>
<rpm>0.00</rpm>
</extensions>
</trkpt>
<trkpt lat="64.211242676" lon="-20.785829544">
<ele>214.128906</ele>
<time>2012-07-19T15:16:01Z</time>
<speed>6.840000</speed>
<extensions>
<speed>6.8</speed>
<temp>0.00</temp>
<bpm>0</bpm>
<rpm>0.00</rpm>
</extensions>
</trkpt>
<trkpt lat="64.211189270" lon="-20.785139084">
<ele>214.160156</ele>
<time>2012-07-19T15:16:06Z</time>
<speed>6.940000</speed>
<extensions>
<speed>6.9</speed>
<temp>0.00</temp>
<bpm>0</bpm>
<rpm>0.00</rpm>
</extensions>
</trkpt>
<trkpt lat="64.211143494" lon="-20.784418106">
<ele>214.281250</ele>
<time>2012-07-19T15:16:11Z</time>
<speed>6.820000</speed>
<extensions>
<speed>6.8</speed>
<temp>0.00</temp>
<bpm>0</bpm>
<rpm>0.00</rpm>
</extensions>
</trkpt>
<trkpt lat="64.211105347" lon="-20.783798218">
<ele>214.320313</ele>
<time>2012-07-19T15:16:16Z</time>
<speed>5.300000</speed>
<extensions>
<speed>5.3</speed>
<temp>0.00</temp>
<bpm>0</bpm>
<rpm>0.00</rpm>
</extensions>
</trkpt>
<trkpt lat="64.211059570" lon="-20.783388138">
<ele>215.589844</ele>
<time>2012-07-19T15:16:21Z</time>
<speed>2.900000</speed>
<extensions>
<speed>2.9</speed>
<temp>0.00</temp>
<bpm>0</bpm>
<rpm>0.00</rpm>
</extensions>
</trkpt>
<trkpt lat="64.211029053" lon="-20.783203125">
<ele>217.429688</ele>
<time>2012-07-19T15:16:26Z</time>
<speed>2.010000</speed>
<extensions>
<speed>2.0</speed>
<temp>0.00</temp>
<bpm>0</bpm>
<rpm>0.00</rpm>
</extensions>
</trkpt>
<trkpt lat="64.211021423" lon="-20.783021927">
<ele>219.718750</ele>
<time>2012-07-19T15:16:31Z</time>
<speed>1.950000</speed>
<extensions>
<speed>1.9</speed>
<temp>0.00</temp>
<bpm>0</bpm>
<rpm>0.00</rpm>
</extensions>
</trkpt>
<trkpt lat="64.210990906" lon="-20.782796860">
<ele>221.582031</ele>
<time>2012-07-19T15:16:36Z</time>
<speed>1.780000</speed>
<extensions>
<speed>1.8</speed>
<temp>0.00</temp>
<bpm>0</bpm>
<rpm>0.00</rpm>
</extensions>
</trkpt>
<trkpt lat="64.210960388" lon="-20.782629013">
<ele>222.933594</ele>
<time>2012-07-19T15:16:41Z</time>
<speed>1.750000</speed>
<extensions>
<speed>1.8</speed>
<temp>0.00</temp>
<bpm>0</bpm>
<rpm>0.00</rpm>
</extensions>
</trkpt>
<trkpt lat="64.210929871" lon="-20.782464981">
<ele>225.117188</ele>
<time>2012-07-19T15:16:46Z</time>
<speed>1.570000</speed>
<extensions>
<speed>1.6</speed>
<temp>0.00</temp>
<bpm>0</bpm>
<rpm>0.00</rpm>
</extensions>
</trkpt>
<trkpt lat="64.210914612" lon="-20.782327652">
<ele>227.011719</ele>
<time>2012-07-19T15:16:51Z</time>
<speed>1.160000</speed>
<extensions>
<speed>1.2</speed>
<temp>0.00</temp>
<bpm>0</bpm>
<rpm>0.00</rpm>
</extensions>
</trkpt>
<trkpt lat="64.210891724" lon="-20.782171249">
<ele>227.910156</ele>
<time>2012-07-19T15:16:56Z</time>
<speed>1.750000</speed>
<extensions>
<speed>1.8</speed>
<temp>0.00</temp>
<bpm>0</bpm>
<rpm>0.00</rpm>
</extensions>
</trkpt>
<trkpt lat="64.210861206" lon="-20.781970978">
<ele>230.554688</ele>
<time>2012-07-19T15:17:01Z</time>
<speed>1.680000</speed>
<extensions>
<speed>1.7</speed>
<temp>0.00</temp>
<bpm>0</bpm>
<rpm>0.00</rpm>
</extensions>
</trkpt>
<trkpt lat="64.210853577" lon="-20.781816483">
<ele>231.722656</ele>
<time>2012-07-19T15:17:06Z</time>
<speed>1.510000</speed>
<extensions>
<speed>1.5</speed>
<temp>0.00</temp>
<bpm>0</bpm>
<rpm>0.00</rpm>
</extensions>
</trkpt>
<trkpt lat="64.210845947" lon="-20.781679153">
<ele>230.968750</ele>
<time>2012-07-19T15:17:11Z</time>
<speed>1.540000</speed>
<extensions>
<speed>1.5</speed>
<temp>0.00</temp>
<bpm>0</bpm>
<rpm>0.00</rpm>
</extensions>
</trkpt>
<trkpt lat="64.210853577" lon="-20.781528473">
<ele>231.199219</ele>
<time>2012-07-19T15:17:16Z</time>
<speed>1.690000</speed>
<extensions>
<speed>1.7</speed>
<temp>0.00</temp>
<bpm>0</bpm>
<rpm>0.00</rpm>
</extensions>
</trkpt>
<trkpt lat="64.210853577" lon="-20.781351089">
<ele>230.648438</ele>
<time>2012-07-19T15:17:21Z</time>
<speed>1.750000</speed>
<extensions>
<speed>1.8</speed>
<temp>0.00</temp>
<bpm>0</bpm>
<rpm>0.00</rpm>
</extensions>
</trkpt>
<trkpt lat="64.210861206" lon="-20.781154633">
<ele>230.160156</ele>
<time>2012-07-19T15:17:26Z</time>
<speed>2.070000</speed>
<extensions>
<speed>2.1</speed>
<temp>0.00</temp>
<bpm>0</bpm>
<rpm>0.00</rpm>
</extensions>
</trkpt>
<trkpt lat="64.210876465" lon="-20.780933380">
<ele>228.992188</ele>
<time>2012-07-19T15:17:31Z</time>
<speed>2.470000</speed>
<extensions>
<speed>2.5</speed>
<temp>0.00</temp>
<bpm>0</bpm>
<rpm>0.00</rpm>
</extensions>
</trkpt>
<trkpt lat="64.210891724" lon="-20.780691147">
<ele>228.164063</ele>
<time>2012-07-19T15:17:36Z</time>
<speed>2.300000</speed>
<extensions>
<speed>2.3</speed>
<temp>0.00</temp>
<bpm>0</bpm>
<rpm>0.00</rpm>
</extensions>
</trkpt>
<trkpt lat="64.210922241" lon="-20.780504227">
<ele>227.089844</ele>
<time>2012-07-19T15:17:41Z</time>
<speed>2.180000</speed>
<extensions>
<speed>2.2</speed>
<temp>0.00</temp>
<bpm>0</bpm>
<rpm>0.00</rpm>
</extensions>
</trkpt>
<trkpt lat="64.210937500" lon="-20.780273438">
<ele>226.238281</ele>
<time>2012-07-19T15:17:46Z</time>
<speed>2.410000</speed>
<extensions>
<speed>2.4</speed>
<temp>0.00</temp>
<bpm>0</bpm>
<rpm>0.00</rpm>
</extensions>
</trkpt>
<trkpt lat="64.210975647" lon="-20.779981613">
<ele>226.300781</ele>
<time>2012-07-19T15:17:51Z</time>
<speed>3.290000</speed>
<extensions>
<speed>3.3</speed>
<temp>0.00</temp>
<bpm>0</bpm>
<rpm>0.00</rpm>
</extensions>
</trkpt>
<trkpt lat="64.211021423" lon="-20.779737473">
<ele>226.285156</ele>
<time>2012-07-19T15:17:56Z</time>
<speed>0.110000</speed>
<extensions>
<speed>0.1</speed>
<temp>0.00</temp>
<bpm>0</bpm>
<rpm>0.00</rpm>
</extensions>
</trkpt>
<trkpt lat="64.211021423" lon="-20.779739380">
<ele>225.226563</ele>
<time>2012-07-19T15:18:01Z</time>
<speed>0.820000</speed>
<extensions>
<speed>0.8</speed>
<temp>0.00</temp>
<bpm>0</bpm>
<rpm>0.00</rpm>
</extensions>
</trkpt>
<trkpt lat="64.211036682" lon="-20.779571533">
<ele>223.562500</ele>
<time>2012-07-19T15:18:06Z</time>
<speed>0.070000</speed>
<extensions>
<speed>0.1</speed>
<temp>0.00</temp>
<bpm>0</bpm>
<rpm>0.00</rpm>
</extensions>
</trkpt>
<trkpt lat="64.211044312" lon="-20.779453278">
<ele>223.250000</ele>
<time>2012-07-19T15:18:11Z</time>
<speed>2.710000</speed>
<extensions>
<speed>2.7</speed>
<temp>0.00</temp>
<bpm>0</bpm>
<rpm>0.00</rpm>
</extensions>
</trkpt>
<trkpt lat="64.211082458" lon="-20.779052734">
<ele>222.339844</ele>
<time>2012-07-19T15:18:16Z</time>
<speed>4.710000</speed>
<extensions>
<speed>4.7</speed>
<temp>0.00</temp>
<bpm>0</bpm>
<rpm>0.00</rpm>
</extensions>
</trkpt>
<trkpt lat="64.211158752" lon="-20.778478622">
<ele>220.078125</ele>
<time>2012-07-19T15:18:21Z</time>
<speed>6.870000</speed>
<extensions>
<speed>6.9</speed>
<temp>0.00</temp>
<bpm>0</bpm>
<rpm>0.00</rpm>
</extensions>
</trkpt>
<trkpt lat="64.211364746" lon="-20.777671814">
<ele>213.929688</ele>
<time>2012-07-19T15:18:26Z</time>
<speed>11.230000</speed>
<extensions>
<speed>11.2</speed>
<temp>0.00</temp>
<bpm>0</bpm>
<rpm>0.00</rpm>
</extensions>
</trkpt>
<trkpt lat="64.211799622" lon="-20.776819229">
<ele>204.792969</ele>
<time>2012-07-19T15:18:31Z</time>
<speed>13.500000</speed>
<extensions>
<speed>13.5</speed>
<temp>0.00</temp>
<bpm>0</bpm>
<rpm>0.00</rpm>
</extensions>
</trkpt>
<trkpt lat="64.212249756" lon="-20.776054382">
<ele>198.777344</ele>
<time>2012-07-19T15:18:36Z</time>
<speed>10.010000</speed>
<extensions>
<speed>10.0</speed>
<temp>0.00</temp>
<bpm>0</bpm>
<rpm>0.00</rpm>
</extensions>
</trkpt>
<trkpt lat="64.212059021" lon="-20.775281906">
<ele>198.753906</ele>
<time>2012-07-19T15:18:41Z</time>
<speed>8.590000</speed>
<extensions>
<speed>8.6</speed>
<temp>0.00</temp>
<bpm>0</bpm>
<rpm>0.00</rpm>
</extensions>
</trkpt>
<trkpt lat="64.211715698" lon="-20.774806976">
<ele>196.511719</ele>
<time>2012-07-19T15:18:46Z</time>
<speed>7.500000</speed>
<extensions>
<speed>7.5</speed>
<temp>0.00</temp>
<bpm>0</bpm>
<rpm>0.00</rpm>
</extensions>
</trkpt>
<trkpt lat="64.211517334" lon="-20.774282455">
<ele>196.265625</ele>
<time>2012-07-19T15:18:51Z</time>
<speed>6.340000</speed>
<extensions>
<speed>6.3</speed>
<temp>0.00</temp>
<bpm>0</bpm>
<rpm>0.00</rpm>
</extensions>
</trkpt>
<trkpt lat="64.211372375" lon="-20.773807526">
<ele>196.378906</ele>
<time>2012-07-19T15:18:56Z</time>
<speed>5.310000</speed>
<extensions>
<speed>5.3</speed>
<temp>0.00</temp>
<bpm>0</bpm>
<rpm>0.00</rpm>
</extensions>
</trkpt>
<trkpt lat="64.211242676" lon="-20.773376465">
<ele>195.957031</ele>
<time>2012-07-19T15:19:01Z</time>
<speed>5.670000</speed>
<extensions>
<speed>5.7</speed>
<temp>0.00</temp>
<bpm>0</bpm>
<rpm>0.00</rpm>
</extensions>
</trkpt>
<trkpt lat="64.211067200" lon="-20.772787094">
<ele>192.683594</ele>
<time>2012-07-19T15:19:06Z</time>
<speed>8.370000</speed>
<extensions>
<speed>8.4</speed>
<temp>0.00</temp>
<bpm>0</bpm>
<rpm>0.00</rpm>
</extensions>
</trkpt>
<trkpt lat="64.210800171" lon="-20.772062302">
<ele>190.570313</ele>
<time>2012-07-19T15:19:11Z</time>
<speed>9.050001</speed>
<extensions>
<speed>9.1</speed>
<temp>0.00</temp>
<bpm>0</bpm>
<rpm>0.00</rpm>
</extensions>
</trkpt>
<trkpt lat="64.210533142" lon="-20.771377563">
<ele>189.375000</ele>
<time>2012-07-19T15:19:16Z</time>
<speed>8.890000</speed>
<extensions>
<speed>8.9</speed>
<temp>0.00</temp>
<bpm>0</bpm>
<rpm>0.00</rpm>
</extensions>
</trkpt>
<trkpt lat="64.210342407" lon="-20.770549774">
<ele>187.687500</ele>
<time>2012-07-19T15:19:21Z</time>
<speed>9.850000</speed>
<extensions>
<speed>9.8</speed>
<temp>0.00</temp>
<bpm>0</bpm>
<rpm>0.00</rpm>
</extensions>
</trkpt>
<trkpt lat="64.210227966" lon="-20.769538879">
<ele>183.472656</ele>
<time>2012-07-19T15:19:26Z</time>
<speed>10.520000</speed>
<extensions>
<speed>10.5</speed>
<temp>0.00</temp>
<bpm>0</bpm>
<rpm>0.00</rpm>
</extensions>
</trkpt>
<trkpt lat="64.210220337" lon="-20.768491745">
<ele>181.285156</ele>
<time>2012-07-19T15:19:31Z</time>
<speed>9.940000</speed>
<extensions>
<speed>9.9</speed>
<temp>0.00</temp>
<bpm>0</bpm>
<rpm>0.00</rpm>
</extensions>
</trkpt>
<trkpt lat="64.210365295" lon="-20.767465591">
<ele>178.535156</ele>
<time>2012-07-19T15:19:36Z</time>
<speed>10.240000</speed>
<extensions>
<speed>10.2</speed>
<temp>0.00</temp>
<bpm>0</bpm>
<rpm>0.00</rpm>
</extensions>
</trkpt>
<trkpt lat="64.210563660" lon="-20.766523361">
<ele>174.605469</ele>
<time>2012-07-19T15:19:41Z</time>
<speed>9.699999</speed>
<extensions>
<speed>9.7</speed>
<temp>0.00</temp>
<bpm>0</bpm>
<rpm>0.00</rpm>
</extensions>
</trkpt>
<trkpt lat="64.210662842" lon="-20.765674591">
<ele>171.613281</ele>
<time>2012-07-19T15:19:46Z</time>
<speed>8.460000</speed>
<extensions>
<speed>8.5</speed>
<temp>0.00</temp>
<bpm>0</bpm>
<rpm>0.00</rpm>
</extensions>
</trkpt>
<trkpt lat="64.210662842" lon="-20.764738083">
<ele>166.929688</ele>
<time>2012-07-19T15:19:51Z</time>
<speed>10.110000</speed>
<extensions>
<speed>10.1</speed>
<temp>0.00</temp>
<bpm>0</bpm>
<rpm>0.00</rpm>
</extensions>
</trkpt>
<trkpt lat="64.210800171" lon="-20.763612747">
<ele>162.023438</ele>
<time>2012-07-19T15:19:56Z</time>
<speed>12.510000</speed>
<extensions>
<speed>12.5</speed>
<temp>0.00</temp>
<bpm>0</bpm>
<rpm>0.00</rpm>
</extensions>
</trkpt>
<trkpt lat="64.210906982" lon="-20.762311935">
<ele>157.183594</ele>
<time>2012-07-19T15:20:01Z</time>
<speed>13.000000</speed>
<extensions>
<speed>13.0</speed>
<temp>0.00</temp>
<bpm>0</bpm>
<rpm>0.00</rpm>
</extensions>
</trkpt>
<trkpt lat="64.210929871" lon="-20.761198044">
<ele>155.734375</ele>
<time>2012-07-19T15:20:06Z</time>
<speed>8.410000</speed>
<extensions>
<speed>8.4</speed>
<temp>0.00</temp>
<bpm>0</bpm>
<rpm>0.00</rpm>
</extensions>
</trkpt>
<trkpt lat="64.210952759" lon="-20.760307312">
<ele>152.082031</ele>
<time>2012-07-19T15:20:11Z</time>
<speed>8.880000</speed>
<extensions>
<speed>8.9</speed>
<temp>0.00</temp>
<bpm>0</bpm>
<rpm>0.00</rpm>
</extensions>
</trkpt>
<trkpt lat="64.211006165" lon="-20.759439468">
<ele>147.578125</ele>
<time>2012-07-19T15:20:16Z</time>
<speed>8.860000</speed>
<extensions>
<speed>8.9</speed>
<temp>0.00</temp>
<bpm>0</bpm>
<rpm>0.00</rpm>
</extensions>
</trkpt>
<trkpt lat="64.211036682" lon="-20.758430481">
<ele>143.613281</ele>
<time>2012-07-19T15:20:21Z</time>
<speed>10.700000</speed>
<extensions>
<speed>10.7</speed>
<temp>0.00</temp>
<bpm>0</bpm>
<rpm>0.00</rpm>
</extensions>
</trkpt>
<trkpt lat="64.211166382" lon="-20.757303238">
<ele>137.070313</ele>
<time>2012-07-19T15:20:26Z</time>
<speed>12.370000</speed>
<extensions>
<speed>12.4</speed>
<temp>0.00</temp>
<bpm>0</bpm>
<rpm>0.00</rpm>
</extensions>
</trkpt>
<trkpt lat="64.211387634" lon="-20.756044388">
<ele>131.480469</ele>
<time>2012-07-19T15:20:31Z</time>
<speed>13.360000</speed>
<extensions>
<speed>13.4</speed>
<temp>0.00</temp>
<bpm>0</bpm>
<rpm>0.00</rpm>
</extensions>
</trkpt>
<trkpt lat="64.211547852" lon="-20.754777908">
<ele>129.328125</ele>
<time>2012-07-19T15:20:36Z</time>
<speed>12.040000</speed>
<extensions>
<speed>12.0</speed>
<temp>0.00</temp>
<bpm>0</bpm>
<rpm>0.00</rpm>
</extensions>
</trkpt>
<trkpt lat="64.211662292" lon="-20.753616333">
<ele>127.871094</ele>
<time>2012-07-19T15:20:41Z</time>
<speed>11.200000</speed>
<extensions>
<speed>11.2</speed>
<temp>0.00</temp>
<bpm>0</bpm>
<rpm>0.00</rpm>
</extensions>
</trkpt>
<trkpt lat="64.211776733" lon="-20.752508163">
<ele>124.824219</ele>
<time>2012-07-19T15:20:46Z</time>
<speed>11.410000</speed>
<extensions>
<speed>11.4</speed>
<temp>0.00</temp>
<bpm>0</bpm>
<rpm>0.00</rpm>
</extensions>
</trkpt>
<trkpt lat="64.211868286" lon="-20.751287460">
<ele>121.279297</ele>
<time>2012-07-19T15:20:51Z</time>
<speed>11.830000</speed>
<extensions>
<speed>11.8</speed>
<temp>0.00</temp>
<bpm>0</bpm>
<rpm>0.00</rpm>
</extensions>
</trkpt>
<trkpt lat="64.211967468" lon="-20.750160217">
<ele>119.144531</ele>
<time>2012-07-19T15:20:56Z</time>
<speed>10.980000</speed>
<extensions>
<speed>11.0</speed>
<temp>0.00</temp>
<bpm>0</bpm>
<rpm>0.00</rpm>
</extensions>
</trkpt>
<trkpt lat="64.212127686" lon="-20.749116898">
<ele>114.689453</ele>
<time>2012-07-19T15:21:01Z</time>
<speed>10.340000</speed>
<extensions>
<speed>10.3</speed>
<temp>0.00</temp>
<bpm>0</bpm>
<rpm>0.00</rpm>
</extensions>
</trkpt>
<trkpt lat="64.212142944" lon="-20.748035431">
<ele>108.781250</ele>
<time>2012-07-19T15:21:06Z</time>
<speed>9.030000</speed>
<extensions>
<speed>9.0</speed>
<temp>0.00</temp>
<bpm>0</bpm>
<rpm>0.00</rpm>
</extensions>
</trkpt>
<trkpt lat="64.211990356" lon="-20.747583389">
<ele>106.242188</ele>
<time>2012-07-19T15:21:11Z</time>
<speed>4.280000</speed>
<extensions>
<speed>4.3</speed>
<temp>0.00</temp>
<bpm>0</bpm>
<rpm>0.00</rpm>
</extensions>
</trkpt>
<trkpt lat="64.211883545" lon="-20.747516632">
<ele>106.533203</ele>
<time>2012-07-19T15:21:16Z</time>
<speed>1.440000</speed>
<extensions>
<speed>1.4</speed>
<temp>0.00</temp>
<bpm>0</bpm>
<rpm>0.00</rpm>
</extensions>
</trkpt>
<trkpt lat="64.211830139" lon="-20.747394562">
<ele>106.439453</ele>
<time>2012-07-19T15:21:21Z</time>
<speed>2.570000</speed>
<extensions>
<speed>2.6</speed>
<temp>0.00</temp>
<bpm>0</bpm>
<rpm>0.00</rpm>
</extensions>
</trkpt>
<trkpt lat="64.211791992" lon="-20.747030258">
<ele>106.923828</ele>
<time>2012-07-19T15:21:26Z</time>
<speed>4.750000</speed>
<extensions>
<speed>4.8</speed>
<temp>0.00</temp>
<bpm>0</bpm>
<rpm>0.00</rpm>
</extensions>
</trkpt>
<trkpt lat="64.211845398" lon="-20.746444702">
<ele>105.185547</ele>
<time>2012-07-19T15:21:31Z</time>
<speed>6.670000</speed>
<extensions>
<speed>6.7</speed>
<temp>0.00</temp>
<bpm>0</bpm>
<rpm>0.00</rpm>
</extensions>
</trkpt>
<trkpt lat="64.211906433" lon="-20.745691299">
<ele>101.746094</ele>
<time>2012-07-19T15:21:36Z</time>
<speed>8.110000</speed>
<extensions>
<speed>8.1</speed>
<temp>0.00</temp>
<bpm>0</bpm>
<rpm>0.00</rpm>
</extensions>
</trkpt>
<trkpt lat="64.211929321" lon="-20.744800568">
<ele>98.488281</ele>
<time>2012-07-19T15:21:41Z</time>
<speed>8.870000</speed>
<extensions>
<speed>8.9</speed>
<temp>0.00</temp>
<bpm>0</bpm>
<rpm>0.00</rpm>
</extensions>
</trkpt>
<trkpt lat="64.211898804" lon="-20.743883133">
<ele>97.261719</ele>
<time>2012-07-19T15:21:46Z</time>
<speed>8.640000</speed>
<extensions>
<speed>8.6</speed>
<temp>0.00</temp>
<bpm>0</bpm>
<rpm>0.00</rpm>
</extensions>
</trkpt>
<trkpt lat="64.211784363" lon="-20.743339539">
<ele>96.726563</ele>
<time>2012-07-19T15:21:51Z</time>
<speed>4.090000</speed>
<extensions>
<speed>4.1</speed>
<temp>0.00</temp>
<bpm>0</bpm>
<rpm>0.00</rpm>
</extensions>
</trkpt>
<trkpt lat="64.211685181" lon="-20.743238449">
<ele>96.378906</ele>
<time>2012-07-19T15:21:56Z</time>
<speed>1.080000</speed>
<extensions>
<speed>1.1</speed>
<temp>0.00</temp>
<bpm>0</bpm>
<rpm>0.00</rpm>
</extensions>
</trkpt>
<trkpt lat="64.211639404" lon="-20.743076324">
<ele>96.076172</ele>
<time>2012-07-19T15:22:01Z</time>
<speed>2.110000</speed>
<extensions>
<speed>2.1</speed>
<temp>0.00</temp>
<bpm>0</bpm>
<rpm>0.00</rpm>
</extensions>
</trkpt>
<trkpt lat="64.211647034" lon="-20.742986679">
<ele>97.017578</ele>
<time>2012-07-19T15:22:06Z</time>
<speed>0.010000</speed>
<extensions>
<speed>0.0</speed>
<temp>0.00</temp>
<bpm>0</bpm>
<rpm>0.00</rpm>
</extensions>
</trkpt>
<trkpt lat="64.211654663" lon="-20.742988586">
<ele>97.154297</ele>
<time>2012-07-19T15:22:11Z</time>
<speed>0.020000</speed>
<extensions>
<speed>0.0</speed>
<temp>0.00</temp>
<bpm>0</bpm>
<rpm>0.00</rpm>
</extensions>
</trkpt>
<trkpt lat="64.211654663" lon="-20.742990494">
<ele>97.179688</ele>
<time>2012-07-19T15:22:16Z</time>
<extensions>
<speed>0.0</speed>
<temp>0.00</temp>
<bpm>0</bpm>
<rpm>0.00</rpm>
</extensions>
</trkpt>
<trkpt lat="64.211654663" lon="-20.742992401">
<ele>97.294922</ele>
<time>2012-07-19T15:22:21Z</time>
<speed>0.010000</speed>
<extensions>
<speed>0.0</speed>
<temp>0.00</temp>
<bpm>0</bpm>
<rpm>0.00</rpm>
</extensions>
</trkpt>
<trkpt lat="64.211654663" lon="-20.742990494">
<ele>97.302734</ele>
<time>2012-07-19T15:22:26Z</time>
<speed>0.010000</speed>
<extensions>
<speed>0.0</speed>
<temp>0.00</temp>
<bpm>0</bpm>
<rpm>0.00</rpm>
</extensions>
</trkpt>
<trkpt lat="64.211654663" lon="-20.742992401">
<ele>97.306641</ele>
<time>2012-07-19T15:22:31Z</time>
<speed>0.010000</speed>
<extensions>
<speed>0.0</speed>
<temp>0.00</temp>
<bpm>0</bpm>
<rpm>0.00</rpm>
</extensions>
</trkpt>
<trkpt lat="64.211654663" lon="-20.742992401">
<ele>97.304688</ele>
<time>2012-07-19T15:22:36Z</time>
<speed>0.010000</speed>
<extensions>
<speed>0.0</speed>
<temp>0.00</temp>
<bpm>0</bpm>
<rpm>0.00</rpm>
</extensions>
</trkpt>
<trkpt lat="64.211654663" lon="-20.742992401">
<ele>97.324219</ele>
<time>2012-07-19T15:22:41Z</time>
<extensions>
<speed>0.0</speed>
<temp>0.00</temp>
<bpm>0</bpm>
<rpm>0.00</rpm>
</extensions>
</trkpt>
<trkpt lat="64.211654663" lon="-20.742992401">
<ele>97.341797</ele>
<time>2012-07-19T15:22:46Z</time>
<extensions>
<speed>0.0</speed>
<temp>0.00</temp>
<bpm>0</bpm>
<rpm>0.00</rpm>
</extensions>
</trkpt>
<trkpt lat="64.211654663" lon="-20.742967606">
<ele>97.339844</ele>
<time>2012-07-19T15:22:51Z</time>
<speed>1.140000</speed>
<extensions>
<speed>1.1</speed>
<temp>0.00</temp>
<bpm>0</bpm>
<rpm>0.00</rpm>
</extensions>
</trkpt>
<trkpt lat="64.211685181" lon="-20.742811203">
<ele>96.947266</ele>
<time>2012-07-19T15:22:56Z</time>
<speed>2.550000</speed>
<extensions>
<speed>2.6</speed>
<temp>0.00</temp>
<bpm>0</bpm>
<rpm>0.00</rpm>
</extensions>
</trkpt>
<trkpt lat="64.211784363" lon="-20.742610931">
<ele>95.089844</ele>
<time>2012-07-19T15:23:01Z</time>
<speed>3.480000</speed>
<extensions>
<speed>3.5</speed>
<temp>0.00</temp>
<bpm>0</bpm>
<rpm>0.00</rpm>
</extensions>
</trkpt>
<trkpt lat="64.211944580" lon="-20.742572784">
<ele>93.236328</ele>
<time>2012-07-19T15:23:06Z</time>
<speed>3.580000</speed>
<extensions>
<speed>3.6</speed>
<temp>0.00</temp>
<bpm>0</bpm>
<rpm>0.00</rpm>
</extensions>
</trkpt>
<trkpt lat="64.212104797" lon="-20.742387772">
<ele>92.773438</ele>
<time>2012-07-19T15:23:11Z</time>
<speed>4.440000</speed>
<extensions>
<speed>4.4</speed>
<temp>0.00</temp>
<bpm>0</bpm>
<rpm>0.00</rpm>
</extensions>
</trkpt>
<trkpt lat="64.212242126" lon="-20.742015839">
<ele>92.824219</ele>
<time>2012-07-19T15:23:16Z</time>
<speed>4.620000</speed>
<extensions>
<speed>4.6</speed>
<temp>0.00</temp>
<bpm>0</bpm>
<rpm>0.00</rpm>
</extensions>
</trkpt>
<trkpt lat="64.212356567" lon="-20.741552353">
<ele>92.644531</ele>
<time>2012-07-19T15:23:21Z</time>
<speed>5.260000</speed>
<extensions>
<speed>5.3</speed>
<temp>0.00</temp>
<bpm>0</bpm>
<rpm>0.00</rpm>
</extensions>
</trkpt>
<trkpt lat="64.212471008" lon="-20.741085052">
<ele>92.652344</ele>
<time>2012-07-19T15:23:26Z</time>
<speed>5.150000</speed>
<extensions>
<speed>5.2</speed>
<temp>0.00</temp>
<bpm>0</bpm>
<rpm>0.00</rpm>
</extensions>
</trkpt>
<trkpt lat="64.212593079" lon="-20.740604401">
<ele>92.648438</ele>
<time>2012-07-19T15:23:31Z</time>
<speed>5.420000</speed>
<extensions>
<speed>5.4</speed>
<temp>0.00</temp>
<bpm>0</bpm>
<rpm>0.00</rpm>
</extensions>
</trkpt>
<trkpt lat="64.212715149" lon="-20.740114212">
<ele>93.439453</ele>
<time>2012-07-19T15:23:36Z</time>
<speed>5.500000</speed>
<extensions>
<speed>5.5</speed>
<temp>0.00</temp>
<bpm>0</bpm>
<rpm>0.00</rpm>
</extensions>
</trkpt>
<trkpt lat="64.212814331" lon="-20.739658356">
<ele>94.537109</ele>
<time>2012-07-19T15:23:41Z</time>
<speed>4.430000</speed>
<extensions>
<speed>4.4</speed>
<temp>0.00</temp>
<bpm>0</bpm>
<rpm>0.00</rpm>
</extensions>
</trkpt>
<trkpt lat="64.212905884" lon="-20.739261627">
<ele>95.058594</ele>
<time>2012-07-19T15:23:46Z</time>
<speed>4.340000</speed>
<extensions>
<speed>4.3</speed>
<temp>0.00</temp>
<bpm>0</bpm>
<rpm>0.00</rpm>
</extensions>
</trkpt>
<trkpt lat="64.212989807" lon="-20.738883972">
<ele>95.574219</ele>
<time>2012-07-19T15:23:51Z</time>
<speed>4.010000</speed>
<extensions>
<speed>4.0</speed>
<temp>0.00</temp>
<bpm>0</bpm>
<rpm>0.00</rpm>
</extensions>
</trkpt>
<trkpt lat="64.213081360" lon="-20.738542557">
<ele>95.968750</ele>
<time>2012-07-19T15:23:56Z</time>
<speed>3.870000</speed>
<extensions>
<speed>3.9</speed>
<temp>0.00</temp>
<bpm>0</bpm>
<rpm>0.00</rpm>
</extensions>
</trkpt>
<trkpt lat="64.213188171" lon="-20.738241196">
<ele>95.816406</ele>
<time>2012-07-19T15:24:01Z</time>
<speed>3.650000</speed>
<extensions>
<speed>3.7</speed>
<temp>0.00</temp>
<bpm>0</bpm>
<rpm>0.00</rpm>
</extensions>
</trkpt>
<trkpt lat="64.213302612" lon="-20.737958908">
<ele>95.203125</ele>
<time>2012-07-19T15:24:06Z</time>
<speed>3.630000</speed>
<extensions>
<speed>3.6</speed>
<temp>0.00</temp>
<bpm>0</bpm>
<rpm>0.00</rpm>
</extensions>
</trkpt>
<trkpt lat="64.213417053" lon="-20.737703323">
<ele>94.572266</ele>
<time>2012-07-19T15:24:11Z</time>
<speed>3.480000</speed>
<extensions>
<speed>3.5</speed>
<temp>0.00</temp>
<bpm>0</bpm>
<rpm>0.00</rpm>
</extensions>
</trkpt>
<trkpt lat="64.213554382" lon="-20.737478256">
<ele>93.730469</ele>
<time>2012-07-19T15:24:16Z</time>
<speed>4.360000</speed>
<extensions>
<speed>4.4</speed>
<temp>0.00</temp>
<bpm>0</bpm>
<rpm>0.00</rpm>
</extensions>
</trkpt>
<trkpt lat="64.213729858" lon="-20.737277985">
<ele>92.605469</ele>
<time>2012-07-19T15:24:21Z</time>
<speed>4.460000</speed>
<extensions>
<speed>4.5</speed>
<temp>0.00</temp>
<bpm>0</bpm>
<rpm>0.00</rpm>
</extensions>
</trkpt>
<trkpt lat="64.213935852" lon="-20.737110138">
<ele>91.679688</ele>
<time>2012-07-19T15:24:26Z</time>
<speed>5.330000</speed>
<extensions>
<speed>5.3</speed>
<temp>0.00</temp>
<bpm>0</bpm>
<rpm>0.00</rpm>
</extensions>
</trkpt>
<trkpt lat="64.214172363" lon="-20.736961365">
<ele>91.876953</ele>
<time>2012-07-19T15:24:31Z</time>
<speed>5.220000</speed>
<extensions>
<speed>5.2</speed>
<temp>0.00</temp>
<bpm>0</bpm>
<rpm>0.00</rpm>
</extensions>
</trkpt>
<trkpt lat="64.214385986" lon="-20.736808777">
<ele>91.591797</ele>
<time>2012-07-19T15:24:36Z</time>
<speed>4.370000</speed>
<extensions>
<speed>4.4</speed>
<temp>0.00</temp>
<bpm>0</bpm>
<rpm>0.00</rpm>
</extensions>
</trkpt>
<trkpt lat="64.214569092" lon="-20.736665726">
<ele>91.492188</ele>
<time>2012-07-19T15:24:41Z</time>
<speed>4.610000</speed>
<extensions>
<speed>4.6</speed>
<temp>0.00</temp>
<bpm>0</bpm>
<rpm>0.00</rpm>
</extensions>
</trkpt>
<trkpt lat="64.214767456" lon="-20.736482620">
<ele>90.931641</ele>
<time>2012-07-19T15:24:46Z</time>
<speed>5.090000</speed>
<extensions>
<speed>5.1</speed>
<temp>0.00</temp>
<bpm>0</bpm>
<rpm>0.00</rpm>
</extensions>
</trkpt>
<trkpt lat="64.214981079" lon="-20.736286163">
<ele>89.902344</ele>
<time>2012-07-19T15:24:51Z</time>
<speed>5.110000</speed>
<extensions>
<speed>5.1</speed>
<temp>0.00</temp>
<bpm>0</bpm>
<rpm>0.00</rpm>
</extensions>
</trkpt>
<trkpt lat="64.215179443" lon="-20.736072540">
<ele>88.224609</ele>
<time>2012-07-19T15:24:56Z</time>
<speed>4.900000</speed>
<extensions>
<speed>4.9</speed>
<temp>0.00</temp>
<bpm>0</bpm>
<rpm>0.00</rpm>
</extensions>
</trkpt>
<trkpt lat="64.215393066" lon="-20.735887527">
<ele>87.365234</ele>
<time>2012-07-19T15:25:01Z</time>
<speed>5.180000</speed>
<extensions>
<speed>5.2</speed>
<temp>0.00</temp>
<bpm>0</bpm>
<rpm>0.00</rpm>
</extensions>
</trkpt>
<trkpt lat="64.215606689" lon="-20.735712051">
<ele>86.892578</ele>
<time>2012-07-19T15:25:06Z</time>
<speed>5.160000</speed>
<extensions>
<speed>5.2</speed>
<temp>0.00</temp>
<bpm>0</bpm>
<rpm>0.00</rpm>
</extensions>
</trkpt>
<trkpt lat="64.215843201" lon="-20.735548019">
<ele>87.281250</ele>
<time>2012-07-19T15:25:11Z</time>
<speed>5.120000</speed>
<extensions>
<speed>5.1</speed>
<temp>0.00</temp>
<bpm>0</bpm>
<rpm>0.00</rpm>
</extensions>
</trkpt>
<trkpt lat="64.216056824" lon="-20.735391617">
<ele>87.332031</ele>
<time>2012-07-19T15:25:16Z</time>
<speed>5.150000</speed>
<extensions>
<speed>5.2</speed>
<temp>0.00</temp>
<bpm>0</bpm>
<rpm>0.00</rpm>
</extensions>
</trkpt>
<trkpt lat="64.216278076" lon="-20.735210419">
<ele>87.103516</ele>
<time>2012-07-19T15:25:21Z</time>
<speed>5.050000</speed>
<extensions>
<speed>5.1</speed>
<temp>0.00</temp>
<bpm>0</bpm>
<rpm>0.00</rpm>
</extensions>
</trkpt>
<trkpt lat="64.216453552" lon="-20.734882355">
<ele>86.773438</ele>
<time>2012-07-19T15:25:26Z</time>
<speed>4.540000</speed>
<extensions>
<speed>4.5</speed>
<temp>0.00</temp>
<bpm>0</bpm>
<rpm>0.00</rpm>
</extensions>
</trkpt>
<trkpt lat="64.216629028" lon="-20.734670639">
<ele>85.214844</ele>
<time>2012-07-19T15:25:31Z</time>
<speed>4.090000</speed>
<extensions>
<speed>4.1</speed>
<temp>0.00</temp>
<bpm>0</bpm>
<rpm>0.00</rpm>
</extensions>
</trkpt>
<trkpt lat="64.216712952" lon="-20.734415054">
<ele>84.966797</ele>
<time>2012-07-19T15:25:36Z</time>
<speed>2.310000</speed>
<extensions>
<speed>2.3</speed>
<temp>0.00</temp>
<bpm>0</bpm>
<rpm>0.00</rpm>
</extensions>
</trkpt>
<trkpt lat="64.216758728" lon="-20.734195709">
<ele>87.744141</ele>
<time>2012-07-19T15:25:41Z</time>
<speed>2.340000</speed>
<extensions>
<speed>2.3</speed>
<temp>0.00</temp>
<bpm>0</bpm>
<rpm>0.00</rpm>
</extensions>
</trkpt>
<trkpt lat="64.216781616" lon="-20.734155655">
<ele>88.474609</ele>
<time>2012-07-19T15:25:46Z</time>
<speed>0.150000</speed>
<extensions>
<speed>0.2</speed>
<temp>0.00</temp>
<bpm>0</bpm>
<rpm>0.00</rpm>
</extensions>
</trkpt>
<trkpt lat="64.216781616" lon="-20.734128952">
<ele>88.644531</ele>
<time>2012-07-19T15:25:51Z</time>
<speed>0.920000</speed>
<extensions>
<speed>0.9</speed>
<temp>0.00</temp>
<bpm>0</bpm>
<rpm>0.00</rpm>
</extensions>
</trkpt>
<trkpt lat="64.216751099" lon="-20.734020233">
<ele>88.152344</ele>
<time>2012-07-19T15:25:56Z</time>
<speed>0.730000</speed>
<extensions>
<speed>0.7</speed>
<temp>0.00</temp>
<bpm>0</bpm>
<rpm>0.00</rpm>
</extensions>
</trkpt>
<trkpt lat="64.216758728" lon="-20.733966827">
<ele>88.386719</ele>
<time>2012-07-19T15:26:01Z</time>
<speed>0.030000</speed>
<extensions>
<speed>0.0</speed>
<temp>0.00</temp>
<bpm>0</bpm>
<rpm>0.00</rpm>
</extensions>
</trkpt>
<trkpt lat="64.216758728" lon="-20.733957291">
<ele>88.425781</ele>
<time>2012-07-19T15:26:06Z</time>
<speed>0.110000</speed>
<extensions>
<speed>0.1</speed>
<temp>0.00</temp>
<bpm>0</bpm>
<rpm>0.00</rpm>
</extensions>
</trkpt>
<trkpt lat="64.216758728" lon="-20.733955383">
<ele>88.486328</ele>
<time>2012-07-19T15:26:11Z</time>
<speed>0.010000</speed>
<extensions>
<speed>0.0</speed>
<temp>0.00</temp>
<bpm>0</bpm>
<rpm>0.00</rpm>
</extensions>
</trkpt>
<trkpt lat="64.216758728" lon="-20.733955383">
<ele>88.466797</ele>
<time>2012-07-19T15:26:16Z</time>
<extensions>
<speed>0.0</speed>
<temp>0.00</temp>
<bpm>0</bpm>
<rpm>0.00</rpm>
</extensions>
</trkpt>
<trkpt lat="64.216758728" lon="-20.733955383">
<ele>88.472656</ele>
<time>2012-07-19T15:26:21Z</time>
<extensions>
<speed>0.0</speed>
<temp>0.00</temp>
<bpm>0</bpm>
<rpm>0.00</rpm>
</extensions>
</trkpt>
<trkpt lat="64.216758728" lon="-20.733955383">
<ele>88.474609</ele>
<time>2012-07-19T15:26:26Z</time>
<extensions>
<speed>0.0</speed>
<temp>0.00</temp>
<bpm>0</bpm>
<rpm>0.00</rpm>
</extensions>
</trkpt>
<trkpt lat="64.216758728" lon="-20.733957291">
<ele>88.470703</ele>
<time>2012-07-19T15:26:31Z</time>
<extensions>
<speed>0.0</speed>
<temp>0.00</temp>
<bpm>0</bpm>
<rpm>0.00</rpm>
</extensions>
</trkpt>
<trkpt lat="64.216758728" lon="-20.733957291">
<ele>88.460938</ele>
<time>2012-07-19T15:26:36Z</time>
<speed>0.010000</speed>
<extensions>
<speed>0.0</speed>
<temp>0.00</temp>
<bpm>0</bpm>
<rpm>0.00</rpm>
</extensions>
</trkpt>
<trkpt lat="64.216758728" lon="-20.733957291">
<ele>88.453125</ele>
<time>2012-07-19T15:26:41Z</time>
<extensions>
<speed>0.0</speed>
<temp>0.00</temp>
<bpm>0</bpm>
<rpm>0.00</rpm>
</extensions>
</trkpt>
<trkpt lat="64.216758728" lon="-20.733957291">
<ele>88.451172</ele>
<time>2012-07-19T15:26:46Z</time>
<extensions>
<speed>0.0</speed>
<temp>0.00</temp>
<bpm>0</bpm>
<rpm>0.00</rpm>
</extensions>
</trkpt>
<trkpt lat="64.216758728" lon="-20.733957291">
<ele>88.447266</ele>
<time>2012-07-19T15:26:51Z</time>
<extensions>
<speed>0.0</speed>
<temp>0.00</temp>
<bpm>0</bpm>
<rpm>0.00</rpm>
</extensions>
</trkpt>
<trkpt lat="64.216758728" lon="-20.733957291">
<ele>88.435547</ele>
<time>2012-07-19T15:26:56Z</time>
<speed>0.010000</speed>
<extensions>
<speed>0.0</speed>
<temp>0.00</temp>
<bpm>0</bpm>
<rpm>0.00</rpm>
</extensions>
</trkpt>
<trkpt lat="64.216758728" lon="-20.733957291">
<ele>88.416016</ele>
<time>2012-07-19T15:27:01Z</time>
<extensions>
<speed>0.0</speed>
<temp>0.00</temp>
<bpm>0</bpm>
<rpm>0.00</rpm>
</extensions>
</trkpt>
<trkpt lat="64.216758728" lon="-20.733957291">
<ele>88.412109</ele>
<time>2012-07-19T15:27:06Z</time>
<extensions>
<speed>0.0</speed>
<temp>0.00</temp>
<bpm>0</bpm>
<rpm>0.00</rpm>
</extensions>
</trkpt>
<trkpt lat="64.216758728" lon="-20.733957291">
<ele>88.406250</ele>
<time>2012-07-19T15:27:11Z</time>
<speed>0.010000</speed>
<extensions>
<speed>0.0</speed>
<temp>0.00</temp>
<bpm>0</bpm>
<rpm>0.00</rpm>
</extensions>
</trkpt>
<trkpt lat="64.216758728" lon="-20.733957291">
<ele>88.396484</ele>
<time>2012-07-19T15:27:16Z</time>
<extensions>
<speed>0.0</speed>
<temp>0.00</temp>
<bpm>0</bpm>
<rpm>0.00</rpm>
</extensions>
</trkpt>
<trkpt lat="64.216758728" lon="-20.733959198">
<ele>88.388672</ele>
<time>2012-07-19T15:27:21Z</time>
<extensions>
<speed>0.0</speed>
<temp>0.00</temp>
<bpm>0</bpm>
<rpm>0.00</rpm>
</extensions>
</trkpt>
<trkpt lat="64.216758728" lon="-20.733959198">
<ele>88.382813</ele>
<time>2012-07-19T15:27:26Z</time>
<extensions>
<speed>0.0</speed>
<temp>0.00</temp>
<bpm>0</bpm>
<rpm>0.00</rpm>
</extensions>
</trkpt>
<trkpt lat="64.216758728" lon="-20.733959198">
<ele>88.376953</ele>
<time>2012-07-19T15:27:31Z</time>
<extensions>
<speed>0.0</speed>
<temp>0.00</temp>
<bpm>0</bpm>
<rpm>0.00</rpm>
</extensions>
</trkpt>
<trkpt lat="64.216758728" lon="-20.733959198">
<ele>88.380859</ele>
<time>2012-07-19T15:27:36Z</time>
<speed>0.010000</speed>
<extensions>
<speed>0.0</speed>
<temp>0.00</temp>
<bpm>0</bpm>
<rpm>0.00</rpm>
</extensions>
</trkpt>
<trkpt lat="64.216758728" lon="-20.733957291">
<ele>88.380859</ele>
<time>2012-07-19T15:27:41Z</time>
<extensions>
<speed>0.0</speed>
<temp>0.00</temp>
<bpm>0</bpm>
<rpm>0.00</rpm>
</extensions>
</trkpt>
<trkpt lat="64.216758728" lon="-20.733957291">
<ele>88.386719</ele>
<time>2012-07-19T15:27:46Z</time>
<speed>0.010000</speed>
<extensions>
<speed>0.0</speed>
<temp>0.00</temp>
<bpm>0</bpm>
<rpm>0.00</rpm>
</extensions>
</trkpt>
<trkpt lat="64.216758728" lon="-20.733957291">
<ele>88.386719</ele>
<time>2012-07-19T15:27:51Z</time>
<speed>0.020000</speed>
<extensions>
<speed>0.0</speed>
<temp>0.00</temp>
<bpm>0</bpm>
<rpm>0.00</rpm>
</extensions>
</trkpt>
<trkpt lat="64.216758728" lon="-20.733957291">
<ele>88.394531</ele>
<time>2012-07-19T15:27:56Z</time>
<speed>0.010000</speed>
<extensions>
<speed>0.0</speed>
<temp>0.00</temp>
<bpm>0</bpm>
<rpm>0.00</rpm>
</extensions>
</trkpt>
<trkpt lat="64.216758728" lon="-20.733957291">
<ele>88.404297</ele>
<time>2012-07-19T15:28:01Z</time>
<extensions>
<speed>0.0</speed>
<temp>0.00</temp>
<bpm>0</bpm>
<rpm>0.00</rpm>
</extensions>
</trkpt>
<trkpt lat="64.216758728" lon="-20.733957291">
<ele>88.416016</ele>
<time>2012-07-19T15:28:06Z</time>
<speed>0.010000</speed>
<extensions>
<speed>0.0</speed>
<temp>0.00</temp>
<bpm>0</bpm>
<rpm>0.00</rpm>
</extensions>
</trkpt>
<trkpt lat="64.216758728" lon="-20.733959198">
<ele>88.441406</ele>
<time>2012-07-19T15:28:11Z</time>
<extensions>
<speed>0.0</speed>
<temp>0.00</temp>
<bpm>0</bpm>
<rpm>0.00</rpm>
</extensions>
</trkpt>
<trkpt lat="64.216758728" lon="-20.733959198">
<ele>88.472656</ele>
<time>2012-07-19T15:28:16Z</time>
<speed>0.010000</speed>
<extensions>
<speed>0.0</speed>
<temp>0.00</temp>
<bpm>0</bpm>
<rpm>0.00</rpm>
</extensions>
</trkpt>
<trkpt lat="64.216758728" lon="-20.733959198">
<ele>88.484375</ele>
<time>2012-07-19T15:28:21Z</time>
<extensions>
<speed>0.0</speed>
<temp>0.00</temp>
<bpm>0</bpm>
<rpm>0.00</rpm>
</extensions>
</trkpt>
<trkpt lat="64.216758728" lon="-20.733959198">
<ele>88.498047</ele>
<time>2012-07-19T15:28:26Z</time>
<speed>0.010000</speed>
<extensions>
<speed>0.0</speed>
<temp>0.00</temp>
<bpm>0</bpm>
<rpm>0.00</rpm>
</extensions>
</trkpt>
<trkpt lat="64.216758728" lon="-20.733959198">
<ele>88.490234</ele>
<time>2012-07-19T15:28:31Z</time>
<extensions>
<speed>0.0</speed>
<temp>0.00</temp>
<bpm>0</bpm>
<rpm>0.00</rpm>
</extensions>
</trkpt>
<trkpt lat="64.216758728" lon="-20.733959198">
<ele>88.484375</ele>
<time>2012-07-19T15:28:36Z</time>
<speed>0.010000</speed>
<extensions>
<speed>0.0</speed>
<temp>0.00</temp>
<bpm>0</bpm>
<rpm>0.00</rpm>
</extensions>
</trkpt>
<trkpt lat="64.216758728" lon="-20.733959198">
<ele>88.484375</ele>
<time>2012-07-19T15:28:41Z</time>
<speed>0.010000</speed>
<extensions>
<speed>0.0</speed>
<temp>0.00</temp>
<bpm>0</bpm>
<rpm>0.00</rpm>
</extensions>
</trkpt>
<trkpt lat="64.216758728" lon="-20.733957291">
<ele>88.466797</ele>
<time>2012-07-19T15:28:46Z</time>
<speed>0.010000</speed>
<extensions>
<speed>0.0</speed>
<temp>0.00</temp>
<bpm>0</bpm>
<rpm>0.00</rpm>
</extensions>
</trkpt>
<trkpt lat="64.216758728" lon="-20.733957291">
<ele>88.453125</ele>
<time>2012-07-19T15:28:51Z</time>
<speed>0.010000</speed>
<extensions>
<speed>0.0</speed>
<temp>0.00</temp>
<bpm>0</bpm>
<rpm>0.00</rpm>
</extensions>
</trkpt>
<trkpt lat="64.216758728" lon="-20.733957291">
<ele>88.437500</ele>
<time>2012-07-19T15:28:56Z</time>
<speed>0.010000</speed>
<extensions>
<speed>0.0</speed>
<temp>0.00</temp>
<bpm>0</bpm>
<rpm>0.00</rpm>
</extensions>
</trkpt>
<trkpt lat="64.216758728" lon="-20.733957291">
<ele>88.421875</ele>
<time>2012-07-19T15:29:01Z</time>
<speed>0.010000</speed>
<extensions>
<speed>0.0</speed>
<temp>0.00</temp>
<bpm>0</bpm>
<rpm>0.00</rpm>
</extensions>
</trkpt>
<trkpt lat="64.216758728" lon="-20.733957291">
<ele>88.406250</ele>
<time>2012-07-19T15:29:06Z</time>
<extensions>
<speed>0.0</speed>
<temp>0.00</temp>
<bpm>0</bpm>
<rpm>0.00</rpm>
</extensions>
</trkpt>
<trkpt lat="64.216758728" lon="-20.733957291">
<ele>88.388672</ele>
<time>2012-07-19T15:29:11Z</time>
<speed>0.010000</speed>
<extensions>
<speed>0.0</speed>
<temp>0.00</temp>
<bpm>0</bpm>
<rpm>0.00</rpm>
</extensions>
</trkpt>
<trkpt lat="64.216758728" lon="-20.733957291">
<ele>88.373047</ele>
<time>2012-07-19T15:29:16Z</time>
<extensions>
<speed>0.0</speed>
<temp>0.00</temp>
<bpm>0</bpm>
<rpm>0.00</rpm>
</extensions>
</trkpt>
<trkpt lat="64.216758728" lon="-20.733957291">
<ele>88.380859</ele>
<time>2012-07-19T15:29:21Z</time>
<extensions>
<speed>0.0</speed>
<temp>0.00</temp>
<bpm>0</bpm>
<rpm>0.00</rpm>
</extensions>
</trkpt>
<trkpt lat="64.216758728" lon="-20.733957291">
<ele>88.371094</ele>
<time>2012-07-19T15:29:26Z</time>
<extensions>
<speed>0.0</speed>
<temp>0.00</temp>
<bpm>0</bpm>
<rpm>0.00</rpm>
</extensions>
</trkpt>
<trkpt lat="64.216751099" lon="-20.733957291">
<ele>88.335938</ele>
<time>2012-07-19T15:29:31Z</time>
<extensions>
<speed>0.0</speed>
<temp>0.00</temp>
<bpm>0</bpm>
<rpm>0.00</rpm>
</extensions>
</trkpt>
<trkpt lat="64.216751099" lon="-20.733957291">
<ele>88.302734</ele>
<time>2012-07-19T15:29:36Z</time>
<extensions>
<speed>0.0</speed>
<temp>0.00</temp>
<bpm>0</bpm>
<rpm>0.00</rpm>
</extensions>
</trkpt>
<trkpt lat="64.216751099" lon="-20.733957291">
<ele>88.273438</ele>
<time>2012-07-19T15:29:41Z</time>
<extensions>
<speed>0.0</speed>
<temp>0.00</temp>
<bpm>0</bpm>
<rpm>0.00</rpm>
</extensions>
</trkpt>
<trkpt lat="64.216751099" lon="-20.733957291">
<ele>88.236328</ele>
<time>2012-07-19T15:29:46Z</time>
<extensions>
<speed>0.0</speed>
<temp>0.00</temp>
<bpm>0</bpm>
<rpm>0.00</rpm>
</extensions>
</trkpt>
<trkpt lat="64.216751099" lon="-20.733957291">
<ele>88.214844</ele>
<time>2012-07-19T15:29:51Z</time>
<speed>0.010000</speed>
<extensions>
<speed>0.0</speed>
<temp>0.00</temp>
<bpm>0</bpm>
<rpm>0.00</rpm>
</extensions>
</trkpt>
<trkpt lat="64.216751099" lon="-20.733955383">
<ele>88.162109</ele>
<time>2012-07-19T15:29:56Z</time>
<extensions>
<speed>0.0</speed>
<temp>0.00</temp>
<bpm>0</bpm>
<rpm>0.00</rpm>
</extensions>
</trkpt>
<trkpt lat="64.216751099" lon="-20.733955383">
<ele>88.109375</ele>
<time>2012-07-19T15:30:01Z</time>
<extensions>
<speed>0.0</speed>
<temp>0.00</temp>
<bpm>0</bpm>
<rpm>0.00</rpm>
</extensions>
</trkpt>
<trkpt lat="64.216751099" lon="-20.733957291">
<ele>88.068359</ele>
<time>2012-07-19T15:30:06Z</time>
<extensions>
<speed>0.0</speed>
<temp>0.00</temp>
<bpm>0</bpm>
<rpm>0.00</rpm>
</extensions>
</trkpt>
<trkpt lat="64.216751099" lon="-20.733957291">
<ele>88.031250</ele>
<time>2012-07-19T15:30:11Z</time>
<speed>0.010000</speed>
<extensions>
<speed>0.0</speed>
<temp>0.00</temp>
<bpm>0</bpm>
<rpm>0.00</rpm>
</extensions>
</trkpt>
<trkpt lat="64.216751099" lon="-20.733957291">
<ele>87.996094</ele>
<time>2012-07-19T15:30:16Z</time>
<extensions>
<speed>0.0</speed>
<temp>0.00</temp>
<bpm>0</bpm>
<rpm>0.00</rpm>
</extensions>
</trkpt>
<trkpt lat="64.216751099" lon="-20.733957291">
<ele>87.976563</ele>
<time>2012-07-19T15:30:21Z</time>
<extensions>
<speed>0.0</speed>
<temp>0.00</temp>
<bpm>0</bpm>
<rpm>0.00</rpm>
</extensions>
</trkpt>
<trkpt lat="64.216751099" lon="-20.733957291">
<ele>87.955078</ele>
<time>2012-07-19T15:30:26Z</time>
<speed>0.010000</speed>
<extensions>
<speed>0.0</speed>
<temp>0.00</temp>
<bpm>0</bpm>
<rpm>0.00</rpm>
</extensions>
</trkpt>
<trkpt lat="64.216751099" lon="-20.733957291">
<ele>87.939453</ele>
<time>2012-07-19T15:30:31Z</time>
<speed>0.010000</speed>
<extensions>
<speed>0.0</speed>
<temp>0.00</temp>
<bpm>0</bpm>
<rpm>0.00</rpm>
</extensions>
</trkpt>
<trkpt lat="64.216751099" lon="-20.733957291">
<ele>87.929688</ele>
<time>2012-07-19T15:30:36Z</time>
<speed>0.010000</speed>
<extensions>
<speed>0.0</speed>
<temp>0.00</temp>
<bpm>0</bpm>
<rpm>0.00</rpm>
</extensions>
</trkpt>
<trkpt lat="64.216751099" lon="-20.733957291">
<ele>87.923828</ele>
<time>2012-07-19T15:30:41Z</time>
<extensions>
<speed>0.0</speed>
<temp>0.00</temp>
<bpm>0</bpm>
<rpm>0.00</rpm>
</extensions>
</trkpt>
<trkpt lat="64.216751099" lon="-20.733957291">
<ele>87.923828</ele>
<time>2012-07-19T15:30:46Z</time>
<extensions>
<speed>0.0</speed>
<temp>0.00</temp>
<bpm>0</bpm>
<rpm>0.00</rpm>
</extensions>
</trkpt>
<trkpt lat="64.216751099" lon="-20.733957291">
<ele>87.908203</ele>
<time>2012-07-19T15:30:51Z</time>
<extensions>
<speed>0.0</speed>
<temp>0.00</temp>
<bpm>0</bpm>
<rpm>0.00</rpm>
</extensions>
</trkpt>
<trkpt lat="64.216751099" lon="-20.733957291">
<ele>87.890625</ele>
<time>2012-07-19T15:30:56Z</time>
<extensions>
<speed>0.0</speed>
<temp>0.00</temp>
<bpm>0</bpm>
<rpm>0.00</rpm>
</extensions>
</trkpt>
<trkpt lat="64.216751099" lon="-20.733957291">
<ele>87.873047</ele>
<time>2012-07-19T15:31:01Z</time>
<speed>0.010000</speed>
<extensions>
<speed>0.0</speed>
<temp>0.00</temp>
<bpm>0</bpm>
<rpm>0.00</rpm>
</extensions>
</trkpt>
<trkpt lat="64.216751099" lon="-20.733957291">
<ele>87.863281</ele>
<time>2012-07-19T15:31:06Z</time>
<extensions>
<speed>0.0</speed>
<temp>0.00</temp>
<bpm>0</bpm>
<rpm>0.00</rpm>
</extensions>
</trkpt>
<trkpt lat="64.216751099" lon="-20.733957291">
<ele>87.863281</ele>
<time>2012-07-19T15:31:11Z</time>
<extensions>
<speed>0.0</speed>
<temp>0.00</temp>
<bpm>0</bpm>
<rpm>0.00</rpm>
</extensions>
</trkpt>
<trkpt lat="64.216751099" lon="-20.733957291">
<ele>87.851563</ele>
<time>2012-07-19T15:31:16Z</time>
<extensions>
<speed>0.0</speed>
<temp>0.00</temp>
<bpm>0</bpm>
<rpm>0.00</rpm>
</extensions>
</trkpt>
<trkpt lat="64.216751099" lon="-20.733957291">
<ele>87.824219</ele>
<time>2012-07-19T15:31:21Z</time>
<extensions>
<speed>0.0</speed>
<temp>0.00</temp>
<bpm>0</bpm>
<rpm>0.00</rpm>
</extensions>
</trkpt>
<trkpt lat="64.216751099" lon="-20.733957291">
<ele>87.800781</ele>
<time>2012-07-19T15:31:26Z</time>
<extensions>
<speed>0.0</speed>
<temp>0.00</temp>
<bpm>0</bpm>
<rpm>0.00</rpm>
</extensions>
</trkpt>
<trkpt lat="64.216751099" lon="-20.733957291">
<ele>87.789063</ele>
<time>2012-07-19T15:31:31Z</time>
<speed>0.010000</speed>
<extensions>
<speed>0.0</speed>
<temp>0.00</temp>
<bpm>0</bpm>
<rpm>0.00</rpm>
</extensions>
</trkpt>
<trkpt lat="64.216751099" lon="-20.733959198">
<ele>87.787109</ele>
<time>2012-07-19T15:31:36Z</time>
<extensions>
<speed>0.0</speed>
<temp>0.00</temp>
<bpm>0</bpm>
<rpm>0.00</rpm>
</extensions>
</trkpt>
<trkpt lat="64.216751099" lon="-20.733959198">
<ele>87.781250</ele>
<time>2012-07-19T15:31:41Z</time>
<extensions>
<speed>0.0</speed>
<temp>0.00</temp>
<bpm>0</bpm>
<rpm>0.00</rpm>
</extensions>
</trkpt>
<trkpt lat="64.216751099" lon="-20.733959198">
<ele>87.771484</ele>
<time>2012-07-19T15:31:46Z</time>
<extensions>
<speed>0.0</speed>
<temp>0.00</temp>
<bpm>0</bpm>
<rpm>0.00</rpm>
</extensions>
</trkpt>
<trkpt lat="64.216751099" lon="-20.733959198">
<ele>87.759766</ele>
<time>2012-07-19T15:31:51Z</time>
<extensions>
<speed>0.0</speed>
<temp>0.00</temp>
<bpm>0</bpm>
<rpm>0.00</rpm>
</extensions>
</trkpt>
<trkpt lat="64.216751099" lon="-20.733959198">
<ele>87.751953</ele>
<time>2012-07-19T15:31:56Z</time>
<extensions>
<speed>0.0</speed>
<temp>0.00</temp>
<bpm>0</bpm>
<rpm>0.00</rpm>
</extensions>
</trkpt>
<trkpt lat="64.216751099" lon="-20.733959198">
<ele>87.746094</ele>
<time>2012-07-19T15:32:01Z</time>
<extensions>
<speed>0.0</speed>
<temp>0.00</temp>
<bpm>0</bpm>
<rpm>0.00</rpm>
</extensions>
</trkpt>
<trkpt lat="64.216751099" lon="-20.733959198">
<ele>87.736328</ele>
<time>2012-07-19T15:32:06Z</time>
<extensions>
<speed>0.0</speed>
<temp>0.00</temp>
<bpm>0</bpm>
<rpm>0.00</rpm>
</extensions>
</trkpt>
<trkpt lat="64.216751099" lon="-20.733959198">
<ele>87.722656</ele>
<time>2012-07-19T15:32:11Z</time>
<extensions>
<speed>0.0</speed>
<temp>0.00</temp>
<bpm>0</bpm>
<rpm>0.00</rpm>
</extensions>
</trkpt>
<trkpt lat="64.216751099" lon="-20.733959198">
<ele>87.703125</ele>
<time>2012-07-19T15:32:16Z</time>
<extensions>
<speed>0.0</speed>
<temp>0.00</temp>
<bpm>0</bpm>
<rpm>0.00</rpm>
</extensions>
</trkpt>
<trkpt lat="64.216751099" lon="-20.733959198">
<ele>87.673828</ele>
<time>2012-07-19T15:32:21Z</time>
<extensions>
<speed>0.0</speed>
<temp>0.00</temp>
<bpm>0</bpm>
<rpm>0.00</rpm>
</extensions>
</trkpt>
<trkpt lat="64.216751099" lon="-20.733959198">
<ele>87.652344</ele>
<time>2012-07-19T15:32:26Z</time>
<extensions>
<speed>0.0</speed>
<temp>0.00</temp>
<bpm>0</bpm>
<rpm>0.00</rpm>
</extensions>
</trkpt>
<trkpt lat="64.216751099" lon="-20.733959198">
<ele>87.638672</ele>
<time>2012-07-19T15:32:31Z</time>
<extensions>
<speed>0.0</speed>
<temp>0.00</temp>
<bpm>0</bpm>
<rpm>0.00</rpm>
</extensions>
</trkpt>
<trkpt lat="64.216751099" lon="-20.733959198">
<ele>87.625000</ele>
<time>2012-07-19T15:32:36Z</time>
<extensions>
<speed>0.0</speed>
<temp>0.00</temp>
<bpm>0</bpm>
<rpm>0.00</rpm>
</extensions>
</trkpt>
<trkpt lat="64.216751099" lon="-20.733959198">
<ele>87.597656</ele>
<time>2012-07-19T15:32:41Z</time>
<extensions>
<speed>0.0</speed>
<temp>0.00</temp>
<bpm>0</bpm>
<rpm>0.00</rpm>
</extensions>
</trkpt>
<trkpt lat="64.216751099" lon="-20.733959198">
<ele>87.556641</ele>
<time>2012-07-19T15:32:46Z</time>
<extensions>
<speed>0.0</speed>
<temp>0.00</temp>
<bpm>0</bpm>
<rpm>0.00</rpm>
</extensions>
</trkpt>
<trkpt lat="64.216751099" lon="-20.733959198">
<ele>87.517578</ele>
<time>2012-07-19T15:32:51Z</time>
<extensions>
<speed>0.0</speed>
<temp>0.00</temp>
<bpm>0</bpm>
<rpm>0.00</rpm>
</extensions>
</trkpt>
<trkpt lat="64.216751099" lon="-20.733959198">
<ele>87.488281</ele>
<time>2012-07-19T15:32:56Z</time>
<extensions>
<speed>0.0</speed>
<temp>0.00</temp>
<bpm>0</bpm>
<rpm>0.00</rpm>
</extensions>
</trkpt>
<trkpt lat="64.216751099" lon="-20.733959198">
<ele>87.470703</ele>
<time>2012-07-19T15:33:01Z</time>
<extensions>
<speed>0.0</speed>
<temp>0.00</temp>
<bpm>0</bpm>
<rpm>0.00</rpm>
</extensions>
</trkpt>
<trkpt lat="64.216751099" lon="-20.733959198">
<ele>87.453125</ele>
<time>2012-07-19T15:33:06Z</time>
<extensions>
<speed>0.0</speed>
<temp>0.00</temp>
<bpm>0</bpm>
<rpm>0.00</rpm>
</extensions>
</trkpt>
<trkpt lat="64.216751099" lon="-20.733959198">
<ele>87.435547</ele>
<time>2012-07-19T15:33:11Z</time>
<extensions>
<speed>0.0</speed>
<temp>0.00</temp>
<bpm>0</bpm>
<rpm>0.00</rpm>
</extensions>
</trkpt>
<trkpt lat="64.216751099" lon="-20.733959198">
<ele>87.412109</ele>
<time>2012-07-19T15:33:16Z</time>
<extensions>
<speed>0.0</speed>
<temp>0.00</temp>
<bpm>0</bpm>
<rpm>0.00</rpm>
</extensions>
</trkpt>
<trkpt lat="64.216751099" lon="-20.733959198">
<ele>87.386719</ele>
<time>2012-07-19T15:33:21Z</time>
<extensions>
<speed>0.0</speed>
<temp>0.00</temp>
<bpm>0</bpm>
<rpm>0.00</rpm>
</extensions>
</trkpt>
<trkpt lat="64.216751099" lon="-20.733959198">
<ele>87.367188</ele>
<time>2012-07-19T15:33:26Z</time>
<speed>0.010000</speed>
<extensions>
<speed>0.0</speed>
<temp>0.00</temp>
<bpm>0</bpm>
<rpm>0.00</rpm>
</extensions>
</trkpt>
<trkpt lat="64.216751099" lon="-20.733959198">
<ele>87.351563</ele>
<time>2012-07-19T15:33:31Z</time>
<extensions>
<speed>0.0</speed>
<temp>0.00</temp>
<bpm>0</bpm>
<rpm>0.00</rpm>
</extensions>
</trkpt>
<trkpt lat="64.216751099" lon="-20.733959198">
<ele>87.345703</ele>
<time>2012-07-19T15:33:36Z</time>
<extensions>
<speed>0.0</speed>
<temp>0.00</temp>
<bpm>0</bpm>
<rpm>0.00</rpm>
</extensions>
</trkpt>
<trkpt lat="64.216751099" lon="-20.733959198">
<ele>87.349609</ele>
<time>2012-07-19T15:33:41Z</time>
<extensions>
<speed>0.0</speed>
<temp>0.00</temp>
<bpm>0</bpm>
<rpm>0.00</rpm>
</extensions>
</trkpt>
<trkpt lat="64.216751099" lon="-20.733959198">
<ele>87.351563</ele>
<time>2012-07-19T15:33:46Z</time>
<extensions>
<speed>0.0</speed>
<temp>0.00</temp>
<bpm>0</bpm>
<rpm>0.00</rpm>
</extensions>
</trkpt>
<trkpt lat="64.216751099" lon="-20.733959198">
<ele>87.359375</ele>
<time>2012-07-19T15:33:51Z</time>
<extensions>
<speed>0.0</speed>
<temp>0.00</temp>
<bpm>0</bpm>
<rpm>0.00</rpm>
</extensions>
</trkpt>
<trkpt lat="64.216751099" lon="-20.733961105">
<ele>87.363281</ele>
<time>2012-07-19T15:33:56Z</time>
<speed>0.010000</speed>
<extensions>
<speed>0.0</speed>
<temp>0.00</temp>
<bpm>0</bpm>
<rpm>0.00</rpm>
</extensions>
</trkpt>
<trkpt lat="64.216751099" lon="-20.733961105">
<ele>87.365234</ele>
<time>2012-07-19T15:34:01Z</time>
<speed>0.010000</speed>
<extensions>
<speed>0.0</speed>
<temp>0.00</temp>
<bpm>0</bpm>
<rpm>0.00</rpm>
</extensions>
</trkpt>
<trkpt lat="64.216751099" lon="-20.733961105">
<ele>87.376953</ele>
<time>2012-07-19T15:34:06Z</time>
<extensions>
<speed>0.0</speed>
<temp>0.00</temp>
<bpm>0</bpm>
<rpm>0.00</rpm>
</extensions>
</trkpt>
<trkpt lat="64.216751099" lon="-20.733961105">
<ele>87.384766</ele>
<time>2012-07-19T15:34:11Z</time>
<extensions>
<speed>0.0</speed>
<temp>0.00</temp>
<bpm>0</bpm>
<rpm>0.00</rpm>
</extensions>
</trkpt>
<trkpt lat="64.216751099" lon="-20.733961105">
<ele>87.398438</ele>
<time>2012-07-19T15:34:16Z</time>
<extensions>
<speed>0.0</speed>
<temp>0.00</temp>
<bpm>0</bpm>
<rpm>0.00</rpm>
</extensions>
</trkpt>
<trkpt lat="64.216751099" lon="-20.733961105">
<ele>87.406250</ele>
<time>2012-07-19T15:34:21Z</time>
<speed>0.010000</speed>
<extensions>
<speed>0.0</speed>
<temp>0.00</temp>
<bpm>0</bpm>
<rpm>0.00</rpm>
</extensions>
</trkpt>
<trkpt lat="64.216751099" lon="-20.733961105">
<ele>87.416016</ele>
<time>2012-07-19T15:34:26Z</time>
<extensions>
<speed>0.0</speed>
<temp>0.00</temp>
<bpm>0</bpm>
<rpm>0.00</rpm>
</extensions>
</trkpt>
<trkpt lat="64.216751099" lon="-20.733961105">
<ele>87.419922</ele>
<time>2012-07-19T15:34:31Z</time>
<extensions>
<speed>0.0</speed>
<temp>0.00</temp>
<bpm>0</bpm>
<rpm>0.00</rpm>
</extensions>
</trkpt>
<trkpt lat="64.216751099" lon="-20.733961105">
<ele>87.419922</ele>
<time>2012-07-19T15:34:36Z</time>
<extensions>
<speed>0.0</speed>
<temp>0.00</temp>
<bpm>0</bpm>
<rpm>0.00</rpm>
</extensions>
</trkpt>
<trkpt lat="64.216751099" lon="-20.733961105">
<ele>87.414063</ele>
<time>2012-07-19T15:34:41Z</time>
<extensions>
<speed>0.0</speed>
<temp>0.00</temp>
<bpm>0</bpm>
<rpm>0.00</rpm>
</extensions>
</trkpt>
<trkpt lat="64.216751099" lon="-20.733961105">
<ele>87.410156</ele>
<time>2012-07-19T15:34:46Z</time>
<extensions>
<speed>0.0</speed>
<temp>0.00</temp>
<bpm>0</bpm>
<rpm>0.00</rpm>
</extensions>
</trkpt>
<trkpt lat="64.216751099" lon="-20.733961105">
<ele>87.404297</ele>
<time>2012-07-19T15:34:51Z</time>
<extensions>
<speed>0.0</speed>
<temp>0.00</temp>
<bpm>0</bpm>
<rpm>0.00</rpm>
</extensions>
</trkpt>
<trkpt lat="64.216751099" lon="-20.733961105">
<ele>87.398438</ele>
<time>2012-07-19T15:34:56Z</time>
<extensions>
<speed>0.0</speed>
<temp>0.00</temp>
<bpm>0</bpm>
<rpm>0.00</rpm>
</extensions>
</trkpt>
<trkpt lat="64.216751099" lon="-20.733961105">
<ele>87.394531</ele>
<time>2012-07-19T15:35:01Z</time>
<extensions>
<speed>0.0</speed>
<temp>0.00</temp>
<bpm>0</bpm>
<rpm>0.00</rpm>
</extensions>
</trkpt>
<trkpt lat="64.216758728" lon="-20.733963013">
<ele>87.402344</ele>
<time>2012-07-19T15:35:06Z</time>
<extensions>
<speed>0.0</speed>
<temp>0.00</temp>
<bpm>0</bpm>
<rpm>0.00</rpm>
</extensions>
</trkpt>
<trkpt lat="64.216758728" lon="-20.733963013">
<ele>87.414063</ele>
<time>2012-07-19T15:35:11Z</time>
<extensions>
<speed>0.0</speed>
<temp>0.00</temp>
<bpm>0</bpm>
<rpm>0.00</rpm>
</extensions>
</trkpt>
<trkpt lat="64.216758728" lon="-20.733963013">
<ele>87.427734</ele>
<time>2012-07-19T15:35:16Z</time>
<speed>0.010000</speed>
<extensions>
<speed>0.0</speed>
<temp>0.00</temp>
<bpm>0</bpm>
<rpm>0.00</rpm>
</extensions>
</trkpt>
<trkpt lat="64.216758728" lon="-20.733963013">
<ele>87.441406</ele>
<time>2012-07-19T15:35:21Z</time>
<extensions>
<speed>0.0</speed>
<temp>0.00</temp>
<bpm>0</bpm>
<rpm>0.00</rpm>
</extensions>
</trkpt>
<trkpt lat="64.216758728" lon="-20.733963013">
<ele>87.445313</ele>
<time>2012-07-19T15:35:26Z</time>
<extensions>
<speed>0.0</speed>
<temp>0.00</temp>
<bpm>0</bpm>
<rpm>0.00</rpm>
</extensions>
</trkpt>
<trkpt lat="64.216758728" lon="-20.733963013">
<ele>87.441406</ele>
<time>2012-07-19T15:35:31Z</time>
<extensions>
<speed>0.0</speed>
<temp>0.00</temp>
<bpm>0</bpm>
<rpm>0.00</rpm>
</extensions>
</trkpt>
<trkpt lat="64.216758728" lon="-20.733963013">
<ele>87.429688</ele>
<time>2012-07-19T15:35:36Z</time>
<extensions>
<speed>0.0</speed>
<temp>0.00</temp>
<bpm>0</bpm>
<rpm>0.00</rpm>
</extensions>
</trkpt>
<trkpt lat="64.216758728" lon="-20.733963013">
<ele>87.423828</ele>
<time>2012-07-19T15:35:41Z</time>
<speed>0.010000</speed>
<extensions>
<speed>0.0</speed>
<temp>0.00</temp>
<bpm>0</bpm>
<rpm>0.00</rpm>
</extensions>
</trkpt>
<trkpt lat="64.216758728" lon="-20.733963013">
<ele>87.410156</ele>
<time>2012-07-19T15:35:46Z</time>
<extensions>
<speed>0.0</speed>
<temp>0.00</temp>
<bpm>0</bpm>
<rpm>0.00</rpm>
</extensions>
</trkpt>
<trkpt lat="64.216758728" lon="-20.733963013">
<ele>87.400391</ele>
<time>2012-07-19T15:35:51Z</time>
<speed>0.010000</speed>
<extensions>
<speed>0.0</speed>
<temp>0.00</temp>
<bpm>0</bpm>
<rpm>0.00</rpm>
</extensions>
</trkpt>
<trkpt lat="64.216758728" lon="-20.733963013">
<ele>87.388672</ele>
<time>2012-07-19T15:35:56Z</time>
<extensions>
<speed>0.0</speed>
<temp>0.00</temp>
<bpm>0</bpm>
<rpm>0.00</rpm>
</extensions>
</trkpt>
<trkpt lat="64.216758728" lon="-20.733963013">
<ele>87.384766</ele>
<time>2012-07-19T15:36:01Z</time>
<extensions>
<speed>0.0</speed>
<temp>0.00</temp>
<bpm>0</bpm>
<rpm>0.00</rpm>
</extensions>
</trkpt>
<trkpt lat="64.216758728" lon="-20.733963013">
<ele>87.384766</ele>
<time>2012-07-19T15:36:06Z</time>
<extensions>
<speed>0.0</speed>
<temp>0.00</temp>
<bpm>0</bpm>
<rpm>0.00</rpm>
</extensions>
</trkpt>
<trkpt lat="64.216751099" lon="-20.733963013">
<ele>87.386719</ele>
<time>2012-07-19T15:36:11Z</time>
<extensions>
<speed>0.0</speed>
<temp>0.00</temp>
<bpm>0</bpm>
<rpm>0.00</rpm>
</extensions>
</trkpt>
<trkpt lat="64.216751099" lon="-20.733963013">
<ele>87.382813</ele>
<time>2012-07-19T15:36:16Z</time>
<extensions>
<speed>0.0</speed>
<temp>0.00</temp>
<bpm>0</bpm>
<rpm>0.00</rpm>
</extensions>
</trkpt>
<trkpt lat="64.216751099" lon="-20.733963013">
<ele>87.382813</ele>
<time>2012-07-19T15:36:21Z</time>
<speed>0.010000</speed>
<extensions>
<speed>0.0</speed>
<temp>0.00</temp>
<bpm>0</bpm>
<rpm>0.00</rpm>
</extensions>
</trkpt>
<trkpt lat="64.216751099" lon="-20.733963013">
<ele>87.373047</ele>
<time>2012-07-19T15:36:26Z</time>
<extensions>
<speed>0.0</speed>
<temp>0.00</temp>
<bpm>0</bpm>
<rpm>0.00</rpm>
</extensions>
</trkpt>
<trkpt lat="64.216751099" lon="-20.733963013">
<ele>87.367188</ele>
<time>2012-07-19T15:36:31Z</time>
<extensions>
<speed>0.0</speed>
<temp>0.00</temp>
<bpm>0</bpm>
<rpm>0.00</rpm>
</extensions>
</trkpt>
<trkpt lat="64.216751099" lon="-20.733963013">
<ele>87.355469</ele>
<time>2012-07-19T15:36:36Z</time>
<extensions>
<speed>0.0</speed>
<temp>0.00</temp>
<bpm>0</bpm>
<rpm>0.00</rpm>
</extensions>
</trkpt>
<trkpt lat="64.216751099" lon="-20.733963013">
<ele>87.343750</ele>
<time>2012-07-19T15:36:41Z</time>
<extensions>
<speed>0.0</speed>
<temp>0.00</temp>
<bpm>0</bpm>
<rpm>0.00</rpm>
</extensions>
</trkpt>
<trkpt lat="64.216758728" lon="-20.733963013">
<ele>87.333984</ele>
<time>2012-07-19T15:36:46Z</time>
<extensions>
<speed>0.0</speed>
<temp>0.00</temp>
<bpm>0</bpm>
<rpm>0.00</rpm>
</extensions>
</trkpt>
<trkpt lat="64.216758728" lon="-20.733963013">
<ele>87.324219</ele>
<time>2012-07-19T15:36:51Z</time>
<extensions>
<speed>0.0</speed>
<temp>0.00</temp>
<bpm>0</bpm>
<rpm>0.00</rpm>
</extensions>
</trkpt>
<trkpt lat="64.216758728" lon="-20.733963013">
<ele>87.322266</ele>
<time>2012-07-19T15:36:56Z</time>
<extensions>
<speed>0.0</speed>
<temp>0.00</temp>
<bpm>0</bpm>
<rpm>0.00</rpm>
</extensions>
</trkpt>
<trkpt lat="64.216758728" lon="-20.733963013">
<ele>87.324219</ele>
<time>2012-07-19T15:37:01Z</time>
<extensions>
<speed>0.0</speed>
<temp>0.00</temp>
<bpm>0</bpm>
<rpm>0.00</rpm>
</extensions>
</trkpt>
<trkpt lat="64.216758728" lon="-20.733963013">
<ele>87.326172</ele>
<time>2012-07-19T15:37:06Z</time>
<extensions>
<speed>0.0</speed>
<temp>0.00</temp>
<bpm>0</bpm>
<rpm>0.00</rpm>
</extensions>
</trkpt>
<trkpt lat="64.216758728" lon="-20.733963013">
<ele>87.337891</ele>
<time>2012-07-19T15:37:11Z</time>
<extensions>
<speed>0.0</speed>
<temp>0.00</temp>
<bpm>0</bpm>
<rpm>0.00</rpm>
</extensions>
</trkpt>
<trkpt lat="64.216758728" lon="-20.733963013">
<ele>87.351563</ele>
<time>2012-07-19T15:37:16Z</time>
<speed>0.010000</speed>
<extensions>
<speed>0.0</speed>
<temp>0.00</temp>
<bpm>0</bpm>
<rpm>0.00</rpm>
</extensions>
</trkpt>
<trkpt lat="64.216758728" lon="-20.733963013">
<ele>87.353516</ele>
<time>2012-07-19T15:37:21Z</time>
<extensions>
<speed>0.0</speed>
<temp>0.00</temp>
<bpm>0</bpm>
<rpm>0.00</rpm>
</extensions>
</trkpt>
<trkpt lat="64.216758728" lon="-20.733963013">
<ele>87.345703</ele>
<time>2012-07-19T15:37:26Z</time>
<speed>0.010000</speed>
<extensions>
<speed>0.0</speed>
<temp>0.00</temp>
<bpm>0</bpm>
<rpm>0.00</rpm>
</extensions>
</trkpt>
<trkpt lat="64.216758728" lon="-20.733963013">
<ele>87.335938</ele>
<time>2012-07-19T15:37:31Z</time>
<speed>0.010000</speed>
<extensions>
<speed>0.0</speed>
<temp>0.00</temp>
<bpm>0</bpm>
<rpm>0.00</rpm>
</extensions>
</trkpt>
<trkpt lat="64.216758728" lon="-20.733964920">
<ele>87.335938</ele>
<time>2012-07-19T15:37:36Z</time>
<extensions>
<speed>0.0</speed>
<temp>0.00</temp>
<bpm>0</bpm>
<rpm>0.00</rpm>
</extensions>
</trkpt>
<trkpt lat="64.216758728" lon="-20.733964920">
<ele>87.328125</ele>
<time>2012-07-19T15:37:41Z</time>
<extensions>
<speed>0.0</speed>
<temp>0.00</temp>
<bpm>0</bpm>
<rpm>0.00</rpm>
</extensions>
</trkpt>
<trkpt lat="64.216758728" lon="-20.733964920">
<ele>87.320313</ele>
<time>2012-07-19T15:37:46Z</time>
<speed>0.010000</speed>
<extensions>
<speed>0.0</speed>
<temp>0.00</temp>
<bpm>0</bpm>
<rpm>0.00</rpm>
</extensions>
</trkpt>
<trkpt lat="64.216758728" lon="-20.733964920">
<ele>87.304688</ele>
<time>2012-07-19T15:37:51Z</time>
<extensions>
<speed>0.0</speed>
<temp>0.00</temp>
<bpm>0</bpm>
<rpm>0.00</rpm>
</extensions>
</trkpt>
<trkpt lat="64.216758728" lon="-20.733964920">
<ele>87.300781</ele>
<time>2012-07-19T15:37:56Z</time>
<extensions>
<speed>0.0</speed>
<temp>0.00</temp>
<bpm>0</bpm>
<rpm>0.00</rpm>
</extensions>
</trkpt>
<trkpt lat="64.216751099" lon="-20.733964920">
<ele>87.310547</ele>
<time>2012-07-19T15:38:01Z</time>
<extensions>
<speed>0.0</speed>
<temp>0.00</temp>
<bpm>0</bpm>
<rpm>0.00</rpm>
</extensions>
</trkpt>
<trkpt lat="64.216751099" lon="-20.733964920">
<ele>87.333984</ele>
<time>2012-07-19T15:38:06Z</time>
<extensions>
<speed>0.0</speed>
<temp>0.00</temp>
<bpm>0</bpm>
<rpm>0.00</rpm>
</extensions>
</trkpt>
<trkpt lat="64.216751099" lon="-20.733964920">
<ele>87.363281</ele>
<time>2012-07-19T15:38:11Z</time>
<extensions>
<speed>0.0</speed>
<temp>0.00</temp>
<bpm>0</bpm>
<rpm>0.00</rpm>
</extensions>
</trkpt>
<trkpt lat="64.216751099" lon="-20.733964920">
<ele>87.388672</ele>
<time>2012-07-19T15:38:16Z</time>
<extensions>
<speed>0.0</speed>
<temp>0.00</temp>
<bpm>0</bpm>
<rpm>0.00</rpm>
</extensions>
</trkpt>
<trkpt lat="64.216751099" lon="-20.733964920">
<ele>87.416016</ele>
<time>2012-07-19T15:38:21Z</time>
<speed>0.010000</speed>
<extensions>
<speed>0.0</speed>
<temp>0.00</temp>
<bpm>0</bpm>
<rpm>0.00</rpm>
</extensions>
</trkpt>
<trkpt lat="64.216751099" lon="-20.733964920">
<ele>87.431641</ele>
<time>2012-07-19T15:38:26Z</time>
<extensions>
<speed>0.0</speed>
<temp>0.00</temp>
<bpm>0</bpm>
<rpm>0.00</rpm>
</extensions>
</trkpt>
<trkpt lat="64.216751099" lon="-20.733964920">
<ele>87.449219</ele>
<time>2012-07-19T15:38:31Z</time>
<extensions>
<speed>0.0</speed>
<temp>0.00</temp>
<bpm>0</bpm>
<rpm>0.00</rpm>
</extensions>
</trkpt>
<trkpt lat="64.216751099" lon="-20.733964920">
<ele>87.443359</ele>
<time>2012-07-19T15:38:36Z</time>
<extensions>
<speed>0.0</speed>
<temp>0.00</temp>
<bpm>0</bpm>
<rpm>0.00</rpm>
</extensions>
</trkpt>
<trkpt lat="64.216751099" lon="-20.733964920">
<ele>87.443359</ele>
<time>2012-07-19T15:38:41Z</time>
<extensions>
<speed>0.0</speed>
<temp>0.00</temp>
<bpm>0</bpm>
<rpm>0.00</rpm>
</extensions>
</trkpt>
<trkpt lat="64.216751099" lon="-20.733964920">
<ele>87.458984</ele>
<time>2012-07-19T15:38:46Z</time>
<extensions>
<speed>0.0</speed>
<temp>0.00</temp>
<bpm>0</bpm>
<rpm>0.00</rpm>
</extensions>
</trkpt>
<trkpt lat="64.216751099" lon="-20.733964920">
<ele>87.482422</ele>
<time>2012-07-19T15:38:51Z</time>
<extensions>
<speed>0.0</speed>
<temp>0.00</temp>
<bpm>0</bpm>
<rpm>0.00</rpm>
</extensions>
</trkpt>
<trkpt lat="64.216751099" lon="-20.733964920">
<ele>87.490234</ele>
<time>2012-07-19T15:38:56Z</time>
<extensions>
<speed>0.0</speed>
<temp>0.00</temp>
<bpm>0</bpm>
<rpm>0.00</rpm>
</extensions>
</trkpt>
<trkpt lat="64.216751099" lon="-20.733964920">
<ele>87.492188</ele>
<time>2012-07-19T15:39:01Z</time>
<speed>0.010000</speed>
<extensions>
<speed>0.0</speed>
<temp>0.00</temp>
<bpm>0</bpm>
<rpm>0.00</rpm>
</extensions>
</trkpt>
<trkpt lat="64.216751099" lon="-20.733964920">
<ele>87.484375</ele>
<time>2012-07-19T15:39:06Z</time>
<speed>0.010000</speed>
<extensions>
<speed>0.0</speed>
<temp>0.00</temp>
<bpm>0</bpm>
<rpm>0.00</rpm>
</extensions>
</trkpt>
<trkpt lat="64.216751099" lon="-20.733964920">
<ele>87.484375</ele>
<time>2012-07-19T15:39:11Z</time>
<extensions>
<speed>0.0</speed>
<temp>0.00</temp>
<bpm>0</bpm>
<rpm>0.00</rpm>
</extensions>
</trkpt>
<trkpt lat="64.216751099" lon="-20.733964920">
<ele>87.482422</ele>
<time>2012-07-19T15:39:16Z</time>
<extensions>
<speed>0.0</speed>
<temp>0.00</temp>
<bpm>0</bpm>
<rpm>0.00</rpm>
</extensions>
</trkpt>
<trkpt lat="64.216751099" lon="-20.733964920">
<ele>87.482422</ele>
<time>2012-07-19T15:39:21Z</time>
<speed>0.010000</speed>
<extensions>
<speed>0.0</speed>
<temp>0.00</temp>
<bpm>0</bpm>
<rpm>0.00</rpm>
</extensions>
</trkpt>
<trkpt lat="64.216751099" lon="-20.733964920">
<ele>87.488281</ele>
<time>2012-07-19T15:39:26Z</time>
<extensions>
<speed>0.0</speed>
<temp>0.00</temp>
<bpm>0</bpm>
<rpm>0.00</rpm>
</extensions>
</trkpt>
<trkpt lat="64.216751099" lon="-20.733966827">
<ele>87.484375</ele>
<time>2012-07-19T15:39:31Z</time>
<extensions>
<speed>0.0</speed>
<temp>0.00</temp>
<bpm>0</bpm>
<rpm>0.00</rpm>
</extensions>
</trkpt>
<trkpt lat="64.216751099" lon="-20.733966827">
<ele>87.476563</ele>
<time>2012-07-19T15:39:36Z</time>
<speed>0.010000</speed>
<extensions>
<speed>0.0</speed>
<temp>0.00</temp>
<bpm>0</bpm>
<rpm>0.00</rpm>
</extensions>
</trkpt>
<trkpt lat="64.216751099" lon="-20.733966827">
<ele>87.486328</ele>
<time>2012-07-19T15:39:41Z</time>
<speed>0.010000</speed>
<extensions>
<speed>0.0</speed>
<temp>0.00</temp>
<bpm>0</bpm>
<rpm>0.00</rpm>
</extensions>
</trkpt>
<trkpt lat="64.216751099" lon="-20.733966827">
<ele>87.501953</ele>
<time>2012-07-19T15:39:46Z</time>
<speed>0.010000</speed>
<extensions>
<speed>0.0</speed>
<temp>0.00</temp>
<bpm>0</bpm>
<rpm>0.00</rpm>
</extensions>
</trkpt>
<trkpt lat="64.216751099" lon="-20.733966827">
<ele>87.496094</ele>
<time>2012-07-19T15:39:51Z</time>
<extensions>
<speed>0.0</speed>
<temp>0.00</temp>
<bpm>0</bpm>
<rpm>0.00</rpm>
</extensions>
</trkpt>
<trkpt lat="64.216758728" lon="-20.733966827">
<ele>87.496094</ele>
<time>2012-07-19T15:39:56Z</time>
<speed>0.010000</speed>
<extensions>
<speed>0.0</speed>
<temp>0.00</temp>
<bpm>0</bpm>
<rpm>0.00</rpm>
</extensions>
</trkpt>
<trkpt lat="64.216751099" lon="-20.733966827">
<ele>87.496094</ele>
<time>2012-07-19T15:40:01Z</time>
<extensions>
<speed>0.0</speed>
<temp>0.00</temp>
<bpm>0</bpm>
<rpm>0.00</rpm>
</extensions>
</trkpt>
<trkpt lat="64.216758728" lon="-20.733966827">
<ele>87.503906</ele>
<time>2012-07-19T15:40:06Z</time>
<extensions>
<speed>0.0</speed>
<temp>0.00</temp>
<bpm>0</bpm>
<rpm>0.00</rpm>
</extensions>
</trkpt>
<trkpt lat="64.216758728" lon="-20.733966827">
<ele>87.511719</ele>
<time>2012-07-19T15:40:11Z</time>
<extensions>
<speed>0.0</speed>
<temp>0.00</temp>
<bpm>0</bpm>
<rpm>0.00</rpm>
</extensions>
</trkpt>
<trkpt lat="64.216758728" lon="-20.733966827">
<ele>87.527344</ele>
<time>2012-07-19T15:40:16Z</time>
<speed>0.020000</speed>
<extensions>
<speed>0.0</speed>
<temp>0.00</temp>
<bpm>0</bpm>
<rpm>0.00</rpm>
</extensions>
</trkpt>
<trkpt lat="64.216751099" lon="-20.733966827">
<ele>87.533203</ele>
<time>2012-07-19T15:40:21Z</time>
<extensions>
<speed>0.0</speed>
<temp>0.00</temp>
<bpm>0</bpm>
<rpm>0.00</rpm>
</extensions>
</trkpt>
<trkpt lat="64.216751099" lon="-20.733966827">
<ele>87.513672</ele>
<time>2012-07-19T15:40:26Z</time>
<speed>0.010000</speed>
<extensions>
<speed>0.0</speed>
<temp>0.00</temp>
<bpm>0</bpm>
<rpm>0.00</rpm>
</extensions>
</trkpt>
<trkpt lat="64.216751099" lon="-20.733966827">
<ele>87.513672</ele>
<time>2012-07-19T15:40:31Z</time>
<extensions>
<speed>0.0</speed>
<temp>0.00</temp>
<bpm>0</bpm>
<rpm>0.00</rpm>
</extensions>
</trkpt>
<trkpt lat="64.216751099" lon="-20.733966827">
<ele>87.529297</ele>
<time>2012-07-19T15:40:36Z</time>
<speed>0.010000</speed>
<extensions>
<speed>0.0</speed>
<temp>0.00</temp>
<bpm>0</bpm>
<rpm>0.00</rpm>
</extensions>
</trkpt>
<trkpt lat="64.216751099" lon="-20.733966827">
<ele>87.541016</ele>
<time>2012-07-19T15:40:41Z</time>
<extensions>
<speed>0.0</speed>
<temp>0.00</temp>
<bpm>0</bpm>
<rpm>0.00</rpm>
</extensions>
</trkpt>
<trkpt lat="64.216751099" lon="-20.733966827">
<ele>87.529297</ele>
<time>2012-07-19T15:40:46Z</time>
<extensions>
<speed>0.0</speed>
<temp>0.00</temp>
<bpm>0</bpm>
<rpm>0.00</rpm>
</extensions>
</trkpt>
<trkpt lat="64.216751099" lon="-20.733966827">
<ele>87.539063</ele>
<time>2012-07-19T15:40:51Z</time>
<extensions>
<speed>0.0</speed>
<temp>0.00</temp>
<bpm>0</bpm>
<rpm>0.00</rpm>
</extensions>
</trkpt>
<trkpt lat="64.216751099" lon="-20.733966827">
<ele>87.546875</ele>
<time>2012-07-19T15:40:56Z</time>
<speed>0.010000</speed>
<extensions>
<speed>0.0</speed>
<temp>0.00</temp>
<bpm>0</bpm>
<rpm>0.00</rpm>
</extensions>
</trkpt>
<trkpt lat="64.216751099" lon="-20.733966827">
<ele>87.568359</ele>
<time>2012-07-19T15:41:01Z</time>
<speed>0.010000</speed>
<extensions>
<speed>0.0</speed>
<temp>0.00</temp>
<bpm>0</bpm>
<rpm>0.00</rpm>
</extensions>
</trkpt>
<trkpt lat="64.216751099" lon="-20.733966827">
<ele>87.593750</ele>
<time>2012-07-19T15:41:06Z</time>
<extensions>
<speed>0.0</speed>
<temp>0.00</temp>
<bpm>0</bpm>
<rpm>0.00</rpm>
</extensions>
</trkpt>
<trkpt lat="64.216751099" lon="-20.733964920">
<ele>87.628906</ele>
<time>2012-07-19T15:41:11Z</time>
<extensions>
<speed>0.0</speed>
<temp>0.00</temp>
<bpm>0</bpm>
<rpm>0.00</rpm>
</extensions>
</trkpt>
<trkpt lat="64.216751099" lon="-20.733964920">
<ele>87.646484</ele>
<time>2012-07-19T15:41:16Z</time>
<speed>0.010000</speed>
<extensions>
<speed>0.0</speed>
<temp>0.00</temp>
<bpm>0</bpm>
<rpm>0.00</rpm>
</extensions>
</trkpt>
<trkpt lat="64.216751099" lon="-20.733964920">
<ele>87.683594</ele>
<time>2012-07-19T15:41:21Z</time>
<extensions>
<speed>0.0</speed>
<temp>0.00</temp>
<bpm>0</bpm>
<rpm>0.00</rpm>
</extensions>
</trkpt>
<trkpt lat="64.216751099" lon="-20.733964920">
<ele>87.714844</ele>
<time>2012-07-19T15:41:26Z</time>
<extensions>
<speed>0.0</speed>
<temp>0.00</temp>
<bpm>0</bpm>
<rpm>0.00</rpm>
</extensions>
</trkpt>
<trkpt lat="64.216751099" lon="-20.733964920">
<ele>87.740234</ele>
<time>2012-07-19T15:41:31Z</time>
<extensions>
<speed>0.0</speed>
<temp>0.00</temp>
<bpm>0</bpm>
<rpm>0.00</rpm>
</extensions>
</trkpt>
<trkpt lat="64.216751099" lon="-20.733966827">
<ele>87.753906</ele>
<time>2012-07-19T15:41:36Z</time>
<extensions>
<speed>0.0</speed>
<temp>0.00</temp>
<bpm>0</bpm>
<rpm>0.00</rpm>
</extensions>
</trkpt>
<trkpt lat="64.216751099" lon="-20.733966827">
<ele>87.791016</ele>
<time>2012-07-19T15:41:41Z</time>
<extensions>
<speed>0.0</speed>
<temp>0.00</temp>
<bpm>0</bpm>
<rpm>0.00</rpm>
</extensions>
</trkpt>
<trkpt lat="64.216751099" lon="-20.733964920">
<ele>87.832031</ele>
<time>2012-07-19T15:41:46Z</time>
<speed>0.010000</speed>
<extensions>
<speed>0.0</speed>
<temp>0.00</temp>
<bpm>0</bpm>
<rpm>0.00</rpm>
</extensions>
</trkpt>
<trkpt lat="64.216751099" lon="-20.733964920">
<ele>87.843750</ele>
<time>2012-07-19T15:41:51Z</time>
<extensions>
<speed>0.0</speed>
<temp>0.00</temp>
<bpm>0</bpm>
<rpm>0.00</rpm>
</extensions>
</trkpt>
<trkpt lat="64.216751099" lon="-20.733964920">
<ele>87.828125</ele>
<time>2012-07-19T15:41:56Z</time>
<speed>0.010000</speed>
<extensions>
<speed>0.0</speed>
<temp>0.00</temp>
<bpm>0</bpm>
<rpm>0.00</rpm>
</extensions>
</trkpt>
<trkpt lat="64.216751099" lon="-20.733964920">
<ele>87.810547</ele>
<time>2012-07-19T15:42:01Z</time>
<extensions>
<speed>0.0</speed>
<temp>0.00</temp>
<bpm>0</bpm>
<rpm>0.00</rpm>
</extensions>
</trkpt>
<trkpt lat="64.216751099" lon="-20.733964920">
<ele>87.781250</ele>
<time>2012-07-19T15:42:06Z</time>
<extensions>
<speed>0.0</speed>
<temp>0.00</temp>
<bpm>0</bpm>
<rpm>0.00</rpm>
</extensions>
</trkpt>
<trkpt lat="64.216751099" lon="-20.733964920">
<ele>87.761719</ele>
<time>2012-07-19T15:42:11Z</time>
<extensions>
<speed>0.0</speed>
<temp>0.00</temp>
<bpm>0</bpm>
<rpm>0.00</rpm>
</extensions>
</trkpt>
<trkpt lat="64.216751099" lon="-20.733964920">
<ele>87.736328</ele>
<time>2012-07-19T15:42:16Z</time>
<extensions>
<speed>0.0</speed>
<temp>0.00</temp>
<bpm>0</bpm>
<rpm>0.00</rpm>
</extensions>
</trkpt>
<trkpt lat="64.216751099" lon="-20.733964920">
<ele>87.720703</ele>
<time>2012-07-19T15:42:21Z</time>
<extensions>
<speed>0.0</speed>
<temp>0.00</temp>
<bpm>0</bpm>
<rpm>0.00</rpm>
</extensions>
</trkpt>
<trkpt lat="64.216751099" lon="-20.733964920">
<ele>87.701172</ele>
<time>2012-07-19T15:42:26Z</time>
<extensions>
<speed>0.0</speed>
<temp>0.00</temp>
<bpm>0</bpm>
<rpm>0.00</rpm>
</extensions>
</trkpt>
<trkpt lat="64.216751099" lon="-20.733966827">
<ele>87.705078</ele>
<time>2012-07-19T15:42:31Z</time>
<extensions>
<speed>0.0</speed>
<temp>0.00</temp>
<bpm>0</bpm>
<rpm>0.00</rpm>
</extensions>
</trkpt>
<trkpt lat="64.216751099" lon="-20.733966827">
<ele>87.699219</ele>
<time>2012-07-19T15:42:36Z</time>
<extensions>
<speed>0.0</speed>
<temp>0.00</temp>
<bpm>0</bpm>
<rpm>0.00</rpm>
</extensions>
</trkpt>
<trkpt lat="64.216751099" lon="-20.733966827">
<ele>87.699219</ele>
<time>2012-07-19T15:42:41Z</time>
<speed>0.010000</speed>
<extensions>
<speed>0.0</speed>
<temp>0.00</temp>
<bpm>0</bpm>
<rpm>0.00</rpm>
</extensions>
</trkpt>
<trkpt lat="64.216751099" lon="-20.733966827">
<ele>87.718750</ele>
<time>2012-07-19T15:42:46Z</time>
<speed>0.010000</speed>
<extensions>
<speed>0.0</speed>
<temp>0.00</temp>
<bpm>0</bpm>
<rpm>0.00</rpm>
</extensions>
</trkpt>
<trkpt lat="64.216751099" lon="-20.733966827">
<ele>87.726563</ele>
<time>2012-07-19T15:42:51Z</time>
<speed>0.010000</speed>
<extensions>
<speed>0.0</speed>
<temp>0.00</temp>
<bpm>0</bpm>
<rpm>0.00</rpm>
</extensions>
</trkpt>
<trkpt lat="64.216751099" lon="-20.733966827">
<ele>87.710938</ele>
<time>2012-07-19T15:42:56Z</time>
<speed>0.020000</speed>
<extensions>
<speed>0.0</speed>
<temp>0.00</temp>
<bpm>0</bpm>
<rpm>0.00</rpm>
</extensions>
</trkpt>
<trkpt lat="64.216751099" lon="-20.733966827">
<ele>87.705078</ele>
<time>2012-07-19T15:43:01Z</time>
<extensions>
<speed>0.0</speed>
<temp>0.00</temp>
<bpm>0</bpm>
<rpm>0.00</rpm>
</extensions>
</trkpt>
<trkpt lat="64.216751099" lon="-20.733966827">
<ele>87.714844</ele>
<time>2012-07-19T15:43:06Z</time>
<speed>0.020000</speed>
<extensions>
<speed>0.0</speed>
<temp>0.00</temp>
<bpm>0</bpm>
<rpm>0.00</rpm>
</extensions>
</trkpt>
<trkpt lat="64.216751099" lon="-20.733966827">
<ele>87.710938</ele>
<time>2012-07-19T15:43:11Z</time>
<extensions>
<speed>0.0</speed>
<temp>0.00</temp>
<bpm>0</bpm>
<rpm>0.00</rpm>
</extensions>
</trkpt>
<trkpt lat="64.216751099" lon="-20.733966827">
<ele>87.710938</ele>
<time>2012-07-19T15:43:16Z</time>
<extensions>
<speed>0.0</speed>
<temp>0.00</temp>
<bpm>0</bpm>
<rpm>0.00</rpm>
</extensions>
</trkpt>
<trkpt lat="64.216751099" lon="-20.733966827">
<ele>87.693359</ele>
<time>2012-07-19T15:43:21Z</time>
<extensions>
<speed>0.0</speed>
<temp>0.00</temp>
<bpm>0</bpm>
<rpm>0.00</rpm>
</extensions>
</trkpt>
<trkpt lat="64.216751099" lon="-20.733966827">
<ele>87.689453</ele>
<time>2012-07-19T15:43:26Z</time>
<extensions>
<speed>0.0</speed>
<temp>0.00</temp>
<bpm>0</bpm>
<rpm>0.00</rpm>
</extensions>
</trkpt>
<trkpt lat="64.216751099" lon="-20.733966827">
<ele>87.666016</ele>
<time>2012-07-19T15:43:31Z</time>
<extensions>
<speed>0.0</speed>
<temp>0.00</temp>
<bpm>0</bpm>
<rpm>0.00</rpm>
</extensions>
</trkpt>
<trkpt lat="64.216751099" lon="-20.733966827">
<ele>87.671875</ele>
<time>2012-07-19T15:43:36Z</time>
<speed>0.010000</speed>
<extensions>
<speed>0.0</speed>
<temp>0.00</temp>
<bpm>0</bpm>
<rpm>0.00</rpm>
</extensions>
</trkpt>
<trkpt lat="64.216751099" lon="-20.733966827">
<ele>87.652344</ele>
<time>2012-07-19T15:43:41Z</time>
<extensions>
<speed>0.0</speed>
<temp>0.00</temp>
<bpm>0</bpm>
<rpm>0.00</rpm>
</extensions>
</trkpt>
<trkpt lat="64.216751099" lon="-20.733966827">
<ele>87.640625</ele>
<time>2012-07-19T15:43:46Z</time>
<extensions>
<speed>0.0</speed>
<temp>0.00</temp>
<bpm>0</bpm>
<rpm>0.00</rpm>
</extensions>
</trkpt>
<trkpt lat="64.216751099" lon="-20.733966827">
<ele>87.640625</ele>
<time>2012-07-19T15:43:51Z</time>
<extensions>
<speed>0.0</speed>
<temp>0.00</temp>
<bpm>0</bpm>
<rpm>0.00</rpm>
</extensions>
</trkpt>
<trkpt lat="64.216751099" lon="-20.733964920">
<ele>87.640625</ele>
<time>2012-07-19T15:43:56Z</time>
<extensions>
<speed>0.0</speed>
<temp>0.00</temp>
<bpm>0</bpm>
<rpm>0.00</rpm>
</extensions>
</trkpt>
<trkpt lat="64.216751099" lon="-20.733964920">
<ele>87.640625</ele>
<time>2012-07-19T15:44:01Z</time>
<extensions>
<speed>0.0</speed>
<temp>0.00</temp>
<bpm>0</bpm>
<rpm>0.00</rpm>
</extensions>
</trkpt>
<trkpt lat="64.216751099" lon="-20.733964920">
<ele>87.628906</ele>
<time>2012-07-19T15:44:06Z</time>
<extensions>
<speed>0.0</speed>
<temp>0.00</temp>
<bpm>0</bpm>
<rpm>0.00</rpm>
</extensions>
</trkpt>
<trkpt lat="64.216743469" lon="-20.733964920">
<ele>87.617188</ele>
<time>2012-07-19T15:44:11Z</time>
<extensions>
<speed>0.0</speed>
<temp>0.00</temp>
<bpm>0</bpm>
<rpm>0.00</rpm>
</extensions>
</trkpt>
<trkpt lat="64.216743469" lon="-20.733963013">
<ele>87.607422</ele>
<time>2012-07-19T15:44:16Z</time>
<extensions>
<speed>0.0</speed>
<temp>0.00</temp>
<bpm>0</bpm>
<rpm>0.00</rpm>
</extensions>
</trkpt>
<trkpt lat="64.216743469" lon="-20.733963013">
<ele>87.597656</ele>
<time>2012-07-19T15:44:21Z</time>
<speed>0.010000</speed>
<extensions>
<speed>0.0</speed>
<temp>0.00</temp>
<bpm>0</bpm>
<rpm>0.00</rpm>
</extensions>
</trkpt>
<trkpt lat="64.216743469" lon="-20.733963013">
<ele>87.583984</ele>
<time>2012-07-19T15:44:26Z</time>
<speed>0.010000</speed>
<extensions>
<speed>0.0</speed>
<temp>0.00</temp>
<bpm>0</bpm>
<rpm>0.00</rpm>
</extensions>
</trkpt>
<trkpt lat="64.216743469" lon="-20.733963013">
<ele>87.568359</ele>
<time>2012-07-19T15:44:31Z</time>
<extensions>
<speed>0.0</speed>
<temp>0.00</temp>
<bpm>0</bpm>
<rpm>0.00</rpm>
</extensions>
</trkpt>
<trkpt lat="64.216743469" lon="-20.733963013">
<ele>87.550781</ele>
<time>2012-07-19T15:44:36Z</time>
<extensions>
<speed>0.0</speed>
<temp>0.00</temp>
<bpm>0</bpm>
<rpm>0.00</rpm>
</extensions>
</trkpt>
<trkpt lat="64.216743469" lon="-20.733963013">
<ele>87.544922</ele>
<time>2012-07-19T15:44:41Z</time>
<extensions>
<speed>0.0</speed>
<temp>0.00</temp>
<bpm>0</bpm>
<rpm>0.00</rpm>
</extensions>
</trkpt>
<trkpt lat="64.216743469" lon="-20.733963013">
<ele>87.542969</ele>
<time>2012-07-19T15:44:46Z</time>
<extensions>
<speed>0.0</speed>
<temp>0.00</temp>
<bpm>0</bpm>
<rpm>0.00</rpm>
</extensions>
</trkpt>
<trkpt lat="64.216743469" lon="-20.733963013">
<ele>87.539063</ele>
<time>2012-07-19T15:44:51Z</time>
<speed>0.010000</speed>
<extensions>
<speed>0.0</speed>
<temp>0.00</temp>
<bpm>0</bpm>
<rpm>0.00</rpm>
</extensions>
</trkpt>
<trkpt lat="64.216743469" lon="-20.733961105">
<ele>87.525391</ele>
<time>2012-07-19T15:44:56Z</time>
<extensions>
<speed>0.0</speed>
<temp>0.00</temp>
<bpm>0</bpm>
<rpm>0.00</rpm>
</extensions>
</trkpt>
<trkpt lat="64.216743469" lon="-20.733961105">
<ele>87.507813</ele>
<time>2012-07-19T15:45:01Z</time>
<extensions>
<speed>0.0</speed>
<temp>0.00</temp>
<bpm>0</bpm>
<rpm>0.00</rpm>
</extensions>
</trkpt>
<trkpt lat="64.216743469" lon="-20.733961105">
<ele>87.500000</ele>
<time>2012-07-19T15:45:06Z</time>
<speed>0.010000</speed>
<extensions>
<speed>0.0</speed>
<temp>0.00</temp>
<bpm>0</bpm>
<rpm>0.00</rpm>
</extensions>
</trkpt>
<trkpt lat="64.216743469" lon="-20.733961105">
<ele>87.470703</ele>
<time>2012-07-19T15:45:11Z</time>
<speed>0.010000</speed>
<extensions>
<speed>0.0</speed>
<temp>0.00</temp>
<bpm>0</bpm>
<rpm>0.00</rpm>
</extensions>
</trkpt>
<trkpt lat="64.216743469" lon="-20.733961105">
<ele>87.431641</ele>
<time>2012-07-19T15:45:16Z</time>
<extensions>
<speed>0.0</speed>
<temp>0.00</temp>
<bpm>0</bpm>
<rpm>0.00</rpm>
</extensions>
</trkpt>
<trkpt lat="64.216743469" lon="-20.733959198">
<ele>87.394531</ele>
<time>2012-07-19T15:45:21Z</time>
<extensions>
<speed>0.0</speed>
<temp>0.00</temp>
<bpm>0</bpm>
<rpm>0.00</rpm>
</extensions>
</trkpt>
<trkpt lat="64.216743469" lon="-20.733959198">
<ele>87.375000</ele>
<time>2012-07-19T15:45:26Z</time>
<speed>0.010000</speed>
<extensions>
<speed>0.0</speed>
<temp>0.00</temp>
<bpm>0</bpm>
<rpm>0.00</rpm>
</extensions>
</trkpt>
<trkpt lat="64.216743469" lon="-20.733959198">
<ele>87.357422</ele>
<time>2012-07-19T15:45:31Z</time>
<extensions>
<speed>0.0</speed>
<temp>0.00</temp>
<bpm>0</bpm>
<rpm>0.00</rpm>
</extensions>
</trkpt>
<trkpt lat="64.216743469" lon="-20.733959198">
<ele>87.333984</ele>
<time>2012-07-19T15:45:36Z</time>
<extensions>
<speed>0.0</speed>
<temp>0.00</temp>
<bpm>0</bpm>
<rpm>0.00</rpm>
</extensions>
</trkpt>
<trkpt lat="64.216743469" lon="-20.733959198">
<ele>87.318359</ele>
<time>2012-07-19T15:45:41Z</time>
<extensions>
<speed>0.0</speed>
<temp>0.00</temp>
<bpm>0</bpm>
<rpm>0.00</rpm>
</extensions>
</trkpt>
<trkpt lat="64.216743469" lon="-20.733959198">
<ele>87.294922</ele>
<time>2012-07-19T15:45:46Z</time>
<extensions>
<speed>0.0</speed>
<temp>0.00</temp>
<bpm>0</bpm>
<rpm>0.00</rpm>
</extensions>
</trkpt>
<trkpt lat="64.216743469" lon="-20.733957291">
<ele>87.275391</ele>
<time>2012-07-19T15:45:51Z</time>
<extensions>
<speed>0.0</speed>
<temp>0.00</temp>
<bpm>0</bpm>
<rpm>0.00</rpm>
</extensions>
</trkpt>
<trkpt lat="64.216743469" lon="-20.733957291">
<ele>87.255859</ele>
<time>2012-07-19T15:45:56Z</time>
<extensions>
<speed>0.0</speed>
<temp>0.00</temp>
<bpm>0</bpm>
<rpm>0.00</rpm>
</extensions>
</trkpt>
<trkpt lat="64.216743469" lon="-20.733957291">
<ele>87.234375</ele>
<time>2012-07-19T15:46:01Z</time>
<extensions>
<speed>0.0</speed>
<temp>0.00</temp>
<bpm>0</bpm>
<rpm>0.00</rpm>
</extensions>
</trkpt>
<trkpt lat="64.216743469" lon="-20.733957291">
<ele>87.201172</ele>
<time>2012-07-19T15:46:06Z</time>
<extensions>
<speed>0.0</speed>
<temp>0.00</temp>
<bpm>0</bpm>
<rpm>0.00</rpm>
</extensions>
</trkpt>
<trkpt lat="64.216743469" lon="-20.733957291">
<ele>87.177734</ele>
<time>2012-07-19T15:46:11Z</time>
<extensions>
<speed>0.0</speed>
<temp>0.00</temp>
<bpm>0</bpm>
<rpm>0.00</rpm>
</extensions>
</trkpt>
<trkpt lat="64.216743469" lon="-20.733955383">
<ele>87.164063</ele>
<time>2012-07-19T15:46:16Z</time>
<speed>0.010000</speed>
<extensions>
<speed>0.0</speed>
<temp>0.00</temp>
<bpm>0</bpm>
<rpm>0.00</rpm>
</extensions>
</trkpt>
<trkpt lat="64.216743469" lon="-20.733955383">
<ele>87.138672</ele>
<time>2012-07-19T15:46:21Z</time>
<extensions>
<speed>0.0</speed>
<temp>0.00</temp>
<bpm>0</bpm>
<rpm>0.00</rpm>
</extensions>
</trkpt>
<trkpt lat="64.216743469" lon="-20.733955383">
<ele>87.115234</ele>
<time>2012-07-19T15:46:26Z</time>
<speed>0.010000</speed>
<extensions>
<speed>0.0</speed>
<temp>0.00</temp>
<bpm>0</bpm>
<rpm>0.00</rpm>
</extensions>
</trkpt>
<trkpt lat="64.216743469" lon="-20.733957291">
<ele>87.097656</ele>
<time>2012-07-19T15:46:31Z</time>
<speed>0.010000</speed>
<extensions>
<speed>0.0</speed>
<temp>0.00</temp>
<bpm>0</bpm>
<rpm>0.00</rpm>
</extensions>
</trkpt>
<trkpt lat="64.216743469" lon="-20.733955383">
<ele>87.076172</ele>
<time>2012-07-19T15:46:36Z</time>
<extensions>
<speed>0.0</speed>
<temp>0.00</temp>
<bpm>0</bpm>
<rpm>0.00</rpm>
</extensions>
</trkpt>
<trkpt lat="64.216743469" lon="-20.733957291">
<ele>87.064453</ele>
<time>2012-07-19T15:46:41Z</time>
<extensions>
<speed>0.0</speed>
<temp>0.00</temp>
<bpm>0</bpm>
<rpm>0.00</rpm>
</extensions>
</trkpt>
<trkpt lat="64.216743469" lon="-20.733955383">
<ele>87.048828</ele>
<time>2012-07-19T15:46:46Z</time>
<extensions>
<speed>0.0</speed>
<temp>0.00</temp>
<bpm>0</bpm>
<rpm>0.00</rpm>
</extensions>
</trkpt>
<trkpt lat="64.216743469" lon="-20.733955383">
<ele>87.035156</ele>
<time>2012-07-19T15:46:51Z</time>
<speed>0.010000</speed>
<extensions>
<speed>0.0</speed>
<temp>0.00</temp>
<bpm>0</bpm>
<rpm>0.00</rpm>
</extensions>
</trkpt>
<trkpt lat="64.216743469" lon="-20.733955383">
<ele>87.021484</ele>
<time>2012-07-19T15:46:56Z</time>
<extensions>
<speed>0.0</speed>
<temp>0.00</temp>
<bpm>0</bpm>
<rpm>0.00</rpm>
</extensions>
</trkpt>
<trkpt lat="64.216743469" lon="-20.733955383">
<ele>87.013672</ele>
<time>2012-07-19T15:47:01Z</time>
<extensions>
<speed>0.0</speed>
<temp>0.00</temp>
<bpm>0</bpm>
<rpm>0.00</rpm>
</extensions>
</trkpt>
<trkpt lat="64.216743469" lon="-20.733955383">
<ele>87.009766</ele>
<time>2012-07-19T15:47:06Z</time>
<extensions>
<speed>0.0</speed>
<temp>0.00</temp>
<bpm>0</bpm>
<rpm>0.00</rpm>
</extensions>
</trkpt>
<trkpt lat="64.216743469" lon="-20.733955383">
<ele>86.996094</ele>
<time>2012-07-19T15:47:11Z</time>
<speed>0.010000</speed>
<extensions>
<speed>0.0</speed>
<temp>0.00</temp>
<bpm>0</bpm>
<rpm>0.00</rpm>
</extensions>
</trkpt>
<trkpt lat="64.216743469" lon="-20.733955383">
<ele>86.970703</ele>
<time>2012-07-19T15:47:16Z</time>
<extensions>
<speed>0.0</speed>
<temp>0.00</temp>
<bpm>0</bpm>
<rpm>0.00</rpm>
</extensions>
</trkpt>
<trkpt lat="64.216743469" lon="-20.733957291">
<ele>86.937500</ele>
<time>2012-07-19T15:47:21Z</time>
<extensions>
<speed>0.0</speed>
<temp>0.00</temp>
<bpm>0</bpm>
<rpm>0.00</rpm>
</extensions>
</trkpt>
<trkpt lat="64.216743469" lon="-20.733957291">
<ele>86.910156</ele>
<time>2012-07-19T15:47:26Z</time>
<extensions>
<speed>0.0</speed>
<temp>0.00</temp>
<bpm>0</bpm>
<rpm>0.00</rpm>
</extensions>
</trkpt>
<trkpt lat="64.216743469" lon="-20.733957291">
<ele>86.873047</ele>
<time>2012-07-19T15:47:31Z</time>
<extensions>
<speed>0.0</speed>
<temp>0.00</temp>
<bpm>0</bpm>
<rpm>0.00</rpm>
</extensions>
</trkpt>
<trkpt lat="64.216743469" lon="-20.733957291">
<ele>86.832031</ele>
<time>2012-07-19T15:47:36Z</time>
<extensions>
<speed>0.0</speed>
<temp>0.00</temp>
<bpm>0</bpm>
<rpm>0.00</rpm>
</extensions>
</trkpt>
<trkpt lat="64.216743469" lon="-20.733957291">
<ele>86.800781</ele>
<time>2012-07-19T15:47:41Z</time>
<extensions>
<speed>0.0</speed>
<temp>0.00</temp>
<bpm>0</bpm>
<rpm>0.00</rpm>
</extensions>
</trkpt>
<trkpt lat="64.216743469" lon="-20.733957291">
<ele>86.759766</ele>
<time>2012-07-19T15:47:46Z</time>
<extensions>
<speed>0.0</speed>
<temp>0.00</temp>
<bpm>0</bpm>
<rpm>0.00</rpm>
</extensions>
</trkpt>
<trkpt lat="64.216743469" lon="-20.733957291">
<ele>86.707031</ele>
<time>2012-07-19T15:47:51Z</time>
<extensions>
<speed>0.0</speed>
<temp>0.00</temp>
<bpm>0</bpm>
<rpm>0.00</rpm>
</extensions>
</trkpt>
<trkpt lat="64.216743469" lon="-20.733957291">
<ele>86.664063</ele>
<time>2012-07-19T15:47:56Z</time>
<extensions>
<speed>0.0</speed>
<temp>0.00</temp>
<bpm>0</bpm>
<rpm>0.00</rpm>
</extensions>
</trkpt>
<trkpt lat="64.216743469" lon="-20.733957291">
<ele>86.630859</ele>
<time>2012-07-19T15:48:01Z</time>
<extensions>
<speed>0.0</speed>
<temp>0.00</temp>
<bpm>0</bpm>
<rpm>0.00</rpm>
</extensions>
</trkpt>
<trkpt lat="64.216743469" lon="-20.733957291">
<ele>86.603516</ele>
<time>2012-07-19T15:48:06Z</time>
<extensions>
<speed>0.0</speed>
<temp>0.00</temp>
<bpm>0</bpm>
<rpm>0.00</rpm>
</extensions>
</trkpt>
<trkpt lat="64.216743469" lon="-20.733957291">
<ele>86.576172</ele>
<time>2012-07-19T15:48:11Z</time>
<extensions>
<speed>0.0</speed>
<temp>0.00</temp>
<bpm>0</bpm>
<rpm>0.00</rpm>
</extensions>
</trkpt>
<trkpt lat="64.216743469" lon="-20.733957291">
<ele>86.552734</ele>
<time>2012-07-19T15:48:16Z</time>
<extensions>
<speed>0.0</speed>
<temp>0.00</temp>
<bpm>0</bpm>
<rpm>0.00</rpm>
</extensions>
</trkpt>
<trkpt lat="64.216743469" lon="-20.733957291">
<ele>86.521484</ele>
<time>2012-07-19T15:48:21Z</time>
<extensions>
<speed>0.0</speed>
<temp>0.00</temp>
<bpm>0</bpm>
<rpm>0.00</rpm>
</extensions>
</trkpt>
<trkpt lat="64.216743469" lon="-20.733957291">
<ele>86.503906</ele>
<time>2012-07-19T15:48:26Z</time>
<extensions>
<speed>0.0</speed>
<temp>0.00</temp>
<bpm>0</bpm>
<rpm>0.00</rpm>
</extensions>
</trkpt>
<trkpt lat="64.216743469" lon="-20.733957291">
<ele>86.494141</ele>
<time>2012-07-19T15:48:31Z</time>
<extensions>
<speed>0.0</speed>
<temp>0.00</temp>
<bpm>0</bpm>
<rpm>0.00</rpm>
</extensions>
</trkpt>
<trkpt lat="64.216743469" lon="-20.733957291">
<ele>86.468750</ele>
<time>2012-07-19T15:48:36Z</time>
<speed>0.010000</speed>
<extensions>
<speed>0.0</speed>
<temp>0.00</temp>
<bpm>0</bpm>
<rpm>0.00</rpm>
</extensions>
</trkpt>
<trkpt lat="64.216743469" lon="-20.733957291">
<ele>86.458984</ele>
<time>2012-07-19T15:48:41Z</time>
<extensions>
<speed>0.0</speed>
<temp>0.00</temp>
<bpm>0</bpm>
<rpm>0.00</rpm>
</extensions>
</trkpt>
<trkpt lat="64.216743469" lon="-20.733957291">
<ele>86.457031</ele>
<time>2012-07-19T15:48:46Z</time>
<extensions>
<speed>0.0</speed>
<temp>0.00</temp>
<bpm>0</bpm>
<rpm>0.00</rpm>
</extensions>
</trkpt>
<trkpt lat="64.216743469" lon="-20.733957291">
<ele>86.453125</ele>
<time>2012-07-19T15:48:51Z</time>
<extensions>
<speed>0.0</speed>
<temp>0.00</temp>
<bpm>0</bpm>
<rpm>0.00</rpm>
</extensions>
</trkpt>
<trkpt lat="64.216743469" lon="-20.733957291">
<ele>86.447266</ele>
<time>2012-07-19T15:48:56Z</time>
<extensions>
<speed>0.0</speed>
<temp>0.00</temp>
<bpm>0</bpm>
<rpm>0.00</rpm>
</extensions>
</trkpt>
<trkpt lat="64.216743469" lon="-20.733957291">
<ele>86.441406</ele>
<time>2012-07-19T15:49:01Z</time>
<speed>0.010000</speed>
<extensions>
<speed>0.0</speed>
<temp>0.00</temp>
<bpm>0</bpm>
<rpm>0.00</rpm>
</extensions>
</trkpt>
<trkpt lat="64.216743469" lon="-20.733957291">
<ele>86.437500</ele>
<time>2012-07-19T15:49:06Z</time>
<extensions>
<speed>0.0</speed>
<temp>0.00</temp>
<bpm>0</bpm>
<rpm>0.00</rpm>
</extensions>
</trkpt>
<trkpt lat="64.216743469" lon="-20.733957291">
<ele>86.433594</ele>
<time>2012-07-19T15:49:11Z</time>
<extensions>
<speed>0.0</speed>
<temp>0.00</temp>
<bpm>0</bpm>
<rpm>0.00</rpm>
</extensions>
</trkpt>
<trkpt lat="64.216743469" lon="-20.733955383">
<ele>86.439453</ele>
<time>2012-07-19T15:49:16Z</time>
<extensions>
<speed>0.0</speed>
<temp>0.00</temp>
<bpm>0</bpm>
<rpm>0.00</rpm>
</extensions>
</trkpt>
<trkpt lat="64.216743469" lon="-20.733955383">
<ele>86.443359</ele>
<time>2012-07-19T15:49:21Z</time>
<extensions>
<speed>0.0</speed>
<temp>0.00</temp>
<bpm>0</bpm>
<rpm>0.00</rpm>
</extensions>
</trkpt>
<trkpt lat="64.216743469" lon="-20.733955383">
<ele>86.425781</ele>
<time>2012-07-19T15:49:26Z</time>
<extensions>
<speed>0.0</speed>
<temp>0.00</temp>
<bpm>0</bpm>
<rpm>0.00</rpm>
</extensions>
</trkpt>
<trkpt lat="64.216743469" lon="-20.733955383">
<ele>86.406250</ele>
<time>2012-07-19T15:49:31Z</time>
<extensions>
<speed>0.0</speed>
<temp>0.00</temp>
<bpm>0</bpm>
<rpm>0.00</rpm>
</extensions>
</trkpt>
<trkpt lat="64.216743469" lon="-20.733957291">
<ele>86.388672</ele>
<time>2012-07-19T15:49:36Z</time>
<extensions>
<speed>0.0</speed>
<temp>0.00</temp>
<bpm>0</bpm>
<rpm>0.00</rpm>
</extensions>
</trkpt>
<trkpt lat="64.216743469" lon="-20.733957291">
<ele>86.371094</ele>
<time>2012-07-19T15:49:41Z</time>
<extensions>
<speed>0.0</speed>
<temp>0.00</temp>
<bpm>0</bpm>
<rpm>0.00</rpm>
</extensions>
</trkpt>
<trkpt lat="64.216743469" lon="-20.733957291">
<ele>86.363281</ele>
<time>2012-07-19T15:49:46Z</time>
<extensions>
<speed>0.0</speed>
<temp>0.00</temp>
<bpm>0</bpm>
<rpm>0.00</rpm>
</extensions>
</trkpt>
<trkpt lat="64.216743469" lon="-20.733957291">
<ele>86.369141</ele>
<time>2012-07-19T15:49:51Z</time>
<extensions>
<speed>0.0</speed>
<temp>0.00</temp>
<bpm>0</bpm>
<rpm>0.00</rpm>
</extensions>
</trkpt>
<trkpt lat="64.216743469" lon="-20.733957291">
<ele>86.361328</ele>
<time>2012-07-19T15:49:56Z</time>
<speed>0.010000</speed>
<extensions>
<speed>0.0</speed>
<temp>0.00</temp>
<bpm>0</bpm>
<rpm>0.00</rpm>
</extensions>
</trkpt>
<trkpt lat="64.216743469" lon="-20.733957291">
<ele>86.341797</ele>
<time>2012-07-19T15:50:01Z</time>
<extensions>
<speed>0.0</speed>
<temp>0.00</temp>
<bpm>0</bpm>
<rpm>0.00</rpm>
</extensions>
</trkpt>
<trkpt lat="64.216743469" lon="-20.733957291">
<ele>86.314453</ele>
<time>2012-07-19T15:50:06Z</time>
<extensions>
<speed>0.0</speed>
<temp>0.00</temp>
<bpm>0</bpm>
<rpm>0.00</rpm>
</extensions>
</trkpt>
<trkpt lat="64.216743469" lon="-20.733959198">
<ele>86.291016</ele>
<time>2012-07-19T15:50:11Z</time>
<extensions>
<speed>0.0</speed>
<temp>0.00</temp>
<bpm>0</bpm>
<rpm>0.00</rpm>
</extensions>
</trkpt>
<trkpt lat="64.216743469" lon="-20.733959198">
<ele>86.271484</ele>
<time>2012-07-19T15:50:16Z</time>
<extensions>
<speed>0.0</speed>
<temp>0.00</temp>
<bpm>0</bpm>
<rpm>0.00</rpm>
</extensions>
</trkpt>
<trkpt lat="64.216743469" lon="-20.733959198">
<ele>86.259766</ele>
<time>2012-07-19T15:50:21Z</time>
<extensions>
<speed>0.0</speed>
<temp>0.00</temp>
<bpm>0</bpm>
<rpm>0.00</rpm>
</extensions>
</trkpt>
<trkpt lat="64.216743469" lon="-20.733959198">
<ele>86.244141</ele>
<time>2012-07-19T15:50:26Z</time>
<extensions>
<speed>0.0</speed>
<temp>0.00</temp>
<bpm>0</bpm>
<rpm>0.00</rpm>
</extensions>
</trkpt>
<trkpt lat="64.216743469" lon="-20.733961105">
<ele>86.216797</ele>
<time>2012-07-19T15:50:31Z</time>
<extensions>
<speed>0.0</speed>
<temp>0.00</temp>
<bpm>0</bpm>
<rpm>0.00</rpm>
</extensions>
</trkpt>
<trkpt lat="64.216743469" lon="-20.733961105">
<ele>86.177734</ele>
<time>2012-07-19T15:50:36Z</time>
<extensions>
<speed>0.0</speed>
<temp>0.00</temp>
<bpm>0</bpm>
<rpm>0.00</rpm>
</extensions>
</trkpt>
<trkpt lat="64.216743469" lon="-20.733961105">
<ele>86.142578</ele>
<time>2012-07-19T15:50:41Z</time>
<extensions>
<speed>0.0</speed>
<temp>0.00</temp>
<bpm>0</bpm>
<rpm>0.00</rpm>
</extensions>
</trkpt>
<trkpt lat="64.216743469" lon="-20.733961105">
<ele>86.111328</ele>
<time>2012-07-19T15:50:46Z</time>
<extensions>
<speed>0.0</speed>
<temp>0.00</temp>
<bpm>0</bpm>
<rpm>0.00</rpm>
</extensions>
</trkpt>
<trkpt lat="64.216743469" lon="-20.733961105">
<ele>86.093750</ele>
<time>2012-07-19T15:50:51Z</time>
<extensions>
<speed>0.0</speed>
<temp>0.00</temp>
<bpm>0</bpm>
<rpm>0.00</rpm>
</extensions>
</trkpt>
<trkpt lat="64.216743469" lon="-20.733961105">
<ele>86.083984</ele>
<time>2012-07-19T15:50:56Z</time>
<extensions>
<speed>0.0</speed>
<temp>0.00</temp>
<bpm>0</bpm>
<rpm>0.00</rpm>
</extensions>
</trkpt>
<trkpt lat="64.216743469" lon="-20.733963013">
<ele>86.072266</ele>
<time>2012-07-19T15:51:01Z</time>
<extensions>
<speed>0.0</speed>
<temp>0.00</temp>
<bpm>0</bpm>
<rpm>0.00</rpm>
</extensions>
</trkpt>
<trkpt lat="64.216743469" lon="-20.733963013">
<ele>86.060547</ele>
<time>2012-07-19T15:51:06Z</time>
<extensions>
<speed>0.0</speed>
<temp>0.00</temp>
<bpm>0</bpm>
<rpm>0.00</rpm>
</extensions>
</trkpt>
<trkpt lat="64.216743469" lon="-20.733963013">
<ele>86.056641</ele>
<time>2012-07-19T15:51:11Z</time>
<speed>0.010000</speed>
<extensions>
<speed>0.0</speed>
<temp>0.00</temp>
<bpm>0</bpm>
<rpm>0.00</rpm>
</extensions>
</trkpt>
<trkpt lat="64.216743469" lon="-20.733963013">
<ele>86.070313</ele>
<time>2012-07-19T15:51:16Z</time>
<extensions>
<speed>0.0</speed>
<temp>0.00</temp>
<bpm>0</bpm>
<rpm>0.00</rpm>
</extensions>
</trkpt>
<trkpt lat="64.216743469" lon="-20.733963013">
<ele>86.064453</ele>
<time>2012-07-19T15:51:21Z</time>
<extensions>
<speed>0.0</speed>
<temp>0.00</temp>
<bpm>0</bpm>
<rpm>0.00</rpm>
</extensions>
</trkpt>
<trkpt lat="64.216743469" lon="-20.733963013">
<ele>86.058594</ele>
<time>2012-07-19T15:51:26Z</time>
<extensions>
<speed>0.0</speed>
<temp>0.00</temp>
<bpm>0</bpm>
<rpm>0.00</rpm>
</extensions>
</trkpt>
<trkpt lat="64.216743469" lon="-20.733964920">
<ele>86.048828</ele>
<time>2012-07-19T15:51:31Z</time>
<extensions>
<speed>0.0</speed>
<temp>0.00</temp>
<bpm>0</bpm>
<rpm>0.00</rpm>
</extensions>
</trkpt>
<trkpt lat="64.216743469" lon="-20.733964920">
<ele>86.041016</ele>
<time>2012-07-19T15:51:36Z</time>
<extensions>
<speed>0.0</speed>
<temp>0.00</temp>
<bpm>0</bpm>
<rpm>0.00</rpm>
</extensions>
</trkpt>
<trkpt lat="64.216743469" lon="-20.733964920">
<ele>86.025391</ele>
<time>2012-07-19T15:51:41Z</time>
<extensions>
<speed>0.0</speed>
<temp>0.00</temp>
<bpm>0</bpm>
<rpm>0.00</rpm>
</extensions>
</trkpt>
<trkpt lat="64.216743469" lon="-20.733964920">
<ele>86.021484</ele>
<time>2012-07-19T15:51:46Z</time>
<extensions>
<speed>0.0</speed>
<temp>0.00</temp>
<bpm>0</bpm>
<rpm>0.00</rpm>
</extensions>
</trkpt>
<trkpt lat="64.216743469" lon="-20.733964920">
<ele>86.007813</ele>
<time>2012-07-19T15:51:51Z</time>
<extensions>
<speed>0.0</speed>
<temp>0.00</temp>
<bpm>0</bpm>
<rpm>0.00</rpm>
</extensions>
</trkpt>
<trkpt lat="64.216743469" lon="-20.733964920">
<ele>85.976563</ele>
<time>2012-07-19T15:51:56Z</time>
<extensions>
<speed>0.0</speed>
<temp>0.00</temp>
<bpm>0</bpm>
<rpm>0.00</rpm>
</extensions>
</trkpt>
<trkpt lat="64.216743469" lon="-20.733966827">
<ele>85.945313</ele>
<time>2012-07-19T15:52:01Z</time>
<extensions>
<speed>0.0</speed>
<temp>0.00</temp>
<bpm>0</bpm>
<rpm>0.00</rpm>
</extensions>
</trkpt>
<trkpt lat="64.216743469" lon="-20.733966827">
<ele>85.931641</ele>
<time>2012-07-19T15:52:06Z</time>
<speed>0.010000</speed>
<extensions>
<speed>0.0</speed>
<temp>0.00</temp>
<bpm>0</bpm>
<rpm>0.00</rpm>
</extensions>
</trkpt>
<trkpt lat="64.216743469" lon="-20.733966827">
<ele>85.947266</ele>
<time>2012-07-19T15:52:11Z</time>
<extensions>
<speed>0.0</speed>
<temp>0.00</temp>
<bpm>0</bpm>
<rpm>0.00</rpm>
</extensions>
</trkpt>
<trkpt lat="64.216743469" lon="-20.733966827">
<ele>85.943359</ele>
<time>2012-07-19T15:52:16Z</time>
<speed>0.010000</speed>
<extensions>
<speed>0.0</speed>
<temp>0.00</temp>
<bpm>0</bpm>
<rpm>0.00</rpm>
</extensions>
</trkpt>
<trkpt lat="64.216743469" lon="-20.733966827">
<ele>85.925781</ele>
<time>2012-07-19T15:52:21Z</time>
<extensions>
<speed>0.0</speed>
<temp>0.00</temp>
<bpm>0</bpm>
<rpm>0.00</rpm>
</extensions>
</trkpt>
<trkpt lat="64.216743469" lon="-20.733968735">
<ele>85.916016</ele>
<time>2012-07-19T15:52:26Z</time>
<extensions>
<speed>0.0</speed>
<temp>0.00</temp>
<bpm>0</bpm>
<rpm>0.00</rpm>
</extensions>
</trkpt>
<trkpt lat="64.216743469" lon="-20.733968735">
<ele>85.916016</ele>
<time>2012-07-19T15:52:31Z</time>
<extensions>
<speed>0.0</speed>
<temp>0.00</temp>
<bpm>0</bpm>
<rpm>0.00</rpm>
</extensions>
</trkpt>
<trkpt lat="64.216743469" lon="-20.733968735">
<ele>85.900391</ele>
<time>2012-07-19T15:52:36Z</time>
<speed>0.010000</speed>
<extensions>
<speed>0.0</speed>
<temp>0.00</temp>
<bpm>0</bpm>
<rpm>0.00</rpm>
</extensions>
</trkpt>
<trkpt lat="64.216743469" lon="-20.733968735">
<ele>85.902344</ele>
<time>2012-07-19T15:52:41Z</time>
<speed>0.150000</speed>
<extensions>
<speed>0.2</speed>
<temp>0.00</temp>
<bpm>0</bpm>
<rpm>0.00</rpm>
</extensions>
</trkpt>
<trkpt lat="64.216743469" lon="-20.733966827">
<ele>85.890625</ele>
<time>2012-07-19T15:52:46Z</time>
<speed>0.030000</speed>
<extensions>
<speed>0.0</speed>
<temp>0.00</temp>
<bpm>0</bpm>
<rpm>0.00</rpm>
</extensions>
</trkpt>
<trkpt lat="64.216743469" lon="-20.733968735">
<ele>85.892578</ele>
<time>2012-07-19T15:52:51Z</time>
<speed>0.010000</speed>
<extensions>
<speed>0.0</speed>
<temp>0.00</temp>
<bpm>0</bpm>
<rpm>0.00</rpm>
</extensions>
</trkpt>
<trkpt lat="64.216743469" lon="-20.733966827">
<ele>85.898438</ele>
<time>2012-07-19T15:52:56Z</time>
<speed>0.030000</speed>
<extensions>
<speed>0.0</speed>
<temp>0.00</temp>
<bpm>0</bpm>
<rpm>0.00</rpm>
</extensions>
</trkpt>
<trkpt lat="64.216751099" lon="-20.733966827">
<ele>85.892578</ele>
<time>2012-07-19T15:53:01Z</time>
<speed>0.220000</speed>
<extensions>
<speed>0.2</speed>
<temp>0.00</temp>
<bpm>0</bpm>
<rpm>0.00</rpm>
</extensions>
</trkpt>
<trkpt lat="64.216751099" lon="-20.733974457">
<ele>86.152344</ele>
<time>2012-07-19T15:53:06Z</time>
<extensions>
<speed>0.0</speed>
<temp>0.00</temp>
<bpm>0</bpm>
<rpm>0.00</rpm>
</extensions>
</trkpt>
<trkpt lat="64.216751099" lon="-20.733978271">
<ele>86.304688</ele>
<time>2012-07-19T15:53:11Z</time>
<extensions>
<speed>0.0</speed>
<temp>0.00</temp>
<bpm>0</bpm>
<rpm>0.00</rpm>
</extensions>
</trkpt>
<trkpt lat="64.216751099" lon="-20.733978271">
<ele>86.314453</ele>
<time>2012-07-19T15:53:16Z</time>
<extensions>
<speed>0.0</speed>
<temp>0.00</temp>
<bpm>0</bpm>
<rpm>0.00</rpm>
</extensions>
</trkpt>
<trkpt lat="64.216751099" lon="-20.733980179">
<ele>86.308594</ele>
<time>2012-07-19T15:53:21Z</time>
<speed>0.010000</speed>
<extensions>
<speed>0.0</speed>
<temp>0.00</temp>
<bpm>0</bpm>
<rpm>0.00</rpm>
</extensions>
</trkpt>
<trkpt lat="64.216751099" lon="-20.733980179">
<ele>86.322266</ele>
<time>2012-07-19T15:53:26Z</time>
<extensions>
<speed>0.0</speed>
<temp>0.00</temp>
<bpm>0</bpm>
<rpm>0.00</rpm>
</extensions>
</trkpt>
<trkpt lat="64.216751099" lon="-20.733980179">
<ele>86.318359</ele>
<time>2012-07-19T15:53:31Z</time>
<extensions>
<speed>0.0</speed>
<temp>0.00</temp>
<bpm>0</bpm>
<rpm>0.00</rpm>
</extensions>
</trkpt>
<trkpt lat="64.216751099" lon="-20.733980179">
<ele>86.318359</ele>
<time>2012-07-19T15:53:36Z</time>
<speed>0.010000</speed>
<extensions>
<speed>0.0</speed>
<temp>0.00</temp>
<bpm>0</bpm>
<rpm>0.00</rpm>
</extensions>
</trkpt>
<trkpt lat="64.216751099" lon="-20.733980179">
<ele>86.316406</ele>
<time>2012-07-19T15:53:41Z</time>
<extensions>
<speed>0.0</speed>
<temp>0.00</temp>
<bpm>0</bpm>
<rpm>0.00</rpm>
</extensions>
</trkpt>
<trkpt lat="64.216751099" lon="-20.733980179">
<ele>86.306641</ele>
<time>2012-07-19T15:53:46Z</time>
<extensions>
<speed>0.0</speed>
<temp>0.00</temp>
<bpm>0</bpm>
<rpm>0.00</rpm>
</extensions>
</trkpt>
<trkpt lat="64.216751099" lon="-20.733980179">
<ele>86.300781</ele>
<time>2012-07-19T15:53:51Z</time>
<speed>0.020000</speed>
<extensions>
<speed>0.0</speed>
<temp>0.00</temp>
<bpm>0</bpm>
<rpm>0.00</rpm>
</extensions>
</trkpt>
<trkpt lat="64.216751099" lon="-20.733980179">
<ele>86.281250</ele>
<time>2012-07-19T15:53:56Z</time>
<extensions>
<speed>0.0</speed>
<temp>0.00</temp>
<bpm>0</bpm>
<rpm>0.00</rpm>
</extensions>
</trkpt>
<trkpt lat="64.216751099" lon="-20.733980179">
<ele>86.285156</ele>
<time>2012-07-19T15:54:01Z</time>
<extensions>
<speed>0.0</speed>
<temp>0.00</temp>
<bpm>0</bpm>
<rpm>0.00</rpm>
</extensions>
</trkpt>
<trkpt lat="64.216751099" lon="-20.733980179">
<ele>86.277344</ele>
<time>2012-07-19T15:54:06Z</time>
<speed>0.010000</speed>
<extensions>
<speed>0.0</speed>
<temp>0.00</temp>
<bpm>0</bpm>
<rpm>0.00</rpm>
</extensions>
</trkpt>
<trkpt lat="64.216751099" lon="-20.733980179">
<ele>86.271484</ele>
<time>2012-07-19T15:54:11Z</time>
<extensions>
<speed>0.0</speed>
<temp>0.00</temp>
<bpm>0</bpm>
<rpm>0.00</rpm>
</extensions>
</trkpt>
<trkpt lat="64.216751099" lon="-20.733980179">
<ele>86.253906</ele>
<time>2012-07-19T15:54:16Z</time>
<extensions>
<speed>0.0</speed>
<temp>0.00</temp>
<bpm>0</bpm>
<rpm>0.00</rpm>
</extensions>
</trkpt>
<trkpt lat="64.216751099" lon="-20.733980179">
<ele>86.250000</ele>
<time>2012-07-19T15:54:21Z</time>
<extensions>
<speed>0.0</speed>
<temp>0.00</temp>
<bpm>0</bpm>
<rpm>0.00</rpm>
</extensions>
</trkpt>
<trkpt lat="64.216751099" lon="-20.733980179">
<ele>86.238281</ele>
<time>2012-07-19T15:54:26Z</time>
<speed>0.010000</speed>
<extensions>
<speed>0.0</speed>
<temp>0.00</temp>
<bpm>0</bpm>
<rpm>0.00</rpm>
</extensions>
</trkpt>
<trkpt lat="64.216751099" lon="-20.733980179">
<ele>86.228516</ele>
<time>2012-07-19T15:54:31Z</time>
<extensions>
<speed>0.0</speed>
<temp>0.00</temp>
<bpm>0</bpm>
<rpm>0.00</rpm>
</extensions>
</trkpt>
<trkpt lat="64.216751099" lon="-20.733980179">
<ele>86.216797</ele>
<time>2012-07-19T15:54:36Z</time>
<speed>0.010000</speed>
<extensions>
<speed>0.0</speed>
<temp>0.00</temp>
<bpm>0</bpm>
<rpm>0.00</rpm>
</extensions>
</trkpt>
<trkpt lat="64.216751099" lon="-20.733980179">
<ele>86.210938</ele>
<time>2012-07-19T15:54:41Z</time>
<speed>0.010000</speed>
<extensions>
<speed>0.0</speed>
<temp>0.00</temp>
<bpm>0</bpm>
<rpm>0.00</rpm>
</extensions>
</trkpt>
<trkpt lat="64.216751099" lon="-20.733980179">
<ele>86.199219</ele>
<time>2012-07-19T15:54:46Z</time>
<extensions>
<speed>0.0</speed>
<temp>0.00</temp>
<bpm>0</bpm>
<rpm>0.00</rpm>
</extensions>
</trkpt>
<trkpt lat="64.216751099" lon="-20.733980179">
<ele>86.189453</ele>
<time>2012-07-19T15:54:51Z</time>
<extensions>
<speed>0.0</speed>
<temp>0.00</temp>
<bpm>0</bpm>
<rpm>0.00</rpm>
</extensions>
</trkpt>
<trkpt lat="64.216751099" lon="-20.733980179">
<ele>86.175781</ele>
<time>2012-07-19T15:54:56Z</time>
<speed>0.010000</speed>
<extensions>
<speed>0.0</speed>
<temp>0.00</temp>
<bpm>0</bpm>
<rpm>0.00</rpm>
</extensions>
</trkpt>
<trkpt lat="64.216751099" lon="-20.733980179">
<ele>86.160156</ele>
<time>2012-07-19T15:55:01Z</time>
<extensions>
<speed>0.0</speed>
<temp>0.00</temp>
<bpm>0</bpm>
<rpm>0.00</rpm>
</extensions>
</trkpt>
<trkpt lat="64.216751099" lon="-20.733980179">
<ele>86.148438</ele>
<time>2012-07-19T15:55:06Z</time>
<speed>0.010000</speed>
<extensions>
<speed>0.0</speed>
<temp>0.00</temp>
<bpm>0</bpm>
<rpm>0.00</rpm>
</extensions>
</trkpt>
<trkpt lat="64.216751099" lon="-20.733980179">
<ele>86.146484</ele>
<time>2012-07-19T15:55:11Z</time>
<extensions>
<speed>0.0</speed>
<temp>0.00</temp>
<bpm>0</bpm>
<rpm>0.00</rpm>
</extensions>
</trkpt>
<trkpt lat="64.216751099" lon="-20.733980179">
<ele>86.142578</ele>
<time>2012-07-19T15:55:16Z</time>
<extensions>
<speed>0.0</speed>
<temp>0.00</temp>
<bpm>0</bpm>
<rpm>0.00</rpm>
</extensions>
</trkpt>
<trkpt lat="64.216751099" lon="-20.733980179">
<ele>86.144531</ele>
<time>2012-07-19T15:55:21Z</time>
<extensions>
<speed>0.0</speed>
<temp>0.00</temp>
<bpm>0</bpm>
<rpm>0.00</rpm>
</extensions>
</trkpt>
<trkpt lat="64.216751099" lon="-20.733980179">
<ele>86.140625</ele>
<time>2012-07-19T15:55:26Z</time>
<speed>0.020000</speed>
<extensions>
<speed>0.0</speed>
<temp>0.00</temp>
<bpm>0</bpm>
<rpm>0.00</rpm>
</extensions>
</trkpt>
<trkpt lat="64.216751099" lon="-20.733980179">
<ele>86.134766</ele>
<time>2012-07-19T15:55:31Z</time>
<extensions>
<speed>0.0</speed>
<temp>0.00</temp>
<bpm>0</bpm>
<rpm>0.00</rpm>
</extensions>
</trkpt>
<trkpt lat="64.216751099" lon="-20.733980179">
<ele>86.130859</ele>
<time>2012-07-19T15:55:36Z</time>
<extensions>
<speed>0.0</speed>
<temp>0.00</temp>
<bpm>0</bpm>
<rpm>0.00</rpm>
</extensions>
</trkpt>
<trkpt lat="64.216751099" lon="-20.733980179">
<ele>86.132813</ele>
<time>2012-07-19T15:55:41Z</time>
<extensions>
<speed>0.0</speed>
<temp>0.00</temp>
<bpm>0</bpm>
<rpm>0.00</rpm>
</extensions>
</trkpt>
<trkpt lat="64.216751099" lon="-20.733980179">
<ele>86.128906</ele>
<time>2012-07-19T15:55:46Z</time>
<speed>0.020000</speed>
<extensions>
<speed>0.0</speed>
<temp>0.00</temp>
<bpm>0</bpm>
<rpm>0.00</rpm>
</extensions>
</trkpt>
<trkpt lat="64.216751099" lon="-20.733978271">
<ele>86.125000</ele>
<time>2012-07-19T15:55:51Z</time>
<speed>0.030000</speed>
<extensions>
<speed>0.0</speed>
<temp>0.00</temp>
<bpm>0</bpm>
<rpm>0.00</rpm>
</extensions>
</trkpt>
<trkpt lat="64.216751099" lon="-20.733978271">
<ele>86.130859</ele>
<time>2012-07-19T15:55:56Z</time>
<extensions>
<speed>0.0</speed>
<temp>0.00</temp>
<bpm>0</bpm>
<rpm>0.00</rpm>
</extensions>
</trkpt>
<trkpt lat="64.216751099" lon="-20.733978271">
<ele>86.134766</ele>
<time>2012-07-19T15:56:01Z</time>
<speed>0.010000</speed>
<extensions>
<speed>0.0</speed>
<temp>0.00</temp>
<bpm>0</bpm>
<rpm>0.00</rpm>
</extensions>
</trkpt>
<trkpt lat="64.216751099" lon="-20.733978271">
<ele>86.140625</ele>
<time>2012-07-19T15:56:06Z</time>
<extensions>
<speed>0.0</speed>
<temp>0.00</temp>
<bpm>0</bpm>
<rpm>0.00</rpm>
</extensions>
</trkpt>
<trkpt lat="64.216751099" lon="-20.733978271">
<ele>86.142578</ele>
<time>2012-07-19T15:56:11Z</time>
<extensions>
<speed>0.0</speed>
<temp>0.00</temp>
<bpm>0</bpm>
<rpm>0.00</rpm>
</extensions>
</trkpt>
<trkpt lat="64.216751099" lon="-20.733978271">
<ele>86.130859</ele>
<time>2012-07-19T15:56:16Z</time>
<extensions>
<speed>0.0</speed>
<temp>0.00</temp>
<bpm>0</bpm>
<rpm>0.00</rpm>
</extensions>
</trkpt>
<trkpt lat="64.216751099" lon="-20.733978271">
<ele>86.117188</ele>
<time>2012-07-19T15:56:21Z</time>
<speed>0.010000</speed>
<extensions>
<speed>0.0</speed>
<temp>0.00</temp>
<bpm>0</bpm>
<rpm>0.00</rpm>
</extensions>
</trkpt>
<trkpt lat="64.216751099" lon="-20.733976364">
<ele>86.080078</ele>
<time>2012-07-19T15:56:26Z</time>
<extensions>
<speed>0.0</speed>
<temp>0.00</temp>
<bpm>0</bpm>
<rpm>0.00</rpm>
</extensions>
</trkpt>
<trkpt lat="64.216751099" lon="-20.733976364">
<ele>86.062500</ele>
<time>2012-07-19T15:56:31Z</time>
<extensions>
<speed>0.0</speed>
<temp>0.00</temp>
<bpm>0</bpm>
<rpm>0.00</rpm>
</extensions>
</trkpt>
<trkpt lat="64.216751099" lon="-20.733976364">
<ele>86.044922</ele>
<time>2012-07-19T15:56:36Z</time>
<speed>0.010000</speed>
<extensions>
<speed>0.0</speed>
<temp>0.00</temp>
<bpm>0</bpm>
<rpm>0.00</rpm>
</extensions>
</trkpt>
<trkpt lat="64.216751099" lon="-20.733976364">
<ele>86.015625</ele>
<time>2012-07-19T15:56:41Z</time>
<extensions>
<speed>0.0</speed>
<temp>0.00</temp>
<bpm>0</bpm>
<rpm>0.00</rpm>
</extensions>
</trkpt>
<trkpt lat="64.216751099" lon="-20.733976364">
<ele>86.000000</ele>
<time>2012-07-19T15:56:46Z</time>
<speed>0.010000</speed>
<extensions>
<speed>0.0</speed>
<temp>0.00</temp>
<bpm>0</bpm>
<rpm>0.00</rpm>
</extensions>
</trkpt>
<trkpt lat="64.216751099" lon="-20.733976364">
<ele>85.994141</ele>
<time>2012-07-19T15:56:51Z</time>
<speed>0.010000</speed>
<extensions>
<speed>0.0</speed>
<temp>0.00</temp>
<bpm>0</bpm>
<rpm>0.00</rpm>
</extensions>
</trkpt>
<trkpt lat="64.216758728" lon="-20.733976364">
<ele>85.986328</ele>
<time>2012-07-19T15:56:56Z</time>
<speed>0.020000</speed>
<extensions>
<speed>0.0</speed>
<temp>0.00</temp>
<bpm>0</bpm>
<rpm>0.00</rpm>
</extensions>
</trkpt>
<trkpt lat="64.216751099" lon="-20.733976364">
<ele>85.976563</ele>
<time>2012-07-19T15:57:01Z</time>
<speed>0.010000</speed>
<extensions>
<speed>0.0</speed>
<temp>0.00</temp>
<bpm>0</bpm>
<rpm>0.00</rpm>
</extensions>
</trkpt>
<trkpt lat="64.216751099" lon="-20.733976364">
<ele>85.962891</ele>
<time>2012-07-19T15:57:06Z</time>
<speed>0.010000</speed>
<extensions>
<speed>0.0</speed>
<temp>0.00</temp>
<bpm>0</bpm>
<rpm>0.00</rpm>
</extensions>
</trkpt>
<trkpt lat="64.216751099" lon="-20.733974457">
<ele>85.951172</ele>
<time>2012-07-19T15:57:11Z</time>
<speed>0.030000</speed>
<extensions>
<speed>0.0</speed>
<temp>0.00</temp>
<bpm>0</bpm>
<rpm>0.00</rpm>
</extensions>
</trkpt>
<trkpt lat="64.216751099" lon="-20.733974457">
<ele>85.935547</ele>
<time>2012-07-19T15:57:16Z</time>
<extensions>
<speed>0.0</speed>
<temp>0.00</temp>
<bpm>0</bpm>
<rpm>0.00</rpm>
</extensions>
</trkpt>
<trkpt lat="64.216751099" lon="-20.733974457">
<ele>85.931641</ele>
<time>2012-07-19T15:57:21Z</time>
<speed>0.010000</speed>
<extensions>
<speed>0.0</speed>
<temp>0.00</temp>
<bpm>0</bpm>
<rpm>0.00</rpm>
</extensions>
</trkpt>
<trkpt lat="64.216751099" lon="-20.733974457">
<ele>85.941406</ele>
<time>2012-07-19T15:57:26Z</time>
<extensions>
<speed>0.0</speed>
<temp>0.00</temp>
<bpm>0</bpm>
<rpm>0.00</rpm>
</extensions>
</trkpt>
<trkpt lat="64.216751099" lon="-20.733974457">
<ele>85.939453</ele>
<time>2012-07-19T15:57:31Z</time>
<extensions>
<speed>0.0</speed>
<temp>0.00</temp>
<bpm>0</bpm>
<rpm>0.00</rpm>
</extensions>
</trkpt>
<trkpt lat="64.216751099" lon="-20.733972549">
<ele>85.943359</ele>
<time>2012-07-19T15:57:36Z</time>
<extensions>
<speed>0.0</speed>
<temp>0.00</temp>
<bpm>0</bpm>
<rpm>0.00</rpm>
</extensions>
</trkpt>
<trkpt lat="64.216758728" lon="-20.733972549">
<ele>85.921875</ele>
<time>2012-07-19T15:57:41Z</time>
<speed>0.010000</speed>
<extensions>
<speed>0.0</speed>
<temp>0.00</temp>
<bpm>0</bpm>
<rpm>0.00</rpm>
</extensions>
</trkpt>
<trkpt lat="64.216758728" lon="-20.733972549">
<ele>85.900391</ele>
<time>2012-07-19T15:57:46Z</time>
<speed>0.010000</speed>
<extensions>
<speed>0.0</speed>
<temp>0.00</temp>
<bpm>0</bpm>
<rpm>0.00</rpm>
</extensions>
</trkpt>
<trkpt lat="64.216758728" lon="-20.733972549">
<ele>85.906250</ele>
<time>2012-07-19T15:57:51Z</time>
<speed>0.010000</speed>
<extensions>
<speed>0.0</speed>
<temp>0.00</temp>
<bpm>0</bpm>
<rpm>0.00</rpm>
</extensions>
</trkpt>
<trkpt lat="64.216758728" lon="-20.733970642">
<ele>85.919922</ele>
<time>2012-07-19T15:57:56Z</time>
<extensions>
<speed>0.0</speed>
<temp>0.00</temp>
<bpm>0</bpm>
<rpm>0.00</rpm>
</extensions>
</trkpt>
<trkpt lat="64.216758728" lon="-20.733970642">
<ele>85.935547</ele>
<time>2012-07-19T15:58:01Z</time>
<speed>0.010000</speed>
<extensions>
<speed>0.0</speed>
<temp>0.00</temp>
<bpm>0</bpm>
<rpm>0.00</rpm>
</extensions>
</trkpt>
<trkpt lat="64.216758728" lon="-20.733970642">
<ele>85.931641</ele>
<time>2012-07-19T15:58:06Z</time>
<speed>0.050000</speed>
<extensions>
<speed>0.1</speed>
<temp>0.00</temp>
<bpm>0</bpm>
<rpm>0.00</rpm>
</extensions>
</trkpt>
<trkpt lat="64.216758728" lon="-20.733970642">
<ele>85.914063</ele>
<time>2012-07-19T15:58:11Z</time>
<speed>0.010000</speed>
<extensions>
<speed>0.0</speed>
<temp>0.00</temp>
<bpm>0</bpm>
<rpm>0.00</rpm>
</extensions>
</trkpt>
<trkpt lat="64.216758728" lon="-20.733970642">
<ele>85.900391</ele>
<time>2012-07-19T15:58:16Z</time>
<speed>0.020000</speed>
<extensions>
<speed>0.0</speed>
<temp>0.00</temp>
<bpm>0</bpm>
<rpm>0.00</rpm>
</extensions>
</trkpt>
<trkpt lat="64.216758728" lon="-20.733970642">
<ele>85.890625</ele>
<time>2012-07-19T15:58:21Z</time>
<speed>0.010000</speed>
<extensions>
<speed>0.0</speed>
<temp>0.00</temp>
<bpm>0</bpm>
<rpm>0.00</rpm>
</extensions>
</trkpt>
<trkpt lat="64.216758728" lon="-20.733970642">
<ele>85.884766</ele>
<time>2012-07-19T15:58:26Z</time>
<speed>0.020000</speed>
<extensions>
<speed>0.0</speed>
<temp>0.00</temp>
<bpm>0</bpm>
<rpm>0.00</rpm>
</extensions>
</trkpt>
<trkpt lat="64.216758728" lon="-20.733968735">
<ele>85.890625</ele>
<time>2012-07-19T15:58:31Z</time>
<speed>0.030000</speed>
<extensions>
<speed>0.0</speed>
<temp>0.00</temp>
<bpm>0</bpm>
<rpm>0.00</rpm>
</extensions>
</trkpt>
<trkpt lat="64.216758728" lon="-20.733968735">
<ele>85.898438</ele>
<time>2012-07-19T15:58:36Z</time>
<speed>0.030000</speed>
<extensions>
<speed>0.0</speed>
<temp>0.00</temp>
<bpm>0</bpm>
<rpm>0.00</rpm>
</extensions>
</trkpt>
<trkpt lat="64.216758728" lon="-20.733966827">
<ele>85.896484</ele>
<time>2012-07-19T15:58:41Z</time>
<speed>0.020000</speed>
<extensions>
<speed>0.0</speed>
<temp>0.00</temp>
<bpm>0</bpm>
<rpm>0.00</rpm>
</extensions>
</trkpt>
<trkpt lat="64.216758728" lon="-20.733966827">
<ele>85.880859</ele>
<time>2012-07-19T15:58:46Z</time>
<speed>0.010000</speed>
<extensions>
<speed>0.0</speed>
<temp>0.00</temp>
<bpm>0</bpm>
<rpm>0.00</rpm>
</extensions>
</trkpt>
<trkpt lat="64.216758728" lon="-20.733966827">
<ele>85.902344</ele>
<time>2012-07-19T15:58:51Z</time>
<speed>0.010000</speed>
<extensions>
<speed>0.0</speed>
<temp>0.00</temp>
<bpm>0</bpm>
<rpm>0.00</rpm>
</extensions>
</trkpt>
<trkpt lat="64.216758728" lon="-20.733966827">
<ele>85.908203</ele>
<time>2012-07-19T15:58:56Z</time>
<extensions>
<speed>0.0</speed>
<temp>0.00</temp>
<bpm>0</bpm>
<rpm>0.00</rpm>
</extensions>
</trkpt>
<trkpt lat="64.216758728" lon="-20.733964920">
<ele>85.906250</ele>
<time>2012-07-19T15:59:01Z</time>
<extensions>
<speed>0.0</speed>
<temp>0.00</temp>
<bpm>0</bpm>
<rpm>0.00</rpm>
</extensions>
</trkpt>
<trkpt lat="64.216758728" lon="-20.733964920">
<ele>85.921875</ele>
<time>2012-07-19T15:59:06Z</time>
<speed>0.010000</speed>
<extensions>
<speed>0.0</speed>
<temp>0.00</temp>
<bpm>0</bpm>
<rpm>0.00</rpm>
</extensions>
</trkpt>
<trkpt lat="64.216758728" lon="-20.733964920">
<ele>85.919922</ele>
<time>2012-07-19T15:59:11Z</time>
<speed>0.010000</speed>
<extensions>
<speed>0.0</speed>
<temp>0.00</temp>
<bpm>0</bpm>
<rpm>0.00</rpm>
</extensions>
</trkpt>
<trkpt lat="64.216758728" lon="-20.733963013">
<ele>85.919922</ele>
<time>2012-07-19T15:59:16Z</time>
<extensions>
<speed>0.0</speed>
<temp>0.00</temp>
<bpm>0</bpm>
<rpm>0.00</rpm>
</extensions>
</trkpt>
<trkpt lat="64.216758728" lon="-20.733963013">
<ele>85.910156</ele>
<time>2012-07-19T15:59:21Z</time>
<speed>0.010000</speed>
<extensions>
<speed>0.0</speed>
<temp>0.00</temp>
<bpm>0</bpm>
<rpm>0.00</rpm>
</extensions>
</trkpt>
<trkpt lat="64.216758728" lon="-20.733963013">
<ele>85.916016</ele>
<time>2012-07-19T15:59:26Z</time>
<extensions>
<speed>0.0</speed>
<temp>0.00</temp>
<bpm>0</bpm>
<rpm>0.00</rpm>
</extensions>
</trkpt>
<trkpt lat="64.216758728" lon="-20.733963013">
<ele>85.908203</ele>
<time>2012-07-19T15:59:31Z</time>
<extensions>
<speed>0.0</speed>
<temp>0.00</temp>
<bpm>0</bpm>
<rpm>0.00</rpm>
</extensions>
</trkpt>
<trkpt lat="64.216758728" lon="-20.733963013">
<ele>85.910156</ele>
<time>2012-07-19T15:59:36Z</time>
<extensions>
<speed>0.0</speed>
<temp>0.00</temp>
<bpm>0</bpm>
<rpm>0.00</rpm>
</extensions>
</trkpt>
<trkpt lat="64.216758728" lon="-20.733961105">
<ele>85.917969</ele>
<time>2012-07-19T15:59:41Z</time>
<extensions>
<speed>0.0</speed>
<temp>0.00</temp>
<bpm>0</bpm>
<rpm>0.00</rpm>
</extensions>
</trkpt>
<trkpt lat="64.216758728" lon="-20.733961105">
<ele>85.927734</ele>
<time>2012-07-19T15:59:46Z</time>
<extensions>
<speed>0.0</speed>
<temp>0.00</temp>
<bpm>0</bpm>
<rpm>0.00</rpm>
</extensions>
</trkpt>
<trkpt lat="64.216758728" lon="-20.733961105">
<ele>85.941406</ele>
<time>2012-07-19T15:59:51Z</time>
<extensions>
<speed>0.0</speed>
<temp>0.00</temp>
<bpm>0</bpm>
<rpm>0.00</rpm>
</extensions>
</trkpt>
<trkpt lat="64.216758728" lon="-20.733961105">
<ele>85.929688</ele>
<time>2012-07-19T15:59:56Z</time>
<extensions>
<speed>0.0</speed>
<temp>0.00</temp>
<bpm>0</bpm>
<rpm>0.00</rpm>
</extensions>
</trkpt>
<trkpt lat="64.216758728" lon="-20.733961105">
<ele>85.908203</ele>
<time>2012-07-19T16:00:01Z</time>
<speed>0.010000</speed>
<extensions>
<speed>0.0</speed>
<temp>0.00</temp>
<bpm>0</bpm>
<rpm>0.00</rpm>
</extensions>
</trkpt>
<trkpt lat="64.216758728" lon="-20.733961105">
<ele>85.910156</ele>
<time>2012-07-19T16:00:06Z</time>
<extensions>
<speed>0.0</speed>
<temp>0.00</temp>
<bpm>0</bpm>
<rpm>0.00</rpm>
</extensions>
</trkpt>
<trkpt lat="64.216758728" lon="-20.733961105">
<ele>85.890625</ele>
<time>2012-07-19T16:00:11Z</time>
<extensions>
<speed>0.0</speed>
<temp>0.00</temp>
<bpm>0</bpm>
<rpm>0.00</rpm>
</extensions>
</trkpt>
<trkpt lat="64.216758728" lon="-20.733961105">
<ele>85.884766</ele>
<time>2012-07-19T16:00:16Z</time>
<extensions>
<speed>0.0</speed>
<temp>0.00</temp>
<bpm>0</bpm>
<rpm>0.00</rpm>
</extensions>
</trkpt>
<trkpt lat="64.216758728" lon="-20.733961105">
<ele>85.884766</ele>
<time>2012-07-19T16:00:21Z</time>
<speed>0.010000</speed>
<extensions>
<speed>0.0</speed>
<temp>0.00</temp>
<bpm>0</bpm>
<rpm>0.00</rpm>
</extensions>
</trkpt>
<trkpt lat="64.216758728" lon="-20.733959198">
<ele>85.867188</ele>
<time>2012-07-19T16:00:26Z</time>
<extensions>
<speed>0.0</speed>
<temp>0.00</temp>
<bpm>0</bpm>
<rpm>0.00</rpm>
</extensions>
</trkpt>
<trkpt lat="64.216758728" lon="-20.733959198">
<ele>85.867188</ele>
<time>2012-07-19T16:00:31Z</time>
<extensions>
<speed>0.0</speed>
<temp>0.00</temp>
<bpm>0</bpm>
<rpm>0.00</rpm>
</extensions>
</trkpt>
<trkpt lat="64.216758728" lon="-20.733959198">
<ele>85.863281</ele>
<time>2012-07-19T16:00:36Z</time>
<extensions>
<speed>0.0</speed>
<temp>0.00</temp>
<bpm>0</bpm>
<rpm>0.00</rpm>
</extensions>
</trkpt>
<trkpt lat="64.216758728" lon="-20.733959198">
<ele>85.861328</ele>
<time>2012-07-19T16:00:41Z</time>
<extensions>
<speed>0.0</speed>
<temp>0.00</temp>
<bpm>0</bpm>
<rpm>0.00</rpm>
</extensions>
</trkpt>
<trkpt lat="64.216758728" lon="-20.733959198">
<ele>85.863281</ele>
<time>2012-07-19T16:00:46Z</time>
<extensions>
<speed>0.0</speed>
<temp>0.00</temp>
<bpm>0</bpm>
<rpm>0.00</rpm>
</extensions>
</trkpt>
<trkpt lat="64.216758728" lon="-20.733957291">
<ele>85.861328</ele>
<time>2012-07-19T16:00:51Z</time>
<extensions>
<speed>0.0</speed>
<temp>0.00</temp>
<bpm>0</bpm>
<rpm>0.00</rpm>
</extensions>
</trkpt>
<trkpt lat="64.216758728" lon="-20.733957291">
<ele>85.859375</ele>
<time>2012-07-19T16:00:56Z</time>
<extensions>
<speed>0.0</speed>
<temp>0.00</temp>
<bpm>0</bpm>
<rpm>0.00</rpm>
</extensions>
</trkpt>
<trkpt lat="64.216758728" lon="-20.733957291">
<ele>85.857422</ele>
<time>2012-07-19T16:01:01Z</time>
<speed>0.010000</speed>
<extensions>
<speed>0.0</speed>
<temp>0.00</temp>
<bpm>0</bpm>
<rpm>0.00</rpm>
</extensions>
</trkpt>
<trkpt lat="64.216758728" lon="-20.733957291">
<ele>85.857422</ele>
<time>2012-07-19T16:01:06Z</time>
<speed>0.010000</speed>
<extensions>
<speed>0.0</speed>
<temp>0.00</temp>
<bpm>0</bpm>
<rpm>0.00</rpm>
</extensions>
</trkpt>
<trkpt lat="64.216758728" lon="-20.733957291">
<ele>85.859375</ele>
<time>2012-07-19T16:01:11Z</time>
<speed>0.020000</speed>
<extensions>
<speed>0.0</speed>
<temp>0.00</temp>
<bpm>0</bpm>
<rpm>0.00</rpm>
</extensions>
</trkpt>
<trkpt lat="64.216758728" lon="-20.733957291">
<ele>85.865234</ele>
<time>2012-07-19T16:01:16Z</time>
<extensions>
<speed>0.0</speed>
<temp>0.00</temp>
<bpm>0</bpm>
<rpm>0.00</rpm>
</extensions>
</trkpt>
<trkpt lat="64.216758728" lon="-20.733957291">
<ele>85.871094</ele>
<time>2012-07-19T16:01:21Z</time>
<extensions>
<speed>0.0</speed>
<temp>0.00</temp>
<bpm>0</bpm>
<rpm>0.00</rpm>
</extensions>
</trkpt>
<trkpt lat="64.216758728" lon="-20.733957291">
<ele>85.873047</ele>
<time>2012-07-19T16:01:26Z</time>
<extensions>
<speed>0.0</speed>
<temp>0.00</temp>
<bpm>0</bpm>
<rpm>0.00</rpm>
</extensions>
</trkpt>
<trkpt lat="64.216766357" lon="-20.733957291">
<ele>85.876953</ele>
<time>2012-07-19T16:01:31Z</time>
<extensions>
<speed>0.0</speed>
<temp>0.00</temp>
<bpm>0</bpm>
<rpm>0.00</rpm>
</extensions>
</trkpt>
<trkpt lat="64.216766357" lon="-20.733957291">
<ele>85.873047</ele>
<time>2012-07-19T16:01:36Z</time>
<extensions>
<speed>0.0</speed>
<temp>0.00</temp>
<bpm>0</bpm>
<rpm>0.00</rpm>
</extensions>
</trkpt>
<trkpt lat="64.216766357" lon="-20.733957291">
<ele>85.884766</ele>
<time>2012-07-19T16:01:41Z</time>
<extensions>
<speed>0.0</speed>
<temp>0.00</temp>
<bpm>0</bpm>
<rpm>0.00</rpm>
</extensions>
</trkpt>
<trkpt lat="64.216766357" lon="-20.733957291">
<ele>85.894531</ele>
<time>2012-07-19T16:01:46Z</time>
<extensions>
<speed>0.0</speed>
<temp>0.00</temp>
<bpm>0</bpm>
<rpm>0.00</rpm>
</extensions>
</trkpt>
<trkpt lat="64.216766357" lon="-20.733957291">
<ele>85.910156</ele>
<time>2012-07-19T16:01:51Z</time>
<speed>0.010000</speed>
<extensions>
<speed>0.0</speed>
<temp>0.00</temp>
<bpm>0</bpm>
<rpm>0.00</rpm>
</extensions>
</trkpt>
<trkpt lat="64.216766357" lon="-20.733957291">
<ele>85.923828</ele>
<time>2012-07-19T16:01:56Z</time>
<extensions>
<speed>0.0</speed>
<temp>0.00</temp>
<bpm>0</bpm>
<rpm>0.00</rpm>
</extensions>
</trkpt>
<trkpt lat="64.216766357" lon="-20.733957291">
<ele>85.927734</ele>
<time>2012-07-19T16:02:01Z</time>
<speed>0.010000</speed>
<extensions>
<speed>0.0</speed>
<temp>0.00</temp>
<bpm>0</bpm>
<rpm>0.00</rpm>
</extensions>
</trkpt>
<trkpt lat="64.216766357" lon="-20.733957291">
<ele>85.931641</ele>
<time>2012-07-19T16:02:06Z</time>
<speed>0.010000</speed>
<extensions>
<speed>0.0</speed>
<temp>0.00</temp>
<bpm>0</bpm>
<rpm>0.00</rpm>
</extensions>
</trkpt>
<trkpt lat="64.216766357" lon="-20.733957291">
<ele>85.933594</ele>
<time>2012-07-19T16:02:11Z</time>
<extensions>
<speed>0.0</speed>
<temp>0.00</temp>
<bpm>0</bpm>
<rpm>0.00</rpm>
</extensions>
</trkpt>
<trkpt lat="64.216766357" lon="-20.733957291">
<ele>85.937500</ele>
<time>2012-07-19T16:02:16Z</time>
<extensions>
<speed>0.0</speed>
<temp>0.00</temp>
<bpm>0</bpm>
<rpm>0.00</rpm>
</extensions>
</trkpt>
<trkpt lat="64.216766357" lon="-20.733957291">
<ele>85.941406</ele>
<time>2012-07-19T16:02:21Z</time>
<extensions>
<speed>0.0</speed>
<temp>0.00</temp>
<bpm>0</bpm>
<rpm>0.00</rpm>
</extensions>
</trkpt>
<trkpt lat="64.216766357" lon="-20.733955383">
<ele>85.951172</ele>
<time>2012-07-19T16:02:26Z</time>
<extensions>
<speed>0.0</speed>
<temp>0.00</temp>
<bpm>0</bpm>
<rpm>0.00</rpm>
</extensions>
</trkpt>
<trkpt lat="64.216766357" lon="-20.733957291">
<ele>85.957031</ele>
<time>2012-07-19T16:02:31Z</time>
<speed>0.010000</speed>
<extensions>
<speed>0.0</speed>
<temp>0.00</temp>
<bpm>0</bpm>
<rpm>0.00</rpm>
</extensions>
</trkpt>
<trkpt lat="64.216766357" lon="-20.733957291">
<ele>85.972656</ele>
<time>2012-07-19T16:02:36Z</time>
<speed>0.010000</speed>
<extensions>
<speed>0.0</speed>
<temp>0.00</temp>
<bpm>0</bpm>
<rpm>0.00</rpm>
</extensions>
</trkpt>
<trkpt lat="64.216766357" lon="-20.733957291">
<ele>85.984375</ele>
<time>2012-07-19T16:02:41Z</time>
<extensions>
<speed>0.0</speed>
<temp>0.00</temp>
<bpm>0</bpm>
<rpm>0.00</rpm>
</extensions>
</trkpt>
<trkpt lat="64.216766357" lon="-20.733957291">
<ele>85.998047</ele>
<time>2012-07-19T16:02:46Z</time>
<extensions>
<speed>0.0</speed>
<temp>0.00</temp>
<bpm>0</bpm>
<rpm>0.00</rpm>
</extensions>
</trkpt>
<trkpt lat="64.216766357" lon="-20.733957291">
<ele>86.009766</ele>
<time>2012-07-19T16:02:51Z</time>
<extensions>
<speed>0.0</speed>
<temp>0.00</temp>
<bpm>0</bpm>
<rpm>0.00</rpm>
</extensions>
</trkpt>
<trkpt lat="64.216766357" lon="-20.733957291">
<ele>86.013672</ele>
<time>2012-07-19T16:02:56Z</time>
<speed>0.010000</speed>
<extensions>
<speed>0.0</speed>
<temp>0.00</temp>
<bpm>0</bpm>
<rpm>0.00</rpm>
</extensions>
</trkpt>
<trkpt lat="64.216766357" lon="-20.733957291">
<ele>86.013672</ele>
<time>2012-07-19T16:03:01Z</time>
<extensions>
<speed>0.0</speed>
<temp>0.00</temp>
<bpm>0</bpm>
<rpm>0.00</rpm>
</extensions>
</trkpt>
<trkpt lat="64.216766357" lon="-20.733959198">
<ele>86.003906</ele>
<time>2012-07-19T16:03:06Z</time>
<extensions>
<speed>0.0</speed>
<temp>0.00</temp>
<bpm>0</bpm>
<rpm>0.00</rpm>
</extensions>
</trkpt>
<trkpt lat="64.216766357" lon="-20.733959198">
<ele>86.005859</ele>
<time>2012-07-19T16:03:11Z</time>
<extensions>
<speed>0.0</speed>
<temp>0.00</temp>
<bpm>0</bpm>
<rpm>0.00</rpm>
</extensions>
</trkpt>
<trkpt lat="64.216766357" lon="-20.733959198">
<ele>86.009766</ele>
<time>2012-07-19T16:03:16Z</time>
<extensions>
<speed>0.0</speed>
<temp>0.00</temp>
<bpm>0</bpm>
<rpm>0.00</rpm>
</extensions>
</trkpt>
<trkpt lat="64.216766357" lon="-20.733959198">
<ele>86.023438</ele>
<time>2012-07-19T16:03:21Z</time>
<extensions>
<speed>0.0</speed>
<temp>0.00</temp>
<bpm>0</bpm>
<rpm>0.00</rpm>
</extensions>
</trkpt>
<trkpt lat="64.216766357" lon="-20.733961105">
<ele>86.033203</ele>
<time>2012-07-19T16:03:26Z</time>
<speed>0.010000</speed>
<extensions>
<speed>0.0</speed>
<temp>0.00</temp>
<bpm>0</bpm>
<rpm>0.00</rpm>
</extensions>
</trkpt>
<trkpt lat="64.216766357" lon="-20.733961105">
<ele>86.033203</ele>
<time>2012-07-19T16:03:31Z</time>
<speed>0.010000</speed>
<extensions>
<speed>0.0</speed>
<temp>0.00</temp>
<bpm>0</bpm>
<rpm>0.00</rpm>
</extensions>
</trkpt>
<trkpt lat="64.216766357" lon="-20.733959198">
<ele>86.019531</ele>
<time>2012-07-19T16:03:36Z</time>
<extensions>
<speed>0.0</speed>
<temp>0.00</temp>
<bpm>0</bpm>
<rpm>0.00</rpm>
</extensions>
</trkpt>
<trkpt lat="64.216766357" lon="-20.733959198">
<ele>86.007813</ele>
<time>2012-07-19T16:03:41Z</time>
<speed>0.010000</speed>
<extensions>
<speed>0.0</speed>
<temp>0.00</temp>
<bpm>0</bpm>
<rpm>0.00</rpm>
</extensions>
</trkpt>
<trkpt lat="64.216766357" lon="-20.733959198">
<ele>86.005859</ele>
<time>2012-07-19T16:03:46Z</time>
<extensions>
<speed>0.0</speed>
<temp>0.00</temp>
<bpm>0</bpm>
<rpm>0.00</rpm>
</extensions>
</trkpt>
<trkpt lat="64.216766357" lon="-20.733959198">
<ele>86.007813</ele>
<time>2012-07-19T16:03:51Z</time>
<extensions>
<speed>0.0</speed>
<temp>0.00</temp>
<bpm>0</bpm>
<rpm>0.00</rpm>
</extensions>
</trkpt>
<trkpt lat="64.216766357" lon="-20.733959198">
<ele>86.003906</ele>
<time>2012-07-19T16:03:56Z</time>
<speed>0.010000</speed>
<extensions>
<speed>0.0</speed>
<temp>0.00</temp>
<bpm>0</bpm>
<rpm>0.00</rpm>
</extensions>
</trkpt>
<trkpt lat="64.216766357" lon="-20.733959198">
<ele>85.994141</ele>
<time>2012-07-19T16:04:01Z</time>
<extensions>
<speed>0.0</speed>
<temp>0.00</temp>
<bpm>0</bpm>
<rpm>0.00</rpm>
</extensions>
</trkpt>
<trkpt lat="64.216766357" lon="-20.733959198">
<ele>85.990234</ele>
<time>2012-07-19T16:04:06Z</time>
<extensions>
<speed>0.0</speed>
<temp>0.00</temp>
<bpm>0</bpm>
<rpm>0.00</rpm>
</extensions>
</trkpt>
<trkpt lat="64.216766357" lon="-20.733959198">
<ele>85.990234</ele>
<time>2012-07-19T16:04:11Z</time>
<extensions>
<speed>0.0</speed>
<temp>0.00</temp>
<bpm>0</bpm>
<rpm>0.00</rpm>
</extensions>
</trkpt>
<trkpt lat="64.216766357" lon="-20.733957291">
<ele>85.984375</ele>
<time>2012-07-19T16:04:16Z</time>
<speed>0.010000</speed>
<extensions>
<speed>0.0</speed>
<temp>0.00</temp>
<bpm>0</bpm>
<rpm>0.00</rpm>
</extensions>
</trkpt>
<trkpt lat="64.216766357" lon="-20.733957291">
<ele>85.978516</ele>
<time>2012-07-19T16:04:21Z</time>
<extensions>
<speed>0.0</speed>
<temp>0.00</temp>
<bpm>0</bpm>
<rpm>0.00</rpm>
</extensions>
</trkpt>
<trkpt lat="64.216766357" lon="-20.733957291">
<ele>85.970703</ele>
<time>2012-07-19T16:04:26Z</time>
<extensions>
<speed>0.0</speed>
<temp>0.00</temp>
<bpm>0</bpm>
<rpm>0.00</rpm>
</extensions>
</trkpt>
<trkpt lat="64.216766357" lon="-20.733957291">
<ele>85.968750</ele>
<time>2012-07-19T16:04:31Z</time>
<speed>0.010000</speed>
<extensions>
<speed>0.0</speed>
<temp>0.00</temp>
<bpm>0</bpm>
<rpm>0.00</rpm>
</extensions>
</trkpt>
<trkpt lat="64.216766357" lon="-20.733957291">
<ele>85.968750</ele>
<time>2012-07-19T16:04:36Z</time>
<speed>0.020000</speed>
<extensions>
<speed>0.0</speed>
<temp>0.00</temp>
<bpm>0</bpm>
<rpm>0.00</rpm>
</extensions>
</trkpt>
<trkpt lat="64.216766357" lon="-20.733957291">
<ele>85.974609</ele>
<time>2012-07-19T16:04:41Z</time>
<extensions>
<speed>0.0</speed>
<temp>0.00</temp>
<bpm>0</bpm>
<rpm>0.00</rpm>
</extensions>
</trkpt>
<trkpt lat="64.216766357" lon="-20.733957291">
<ele>85.988281</ele>
<time>2012-07-19T16:04:46Z</time>
<speed>0.010000</speed>
<extensions>
<speed>0.0</speed>
<temp>0.00</temp>
<bpm>0</bpm>
<rpm>0.00</rpm>
</extensions>
</trkpt>
<trkpt lat="64.216766357" lon="-20.733957291">
<ele>85.980469</ele>
<time>2012-07-19T16:04:51Z</time>
<speed>0.020000</speed>
<extensions>
<speed>0.0</speed>
<temp>0.00</temp>
<bpm>0</bpm>
<rpm>0.00</rpm>
</extensions>
</trkpt>
<trkpt lat="64.216766357" lon="-20.733955383">
<ele>85.964844</ele>
<time>2012-07-19T16:04:56Z</time>
<extensions>
<speed>0.0</speed>
<temp>0.00</temp>
<bpm>0</bpm>
<rpm>0.00</rpm>
</extensions>
</trkpt>
<trkpt lat="64.216766357" lon="-20.733955383">
<ele>85.949219</ele>
<time>2012-07-19T16:05:01Z</time>
<speed>0.020000</speed>
<extensions>
<speed>0.0</speed>
<temp>0.00</temp>
<bpm>0</bpm>
<rpm>0.00</rpm>
</extensions>
</trkpt>
<trkpt lat="64.216766357" lon="-20.733955383">
<ele>85.929688</ele>
<time>2012-07-19T16:05:06Z</time>
<speed>0.020000</speed>
<extensions>
<speed>0.0</speed>
<temp>0.00</temp>
<bpm>0</bpm>
<rpm>0.00</rpm>
</extensions>
</trkpt>
<trkpt lat="64.216766357" lon="-20.733953476">
<ele>85.906250</ele>
<time>2012-07-19T16:05:11Z</time>
<extensions>
<speed>0.0</speed>
<temp>0.00</temp>
<bpm>0</bpm>
<rpm>0.00</rpm>
</extensions>
</trkpt>
<trkpt lat="64.216766357" lon="-20.733953476">
<ele>85.857422</ele>
<time>2012-07-19T16:05:16Z</time>
<extensions>
<speed>0.0</speed>
<temp>0.00</temp>
<bpm>0</bpm>
<rpm>0.00</rpm>
</extensions>
</trkpt>
<trkpt lat="64.216766357" lon="-20.733953476">
<ele>85.808594</ele>
<time>2012-07-19T16:05:21Z</time>
<speed>0.010000</speed>
<extensions>
<speed>0.0</speed>
<temp>0.00</temp>
<bpm>0</bpm>
<rpm>0.00</rpm>
</extensions>
</trkpt>
<trkpt lat="64.216766357" lon="-20.733953476">
<ele>85.750000</ele>
<time>2012-07-19T16:05:26Z</time>
<speed>0.010000</speed>
<extensions>
<speed>0.0</speed>
<temp>0.00</temp>
<bpm>0</bpm>
<rpm>0.00</rpm>
</extensions>
</trkpt>
<trkpt lat="64.216766357" lon="-20.733951569">
<ele>85.666016</ele>
<time>2012-07-19T16:05:31Z</time>
<speed>0.020000</speed>
<extensions>
<speed>0.0</speed>
<temp>0.00</temp>
<bpm>0</bpm>
<rpm>0.00</rpm>
</extensions>
</trkpt>
<trkpt lat="64.216766357" lon="-20.733951569">
<ele>85.580078</ele>
<time>2012-07-19T16:05:36Z</time>
<speed>0.010000</speed>
<extensions>
<speed>0.0</speed>
<temp>0.00</temp>
<bpm>0</bpm>
<rpm>0.00</rpm>
</extensions>
</trkpt>
<trkpt lat="64.216766357" lon="-20.733949661">
<ele>85.505859</ele>
<time>2012-07-19T16:05:41Z</time>
<speed>0.020000</speed>
<extensions>
<speed>0.0</speed>
<temp>0.00</temp>
<bpm>0</bpm>
<rpm>0.00</rpm>
</extensions>
</trkpt>
<trkpt lat="64.216766357" lon="-20.733949661">
<ele>85.445313</ele>
<time>2012-07-19T16:05:46Z</time>
<speed>0.010000</speed>
<extensions>
<speed>0.0</speed>
<temp>0.00</temp>
<bpm>0</bpm>
<rpm>0.00</rpm>
</extensions>
</trkpt>
<trkpt lat="64.216766357" lon="-20.733949661">
<ele>85.394531</ele>
<time>2012-07-19T16:05:51Z</time>
<speed>0.020000</speed>
<extensions>
<speed>0.0</speed>
<temp>0.00</temp>
<bpm>0</bpm>
<rpm>0.00</rpm>
</extensions>
</trkpt>
<trkpt lat="64.216766357" lon="-20.733949661">
<ele>85.365234</ele>
<time>2012-07-19T16:05:56Z</time>
<speed>0.010000</speed>
<extensions>
<speed>0.0</speed>
<temp>0.00</temp>
<bpm>0</bpm>
<rpm>0.00</rpm>
</extensions>
</trkpt>
<trkpt lat="64.216766357" lon="-20.733947754">
<ele>85.345703</ele>
<time>2012-07-19T16:06:01Z</time>
<speed>0.190000</speed>
<extensions>
<speed>0.2</speed>
<temp>0.00</temp>
<bpm>0</bpm>
<rpm>0.00</rpm>
</extensions>
</trkpt>
<trkpt lat="64.216766357" lon="-20.733947754">
<ele>85.376953</ele>
<time>2012-07-19T16:06:06Z</time>
<speed>0.070000</speed>
<extensions>
<speed>0.1</speed>
<temp>0.00</temp>
<bpm>0</bpm>
<rpm>0.00</rpm>
</extensions>
</trkpt>
<trkpt lat="64.216758728" lon="-20.733959198">
<ele>86.119141</ele>
<time>2012-07-19T16:06:11Z</time>
<speed>0.270000</speed>
<extensions>
<speed>0.3</speed>
<temp>0.00</temp>
<bpm>0</bpm>
<rpm>0.00</rpm>
</extensions>
</trkpt>
<trkpt lat="64.216758728" lon="-20.733953476">
<ele>86.220703</ele>
<time>2012-07-19T16:06:16Z</time>
<speed>0.050000</speed>
<extensions>
<speed>0.1</speed>
<temp>0.00</temp>
<bpm>0</bpm>
<rpm>0.00</rpm>
</extensions>
</trkpt>
<trkpt lat="64.216766357" lon="-20.733955383">
<ele>86.181641</ele>
<time>2012-07-19T16:06:21Z</time>
<extensions>
<speed>0.0</speed>
<temp>0.00</temp>
<bpm>0</bpm>
<rpm>0.00</rpm>
</extensions>
</trkpt>
<trkpt lat="64.216766357" lon="-20.733955383">
<ele>86.191406</ele>
<time>2012-07-19T16:06:26Z</time>
<extensions>
<speed>0.0</speed>
<temp>0.00</temp>
<bpm>0</bpm>
<rpm>0.00</rpm>
</extensions>
</trkpt>
<trkpt lat="64.216766357" lon="-20.733955383">
<ele>86.187500</ele>
<time>2012-07-19T16:06:31Z</time>
<extensions>
<speed>0.0</speed>
<temp>0.00</temp>
<bpm>0</bpm>
<rpm>0.00</rpm>
</extensions>
</trkpt>
<trkpt lat="64.216766357" lon="-20.733955383">
<ele>86.193359</ele>
<time>2012-07-19T16:06:36Z</time>
<speed>0.160000</speed>
<extensions>
<speed>0.2</speed>
<temp>0.00</temp>
<bpm>0</bpm>
<rpm>0.00</rpm>
</extensions>
</trkpt>
<trkpt lat="64.216766357" lon="-20.733955383">
<ele>86.177734</ele>
<time>2012-07-19T16:06:41Z</time>
<speed>0.020000</speed>
<extensions>
<speed>0.0</speed>
<temp>0.00</temp>
<bpm>0</bpm>
<rpm>0.00</rpm>
</extensions>
</trkpt>
<trkpt lat="64.216766357" lon="-20.733970642">
<ele>86.222656</ele>
<time>2012-07-19T16:06:46Z</time>
<speed>0.320000</speed>
<extensions>
<speed>0.3</speed>
<temp>0.00</temp>
<bpm>0</bpm>
<rpm>0.00</rpm>
</extensions>
</trkpt>
<trkpt lat="64.216773987" lon="-20.733980179">
<ele>86.378906</ele>
<time>2012-07-19T16:06:51Z</time>
<extensions>
<speed>0.0</speed>
<temp>0.00</temp>
<bpm>0</bpm>
<rpm>0.00</rpm>
</extensions>
</trkpt>
<trkpt lat="64.216773987" lon="-20.733980179">
<ele>86.306641</ele>
<time>2012-07-19T16:06:56Z</time>
<speed>0.030000</speed>
<extensions>
<speed>0.0</speed>
<temp>0.00</temp>
<bpm>0</bpm>
<rpm>0.00</rpm>
</extensions>
</trkpt>
<trkpt lat="64.216773987" lon="-20.733983994">
<ele>86.257813</ele>
<time>2012-07-19T16:07:01Z</time>
<speed>0.070000</speed>
<extensions>
<speed>0.1</speed>
<temp>0.00</temp>
<bpm>0</bpm>
<rpm>0.00</rpm>
</extensions>
</trkpt>
<trkpt lat="64.216773987" lon="-20.733985901">
<ele>86.261719</ele>
<time>2012-07-19T16:07:06Z</time>
<extensions>
<speed>0.0</speed>
<temp>0.00</temp>
<bpm>0</bpm>
<rpm>0.00</rpm>
</extensions>
</trkpt>
<trkpt lat="64.216773987" lon="-20.733983994">
<ele>86.259766</ele>
<time>2012-07-19T16:07:11Z</time>
<extensions>
<speed>0.0</speed>
<temp>0.00</temp>
<bpm>0</bpm>
<rpm>0.00</rpm>
</extensions>
</trkpt>
<trkpt lat="64.216773987" lon="-20.733983994">
<ele>86.253906</ele>
<time>2012-07-19T16:07:16Z</time>
<extensions>
<speed>0.0</speed>
<temp>0.00</temp>
<bpm>0</bpm>
<rpm>0.00</rpm>
</extensions>
</trkpt>
<trkpt lat="64.216773987" lon="-20.733983994">
<ele>86.255859</ele>
<time>2012-07-19T16:07:21Z</time>
<extensions>
<speed>0.0</speed>
<temp>0.00</temp>
<bpm>0</bpm>
<rpm>0.00</rpm>
</extensions>
</trkpt>
<trkpt lat="64.216773987" lon="-20.733983994">
<ele>86.253906</ele>
<time>2012-07-19T16:07:26Z</time>
<speed>0.010000</speed>
<extensions>
<speed>0.0</speed>
<temp>0.00</temp>
<bpm>0</bpm>
<rpm>0.00</rpm>
</extensions>
</trkpt>
<trkpt lat="64.216773987" lon="-20.733983994">
<ele>86.250000</ele>
<time>2012-07-19T16:07:31Z</time>
<extensions>
<speed>0.0</speed>
<temp>0.00</temp>
<bpm>0</bpm>
<rpm>0.00</rpm>
</extensions>
</trkpt>
<trkpt lat="64.216773987" lon="-20.733983994">
<ele>86.248047</ele>
<time>2012-07-19T16:07:36Z</time>
<speed>0.010000</speed>
<extensions>
<speed>0.0</speed>
<temp>0.00</temp>
<bpm>0</bpm>
<rpm>0.00</rpm>
</extensions>
</trkpt>
<trkpt lat="64.216773987" lon="-20.733983994">
<ele>86.250000</ele>
<time>2012-07-19T16:07:41Z</time>
<extensions>
<speed>0.0</speed>
<temp>0.00</temp>
<bpm>0</bpm>
<rpm>0.00</rpm>
</extensions>
</trkpt>
<trkpt lat="64.216773987" lon="-20.733983994">
<ele>86.255859</ele>
<time>2012-07-19T16:07:46Z</time>
<extensions>
<speed>0.0</speed>
<temp>0.00</temp>
<bpm>0</bpm>
<rpm>0.00</rpm>
</extensions>
</trkpt>
<trkpt lat="64.216773987" lon="-20.733983994">
<ele>86.259766</ele>
<time>2012-07-19T16:07:51Z</time>
<extensions>
<speed>0.0</speed>
<temp>0.00</temp>
<bpm>0</bpm>
<rpm>0.00</rpm>
</extensions>
</trkpt>
<trkpt lat="64.216773987" lon="-20.733983994">
<ele>86.267578</ele>
<time>2012-07-19T16:07:56Z</time>
<extensions>
<speed>0.0</speed>
<temp>0.00</temp>
<bpm>0</bpm>
<rpm>0.00</rpm>
</extensions>
</trkpt>
<trkpt lat="64.216773987" lon="-20.733983994">
<ele>86.271484</ele>
<time>2012-07-19T16:08:01Z</time>
<extensions>
<speed>0.0</speed>
<temp>0.00</temp>
<bpm>0</bpm>
<rpm>0.00</rpm>
</extensions>
</trkpt>
<trkpt lat="64.216773987" lon="-20.733983994">
<ele>86.273438</ele>
<time>2012-07-19T16:08:06Z</time>
<extensions>
<speed>0.0</speed>
<temp>0.00</temp>
<bpm>0</bpm>
<rpm>0.00</rpm>
</extensions>
</trkpt>
<trkpt lat="64.216773987" lon="-20.733983994">
<ele>86.279297</ele>
<time>2012-07-19T16:08:11Z</time>
<extensions>
<speed>0.0</speed>
<temp>0.00</temp>
<bpm>0</bpm>
<rpm>0.00</rpm>
</extensions>
</trkpt>
<trkpt lat="64.216773987" lon="-20.733983994">
<ele>86.285156</ele>
<time>2012-07-19T16:08:16Z</time>
<extensions>
<speed>0.0</speed>
<temp>0.00</temp>
<bpm>0</bpm>
<rpm>0.00</rpm>
</extensions>
</trkpt>
<trkpt lat="64.216773987" lon="-20.733983994">
<ele>86.292969</ele>
<time>2012-07-19T16:08:21Z</time>
<extensions>
<speed>0.0</speed>
<temp>0.00</temp>
<bpm>0</bpm>
<rpm>0.00</rpm>
</extensions>
</trkpt>
<trkpt lat="64.216773987" lon="-20.733983994">
<ele>86.304688</ele>
<time>2012-07-19T16:08:26Z</time>
<speed>0.020000</speed>
<extensions>
<speed>0.0</speed>
<temp>0.00</temp>
<bpm>0</bpm>
<rpm>0.00</rpm>
</extensions>
</trkpt>
<trkpt lat="64.216773987" lon="-20.733982086">
<ele>86.308594</ele>
<time>2012-07-19T16:08:31Z</time>
<extensions>
<speed>0.0</speed>
<temp>0.00</temp>
<bpm>0</bpm>
<rpm>0.00</rpm>
</extensions>
</trkpt>
<trkpt lat="64.216773987" lon="-20.733982086">
<ele>86.314453</ele>
<time>2012-07-19T16:08:36Z</time>
<speed>0.010000</speed>
<extensions>
<speed>0.0</speed>
<temp>0.00</temp>
<bpm>0</bpm>
<rpm>0.00</rpm>
</extensions>
</trkpt>
<trkpt lat="64.216773987" lon="-20.733982086">
<ele>86.314453</ele>
<time>2012-07-19T16:08:41Z</time>
<speed>0.020000</speed>
<extensions>
<speed>0.0</speed>
<temp>0.00</temp>
<bpm>0</bpm>
<rpm>0.00</rpm>
</extensions>
</trkpt>
<trkpt lat="64.216773987" lon="-20.733982086">
<ele>86.318359</ele>
<time>2012-07-19T16:08:46Z</time>
<extensions>
<speed>0.0</speed>
<temp>0.00</temp>
<bpm>0</bpm>
<rpm>0.00</rpm>
</extensions>
</trkpt>
<trkpt lat="64.216773987" lon="-20.733982086">
<ele>86.320313</ele>
<time>2012-07-19T16:08:51Z</time>
<speed>0.020000</speed>
<extensions>
<speed>0.0</speed>
<temp>0.00</temp>
<bpm>0</bpm>
<rpm>0.00</rpm>
</extensions>
</trkpt>
<trkpt lat="64.216773987" lon="-20.733980179">
<ele>86.330078</ele>
<time>2012-07-19T16:08:56Z</time>
<speed>0.010000</speed>
<extensions>
<speed>0.0</speed>
<temp>0.00</temp>
<bpm>0</bpm>
<rpm>0.00</rpm>
</extensions>
</trkpt>
<trkpt lat="64.216773987" lon="-20.733980179">
<ele>86.339844</ele>
<time>2012-07-19T16:09:01Z</time>
<speed>0.010000</speed>
<extensions>
<speed>0.0</speed>
<temp>0.00</temp>
<bpm>0</bpm>
<rpm>0.00</rpm>
</extensions>
</trkpt>
<trkpt lat="64.216773987" lon="-20.733980179">
<ele>86.363281</ele>
<time>2012-07-19T16:09:06Z</time>
<speed>0.010000</speed>
<extensions>
<speed>0.0</speed>
<temp>0.00</temp>
<bpm>0</bpm>
<rpm>0.00</rpm>
</extensions>
</trkpt>
<trkpt lat="64.216773987" lon="-20.733978271">
<ele>86.382813</ele>
<time>2012-07-19T16:09:11Z</time>
<extensions>
<speed>0.0</speed>
<temp>0.00</temp>
<bpm>0</bpm>
<rpm>0.00</rpm>
</extensions>
</trkpt>
<trkpt lat="64.216773987" lon="-20.733978271">
<ele>86.373047</ele>
<time>2012-07-19T16:09:16Z</time>
<speed>0.020000</speed>
<extensions>
<speed>0.0</speed>
<temp>0.00</temp>
<bpm>0</bpm>
<rpm>0.00</rpm>
</extensions>
</trkpt>
<trkpt lat="64.216773987" lon="-20.733976364">
<ele>86.361328</ele>
<time>2012-07-19T16:09:21Z</time>
<speed>0.030000</speed>
<extensions>
<speed>0.0</speed>
<temp>0.00</temp>
<bpm>0</bpm>
<rpm>0.00</rpm>
</extensions>
</trkpt>
<trkpt lat="64.216773987" lon="-20.733974457">
<ele>86.341797</ele>
<time>2012-07-19T16:09:26Z</time>
<speed>0.020000</speed>
<extensions>
<speed>0.0</speed>
<temp>0.00</temp>
<bpm>0</bpm>
<rpm>0.00</rpm>
</extensions>
</trkpt>
<trkpt lat="64.216773987" lon="-20.733974457">
<ele>86.324219</ele>
<time>2012-07-19T16:09:31Z</time>
<speed>0.010000</speed>
<extensions>
<speed>0.0</speed>
<temp>0.00</temp>
<bpm>0</bpm>
<rpm>0.00</rpm>
</extensions>
</trkpt>
<trkpt lat="64.216773987" lon="-20.733972549">
<ele>86.308594</ele>
<time>2012-07-19T16:09:36Z</time>
<speed>0.020000</speed>
<extensions>
<speed>0.0</speed>
<temp>0.00</temp>
<bpm>0</bpm>
<rpm>0.00</rpm>
</extensions>
</trkpt>
<trkpt lat="64.216773987" lon="-20.733972549">
<ele>86.292969</ele>
<time>2012-07-19T16:09:41Z</time>
<speed>0.010000</speed>
<extensions>
<speed>0.0</speed>
<temp>0.00</temp>
<bpm>0</bpm>
<rpm>0.00</rpm>
</extensions>
</trkpt>
<trkpt lat="64.216773987" lon="-20.733970642">
<ele>86.277344</ele>
<time>2012-07-19T16:09:46Z</time>
<speed>0.020000</speed>
<extensions>
<speed>0.0</speed>
<temp>0.00</temp>
<bpm>0</bpm>
<rpm>0.00</rpm>
</extensions>
</trkpt>
<trkpt lat="64.216773987" lon="-20.733970642">
<ele>86.257813</ele>
<time>2012-07-19T16:09:51Z</time>
<speed>0.020000</speed>
<extensions>
<speed>0.0</speed>
<temp>0.00</temp>
<bpm>0</bpm>
<rpm>0.00</rpm>
</extensions>
</trkpt>
<trkpt lat="64.216773987" lon="-20.733970642">
<ele>86.248047</ele>
<time>2012-07-19T16:09:56Z</time>
<extensions>
<speed>0.0</speed>
<temp>0.00</temp>
<bpm>0</bpm>
<rpm>0.00</rpm>
</extensions>
</trkpt>
<trkpt lat="64.216773987" lon="-20.733970642">
<ele>86.251953</ele>
<time>2012-07-19T16:10:01Z</time>
<extensions>
<speed>0.0</speed>
<temp>0.00</temp>
<bpm>0</bpm>
<rpm>0.00</rpm>
</extensions>
</trkpt>
<trkpt lat="64.216773987" lon="-20.733970642">
<ele>86.255859</ele>
<time>2012-07-19T16:10:06Z</time>
<extensions>
<speed>0.0</speed>
<temp>0.00</temp>
<bpm>0</bpm>
<rpm>0.00</rpm>
</extensions>
</trkpt>
<trkpt lat="64.216773987" lon="-20.733970642">
<ele>86.238281</ele>
<time>2012-07-19T16:10:11Z</time>
<extensions>
<speed>0.0</speed>
<temp>0.00</temp>
<bpm>0</bpm>
<rpm>0.00</rpm>
</extensions>
</trkpt>
<trkpt lat="64.216781616" lon="-20.733970642">
<ele>87.039063</ele>
<time>2012-07-19T16:10:16Z</time>
<speed>0.190000</speed>
<extensions>
<speed>0.2</speed>
<temp>0.00</temp>
<bpm>0</bpm>
<rpm>0.00</rpm>
</extensions>
</trkpt>
<trkpt lat="64.216781616" lon="-20.733964920">
<ele>86.914063</ele>
<time>2012-07-19T16:10:21Z</time>
<extensions>
<speed>0.0</speed>
<temp>0.00</temp>
<bpm>0</bpm>
<rpm>0.00</rpm>
</extensions>
</trkpt>
<trkpt lat="64.216781616" lon="-20.733964920">
<ele>86.908203</ele>
<time>2012-07-19T16:10:26Z</time>
<speed>0.050000</speed>
<extensions>
<speed>0.1</speed>
<temp>0.00</temp>
<bpm>0</bpm>
<rpm>0.00</rpm>
</extensions>
</trkpt>
<trkpt lat="64.216781616" lon="-20.733964920">
<ele>86.890625</ele>
<time>2012-07-19T16:10:31Z</time>
<speed>0.010000</speed>
<extensions>
<speed>0.0</speed>
<temp>0.00</temp>
<bpm>0</bpm>
<rpm>0.00</rpm>
</extensions>
</trkpt>
<trkpt lat="64.216781616" lon="-20.733964920">
<ele>86.890625</ele>
<time>2012-07-19T16:10:36Z</time>
<extensions>
<speed>0.0</speed>
<temp>0.00</temp>
<bpm>0</bpm>
<rpm>0.00</rpm>
</extensions>
</trkpt>
<trkpt lat="64.216781616" lon="-20.733964920">
<ele>86.878906</ele>
<time>2012-07-19T16:10:41Z</time>
<extensions>
<speed>0.0</speed>
<temp>0.00</temp>
<bpm>0</bpm>
<rpm>0.00</rpm>
</extensions>
</trkpt>
<trkpt lat="64.216781616" lon="-20.733964920">
<ele>86.841797</ele>
<time>2012-07-19T16:10:46Z</time>
<extensions>
<speed>0.0</speed>
<temp>0.00</temp>
<bpm>0</bpm>
<rpm>0.00</rpm>
</extensions>
</trkpt>
<trkpt lat="64.216781616" lon="-20.733963013">
<ele>86.804688</ele>
<time>2012-07-19T16:10:51Z</time>
<extensions>
<speed>0.0</speed>
<temp>0.00</temp>
<bpm>0</bpm>
<rpm>0.00</rpm>
</extensions>
</trkpt>
<trkpt lat="64.216781616" lon="-20.733963013">
<ele>86.785156</ele>
<time>2012-07-19T16:10:56Z</time>
<speed>0.010000</speed>
<extensions>
<speed>0.0</speed>
<temp>0.00</temp>
<bpm>0</bpm>
<rpm>0.00</rpm>
</extensions>
</trkpt>
<trkpt lat="64.216781616" lon="-20.733963013">
<ele>86.771484</ele>
<time>2012-07-19T16:11:01Z</time>
<extensions>
<speed>0.0</speed>
<temp>0.00</temp>
<bpm>0</bpm>
<rpm>0.00</rpm>
</extensions>
</trkpt>
<trkpt lat="64.216781616" lon="-20.733963013">
<ele>86.730469</ele>
<time>2012-07-19T16:11:06Z</time>
<speed>0.010000</speed>
<extensions>
<speed>0.0</speed>
<temp>0.00</temp>
<bpm>0</bpm>
<rpm>0.00</rpm>
</extensions>
</trkpt>
<trkpt lat="64.216781616" lon="-20.733961105">
<ele>86.679688</ele>
<time>2012-07-19T16:11:11Z</time>
<speed>0.030000</speed>
<extensions>
<speed>0.0</speed>
<temp>0.00</temp>
<bpm>0</bpm>
<rpm>0.00</rpm>
</extensions>
</trkpt>
<trkpt lat="64.216781616" lon="-20.733961105">
<ele>86.632813</ele>
<time>2012-07-19T16:11:16Z</time>
<speed>0.010000</speed>
<extensions>
<speed>0.0</speed>
<temp>0.00</temp>
<bpm>0</bpm>
<rpm>0.00</rpm>
</extensions>
</trkpt>
<trkpt lat="64.216781616" lon="-20.733961105">
<ele>86.603516</ele>
<time>2012-07-19T16:11:21Z</time>
<speed>0.010000</speed>
<extensions>
<speed>0.0</speed>
<temp>0.00</temp>
<bpm>0</bpm>
<rpm>0.00</rpm>
</extensions>
</trkpt>
<trkpt lat="64.216781616" lon="-20.733959198">
<ele>86.527344</ele>
<time>2012-07-19T16:11:26Z</time>
<speed>0.030000</speed>
<extensions>
<speed>0.0</speed>
<temp>0.00</temp>
<bpm>0</bpm>
<rpm>0.00</rpm>
</extensions>
</trkpt>
<trkpt lat="64.216781616" lon="-20.733959198">
<ele>86.484375</ele>
<time>2012-07-19T16:11:31Z</time>
<speed>0.010000</speed>
<extensions>
<speed>0.0</speed>
<temp>0.00</temp>
<bpm>0</bpm>
<rpm>0.00</rpm>
</extensions>
</trkpt>
<trkpt lat="64.216781616" lon="-20.733959198">
<ele>86.449219</ele>
<time>2012-07-19T16:11:36Z</time>
<extensions>
<speed>0.0</speed>
<temp>0.00</temp>
<bpm>0</bpm>
<rpm>0.00</rpm>
</extensions>
</trkpt>
<trkpt lat="64.216781616" lon="-20.733959198">
<ele>86.417969</ele>
<time>2012-07-19T16:11:41Z</time>
<speed>0.010000</speed>
<extensions>
<speed>0.0</speed>
<temp>0.00</temp>
<bpm>0</bpm>
<rpm>0.00</rpm>
</extensions>
</trkpt>
<trkpt lat="64.216781616" lon="-20.733957291">
<ele>86.386719</ele>
<time>2012-07-19T16:11:46Z</time>
<extensions>
<speed>0.0</speed>
<temp>0.00</temp>
<bpm>0</bpm>
<rpm>0.00</rpm>
</extensions>
</trkpt>
<trkpt lat="64.216773987" lon="-20.733957291">
<ele>86.376953</ele>
<time>2012-07-19T16:11:51Z</time>
<extensions>
<speed>0.0</speed>
<temp>0.00</temp>
<bpm>0</bpm>
<rpm>0.00</rpm>
</extensions>
</trkpt>
<trkpt lat="64.216773987" lon="-20.733957291">
<ele>86.367188</ele>
<time>2012-07-19T16:11:56Z</time>
<extensions>
<speed>0.0</speed>
<temp>0.00</temp>
<bpm>0</bpm>
<rpm>0.00</rpm>
</extensions>
</trkpt>
<trkpt lat="64.216781616" lon="-20.733957291">
<ele>86.353516</ele>
<time>2012-07-19T16:12:01Z</time>
<speed>0.010000</speed>
<extensions>
<speed>0.0</speed>
<temp>0.00</temp>
<bpm>0</bpm>
<rpm>0.00</rpm>
</extensions>
</trkpt>
<trkpt lat="64.216781616" lon="-20.733957291">
<ele>86.345703</ele>
<time>2012-07-19T16:12:06Z</time>
<extensions>
<speed>0.0</speed>
<temp>0.00</temp>
<bpm>0</bpm>
<rpm>0.00</rpm>
</extensions>
</trkpt>
<trkpt lat="64.216781616" lon="-20.733957291">
<ele>86.335938</ele>
<time>2012-07-19T16:12:11Z</time>
<speed>0.010000</speed>
<extensions>
<speed>0.0</speed>
<temp>0.00</temp>
<bpm>0</bpm>
<rpm>0.00</rpm>
</extensions>
</trkpt>
<trkpt lat="64.216781616" lon="-20.733957291">
<ele>86.332031</ele>
<time>2012-07-19T16:12:16Z</time>
<extensions>
<speed>0.0</speed>
<temp>0.00</temp>
<bpm>0</bpm>
<rpm>0.00</rpm>
</extensions>
</trkpt>
<trkpt lat="64.216781616" lon="-20.733957291">
<ele>86.332031</ele>
<time>2012-07-19T16:12:21Z</time>
<speed>0.010000</speed>
<extensions>
<speed>0.0</speed>
<temp>0.00</temp>
<bpm>0</bpm>
<rpm>0.00</rpm>
</extensions>
</trkpt>
<trkpt lat="64.216781616" lon="-20.733957291">
<ele>86.337891</ele>
<time>2012-07-19T16:12:26Z</time>
<extensions>
<speed>0.0</speed>
<temp>0.00</temp>
<bpm>0</bpm>
<rpm>0.00</rpm>
</extensions>
</trkpt>
<trkpt lat="64.216781616" lon="-20.733957291">
<ele>86.335938</ele>
<time>2012-07-19T16:12:31Z</time>
<speed>0.050000</speed>
<extensions>
<speed>0.1</speed>
<temp>0.00</temp>
<bpm>0</bpm>
<rpm>0.00</rpm>
</extensions>
</trkpt>
<trkpt lat="64.216781616" lon="-20.733957291">
<ele>86.333984</ele>
<time>2012-07-19T16:12:36Z</time>
<extensions>
<speed>0.0</speed>
<temp>0.00</temp>
<bpm>0</bpm>
<rpm>0.00</rpm>
</extensions>
</trkpt>
<trkpt lat="64.216781616" lon="-20.733957291">
<ele>86.337891</ele>
<time>2012-07-19T16:12:41Z</time>
<extensions>
<speed>0.0</speed>
<temp>0.00</temp>
<bpm>0</bpm>
<rpm>0.00</rpm>
</extensions>
</trkpt>
<trkpt lat="64.216781616" lon="-20.733955383">
<ele>86.339844</ele>
<time>2012-07-19T16:12:46Z</time>
<speed>0.010000</speed>
<extensions>
<speed>0.0</speed>
<temp>0.00</temp>
<bpm>0</bpm>
<rpm>0.00</rpm>
</extensions>
</trkpt>
<trkpt lat="64.216781616" lon="-20.733955383">
<ele>86.347656</ele>
<time>2012-07-19T16:12:51Z</time>
<extensions>
<speed>0.0</speed>
<temp>0.00</temp>
<bpm>0</bpm>
<rpm>0.00</rpm>
</extensions>
</trkpt>
<trkpt lat="64.216781616" lon="-20.733955383">
<ele>86.343750</ele>
<time>2012-07-19T16:12:56Z</time>
<extensions>
<speed>0.0</speed>
<temp>0.00</temp>
<bpm>0</bpm>
<rpm>0.00</rpm>
</extensions>
</trkpt>
<trkpt lat="64.216781616" lon="-20.733955383">
<ele>86.330078</ele>
<time>2012-07-19T16:13:01Z</time>
<extensions>
<speed>0.0</speed>
<temp>0.00</temp>
<bpm>0</bpm>
<rpm>0.00</rpm>
</extensions>
</trkpt>
<trkpt lat="64.216781616" lon="-20.733955383">
<ele>86.314453</ele>
<time>2012-07-19T16:13:06Z</time>
<extensions>
<speed>0.0</speed>
<temp>0.00</temp>
<bpm>0</bpm>
<rpm>0.00</rpm>
</extensions>
</trkpt>
<trkpt lat="64.216781616" lon="-20.733955383">
<ele>86.265625</ele>
<time>2012-07-19T16:13:11Z</time>
<extensions>
<speed>0.0</speed>
<temp>0.00</temp>
<bpm>0</bpm>
<rpm>0.00</rpm>
</extensions>
</trkpt>
<trkpt lat="64.216781616" lon="-20.733955383">
<ele>86.232422</ele>
<time>2012-07-19T16:13:16Z</time>
<speed>0.010000</speed>
<extensions>
<speed>0.0</speed>
<temp>0.00</temp>
<bpm>0</bpm>
<rpm>0.00</rpm>
</extensions>
</trkpt>
<trkpt lat="64.216781616" lon="-20.733955383">
<ele>86.162109</ele>
<time>2012-07-19T16:13:21Z</time>
<speed>0.010000</speed>
<extensions>
<speed>0.0</speed>
<temp>0.00</temp>
<bpm>0</bpm>
<rpm>0.00</rpm>
</extensions>
</trkpt>
<trkpt lat="64.216781616" lon="-20.733955383">
<ele>86.123047</ele>
<time>2012-07-19T16:13:26Z</time>
<speed>0.020000</speed>
<extensions>
<speed>0.0</speed>
<temp>0.00</temp>
<bpm>0</bpm>
<rpm>0.00</rpm>
</extensions>
</trkpt>
<trkpt lat="64.216781616" lon="-20.733955383">
<ele>86.093750</ele>
<time>2012-07-19T16:13:31Z</time>
<speed>0.020000</speed>
<extensions>
<speed>0.0</speed>
<temp>0.00</temp>
<bpm>0</bpm>
<rpm>0.00</rpm>
</extensions>
</trkpt>
<trkpt lat="64.216781616" lon="-20.733953476">
<ele>86.062500</ele>
<time>2012-07-19T16:13:36Z</time>
<speed>0.010000</speed>
<extensions>
<speed>0.0</speed>
<temp>0.00</temp>
<bpm>0</bpm>
<rpm>0.00</rpm>
</extensions>
</trkpt>
<trkpt lat="64.216781616" lon="-20.733953476">
<ele>86.060547</ele>
<time>2012-07-19T16:13:41Z</time>
<speed>0.010000</speed>
<extensions>
<speed>0.0</speed>
<temp>0.00</temp>
<bpm>0</bpm>
<rpm>0.00</rpm>
</extensions>
</trkpt>
<trkpt lat="64.216781616" lon="-20.733953476">
<ele>86.066406</ele>
<time>2012-07-19T16:13:46Z</time>
<extensions>
<speed>0.0</speed>
<temp>0.00</temp>
<bpm>0</bpm>
<rpm>0.00</rpm>
</extensions>
</trkpt>
<trkpt lat="64.216781616" lon="-20.733953476">
<ele>86.056641</ele>
<time>2012-07-19T16:13:51Z</time>
<extensions>
<speed>0.0</speed>
<temp>0.00</temp>
<bpm>0</bpm>
<rpm>0.00</rpm>
</extensions>
</trkpt>
<trkpt lat="64.216781616" lon="-20.733953476">
<ele>86.050781</ele>
<time>2012-07-19T16:13:56Z</time>
<extensions>
<speed>0.0</speed>
<temp>0.00</temp>
<bpm>0</bpm>
<rpm>0.00</rpm>
</extensions>
</trkpt>
<trkpt lat="64.216781616" lon="-20.733953476">
<ele>86.056641</ele>
<time>2012-07-19T16:14:01Z</time>
<extensions>
<speed>0.0</speed>
<temp>0.00</temp>
<bpm>0</bpm>
<rpm>0.00</rpm>
</extensions>
</trkpt>
<trkpt lat="64.216781616" lon="-20.733953476">
<ele>86.052734</ele>
<time>2012-07-19T16:14:06Z</time>
<extensions>
<speed>0.0</speed>
<temp>0.00</temp>
<bpm>0</bpm>
<rpm>0.00</rpm>
</extensions>
</trkpt>
<trkpt lat="64.216781616" lon="-20.733953476">
<ele>86.048828</ele>
<time>2012-07-19T16:14:11Z</time>
<speed>0.010000</speed>
<extensions>
<speed>0.0</speed>
<temp>0.00</temp>
<bpm>0</bpm>
<rpm>0.00</rpm>
</extensions>
</trkpt>
<trkpt lat="64.216781616" lon="-20.733951569">
<ele>86.058594</ele>
<time>2012-07-19T16:14:16Z</time>
<extensions>
<speed>0.0</speed>
<temp>0.00</temp>
<bpm>0</bpm>
<rpm>0.00</rpm>
</extensions>
</trkpt>
<trkpt lat="64.216781616" lon="-20.733951569">
<ele>86.072266</ele>
<time>2012-07-19T16:14:21Z</time>
<speed>0.020000</speed>
<extensions>
<speed>0.0</speed>
<temp>0.00</temp>
<bpm>0</bpm>
<rpm>0.00</rpm>
</extensions>
</trkpt>
<trkpt lat="64.216781616" lon="-20.733951569">
<ele>86.021484</ele>
<time>2012-07-19T16:14:26Z</time>
<speed>0.040000</speed>
<extensions>
<speed>0.0</speed>
<temp>0.00</temp>
<bpm>0</bpm>
<rpm>0.00</rpm>
</extensions>
</trkpt>
<trkpt lat="64.216781616" lon="-20.733949661">
<ele>85.957031</ele>
<time>2012-07-19T16:14:31Z</time>
<extensions>
<speed>0.0</speed>
<temp>0.00</temp>
<bpm>0</bpm>
<rpm>0.00</rpm>
</extensions>
</trkpt>
<trkpt lat="64.216781616" lon="-20.733949661">
<ele>85.904297</ele>
<time>2012-07-19T16:14:36Z</time>
<extensions>
<speed>0.0</speed>
<temp>0.00</temp>
<bpm>0</bpm>
<rpm>0.00</rpm>
</extensions>
</trkpt>
<trkpt lat="64.216781616" lon="-20.733949661">
<ele>85.849609</ele>
<time>2012-07-19T16:14:41Z</time>
<extensions>
<speed>0.0</speed>
<temp>0.00</temp>
<bpm>0</bpm>
<rpm>0.00</rpm>
</extensions>
</trkpt>
<trkpt lat="64.216781616" lon="-20.733949661">
<ele>85.832031</ele>
<time>2012-07-19T16:14:46Z</time>
<speed>0.010000</speed>
<extensions>
<speed>0.0</speed>
<temp>0.00</temp>
<bpm>0</bpm>
<rpm>0.00</rpm>
</extensions>
</trkpt>
<trkpt lat="64.216781616" lon="-20.733947754">
<ele>85.830078</ele>
<time>2012-07-19T16:14:51Z</time>
<speed>0.010000</speed>
<extensions>
<speed>0.0</speed>
<temp>0.00</temp>
<bpm>0</bpm>
<rpm>0.00</rpm>
</extensions>
</trkpt>
<trkpt lat="64.216781616" lon="-20.733947754">
<ele>85.826172</ele>
<time>2012-07-19T16:14:56Z</time>
<speed>0.010000</speed>
<extensions>
<speed>0.0</speed>
<temp>0.00</temp>
<bpm>0</bpm>
<rpm>0.00</rpm>
</extensions>
</trkpt>
<trkpt lat="64.216773987" lon="-20.733947754">
<ele>85.818359</ele>
<time>2012-07-19T16:15:01Z</time>
<speed>0.010000</speed>
<extensions>
<speed>0.0</speed>
<temp>0.00</temp>
<bpm>0</bpm>
<rpm>0.00</rpm>
</extensions>
</trkpt>
<trkpt lat="64.216773987" lon="-20.733945847">
<ele>85.810547</ele>
<time>2012-07-19T16:15:06Z</time>
<speed>0.010000</speed>
<extensions>
<speed>0.0</speed>
<temp>0.00</temp>
<bpm>0</bpm>
<rpm>0.00</rpm>
</extensions>
</trkpt>
<trkpt lat="64.216773987" lon="-20.733945847">
<ele>85.798828</ele>
<time>2012-07-19T16:15:11Z</time>
<speed>0.010000</speed>
<extensions>
<speed>0.0</speed>
<temp>0.00</temp>
<bpm>0</bpm>
<rpm>0.00</rpm>
</extensions>
</trkpt>
<trkpt lat="64.216773987" lon="-20.733945847">
<ele>85.787109</ele>
<time>2012-07-19T16:15:16Z</time>
<speed>0.020000</speed>
<extensions>
<speed>0.0</speed>
<temp>0.00</temp>
<bpm>0</bpm>
<rpm>0.00</rpm>
</extensions>
</trkpt>
<trkpt lat="64.216781616" lon="-20.733947754">
<ele>85.771484</ele>
<time>2012-07-19T16:15:21Z</time>
<speed>0.020000</speed>
<extensions>
<speed>0.0</speed>
<temp>0.00</temp>
<bpm>0</bpm>
<rpm>0.00</rpm>
</extensions>
</trkpt>
<trkpt lat="64.216781616" lon="-20.733945847">
<ele>85.757813</ele>
<time>2012-07-19T16:15:26Z</time>
<speed>0.010000</speed>
<extensions>
<speed>0.0</speed>
<temp>0.00</temp>
<bpm>0</bpm>
<rpm>0.00</rpm>
</extensions>
</trkpt>
<trkpt lat="64.216781616" lon="-20.733945847">
<ele>85.757813</ele>
<time>2012-07-19T16:15:31Z</time>
<extensions>
<speed>0.0</speed>
<temp>0.00</temp>
<bpm>0</bpm>
<rpm>0.00</rpm>
</extensions>
</trkpt>
<trkpt lat="64.216781616" lon="-20.733947754">
<ele>85.720703</ele>
<time>2012-07-19T16:15:36Z</time>
<speed>0.020000</speed>
<extensions>
<speed>0.0</speed>
<temp>0.00</temp>
<bpm>0</bpm>
<rpm>0.00</rpm>
</extensions>
</trkpt>
<trkpt lat="64.216781616" lon="-20.733947754">
<ele>85.664063</ele>
<time>2012-07-19T16:15:41Z</time>
<speed>0.010000</speed>
<extensions>
<speed>0.0</speed>
<temp>0.00</temp>
<bpm>0</bpm>
<rpm>0.00</rpm>
</extensions>
</trkpt>
<trkpt lat="64.216781616" lon="-20.733947754">
<ele>85.689453</ele>
<time>2012-07-19T16:15:46Z</time>
<extensions>
<speed>0.0</speed>
<temp>0.00</temp>
<bpm>0</bpm>
<rpm>0.00</rpm>
</extensions>
</trkpt>
<trkpt lat="64.216781616" lon="-20.733947754">
<ele>85.697266</ele>
<time>2012-07-19T16:15:51Z</time>
<speed>0.030000</speed>
<extensions>
<speed>0.0</speed>
<temp>0.00</temp>
<bpm>0</bpm>
<rpm>0.00</rpm>
</extensions>
</trkpt>
<trkpt lat="64.216781616" lon="-20.733947754">
<ele>85.703125</ele>
<time>2012-07-19T16:15:56Z</time>
<speed>0.010000</speed>
<extensions>
<speed>0.0</speed>
<temp>0.00</temp>
<bpm>0</bpm>
<rpm>0.00</rpm>
</extensions>
</trkpt>
<trkpt lat="64.216781616" lon="-20.733947754">
<ele>85.736328</ele>
<time>2012-07-19T16:16:01Z</time>
<speed>0.020000</speed>
<extensions>
<speed>0.0</speed>
<temp>0.00</temp>
<bpm>0</bpm>
<rpm>0.00</rpm>
</extensions>
</trkpt>
<trkpt lat="64.216781616" lon="-20.733945847">
<ele>85.765625</ele>
<time>2012-07-19T16:16:06Z</time>
<extensions>
<speed>0.0</speed>
<temp>0.00</temp>
<bpm>0</bpm>
<rpm>0.00</rpm>
</extensions>
</trkpt>
<trkpt lat="64.216781616" lon="-20.733945847">
<ele>85.769531</ele>
<time>2012-07-19T16:16:11Z</time>
<extensions>
<speed>0.0</speed>
<temp>0.00</temp>
<bpm>0</bpm>
<rpm>0.00</rpm>
</extensions>
</trkpt>
<trkpt lat="64.216781616" lon="-20.733945847">
<ele>85.779297</ele>
<time>2012-07-19T16:16:16Z</time>
<speed>0.010000</speed>
<extensions>
<speed>0.0</speed>
<temp>0.00</temp>
<bpm>0</bpm>
<rpm>0.00</rpm>
</extensions>
</trkpt>
<trkpt lat="64.216781616" lon="-20.733945847">
<ele>85.789063</ele>
<time>2012-07-19T16:16:21Z</time>
<speed>0.010000</speed>
<extensions>
<speed>0.0</speed>
<temp>0.00</temp>
<bpm>0</bpm>
<rpm>0.00</rpm>
</extensions>
</trkpt>
<trkpt lat="64.216781616" lon="-20.733945847">
<ele>85.798828</ele>
<time>2012-07-19T16:16:26Z</time>
<speed>0.020000</speed>
<extensions>
<speed>0.0</speed>
<temp>0.00</temp>
<bpm>0</bpm>
<rpm>0.00</rpm>
</extensions>
</trkpt>
<trkpt lat="64.216781616" lon="-20.733945847">
<ele>85.789063</ele>
<time>2012-07-19T16:16:31Z</time>
<extensions>
<speed>0.0</speed>
<temp>0.00</temp>
<bpm>0</bpm>
<rpm>0.00</rpm>
</extensions>
</trkpt>
<trkpt lat="64.216781616" lon="-20.733943939">
<ele>85.761719</ele>
<time>2012-07-19T16:16:36Z</time>
<speed>0.010000</speed>
<extensions>
<speed>0.0</speed>
<temp>0.00</temp>
<bpm>0</bpm>
<rpm>0.00</rpm>
</extensions>
</trkpt>
<trkpt lat="64.216781616" lon="-20.733943939">
<ele>85.724609</ele>
<time>2012-07-19T16:16:41Z</time>
<speed>0.010000</speed>
<extensions>
<speed>0.0</speed>
<temp>0.00</temp>
<bpm>0</bpm>
<rpm>0.00</rpm>
</extensions>
</trkpt>
<trkpt lat="64.216781616" lon="-20.733943939">
<ele>85.669922</ele>
<time>2012-07-19T16:16:46Z</time>
<speed>0.020000</speed>
<extensions>
<speed>0.0</speed>
<temp>0.00</temp>
<bpm>0</bpm>
<rpm>0.00</rpm>
</extensions>
</trkpt>
<trkpt lat="64.216781616" lon="-20.733943939">
<ele>85.628906</ele>
<time>2012-07-19T16:16:51Z</time>
<extensions>
<speed>0.0</speed>
<temp>0.00</temp>
<bpm>0</bpm>
<rpm>0.00</rpm>
</extensions>
</trkpt>
<trkpt lat="64.216781616" lon="-20.733943939">
<ele>85.605469</ele>
<time>2012-07-19T16:16:56Z</time>
<extensions>
<speed>0.0</speed>
<temp>0.00</temp>
<bpm>0</bpm>
<rpm>0.00</rpm>
</extensions>
</trkpt>
<trkpt lat="64.216781616" lon="-20.733942032">
<ele>85.597656</ele>
<time>2012-07-19T16:17:01Z</time>
<speed>0.010000</speed>
<extensions>
<speed>0.0</speed>
<temp>0.00</temp>
<bpm>0</bpm>
<rpm>0.00</rpm>
</extensions>
</trkpt>
<trkpt lat="64.216781616" lon="-20.733943939">
<ele>85.599609</ele>
<time>2012-07-19T16:17:06Z</time>
<speed>0.010000</speed>
<extensions>
<speed>0.0</speed>
<temp>0.00</temp>
<bpm>0</bpm>
<rpm>0.00</rpm>
</extensions>
</trkpt>
<trkpt lat="64.216781616" lon="-20.733942032">
<ele>85.560547</ele>
<time>2012-07-19T16:17:11Z</time>
<speed>0.010000</speed>
<extensions>
<speed>0.0</speed>
<temp>0.00</temp>
<bpm>0</bpm>
<rpm>0.00</rpm>
</extensions>
</trkpt>
<trkpt lat="64.216781616" lon="-20.733942032">
<ele>85.535156</ele>
<time>2012-07-19T16:17:16Z</time>
<speed>0.010000</speed>
<extensions>
<speed>0.0</speed>
<temp>0.00</temp>
<bpm>0</bpm>
<rpm>0.00</rpm>
</extensions>
</trkpt>
<trkpt lat="64.216781616" lon="-20.733942032">
<ele>85.484375</ele>
<time>2012-07-19T16:17:21Z</time>
<speed>0.010000</speed>
<extensions>
<speed>0.0</speed>
<temp>0.00</temp>
<bpm>0</bpm>
<rpm>0.00</rpm>
</extensions>
</trkpt>
<trkpt lat="64.216781616" lon="-20.733942032">
<ele>85.464844</ele>
<time>2012-07-19T16:17:26Z</time>
<extensions>
<speed>0.0</speed>
<temp>0.00</temp>
<bpm>0</bpm>
<rpm>0.00</rpm>
</extensions>
</trkpt>
<trkpt lat="64.216781616" lon="-20.733942032">
<ele>85.492188</ele>
<time>2012-07-19T16:17:31Z</time>
<speed>0.010000</speed>
<extensions>
<speed>0.0</speed>
<temp>0.00</temp>
<bpm>0</bpm>
<rpm>0.00</rpm>
</extensions>
</trkpt>
<trkpt lat="64.216781616" lon="-20.733942032">
<ele>85.525391</ele>
<time>2012-07-19T16:17:36Z</time>
<speed>0.010000</speed>
<extensions>
<speed>0.0</speed>
<temp>0.00</temp>
<bpm>0</bpm>
<rpm>0.00</rpm>
</extensions>
</trkpt>
<trkpt lat="64.216781616" lon="-20.733942032">
<ele>85.517578</ele>
<time>2012-07-19T16:17:41Z</time>
<extensions>
<speed>0.0</speed>
<temp>0.00</temp>
<bpm>0</bpm>
<rpm>0.00</rpm>
</extensions>
</trkpt>
<trkpt lat="64.216781616" lon="-20.733940125">
<ele>85.478516</ele>
<time>2012-07-19T16:17:46Z</time>
<speed>0.010000</speed>
<extensions>
<speed>0.0</speed>
<temp>0.00</temp>
<bpm>0</bpm>
<rpm>0.00</rpm>
</extensions>
</trkpt>
<trkpt lat="64.216781616" lon="-20.733940125">
<ele>85.419922</ele>
<time>2012-07-19T16:17:51Z</time>
<speed>0.010000</speed>
<extensions>
<speed>0.0</speed>
<temp>0.00</temp>
<bpm>0</bpm>
<rpm>0.00</rpm>
</extensions>
</trkpt>
<trkpt lat="64.216781616" lon="-20.733940125">
<ele>85.359375</ele>
<time>2012-07-19T16:17:56Z</time>
<speed>0.020000</speed>
<extensions>
<speed>0.0</speed>
<temp>0.00</temp>
<bpm>0</bpm>
<rpm>0.00</rpm>
</extensions>
</trkpt>
<trkpt lat="64.216781616" lon="-20.733940125">
<ele>85.304688</ele>
<time>2012-07-19T16:18:01Z</time>
<extensions>
<speed>0.0</speed>
<temp>0.00</temp>
<bpm>0</bpm>
<rpm>0.00</rpm>
</extensions>
</trkpt>
<trkpt lat="64.216781616" lon="-20.733940125">
<ele>85.273438</ele>
<time>2012-07-19T16:18:06Z</time>
<speed>0.020000</speed>
<extensions>
<speed>0.0</speed>
<temp>0.00</temp>
<bpm>0</bpm>
<rpm>0.00</rpm>
</extensions>
</trkpt>
<trkpt lat="64.216781616" lon="-20.733940125">
<ele>85.269531</ele>
<time>2012-07-19T16:18:11Z</time>
<extensions>
<speed>0.0</speed>
<temp>0.00</temp>
<bpm>0</bpm>
<rpm>0.00</rpm>
</extensions>
</trkpt>
<trkpt lat="64.216781616" lon="-20.733940125">
<ele>85.267578</ele>
<time>2012-07-19T16:18:16Z</time>
<extensions>
<speed>0.0</speed>
<temp>0.00</temp>
<bpm>0</bpm>
<rpm>0.00</rpm>
</extensions>
</trkpt>
<trkpt lat="64.216781616" lon="-20.733940125">
<ele>85.285156</ele>
<time>2012-07-19T16:18:21Z</time>
<extensions>
<speed>0.0</speed>
<temp>0.00</temp>
<bpm>0</bpm>
<rpm>0.00</rpm>
</extensions>
</trkpt>
<trkpt lat="64.216781616" lon="-20.733940125">
<ele>85.318359</ele>
<time>2012-07-19T16:18:26Z</time>
<extensions>
<speed>0.0</speed>
<temp>0.00</temp>
<bpm>0</bpm>
<rpm>0.00</rpm>
</extensions>
</trkpt>
<trkpt lat="64.216773987" lon="-20.733940125">
<ele>85.347656</ele>
<time>2012-07-19T16:18:31Z</time>
<extensions>
<speed>0.0</speed>
<temp>0.00</temp>
<bpm>0</bpm>
<rpm>0.00</rpm>
</extensions>
</trkpt>
<trkpt lat="64.216781616" lon="-20.733940125">
<ele>85.376953</ele>
<time>2012-07-19T16:18:36Z</time>
<speed>0.030000</speed>
<extensions>
<speed>0.0</speed>
<temp>0.00</temp>
<bpm>0</bpm>
<rpm>0.00</rpm>
</extensions>
</trkpt>
<trkpt lat="64.216781616" lon="-20.733940125">
<ele>85.367188</ele>
<time>2012-07-19T16:18:41Z</time>
<extensions>
<speed>0.0</speed>
<temp>0.00</temp>
<bpm>0</bpm>
<rpm>0.00</rpm>
</extensions>
</trkpt>
<trkpt lat="64.216781616" lon="-20.733940125">
<ele>85.332031</ele>
<time>2012-07-19T16:18:46Z</time>
<speed>0.020000</speed>
<extensions>
<speed>0.0</speed>
<temp>0.00</temp>
<bpm>0</bpm>
<rpm>0.00</rpm>
</extensions>
</trkpt>
<trkpt lat="64.216781616" lon="-20.733940125">
<ele>85.361328</ele>
<time>2012-07-19T16:18:51Z</time>
<extensions>
<speed>0.0</speed>
<temp>0.00</temp>
<bpm>0</bpm>
<rpm>0.00</rpm>
</extensions>
</trkpt>
<trkpt lat="64.216781616" lon="-20.733940125">
<ele>85.361328</ele>
<time>2012-07-19T16:18:56Z</time>
<speed>0.020000</speed>
<extensions>
<speed>0.0</speed>
<temp>0.00</temp>
<bpm>0</bpm>
<rpm>0.00</rpm>
</extensions>
</trkpt>
<trkpt lat="64.216781616" lon="-20.733940125">
<ele>85.388672</ele>
<time>2012-07-19T16:19:01Z</time>
<speed>0.010000</speed>
<extensions>
<speed>0.0</speed>
<temp>0.00</temp>
<bpm>0</bpm>
<rpm>0.00</rpm>
</extensions>
</trkpt>
<trkpt lat="64.216781616" lon="-20.733940125">
<ele>85.412109</ele>
<time>2012-07-19T16:19:06Z</time>
<extensions>
<speed>0.0</speed>
<temp>0.00</temp>
<bpm>0</bpm>
<rpm>0.00</rpm>
</extensions>
</trkpt>
<trkpt lat="64.216781616" lon="-20.733940125">
<ele>85.406250</ele>
<time>2012-07-19T16:19:11Z</time>
<extensions>
<speed>0.0</speed>
<temp>0.00</temp>
<bpm>0</bpm>
<rpm>0.00</rpm>
</extensions>
</trkpt>
<trkpt lat="64.216781616" lon="-20.733940125">
<ele>85.380859</ele>
<time>2012-07-19T16:19:16Z</time>
<extensions>
<speed>0.0</speed>
<temp>0.00</temp>
<bpm>0</bpm>
<rpm>0.00</rpm>
</extensions>
</trkpt>
<trkpt lat="64.216781616" lon="-20.733940125">
<ele>85.357422</ele>
<time>2012-07-19T16:19:21Z</time>
<speed>0.010000</speed>
<extensions>
<speed>0.0</speed>
<temp>0.00</temp>
<bpm>0</bpm>
<rpm>0.00</rpm>
</extensions>
</trkpt>
<trkpt lat="64.216781616" lon="-20.733940125">
<ele>85.359375</ele>
<time>2012-07-19T16:19:26Z</time>
<speed>0.020000</speed>
<extensions>
<speed>0.0</speed>
<temp>0.00</temp>
<bpm>0</bpm>
<rpm>0.00</rpm>
</extensions>
</trkpt>
<trkpt lat="64.216781616" lon="-20.733940125">
<ele>85.347656</ele>
<time>2012-07-19T16:19:31Z</time>
<extensions>
<speed>0.0</speed>
<temp>0.00</temp>
<bpm>0</bpm>
<rpm>0.00</rpm>
</extensions>
</trkpt>
<trkpt lat="64.216781616" lon="-20.733940125">
<ele>85.341797</ele>
<time>2012-07-19T16:19:36Z</time>
<extensions>
<speed>0.0</speed>
<temp>0.00</temp>
<bpm>0</bpm>
<rpm>0.00</rpm>
</extensions>
</trkpt>
<trkpt lat="64.216781616" lon="-20.733940125">
<ele>85.339844</ele>
<time>2012-07-19T16:19:41Z</time>
<speed>0.020000</speed>
<extensions>
<speed>0.0</speed>
<temp>0.00</temp>
<bpm>0</bpm>
<rpm>0.00</rpm>
</extensions>
</trkpt>
<trkpt lat="64.216781616" lon="-20.733940125">
<ele>85.359375</ele>
<time>2012-07-19T16:19:46Z</time>
<extensions>
<speed>0.0</speed>
<temp>0.00</temp>
<bpm>0</bpm>
<rpm>0.00</rpm>
</extensions>
</trkpt>
<trkpt lat="64.216781616" lon="-20.733940125">
<ele>85.371094</ele>
<time>2012-07-19T16:19:51Z</time>
<speed>0.030000</speed>
<extensions>
<speed>0.0</speed>
<temp>0.00</temp>
<bpm>0</bpm>
<rpm>0.00</rpm>
</extensions>
</trkpt>
<trkpt lat="64.216781616" lon="-20.733940125">
<ele>85.357422</ele>
<time>2012-07-19T16:19:56Z</time>
<extensions>
<speed>0.0</speed>
<temp>0.00</temp>
<bpm>0</bpm>
<rpm>0.00</rpm>
</extensions>
</trkpt>
<trkpt lat="64.216781616" lon="-20.733940125">
<ele>85.371094</ele>
<time>2012-07-19T16:20:01Z</time>
<speed>0.010000</speed>
<extensions>
<speed>0.0</speed>
<temp>0.00</temp>
<bpm>0</bpm>
<rpm>0.00</rpm>
</extensions>
</trkpt>
<trkpt lat="64.216781616" lon="-20.733940125">
<ele>85.382813</ele>
<time>2012-07-19T16:20:06Z</time>
<extensions>
<speed>0.0</speed>
<temp>0.00</temp>
<bpm>0</bpm>
<rpm>0.00</rpm>
</extensions>
</trkpt>
<trkpt lat="64.216781616" lon="-20.733942032">
<ele>85.404297</ele>
<time>2012-07-19T16:20:11Z</time>
<speed>0.020000</speed>
<extensions>
<speed>0.0</speed>
<temp>0.00</temp>
<bpm>0</bpm>
<rpm>0.00</rpm>
</extensions>
</trkpt>
<trkpt lat="64.216781616" lon="-20.733942032">
<ele>85.423828</ele>
<time>2012-07-19T16:20:16Z</time>
<speed>0.010000</speed>
<extensions>
<speed>0.0</speed>
<temp>0.00</temp>
<bpm>0</bpm>
<rpm>0.00</rpm>
</extensions>
</trkpt>
<trkpt lat="64.216781616" lon="-20.733942032">
<ele>85.421875</ele>
<time>2012-07-19T16:20:21Z</time>
<speed>0.010000</speed>
<extensions>
<speed>0.0</speed>
<temp>0.00</temp>
<bpm>0</bpm>
<rpm>0.00</rpm>
</extensions>
</trkpt>
<trkpt lat="64.216781616" lon="-20.733942032">
<ele>85.421875</ele>
<time>2012-07-19T16:20:26Z</time>
<speed>0.020000</speed>
<extensions>
<speed>0.0</speed>
<temp>0.00</temp>
<bpm>0</bpm>
<rpm>0.00</rpm>
</extensions>
</trkpt>
<trkpt lat="64.216781616" lon="-20.733942032">
<ele>85.412109</ele>
<time>2012-07-19T16:20:31Z</time>
<extensions>
<speed>0.0</speed>
<temp>0.00</temp>
<bpm>0</bpm>
<rpm>0.00</rpm>
</extensions>
</trkpt>
<trkpt lat="64.216781616" lon="-20.733942032">
<ele>85.390625</ele>
<time>2012-07-19T16:20:36Z</time>
<speed>0.030000</speed>
<extensions>
<speed>0.0</speed>
<temp>0.00</temp>
<bpm>0</bpm>
<rpm>0.00</rpm>
</extensions>
</trkpt>
<trkpt lat="64.216781616" lon="-20.733942032">
<ele>85.345703</ele>
<time>2012-07-19T16:20:41Z</time>
<speed>0.010000</speed>
<extensions>
<speed>0.0</speed>
<temp>0.00</temp>
<bpm>0</bpm>
<rpm>0.00</rpm>
</extensions>
</trkpt>
<trkpt lat="64.216781616" lon="-20.733942032">
<ele>85.328125</ele>
<time>2012-07-19T16:20:46Z</time>
<speed>0.020000</speed>
<extensions>
<speed>0.0</speed>
<temp>0.00</temp>
<bpm>0</bpm>
<rpm>0.00</rpm>
</extensions>
</trkpt>
<trkpt lat="64.216781616" lon="-20.733942032">
<ele>85.306641</ele>
<time>2012-07-19T16:20:51Z</time>
<speed>0.010000</speed>
<extensions>
<speed>0.0</speed>
<temp>0.00</temp>
<bpm>0</bpm>
<rpm>0.00</rpm>
</extensions>
</trkpt>
<trkpt lat="64.216781616" lon="-20.733942032">
<ele>85.285156</ele>
<time>2012-07-19T16:20:56Z</time>
<speed>0.010000</speed>
<extensions>
<speed>0.0</speed>
<temp>0.00</temp>
<bpm>0</bpm>
<rpm>0.00</rpm>
</extensions>
</trkpt>
<trkpt lat="64.216781616" lon="-20.733942032">
<ele>85.291016</ele>
<time>2012-07-19T16:21:01Z</time>
<extensions>
<speed>0.0</speed>
<temp>0.00</temp>
<bpm>0</bpm>
<rpm>0.00</rpm>
</extensions>
</trkpt>
<trkpt lat="64.216781616" lon="-20.733942032">
<ele>85.289063</ele>
<time>2012-07-19T16:21:06Z</time>
<speed>0.010000</speed>
<extensions>
<speed>0.0</speed>
<temp>0.00</temp>
<bpm>0</bpm>
<rpm>0.00</rpm>
</extensions>
</trkpt>
<trkpt lat="64.216781616" lon="-20.733942032">
<ele>85.294922</ele>
<time>2012-07-19T16:21:11Z</time>
<speed>0.030000</speed>
<extensions>
<speed>0.0</speed>
<temp>0.00</temp>
<bpm>0</bpm>
<rpm>0.00</rpm>
</extensions>
</trkpt>
<trkpt lat="64.216781616" lon="-20.733942032">
<ele>85.294922</ele>
<time>2012-07-19T16:21:16Z</time>
<speed>0.010000</speed>
<extensions>
<speed>0.0</speed>
<temp>0.00</temp>
<bpm>0</bpm>
<rpm>0.00</rpm>
</extensions>
</trkpt>
<trkpt lat="64.216781616" lon="-20.733942032">
<ele>85.285156</ele>
<time>2012-07-19T16:21:21Z</time>
<speed>0.010000</speed>
<extensions>
<speed>0.0</speed>
<temp>0.00</temp>
<bpm>0</bpm>
<rpm>0.00</rpm>
</extensions>
</trkpt>
<trkpt lat="64.216781616" lon="-20.733942032">
<ele>85.283203</ele>
<time>2012-07-19T16:21:26Z</time>
<speed>0.050000</speed>
<extensions>
<speed>0.1</speed>
<temp>0.00</temp>
<bpm>0</bpm>
<rpm>0.00</rpm>
</extensions>
</trkpt>
<trkpt lat="64.216781616" lon="-20.733942032">
<ele>85.298828</ele>
<time>2012-07-19T16:21:31Z</time>
<extensions>
<speed>0.0</speed>
<temp>0.00</temp>
<bpm>0</bpm>
<rpm>0.00</rpm>
</extensions>
</trkpt>
<trkpt lat="64.216781616" lon="-20.733942032">
<ele>85.302734</ele>
<time>2012-07-19T16:21:36Z</time>
<extensions>
<speed>0.0</speed>
<temp>0.00</temp>
<bpm>0</bpm>
<rpm>0.00</rpm>
</extensions>
</trkpt>
<trkpt lat="64.216781616" lon="-20.733942032">
<ele>85.306641</ele>
<time>2012-07-19T16:21:41Z</time>
<speed>0.020000</speed>
<extensions>
<speed>0.0</speed>
<temp>0.00</temp>
<bpm>0</bpm>
<rpm>0.00</rpm>
</extensions>
</trkpt>
<trkpt lat="64.216781616" lon="-20.733942032">
<ele>85.292969</ele>
<time>2012-07-19T16:21:46Z</time>
<speed>0.010000</speed>
<extensions>
<speed>0.0</speed>
<temp>0.00</temp>
<bpm>0</bpm>
<rpm>0.00</rpm>
</extensions>
</trkpt>
<trkpt lat="64.216781616" lon="-20.733942032">
<ele>85.285156</ele>
<time>2012-07-19T16:21:51Z</time>
<speed>0.020000</speed>
<extensions>
<speed>0.0</speed>
<temp>0.00</temp>
<bpm>0</bpm>
<rpm>0.00</rpm>
</extensions>
</trkpt>
<trkpt lat="64.216781616" lon="-20.733942032">
<ele>85.277344</ele>
<time>2012-07-19T16:21:56Z</time>
<speed>0.010000</speed>
<extensions>
<speed>0.0</speed>
<temp>0.00</temp>
<bpm>0</bpm>
<rpm>0.00</rpm>
</extensions>
</trkpt>
<trkpt lat="64.216781616" lon="-20.733942032">
<ele>85.265625</ele>
<time>2012-07-19T16:22:01Z</time>
<speed>0.010000</speed>
<extensions>
<speed>0.0</speed>
<temp>0.00</temp>
<bpm>0</bpm>
<rpm>0.00</rpm>
</extensions>
</trkpt>
<trkpt lat="64.216781616" lon="-20.733942032">
<ele>85.271484</ele>
<time>2012-07-19T16:22:06Z</time>
<extensions>
<speed>0.0</speed>
<temp>0.00</temp>
<bpm>0</bpm>
<rpm>0.00</rpm>
</extensions>
</trkpt>
<trkpt lat="64.216781616" lon="-20.733942032">
<ele>85.271484</ele>
<time>2012-07-19T16:22:11Z</time>
<extensions>
<speed>0.0</speed>
<temp>0.00</temp>
<bpm>0</bpm>
<rpm>0.00</rpm>
</extensions>
</trkpt>
<trkpt lat="64.216781616" lon="-20.733942032">
<ele>85.271484</ele>
<time>2012-07-19T16:22:16Z</time>
<speed>0.010000</speed>
<extensions>
<speed>0.0</speed>
<temp>0.00</temp>
<bpm>0</bpm>
<rpm>0.00</rpm>
</extensions>
</trkpt>
<trkpt lat="64.216781616" lon="-20.733942032">
<ele>85.273438</ele>
<time>2012-07-19T16:22:21Z</time>
<speed>0.040000</speed>
<extensions>
<speed>0.0</speed>
<temp>0.00</temp>
<bpm>0</bpm>
<rpm>0.00</rpm>
</extensions>
</trkpt>
<trkpt lat="64.216781616" lon="-20.733942032">
<ele>85.271484</ele>
<time>2012-07-19T16:22:26Z</time>
<speed>0.010000</speed>
<extensions>
<speed>0.0</speed>
<temp>0.00</temp>
<bpm>0</bpm>
<rpm>0.00</rpm>
</extensions>
</trkpt>
<trkpt lat="64.216781616" lon="-20.733942032">
<ele>85.263672</ele>
<time>2012-07-19T16:22:31Z</time>
<extensions>
<speed>0.0</speed>
<temp>0.00</temp>
<bpm>0</bpm>
<rpm>0.00</rpm>
</extensions>
</trkpt>
<trkpt lat="64.216781616" lon="-20.733942032">
<ele>85.257813</ele>
<time>2012-07-19T16:22:36Z</time>
<extensions>
<speed>0.0</speed>
<temp>0.00</temp>
<bpm>0</bpm>
<rpm>0.00</rpm>
</extensions>
</trkpt>
<trkpt lat="64.216781616" lon="-20.733942032">
<ele>85.251953</ele>
<time>2012-07-19T16:22:41Z</time>
<speed>0.010000</speed>
<extensions>
<speed>0.0</speed>
<temp>0.00</temp>
<bpm>0</bpm>
<rpm>0.00</rpm>
</extensions>
</trkpt>
<trkpt lat="64.216781616" lon="-20.733942032">
<ele>85.255859</ele>
<time>2012-07-19T16:22:46Z</time>
<speed>0.010000</speed>
<extensions>
<speed>0.0</speed>
<temp>0.00</temp>
<bpm>0</bpm>
<rpm>0.00</rpm>
</extensions>
</trkpt>
<trkpt lat="64.216781616" lon="-20.733942032">
<ele>85.246094</ele>
<time>2012-07-19T16:22:51Z</time>
<speed>0.010000</speed>
<extensions>
<speed>0.0</speed>
<temp>0.00</temp>
<bpm>0</bpm>
<rpm>0.00</rpm>
</extensions>
</trkpt>
<trkpt lat="64.216781616" lon="-20.733940125">
<ele>85.226563</ele>
<time>2012-07-19T16:22:56Z</time>
<speed>0.020000</speed>
<extensions>
<speed>0.0</speed>
<temp>0.00</temp>
<bpm>0</bpm>
<rpm>0.00</rpm>
</extensions>
</trkpt>
<trkpt lat="64.216781616" lon="-20.733940125">
<ele>85.216797</ele>
<time>2012-07-19T16:23:01Z</time>
<speed>0.030000</speed>
<extensions>
<speed>0.0</speed>
<temp>0.00</temp>
<bpm>0</bpm>
<rpm>0.00</rpm>
</extensions>
</trkpt>
<trkpt lat="64.216781616" lon="-20.733940125">
<ele>85.203125</ele>
<time>2012-07-19T16:23:06Z</time>
<speed>0.020000</speed>
<extensions>
<speed>0.0</speed>
<temp>0.00</temp>
<bpm>0</bpm>
<rpm>0.00</rpm>
</extensions>
</trkpt>
<trkpt lat="64.216781616" lon="-20.733940125">
<ele>85.189453</ele>
<time>2012-07-19T16:23:11Z</time>
<speed>0.010000</speed>
<extensions>
<speed>0.0</speed>
<temp>0.00</temp>
<bpm>0</bpm>
<rpm>0.00</rpm>
</extensions>
</trkpt>
<trkpt lat="64.216781616" lon="-20.733938217">
<ele>85.173828</ele>
<time>2012-07-19T16:23:16Z</time>
<extensions>
<speed>0.0</speed>
<temp>0.00</temp>
<bpm>0</bpm>
<rpm>0.00</rpm>
</extensions>
</trkpt>
<trkpt lat="64.216781616" lon="-20.733938217">
<ele>85.152344</ele>
<time>2012-07-19T16:23:21Z</time>
<speed>0.010000</speed>
<extensions>
<speed>0.0</speed>
<temp>0.00</temp>
<bpm>0</bpm>
<rpm>0.00</rpm>
</extensions>
</trkpt>
<trkpt lat="64.216781616" lon="-20.733938217">
<ele>85.128906</ele>
<time>2012-07-19T16:23:26Z</time>
<extensions>
<speed>0.0</speed>
<temp>0.00</temp>
<bpm>0</bpm>
<rpm>0.00</rpm>
</extensions>
</trkpt>
<trkpt lat="64.216781616" lon="-20.733938217">
<ele>85.105469</ele>
<time>2012-07-19T16:23:31Z</time>
<extensions>
<speed>0.0</speed>
<temp>0.00</temp>
<bpm>0</bpm>
<rpm>0.00</rpm>
</extensions>
</trkpt>
<trkpt lat="64.216781616" lon="-20.733936310">
<ele>85.082031</ele>
<time>2012-07-19T16:23:36Z</time>
<extensions>
<speed>0.0</speed>
<temp>0.00</temp>
<bpm>0</bpm>
<rpm>0.00</rpm>
</extensions>
</trkpt>
<trkpt lat="64.216781616" lon="-20.733936310">
<ele>85.062500</ele>
<time>2012-07-19T16:23:41Z</time>
<extensions>
<speed>0.0</speed>
<temp>0.00</temp>
<bpm>0</bpm>
<rpm>0.00</rpm>
</extensions>
</trkpt>
<trkpt lat="64.216781616" lon="-20.733936310">
<ele>85.044922</ele>
<time>2012-07-19T16:23:46Z</time>
<extensions>
<speed>0.0</speed>
<temp>0.00</temp>
<bpm>0</bpm>
<rpm>0.00</rpm>
</extensions>
</trkpt>
<trkpt lat="64.216781616" lon="-20.733936310">
<ele>85.027344</ele>
<time>2012-07-19T16:23:51Z</time>
<extensions>
<speed>0.0</speed>
<temp>0.00</temp>
<bpm>0</bpm>
<rpm>0.00</rpm>
</extensions>
</trkpt>
<trkpt lat="64.216781616" lon="-20.733934402">
<ele>85.015625</ele>
<time>2012-07-19T16:23:56Z</time>
<extensions>
<speed>0.0</speed>
<temp>0.00</temp>
<bpm>0</bpm>
<rpm>0.00</rpm>
</extensions>
</trkpt>
<trkpt lat="64.216781616" lon="-20.733934402">
<ele>85.015625</ele>
<time>2012-07-19T16:24:01Z</time>
<extensions>
<speed>0.0</speed>
<temp>0.00</temp>
<bpm>0</bpm>
<rpm>0.00</rpm>
</extensions>
</trkpt>
<trkpt lat="64.216781616" lon="-20.733934402">
<ele>85.015625</ele>
<time>2012-07-19T16:24:06Z</time>
<extensions>
<speed>0.0</speed>
<temp>0.00</temp>
<bpm>0</bpm>
<rpm>0.00</rpm>
</extensions>
</trkpt>
<trkpt lat="64.216781616" lon="-20.733934402">
<ele>85.023438</ele>
<time>2012-07-19T16:24:11Z</time>
<extensions>
<speed>0.0</speed>
<temp>0.00</temp>
<bpm>0</bpm>
<rpm>0.00</rpm>
</extensions>
</trkpt>
<trkpt lat="64.216781616" lon="-20.733934402">
<ele>85.035156</ele>
<time>2012-07-19T16:24:16Z</time>
<extensions>
<speed>0.0</speed>
<temp>0.00</temp>
<bpm>0</bpm>
<rpm>0.00</rpm>
</extensions>
</trkpt>
<trkpt lat="64.216781616" lon="-20.733934402">
<ele>85.033203</ele>
<time>2012-07-19T16:24:21Z</time>
<extensions>
<speed>0.0</speed>
<temp>0.00</temp>
<bpm>0</bpm>
<rpm>0.00</rpm>
</extensions>
</trkpt>
<trkpt lat="64.216781616" lon="-20.733934402">
<ele>85.031250</ele>
<time>2012-07-19T16:24:26Z</time>
<extensions>
<speed>0.0</speed>
<temp>0.00</temp>
<bpm>0</bpm>
<rpm>0.00</rpm>
</extensions>
</trkpt>
<trkpt lat="64.216781616" lon="-20.733934402">
<ele>85.033203</ele>
<time>2012-07-19T16:24:31Z</time>
<speed>0.010000</speed>
<extensions>
<speed>0.0</speed>
<temp>0.00</temp>
<bpm>0</bpm>
<rpm>0.00</rpm>
</extensions>
</trkpt>
<trkpt lat="64.216781616" lon="-20.733934402">
<ele>85.023438</ele>
<time>2012-07-19T16:24:36Z</time>
<extensions>
<speed>0.0</speed>
<temp>0.00</temp>
<bpm>0</bpm>
<rpm>0.00</rpm>
</extensions>
</trkpt>
<trkpt lat="64.216781616" lon="-20.733934402">
<ele>85.011719</ele>
<time>2012-07-19T16:24:41Z</time>
<speed>0.010000</speed>
<extensions>
<speed>0.0</speed>
<temp>0.00</temp>
<bpm>0</bpm>
<rpm>0.00</rpm>
</extensions>
</trkpt>
<trkpt lat="64.216781616" lon="-20.733934402">
<ele>85.007813</ele>
<time>2012-07-19T16:24:46Z</time>
<speed>0.010000</speed>
<extensions>
<speed>0.0</speed>
<temp>0.00</temp>
<bpm>0</bpm>
<rpm>0.00</rpm>
</extensions>
</trkpt>
<trkpt lat="64.216781616" lon="-20.733934402">
<ele>85.001953</ele>
<time>2012-07-19T16:24:51Z</time>
<speed>0.040000</speed>
<extensions>
<speed>0.0</speed>
<temp>0.00</temp>
<bpm>0</bpm>
<rpm>0.00</rpm>
</extensions>
</trkpt>
<trkpt lat="64.216781616" lon="-20.733934402">
<ele>85.013672</ele>
<time>2012-07-19T16:24:56Z</time>
<speed>0.020000</speed>
<extensions>
<speed>0.0</speed>
<temp>0.00</temp>
<bpm>0</bpm>
<rpm>0.00</rpm>
</extensions>
</trkpt>
<trkpt lat="64.216789246" lon="-20.733964920">
<ele>85.009766</ele>
<time>2012-07-19T16:25:01Z</time>
<speed>0.280000</speed>
<extensions>
<speed>0.3</speed>
<temp>0.00</temp>
<bpm>0</bpm>
<rpm>0.00</rpm>
</extensions>
</trkpt>
<trkpt lat="64.216796875" lon="-20.733970642">
<ele>85.103516</ele>
<time>2012-07-19T16:25:06Z</time>
<speed>0.010000</speed>
<extensions>
<speed>0.0</speed>
<temp>0.00</temp>
<bpm>0</bpm>
<rpm>0.00</rpm>
</extensions>
</trkpt>
<trkpt lat="64.216796875" lon="-20.733970642">
<ele>85.128906</ele>
<time>2012-07-19T16:25:11Z</time>
<extensions>
<speed>0.0</speed>
<temp>0.00</temp>
<bpm>0</bpm>
<rpm>0.00</rpm>
</extensions>
</trkpt>
<trkpt lat="64.216796875" lon="-20.733970642">
<ele>85.105469</ele>
<time>2012-07-19T16:25:16Z</time>
<speed>0.030000</speed>
<extensions>
<speed>0.0</speed>
<temp>0.00</temp>
<bpm>0</bpm>
<rpm>0.00</rpm>
</extensions>
</trkpt>
<trkpt lat="64.216796875" lon="-20.733970642">
<ele>85.093750</ele>
<time>2012-07-19T16:25:21Z</time>
<extensions>
<speed>0.0</speed>
<temp>0.00</temp>
<bpm>0</bpm>
<rpm>0.00</rpm>
</extensions>
</trkpt>
<trkpt lat="64.216796875" lon="-20.733970642">
<ele>85.082031</ele>
<time>2012-07-19T16:25:26Z</time>
<extensions>
<speed>0.0</speed>
<temp>0.00</temp>
<bpm>0</bpm>
<rpm>0.00</rpm>
</extensions>
</trkpt>
<trkpt lat="64.216796875" lon="-20.733970642">
<ele>85.070313</ele>
<time>2012-07-19T16:25:31Z</time>
<extensions>
<speed>0.0</speed>
<temp>0.00</temp>
<bpm>0</bpm>
<rpm>0.00</rpm>
</extensions>
</trkpt>
<trkpt lat="64.216796875" lon="-20.733970642">
<ele>85.064453</ele>
<time>2012-07-19T16:25:36Z</time>
<extensions>
<speed>0.0</speed>
<temp>0.00</temp>
<bpm>0</bpm>
<rpm>0.00</rpm>
</extensions>
</trkpt>
<trkpt lat="64.216796875" lon="-20.733970642">
<ele>85.056641</ele>
<time>2012-07-19T16:25:41Z</time>
<speed>0.030000</speed>
<extensions>
<speed>0.0</speed>
<temp>0.00</temp>
<bpm>0</bpm>
<rpm>0.00</rpm>
</extensions>
</trkpt>
<trkpt lat="64.216796875" lon="-20.733970642">
<ele>85.009766</ele>
<time>2012-07-19T16:25:46Z</time>
<speed>0.010000</speed>
<extensions>
<speed>0.0</speed>
<temp>0.00</temp>
<bpm>0</bpm>
<rpm>0.00</rpm>
</extensions>
</trkpt>
<trkpt lat="64.216796875" lon="-20.733970642">
<ele>84.978516</ele>
<time>2012-07-19T16:25:51Z</time>
<speed>0.220000</speed>
<extensions>
<speed>0.2</speed>
<temp>0.00</temp>
<bpm>0</bpm>
<rpm>0.00</rpm>
</extensions>
</trkpt>
<trkpt lat="64.216796875" lon="-20.734001160">
<ele>84.753906</ele>
<time>2012-07-19T16:25:56Z</time>
<speed>0.130000</speed>
<extensions>
<speed>0.1</speed>
<temp>0.00</temp>
<bpm>0</bpm>
<rpm>0.00</rpm>
</extensions>
</trkpt>
<trkpt lat="64.216796875" lon="-20.734003067">
<ele>84.613281</ele>
<time>2012-07-19T16:26:01Z</time>
<speed>0.030000</speed>
<extensions>
<speed>0.0</speed>
<temp>0.00</temp>
<bpm>0</bpm>
<rpm>0.00</rpm>
</extensions>
</trkpt>
<trkpt lat="64.216796875" lon="-20.734003067">
<ele>84.607422</ele>
<time>2012-07-19T16:26:06Z</time>
<speed>0.040000</speed>
<extensions>
<speed>0.0</speed>
<temp>0.00</temp>
<bpm>0</bpm>
<rpm>0.00</rpm>
</extensions>
</trkpt>
<trkpt lat="64.216796875" lon="-20.733997345">
<ele>84.466797</ele>
<time>2012-07-19T16:26:11Z</time>
<speed>0.060000</speed>
<extensions>
<speed>0.1</speed>
<temp>0.00</temp>
<bpm>0</bpm>
<rpm>0.00</rpm>
</extensions>
</trkpt>
<trkpt lat="64.216796875" lon="-20.733995438">
<ele>84.414063</ele>
<time>2012-07-19T16:26:16Z</time>
<extensions>
<speed>0.0</speed>
<temp>0.00</temp>
<bpm>0</bpm>
<rpm>0.00</rpm>
</extensions>
</trkpt>
<trkpt lat="64.216796875" lon="-20.733995438">
<ele>84.417969</ele>
<time>2012-07-19T16:26:21Z</time>
<speed>0.130000</speed>
<extensions>
<speed>0.1</speed>
<temp>0.00</temp>
<bpm>0</bpm>
<rpm>0.00</rpm>
</extensions>
</trkpt>
<trkpt lat="64.216819763" lon="-20.734098434">
<ele>84.001953</ele>
<time>2012-07-19T16:26:26Z</time>
<speed>1.870000</speed>
<extensions>
<speed>1.9</speed>
<temp>0.00</temp>
<bpm>0</bpm>
<rpm>0.00</rpm>
</extensions>
</trkpt>
<trkpt lat="64.216873169" lon="-20.734163284">
<ele>83.990234</ele>
<time>2012-07-19T16:26:31Z</time>
<speed>1.510000</speed>
<extensions>
<speed>1.5</speed>
<temp>0.00</temp>
<bpm>0</bpm>
<rpm>0.00</rpm>
</extensions>
</trkpt>
<trkpt lat="64.216934204" lon="-20.734115601">
<ele>80.917969</ele>
<time>2012-07-19T16:26:36Z</time>
<speed>1.490000</speed>
<extensions>
<speed>1.5</speed>
<temp>0.00</temp>
<bpm>0</bpm>
<rpm>0.00</rpm>
</extensions>
</trkpt>
<trkpt lat="64.217033386" lon="-20.734086990">
<ele>79.716797</ele>
<time>2012-07-19T16:26:41Z</time>
<speed>2.490000</speed>
<extensions>
<speed>2.5</speed>
<temp>0.00</temp>
<bpm>0</bpm>
<rpm>0.00</rpm>
</extensions>
</trkpt>
<trkpt lat="64.217102051" lon="-20.733993530">
<ele>77.880859</ele>
<time>2012-07-19T16:26:46Z</time>
<speed>0.500000</speed>
<extensions>
<speed>0.5</speed>
<temp>0.00</temp>
<bpm>0</bpm>
<rpm>0.00</rpm>
</extensions>
</trkpt>
<trkpt lat="64.217102051" lon="-20.733909607">
<ele>75.705078</ele>
<time>2012-07-19T16:26:51Z</time>
<speed>1.120000</speed>
<extensions>
<speed>1.1</speed>
<temp>0.00</temp>
<bpm>0</bpm>
<rpm>0.00</rpm>
</extensions>
</trkpt>
<trkpt lat="64.217155457" lon="-20.733890533">
<ele>75.050781</ele>
<time>2012-07-19T16:26:56Z</time>
<speed>0.020000</speed>
<extensions>
<speed>0.0</speed>
<temp>0.00</temp>
<bpm>0</bpm>
<rpm>0.00</rpm>
</extensions>
</trkpt>
<trkpt lat="64.217163086" lon="-20.733886719">
<ele>74.562500</ele>
<time>2012-07-19T16:27:01Z</time>
<speed>0.010000</speed>
<extensions>
<speed>0.0</speed>
<temp>0.00</temp>
<bpm>0</bpm>
<rpm>0.00</rpm>
</extensions>
</trkpt>
<trkpt lat="64.217163086" lon="-20.733886719">
<ele>74.472656</ele>
<time>2012-07-19T16:27:06Z</time>
<speed>0.040000</speed>
<extensions>
<speed>0.0</speed>
<temp>0.00</temp>
<bpm>0</bpm>
<rpm>0.00</rpm>
</extensions>
</trkpt>
<trkpt lat="64.217163086" lon="-20.733886719">
<ele>74.462891</ele>
<time>2012-07-19T16:27:11Z</time>
<extensions>
<speed>0.0</speed>
<temp>0.00</temp>
<bpm>0</bpm>
<rpm>0.00</rpm>
</extensions>
</trkpt>
<trkpt lat="64.217163086" lon="-20.733886719">
<ele>74.447266</ele>
<time>2012-07-19T16:27:16Z</time>
<extensions>
<speed>0.0</speed>
<temp>0.00</temp>
<bpm>0</bpm>
<rpm>0.00</rpm>
</extensions>
</trkpt>
<trkpt lat="64.217163086" lon="-20.733886719">
<ele>74.425781</ele>
<time>2012-07-19T16:27:21Z</time>
<extensions>
<speed>0.0</speed>
<temp>0.00</temp>
<bpm>0</bpm>
<rpm>0.00</rpm>
</extensions>
</trkpt>
<trkpt lat="64.217163086" lon="-20.733886719">
<ele>74.414063</ele>
<time>2012-07-19T16:27:26Z</time>
<extensions>
<speed>0.0</speed>
<temp>0.00</temp>
<bpm>0</bpm>
<rpm>0.00</rpm>
</extensions>
</trkpt>
<trkpt lat="64.217163086" lon="-20.733886719">
<ele>74.406250</ele>
<time>2012-07-19T16:27:31Z</time>
<speed>0.010000</speed>
<extensions>
<speed>0.0</speed>
<temp>0.00</temp>
<bpm>0</bpm>
<rpm>0.00</rpm>
</extensions>
</trkpt>
<trkpt lat="64.217163086" lon="-20.733886719">
<ele>74.394531</ele>
<time>2012-07-19T16:27:36Z</time>
<extensions>
<speed>0.0</speed>
<temp>0.00</temp>
<bpm>0</bpm>
<rpm>0.00</rpm>
</extensions>
</trkpt>
<trkpt lat="64.217163086" lon="-20.733886719">
<ele>74.376953</ele>
<time>2012-07-19T16:27:41Z</time>
<speed>0.020000</speed>
<extensions>
<speed>0.0</speed>
<temp>0.00</temp>
<bpm>0</bpm>
<rpm>0.00</rpm>
</extensions>
</trkpt>
<trkpt lat="64.217163086" lon="-20.733886719">
<ele>74.373047</ele>
<time>2012-07-19T16:27:46Z</time>
<speed>0.010000</speed>
<extensions>
<speed>0.0</speed>
<temp>0.00</temp>
<bpm>0</bpm>
<rpm>0.00</rpm>
</extensions>
</trkpt>
<trkpt lat="64.217163086" lon="-20.733886719">
<ele>74.376953</ele>
<time>2012-07-19T16:27:51Z</time>
<extensions>
<speed>0.0</speed>
<temp>0.00</temp>
<bpm>0</bpm>
<rpm>0.00</rpm>
</extensions>
</trkpt>
<trkpt lat="64.217163086" lon="-20.733884811">
<ele>74.382813</ele>
<time>2012-07-19T16:27:56Z</time>
<speed>0.040000</speed>
<extensions>
<speed>0.0</speed>
<temp>0.00</temp>
<bpm>0</bpm>
<rpm>0.00</rpm>
</extensions>
</trkpt>
<trkpt lat="64.217163086" lon="-20.733880997">
<ele>74.408203</ele>
<time>2012-07-19T16:28:01Z</time>
<speed>0.030000</speed>
<extensions>
<speed>0.0</speed>
<temp>0.00</temp>
<bpm>0</bpm>
<rpm>0.00</rpm>
</extensions>
</trkpt>
<trkpt lat="64.217163086" lon="-20.733879089">
<ele>74.421875</ele>
<time>2012-07-19T16:28:06Z</time>
<speed>0.020000</speed>
<extensions>
<speed>0.0</speed>
<temp>0.00</temp>
<bpm>0</bpm>
<rpm>0.00</rpm>
</extensions>
</trkpt>
<trkpt lat="64.217163086" lon="-20.733877182">
<ele>74.445313</ele>
<time>2012-07-19T16:28:11Z</time>
<speed>0.010000</speed>
<extensions>
<speed>0.0</speed>
<temp>0.00</temp>
<bpm>0</bpm>
<rpm>0.00</rpm>
</extensions>
</trkpt>
<trkpt lat="64.217163086" lon="-20.733879089">
<ele>74.474609</ele>
<time>2012-07-19T16:28:16Z</time>
<extensions>
<speed>0.0</speed>
<temp>0.00</temp>
<bpm>0</bpm>
<rpm>0.00</rpm>
</extensions>
</trkpt>
<trkpt lat="64.217170715" lon="-20.733879089">
<ele>74.501953</ele>
<time>2012-07-19T16:28:21Z</time>
<extensions>
<speed>0.0</speed>
<temp>0.00</temp>
<bpm>0</bpm>
<rpm>0.00</rpm>
</extensions>
</trkpt>
<trkpt lat="64.217170715" lon="-20.733877182">
<ele>74.539063</ele>
<time>2012-07-19T16:28:26Z</time>
<speed>0.180000</speed>
<extensions>
<speed>0.2</speed>
<temp>0.00</temp>
<bpm>0</bpm>
<rpm>0.00</rpm>
</extensions>
</trkpt>
<trkpt lat="64.217155457" lon="-20.733898163">
<ele>74.609375</ele>
<time>2012-07-19T16:28:31Z</time>
<speed>0.980000</speed>
<extensions>
<speed>1.0</speed>
<temp>0.00</temp>
<bpm>0</bpm>
<rpm>0.00</rpm>
</extensions>
</trkpt>
<trkpt lat="64.217109680" lon="-20.733972549">
<ele>74.957031</ele>
<time>2012-07-19T16:28:36Z</time>
<speed>1.210000</speed>
<extensions>
<speed>1.2</speed>
<temp>0.00</temp>
<bpm>0</bpm>
<rpm>0.00</rpm>
</extensions>
</trkpt>
<trkpt lat="64.217086792" lon="-20.734010696">
<ele>75.746094</ele>
<time>2012-07-19T16:28:41Z</time>
<speed>0.470000</speed>
<extensions>
<speed>0.5</speed>
<temp>0.00</temp>
<bpm>0</bpm>
<rpm>0.00</rpm>
</extensions>
</trkpt>
<trkpt lat="64.217071533" lon="-20.734010696">
<ele>76.384766</ele>
<time>2012-07-19T16:28:46Z</time>
<speed>0.260000</speed>
<extensions>
<speed>0.3</speed>
<temp>0.00</temp>
<bpm>0</bpm>
<rpm>0.00</rpm>
</extensions>
</trkpt>
<trkpt lat="64.217071533" lon="-20.734020233">
<ele>76.619141</ele>
<time>2012-07-19T16:28:51Z</time>
<speed>0.020000</speed>
<extensions>
<speed>0.0</speed>
<temp>0.00</temp>
<bpm>0</bpm>
<rpm>0.00</rpm>
</extensions>
</trkpt>
<trkpt lat="64.217071533" lon="-20.734020233">
<ele>76.740234</ele>
<time>2012-07-19T16:28:56Z</time>
<speed>0.030000</speed>
<extensions>
<speed>0.0</speed>
<temp>0.00</temp>
<bpm>0</bpm>
<rpm>0.00</rpm>
</extensions>
</trkpt>
<trkpt lat="64.217071533" lon="-20.734022141">
<ele>76.783203</ele>
<time>2012-07-19T16:29:01Z</time>
<speed>0.010000</speed>
<extensions>
<speed>0.0</speed>
<temp>0.00</temp>
<bpm>0</bpm>
<rpm>0.00</rpm>
</extensions>
</trkpt>
<trkpt lat="64.217071533" lon="-20.734022141">
<ele>76.798828</ele>
<time>2012-07-19T16:29:06Z</time>
<speed>0.010000</speed>
<extensions>
<speed>0.0</speed>
<temp>0.00</temp>
<bpm>0</bpm>
<rpm>0.00</rpm>
</extensions>
</trkpt>
<trkpt lat="64.217071533" lon="-20.734025955">
<ele>76.851563</ele>
<time>2012-07-19T16:29:11Z</time>
<speed>0.010000</speed>
<extensions>
<speed>0.0</speed>
<temp>0.00</temp>
<bpm>0</bpm>
<rpm>0.00</rpm>
</extensions>
</trkpt>
<trkpt lat="64.217071533" lon="-20.734025955">
<ele>76.837891</ele>
<time>2012-07-19T16:29:16Z</time>
<extensions>
<speed>0.0</speed>
<temp>0.00</temp>
<bpm>0</bpm>
<rpm>0.00</rpm>
</extensions>
</trkpt>
<trkpt lat="64.217071533" lon="-20.734025955">
<ele>76.775391</ele>
<time>2012-07-19T16:29:21Z</time>
<speed>0.010000</speed>
<extensions>
<speed>0.0</speed>
<temp>0.00</temp>
<bpm>0</bpm>
<rpm>0.00</rpm>
</extensions>
</trkpt>
<trkpt lat="64.217071533" lon="-20.734024048">
<ele>76.759766</ele>
<time>2012-07-19T16:29:26Z</time>
<speed>0.010000</speed>
<extensions>
<speed>0.0</speed>
<temp>0.00</temp>
<bpm>0</bpm>
<rpm>0.00</rpm>
</extensions>
</trkpt>
<trkpt lat="64.217071533" lon="-20.734024048">
<ele>76.750000</ele>
<time>2012-07-19T16:29:31Z</time>
<extensions>
<speed>0.0</speed>
<temp>0.00</temp>
<bpm>0</bpm>
<rpm>0.00</rpm>
</extensions>
</trkpt>
<trkpt lat="64.217071533" lon="-20.734024048">
<ele>76.751953</ele>
<time>2012-07-19T16:29:36Z</time>
<speed>0.010000</speed>
<extensions>
<speed>0.0</speed>
<temp>0.00</temp>
<bpm>0</bpm>
<rpm>0.00</rpm>
</extensions>
</trkpt>
<trkpt lat="64.217071533" lon="-20.734024048">
<ele>76.751953</ele>
<time>2012-07-19T16:29:41Z</time>
<extensions>
<speed>0.0</speed>
<temp>0.00</temp>
<bpm>0</bpm>
<rpm>0.00</rpm>
</extensions>
</trkpt>
<trkpt lat="64.217071533" lon="-20.734024048">
<ele>76.736328</ele>
<time>2012-07-19T16:29:46Z</time>
<speed>0.030000</speed>
<extensions>
<speed>0.0</speed>
<temp>0.00</temp>
<bpm>0</bpm>
<rpm>0.00</rpm>
</extensions>
</trkpt>
<trkpt lat="64.217071533" lon="-20.734024048">
<ele>76.750000</ele>
<time>2012-07-19T16:29:51Z</time>
<speed>0.010000</speed>
<extensions>
<speed>0.0</speed>
<temp>0.00</temp>
<bpm>0</bpm>
<rpm>0.00</rpm>
</extensions>
</trkpt>
<trkpt lat="64.217071533" lon="-20.734024048">
<ele>76.746094</ele>
<time>2012-07-19T16:29:56Z</time>
<extensions>
<speed>0.0</speed>
<temp>0.00</temp>
<bpm>0</bpm>
<rpm>0.00</rpm>
</extensions>
</trkpt>
<trkpt lat="64.217071533" lon="-20.734024048">
<ele>76.732422</ele>
<time>2012-07-19T16:30:01Z</time>
<speed>0.040000</speed>
<extensions>
<speed>0.0</speed>
<temp>0.00</temp>
<bpm>0</bpm>
<rpm>0.00</rpm>
</extensions>
</trkpt>
<trkpt lat="64.217071533" lon="-20.734024048">
<ele>76.724609</ele>
<time>2012-07-19T16:30:06Z</time>
<speed>0.030000</speed>
<extensions>
<speed>0.0</speed>
<temp>0.00</temp>
<bpm>0</bpm>
<rpm>0.00</rpm>
</extensions>
</trkpt>
<trkpt lat="64.217071533" lon="-20.734024048">
<ele>76.736328</ele>
<time>2012-07-19T16:30:11Z</time>
<speed>0.010000</speed>
<extensions>
<speed>0.0</speed>
<temp>0.00</temp>
<bpm>0</bpm>
<rpm>0.00</rpm>
</extensions>
</trkpt>
<trkpt lat="64.217071533" lon="-20.734022141">
<ele>76.730469</ele>
<time>2012-07-19T16:30:16Z</time>
<extensions>
<speed>0.0</speed>
<temp>0.00</temp>
<bpm>0</bpm>
<rpm>0.00</rpm>
</extensions>
</trkpt>
<trkpt lat="64.217071533" lon="-20.734022141">
<ele>76.730469</ele>
<time>2012-07-19T16:30:21Z</time>
<speed>0.010000</speed>
<extensions>
<speed>0.0</speed>
<temp>0.00</temp>
<bpm>0</bpm>
<rpm>0.00</rpm>
</extensions>
</trkpt>
<trkpt lat="64.217071533" lon="-20.734020233">
<ele>76.728516</ele>
<time>2012-07-19T16:30:26Z</time>
<speed>0.020000</speed>
<extensions>
<speed>0.0</speed>
<temp>0.00</temp>
<bpm>0</bpm>
<rpm>0.00</rpm>
</extensions>
</trkpt>
<trkpt lat="64.217071533" lon="-20.734016418">
<ele>76.687500</ele>
<time>2012-07-19T16:30:31Z</time>
<speed>0.040000</speed>
<extensions>
<speed>0.0</speed>
<temp>0.00</temp>
<bpm>0</bpm>
<rpm>0.00</rpm>
</extensions>
</trkpt>
<trkpt lat="64.217071533" lon="-20.734012604">
<ele>76.634766</ele>
<time>2012-07-19T16:30:36Z</time>
<extensions>
<speed>0.0</speed>
<temp>0.00</temp>
<bpm>0</bpm>
<rpm>0.00</rpm>
</extensions>
</trkpt>
<trkpt lat="64.217071533" lon="-20.734012604">
<ele>76.593750</ele>
<time>2012-07-19T16:30:41Z</time>
<extensions>
<speed>0.0</speed>
<temp>0.00</temp>
<bpm>0</bpm>
<rpm>0.00</rpm>
</extensions>
</trkpt>
<trkpt lat="64.217071533" lon="-20.734012604">
<ele>76.582031</ele>
<time>2012-07-19T16:30:46Z</time>
<speed>0.010000</speed>
<extensions>
<speed>0.0</speed>
<temp>0.00</temp>
<bpm>0</bpm>
<rpm>0.00</rpm>
</extensions>
</trkpt>
<trkpt lat="64.217071533" lon="-20.734012604">
<ele>76.585938</ele>
<time>2012-07-19T16:30:51Z</time>
<speed>0.010000</speed>
<extensions>
<speed>0.0</speed>
<temp>0.00</temp>
<bpm>0</bpm>
<rpm>0.00</rpm>
</extensions>
</trkpt>
<trkpt lat="64.217071533" lon="-20.734012604">
<ele>76.601563</ele>
<time>2012-07-19T16:30:56Z</time>
<extensions>
<speed>0.0</speed>
<temp>0.00</temp>
<bpm>0</bpm>
<rpm>0.00</rpm>
</extensions>
</trkpt>
<trkpt lat="64.217071533" lon="-20.734012604">
<ele>76.611328</ele>
<time>2012-07-19T16:31:01Z</time>
<speed>0.010000</speed>
<extensions>
<speed>0.0</speed>
<temp>0.00</temp>
<bpm>0</bpm>
<rpm>0.00</rpm>
</extensions>
</trkpt>
<trkpt lat="64.217071533" lon="-20.734012604">
<ele>76.626953</ele>
<time>2012-07-19T16:31:06Z</time>
<extensions>
<speed>0.0</speed>
<temp>0.00</temp>
<bpm>0</bpm>
<rpm>0.00</rpm>
</extensions>
</trkpt>
<trkpt lat="64.217071533" lon="-20.734012604">
<ele>76.634766</ele>
<time>2012-07-19T16:31:11Z</time>
<extensions>
<speed>0.0</speed>
<temp>0.00</temp>
<bpm>0</bpm>
<rpm>0.00</rpm>
</extensions>
</trkpt>
<trkpt lat="64.217086792" lon="-20.734003067">
<ele>76.433594</ele>
<time>2012-07-19T16:31:16Z</time>
<speed>0.590000</speed>
<extensions>
<speed>0.6</speed>
<temp>0.00</temp>
<bpm>0</bpm>
<rpm>0.00</rpm>
</extensions>
</trkpt>
<trkpt lat="64.217109680" lon="-20.733961105">
<ele>75.359375</ele>
<time>2012-07-19T16:31:21Z</time>
<speed>0.030000</speed>
<extensions>
<speed>0.0</speed>
<temp>0.00</temp>
<bpm>0</bpm>
<rpm>0.00</rpm>
</extensions>
</trkpt>
<trkpt lat="64.217132568" lon="-20.733947754">
<ele>74.904297</ele>
<time>2012-07-19T16:31:26Z</time>
<speed>1.480000</speed>
<extensions>
<speed>1.5</speed>
<temp>0.00</temp>
<bpm>0</bpm>
<rpm>0.00</rpm>
</extensions>
</trkpt>
<trkpt lat="64.217254639" lon="-20.733989716">
<ele>75.238281</ele>
<time>2012-07-19T16:31:31Z</time>
<speed>3.520000</speed>
<extensions>
<speed>3.5</speed>
<temp>0.00</temp>
<bpm>0</bpm>
<rpm>0.00</rpm>
</extensions>
</trkpt>
<trkpt lat="64.217391968" lon="-20.734060287">
<ele>73.732422</ele>
<time>2012-07-19T16:31:36Z</time>
<speed>3.270000</speed>
<extensions>
<speed>3.3</speed>
<temp>0.00</temp>
<bpm>0</bpm>
<rpm>0.00</rpm>
</extensions>
</trkpt>
<trkpt lat="64.217559814" lon="-20.733930588">
<ele>73.269531</ele>
<time>2012-07-19T16:31:41Z</time>
<speed>3.890000</speed>
<extensions>
<speed>3.9</speed>
<temp>0.00</temp>
<bpm>0</bpm>
<rpm>0.00</rpm>
</extensions>
</trkpt>
<trkpt lat="64.217727661" lon="-20.733798981">
<ele>73.343750</ele>
<time>2012-07-19T16:31:46Z</time>
<speed>3.990000</speed>
<extensions>
<speed>4.0</speed>
<temp>0.00</temp>
<bpm>0</bpm>
<rpm>0.00</rpm>
</extensions>
</trkpt>
<trkpt lat="64.217918396" lon="-20.733627319">
<ele>72.982422</ele>
<time>2012-07-19T16:31:51Z</time>
<speed>4.680000</speed>
<extensions>
<speed>4.7</speed>
<temp>0.00</temp>
<bpm>0</bpm>
<rpm>0.00</rpm>
</extensions>
</trkpt>
<trkpt lat="64.218124390" lon="-20.733446121">
<ele>72.427734</ele>
<time>2012-07-19T16:31:56Z</time>
<speed>5.130000</speed>
<extensions>
<speed>5.1</speed>
<temp>0.00</temp>
<bpm>0</bpm>
<rpm>0.00</rpm>
</extensions>
</trkpt>
<trkpt lat="64.218330383" lon="-20.733213425">
<ele>72.259766</ele>
<time>2012-07-19T16:32:01Z</time>
<speed>5.050000</speed>
<extensions>
<speed>5.1</speed>
<temp>0.00</temp>
<bpm>0</bpm>
<rpm>0.00</rpm>
</extensions>
</trkpt>
<trkpt lat="64.218551636" lon="-20.733016968">
<ele>71.843750</ele>
<time>2012-07-19T16:32:06Z</time>
<speed>5.430000</speed>
<extensions>
<speed>5.4</speed>
<temp>0.00</temp>
<bpm>0</bpm>
<rpm>0.00</rpm>
</extensions>
</trkpt>
<trkpt lat="64.218772888" lon="-20.732843399">
<ele>71.095703</ele>
<time>2012-07-19T16:32:11Z</time>
<speed>5.020000</speed>
<extensions>
<speed>5.0</speed>
<temp>0.00</temp>
<bpm>0</bpm>
<rpm>0.00</rpm>
</extensions>
</trkpt>
<trkpt lat="64.218986511" lon="-20.732681274">
<ele>71.376953</ele>
<time>2012-07-19T16:32:16Z</time>
<speed>5.020000</speed>
<extensions>
<speed>5.0</speed>
<temp>0.00</temp>
<bpm>0</bpm>
<rpm>0.00</rpm>
</extensions>
</trkpt>
<trkpt lat="64.219207764" lon="-20.732433319">
<ele>72.281250</ele>
<time>2012-07-19T16:32:21Z</time>
<speed>5.530000</speed>
<extensions>
<speed>5.5</speed>
<temp>0.00</temp>
<bpm>0</bpm>
<rpm>0.00</rpm>
</extensions>
</trkpt>
<trkpt lat="64.219429016" lon="-20.732172012">
<ele>71.634766</ele>
<time>2012-07-19T16:32:26Z</time>
<speed>5.880000</speed>
<extensions>
<speed>5.9</speed>
<temp>0.00</temp>
<bpm>0</bpm>
<rpm>0.00</rpm>
</extensions>
</trkpt>
<trkpt lat="64.219650269" lon="-20.731853485">
<ele>70.767578</ele>
<time>2012-07-19T16:32:31Z</time>
<speed>6.000000</speed>
<extensions>
<speed>6.0</speed>
<temp>0.00</temp>
<bpm>0</bpm>
<rpm>0.00</rpm>
</extensions>
</trkpt>
<trkpt lat="64.219894409" lon="-20.731550217">
<ele>71.972656</ele>
<time>2012-07-19T16:32:36Z</time>
<speed>6.080000</speed>
<extensions>
<speed>6.1</speed>
<temp>0.00</temp>
<bpm>0</bpm>
<rpm>0.00</rpm>
</extensions>
</trkpt>
<trkpt lat="64.220115662" lon="-20.731189728">
<ele>70.171875</ele>
<time>2012-07-19T16:32:41Z</time>
<speed>6.170000</speed>
<extensions>
<speed>6.2</speed>
<temp>0.00</temp>
<bpm>0</bpm>
<rpm>0.00</rpm>
</extensions>
</trkpt>
<trkpt lat="64.220352173" lon="-20.730833054">
<ele>69.802734</ele>
<time>2012-07-19T16:32:46Z</time>
<speed>6.130000</speed>
<extensions>
<speed>6.1</speed>
<temp>0.00</temp>
<bpm>0</bpm>
<rpm>0.00</rpm>
</extensions>
</trkpt>
<trkpt lat="64.220581055" lon="-20.730489731">
<ele>68.623047</ele>
<time>2012-07-19T16:32:51Z</time>
<speed>6.170000</speed>
<extensions>
<speed>6.2</speed>
<temp>0.00</temp>
<bpm>0</bpm>
<rpm>0.00</rpm>
</extensions>
</trkpt>
<trkpt lat="64.220809937" lon="-20.730146408">
<ele>67.767578</ele>
<time>2012-07-19T16:32:56Z</time>
<speed>6.140000</speed>
<extensions>
<speed>6.1</speed>
<temp>0.00</temp>
<bpm>0</bpm>
<rpm>0.00</rpm>
</extensions>
</trkpt>
<trkpt lat="64.221031189" lon="-20.729789734">
<ele>67.121094</ele>
<time>2012-07-19T16:33:01Z</time>
<speed>6.090000</speed>
<extensions>
<speed>6.1</speed>
<temp>0.00</temp>
<bpm>0</bpm>
<rpm>0.00</rpm>
</extensions>
</trkpt>
<trkpt lat="64.221267700" lon="-20.729440689">
<ele>68.533203</ele>
<time>2012-07-19T16:33:06Z</time>
<speed>6.370000</speed>
<extensions>
<speed>6.4</speed>
<temp>0.00</temp>
<bpm>0</bpm>
<rpm>0.00</rpm>
</extensions>
</trkpt>
<trkpt lat="64.221511841" lon="-20.729089737">
<ele>69.076172</ele>
<time>2012-07-19T16:33:11Z</time>
<speed>6.330000</speed>
<extensions>
<speed>6.3</speed>
<temp>0.00</temp>
<bpm>0</bpm>
<rpm>0.00</rpm>
</extensions>
</trkpt>
<trkpt lat="64.221763611" lon="-20.728731155">
<ele>70.935547</ele>
<time>2012-07-19T16:33:16Z</time>
<speed>6.600000</speed>
<extensions>
<speed>6.6</speed>
<temp>0.00</temp>
<bpm>0</bpm>
<rpm>0.00</rpm>
</extensions>
</trkpt>
<trkpt lat="64.222007751" lon="-20.728361130">
<ele>72.390625</ele>
<time>2012-07-19T16:33:21Z</time>
<speed>6.480000</speed>
<extensions>
<speed>6.5</speed>
<temp>0.00</temp>
<bpm>0</bpm>
<rpm>0.00</rpm>
</extensions>
</trkpt>
<trkpt lat="64.222244263" lon="-20.727991104">
<ele>73.523438</ele>
<time>2012-07-19T16:33:26Z</time>
<speed>6.420000</speed>
<extensions>
<speed>6.4</speed>
<temp>0.00</temp>
<bpm>0</bpm>
<rpm>0.00</rpm>
</extensions>
</trkpt>
<trkpt lat="64.222480774" lon="-20.727607727">
<ele>72.423828</ele>
<time>2012-07-19T16:33:31Z</time>
<speed>6.450000</speed>
<extensions>
<speed>6.4</speed>
<temp>0.00</temp>
<bpm>0</bpm>
<rpm>0.00</rpm>
</extensions>
</trkpt>
<trkpt lat="64.222724915" lon="-20.727260590">
<ele>73.542969</ele>
<time>2012-07-19T16:33:36Z</time>
<speed>6.440000</speed>
<extensions>
<speed>6.4</speed>
<temp>0.00</temp>
<bpm>0</bpm>
<rpm>0.00</rpm>
</extensions>
</trkpt>
<trkpt lat="64.222976685" lon="-20.726881027">
<ele>73.220703</ele>
<time>2012-07-19T16:33:41Z</time>
<speed>6.340000</speed>
<extensions>
<speed>6.3</speed>
<temp>0.00</temp>
<bpm>0</bpm>
<rpm>0.00</rpm>
</extensions>
</trkpt>
<trkpt lat="64.223220825" lon="-20.726533890">
<ele>74.160156</ele>
<time>2012-07-19T16:33:46Z</time>
<speed>6.530000</speed>
<extensions>
<speed>6.5</speed>
<temp>0.00</temp>
<bpm>0</bpm>
<rpm>0.00</rpm>
</extensions>
</trkpt>
<trkpt lat="64.223487854" lon="-20.726154327">
<ele>73.103516</ele>
<time>2012-07-19T16:33:51Z</time>
<speed>7.130000</speed>
<extensions>
<speed>7.1</speed>
<temp>0.00</temp>
<bpm>0</bpm>
<rpm>0.00</rpm>
</extensions>
</trkpt>
<trkpt lat="64.223754883" lon="-20.725746155">
<ele>74.046875</ele>
<time>2012-07-19T16:33:56Z</time>
<speed>7.030000</speed>
<extensions>
<speed>7.0</speed>
<temp>0.00</temp>
<bpm>0</bpm>
<rpm>0.00</rpm>
</extensions>
</trkpt>
<trkpt lat="64.224014282" lon="-20.725368500">
<ele>75.099609</ele>
<time>2012-07-19T16:34:01Z</time>
<speed>6.770000</speed>
<extensions>
<speed>6.8</speed>
<temp>0.00</temp>
<bpm>0</bpm>
<rpm>0.00</rpm>
</extensions>
</trkpt>
<trkpt lat="64.224266052" lon="-20.724975586">
<ele>74.652344</ele>
<time>2012-07-19T16:34:06Z</time>
<speed>6.750000</speed>
<extensions>
<speed>6.7</speed>
<temp>0.00</temp>
<bpm>0</bpm>
<rpm>0.00</rpm>
</extensions>
</trkpt>
<trkpt lat="64.224510193" lon="-20.724596024">
<ele>74.511719</ele>
<time>2012-07-19T16:34:11Z</time>
<speed>6.340000</speed>
<extensions>
<speed>6.3</speed>
<temp>0.00</temp>
<bpm>0</bpm>
<rpm>0.00</rpm>
</extensions>
</trkpt>
<trkpt lat="64.224739075" lon="-20.724231720">
<ele>75.042969</ele>
<time>2012-07-19T16:34:16Z</time>
<speed>6.180000</speed>
<extensions>
<speed>6.2</speed>
<temp>0.00</temp>
<bpm>0</bpm>
<rpm>0.00</rpm>
</extensions>
</trkpt>
<trkpt lat="64.224967957" lon="-20.723878860">
<ele>75.640625</ele>
<time>2012-07-19T16:34:21Z</time>
<speed>6.070000</speed>
<extensions>
<speed>6.1</speed>
<temp>0.00</temp>
<bpm>0</bpm>
<rpm>0.00</rpm>
</extensions>
</trkpt>
<trkpt lat="64.225196838" lon="-20.723535538">
<ele>76.603516</ele>
<time>2012-07-19T16:34:26Z</time>
<speed>6.100000</speed>
<extensions>
<speed>6.1</speed>
<temp>0.00</temp>
<bpm>0</bpm>
<rpm>0.00</rpm>
</extensions>
</trkpt>
<trkpt lat="64.225418091" lon="-20.723207474">
<ele>75.552734</ele>
<time>2012-07-19T16:34:31Z</time>
<speed>5.830000</speed>
<extensions>
<speed>5.8</speed>
<temp>0.00</temp>
<bpm>0</bpm>
<rpm>0.00</rpm>
</extensions>
</trkpt>
<trkpt lat="64.225639343" lon="-20.722883224">
<ele>75.353516</ele>
<time>2012-07-19T16:34:36Z</time>
<speed>5.900000</speed>
<extensions>
<speed>5.9</speed>
<temp>0.00</temp>
<bpm>0</bpm>
<rpm>0.00</rpm>
</extensions>
</trkpt>
<trkpt lat="64.225860596" lon="-20.722547531">
<ele>74.562500</ele>
<time>2012-07-19T16:34:41Z</time>
<speed>5.880000</speed>
<extensions>
<speed>5.9</speed>
<temp>0.00</temp>
<bpm>0</bpm>
<rpm>0.00</rpm>
</extensions>
</trkpt>
<trkpt lat="64.226081848" lon="-20.722217560">
<ele>75.818359</ele>
<time>2012-07-19T16:34:46Z</time>
<speed>5.770000</speed>
<extensions>
<speed>5.8</speed>
<temp>0.00</temp>
<bpm>0</bpm>
<rpm>0.00</rpm>
</extensions>
</trkpt>
<trkpt lat="64.226295471" lon="-20.721897125">
<ele>75.031250</ele>
<time>2012-07-19T16:34:51Z</time>
<speed>5.840000</speed>
<extensions>
<speed>5.8</speed>
<temp>0.00</temp>
<bpm>0</bpm>
<rpm>0.00</rpm>
</extensions>
</trkpt>
<trkpt lat="64.226501465" lon="-20.721574783">
<ele>74.941406</ele>
<time>2012-07-19T16:34:56Z</time>
<speed>5.190000</speed>
<extensions>
<speed>5.2</speed>
<temp>0.00</temp>
<bpm>0</bpm>
<rpm>0.00</rpm>
</extensions>
</trkpt>
<trkpt lat="64.226699829" lon="-20.721292496">
<ele>73.523438</ele>
<time>2012-07-19T16:35:01Z</time>
<speed>5.080000</speed>
<extensions>
<speed>5.1</speed>
<temp>0.00</temp>
<bpm>0</bpm>
<rpm>0.00</rpm>
</extensions>
</trkpt>
<trkpt lat="64.226898193" lon="-20.720977783">
<ele>72.939453</ele>
<time>2012-07-19T16:35:06Z</time>
<speed>5.540000</speed>
<extensions>
<speed>5.5</speed>
<temp>0.00</temp>
<bpm>0</bpm>
<rpm>0.00</rpm>
</extensions>
</trkpt>
<trkpt lat="64.227119446" lon="-20.720634460">
<ele>72.683594</ele>
<time>2012-07-19T16:35:11Z</time>
<speed>6.060000</speed>
<extensions>
<speed>6.1</speed>
<temp>0.00</temp>
<bpm>0</bpm>
<rpm>0.00</rpm>
</extensions>
</trkpt>
<trkpt lat="64.227348328" lon="-20.720268250">
<ele>71.953125</ele>
<time>2012-07-19T16:35:16Z</time>
<speed>6.310000</speed>
<extensions>
<speed>6.3</speed>
<temp>0.00</temp>
<bpm>0</bpm>
<rpm>0.00</rpm>
</extensions>
</trkpt>
<trkpt lat="64.227592468" lon="-20.719915390">
<ele>70.240234</ele>
<time>2012-07-19T16:35:21Z</time>
<speed>6.390000</speed>
<extensions>
<speed>6.4</speed>
<temp>0.00</temp>
<bpm>0</bpm>
<rpm>0.00</rpm>
</extensions>
</trkpt>
<trkpt lat="64.227828979" lon="-20.719545364">
<ele>69.652344</ele>
<time>2012-07-19T16:35:26Z</time>
<speed>6.540000</speed>
<extensions>
<speed>6.5</speed>
<temp>0.00</temp>
<bpm>0</bpm>
<rpm>0.00</rpm>
</extensions>
</trkpt>
<trkpt lat="64.228080750" lon="-20.719171524">
<ele>70.537109</ele>
<time>2012-07-19T16:35:31Z</time>
<speed>6.670000</speed>
<extensions>
<speed>6.7</speed>
<temp>0.00</temp>
<bpm>0</bpm>
<rpm>0.00</rpm>
</extensions>
</trkpt>
<trkpt lat="64.228340149" lon="-20.718793869">
<ele>72.769531</ele>
<time>2012-07-19T16:35:36Z</time>
<speed>6.690000</speed>
<extensions>
<speed>6.7</speed>
<temp>0.00</temp>
<bpm>0</bpm>
<rpm>0.00</rpm>
</extensions>
</trkpt>
<trkpt lat="64.228584290" lon="-20.718412399">
<ele>74.431641</ele>
<time>2012-07-19T16:35:41Z</time>
<speed>6.720000</speed>
<extensions>
<speed>6.7</speed>
<temp>0.00</temp>
<bpm>0</bpm>
<rpm>0.00</rpm>
</extensions>
</trkpt>
<trkpt lat="64.228836060" lon="-20.718023300">
<ele>73.736328</ele>
<time>2012-07-19T16:35:46Z</time>
<speed>6.590000</speed>
<extensions>
<speed>6.6</speed>
<temp>0.00</temp>
<bpm>0</bpm>
<rpm>0.00</rpm>
</extensions>
</trkpt>
<trkpt lat="64.229080200" lon="-20.717670441">
<ele>74.136719</ele>
<time>2012-07-19T16:35:51Z</time>
<speed>6.260000</speed>
<extensions>
<speed>6.3</speed>
<temp>0.00</temp>
<bpm>0</bpm>
<rpm>0.00</rpm>
</extensions>
</trkpt>
<trkpt lat="64.229309082" lon="-20.717317581">
<ele>72.914063</ele>
<time>2012-07-19T16:35:56Z</time>
<speed>6.340000</speed>
<extensions>
<speed>6.3</speed>
<temp>0.00</temp>
<bpm>0</bpm>
<rpm>0.00</rpm>
</extensions>
</trkpt>
<trkpt lat="64.229545593" lon="-20.716938019">
<ele>72.015625</ele>
<time>2012-07-19T16:36:01Z</time>
<speed>6.550000</speed>
<extensions>
<speed>6.5</speed>
<temp>0.00</temp>
<bpm>0</bpm>
<rpm>0.00</rpm>
</extensions>
</trkpt>
<trkpt lat="64.229797363" lon="-20.716552734">
<ele>74.294922</ele>
<time>2012-07-19T16:36:06Z</time>
<speed>6.800000</speed>
<extensions>
<speed>6.8</speed>
<temp>0.00</temp>
<bpm>0</bpm>
<rpm>0.00</rpm>
</extensions>
</trkpt>
<trkpt lat="64.230056763" lon="-20.716144562">
<ele>74.759766</ele>
<time>2012-07-19T16:36:11Z</time>
<speed>6.980000</speed>
<extensions>
<speed>7.0</speed>
<temp>0.00</temp>
<bpm>0</bpm>
<rpm>0.00</rpm>
</extensions>
</trkpt>
<trkpt lat="64.230316162" lon="-20.715749741">
<ele>74.769531</ele>
<time>2012-07-19T16:36:16Z</time>
<speed>6.860000</speed>
<extensions>
<speed>6.9</speed>
<temp>0.00</temp>
<bpm>0</bpm>
<rpm>0.00</rpm>
</extensions>
</trkpt>
<trkpt lat="64.230583191" lon="-20.715385437">
<ele>74.039063</ele>
<time>2012-07-19T16:36:21Z</time>
<speed>6.850000</speed>
<extensions>
<speed>6.8</speed>
<temp>0.00</temp>
<bpm>0</bpm>
<rpm>0.00</rpm>
</extensions>
</trkpt>
<trkpt lat="64.230842590" lon="-20.714986801">
<ele>73.212891</ele>
<time>2012-07-19T16:36:26Z</time>
<speed>7.060000</speed>
<extensions>
<speed>7.1</speed>
<temp>0.00</temp>
<bpm>0</bpm>
<rpm>0.00</rpm>
</extensions>
</trkpt>
<trkpt lat="64.231101990" lon="-20.714555740">
<ele>73.439453</ele>
<time>2012-07-19T16:36:31Z</time>
<speed>7.100000</speed>
<extensions>
<speed>7.1</speed>
<temp>0.00</temp>
<bpm>0</bpm>
<rpm>0.00</rpm>
</extensions>
</trkpt>
<trkpt lat="64.231346130" lon="-20.714120865">
<ele>72.167969</ele>
<time>2012-07-19T16:36:36Z</time>
<speed>6.960000</speed>
<extensions>
<speed>7.0</speed>
<temp>0.00</temp>
<bpm>0</bpm>
<rpm>0.00</rpm>
</extensions>
</trkpt>
<trkpt lat="64.231597900" lon="-20.713680267">
<ele>72.453125</ele>
<time>2012-07-19T16:36:41Z</time>
<speed>6.940000</speed>
<extensions>
<speed>6.9</speed>
<temp>0.00</temp>
<bpm>0</bpm>
<rpm>0.00</rpm>
</extensions>
</trkpt>
<trkpt lat="64.231849670" lon="-20.713256836">
<ele>72.117188</ele>
<time>2012-07-19T16:36:46Z</time>
<speed>6.780000</speed>
<extensions>
<speed>6.8</speed>
<temp>0.00</temp>
<bpm>0</bpm>
<rpm>0.00</rpm>
</extensions>
</trkpt>
<trkpt lat="64.232078552" lon="-20.712800980">
<ele>72.695313</ele>
<time>2012-07-19T16:36:51Z</time>
<speed>6.630000</speed>
<extensions>
<speed>6.6</speed>
<temp>0.00</temp>
<bpm>0</bpm>
<rpm>0.00</rpm>
</extensions>
</trkpt>
<trkpt lat="64.232307434" lon="-20.712392807">
<ele>73.533203</ele>
<time>2012-07-19T16:36:56Z</time>
<speed>6.320000</speed>
<extensions>
<speed>6.3</speed>
<temp>0.00</temp>
<bpm>0</bpm>
<rpm>0.00</rpm>
</extensions>
</trkpt>
<trkpt lat="64.232505798" lon="-20.711975098">
<ele>73.023438</ele>
<time>2012-07-19T16:37:01Z</time>
<speed>5.620000</speed>
<extensions>
<speed>5.6</speed>
<temp>0.00</temp>
<bpm>0</bpm>
<rpm>0.00</rpm>
</extensions>
</trkpt>
<trkpt lat="64.232688904" lon="-20.711605072">
<ele>72.203125</ele>
<time>2012-07-19T16:37:06Z</time>
<speed>5.690000</speed>
<extensions>
<speed>5.7</speed>
<temp>0.00</temp>
<bpm>0</bpm>
<rpm>0.00</rpm>
</extensions>
</trkpt>
<trkpt lat="64.232887268" lon="-20.711214066">
<ele>72.925781</ele>
<time>2012-07-19T16:37:11Z</time>
<speed>5.710000</speed>
<extensions>
<speed>5.7</speed>
<temp>0.00</temp>
<bpm>0</bpm>
<rpm>0.00</rpm>
</extensions>
</trkpt>
<trkpt lat="64.233062744" lon="-20.710851669">
<ele>73.314453</ele>
<time>2012-07-19T16:37:16Z</time>
<speed>4.700000</speed>
<extensions>
<speed>4.7</speed>
<temp>0.00</temp>
<bpm>0</bpm>
<rpm>0.00</rpm>
</extensions>
</trkpt>
<trkpt lat="64.233215332" lon="-20.710510254">
<ele>73.472656</ele>
<time>2012-07-19T16:37:21Z</time>
<speed>4.580000</speed>
<extensions>
<speed>4.6</speed>
<temp>0.00</temp>
<bpm>0</bpm>
<rpm>0.00</rpm>
</extensions>
</trkpt>
<trkpt lat="64.233375549" lon="-20.710231781">
<ele>74.222656</ele>
<time>2012-07-19T16:37:26Z</time>
<speed>4.590000</speed>
<extensions>
<speed>4.6</speed>
<temp>0.00</temp>
<bpm>0</bpm>
<rpm>0.00</rpm>
</extensions>
</trkpt>
<trkpt lat="64.233528137" lon="-20.709945679">
<ele>75.347656</ele>
<time>2012-07-19T16:37:31Z</time>
<speed>4.290000</speed>
<extensions>
<speed>4.3</speed>
<temp>0.00</temp>
<bpm>0</bpm>
<rpm>0.00</rpm>
</extensions>
</trkpt>
<trkpt lat="64.233665466" lon="-20.709665298">
<ele>75.562500</ele>
<time>2012-07-19T16:37:36Z</time>
<speed>4.100000</speed>
<extensions>
<speed>4.1</speed>
<temp>0.00</temp>
<bpm>0</bpm>
<rpm>0.00</rpm>
</extensions>
</trkpt>
<trkpt lat="64.233810425" lon="-20.709407806">
<ele>75.832031</ele>
<time>2012-07-19T16:37:41Z</time>
<speed>4.000000</speed>
<extensions>
<speed>4.0</speed>
<temp>0.00</temp>
<bpm>0</bpm>
<rpm>0.00</rpm>
</extensions>
</trkpt>
<trkpt lat="64.233947754" lon="-20.709115982">
<ele>76.449219</ele>
<time>2012-07-19T16:37:46Z</time>
<speed>4.240000</speed>
<extensions>
<speed>4.2</speed>
<temp>0.00</temp>
<bpm>0</bpm>
<rpm>0.00</rpm>
</extensions>
</trkpt>
<trkpt lat="64.234092712" lon="-20.708801270">
<ele>76.750000</ele>
<time>2012-07-19T16:37:51Z</time>
<speed>4.390000</speed>
<extensions>
<speed>4.4</speed>
<temp>0.00</temp>
<bpm>0</bpm>
<rpm>0.00</rpm>
</extensions>
</trkpt>
<trkpt lat="64.234237671" lon="-20.708492279">
<ele>76.867188</ele>
<time>2012-07-19T16:37:56Z</time>
<speed>4.660000</speed>
<extensions>
<speed>4.7</speed>
<temp>0.00</temp>
<bpm>0</bpm>
<rpm>0.00</rpm>
</extensions>
</trkpt>
<trkpt lat="64.234397888" lon="-20.708179474">
<ele>77.373047</ele>
<time>2012-07-19T16:38:01Z</time>
<speed>4.620000</speed>
<extensions>
<speed>4.6</speed>
<temp>0.00</temp>
<bpm>0</bpm>
<rpm>0.00</rpm>
</extensions>
</trkpt>
<trkpt lat="64.234565735" lon="-20.707868576">
<ele>76.384766</ele>
<time>2012-07-19T16:38:06Z</time>
<speed>4.930000</speed>
<extensions>
<speed>4.9</speed>
<temp>0.00</temp>
<bpm>0</bpm>
<rpm>0.00</rpm>
</extensions>
</trkpt>
<trkpt lat="64.234733582" lon="-20.707521439">
<ele>76.296875</ele>
<time>2012-07-19T16:38:11Z</time>
<speed>4.900000</speed>
<extensions>
<speed>4.9</speed>
<temp>0.00</temp>
<bpm>0</bpm>
<rpm>0.00</rpm>
</extensions>
</trkpt>
<trkpt lat="64.234909058" lon="-20.707195282">
<ele>76.830078</ele>
<time>2012-07-19T16:38:16Z</time>
<speed>5.020000</speed>
<extensions>
<speed>5.0</speed>
<temp>0.00</temp>
<bpm>0</bpm>
<rpm>0.00</rpm>
</extensions>
</trkpt>
<trkpt lat="64.235092163" lon="-20.706867218">
<ele>76.548828</ele>
<time>2012-07-19T16:38:21Z</time>
<speed>5.290000</speed>
<extensions>
<speed>5.3</speed>
<temp>0.00</temp>
<bpm>0</bpm>
<rpm>0.00</rpm>
</extensions>
</trkpt>
<trkpt lat="64.235275269" lon="-20.706508636">
<ele>77.806641</ele>
<time>2012-07-19T16:38:26Z</time>
<speed>5.380000</speed>
<extensions>
<speed>5.4</speed>
<temp>0.00</temp>
<bpm>0</bpm>
<rpm>0.00</rpm>
</extensions>
</trkpt>
<trkpt lat="64.235466003" lon="-20.706159592">
<ele>77.871094</ele>
<time>2012-07-19T16:38:31Z</time>
<speed>5.410000</speed>
<extensions>
<speed>5.4</speed>
<temp>0.00</temp>
<bpm>0</bpm>
<rpm>0.00</rpm>
</extensions>
</trkpt>
<trkpt lat="64.235633850" lon="-20.705806732">
<ele>77.841797</ele>
<time>2012-07-19T16:38:36Z</time>
<speed>4.920000</speed>
<extensions>
<speed>4.9</speed>
<temp>0.00</temp>
<bpm>0</bpm>
<rpm>0.00</rpm>
</extensions>
</trkpt>
<trkpt lat="64.235801697" lon="-20.705480576">
<ele>78.716797</ele>
<time>2012-07-19T16:38:41Z</time>
<speed>4.960000</speed>
<extensions>
<speed>5.0</speed>
<temp>0.00</temp>
<bpm>0</bpm>
<rpm>0.00</rpm>
</extensions>
</trkpt>
<trkpt lat="64.235961914" lon="-20.705135345">
<ele>78.882813</ele>
<time>2012-07-19T16:38:46Z</time>
<speed>4.840000</speed>
<extensions>
<speed>4.8</speed>
<temp>0.00</temp>
<bpm>0</bpm>
<rpm>0.00</rpm>
</extensions>
</trkpt>
<trkpt lat="64.236122131" lon="-20.704799652">
<ele>79.007813</ele>
<time>2012-07-19T16:38:51Z</time>
<speed>4.880000</speed>
<extensions>
<speed>4.9</speed>
<temp>0.00</temp>
<bpm>0</bpm>
<rpm>0.00</rpm>
</extensions>
</trkpt>
<trkpt lat="64.236312866" lon="-20.704452515">
<ele>80.355469</ele>
<time>2012-07-19T16:38:56Z</time>
<speed>5.100000</speed>
<extensions>
<speed>5.1</speed>
<temp>0.00</temp>
<bpm>0</bpm>
<rpm>0.00</rpm>
</extensions>
</trkpt>
<trkpt lat="64.236473083" lon="-20.704114914">
<ele>80.148438</ele>
<time>2012-07-19T16:39:01Z</time>
<speed>4.980000</speed>
<extensions>
<speed>5.0</speed>
<temp>0.00</temp>
<bpm>0</bpm>
<rpm>0.00</rpm>
</extensions>
</trkpt>
<trkpt lat="64.236640930" lon="-20.703744888">
<ele>80.603516</ele>
<time>2012-07-19T16:39:06Z</time>
<speed>5.230000</speed>
<extensions>
<speed>5.2</speed>
<temp>0.00</temp>
<bpm>0</bpm>
<rpm>0.00</rpm>
</extensions>
</trkpt>
<trkpt lat="64.236824036" lon="-20.703395844">
<ele>81.576172</ele>
<time>2012-07-19T16:39:11Z</time>
<speed>4.910000</speed>
<extensions>
<speed>4.9</speed>
<temp>0.00</temp>
<bpm>0</bpm>
<rpm>0.00</rpm>
</extensions>
</trkpt>
<trkpt lat="64.236968994" lon="-20.703060150">
<ele>80.076172</ele>
<time>2012-07-19T16:39:16Z</time>
<speed>4.850000</speed>
<extensions>
<speed>4.8</speed>
<temp>0.00</temp>
<bpm>0</bpm>
<rpm>0.00</rpm>
</extensions>
</trkpt>
<trkpt lat="64.237136841" lon="-20.702686310">
<ele>79.480469</ele>
<time>2012-07-19T16:39:21Z</time>
<speed>5.300000</speed>
<extensions>
<speed>5.3</speed>
<temp>0.00</temp>
<bpm>0</bpm>
<rpm>0.00</rpm>
</extensions>
</trkpt>
<trkpt lat="64.237312317" lon="-20.702310562">
<ele>78.855469</ele>
<time>2012-07-19T16:39:26Z</time>
<speed>5.780000</speed>
<extensions>
<speed>5.8</speed>
<temp>0.00</temp>
<bpm>0</bpm>
<rpm>0.00</rpm>
</extensions>
</trkpt>
<trkpt lat="64.237495422" lon="-20.701869965">
<ele>78.496094</ele>
<time>2012-07-19T16:39:31Z</time>
<speed>5.840000</speed>
<extensions>
<speed>5.8</speed>
<temp>0.00</temp>
<bpm>0</bpm>
<rpm>0.00</rpm>
</extensions>
</trkpt>
<trkpt lat="64.237678528" lon="-20.701402664">
<ele>77.878906</ele>
<time>2012-07-19T16:39:36Z</time>
<speed>6.150000</speed>
<extensions>
<speed>6.1</speed>
<temp>0.00</temp>
<bpm>0</bpm>
<rpm>0.00</rpm>
</extensions>
</trkpt>
<trkpt lat="64.237854004" lon="-20.700923920">
<ele>77.056641</ele>
<time>2012-07-19T16:39:41Z</time>
<speed>6.290000</speed>
<extensions>
<speed>6.3</speed>
<temp>0.00</temp>
<bpm>0</bpm>
<rpm>0.00</rpm>
</extensions>
</trkpt>
<trkpt lat="64.238044739" lon="-20.700418472">
<ele>76.736328</ele>
<time>2012-07-19T16:39:46Z</time>
<speed>6.540000</speed>
<extensions>
<speed>6.5</speed>
<temp>0.00</temp>
<bpm>0</bpm>
<rpm>0.00</rpm>
</extensions>
</trkpt>
<trkpt lat="64.238243103" lon="-20.699893951">
<ele>76.027344</ele>
<time>2012-07-19T16:39:51Z</time>
<speed>6.770000</speed>
<extensions>
<speed>6.8</speed>
<temp>0.00</temp>
<bpm>0</bpm>
<rpm>0.00</rpm>
</extensions>
</trkpt>
<trkpt lat="64.238433838" lon="-20.699380875">
<ele>75.480469</ele>
<time>2012-07-19T16:39:56Z</time>
<speed>6.220000</speed>
<extensions>
<speed>6.2</speed>
<temp>0.00</temp>
<bpm>0</bpm>
<rpm>0.00</rpm>
</extensions>
</trkpt>
<trkpt lat="64.238616943" lon="-20.698902130">
<ele>75.482422</ele>
<time>2012-07-19T16:40:01Z</time>
<speed>6.330000</speed>
<extensions>
<speed>6.3</speed>
<temp>0.00</temp>
<bpm>0</bpm>
<rpm>0.00</rpm>
</extensions>
</trkpt>
<trkpt lat="64.238792419" lon="-20.698392868">
<ele>75.119141</ele>
<time>2012-07-19T16:40:06Z</time>
<speed>6.220000</speed>
<extensions>
<speed>6.2</speed>
<temp>0.00</temp>
<bpm>0</bpm>
<rpm>0.00</rpm>
</extensions>
</trkpt>
<trkpt lat="64.238975525" lon="-20.697927475">
<ele>75.695313</ele>
<time>2012-07-19T16:40:11Z</time>
<speed>5.700000</speed>
<extensions>
<speed>5.7</speed>
<temp>0.00</temp>
<bpm>0</bpm>
<rpm>0.00</rpm>
</extensions>
</trkpt>
<trkpt lat="64.239128113" lon="-20.697513580">
<ele>76.251953</ele>
<time>2012-07-19T16:40:16Z</time>
<speed>4.770000</speed>
<extensions>
<speed>4.8</speed>
<temp>0.00</temp>
<bpm>0</bpm>
<rpm>0.00</rpm>
</extensions>
</trkpt>
<trkpt lat="64.239250183" lon="-20.697122574">
<ele>76.902344</ele>
<time>2012-07-19T16:40:21Z</time>
<speed>4.940000</speed>
<extensions>
<speed>4.9</speed>
<temp>0.00</temp>
<bpm>0</bpm>
<rpm>0.00</rpm>
</extensions>
</trkpt>
<trkpt lat="64.239379883" lon="-20.696691513">
<ele>76.814453</ele>
<time>2012-07-19T16:40:26Z</time>
<speed>5.010000</speed>
<extensions>
<speed>5.0</speed>
<temp>0.00</temp>
<bpm>0</bpm>
<rpm>0.00</rpm>
</extensions>
</trkpt>
<trkpt lat="64.239501953" lon="-20.696239471">
<ele>76.507813</ele>
<time>2012-07-19T16:40:31Z</time>
<speed>4.920000</speed>
<extensions>
<speed>4.9</speed>
<temp>0.00</temp>
<bpm>0</bpm>
<rpm>0.00</rpm>
</extensions>
</trkpt>
<trkpt lat="64.239608765" lon="-20.695785522">
<ele>76.294922</ele>
<time>2012-07-19T16:40:36Z</time>
<speed>5.140000</speed>
<extensions>
<speed>5.1</speed>
<temp>0.00</temp>
<bpm>0</bpm>
<rpm>0.00</rpm>
</extensions>
</trkpt>
<trkpt lat="64.239707947" lon="-20.695322037">
<ele>76.480469</ele>
<time>2012-07-19T16:40:41Z</time>
<speed>5.010000</speed>
<extensions>
<speed>5.0</speed>
<temp>0.00</temp>
<bpm>0</bpm>
<rpm>0.00</rpm>
</extensions>
</trkpt>
<trkpt lat="64.239799500" lon="-20.694828033">
<ele>76.625000</ele>
<time>2012-07-19T16:40:46Z</time>
<speed>4.990000</speed>
<extensions>
<speed>5.0</speed>
<temp>0.00</temp>
<bpm>0</bpm>
<rpm>0.00</rpm>
</extensions>
</trkpt>
<trkpt lat="64.239868164" lon="-20.694339752">
<ele>75.775391</ele>
<time>2012-07-19T16:40:51Z</time>
<speed>5.060000</speed>
<extensions>
<speed>5.1</speed>
<temp>0.00</temp>
<bpm>0</bpm>
<rpm>0.00</rpm>
</extensions>
</trkpt>
<trkpt lat="64.239936829" lon="-20.693843842">
<ele>75.886719</ele>
<time>2012-07-19T16:40:56Z</time>
<speed>5.080000</speed>
<extensions>
<speed>5.1</speed>
<temp>0.00</temp>
<bpm>0</bpm>
<rpm>0.00</rpm>
</extensions>
</trkpt>
<trkpt lat="64.239990234" lon="-20.693382263">
<ele>76.179688</ele>
<time>2012-07-19T16:41:01Z</time>
<speed>4.350000</speed>
<extensions>
<speed>4.3</speed>
<temp>0.00</temp>
<bpm>0</bpm>
<rpm>0.00</rpm>
</extensions>
</trkpt>
<trkpt lat="64.240020752" lon="-20.693002701">
<ele>76.673828</ele>
<time>2012-07-19T16:41:06Z</time>
<speed>3.150000</speed>
<extensions>
<speed>3.2</speed>
<temp>0.00</temp>
<bpm>0</bpm>
<rpm>0.00</rpm>
</extensions>
</trkpt>
<trkpt lat="64.240043640" lon="-20.692726135">
<ele>77.439453</ele>
<time>2012-07-19T16:41:11Z</time>
<speed>2.610000</speed>
<extensions>
<speed>2.6</speed>
<temp>0.00</temp>
<bpm>0</bpm>
<rpm>0.00</rpm>
</extensions>
</trkpt>
<trkpt lat="64.240058899" lon="-20.692491531">
<ele>80.216797</ele>
<time>2012-07-19T16:41:16Z</time>
<speed>2.350000</speed>
<extensions>
<speed>2.4</speed>
<temp>0.00</temp>
<bpm>0</bpm>
<rpm>0.00</rpm>
</extensions>
</trkpt>
<trkpt lat="64.240074158" lon="-20.692270279">
<ele>82.525391</ele>
<time>2012-07-19T16:41:21Z</time>
<speed>1.870000</speed>
<extensions>
<speed>1.9</speed>
<temp>0.00</temp>
<bpm>0</bpm>
<rpm>0.00</rpm>
</extensions>
</trkpt>
<trkpt lat="64.240081787" lon="-20.692050934">
<ele>83.087891</ele>
<time>2012-07-19T16:41:26Z</time>
<speed>2.300000</speed>
<extensions>
<speed>2.3</speed>
<temp>0.00</temp>
<bpm>0</bpm>
<rpm>0.00</rpm>
</extensions>
</trkpt>
<trkpt lat="64.240097046" lon="-20.691823959">
<ele>84.232422</ele>
<time>2012-07-19T16:41:31Z</time>
<speed>2.260000</speed>
<extensions>
<speed>2.3</speed>
<temp>0.00</temp>
<bpm>0</bpm>
<rpm>0.00</rpm>
</extensions>
</trkpt>
<trkpt lat="64.240119934" lon="-20.691621780">
<ele>84.988281</ele>
<time>2012-07-19T16:41:36Z</time>
<speed>1.930000</speed>
<extensions>
<speed>1.9</speed>
<temp>0.00</temp>
<bpm>0</bpm>
<rpm>0.00</rpm>
</extensions>
</trkpt>
<trkpt lat="64.240135193" lon="-20.691396713">
<ele>85.560547</ele>
<time>2012-07-19T16:41:41Z</time>
<speed>2.430000</speed>
<extensions>
<speed>2.4</speed>
<temp>0.00</temp>
<bpm>0</bpm>
<rpm>0.00</rpm>
</extensions>
</trkpt>
<trkpt lat="64.240158081" lon="-20.691164017">
<ele>87.634766</ele>
<time>2012-07-19T16:41:46Z</time>
<speed>2.300000</speed>
<extensions>
<speed>2.3</speed>
<temp>0.00</temp>
<bpm>0</bpm>
<rpm>0.00</rpm>
</extensions>
</trkpt>
<trkpt lat="64.240188599" lon="-20.690896988">
<ele>86.482422</ele>
<time>2012-07-19T16:41:51Z</time>
<speed>2.580000</speed>
<extensions>
<speed>2.6</speed>
<temp>0.00</temp>
<bpm>0</bpm>
<rpm>0.00</rpm>
</extensions>
</trkpt>
<trkpt lat="64.240211487" lon="-20.690618515">
<ele>86.984375</ele>
<time>2012-07-19T16:41:56Z</time>
<speed>2.790000</speed>
<extensions>
<speed>2.8</speed>
<temp>0.00</temp>
<bpm>0</bpm>
<rpm>0.00</rpm>
</extensions>
</trkpt>
<trkpt lat="64.240242004" lon="-20.690364838">
<ele>86.462891</ele>
<time>2012-07-19T16:42:01Z</time>
<speed>2.240000</speed>
<extensions>
<speed>2.2</speed>
<temp>0.00</temp>
<bpm>0</bpm>
<rpm>0.00</rpm>
</extensions>
</trkpt>
<trkpt lat="64.240257263" lon="-20.690134048">
<ele>86.406250</ele>
<time>2012-07-19T16:42:06Z</time>
<speed>2.490000</speed>
<extensions>
<speed>2.5</speed>
<temp>0.00</temp>
<bpm>0</bpm>
<rpm>0.00</rpm>
</extensions>
</trkpt>
<trkpt lat="64.240280151" lon="-20.689897537">
<ele>86.089844</ele>
<time>2012-07-19T16:42:11Z</time>
<speed>2.010000</speed>
<extensions>
<speed>2.0</speed>
<temp>0.00</temp>
<bpm>0</bpm>
<rpm>0.00</rpm>
</extensions>
</trkpt>
<trkpt lat="64.240303040" lon="-20.689697266">
<ele>86.982422</ele>
<time>2012-07-19T16:42:16Z</time>
<speed>2.260000</speed>
<extensions>
<speed>2.3</speed>
<temp>0.00</temp>
<bpm>0</bpm>
<rpm>0.00</rpm>
</extensions>
</trkpt>
<trkpt lat="64.240325928" lon="-20.689472198">
<ele>87.947266</ele>
<time>2012-07-19T16:42:21Z</time>
<speed>2.470000</speed>
<extensions>
<speed>2.5</speed>
<temp>0.00</temp>
<bpm>0</bpm>
<rpm>0.00</rpm>
</extensions>
</trkpt>
<trkpt lat="64.240341187" lon="-20.689222336">
<ele>88.410156</ele>
<time>2012-07-19T16:42:26Z</time>
<speed>2.490000</speed>
<extensions>
<speed>2.5</speed>
<temp>0.00</temp>
<bpm>0</bpm>
<rpm>0.00</rpm>
</extensions>
</trkpt>
<trkpt lat="64.240364075" lon="-20.688961029">
<ele>89.251953</ele>
<time>2012-07-19T16:42:31Z</time>
<speed>2.530000</speed>
<extensions>
<speed>2.5</speed>
<temp>0.00</temp>
<bpm>0</bpm>
<rpm>0.00</rpm>
</extensions>
</trkpt>
<trkpt lat="64.240394592" lon="-20.688695908">
<ele>89.867188</ele>
<time>2012-07-19T16:42:36Z</time>
<speed>2.770000</speed>
<extensions>
<speed>2.8</speed>
<temp>0.00</temp>
<bpm>0</bpm>
<rpm>0.00</rpm>
</extensions>
</trkpt>
<trkpt lat="64.240425110" lon="-20.688392639">
<ele>89.873047</ele>
<time>2012-07-19T16:42:41Z</time>
<speed>3.120000</speed>
<extensions>
<speed>3.1</speed>
<temp>0.00</temp>
<bpm>0</bpm>
<rpm>0.00</rpm>
</extensions>
</trkpt>
<trkpt lat="64.240447998" lon="-20.688077927">
<ele>90.396484</ele>
<time>2012-07-19T16:42:46Z</time>
<speed>2.980000</speed>
<extensions>
<speed>3.0</speed>
<temp>0.00</temp>
<bpm>0</bpm>
<rpm>0.00</rpm>
</extensions>
</trkpt>
<trkpt lat="64.240478516" lon="-20.687749863">
<ele>90.447266</ele>
<time>2012-07-19T16:42:51Z</time>
<speed>3.400000</speed>
<extensions>
<speed>3.4</speed>
<temp>0.00</temp>
<bpm>0</bpm>
<rpm>0.00</rpm>
</extensions>
</trkpt>
<trkpt lat="64.240501404" lon="-20.687404633">
<ele>90.533203</ele>
<time>2012-07-19T16:42:56Z</time>
<speed>3.380000</speed>
<extensions>
<speed>3.4</speed>
<temp>0.00</temp>
<bpm>0</bpm>
<rpm>0.00</rpm>
</extensions>
</trkpt>
<trkpt lat="64.240539551" lon="-20.687023163">
<ele>90.761719</ele>
<time>2012-07-19T16:43:01Z</time>
<speed>3.880000</speed>
<extensions>
<speed>3.9</speed>
<temp>0.00</temp>
<bpm>0</bpm>
<rpm>0.00</rpm>
</extensions>
</trkpt>
<trkpt lat="64.240577698" lon="-20.686595917">
<ele>89.822266</ele>
<time>2012-07-19T16:43:06Z</time>
<speed>4.160000</speed>
<extensions>
<speed>4.2</speed>
<temp>0.00</temp>
<bpm>0</bpm>
<rpm>0.00</rpm>
</extensions>
</trkpt>
<trkpt lat="64.240615845" lon="-20.686159134">
<ele>90.492188</ele>
<time>2012-07-19T16:43:11Z</time>
<speed>4.460000</speed>
<extensions>
<speed>4.5</speed>
<temp>0.00</temp>
<bpm>0</bpm>
<rpm>0.00</rpm>
</extensions>
</trkpt>
<trkpt lat="64.240646362" lon="-20.685684204">
<ele>90.554688</ele>
<time>2012-07-19T16:43:16Z</time>
<speed>4.600000</speed>
<extensions>
<speed>4.6</speed>
<temp>0.00</temp>
<bpm>0</bpm>
<rpm>0.00</rpm>
</extensions>
</trkpt>
<trkpt lat="64.240692139" lon="-20.685194016">
<ele>89.746094</ele>
<time>2012-07-19T16:43:21Z</time>
<speed>4.890000</speed>
<extensions>
<speed>4.9</speed>
<temp>0.00</temp>
<bpm>0</bpm>
<rpm>0.00</rpm>
</extensions>
</trkpt>
<trkpt lat="64.240737915" lon="-20.684690475">
<ele>88.029297</ele>
<time>2012-07-19T16:43:26Z</time>
<speed>5.140000</speed>
<extensions>
<speed>5.1</speed>
<temp>0.00</temp>
<bpm>0</bpm>
<rpm>0.00</rpm>
</extensions>
</trkpt>
<trkpt lat="64.240776062" lon="-20.684154510">
<ele>87.908203</ele>
<time>2012-07-19T16:43:31Z</time>
<speed>5.250000</speed>
<extensions>
<speed>5.2</speed>
<temp>0.00</temp>
<bpm>0</bpm>
<rpm>0.00</rpm>
</extensions>
</trkpt>
<trkpt lat="64.240806580" lon="-20.683584213">
<ele>87.716797</ele>
<time>2012-07-19T16:43:36Z</time>
<speed>5.630000</speed>
<extensions>
<speed>5.6</speed>
<temp>0.00</temp>
<bpm>0</bpm>
<rpm>0.00</rpm>
</extensions>
</trkpt>
<trkpt lat="64.240829468" lon="-20.683029175">
<ele>87.296875</ele>
<time>2012-07-19T16:43:41Z</time>
<speed>5.450000</speed>
<extensions>
<speed>5.5</speed>
<temp>0.00</temp>
<bpm>0</bpm>
<rpm>0.00</rpm>
</extensions>
</trkpt>
<trkpt lat="64.240859985" lon="-20.682468414">
<ele>87.322266</ele>
<time>2012-07-19T16:43:46Z</time>
<speed>5.440000</speed>
<extensions>
<speed>5.4</speed>
<temp>0.00</temp>
<bpm>0</bpm>
<rpm>0.00</rpm>
</extensions>
</trkpt>
<trkpt lat="64.240882874" lon="-20.681903839">
<ele>87.037109</ele>
<time>2012-07-19T16:43:51Z</time>
<speed>5.070000</speed>
<extensions>
<speed>5.1</speed>
<temp>0.00</temp>
<bpm>0</bpm>
<rpm>0.00</rpm>
</extensions>
</trkpt>
<trkpt lat="64.240882874" lon="-20.681400299">
<ele>87.148438</ele>
<time>2012-07-19T16:43:56Z</time>
<speed>5.430000</speed>
<extensions>
<speed>5.4</speed>
<temp>0.00</temp>
<bpm>0</bpm>
<rpm>0.00</rpm>
</extensions>
</trkpt>
<trkpt lat="64.240890503" lon="-20.680793762">
<ele>87.867188</ele>
<time>2012-07-19T16:44:01Z</time>
<speed>5.970000</speed>
<extensions>
<speed>6.0</speed>
<temp>0.00</temp>
<bpm>0</bpm>
<rpm>0.00</rpm>
</extensions>
</trkpt>
<trkpt lat="64.240890503" lon="-20.680162430">
<ele>87.269531</ele>
<time>2012-07-19T16:44:06Z</time>
<speed>6.140000</speed>
<extensions>
<speed>6.1</speed>
<temp>0.00</temp>
<bpm>0</bpm>
<rpm>0.00</rpm>
</extensions>
</trkpt>
<trkpt lat="64.240898132" lon="-20.679553986">
<ele>86.263672</ele>
<time>2012-07-19T16:44:11Z</time>
<speed>5.790000</speed>
<extensions>
<speed>5.8</speed>
<temp>0.00</temp>
<bpm>0</bpm>
<rpm>0.00</rpm>
</extensions>
</trkpt>
<trkpt lat="64.240898132" lon="-20.678937912">
<ele>85.746094</ele>
<time>2012-07-19T16:44:16Z</time>
<speed>6.170000</speed>
<extensions>
<speed>6.2</speed>
<temp>0.00</temp>
<bpm>0</bpm>
<rpm>0.00</rpm>
</extensions>
</trkpt>
<trkpt lat="64.240882874" lon="-20.678268433">
<ele>85.375000</ele>
<time>2012-07-19T16:44:21Z</time>
<speed>6.330000</speed>
<extensions>
<speed>6.3</speed>
<temp>0.00</temp>
<bpm>0</bpm>
<rpm>0.00</rpm>
</extensions>
</trkpt>
<trkpt lat="64.240859985" lon="-20.677577972">
<ele>84.507813</ele>
<time>2012-07-19T16:44:26Z</time>
<speed>6.800000</speed>
<extensions>
<speed>6.8</speed>
<temp>0.00</temp>
<bpm>0</bpm>
<rpm>0.00</rpm>
</extensions>
</trkpt>
<trkpt lat="64.240852356" lon="-20.676862717">
<ele>83.396484</ele>
<time>2012-07-19T16:44:31Z</time>
<speed>7.170000</speed>
<extensions>
<speed>7.2</speed>
<temp>0.00</temp>
<bpm>0</bpm>
<rpm>0.00</rpm>
</extensions>
</trkpt>
<trkpt lat="64.240829468" lon="-20.676111221">
<ele>82.205078</ele>
<time>2012-07-19T16:44:36Z</time>
<speed>7.130000</speed>
<extensions>
<speed>7.1</speed>
<temp>0.00</temp>
<bpm>0</bpm>
<rpm>0.00</rpm>
</extensions>
</trkpt>
<trkpt lat="64.240806580" lon="-20.675399780">
<ele>81.650391</ele>
<time>2012-07-19T16:44:41Z</time>
<speed>6.670000</speed>
<extensions>
<speed>6.7</speed>
<temp>0.00</temp>
<bpm>0</bpm>
<rpm>0.00</rpm>
</extensions>
</trkpt>
<trkpt lat="64.240791321" lon="-20.674711227">
<ele>80.625000</ele>
<time>2012-07-19T16:44:46Z</time>
<speed>6.690000</speed>
<extensions>
<speed>6.7</speed>
<temp>0.00</temp>
<bpm>0</bpm>
<rpm>0.00</rpm>
</extensions>
</trkpt>
<trkpt lat="64.240783691" lon="-20.674028397">
<ele>79.837891</ele>
<time>2012-07-19T16:44:51Z</time>
<speed>6.960000</speed>
<extensions>
<speed>7.0</speed>
<temp>0.00</temp>
<bpm>0</bpm>
<rpm>0.00</rpm>
</extensions>
</trkpt>
<trkpt lat="64.240760803" lon="-20.673326492">
<ele>79.833984</ele>
<time>2012-07-19T16:44:56Z</time>
<speed>6.840000</speed>
<extensions>
<speed>6.8</speed>
<temp>0.00</temp>
<bpm>0</bpm>
<rpm>0.00</rpm>
</extensions>
</trkpt>
<trkpt lat="64.240745544" lon="-20.672647476">
<ele>78.199219</ele>
<time>2012-07-19T16:45:01Z</time>
<speed>6.490000</speed>
<extensions>
<speed>6.5</speed>
<temp>0.00</temp>
<bpm>0</bpm>
<rpm>0.00</rpm>
</extensions>
</trkpt>
<trkpt lat="64.240730286" lon="-20.671968460">
<ele>77.324219</ele>
<time>2012-07-19T16:45:06Z</time>
<speed>6.640000</speed>
<extensions>
<speed>6.6</speed>
<temp>0.00</temp>
<bpm>0</bpm>
<rpm>0.00</rpm>
</extensions>
</trkpt>
<trkpt lat="64.240707397" lon="-20.671297073">
<ele>77.259766</ele>
<time>2012-07-19T16:45:11Z</time>
<speed>6.270000</speed>
<extensions>
<speed>6.3</speed>
<temp>0.00</temp>
<bpm>0</bpm>
<rpm>0.00</rpm>
</extensions>
</trkpt>
<trkpt lat="64.240684509" lon="-20.670686722">
<ele>76.785156</ele>
<time>2012-07-19T16:45:16Z</time>
<speed>5.570000</speed>
<extensions>
<speed>5.6</speed>
<temp>0.00</temp>
<bpm>0</bpm>
<rpm>0.00</rpm>
</extensions>
</trkpt>
<trkpt lat="64.240676880" lon="-20.670145035">
<ele>76.906250</ele>
<time>2012-07-19T16:45:21Z</time>
<speed>4.800000</speed>
<extensions>
<speed>4.8</speed>
<temp>0.00</temp>
<bpm>0</bpm>
<rpm>0.00</rpm>
</extensions>
</trkpt>
<trkpt lat="64.240661621" lon="-20.669635773">
<ele>76.800781</ele>
<time>2012-07-19T16:45:26Z</time>
<speed>5.380000</speed>
<extensions>
<speed>5.4</speed>
<temp>0.00</temp>
<bpm>0</bpm>
<rpm>0.00</rpm>
</extensions>
</trkpt>
<trkpt lat="64.240646362" lon="-20.669084549">
<ele>76.621094</ele>
<time>2012-07-19T16:45:31Z</time>
<speed>5.600000</speed>
<extensions>
<speed>5.6</speed>
<temp>0.00</temp>
<bpm>0</bpm>
<rpm>0.00</rpm>
</extensions>
</trkpt>
<trkpt lat="64.240631104" lon="-20.668533325">
<ele>76.845703</ele>
<time>2012-07-19T16:45:36Z</time>
<speed>5.630000</speed>
<extensions>
<speed>5.6</speed>
<temp>0.00</temp>
<bpm>0</bpm>
<rpm>0.00</rpm>
</extensions>
</trkpt>
<trkpt lat="64.240585327" lon="-20.667985916">
<ele>76.791016</ele>
<time>2012-07-19T16:45:41Z</time>
<speed>5.630000</speed>
<extensions>
<speed>5.6</speed>
<temp>0.00</temp>
<bpm>0</bpm>
<rpm>0.00</rpm>
</extensions>
</trkpt>
<trkpt lat="64.240547180" lon="-20.667417526">
<ele>75.876953</ele>
<time>2012-07-19T16:45:46Z</time>
<speed>5.180000</speed>
<extensions>
<speed>5.2</speed>
<temp>0.00</temp>
<bpm>0</bpm>
<rpm>0.00</rpm>
</extensions>
</trkpt>
<trkpt lat="64.240486145" lon="-20.666866302">
<ele>76.117188</ele>
<time>2012-07-19T16:45:51Z</time>
<speed>5.590000</speed>
<extensions>
<speed>5.6</speed>
<temp>0.00</temp>
<bpm>0</bpm>
<rpm>0.00</rpm>
</extensions>
</trkpt>
<trkpt lat="64.240417480" lon="-20.666305542">
<ele>76.220703</ele>
<time>2012-07-19T16:45:56Z</time>
<speed>5.640000</speed>
<extensions>
<speed>5.6</speed>
<temp>0.00</temp>
<bpm>0</bpm>
<rpm>0.00</rpm>
</extensions>
</trkpt>
<trkpt lat="64.240333557" lon="-20.665750504">
<ele>76.599609</ele>
<time>2012-07-19T16:46:01Z</time>
<speed>5.480000</speed>
<extensions>
<speed>5.5</speed>
<temp>0.00</temp>
<bpm>0</bpm>
<rpm>0.00</rpm>
</extensions>
</trkpt>
<trkpt lat="64.240242004" lon="-20.665275574">
<ele>76.498047</ele>
<time>2012-07-19T16:46:06Z</time>
<speed>5.140000</speed>
<extensions>
<speed>5.1</speed>
<temp>0.00</temp>
<bpm>0</bpm>
<rpm>0.00</rpm>
</extensions>
</trkpt>
<trkpt lat="64.240150452" lon="-20.664787292">
<ele>77.167969</ele>
<time>2012-07-19T16:46:11Z</time>
<speed>5.230000</speed>
<extensions>
<speed>5.2</speed>
<temp>0.00</temp>
<bpm>0</bpm>
<rpm>0.00</rpm>
</extensions>
</trkpt>
<trkpt lat="64.240066528" lon="-20.664299011">
<ele>77.392578</ele>
<time>2012-07-19T16:46:16Z</time>
<speed>4.870000</speed>
<extensions>
<speed>4.9</speed>
<temp>0.00</temp>
<bpm>0</bpm>
<rpm>0.00</rpm>
</extensions>
</trkpt>
<trkpt lat="64.239982605" lon="-20.663866043">
<ele>77.572266</ele>
<time>2012-07-19T16:46:21Z</time>
<speed>4.510000</speed>
<extensions>
<speed>4.5</speed>
<temp>0.00</temp>
<bpm>0</bpm>
<rpm>0.00</rpm>
</extensions>
</trkpt>
<trkpt lat="64.239898682" lon="-20.663463593">
<ele>77.708984</ele>
<time>2012-07-19T16:46:26Z</time>
<speed>4.280000</speed>
<extensions>
<speed>4.3</speed>
<temp>0.00</temp>
<bpm>0</bpm>
<rpm>0.00</rpm>
</extensions>
</trkpt>
<trkpt lat="64.239807129" lon="-20.663057327">
<ele>79.152344</ele>
<time>2012-07-19T16:46:31Z</time>
<speed>4.460000</speed>
<extensions>
<speed>4.5</speed>
<temp>0.00</temp>
<bpm>0</bpm>
<rpm>0.00</rpm>
</extensions>
</trkpt>
<trkpt lat="64.239738464" lon="-20.662649155">
<ele>80.326172</ele>
<time>2012-07-19T16:46:36Z</time>
<speed>3.840000</speed>
<extensions>
<speed>3.8</speed>
<temp>0.00</temp>
<bpm>0</bpm>
<rpm>0.00</rpm>
</extensions>
</trkpt>
<trkpt lat="64.239677429" lon="-20.662334442">
<ele>80.003906</ele>
<time>2012-07-19T16:46:41Z</time>
<speed>3.340000</speed>
<extensions>
<speed>3.3</speed>
<temp>0.00</temp>
<bpm>0</bpm>
<rpm>0.00</rpm>
</extensions>
</trkpt>
<trkpt lat="64.239631653" lon="-20.662065506">
<ele>80.794922</ele>
<time>2012-07-19T16:46:46Z</time>
<speed>2.630000</speed>
<extensions>
<speed>2.6</speed>
<temp>0.00</temp>
<bpm>0</bpm>
<rpm>0.00</rpm>
</extensions>
</trkpt>
<trkpt lat="64.239593506" lon="-20.661830902">
<ele>81.556641</ele>
<time>2012-07-19T16:46:51Z</time>
<speed>2.760000</speed>
<extensions>
<speed>2.8</speed>
<temp>0.00</temp>
<bpm>0</bpm>
<rpm>0.00</rpm>
</extensions>
</trkpt>
<trkpt lat="64.239547729" lon="-20.661617279">
<ele>80.353516</ele>
<time>2012-07-19T16:46:56Z</time>
<speed>2.470000</speed>
<extensions>
<speed>2.5</speed>
<temp>0.00</temp>
<bpm>0</bpm>
<rpm>0.00</rpm>
</extensions>
</trkpt>
<trkpt lat="64.239494324" lon="-20.661352158">
<ele>80.812500</ele>
<time>2012-07-19T16:47:01Z</time>
<speed>2.550000</speed>
<extensions>
<speed>2.6</speed>
<temp>0.00</temp>
<bpm>0</bpm>
<rpm>0.00</rpm>
</extensions>
</trkpt>
<trkpt lat="64.239440918" lon="-20.661094666">
<ele>81.548828</ele>
<time>2012-07-19T16:47:06Z</time>
<speed>2.810000</speed>
<extensions>
<speed>2.8</speed>
<temp>0.00</temp>
<bpm>0</bpm>
<rpm>0.00</rpm>
</extensions>
</trkpt>
<trkpt lat="64.239379883" lon="-20.660837173">
<ele>82.111328</ele>
<time>2012-07-19T16:47:11Z</time>
<speed>2.890000</speed>
<extensions>
<speed>2.9</speed>
<temp>0.00</temp>
<bpm>0</bpm>
<rpm>0.00</rpm>
</extensions>
</trkpt>
<trkpt lat="64.239326477" lon="-20.660562515">
<ele>82.654297</ele>
<time>2012-07-19T16:47:16Z</time>
<speed>2.790000</speed>
<extensions>
<speed>2.8</speed>
<temp>0.00</temp>
<bpm>0</bpm>
<rpm>0.00</rpm>
</extensions>
</trkpt>
<trkpt lat="64.239280701" lon="-20.660259247">
<ele>83.000000</ele>
<time>2012-07-19T16:47:21Z</time>
<speed>3.230000</speed>
<extensions>
<speed>3.2</speed>
<temp>0.00</temp>
<bpm>0</bpm>
<rpm>0.00</rpm>
</extensions>
</trkpt>
<trkpt lat="64.239227295" lon="-20.659952164">
<ele>82.771484</ele>
<time>2012-07-19T16:47:26Z</time>
<speed>3.220000</speed>
<extensions>
<speed>3.2</speed>
<temp>0.00</temp>
<bpm>0</bpm>
<rpm>0.00</rpm>
</extensions>
</trkpt>
<trkpt lat="64.239158630" lon="-20.659646988">
<ele>83.623047</ele>
<time>2012-07-19T16:47:31Z</time>
<speed>3.320000</speed>
<extensions>
<speed>3.3</speed>
<temp>0.00</temp>
<bpm>0</bpm>
<rpm>0.00</rpm>
</extensions>
</trkpt>
<trkpt lat="64.239089966" lon="-20.659334183">
<ele>84.115234</ele>
<time>2012-07-19T16:47:36Z</time>
<speed>3.440000</speed>
<extensions>
<speed>3.4</speed>
<temp>0.00</temp>
<bpm>0</bpm>
<rpm>0.00</rpm>
</extensions>
</trkpt>
<trkpt lat="64.239028931" lon="-20.658994675">
<ele>84.533203</ele>
<time>2012-07-19T16:47:41Z</time>
<speed>3.200000</speed>
<extensions>
<speed>3.2</speed>
<temp>0.00</temp>
<bpm>0</bpm>
<rpm>0.00</rpm>
</extensions>
</trkpt>
<trkpt lat="64.238967896" lon="-20.658651352">
<ele>84.974609</ele>
<time>2012-07-19T16:47:46Z</time>
<speed>4.390000</speed>
<extensions>
<speed>4.4</speed>
<temp>0.00</temp>
<bpm>0</bpm>
<rpm>0.00</rpm>
</extensions>
</trkpt>
<trkpt lat="64.238906860" lon="-20.658252716">
<ele>84.619141</ele>
<time>2012-07-19T16:47:51Z</time>
<speed>4.020000</speed>
<extensions>
<speed>4.0</speed>
<temp>0.00</temp>
<bpm>0</bpm>
<rpm>0.00</rpm>
</extensions>
</trkpt>
<trkpt lat="64.238830566" lon="-20.657871246">
<ele>85.093750</ele>
<time>2012-07-19T16:47:56Z</time>
<speed>4.160000</speed>
<extensions>
<speed>4.2</speed>
<temp>0.00</temp>
<bpm>0</bpm>
<rpm>0.00</rpm>
</extensions>
</trkpt>
<trkpt lat="64.238739014" lon="-20.657470703">
<ele>84.742188</ele>
<time>2012-07-19T16:48:01Z</time>
<speed>4.820000</speed>
<extensions>
<speed>4.8</speed>
<temp>0.00</temp>
<bpm>0</bpm>
<rpm>0.00</rpm>
</extensions>
</trkpt>
<trkpt lat="64.238655090" lon="-20.657011032">
<ele>84.656250</ele>
<time>2012-07-19T16:48:06Z</time>
<speed>4.930000</speed>
<extensions>
<speed>4.9</speed>
<temp>0.00</temp>
<bpm>0</bpm>
<rpm>0.00</rpm>
</extensions>
</trkpt>
<trkpt lat="64.238563538" lon="-20.656511307">
<ele>84.675781</ele>
<time>2012-07-19T16:48:11Z</time>
<speed>5.280000</speed>
<extensions>
<speed>5.3</speed>
<temp>0.00</temp>
<bpm>0</bpm>
<rpm>0.00</rpm>
</extensions>
</trkpt>
<trkpt lat="64.238471985" lon="-20.656007767">
<ele>84.259766</ele>
<time>2012-07-19T16:48:16Z</time>
<speed>5.450000</speed>
<extensions>
<speed>5.5</speed>
<temp>0.00</temp>
<bpm>0</bpm>
<rpm>0.00</rpm>
</extensions>
</trkpt>
<trkpt lat="64.238372803" lon="-20.655483246">
<ele>83.867188</ele>
<time>2012-07-19T16:48:21Z</time>
<speed>5.690000</speed>
<extensions>
<speed>5.7</speed>
<temp>0.00</temp>
<bpm>0</bpm>
<rpm>0.00</rpm>
</extensions>
</trkpt>
<trkpt lat="64.238265991" lon="-20.654945374">
<ele>83.759766</ele>
<time>2012-07-19T16:48:26Z</time>
<speed>5.690000</speed>
<extensions>
<speed>5.7</speed>
<temp>0.00</temp>
<bpm>0</bpm>
<rpm>0.00</rpm>
</extensions>
</trkpt>
<trkpt lat="64.238159180" lon="-20.654411316">
<ele>84.701172</ele>
<time>2012-07-19T16:48:31Z</time>
<speed>5.470000</speed>
<extensions>
<speed>5.5</speed>
<temp>0.00</temp>
<bpm>0</bpm>
<rpm>0.00</rpm>
</extensions>
</trkpt>
<trkpt lat="64.238067627" lon="-20.653890610">
<ele>85.419922</ele>
<time>2012-07-19T16:48:36Z</time>
<speed>5.350000</speed>
<extensions>
<speed>5.4</speed>
<temp>0.00</temp>
<bpm>0</bpm>
<rpm>0.00</rpm>
</extensions>
</trkpt>
<trkpt lat="64.237976074" lon="-20.653413773">
<ele>86.111328</ele>
<time>2012-07-19T16:48:41Z</time>
<speed>4.910000</speed>
<extensions>
<speed>4.9</speed>
<temp>0.00</temp>
<bpm>0</bpm>
<rpm>0.00</rpm>
</extensions>
</trkpt>
<trkpt lat="64.237884521" lon="-20.652948380">
<ele>87.333984</ele>
<time>2012-07-19T16:48:46Z</time>
<speed>4.770000</speed>
<extensions>
<speed>4.8</speed>
<temp>0.00</temp>
<bpm>0</bpm>
<rpm>0.00</rpm>
</extensions>
</trkpt>
<trkpt lat="64.237800598" lon="-20.652507782">
<ele>87.138672</ele>
<time>2012-07-19T16:48:51Z</time>
<speed>4.810000</speed>
<extensions>
<speed>4.8</speed>
<temp>0.00</temp>
<bpm>0</bpm>
<rpm>0.00</rpm>
</extensions>
</trkpt>
<trkpt lat="64.237709045" lon="-20.652055740">
<ele>87.578125</ele>
<time>2012-07-19T16:48:56Z</time>
<speed>4.710000</speed>
<extensions>
<speed>4.7</speed>
<temp>0.00</temp>
<bpm>0</bpm>
<rpm>0.00</rpm>
</extensions>
</trkpt>
<trkpt lat="64.237625122" lon="-20.651618958">
<ele>88.189453</ele>
<time>2012-07-19T16:49:01Z</time>
<speed>4.570000</speed>
<extensions>
<speed>4.6</speed>
<temp>0.00</temp>
<bpm>0</bpm>
<rpm>0.00</rpm>
</extensions>
</trkpt>
<trkpt lat="64.237556458" lon="-20.651222229">
<ele>88.013672</ele>
<time>2012-07-19T16:49:06Z</time>
<speed>4.260000</speed>
<extensions>
<speed>4.3</speed>
<temp>0.00</temp>
<bpm>0</bpm>
<rpm>0.00</rpm>
</extensions>
</trkpt>
<trkpt lat="64.237472534" lon="-20.650808334">
<ele>88.755859</ele>
<time>2012-07-19T16:49:11Z</time>
<speed>4.630000</speed>
<extensions>
<speed>4.6</speed>
<temp>0.00</temp>
<bpm>0</bpm>
<rpm>0.00</rpm>
</extensions>
</trkpt>
<trkpt lat="64.237380981" lon="-20.650367737">
<ele>88.984375</ele>
<time>2012-07-19T16:49:16Z</time>
<speed>4.860000</speed>
<extensions>
<speed>4.9</speed>
<temp>0.00</temp>
<bpm>0</bpm>
<rpm>0.00</rpm>
</extensions>
</trkpt>
<trkpt lat="64.237289429" lon="-20.649917603">
<ele>88.515625</ele>
<time>2012-07-19T16:49:21Z</time>
<speed>4.780000</speed>
<extensions>
<speed>4.8</speed>
<temp>0.00</temp>
<bpm>0</bpm>
<rpm>0.00</rpm>
</extensions>
</trkpt>
<trkpt lat="64.237205505" lon="-20.649444580">
<ele>88.888672</ele>
<time>2012-07-19T16:49:26Z</time>
<speed>4.780000</speed>
<extensions>
<speed>4.8</speed>
<temp>0.00</temp>
<bpm>0</bpm>
<rpm>0.00</rpm>
</extensions>
</trkpt>
<trkpt lat="64.237129211" lon="-20.648992538">
<ele>87.007813</ele>
<time>2012-07-19T16:49:31Z</time>
<speed>4.770000</speed>
<extensions>
<speed>4.8</speed>
<temp>0.00</temp>
<bpm>0</bpm>
<rpm>0.00</rpm>
</extensions>
</trkpt>
<trkpt lat="64.237037659" lon="-20.648597717">
<ele>87.332031</ele>
<time>2012-07-19T16:49:36Z</time>
<speed>4.470000</speed>
<extensions>
<speed>4.5</speed>
<temp>0.00</temp>
<bpm>0</bpm>
<rpm>0.00</rpm>
</extensions>
</trkpt>
<trkpt lat="64.236953735" lon="-20.648193359">
<ele>87.003906</ele>
<time>2012-07-19T16:49:41Z</time>
<speed>3.990000</speed>
<extensions>
<speed>4.0</speed>
<temp>0.00</temp>
<bpm>0</bpm>
<rpm>0.00</rpm>
</extensions>
</trkpt>
<trkpt lat="64.236892700" lon="-20.647890091">
<ele>87.462891</ele>
<time>2012-07-19T16:49:46Z</time>
<speed>3.110000</speed>
<extensions>
<speed>3.1</speed>
<temp>0.00</temp>
<bpm>0</bpm>
<rpm>0.00</rpm>
</extensions>
</trkpt>
<trkpt lat="64.236854553" lon="-20.647657394">
<ele>87.394531</ele>
<time>2012-07-19T16:49:51Z</time>
<speed>1.650000</speed>
<extensions>
<speed>1.7</speed>
<temp>0.00</temp>
<bpm>0</bpm>
<rpm>0.00</rpm>
</extensions>
</trkpt>
<trkpt lat="64.236816406" lon="-20.647487640">
<ele>86.509766</ele>
<time>2012-07-19T16:49:56Z</time>
<speed>2.540000</speed>
<extensions>
<speed>2.5</speed>
<temp>0.00</temp>
<bpm>0</bpm>
<rpm>0.00</rpm>
</extensions>
</trkpt>
<trkpt lat="64.236763000" lon="-20.647186279">
<ele>86.298828</ele>
<time>2012-07-19T16:50:01Z</time>
<speed>3.680000</speed>
<extensions>
<speed>3.7</speed>
<temp>0.00</temp>
<bpm>0</bpm>
<rpm>0.00</rpm>
</extensions>
</trkpt>
<trkpt lat="64.236694336" lon="-20.646806717">
<ele>86.259766</ele>
<time>2012-07-19T16:50:06Z</time>
<speed>4.150000</speed>
<extensions>
<speed>4.1</speed>
<temp>0.00</temp>
<bpm>0</bpm>
<rpm>0.00</rpm>
</extensions>
</trkpt>
<trkpt lat="64.236610413" lon="-20.646415710">
<ele>86.634766</ele>
<time>2012-07-19T16:50:11Z</time>
<speed>4.400000</speed>
<extensions>
<speed>4.4</speed>
<temp>0.00</temp>
<bpm>0</bpm>
<rpm>0.00</rpm>
</extensions>
</trkpt>
<trkpt lat="64.236534119" lon="-20.645977020">
<ele>86.851563</ele>
<time>2012-07-19T16:50:16Z</time>
<speed>4.650000</speed>
<extensions>
<speed>4.6</speed>
<temp>0.00</temp>
<bpm>0</bpm>
<rpm>0.00</rpm>
</extensions>
</trkpt>
<trkpt lat="64.236442566" lon="-20.645542145">
<ele>88.283203</ele>
<time>2012-07-19T16:50:21Z</time>
<speed>4.920000</speed>
<extensions>
<speed>4.9</speed>
<temp>0.00</temp>
<bpm>0</bpm>
<rpm>0.00</rpm>
</extensions>
</trkpt>
<trkpt lat="64.236358643" lon="-20.645078659">
<ele>88.054688</ele>
<time>2012-07-19T16:50:26Z</time>
<speed>4.730000</speed>
<extensions>
<speed>4.7</speed>
<temp>0.00</temp>
<bpm>0</bpm>
<rpm>0.00</rpm>
</extensions>
</trkpt>
<trkpt lat="64.236274719" lon="-20.644666672">
<ele>88.804688</ele>
<time>2012-07-19T16:50:31Z</time>
<speed>3.750000</speed>
<extensions>
<speed>3.8</speed>
<temp>0.00</temp>
<bpm>0</bpm>
<rpm>0.00</rpm>
</extensions>
</trkpt>
<trkpt lat="64.236206055" lon="-20.644306183">
<ele>89.277344</ele>
<time>2012-07-19T16:50:36Z</time>
<speed>4.070000</speed>
<extensions>
<speed>4.1</speed>
<temp>0.00</temp>
<bpm>0</bpm>
<rpm>0.00</rpm>
</extensions>
</trkpt>
<trkpt lat="64.236122131" lon="-20.643892288">
<ele>89.734375</ele>
<time>2012-07-19T16:50:41Z</time>
<speed>4.520000</speed>
<extensions>
<speed>4.5</speed>
<temp>0.00</temp>
<bpm>0</bpm>
<rpm>0.00</rpm>
</extensions>
</trkpt>
<trkpt lat="64.236045837" lon="-20.643447876">
<ele>90.558594</ele>
<time>2012-07-19T16:50:46Z</time>
<speed>4.730000</speed>
<extensions>
<speed>4.7</speed>
<temp>0.00</temp>
<bpm>0</bpm>
<rpm>0.00</rpm>
</extensions>
</trkpt>
<trkpt lat="64.235961914" lon="-20.643039703">
<ele>91.255859</ele>
<time>2012-07-19T16:50:51Z</time>
<speed>3.670000</speed>
<extensions>
<speed>3.7</speed>
<temp>0.00</temp>
<bpm>0</bpm>
<rpm>0.00</rpm>
</extensions>
</trkpt>
<trkpt lat="64.235877991" lon="-20.642667770">
<ele>91.402344</ele>
<time>2012-07-19T16:50:56Z</time>
<speed>4.420000</speed>
<extensions>
<speed>4.4</speed>
<temp>0.00</temp>
<bpm>0</bpm>
<rpm>0.00</rpm>
</extensions>
</trkpt>
<trkpt lat="64.235786438" lon="-20.642251968">
<ele>91.636719</ele>
<time>2012-07-19T16:51:01Z</time>
<speed>4.700000</speed>
<extensions>
<speed>4.7</speed>
<temp>0.00</temp>
<bpm>0</bpm>
<rpm>0.00</rpm>
</extensions>
</trkpt>
<trkpt lat="64.235671997" lon="-20.641851425">
<ele>91.552734</ele>
<time>2012-07-19T16:51:06Z</time>
<speed>4.030000</speed>
<extensions>
<speed>4.0</speed>
<temp>0.00</temp>
<bpm>0</bpm>
<rpm>0.00</rpm>
</extensions>
</trkpt>
<trkpt lat="64.235572815" lon="-20.641487122">
<ele>91.753906</ele>
<time>2012-07-19T16:51:11Z</time>
<speed>4.570000</speed>
<extensions>
<speed>4.6</speed>
<temp>0.00</temp>
<bpm>0</bpm>
<rpm>0.00</rpm>
</extensions>
</trkpt>
<trkpt lat="64.235458374" lon="-20.641082764">
<ele>91.574219</ele>
<time>2012-07-19T16:51:16Z</time>
<speed>4.720000</speed>
<extensions>
<speed>4.7</speed>
<temp>0.00</temp>
<bpm>0</bpm>
<rpm>0.00</rpm>
</extensions>
</trkpt>
<trkpt lat="64.235343933" lon="-20.640682220">
<ele>91.126953</ele>
<time>2012-07-19T16:51:21Z</time>
<speed>4.810000</speed>
<extensions>
<speed>4.8</speed>
<temp>0.00</temp>
<bpm>0</bpm>
<rpm>0.00</rpm>
</extensions>
</trkpt>
<trkpt lat="64.235206604" lon="-20.640295029">
<ele>91.361328</ele>
<time>2012-07-19T16:51:26Z</time>
<speed>4.960000</speed>
<extensions>
<speed>5.0</speed>
<temp>0.00</temp>
<bpm>0</bpm>
<rpm>0.00</rpm>
</extensions>
</trkpt>
<trkpt lat="64.235069275" lon="-20.639913559">
<ele>91.166016</ele>
<time>2012-07-19T16:51:31Z</time>
<speed>3.810000</speed>
<extensions>
<speed>3.8</speed>
<temp>0.00</temp>
<bpm>0</bpm>
<rpm>0.00</rpm>
</extensions>
</trkpt>
<trkpt lat="64.234931946" lon="-20.639575958">
<ele>90.753906</ele>
<time>2012-07-19T16:51:36Z</time>
<speed>4.750000</speed>
<extensions>
<speed>4.8</speed>
<temp>0.00</temp>
<bpm>0</bpm>
<rpm>0.00</rpm>
</extensions>
</trkpt>
<trkpt lat="64.234779358" lon="-20.639209747">
<ele>90.486328</ele>
<time>2012-07-19T16:51:41Z</time>
<speed>4.980000</speed>
<extensions>
<speed>5.0</speed>
<temp>0.00</temp>
<bpm>0</bpm>
<rpm>0.00</rpm>
</extensions>
</trkpt>
<trkpt lat="64.234619141" lon="-20.638843536">
<ele>90.097656</ele>
<time>2012-07-19T16:51:46Z</time>
<speed>5.260000</speed>
<extensions>
<speed>5.3</speed>
<temp>0.00</temp>
<bpm>0</bpm>
<rpm>0.00</rpm>
</extensions>
</trkpt>
<trkpt lat="64.234451294" lon="-20.638475418">
<ele>90.185547</ele>
<time>2012-07-19T16:51:51Z</time>
<speed>4.950000</speed>
<extensions>
<speed>4.9</speed>
<temp>0.00</temp>
<bpm>0</bpm>
<rpm>0.00</rpm>
</extensions>
</trkpt>
<trkpt lat="64.234283447" lon="-20.638137817">
<ele>90.394531</ele>
<time>2012-07-19T16:51:56Z</time>
<speed>5.100000</speed>
<extensions>
<speed>5.1</speed>
<temp>0.00</temp>
<bpm>0</bpm>
<rpm>0.00</rpm>
</extensions>
</trkpt>
<trkpt lat="64.234100342" lon="-20.637792587">
<ele>90.496094</ele>
<time>2012-07-19T16:52:01Z</time>
<speed>5.320000</speed>
<extensions>
<speed>5.3</speed>
<temp>0.00</temp>
<bpm>0</bpm>
<rpm>0.00</rpm>
</extensions>
</trkpt>
<trkpt lat="64.233917236" lon="-20.637435913">
<ele>90.492188</ele>
<time>2012-07-19T16:52:06Z</time>
<speed>5.640000</speed>
<extensions>
<speed>5.6</speed>
<temp>0.00</temp>
<bpm>0</bpm>
<rpm>0.00</rpm>
</extensions>
</trkpt>
<trkpt lat="64.233741760" lon="-20.637170792">
<ele>91.230469</ele>
<time>2012-07-19T16:52:11Z</time>
<speed>3.450000</speed>
<extensions>
<speed>3.5</speed>
<temp>0.00</temp>
<bpm>0</bpm>
<rpm>0.00</rpm>
</extensions>
</trkpt>
<trkpt lat="64.233566284" lon="-20.636968613">
<ele>91.109375</ele>
<time>2012-07-19T16:52:16Z</time>
<speed>4.750000</speed>
<extensions>
<speed>4.8</speed>
<temp>0.00</temp>
<bpm>0</bpm>
<rpm>0.00</rpm>
</extensions>
</trkpt>
<trkpt lat="64.233367920" lon="-20.636720657">
<ele>90.240234</ele>
<time>2012-07-19T16:52:21Z</time>
<speed>4.980000</speed>
<extensions>
<speed>5.0</speed>
<temp>0.00</temp>
<bpm>0</bpm>
<rpm>0.00</rpm>
</extensions>
</trkpt>
<trkpt lat="64.233161926" lon="-20.636472702">
<ele>89.988281</ele>
<time>2012-07-19T16:52:26Z</time>
<speed>5.180000</speed>
<extensions>
<speed>5.2</speed>
<temp>0.00</temp>
<bpm>0</bpm>
<rpm>0.00</rpm>
</extensions>
</trkpt>
<trkpt lat="64.232986450" lon="-20.636255264">
<ele>89.750000</ele>
<time>2012-07-19T16:52:31Z</time>
<speed>4.170000</speed>
<extensions>
<speed>4.2</speed>
<temp>0.00</temp>
<bpm>0</bpm>
<rpm>0.00</rpm>
</extensions>
</trkpt>
<trkpt lat="64.232795715" lon="-20.636030197">
<ele>89.263672</ele>
<time>2012-07-19T16:52:36Z</time>
<speed>5.090000</speed>
<extensions>
<speed>5.1</speed>
<temp>0.00</temp>
<bpm>0</bpm>
<rpm>0.00</rpm>
</extensions>
</trkpt>
<trkpt lat="64.232597351" lon="-20.635755539">
<ele>88.578125</ele>
<time>2012-07-19T16:52:41Z</time>
<speed>4.970000</speed>
<extensions>
<speed>5.0</speed>
<temp>0.00</temp>
<bpm>0</bpm>
<rpm>0.00</rpm>
</extensions>
</trkpt>
<trkpt lat="64.232429504" lon="-20.635536194">
<ele>89.058594</ele>
<time>2012-07-19T16:52:46Z</time>
<speed>3.840000</speed>
<extensions>
<speed>3.8</speed>
<temp>0.00</temp>
<bpm>0</bpm>
<rpm>0.00</rpm>
</extensions>
</trkpt>
<trkpt lat="64.232261658" lon="-20.635322571">
<ele>88.498047</ele>
<time>2012-07-19T16:52:51Z</time>
<speed>4.730000</speed>
<extensions>
<speed>4.7</speed>
<temp>0.00</temp>
<bpm>0</bpm>
<rpm>0.00</rpm>
</extensions>
</trkpt>
<trkpt lat="64.232063293" lon="-20.635072708">
<ele>87.830078</ele>
<time>2012-07-19T16:52:56Z</time>
<speed>5.420000</speed>
<extensions>
<speed>5.4</speed>
<temp>0.00</temp>
<bpm>0</bpm>
<rpm>0.00</rpm>
</extensions>
</trkpt>
<trkpt lat="64.231857300" lon="-20.634807587">
<ele>87.917969</ele>
<time>2012-07-19T16:53:01Z</time>
<speed>4.880000</speed>
<extensions>
<speed>4.9</speed>
<temp>0.00</temp>
<bpm>0</bpm>
<rpm>0.00</rpm>
</extensions>
</trkpt>
<trkpt lat="64.231651306" lon="-20.634605408">
<ele>87.531250</ele>
<time>2012-07-19T16:53:06Z</time>
<speed>5.230000</speed>
<extensions>
<speed>5.2</speed>
<temp>0.00</temp>
<bpm>0</bpm>
<rpm>0.00</rpm>
</extensions>
</trkpt>
<trkpt lat="64.231437683" lon="-20.634405136">
<ele>86.410156</ele>
<time>2012-07-19T16:53:11Z</time>
<speed>5.120000</speed>
<extensions>
<speed>5.1</speed>
<temp>0.00</temp>
<bpm>0</bpm>
<rpm>0.00</rpm>
</extensions>
</trkpt>
<trkpt lat="64.231193542" lon="-20.634223938">
<ele>84.769531</ele>
<time>2012-07-19T16:53:16Z</time>
<speed>6.000000</speed>
<extensions>
<speed>6.0</speed>
<temp>0.00</temp>
<bpm>0</bpm>
<rpm>0.00</rpm>
</extensions>
</trkpt>
<trkpt lat="64.230918884" lon="-20.634038925">
<ele>83.697266</ele>
<time>2012-07-19T16:53:21Z</time>
<speed>6.350000</speed>
<extensions>
<speed>6.4</speed>
<temp>0.00</temp>
<bpm>0</bpm>
<rpm>0.00</rpm>
</extensions>
</trkpt>
<trkpt lat="64.230651855" lon="-20.633939743">
<ele>82.742188</ele>
<time>2012-07-19T16:53:26Z</time>
<speed>5.920000</speed>
<extensions>
<speed>5.9</speed>
<temp>0.00</temp>
<bpm>0</bpm>
<rpm>0.00</rpm>
</extensions>
</trkpt>
<trkpt lat="64.230392456" lon="-20.633863449">
<ele>81.337891</ele>
<time>2012-07-19T16:53:31Z</time>
<speed>5.890000</speed>
<extensions>
<speed>5.9</speed>
<temp>0.00</temp>
<bpm>0</bpm>
<rpm>0.00</rpm>
</extensions>
</trkpt>
<trkpt lat="64.230102539" lon="-20.633800507">
<ele>79.906250</ele>
<time>2012-07-19T16:53:36Z</time>
<speed>6.810000</speed>
<extensions>
<speed>6.8</speed>
<temp>0.00</temp>
<bpm>0</bpm>
<rpm>0.00</rpm>
</extensions>
</trkpt>
<trkpt lat="64.229782104" lon="-20.633726120">
<ele>76.773438</ele>
<time>2012-07-19T16:53:41Z</time>
<speed>7.240000</speed>
<extensions>
<speed>7.2</speed>
<temp>0.00</temp>
<bpm>0</bpm>
<rpm>0.00</rpm>
</extensions>
</trkpt>
<trkpt lat="64.229446411" lon="-20.633684158">
<ele>75.500000</ele>
<time>2012-07-19T16:53:46Z</time>
<speed>7.530000</speed>
<extensions>
<speed>7.5</speed>
<temp>0.00</temp>
<bpm>0</bpm>
<rpm>0.00</rpm>
</extensions>
</trkpt>
<trkpt lat="64.229118347" lon="-20.633632660">
<ele>74.109375</ele>
<time>2012-07-19T16:53:51Z</time>
<speed>7.330000</speed>
<extensions>
<speed>7.3</speed>
<temp>0.00</temp>
<bpm>0</bpm>
<rpm>0.00</rpm>
</extensions>
</trkpt>
<trkpt lat="64.228790283" lon="-20.633644104">
<ele>77.388672</ele>
<time>2012-07-19T16:53:56Z</time>
<speed>7.420000</speed>
<extensions>
<speed>7.4</speed>
<temp>0.00</temp>
<bpm>0</bpm>
<rpm>0.00</rpm>
</extensions>
</trkpt>
<trkpt lat="64.228477478" lon="-20.633569717">
<ele>76.298828</ele>
<time>2012-07-19T16:54:01Z</time>
<speed>6.690000</speed>
<extensions>
<speed>6.7</speed>
<temp>0.00</temp>
<bpm>0</bpm>
<rpm>0.00</rpm>
</extensions>
</trkpt>
<trkpt lat="64.228195190" lon="-20.633520126">
<ele>75.033203</ele>
<time>2012-07-19T16:54:06Z</time>
<speed>6.010000</speed>
<extensions>
<speed>6.0</speed>
<temp>0.00</temp>
<bpm>0</bpm>
<rpm>0.00</rpm>
</extensions>
</trkpt>
<trkpt lat="64.227935791" lon="-20.633455276">
<ele>75.109375</ele>
<time>2012-07-19T16:54:11Z</time>
<speed>6.160000</speed>
<extensions>
<speed>6.2</speed>
<temp>0.00</temp>
<bpm>0</bpm>
<rpm>0.00</rpm>
</extensions>
</trkpt>
<trkpt lat="64.227661133" lon="-20.633413315">
<ele>74.689453</ele>
<time>2012-07-19T16:54:16Z</time>
<speed>6.180000</speed>
<extensions>
<speed>6.2</speed>
<temp>0.00</temp>
<bpm>0</bpm>
<rpm>0.00</rpm>
</extensions>
</trkpt>
<trkpt lat="64.227378845" lon="-20.633358002">
<ele>74.328125</ele>
<time>2012-07-19T16:54:21Z</time>
<speed>6.040000</speed>
<extensions>
<speed>6.0</speed>
<temp>0.00</temp>
<bpm>0</bpm>
<rpm>0.00</rpm>
</extensions>
</trkpt>
<trkpt lat="64.227104187" lon="-20.633232117">
<ele>71.582031</ele>
<time>2012-07-19T16:54:26Z</time>
<speed>6.030000</speed>
<extensions>
<speed>6.0</speed>
<temp>0.00</temp>
<bpm>0</bpm>
<rpm>0.00</rpm>
</extensions>
</trkpt>
<trkpt lat="64.226844788" lon="-20.633081436">
<ele>71.810547</ele>
<time>2012-07-19T16:54:31Z</time>
<speed>6.090000</speed>
<extensions>
<speed>6.1</speed>
<temp>0.00</temp>
<bpm>0</bpm>
<rpm>0.00</rpm>
</extensions>
</trkpt>
<trkpt lat="64.226600647" lon="-20.632900238">
<ele>71.675781</ele>
<time>2012-07-19T16:54:36Z</time>
<speed>5.180000</speed>
<extensions>
<speed>5.2</speed>
<temp>0.00</temp>
<bpm>0</bpm>
<rpm>0.00</rpm>
</extensions>
</trkpt>
<trkpt lat="64.226379395" lon="-20.632680893">
<ele>71.867188</ele>
<time>2012-07-19T16:54:41Z</time>
<speed>5.610000</speed>
<extensions>
<speed>5.6</speed>
<temp>0.00</temp>
<bpm>0</bpm>
<rpm>0.00</rpm>
</extensions>
</trkpt>
<trkpt lat="64.226150513" lon="-20.632398605">
<ele>71.763672</ele>
<time>2012-07-19T16:54:46Z</time>
<speed>5.860000</speed>
<extensions>
<speed>5.9</speed>
<temp>0.00</temp>
<bpm>0</bpm>
<rpm>0.00</rpm>
</extensions>
</trkpt>
<trkpt lat="64.225921631" lon="-20.632066727">
<ele>71.753906</ele>
<time>2012-07-19T16:54:51Z</time>
<speed>6.100000</speed>
<extensions>
<speed>6.1</speed>
<temp>0.00</temp>
<bpm>0</bpm>
<rpm>0.00</rpm>
</extensions>
</trkpt>
<trkpt lat="64.225700378" lon="-20.631673813">
<ele>71.564453</ele>
<time>2012-07-19T16:54:56Z</time>
<speed>6.280000</speed>
<extensions>
<speed>6.3</speed>
<temp>0.00</temp>
<bpm>0</bpm>
<rpm>0.00</rpm>
</extensions>
</trkpt>
<trkpt lat="64.225494385" lon="-20.631265640">
<ele>71.427734</ele>
<time>2012-07-19T16:55:01Z</time>
<speed>5.620000</speed>
<extensions>
<speed>5.6</speed>
<temp>0.00</temp>
<bpm>0</bpm>
<rpm>0.00</rpm>
</extensions>
</trkpt>
<trkpt lat="64.225318909" lon="-20.630821228">
<ele>70.917969</ele>
<time>2012-07-19T16:55:06Z</time>
<speed>6.120000</speed>
<extensions>
<speed>6.1</speed>
<temp>0.00</temp>
<bpm>0</bpm>
<rpm>0.00</rpm>
</extensions>
</trkpt>
<trkpt lat="64.225151062" lon="-20.630315781">
<ele>70.746094</ele>
<time>2012-07-19T16:55:11Z</time>
<speed>5.870000</speed>
<extensions>
<speed>5.9</speed>
<temp>0.00</temp>
<bpm>0</bpm>
<rpm>0.00</rpm>
</extensions>
</trkpt>
<trkpt lat="64.225006104" lon="-20.629838943">
<ele>70.363281</ele>
<time>2012-07-19T16:55:16Z</time>
<speed>5.390000</speed>
<extensions>
<speed>5.4</speed>
<temp>0.00</temp>
<bpm>0</bpm>
<rpm>0.00</rpm>
</extensions>
</trkpt>
<trkpt lat="64.224884033" lon="-20.629350662">
<ele>70.052734</ele>
<time>2012-07-19T16:55:21Z</time>
<speed>5.370000</speed>
<extensions>
<speed>5.4</speed>
<temp>0.00</temp>
<bpm>0</bpm>
<rpm>0.00</rpm>
</extensions>
</trkpt>
<trkpt lat="64.224784851" lon="-20.628847122">
<ele>69.455078</ele>
<time>2012-07-19T16:55:26Z</time>
<speed>5.470000</speed>
<extensions>
<speed>5.5</speed>
<temp>0.00</temp>
<bpm>0</bpm>
<rpm>0.00</rpm>
</extensions>
</trkpt>
<trkpt lat="64.224693298" lon="-20.628303528">
<ele>69.353516</ele>
<time>2012-07-19T16:55:31Z</time>
<speed>5.860000</speed>
<extensions>
<speed>5.9</speed>
<temp>0.00</temp>
<bpm>0</bpm>
<rpm>0.00</rpm>
</extensions>
</trkpt>
<trkpt lat="64.224617004" lon="-20.627706528">
<ele>68.351563</ele>
<time>2012-07-19T16:55:36Z</time>
<speed>6.350000</speed>
<extensions>
<speed>6.4</speed>
<temp>0.00</temp>
<bpm>0</bpm>
<rpm>0.00</rpm>
</extensions>
</trkpt>
<trkpt lat="64.224571228" lon="-20.627052307">
<ele>67.595703</ele>
<time>2012-07-19T16:55:41Z</time>
<speed>6.570000</speed>
<extensions>
<speed>6.6</speed>
<temp>0.00</temp>
<bpm>0</bpm>
<rpm>0.00</rpm>
</extensions>
</trkpt>
<trkpt lat="64.224548340" lon="-20.626377106">
<ele>66.914063</ele>
<time>2012-07-19T16:55:46Z</time>
<speed>6.750000</speed>
<extensions>
<speed>6.7</speed>
<temp>0.00</temp>
<bpm>0</bpm>
<rpm>0.00</rpm>
</extensions>
</trkpt>
<trkpt lat="64.224555969" lon="-20.625669479">
<ele>66.587891</ele>
<time>2012-07-19T16:55:51Z</time>
<speed>6.490000</speed>
<extensions>
<speed>6.5</speed>
<temp>0.00</temp>
<bpm>0</bpm>
<rpm>0.00</rpm>
</extensions>
</trkpt>
<trkpt lat="64.224563599" lon="-20.625015259">
<ele>66.203125</ele>
<time>2012-07-19T16:55:56Z</time>
<speed>6.290000</speed>
<extensions>
<speed>6.3</speed>
<temp>0.00</temp>
<bpm>0</bpm>
<rpm>0.00</rpm>
</extensions>
</trkpt>
<trkpt lat="64.224563599" lon="-20.624341965">
<ele>65.589844</ele>
<time>2012-07-19T16:56:01Z</time>
<speed>6.350000</speed>
<extensions>
<speed>6.4</speed>
<temp>0.00</temp>
<bpm>0</bpm>
<rpm>0.00</rpm>
</extensions>
</trkpt>
<trkpt lat="64.224525452" lon="-20.623655319">
<ele>65.564453</ele>
<time>2012-07-19T16:56:06Z</time>
<speed>6.820000</speed>
<extensions>
<speed>6.8</speed>
<temp>0.00</temp>
<bpm>0</bpm>
<rpm>0.00</rpm>
</extensions>
</trkpt>
<trkpt lat="64.224456787" lon="-20.622961044">
<ele>65.201172</ele>
<time>2012-07-19T16:56:11Z</time>
<speed>6.810000</speed>
<extensions>
<speed>6.8</speed>
<temp>0.00</temp>
<bpm>0</bpm>
<rpm>0.00</rpm>
</extensions>
</trkpt>
<trkpt lat="64.224372864" lon="-20.622350693">
<ele>66.250000</ele>
<time>2012-07-19T16:56:16Z</time>
<speed>5.860000</speed>
<extensions>
<speed>5.9</speed>
<temp>0.00</temp>
<bpm>0</bpm>
<rpm>0.00</rpm>
</extensions>
</trkpt>
<trkpt lat="64.224266052" lon="-20.621772766">
<ele>66.470703</ele>
<time>2012-07-19T16:56:21Z</time>
<speed>6.320000</speed>
<extensions>
<speed>6.3</speed>
<temp>0.00</temp>
<bpm>0</bpm>
<rpm>0.00</rpm>
</extensions>
</trkpt>
<trkpt lat="64.224128723" lon="-20.621187210">
<ele>66.640625</ele>
<time>2012-07-19T16:56:26Z</time>
<speed>6.730000</speed>
<extensions>
<speed>6.7</speed>
<temp>0.00</temp>
<bpm>0</bpm>
<rpm>0.00</rpm>
</extensions>
</trkpt>
<trkpt lat="64.224006653" lon="-20.620634079">
<ele>66.753906</ele>
<time>2012-07-19T16:56:31Z</time>
<speed>5.410000</speed>
<extensions>
<speed>5.4</speed>
<temp>0.00</temp>
<bpm>0</bpm>
<rpm>0.00</rpm>
</extensions>
</trkpt>
<trkpt lat="64.223899841" lon="-20.620105743">
<ele>66.939453</ele>
<time>2012-07-19T16:56:36Z</time>
<speed>5.980000</speed>
<extensions>
<speed>6.0</speed>
<temp>0.00</temp>
<bpm>0</bpm>
<rpm>0.00</rpm>
</extensions>
</trkpt>
<trkpt lat="64.223770142" lon="-20.619524002">
<ele>66.791016</ele>
<time>2012-07-19T16:56:41Z</time>
<speed>6.120000</speed>
<extensions>
<speed>6.1</speed>
<temp>0.00</temp>
<bpm>0</bpm>
<rpm>0.00</rpm>
</extensions>
</trkpt>
<trkpt lat="64.223648071" lon="-20.618993759">
<ele>66.679688</ele>
<time>2012-07-19T16:56:46Z</time>
<speed>6.000000</speed>
<extensions>
<speed>6.0</speed>
<temp>0.00</temp>
<bpm>0</bpm>
<rpm>0.00</rpm>
</extensions>
</trkpt>
<trkpt lat="64.223526001" lon="-20.618432999">
<ele>66.539063</ele>
<time>2012-07-19T16:56:51Z</time>
<speed>6.290000</speed>
<extensions>
<speed>6.3</speed>
<temp>0.00</temp>
<bpm>0</bpm>
<rpm>0.00</rpm>
</extensions>
</trkpt>
<trkpt lat="64.223403931" lon="-20.617832184">
<ele>65.054688</ele>
<time>2012-07-19T16:56:56Z</time>
<speed>6.530000</speed>
<extensions>
<speed>6.5</speed>
<temp>0.00</temp>
<bpm>0</bpm>
<rpm>0.00</rpm>
</extensions>
</trkpt>
<trkpt lat="64.223281860" lon="-20.617218018">
<ele>64.955078</ele>
<time>2012-07-19T16:57:01Z</time>
<speed>6.490000</speed>
<extensions>
<speed>6.5</speed>
<temp>0.00</temp>
<bpm>0</bpm>
<rpm>0.00</rpm>
</extensions>
</trkpt>
<trkpt lat="64.223175049" lon="-20.616598129">
<ele>65.181641</ele>
<time>2012-07-19T16:57:06Z</time>
<speed>6.320000</speed>
<extensions>
<speed>6.3</speed>
<temp>0.00</temp>
<bpm>0</bpm>
<rpm>0.00</rpm>
</extensions>
</trkpt>
<trkpt lat="64.223121643" lon="-20.615968704">
<ele>65.005859</ele>
<time>2012-07-19T16:57:11Z</time>
<speed>6.270000</speed>
<extensions>
<speed>6.3</speed>
<temp>0.00</temp>
<bpm>0</bpm>
<rpm>0.00</rpm>
</extensions>
</trkpt>
<trkpt lat="64.223075867" lon="-20.615348816">
<ele>65.291016</ele>
<time>2012-07-19T16:57:16Z</time>
<speed>5.860000</speed>
<extensions>
<speed>5.9</speed>
<temp>0.00</temp>
<bpm>0</bpm>
<rpm>0.00</rpm>
</extensions>
</trkpt>
<trkpt lat="64.223060608" lon="-20.614761353">
<ele>65.304688</ele>
<time>2012-07-19T16:57:21Z</time>
<speed>5.640000</speed>
<extensions>
<speed>5.6</speed>
<temp>0.00</temp>
<bpm>0</bpm>
<rpm>0.00</rpm>
</extensions>
</trkpt>
<trkpt lat="64.223075867" lon="-20.614191055">
<ele>65.357422</ele>
<time>2012-07-19T16:57:26Z</time>
<speed>5.480000</speed>
<extensions>
<speed>5.5</speed>
<temp>0.00</temp>
<bpm>0</bpm>
<rpm>0.00</rpm>
</extensions>
</trkpt>
<trkpt lat="64.223098755" lon="-20.613676071">
<ele>65.804688</ele>
<time>2012-07-19T16:57:31Z</time>
<speed>4.920000</speed>
<extensions>
<speed>4.9</speed>
<temp>0.00</temp>
<bpm>0</bpm>
<rpm>0.00</rpm>
</extensions>
</trkpt>
<trkpt lat="64.223144531" lon="-20.613204956">
<ele>66.419922</ele>
<time>2012-07-19T16:57:36Z</time>
<speed>4.570000</speed>
<extensions>
<speed>4.6</speed>
<temp>0.00</temp>
<bpm>0</bpm>
<rpm>0.00</rpm>
</extensions>
</trkpt>
<trkpt lat="64.223197937" lon="-20.612743378">
<ele>66.679688</ele>
<time>2012-07-19T16:57:41Z</time>
<speed>4.840000</speed>
<extensions>
<speed>4.8</speed>
<temp>0.00</temp>
<bpm>0</bpm>
<rpm>0.00</rpm>
</extensions>
</trkpt>
<trkpt lat="64.223281860" lon="-20.612276077">
<ele>66.906250</ele>
<time>2012-07-19T16:57:46Z</time>
<speed>4.900000</speed>
<extensions>
<speed>4.9</speed>
<temp>0.00</temp>
<bpm>0</bpm>
<rpm>0.00</rpm>
</extensions>
</trkpt>
<trkpt lat="64.223373413" lon="-20.611806870">
<ele>67.541016</ele>
<time>2012-07-19T16:57:51Z</time>
<speed>5.030000</speed>
<extensions>
<speed>5.0</speed>
<temp>0.00</temp>
<bpm>0</bpm>
<rpm>0.00</rpm>
</extensions>
</trkpt>
<trkpt lat="64.223472595" lon="-20.611352921">
<ele>68.236328</ele>
<time>2012-07-19T16:57:56Z</time>
<speed>4.900000</speed>
<extensions>
<speed>4.9</speed>
<temp>0.00</temp>
<bpm>0</bpm>
<rpm>0.00</rpm>
</extensions>
</trkpt>
<trkpt lat="64.223587036" lon="-20.610900879">
<ele>68.703125</ele>
<time>2012-07-19T16:58:01Z</time>
<speed>4.800000</speed>
<extensions>
<speed>4.8</speed>
<temp>0.00</temp>
<bpm>0</bpm>
<rpm>0.00</rpm>
</extensions>
</trkpt>
<trkpt lat="64.223701477" lon="-20.610523224">
<ele>69.365234</ele>
<time>2012-07-19T16:58:06Z</time>
<speed>4.350000</speed>
<extensions>
<speed>4.3</speed>
<temp>0.00</temp>
<bpm>0</bpm>
<rpm>0.00</rpm>
</extensions>
</trkpt>
<trkpt lat="64.223815918" lon="-20.610157013">
<ele>69.605469</ele>
<time>2012-07-19T16:58:11Z</time>
<speed>4.560000</speed>
<extensions>
<speed>4.6</speed>
<temp>0.00</temp>
<bpm>0</bpm>
<rpm>0.00</rpm>
</extensions>
</trkpt>
<trkpt lat="64.223945618" lon="-20.609754562">
<ele>69.421875</ele>
<time>2012-07-19T16:58:16Z</time>
<speed>4.910000</speed>
<extensions>
<speed>4.9</speed>
<temp>0.00</temp>
<bpm>0</bpm>
<rpm>0.00</rpm>
</extensions>
</trkpt>
<trkpt lat="64.224067688" lon="-20.609333038">
<ele>69.876953</ele>
<time>2012-07-19T16:58:21Z</time>
<speed>5.180000</speed>
<extensions>
<speed>5.2</speed>
<temp>0.00</temp>
<bpm>0</bpm>
<rpm>0.00</rpm>
</extensions>
</trkpt>
<trkpt lat="64.224205017" lon="-20.608911514">
<ele>70.423828</ele>
<time>2012-07-19T16:58:26Z</time>
<speed>5.180000</speed>
<extensions>
<speed>5.2</speed>
<temp>0.00</temp>
<bpm>0</bpm>
<rpm>0.00</rpm>
</extensions>
</trkpt>
<trkpt lat="64.224342346" lon="-20.608469009">
<ele>70.857422</ele>
<time>2012-07-19T16:58:31Z</time>
<speed>5.370000</speed>
<extensions>
<speed>5.4</speed>
<temp>0.00</temp>
<bpm>0</bpm>
<rpm>0.00</rpm>
</extensions>
</trkpt>
<trkpt lat="64.224487305" lon="-20.608001709">
<ele>71.500000</ele>
<time>2012-07-19T16:58:36Z</time>
<speed>5.440000</speed>
<extensions>
<speed>5.4</speed>
<temp>0.00</temp>
<bpm>0</bpm>
<rpm>0.00</rpm>
</extensions>
</trkpt>
<trkpt lat="64.224624634" lon="-20.607542038">
<ele>72.068359</ele>
<time>2012-07-19T16:58:41Z</time>
<speed>5.360000</speed>
<extensions>
<speed>5.4</speed>
<temp>0.00</temp>
<bpm>0</bpm>
<rpm>0.00</rpm>
</extensions>
</trkpt>
<trkpt lat="64.224761963" lon="-20.607110977">
<ele>72.468750</ele>
<time>2012-07-19T16:58:46Z</time>
<speed>5.120000</speed>
<extensions>
<speed>5.1</speed>
<temp>0.00</temp>
<bpm>0</bpm>
<rpm>0.00</rpm>
</extensions>
</trkpt>
<trkpt lat="64.224906921" lon="-20.606672287">
<ele>73.259766</ele>
<time>2012-07-19T16:58:51Z</time>
<speed>5.120000</speed>
<extensions>
<speed>5.1</speed>
<temp>0.00</temp>
<bpm>0</bpm>
<rpm>0.00</rpm>
</extensions>
</trkpt>
<trkpt lat="64.225013733" lon="-20.606309891">
<ele>73.906250</ele>
<time>2012-07-19T16:58:56Z</time>
<speed>4.150000</speed>
<extensions>
<speed>4.1</speed>
<temp>0.00</temp>
<bpm>0</bpm>
<rpm>0.00</rpm>
</extensions>
</trkpt>
<trkpt lat="64.225120544" lon="-20.605943680">
<ele>74.599609</ele>
<time>2012-07-19T16:59:01Z</time>
<speed>4.480000</speed>
<extensions>
<speed>4.5</speed>
<temp>0.00</temp>
<bpm>0</bpm>
<rpm>0.00</rpm>
</extensions>
</trkpt>
<trkpt lat="64.225212097" lon="-20.605583191">
<ele>74.082031</ele>
<time>2012-07-19T16:59:06Z</time>
<speed>3.380000</speed>
<extensions>
<speed>3.4</speed>
<temp>0.00</temp>
<bpm>0</bpm>
<rpm>0.00</rpm>
</extensions>
</trkpt>
<trkpt lat="64.225303650" lon="-20.605237961">
<ele>74.416016</ele>
<time>2012-07-19T16:59:11Z</time>
<speed>4.070000</speed>
<extensions>
<speed>4.1</speed>
<temp>0.00</temp>
<bpm>0</bpm>
<rpm>0.00</rpm>
</extensions>
</trkpt>
<trkpt lat="64.225395203" lon="-20.604829788">
<ele>75.037109</ele>
<time>2012-07-19T16:59:16Z</time>
<speed>4.780000</speed>
<extensions>
<speed>4.8</speed>
<temp>0.00</temp>
<bpm>0</bpm>
<rpm>0.00</rpm>
</extensions>
</trkpt>
<trkpt lat="64.225486755" lon="-20.604351044">
<ele>76.132813</ele>
<time>2012-07-19T16:59:21Z</time>
<speed>5.170000</speed>
<extensions>
<speed>5.2</speed>
<temp>0.00</temp>
<bpm>0</bpm>
<rpm>0.00</rpm>
</extensions>
</trkpt>
<trkpt lat="64.225555420" lon="-20.603887558">
<ele>77.509766</ele>
<time>2012-07-19T16:59:26Z</time>
<speed>4.440000</speed>
<extensions>
<speed>4.4</speed>
<temp>0.00</temp>
<bpm>0</bpm>
<rpm>0.00</rpm>
</extensions>
</trkpt>
<trkpt lat="64.225616455" lon="-20.603446960">
<ele>76.980469</ele>
<time>2012-07-19T16:59:31Z</time>
<speed>4.780000</speed>
<extensions>
<speed>4.8</speed>
<temp>0.00</temp>
<bpm>0</bpm>
<rpm>0.00</rpm>
</extensions>
</trkpt>
<trkpt lat="64.225669861" lon="-20.602931976">
<ele>77.177734</ele>
<time>2012-07-19T16:59:36Z</time>
<speed>5.520000</speed>
<extensions>
<speed>5.5</speed>
<temp>0.00</temp>
<bpm>0</bpm>
<rpm>0.00</rpm>
</extensions>
</trkpt>
<trkpt lat="64.225715637" lon="-20.602319717">
<ele>76.716797</ele>
<time>2012-07-19T16:59:41Z</time>
<speed>6.190000</speed>
<extensions>
<speed>6.2</speed>
<temp>0.00</temp>
<bpm>0</bpm>
<rpm>0.00</rpm>
</extensions>
</trkpt>
<trkpt lat="64.225738525" lon="-20.601636887">
<ele>76.167969</ele>
<time>2012-07-19T16:59:46Z</time>
<speed>6.810000</speed>
<extensions>
<speed>6.8</speed>
<temp>0.00</temp>
<bpm>0</bpm>
<rpm>0.00</rpm>
</extensions>
</trkpt>
<trkpt lat="64.225746155" lon="-20.600915909">
<ele>74.957031</ele>
<time>2012-07-19T16:59:51Z</time>
<speed>6.940000</speed>
<extensions>
<speed>6.9</speed>
<temp>0.00</temp>
<bpm>0</bpm>
<rpm>0.00</rpm>
</extensions>
</trkpt>
<trkpt lat="64.225730896" lon="-20.600219727">
<ele>73.878906</ele>
<time>2012-07-19T16:59:56Z</time>
<speed>6.170000</speed>
<extensions>
<speed>6.2</speed>
<temp>0.00</temp>
<bpm>0</bpm>
<rpm>0.00</rpm>
</extensions>
</trkpt>
<trkpt lat="64.225692749" lon="-20.599580765">
<ele>72.886719</ele>
<time>2012-07-19T17:00:01Z</time>
<speed>6.400000</speed>
<extensions>
<speed>6.4</speed>
<temp>0.00</temp>
<bpm>0</bpm>
<rpm>0.00</rpm>
</extensions>
</trkpt>
<trkpt lat="64.225654602" lon="-20.598915100">
<ele>71.642578</ele>
<time>2012-07-19T17:00:06Z</time>
<speed>6.470000</speed>
<extensions>
<speed>6.5</speed>
<temp>0.00</temp>
<bpm>0</bpm>
<rpm>0.00</rpm>
</extensions>
</trkpt>
<trkpt lat="64.225608826" lon="-20.598268509">
<ele>71.099609</ele>
<time>2012-07-19T17:00:11Z</time>
<speed>6.210000</speed>
<extensions>
<speed>6.2</speed>
<temp>0.00</temp>
<bpm>0</bpm>
<rpm>0.00</rpm>
</extensions>
</trkpt>
<trkpt lat="64.225563049" lon="-20.597637177">
<ele>70.976563</ele>
<time>2012-07-19T17:00:16Z</time>
<speed>6.230000</speed>
<extensions>
<speed>6.2</speed>
<temp>0.00</temp>
<bpm>0</bpm>
<rpm>0.00</rpm>
</extensions>
</trkpt>
<trkpt lat="64.225517273" lon="-20.597000122">
<ele>70.345703</ele>
<time>2012-07-19T17:00:21Z</time>
<speed>6.230000</speed>
<extensions>
<speed>6.2</speed>
<temp>0.00</temp>
<bpm>0</bpm>
<rpm>0.00</rpm>
</extensions>
</trkpt>
<trkpt lat="64.225471497" lon="-20.596370697">
<ele>69.914063</ele>
<time>2012-07-19T17:00:26Z</time>
<speed>6.270000</speed>
<extensions>
<speed>6.3</speed>
<temp>0.00</temp>
<bpm>0</bpm>
<rpm>0.00</rpm>
</extensions>
</trkpt>
<trkpt lat="64.225440979" lon="-20.595727921">
<ele>69.236328</ele>
<time>2012-07-19T17:00:31Z</time>
<speed>6.210000</speed>
<extensions>
<speed>6.2</speed>
<temp>0.00</temp>
<bpm>0</bpm>
<rpm>0.00</rpm>
</extensions>
</trkpt>
<trkpt lat="64.225387573" lon="-20.595081329">
<ele>68.791016</ele>
<time>2012-07-19T17:00:36Z</time>
<speed>6.480000</speed>
<extensions>
<speed>6.5</speed>
<temp>0.00</temp>
<bpm>0</bpm>
<rpm>0.00</rpm>
</extensions>
</trkpt>
<trkpt lat="64.225334167" lon="-20.594413757">
<ele>68.652344</ele>
<time>2012-07-19T17:00:41Z</time>
<speed>6.590000</speed>
<extensions>
<speed>6.6</speed>
<temp>0.00</temp>
<bpm>0</bpm>
<rpm>0.00</rpm>
</extensions>
</trkpt>
<trkpt lat="64.225288391" lon="-20.593765259">
<ele>68.089844</ele>
<time>2012-07-19T17:00:46Z</time>
<speed>6.440000</speed>
<extensions>
<speed>6.4</speed>
<temp>0.00</temp>
<bpm>0</bpm>
<rpm>0.00</rpm>
</extensions>
</trkpt>
<trkpt lat="64.225242615" lon="-20.593118668">
<ele>68.123047</ele>
<time>2012-07-19T17:00:51Z</time>
<speed>6.280000</speed>
<extensions>
<speed>6.3</speed>
<temp>0.00</temp>
<bpm>0</bpm>
<rpm>0.00</rpm>
</extensions>
</trkpt>
<trkpt lat="64.225196838" lon="-20.592565536">
<ele>68.242188</ele>
<time>2012-07-19T17:00:56Z</time>
<speed>5.060000</speed>
<extensions>
<speed>5.1</speed>
<temp>0.00</temp>
<bpm>0</bpm>
<rpm>0.00</rpm>
</extensions>
</trkpt>
<trkpt lat="64.225158691" lon="-20.592077255">
<ele>68.007813</ele>
<time>2012-07-19T17:01:01Z</time>
<speed>4.830000</speed>
<extensions>
<speed>4.8</speed>
<temp>0.00</temp>
<bpm>0</bpm>
<rpm>0.00</rpm>
</extensions>
</trkpt>
<trkpt lat="64.225120544" lon="-20.591588974">
<ele>68.083984</ele>
<time>2012-07-19T17:01:06Z</time>
<speed>4.730000</speed>
<extensions>
<speed>4.7</speed>
<temp>0.00</temp>
<bpm>0</bpm>
<rpm>0.00</rpm>
</extensions>
</trkpt>
<trkpt lat="64.225082397" lon="-20.591136932">
<ele>68.447266</ele>
<time>2012-07-19T17:01:11Z</time>
<speed>4.540000</speed>
<extensions>
<speed>4.5</speed>
<temp>0.00</temp>
<bpm>0</bpm>
<rpm>0.00</rpm>
</extensions>
</trkpt>
<trkpt lat="64.225051880" lon="-20.590681076">
<ele>70.113281</ele>
<time>2012-07-19T17:01:16Z</time>
<speed>4.570000</speed>
<extensions>
<speed>4.6</speed>
<temp>0.00</temp>
<bpm>0</bpm>
<rpm>0.00</rpm>
</extensions>
</trkpt>
<trkpt lat="64.225013733" lon="-20.590221405">
<ele>70.285156</ele>
<time>2012-07-19T17:01:21Z</time>
<speed>4.460000</speed>
<extensions>
<speed>4.5</speed>
<temp>0.00</temp>
<bpm>0</bpm>
<rpm>0.00</rpm>
</extensions>
</trkpt>
<trkpt lat="64.224998474" lon="-20.589782715">
<ele>70.470703</ele>
<time>2012-07-19T17:01:26Z</time>
<speed>4.610000</speed>
<extensions>
<speed>4.6</speed>
<temp>0.00</temp>
<bpm>0</bpm>
<rpm>0.00</rpm>
</extensions>
</trkpt>
<trkpt lat="64.224967957" lon="-20.589365005">
<ele>70.605469</ele>
<time>2012-07-19T17:01:31Z</time>
<speed>4.010000</speed>
<extensions>
<speed>4.0</speed>
<temp>0.00</temp>
<bpm>0</bpm>
<rpm>0.00</rpm>
</extensions>
</trkpt>
<trkpt lat="64.224929810" lon="-20.588951111">
<ele>70.863281</ele>
<time>2012-07-19T17:01:36Z</time>
<speed>3.710000</speed>
<extensions>
<speed>3.7</speed>
<temp>0.00</temp>
<bpm>0</bpm>
<rpm>0.00</rpm>
</extensions>
</trkpt>
<trkpt lat="64.224891663" lon="-20.588527679">
<ele>71.496094</ele>
<time>2012-07-19T17:01:41Z</time>
<speed>4.300000</speed>
<extensions>
<speed>4.3</speed>
<temp>0.00</temp>
<bpm>0</bpm>
<rpm>0.00</rpm>
</extensions>
</trkpt>
<trkpt lat="64.224861145" lon="-20.588127136">
<ele>71.759766</ele>
<time>2012-07-19T17:01:46Z</time>
<speed>3.780000</speed>
<extensions>
<speed>3.8</speed>
<temp>0.00</temp>
<bpm>0</bpm>
<rpm>0.00</rpm>
</extensions>
</trkpt>
<trkpt lat="64.224838257" lon="-20.587747574">
<ele>71.988281</ele>
<time>2012-07-19T17:01:51Z</time>
<speed>3.680000</speed>
<extensions>
<speed>3.7</speed>
<temp>0.00</temp>
<bpm>0</bpm>
<rpm>0.00</rpm>
</extensions>
</trkpt>
<trkpt lat="64.224800110" lon="-20.587368011">
<ele>73.457031</ele>
<time>2012-07-19T17:01:56Z</time>
<speed>4.060000</speed>
<extensions>
<speed>4.1</speed>
<temp>0.00</temp>
<bpm>0</bpm>
<rpm>0.00</rpm>
</extensions>
</trkpt>
<trkpt lat="64.224777222" lon="-20.586957932">
<ele>73.412109</ele>
<time>2012-07-19T17:02:01Z</time>
<speed>4.010000</speed>
<extensions>
<speed>4.0</speed>
<temp>0.00</temp>
<bpm>0</bpm>
<rpm>0.00</rpm>
</extensions>
</trkpt>
<trkpt lat="64.224746704" lon="-20.586551666">
<ele>73.572266</ele>
<time>2012-07-19T17:02:06Z</time>
<speed>3.790000</speed>
<extensions>
<speed>3.8</speed>
<temp>0.00</temp>
<bpm>0</bpm>
<rpm>0.00</rpm>
</extensions>
</trkpt>
<trkpt lat="64.224723816" lon="-20.586172104">
<ele>73.205078</ele>
<time>2012-07-19T17:02:11Z</time>
<speed>3.880000</speed>
<extensions>
<speed>3.9</speed>
<temp>0.00</temp>
<bpm>0</bpm>
<rpm>0.00</rpm>
</extensions>
</trkpt>
<trkpt lat="64.224700928" lon="-20.585798264">
<ele>73.367188</ele>
<time>2012-07-19T17:02:16Z</time>
<speed>3.610000</speed>
<extensions>
<speed>3.6</speed>
<temp>0.00</temp>
<bpm>0</bpm>
<rpm>0.00</rpm>
</extensions>
</trkpt>
<trkpt lat="64.224662781" lon="-20.585447311">
<ele>74.681641</ele>
<time>2012-07-19T17:02:21Z</time>
<speed>3.420000</speed>
<extensions>
<speed>3.4</speed>
<temp>0.00</temp>
<bpm>0</bpm>
<rpm>0.00</rpm>
</extensions>
</trkpt>
<trkpt lat="64.224655151" lon="-20.585048676">
<ele>74.916016</ele>
<time>2012-07-19T17:02:26Z</time>
<speed>3.890000</speed>
<extensions>
<speed>3.9</speed>
<temp>0.00</temp>
<bpm>0</bpm>
<rpm>0.00</rpm>
</extensions>
</trkpt>
<trkpt lat="64.224632263" lon="-20.584636688">
<ele>74.992188</ele>
<time>2012-07-19T17:02:31Z</time>
<speed>4.030000</speed>
<extensions>
<speed>4.0</speed>
<temp>0.00</temp>
<bpm>0</bpm>
<rpm>0.00</rpm>
</extensions>
</trkpt>
<trkpt lat="64.224624634" lon="-20.584213257">
<ele>75.271484</ele>
<time>2012-07-19T17:02:36Z</time>
<speed>4.450000</speed>
<extensions>
<speed>4.5</speed>
<temp>0.00</temp>
<bpm>0</bpm>
<rpm>0.00</rpm>
</extensions>
</trkpt>
<trkpt lat="64.224609375" lon="-20.583749771">
<ele>75.515625</ele>
<time>2012-07-19T17:02:41Z</time>
<speed>4.740000</speed>
<extensions>
<speed>4.7</speed>
<temp>0.00</temp>
<bpm>0</bpm>
<rpm>0.00</rpm>
</extensions>
</trkpt>
<trkpt lat="64.224601746" lon="-20.583229065">
<ele>75.464844</ele>
<time>2012-07-19T17:02:46Z</time>
<speed>4.980000</speed>
<extensions>
<speed>5.0</speed>
<temp>0.00</temp>
<bpm>0</bpm>
<rpm>0.00</rpm>
</extensions>
</trkpt>
<trkpt lat="64.224601746" lon="-20.582691193">
<ele>75.253906</ele>
<time>2012-07-19T17:02:51Z</time>
<speed>5.140000</speed>
<extensions>
<speed>5.1</speed>
<temp>0.00</temp>
<bpm>0</bpm>
<rpm>0.00</rpm>
</extensions>
</trkpt>
<trkpt lat="64.224609375" lon="-20.582162857">
<ele>74.535156</ele>
<time>2012-07-19T17:02:56Z</time>
<speed>5.180000</speed>
<extensions>
<speed>5.2</speed>
<temp>0.00</temp>
<bpm>0</bpm>
<rpm>0.00</rpm>
</extensions>
</trkpt>
<trkpt lat="64.224624634" lon="-20.581575394">
<ele>73.916016</ele>
<time>2012-07-19T17:03:01Z</time>
<speed>5.910000</speed>
<extensions>
<speed>5.9</speed>
<temp>0.00</temp>
<bpm>0</bpm>
<rpm>0.00</rpm>
</extensions>
</trkpt>
<trkpt lat="64.224639893" lon="-20.580974579">
<ele>73.759766</ele>
<time>2012-07-19T17:03:06Z</time>
<speed>5.530000</speed>
<extensions>
<speed>5.5</speed>
<temp>0.00</temp>
<bpm>0</bpm>
<rpm>0.00</rpm>
</extensions>
</trkpt>
<trkpt lat="64.224662781" lon="-20.580436707">
<ele>73.906250</ele>
<time>2012-07-19T17:03:11Z</time>
<speed>4.840000</speed>
<extensions>
<speed>4.8</speed>
<temp>0.00</temp>
<bpm>0</bpm>
<rpm>0.00</rpm>
</extensions>
</trkpt>
<trkpt lat="64.224693298" lon="-20.579895020">
<ele>75.417969</ele>
<time>2012-07-19T17:03:16Z</time>
<speed>5.640000</speed>
<extensions>
<speed>5.6</speed>
<temp>0.00</temp>
<bpm>0</bpm>
<rpm>0.00</rpm>
</extensions>
</trkpt>
<trkpt lat="64.224739075" lon="-20.579284668">
<ele>75.412109</ele>
<time>2012-07-19T17:03:21Z</time>
<speed>5.830000</speed>
<extensions>
<speed>5.8</speed>
<temp>0.00</temp>
<bpm>0</bpm>
<rpm>0.00</rpm>
</extensions>
</trkpt>
<trkpt lat="64.224784851" lon="-20.578680038">
<ele>74.474609</ele>
<time>2012-07-19T17:03:26Z</time>
<speed>5.770000</speed>
<extensions>
<speed>5.8</speed>
<temp>0.00</temp>
<bpm>0</bpm>
<rpm>0.00</rpm>
</extensions>
</trkpt>
<trkpt lat="64.224845886" lon="-20.578113556">
<ele>75.052734</ele>
<time>2012-07-19T17:03:31Z</time>
<speed>5.500000</speed>
<extensions>
<speed>5.5</speed>
<temp>0.00</temp>
<bpm>0</bpm>
<rpm>0.00</rpm>
</extensions>
</trkpt>
<trkpt lat="64.224899292" lon="-20.577562332">
<ele>75.900391</ele>
<time>2012-07-19T17:03:36Z</time>
<speed>5.510000</speed>
<extensions>
<speed>5.5</speed>
<temp>0.00</temp>
<bpm>0</bpm>
<rpm>0.00</rpm>
</extensions>
</trkpt>
<trkpt lat="64.224960327" lon="-20.577039719">
<ele>77.294922</ele>
<time>2012-07-19T17:03:41Z</time>
<speed>5.220000</speed>
<extensions>
<speed>5.2</speed>
<temp>0.00</temp>
<bpm>0</bpm>
<rpm>0.00</rpm>
</extensions>
</trkpt>
<trkpt lat="64.225028992" lon="-20.576530457">
<ele>77.228516</ele>
<time>2012-07-19T17:03:46Z</time>
<speed>5.020000</speed>
<extensions>
<speed>5.0</speed>
<temp>0.00</temp>
<bpm>0</bpm>
<rpm>0.00</rpm>
</extensions>
</trkpt>
<trkpt lat="64.225112915" lon="-20.576009750">
<ele>75.773438</ele>
<time>2012-07-19T17:03:51Z</time>
<speed>5.050000</speed>
<extensions>
<speed>5.1</speed>
<temp>0.00</temp>
<bpm>0</bpm>
<rpm>0.00</rpm>
</extensions>
</trkpt>
<trkpt lat="64.225196838" lon="-20.575553894">
<ele>76.476563</ele>
<time>2012-07-19T17:03:56Z</time>
<speed>4.850000</speed>
<extensions>
<speed>4.8</speed>
<temp>0.00</temp>
<bpm>0</bpm>
<rpm>0.00</rpm>
</extensions>
</trkpt>
<trkpt lat="64.225288391" lon="-20.575126648">
<ele>77.998047</ele>
<time>2012-07-19T17:04:01Z</time>
<speed>4.610000</speed>
<extensions>
<speed>4.6</speed>
<temp>0.00</temp>
<bpm>0</bpm>
<rpm>0.00</rpm>
</extensions>
</trkpt>
<trkpt lat="64.225372314" lon="-20.574724197">
<ele>79.732422</ele>
<time>2012-07-19T17:04:06Z</time>
<speed>4.590000</speed>
<extensions>
<speed>4.6</speed>
<temp>0.00</temp>
<bpm>0</bpm>
<rpm>0.00</rpm>
</extensions>
</trkpt>
<trkpt lat="64.225479126" lon="-20.574298859">
<ele>79.058594</ele>
<time>2012-07-19T17:04:11Z</time>
<speed>4.490000</speed>
<extensions>
<speed>4.5</speed>
<temp>0.00</temp>
<bpm>0</bpm>
<rpm>0.00</rpm>
</extensions>
</trkpt>
<trkpt lat="64.225570679" lon="-20.573930740">
<ele>80.285156</ele>
<time>2012-07-19T17:04:16Z</time>
<speed>4.220000</speed>
<extensions>
<speed>4.2</speed>
<temp>0.00</temp>
<bpm>0</bpm>
<rpm>0.00</rpm>
</extensions>
</trkpt>
<trkpt lat="64.225685120" lon="-20.573556900">
<ele>81.027344</ele>
<time>2012-07-19T17:04:21Z</time>
<speed>4.480000</speed>
<extensions>
<speed>4.5</speed>
<temp>0.00</temp>
<bpm>0</bpm>
<rpm>0.00</rpm>
</extensions>
</trkpt>
<trkpt lat="64.225814819" lon="-20.573183060">
<ele>81.253906</ele>
<time>2012-07-19T17:04:26Z</time>
<speed>4.580000</speed>
<extensions>
<speed>4.6</speed>
<temp>0.00</temp>
<bpm>0</bpm>
<rpm>0.00</rpm>
</extensions>
</trkpt>
<trkpt lat="64.225944519" lon="-20.572801590">
<ele>81.064453</ele>
<time>2012-07-19T17:04:31Z</time>
<speed>4.800000</speed>
<extensions>
<speed>4.8</speed>
<temp>0.00</temp>
<bpm>0</bpm>
<rpm>0.00</rpm>
</extensions>
</trkpt>
<trkpt lat="64.226081848" lon="-20.572420120">
<ele>80.533203</ele>
<time>2012-07-19T17:04:36Z</time>
<speed>4.840000</speed>
<extensions>
<speed>4.8</speed>
<temp>0.00</temp>
<bpm>0</bpm>
<rpm>0.00</rpm>
</extensions>
</trkpt>
<trkpt lat="64.226234436" lon="-20.572063446">
<ele>81.199219</ele>
<time>2012-07-19T17:04:41Z</time>
<speed>4.700000</speed>
<extensions>
<speed>4.7</speed>
<temp>0.00</temp>
<bpm>0</bpm>
<rpm>0.00</rpm>
</extensions>
</trkpt>
<trkpt lat="64.226402283" lon="-20.571746826">
<ele>81.873047</ele>
<time>2012-07-19T17:04:46Z</time>
<speed>4.740000</speed>
<extensions>
<speed>4.7</speed>
<temp>0.00</temp>
<bpm>0</bpm>
<rpm>0.00</rpm>
</extensions>
</trkpt>
<trkpt lat="64.226570129" lon="-20.571437836">
<ele>82.496094</ele>
<time>2012-07-19T17:04:51Z</time>
<speed>5.010000</speed>
<extensions>
<speed>5.0</speed>
<temp>0.00</temp>
<bpm>0</bpm>
<rpm>0.00</rpm>
</extensions>
</trkpt>
<trkpt lat="64.226753235" lon="-20.571128845">
<ele>82.066406</ele>
<time>2012-07-19T17:04:56Z</time>
<speed>5.140000</speed>
<extensions>
<speed>5.1</speed>
<temp>0.00</temp>
<bpm>0</bpm>
<rpm>0.00</rpm>
</extensions>
</trkpt>
<trkpt lat="64.226943970" lon="-20.570831299">
<ele>82.369141</ele>
<time>2012-07-19T17:05:01Z</time>
<speed>5.140000</speed>
<extensions>
<speed>5.1</speed>
<temp>0.00</temp>
<bpm>0</bpm>
<rpm>0.00</rpm>
</extensions>
</trkpt>
<trkpt lat="64.227142334" lon="-20.570562363">
<ele>82.212891</ele>
<time>2012-07-19T17:05:06Z</time>
<speed>5.080000</speed>
<extensions>
<speed>5.1</speed>
<temp>0.00</temp>
<bpm>0</bpm>
<rpm>0.00</rpm>
</extensions>
</trkpt>
<trkpt lat="64.227340698" lon="-20.570306778">
<ele>81.914063</ele>
<time>2012-07-19T17:05:11Z</time>
<speed>5.110000</speed>
<extensions>
<speed>5.1</speed>
<temp>0.00</temp>
<bpm>0</bpm>
<rpm>0.00</rpm>
</extensions>
</trkpt>
<trkpt lat="64.227554321" lon="-20.570081711">
<ele>81.720703</ele>
<time>2012-07-19T17:05:16Z</time>
<speed>5.200000</speed>
<extensions>
<speed>5.2</speed>
<temp>0.00</temp>
<bpm>0</bpm>
<rpm>0.00</rpm>
</extensions>
</trkpt>
<trkpt lat="64.227767944" lon="-20.569839478">
<ele>82.277344</ele>
<time>2012-07-19T17:05:21Z</time>
<speed>5.390000</speed>
<extensions>
<speed>5.4</speed>
<temp>0.00</temp>
<bpm>0</bpm>
<rpm>0.00</rpm>
</extensions>
</trkpt>
<trkpt lat="64.227989197" lon="-20.569616318">
<ele>82.435547</ele>
<time>2012-07-19T17:05:26Z</time>
<speed>5.020000</speed>
<extensions>
<speed>5.0</speed>
<temp>0.00</temp>
<bpm>0</bpm>
<rpm>0.00</rpm>
</extensions>
</trkpt>
<trkpt lat="64.228172302" lon="-20.569410324">
<ele>81.982422</ele>
<time>2012-07-19T17:05:31Z</time>
<speed>4.910000</speed>
<extensions>
<speed>4.9</speed>
<temp>0.00</temp>
<bpm>0</bpm>
<rpm>0.00</rpm>
</extensions>
</trkpt>
<trkpt lat="64.228378296" lon="-20.569169998">
<ele>81.476563</ele>
<time>2012-07-19T17:05:36Z</time>
<speed>5.510000</speed>
<extensions>
<speed>5.5</speed>
<temp>0.00</temp>
<bpm>0</bpm>
<rpm>0.00</rpm>
</extensions>
</trkpt>
<trkpt lat="64.228591919" lon="-20.568939209">
<ele>81.318359</ele>
<time>2012-07-19T17:05:41Z</time>
<speed>4.910000</speed>
<extensions>
<speed>4.9</speed>
<temp>0.00</temp>
<bpm>0</bpm>
<rpm>0.00</rpm>
</extensions>
</trkpt>
<trkpt lat="64.228797913" lon="-20.568716049">
<ele>81.333984</ele>
<time>2012-07-19T17:05:46Z</time>
<speed>5.430000</speed>
<extensions>
<speed>5.4</speed>
<temp>0.00</temp>
<bpm>0</bpm>
<rpm>0.00</rpm>
</extensions>
</trkpt>
<trkpt lat="64.229026794" lon="-20.568466187">
<ele>82.669922</ele>
<time>2012-07-19T17:05:51Z</time>
<speed>5.480000</speed>
<extensions>
<speed>5.5</speed>
<temp>0.00</temp>
<bpm>0</bpm>
<rpm>0.00</rpm>
</extensions>
</trkpt>
<trkpt lat="64.229240417" lon="-20.568193436">
<ele>82.498047</ele>
<time>2012-07-19T17:05:56Z</time>
<speed>5.290000</speed>
<extensions>
<speed>5.3</speed>
<temp>0.00</temp>
<bpm>0</bpm>
<rpm>0.00</rpm>
</extensions>
</trkpt>
<trkpt lat="64.229461670" lon="-20.567911148">
<ele>82.382813</ele>
<time>2012-07-19T17:06:01Z</time>
<speed>5.930000</speed>
<extensions>
<speed>5.9</speed>
<temp>0.00</temp>
<bpm>0</bpm>
<rpm>0.00</rpm>
</extensions>
</trkpt>
<trkpt lat="64.229675293" lon="-20.567605972">
<ele>81.501953</ele>
<time>2012-07-19T17:06:06Z</time>
<speed>5.370000</speed>
<extensions>
<speed>5.4</speed>
<temp>0.00</temp>
<bpm>0</bpm>
<rpm>0.00</rpm>
</extensions>
</trkpt>
<trkpt lat="64.229904175" lon="-20.567304611">
<ele>81.462891</ele>
<time>2012-07-19T17:06:11Z</time>
<speed>6.200000</speed>
<extensions>
<speed>6.2</speed>
<temp>0.00</temp>
<bpm>0</bpm>
<rpm>0.00</rpm>
</extensions>
</trkpt>
<trkpt lat="64.230140686" lon="-20.566982269">
<ele>81.324219</ele>
<time>2012-07-19T17:06:16Z</time>
<speed>5.880000</speed>
<extensions>
<speed>5.9</speed>
<temp>0.00</temp>
<bpm>0</bpm>
<rpm>0.00</rpm>
</extensions>
</trkpt>
<trkpt lat="64.230354309" lon="-20.566669464">
<ele>80.742188</ele>
<time>2012-07-19T17:06:21Z</time>
<speed>5.740000</speed>
<extensions>
<speed>5.7</speed>
<temp>0.00</temp>
<bpm>0</bpm>
<rpm>0.00</rpm>
</extensions>
</trkpt>
<trkpt lat="64.230590820" lon="-20.566310883">
<ele>80.603516</ele>
<time>2012-07-19T17:06:26Z</time>
<speed>6.480000</speed>
<extensions>
<speed>6.5</speed>
<temp>0.00</temp>
<bpm>0</bpm>
<rpm>0.00</rpm>
</extensions>
</trkpt>
<trkpt lat="64.230827332" lon="-20.565938950">
<ele>80.910156</ele>
<time>2012-07-19T17:06:31Z</time>
<speed>6.100000</speed>
<extensions>
<speed>6.1</speed>
<temp>0.00</temp>
<bpm>0</bpm>
<rpm>0.00</rpm>
</extensions>
</trkpt>
<trkpt lat="64.231063843" lon="-20.565568924">
<ele>81.257813</ele>
<time>2012-07-19T17:06:36Z</time>
<speed>6.620000</speed>
<extensions>
<speed>6.6</speed>
<temp>0.00</temp>
<bpm>0</bpm>
<rpm>0.00</rpm>
</extensions>
</trkpt>
<trkpt lat="64.231323242" lon="-20.565166473">
<ele>81.042969</ele>
<time>2012-07-19T17:06:41Z</time>
<speed>6.780000</speed>
<extensions>
<speed>6.8</speed>
<temp>0.00</temp>
<bpm>0</bpm>
<rpm>0.00</rpm>
</extensions>
</trkpt>
<trkpt lat="64.231559753" lon="-20.564752579">
<ele>80.751953</ele>
<time>2012-07-19T17:06:46Z</time>
<speed>6.750000</speed>
<extensions>
<speed>6.7</speed>
<temp>0.00</temp>
<bpm>0</bpm>
<rpm>0.00</rpm>
</extensions>
</trkpt>
<trkpt lat="64.231803894" lon="-20.564321518">
<ele>81.503906</ele>
<time>2012-07-19T17:06:51Z</time>
<speed>6.790000</speed>
<extensions>
<speed>6.8</speed>
<temp>0.00</temp>
<bpm>0</bpm>
<rpm>0.00</rpm>
</extensions>
</trkpt>
<trkpt lat="64.232025146" lon="-20.563892365">
<ele>80.916016</ele>
<time>2012-07-19T17:06:56Z</time>
<speed>6.010000</speed>
<extensions>
<speed>6.0</speed>
<temp>0.00</temp>
<bpm>0</bpm>
<rpm>0.00</rpm>
</extensions>
</trkpt>
<trkpt lat="64.232223511" lon="-20.563497543">
<ele>80.570313</ele>
<time>2012-07-19T17:07:01Z</time>
<speed>6.250000</speed>
<extensions>
<speed>6.3</speed>
<temp>0.00</temp>
<bpm>0</bpm>
<rpm>0.00</rpm>
</extensions>
</trkpt>
<trkpt lat="64.232444763" lon="-20.563068390">
<ele>80.673828</ele>
<time>2012-07-19T17:07:06Z</time>
<speed>6.600000</speed>
<extensions>
<speed>6.6</speed>
<temp>0.00</temp>
<bpm>0</bpm>
<rpm>0.00</rpm>
</extensions>
</trkpt>
<trkpt lat="64.232666016" lon="-20.562614441">
<ele>80.738281</ele>
<time>2012-07-19T17:07:11Z</time>
<speed>6.710000</speed>
<extensions>
<speed>6.7</speed>
<temp>0.00</temp>
<bpm>0</bpm>
<rpm>0.00</rpm>
</extensions>
</trkpt>
<trkpt lat="64.232902527" lon="-20.562171936">
<ele>81.695313</ele>
<time>2012-07-19T17:07:16Z</time>
<speed>6.890000</speed>
<extensions>
<speed>6.9</speed>
<temp>0.00</temp>
<bpm>0</bpm>
<rpm>0.00</rpm>
</extensions>
</trkpt>
<trkpt lat="64.233139038" lon="-20.561725616">
<ele>82.464844</ele>
<time>2012-07-19T17:07:21Z</time>
<speed>6.470000</speed>
<extensions>
<speed>6.5</speed>
<temp>0.00</temp>
<bpm>0</bpm>
<rpm>0.00</rpm>
</extensions>
</trkpt>
<trkpt lat="64.233352661" lon="-20.561300278">
<ele>83.128906</ele>
<time>2012-07-19T17:07:26Z</time>
<speed>6.390000</speed>
<extensions>
<speed>6.4</speed>
<temp>0.00</temp>
<bpm>0</bpm>
<rpm>0.00</rpm>
</extensions>
</trkpt>
<trkpt lat="64.233566284" lon="-20.560882568">
<ele>84.134766</ele>
<time>2012-07-19T17:07:31Z</time>
<speed>6.090000</speed>
<extensions>
<speed>6.1</speed>
<temp>0.00</temp>
<bpm>0</bpm>
<rpm>0.00</rpm>
</extensions>
</trkpt>
<trkpt lat="64.233749390" lon="-20.560520172">
<ele>84.066406</ele>
<time>2012-07-19T17:07:36Z</time>
<speed>4.930000</speed>
<extensions>
<speed>4.9</speed>
<temp>0.00</temp>
<bpm>0</bpm>
<rpm>0.00</rpm>
</extensions>
</trkpt>
<trkpt lat="64.233917236" lon="-20.560197830">
<ele>84.763672</ele>
<time>2012-07-19T17:07:41Z</time>
<speed>5.130000</speed>
<extensions>
<speed>5.1</speed>
<temp>0.00</temp>
<bpm>0</bpm>
<rpm>0.00</rpm>
</extensions>
</trkpt>
<trkpt lat="64.234100342" lon="-20.559873581">
<ele>86.107422</ele>
<time>2012-07-19T17:07:46Z</time>
<speed>5.080000</speed>
<extensions>
<speed>5.1</speed>
<temp>0.00</temp>
<bpm>0</bpm>
<rpm>0.00</rpm>
</extensions>
</trkpt>
<trkpt lat="64.234268188" lon="-20.559514999">
<ele>85.542969</ele>
<time>2012-07-19T17:07:51Z</time>
<speed>5.110000</speed>
<extensions>
<speed>5.1</speed>
<temp>0.00</temp>
<bpm>0</bpm>
<rpm>0.00</rpm>
</extensions>
</trkpt>
<trkpt lat="64.234436035" lon="-20.559204102">
<ele>85.816406</ele>
<time>2012-07-19T17:07:56Z</time>
<speed>4.820000</speed>
<extensions>
<speed>4.8</speed>
<temp>0.00</temp>
<bpm>0</bpm>
<rpm>0.00</rpm>
</extensions>
</trkpt>
<trkpt lat="64.234580994" lon="-20.558889389">
<ele>85.404297</ele>
<time>2012-07-19T17:08:01Z</time>
<speed>4.380000</speed>
<extensions>
<speed>4.4</speed>
<temp>0.00</temp>
<bpm>0</bpm>
<rpm>0.00</rpm>
</extensions>
</trkpt>
<trkpt lat="64.234733582" lon="-20.558609009">
<ele>85.660156</ele>
<time>2012-07-19T17:08:06Z</time>
<speed>4.210000</speed>
<extensions>
<speed>4.2</speed>
<temp>0.00</temp>
<bpm>0</bpm>
<rpm>0.00</rpm>
</extensions>
</trkpt>
<trkpt lat="64.234878540" lon="-20.558340073">
<ele>86.044922</ele>
<time>2012-07-19T17:08:11Z</time>
<speed>4.090000</speed>
<extensions>
<speed>4.1</speed>
<temp>0.00</temp>
<bpm>0</bpm>
<rpm>0.00</rpm>
</extensions>
</trkpt>
<trkpt lat="64.235038757" lon="-20.558095932">
<ele>87.857422</ele>
<time>2012-07-19T17:08:16Z</time>
<speed>3.940000</speed>
<extensions>
<speed>3.9</speed>
<temp>0.00</temp>
<bpm>0</bpm>
<rpm>0.00</rpm>
</extensions>
</trkpt>
<trkpt lat="64.235176086" lon="-20.557846069">
<ele>88.412109</ele>
<time>2012-07-19T17:08:21Z</time>
<speed>4.180000</speed>
<extensions>
<speed>4.2</speed>
<temp>0.00</temp>
<bpm>0</bpm>
<rpm>0.00</rpm>
</extensions>
</trkpt>
<trkpt lat="64.235305786" lon="-20.557594299">
<ele>89.128906</ele>
<time>2012-07-19T17:08:26Z</time>
<speed>3.460000</speed>
<extensions>
<speed>3.5</speed>
<temp>0.00</temp>
<bpm>0</bpm>
<rpm>0.00</rpm>
</extensions>
</trkpt>
<trkpt lat="64.235435486" lon="-20.557359695">
<ele>89.443359</ele>
<time>2012-07-19T17:08:31Z</time>
<speed>4.110000</speed>
<extensions>
<speed>4.1</speed>
<temp>0.00</temp>
<bpm>0</bpm>
<rpm>0.00</rpm>
</extensions>
</trkpt>
<trkpt lat="64.235588074" lon="-20.557094574">
<ele>89.816406</ele>
<time>2012-07-19T17:08:36Z</time>
<speed>4.250000</speed>
<extensions>
<speed>4.3</speed>
<temp>0.00</temp>
<bpm>0</bpm>
<rpm>0.00</rpm>
</extensions>
</trkpt>
<trkpt lat="64.235710144" lon="-20.556800842">
<ele>87.835938</ele>
<time>2012-07-19T17:08:41Z</time>
<speed>3.980000</speed>
<extensions>
<speed>4.0</speed>
<temp>0.00</temp>
<bpm>0</bpm>
<rpm>0.00</rpm>
</extensions>
</trkpt>
<trkpt lat="64.235855103" lon="-20.556545258">
<ele>87.474609</ele>
<time>2012-07-19T17:08:46Z</time>
<speed>4.060000</speed>
<extensions>
<speed>4.1</speed>
<temp>0.00</temp>
<bpm>0</bpm>
<rpm>0.00</rpm>
</extensions>
</trkpt>
<trkpt lat="64.236000061" lon="-20.556289673">
<ele>87.775391</ele>
<time>2012-07-19T17:08:51Z</time>
<speed>4.020000</speed>
<extensions>
<speed>4.0</speed>
<temp>0.00</temp>
<bpm>0</bpm>
<rpm>0.00</rpm>
</extensions>
</trkpt>
<trkpt lat="64.236129761" lon="-20.556058884">
<ele>88.208984</ele>
<time>2012-07-19T17:08:56Z</time>
<speed>4.080000</speed>
<extensions>
<speed>4.1</speed>
<temp>0.00</temp>
<bpm>0</bpm>
<rpm>0.00</rpm>
</extensions>
</trkpt>
<trkpt lat="64.236274719" lon="-20.555807114">
<ele>88.890625</ele>
<time>2012-07-19T17:09:01Z</time>
<speed>3.490000</speed>
<extensions>
<speed>3.5</speed>
<temp>0.00</temp>
<bpm>0</bpm>
<rpm>0.00</rpm>
</extensions>
</trkpt>
<trkpt lat="64.236404419" lon="-20.555576324">
<ele>88.873047</ele>
<time>2012-07-19T17:09:06Z</time>
<speed>4.050000</speed>
<extensions>
<speed>4.0</speed>
<temp>0.00</temp>
<bpm>0</bpm>
<rpm>0.00</rpm>
</extensions>
</trkpt>
<trkpt lat="64.236557007" lon="-20.555339813">
<ele>90.390625</ele>
<time>2012-07-19T17:09:11Z</time>
<speed>4.120000</speed>
<extensions>
<speed>4.1</speed>
<temp>0.00</temp>
<bpm>0</bpm>
<rpm>0.00</rpm>
</extensions>
</trkpt>
<trkpt lat="64.236694336" lon="-20.555084229">
<ele>90.945313</ele>
<time>2012-07-19T17:09:16Z</time>
<speed>3.890000</speed>
<extensions>
<speed>3.9</speed>
<temp>0.00</temp>
<bpm>0</bpm>
<rpm>0.00</rpm>
</extensions>
</trkpt>
<trkpt lat="64.236831665" lon="-20.554838181">
<ele>91.572266</ele>
<time>2012-07-19T17:09:21Z</time>
<speed>4.150000</speed>
<extensions>
<speed>4.1</speed>
<temp>0.00</temp>
<bpm>0</bpm>
<rpm>0.00</rpm>
</extensions>
</trkpt>
<trkpt lat="64.236984253" lon="-20.554569244">
<ele>92.457031</ele>
<time>2012-07-19T17:09:26Z</time>
<speed>4.280000</speed>
<extensions>
<speed>4.3</speed>
<temp>0.00</temp>
<bpm>0</bpm>
<rpm>0.00</rpm>
</extensions>
</trkpt>
<trkpt lat="64.237136841" lon="-20.554296494">
<ele>92.964844</ele>
<time>2012-07-19T17:09:31Z</time>
<speed>4.000000</speed>
<extensions>
<speed>4.0</speed>
<temp>0.00</temp>
<bpm>0</bpm>
<rpm>0.00</rpm>
</extensions>
</trkpt>
<trkpt lat="64.237297058" lon="-20.554021835">
<ele>93.603516</ele>
<time>2012-07-19T17:09:36Z</time>
<speed>4.760000</speed>
<extensions>
<speed>4.8</speed>
<temp>0.00</temp>
<bpm>0</bpm>
<rpm>0.00</rpm>
</extensions>
</trkpt>
<trkpt lat="64.237480164" lon="-20.553726196">
<ele>94.605469</ele>
<time>2012-07-19T17:09:41Z</time>
<speed>4.590000</speed>
<extensions>
<speed>4.6</speed>
<temp>0.00</temp>
<bpm>0</bpm>
<rpm>0.00</rpm>
</extensions>
</trkpt>
<trkpt lat="64.237640381" lon="-20.553417206">
<ele>94.890625</ele>
<time>2012-07-19T17:09:46Z</time>
<speed>4.700000</speed>
<extensions>
<speed>4.7</speed>
<temp>0.00</temp>
<bpm>0</bpm>
<rpm>0.00</rpm>
</extensions>
</trkpt>
<trkpt lat="64.237808228" lon="-20.553100586">
<ele>94.662109</ele>
<time>2012-07-19T17:09:51Z</time>
<speed>5.020000</speed>
<extensions>
<speed>5.0</speed>
<temp>0.00</temp>
<bpm>0</bpm>
<rpm>0.00</rpm>
</extensions>
</trkpt>
<trkpt lat="64.237991333" lon="-20.552772522">
<ele>94.337891</ele>
<time>2012-07-19T17:09:56Z</time>
<speed>5.450000</speed>
<extensions>
<speed>5.5</speed>
<temp>0.00</temp>
<bpm>0</bpm>
<rpm>0.00</rpm>
</extensions>
</trkpt>
<trkpt lat="64.238174438" lon="-20.552398682">
<ele>93.982422</ele>
<time>2012-07-19T17:10:01Z</time>
<speed>5.190000</speed>
<extensions>
<speed>5.2</speed>
<temp>0.00</temp>
<bpm>0</bpm>
<rpm>0.00</rpm>
</extensions>
</trkpt>
<trkpt lat="64.238357544" lon="-20.552011490">
<ele>93.939453</ele>
<time>2012-07-19T17:10:06Z</time>
<speed>5.580000</speed>
<extensions>
<speed>5.6</speed>
<temp>0.00</temp>
<bpm>0</bpm>
<rpm>0.00</rpm>
</extensions>
</trkpt>
<trkpt lat="64.238533020" lon="-20.551565170">
<ele>93.443359</ele>
<time>2012-07-19T17:10:11Z</time>
<speed>6.240000</speed>
<extensions>
<speed>6.2</speed>
<temp>0.00</temp>
<bpm>0</bpm>
<rpm>0.00</rpm>
</extensions>
</trkpt>
<trkpt lat="64.238723755" lon="-20.551052094">
<ele>93.277344</ele>
<time>2012-07-19T17:10:16Z</time>
<speed>6.820000</speed>
<extensions>
<speed>6.8</speed>
<temp>0.00</temp>
<bpm>0</bpm>
<rpm>0.00</rpm>
</extensions>
</trkpt>
<trkpt lat="64.238906860" lon="-20.550470352">
<ele>93.105469</ele>
<time>2012-07-19T17:10:21Z</time>
<speed>6.910000</speed>
<extensions>
<speed>6.9</speed>
<temp>0.00</temp>
<bpm>0</bpm>
<rpm>0.00</rpm>
</extensions>
</trkpt>
<trkpt lat="64.239067078" lon="-20.549858093">
<ele>91.642578</ele>
<time>2012-07-19T17:10:26Z</time>
<speed>7.170000</speed>
<extensions>
<speed>7.2</speed>
<temp>0.00</temp>
<bpm>0</bpm>
<rpm>0.00</rpm>
</extensions>
</trkpt>
<trkpt lat="64.239234924" lon="-20.549171448">
<ele>90.222656</ele>
<time>2012-07-19T17:10:31Z</time>
<speed>7.750000</speed>
<extensions>
<speed>7.7</speed>
<temp>0.00</temp>
<bpm>0</bpm>
<rpm>0.00</rpm>
</extensions>
</trkpt>
<trkpt lat="64.239356995" lon="-20.548427582">
<ele>88.281250</ele>
<time>2012-07-19T17:10:36Z</time>
<speed>7.620000</speed>
<extensions>
<speed>7.6</speed>
<temp>0.00</temp>
<bpm>0</bpm>
<rpm>0.00</rpm>
</extensions>
</trkpt>
<trkpt lat="64.239463806" lon="-20.547660828">
<ele>86.412109</ele>
<time>2012-07-19T17:10:41Z</time>
<speed>7.530000</speed>
<extensions>
<speed>7.5</speed>
<temp>0.00</temp>
<bpm>0</bpm>
<rpm>0.00</rpm>
</extensions>
</trkpt>
<trkpt lat="64.239547729" lon="-20.546932220">
<ele>86.019531</ele>
<time>2012-07-19T17:10:46Z</time>
<speed>7.100000</speed>
<extensions>
<speed>7.1</speed>
<temp>0.00</temp>
<bpm>0</bpm>
<rpm>0.00</rpm>
</extensions>
</trkpt>
<trkpt lat="64.239608765" lon="-20.546211243">
<ele>85.994141</ele>
<time>2012-07-19T17:10:51Z</time>
<speed>7.270000</speed>
<extensions>
<speed>7.3</speed>
<temp>0.00</temp>
<bpm>0</bpm>
<rpm>0.00</rpm>
</extensions>
</trkpt>
<trkpt lat="64.239646912" lon="-20.545467377">
<ele>85.287109</ele>
<time>2012-07-19T17:10:56Z</time>
<speed>7.100000</speed>
<extensions>
<speed>7.1</speed>
<temp>0.00</temp>
<bpm>0</bpm>
<rpm>0.00</rpm>
</extensions>
</trkpt>
<trkpt lat="64.239677429" lon="-20.544755936">
<ele>84.949219</ele>
<time>2012-07-19T17:11:01Z</time>
<speed>6.900000</speed>
<extensions>
<speed>6.9</speed>
<temp>0.00</temp>
<bpm>0</bpm>
<rpm>0.00</rpm>
</extensions>
</trkpt>
<trkpt lat="64.239685059" lon="-20.544050217">
<ele>84.572266</ele>
<time>2012-07-19T17:11:06Z</time>
<speed>6.770000</speed>
<extensions>
<speed>6.8</speed>
<temp>0.00</temp>
<bpm>0</bpm>
<rpm>0.00</rpm>
</extensions>
</trkpt>
<trkpt lat="64.239692688" lon="-20.543365479">
<ele>84.341797</ele>
<time>2012-07-19T17:11:11Z</time>
<speed>6.740000</speed>
<extensions>
<speed>6.7</speed>
<temp>0.00</temp>
<bpm>0</bpm>
<rpm>0.00</rpm>
</extensions>
</trkpt>
<trkpt lat="64.239692688" lon="-20.542692184">
<ele>84.302734</ele>
<time>2012-07-19T17:11:16Z</time>
<speed>6.590000</speed>
<extensions>
<speed>6.6</speed>
<temp>0.00</temp>
<bpm>0</bpm>
<rpm>0.00</rpm>
</extensions>
</trkpt>
<trkpt lat="64.239700317" lon="-20.542018890">
<ele>84.085938</ele>
<time>2012-07-19T17:11:21Z</time>
<speed>6.340000</speed>
<extensions>
<speed>6.3</speed>
<temp>0.00</temp>
<bpm>0</bpm>
<rpm>0.00</rpm>
</extensions>
</trkpt>
<trkpt lat="64.239700317" lon="-20.541374207">
<ele>84.097656</ele>
<time>2012-07-19T17:11:26Z</time>
<speed>6.270000</speed>
<extensions>
<speed>6.3</speed>
<temp>0.00</temp>
<bpm>0</bpm>
<rpm>0.00</rpm>
</extensions>
</trkpt>
<trkpt lat="64.239707947" lon="-20.540716171">
<ele>83.767578</ele>
<time>2012-07-19T17:11:31Z</time>
<speed>6.210000</speed>
<extensions>
<speed>6.2</speed>
<temp>0.00</temp>
<bpm>0</bpm>
<rpm>0.00</rpm>
</extensions>
</trkpt>
<trkpt lat="64.239715576" lon="-20.540073395">
<ele>83.998047</ele>
<time>2012-07-19T17:11:36Z</time>
<speed>6.280000</speed>
<extensions>
<speed>6.3</speed>
<temp>0.00</temp>
<bpm>0</bpm>
<rpm>0.00</rpm>
</extensions>
</trkpt>
<trkpt lat="64.239723206" lon="-20.539436340">
<ele>83.902344</ele>
<time>2012-07-19T17:11:41Z</time>
<speed>6.310000</speed>
<extensions>
<speed>6.3</speed>
<temp>0.00</temp>
<bpm>0</bpm>
<rpm>0.00</rpm>
</extensions>
</trkpt>
<trkpt lat="64.239730835" lon="-20.538774490">
<ele>83.775391</ele>
<time>2012-07-19T17:11:46Z</time>
<speed>6.390000</speed>
<extensions>
<speed>6.4</speed>
<temp>0.00</temp>
<bpm>0</bpm>
<rpm>0.00</rpm>
</extensions>
</trkpt>
<trkpt lat="64.239738464" lon="-20.538125992">
<ele>83.558594</ele>
<time>2012-07-19T17:11:51Z</time>
<speed>5.890000</speed>
<extensions>
<speed>5.9</speed>
<temp>0.00</temp>
<bpm>0</bpm>
<rpm>0.00</rpm>
</extensions>
</trkpt>
<trkpt lat="64.239746094" lon="-20.537528992">
<ele>83.214844</ele>
<time>2012-07-19T17:11:56Z</time>
<speed>5.880000</speed>
<extensions>
<speed>5.9</speed>
<temp>0.00</temp>
<bpm>0</bpm>
<rpm>0.00</rpm>
</extensions>
</trkpt>
<trkpt lat="64.239746094" lon="-20.536918640">
<ele>82.925781</ele>
<time>2012-07-19T17:12:01Z</time>
<speed>6.090000</speed>
<extensions>
<speed>6.1</speed>
<temp>0.00</temp>
<bpm>0</bpm>
<rpm>0.00</rpm>
</extensions>
</trkpt>
<trkpt lat="64.239753723" lon="-20.536273956">
<ele>82.580078</ele>
<time>2012-07-19T17:12:06Z</time>
<speed>6.330000</speed>
<extensions>
<speed>6.3</speed>
<temp>0.00</temp>
<bpm>0</bpm>
<rpm>0.00</rpm>
</extensions>
</trkpt>
<trkpt lat="64.239761353" lon="-20.535610199">
<ele>82.246094</ele>
<time>2012-07-19T17:12:11Z</time>
<speed>6.340000</speed>
<extensions>
<speed>6.3</speed>
<temp>0.00</temp>
<bpm>0</bpm>
<rpm>0.00</rpm>
</extensions>
</trkpt>
<trkpt lat="64.239768982" lon="-20.534961700">
<ele>82.011719</ele>
<time>2012-07-19T17:12:16Z</time>
<speed>6.250000</speed>
<extensions>
<speed>6.3</speed>
<temp>0.00</temp>
<bpm>0</bpm>
<rpm>0.00</rpm>
</extensions>
</trkpt>
<trkpt lat="64.239768982" lon="-20.534322739">
<ele>81.648438</ele>
<time>2012-07-19T17:12:21Z</time>
<speed>6.230000</speed>
<extensions>
<speed>6.2</speed>
<temp>0.00</temp>
<bpm>0</bpm>
<rpm>0.00</rpm>
</extensions>
</trkpt>
<trkpt lat="64.239776611" lon="-20.533685684">
<ele>81.671875</ele>
<time>2012-07-19T17:12:26Z</time>
<speed>6.040000</speed>
<extensions>
<speed>6.0</speed>
<temp>0.00</temp>
<bpm>0</bpm>
<rpm>0.00</rpm>
</extensions>
</trkpt>
<trkpt lat="64.239784241" lon="-20.533069611">
<ele>81.507813</ele>
<time>2012-07-19T17:12:31Z</time>
<speed>5.930000</speed>
<extensions>
<speed>5.9</speed>
<temp>0.00</temp>
<bpm>0</bpm>
<rpm>0.00</rpm>
</extensions>
</trkpt>
<trkpt lat="64.239791870" lon="-20.532470703">
<ele>81.541016</ele>
<time>2012-07-19T17:12:36Z</time>
<speed>5.860000</speed>
<extensions>
<speed>5.9</speed>
<temp>0.00</temp>
<bpm>0</bpm>
<rpm>0.00</rpm>
</extensions>
</trkpt>
<trkpt lat="64.239799500" lon="-20.531881332">
<ele>81.806641</ele>
<time>2012-07-19T17:12:41Z</time>
<speed>5.570000</speed>
<extensions>
<speed>5.6</speed>
<temp>0.00</temp>
<bpm>0</bpm>
<rpm>0.00</rpm>
</extensions>
</trkpt>
<trkpt lat="64.239799500" lon="-20.531291962">
<ele>81.871094</ele>
<time>2012-07-19T17:12:46Z</time>
<speed>5.600000</speed>
<extensions>
<speed>5.6</speed>
<temp>0.00</temp>
<bpm>0</bpm>
<rpm>0.00</rpm>
</extensions>
</trkpt>
<trkpt lat="64.239814758" lon="-20.530725479">
<ele>82.035156</ele>
<time>2012-07-19T17:12:51Z</time>
<speed>5.450000</speed>
<extensions>
<speed>5.5</speed>
<temp>0.00</temp>
<bpm>0</bpm>
<rpm>0.00</rpm>
</extensions>
</trkpt>
<trkpt lat="64.239814758" lon="-20.530160904">
<ele>82.064453</ele>
<time>2012-07-19T17:12:56Z</time>
<speed>5.540000</speed>
<extensions>
<speed>5.5</speed>
<temp>0.00</temp>
<bpm>0</bpm>
<rpm>0.00</rpm>
</extensions>
</trkpt>
<trkpt lat="64.239814758" lon="-20.529579163">
<ele>82.054688</ele>
<time>2012-07-19T17:13:01Z</time>
<speed>5.650000</speed>
<extensions>
<speed>5.7</speed>
<temp>0.00</temp>
<bpm>0</bpm>
<rpm>0.00</rpm>
</extensions>
</trkpt>
<trkpt lat="64.239814758" lon="-20.529005051">
<ele>82.410156</ele>
<time>2012-07-19T17:13:06Z</time>
<speed>5.630000</speed>
<extensions>
<speed>5.6</speed>
<temp>0.00</temp>
<bpm>0</bpm>
<rpm>0.00</rpm>
</extensions>
</trkpt>
<trkpt lat="64.239830017" lon="-20.528436661">
<ele>82.087891</ele>
<time>2012-07-19T17:13:11Z</time>
<speed>5.670000</speed>
<extensions>
<speed>5.7</speed>
<temp>0.00</temp>
<bpm>0</bpm>
<rpm>0.00</rpm>
</extensions>
</trkpt>
<trkpt lat="64.239830017" lon="-20.527833939">
<ele>82.351563</ele>
<time>2012-07-19T17:13:16Z</time>
<speed>5.640000</speed>
<extensions>
<speed>5.6</speed>
<temp>0.00</temp>
<bpm>0</bpm>
<rpm>0.00</rpm>
</extensions>
</trkpt>
<trkpt lat="64.239837646" lon="-20.527252197">
<ele>82.451172</ele>
<time>2012-07-19T17:13:21Z</time>
<speed>5.660000</speed>
<extensions>
<speed>5.7</speed>
<temp>0.00</temp>
<bpm>0</bpm>
<rpm>0.00</rpm>
</extensions>
</trkpt>
<trkpt lat="64.239845276" lon="-20.526672363">
<ele>82.410156</ele>
<time>2012-07-19T17:13:26Z</time>
<speed>5.780000</speed>
<extensions>
<speed>5.8</speed>
<temp>0.00</temp>
<bpm>0</bpm>
<rpm>0.00</rpm>
</extensions>
</trkpt>
<trkpt lat="64.239845276" lon="-20.526100159">
<ele>82.982422</ele>
<time>2012-07-19T17:13:31Z</time>
<speed>5.250000</speed>
<extensions>
<speed>5.2</speed>
<temp>0.00</temp>
<bpm>0</bpm>
<rpm>0.00</rpm>
</extensions>
</trkpt>
<trkpt lat="64.239845276" lon="-20.525623322">
<ele>83.343750</ele>
<time>2012-07-19T17:13:36Z</time>
<speed>3.750000</speed>
<extensions>
<speed>3.8</speed>
<temp>0.00</temp>
<bpm>0</bpm>
<rpm>0.00</rpm>
</extensions>
</trkpt>
<trkpt lat="64.239852905" lon="-20.525312424">
<ele>83.373047</ele>
<time>2012-07-19T17:13:41Z</time>
<speed>2.560000</speed>
<extensions>
<speed>2.6</speed>
<temp>0.00</temp>
<bpm>0</bpm>
<rpm>0.00</rpm>
</extensions>
</trkpt>
<trkpt lat="64.239852905" lon="-20.525222778">
<ele>83.199219</ele>
<time>2012-07-19T17:13:46Z</time>
<speed>0.020000</speed>
<extensions>
<speed>0.0</speed>
<temp>0.00</temp>
<bpm>0</bpm>
<rpm>0.00</rpm>
</extensions>
</trkpt>
<trkpt lat="64.239852905" lon="-20.525218964">
<ele>83.242188</ele>
<time>2012-07-19T17:13:51Z</time>
<speed>0.020000</speed>
<extensions>
<speed>0.0</speed>
<temp>0.00</temp>
<bpm>0</bpm>
<rpm>0.00</rpm>
</extensions>
</trkpt>
<trkpt lat="64.239852905" lon="-20.525218964">
<ele>83.195313</ele>
<time>2012-07-19T17:13:56Z</time>
<speed>0.050000</speed>
<extensions>
<speed>0.1</speed>
<temp>0.00</temp>
<bpm>0</bpm>
<rpm>0.00</rpm>
</extensions>
</trkpt>
<trkpt lat="64.239852905" lon="-20.525222778">
<ele>83.232422</ele>
<time>2012-07-19T17:14:01Z</time>
<speed>0.020000</speed>
<extensions>
<speed>0.0</speed>
<temp>0.00</temp>
<bpm>0</bpm>
<rpm>0.00</rpm>
</extensions>
</trkpt>
<trkpt lat="64.239852905" lon="-20.525220871">
<ele>83.277344</ele>
<time>2012-07-19T17:14:06Z</time>
<speed>0.010000</speed>
<extensions>
<speed>0.0</speed>
<temp>0.00</temp>
<bpm>0</bpm>
<rpm>0.00</rpm>
</extensions>
</trkpt>
<trkpt lat="64.239852905" lon="-20.525222778">
<ele>83.294922</ele>
<time>2012-07-19T17:14:11Z</time>
<extensions>
<speed>0.0</speed>
<temp>0.00</temp>
<bpm>0</bpm>
<rpm>0.00</rpm>
</extensions>
</trkpt>
<trkpt lat="64.239852905" lon="-20.525222778">
<ele>83.191406</ele>
<time>2012-07-19T17:14:16Z</time>
<speed>0.020000</speed>
<extensions>
<speed>0.0</speed>
<temp>0.00</temp>
<bpm>0</bpm>
<rpm>0.00</rpm>
</extensions>
</trkpt>
<trkpt lat="64.239852905" lon="-20.525222778">
<ele>83.195313</ele>
<time>2012-07-19T17:14:21Z</time>
<extensions>
<speed>0.0</speed>
<temp>0.00</temp>
<bpm>0</bpm>
<rpm>0.00</rpm>
</extensions>
</trkpt>
<trkpt lat="64.239852905" lon="-20.525222778">
<ele>83.189453</ele>
<time>2012-07-19T17:14:26Z</time>
<extensions>
<speed>0.0</speed>
<temp>0.00</temp>
<bpm>0</bpm>
<rpm>0.00</rpm>
</extensions>
</trkpt>
<trkpt lat="64.239852905" lon="-20.525222778">
<ele>83.185547</ele>
<time>2012-07-19T17:14:31Z</time>
<speed>0.010000</speed>
<extensions>
<speed>0.0</speed>
<temp>0.00</temp>
<bpm>0</bpm>
<rpm>0.00</rpm>
</extensions>
</trkpt>
<trkpt lat="64.239852905" lon="-20.525222778">
<ele>83.181641</ele>
<time>2012-07-19T17:14:36Z</time>
<speed>0.010000</speed>
<extensions>
<speed>0.0</speed>
<temp>0.00</temp>
<bpm>0</bpm>
<rpm>0.00</rpm>
</extensions>
</trkpt>
<trkpt lat="64.239852905" lon="-20.525222778">
<ele>83.179688</ele>
<time>2012-07-19T17:14:41Z</time>
<speed>0.010000</speed>
<extensions>
<speed>0.0</speed>
<temp>0.00</temp>
<bpm>0</bpm>
<rpm>0.00</rpm>
</extensions>
</trkpt>
<trkpt lat="64.239852905" lon="-20.525222778">
<ele>83.179688</ele>
<time>2012-07-19T17:14:46Z</time>
<extensions>
<speed>0.0</speed>
<temp>0.00</temp>
<bpm>0</bpm>
<rpm>0.00</rpm>
</extensions>
</trkpt>
<trkpt lat="64.239852905" lon="-20.525222778">
<ele>83.166016</ele>
<time>2012-07-19T17:14:51Z</time>
<speed>0.010000</speed>
<extensions>
<speed>0.0</speed>
<temp>0.00</temp>
<bpm>0</bpm>
<rpm>0.00</rpm>
</extensions>
</trkpt>
<trkpt lat="64.239852905" lon="-20.525222778">
<ele>83.158203</ele>
<time>2012-07-19T17:14:56Z</time>
<speed>0.010000</speed>
<extensions>
<speed>0.0</speed>
<temp>0.00</temp>
<bpm>0</bpm>
<rpm>0.00</rpm>
</extensions>
</trkpt>
<trkpt lat="64.239852905" lon="-20.525224686">
<ele>83.152344</ele>
<time>2012-07-19T17:15:01Z</time>
<extensions>
<speed>0.0</speed>
<temp>0.00</temp>
<bpm>0</bpm>
<rpm>0.00</rpm>
</extensions>
</trkpt>
<trkpt lat="64.239852905" lon="-20.525211334">
<ele>83.173828</ele>
<time>2012-07-19T17:15:06Z</time>
<speed>2.100000</speed>
<extensions>
<speed>2.1</speed>
<temp>0.00</temp>
<bpm>0</bpm>
<rpm>0.00</rpm>
</extensions>
</trkpt>
<trkpt lat="64.239860535" lon="-20.524850845">
<ele>82.701172</ele>
<time>2012-07-19T17:15:11Z</time>
<speed>3.830000</speed>
<extensions>
<speed>3.8</speed>
<temp>0.00</temp>
<bpm>0</bpm>
<rpm>0.00</rpm>
</extensions>
</trkpt>
<trkpt lat="64.239868164" lon="-20.524402618">
<ele>82.445313</ele>
<time>2012-07-19T17:15:16Z</time>
<speed>4.560000</speed>
<extensions>
<speed>4.6</speed>
<temp>0.00</temp>
<bpm>0</bpm>
<rpm>0.00</rpm>
</extensions>
</trkpt>
<trkpt lat="64.239875793" lon="-20.523868561">
<ele>82.789063</ele>
<time>2012-07-19T17:15:21Z</time>
<speed>5.150000</speed>
<extensions>
<speed>5.2</speed>
<temp>0.00</temp>
<bpm>0</bpm>
<rpm>0.00</rpm>
</extensions>
</trkpt>
<trkpt lat="64.239875793" lon="-20.523321152">
<ele>82.978516</ele>
<time>2012-07-19T17:15:26Z</time>
<speed>5.420000</speed>
<extensions>
<speed>5.4</speed>
<temp>0.00</temp>
<bpm>0</bpm>
<rpm>0.00</rpm>
</extensions>
</trkpt>
<trkpt lat="64.239875793" lon="-20.522737503">
<ele>83.011719</ele>
<time>2012-07-19T17:15:31Z</time>
<speed>5.630000</speed>
<extensions>
<speed>5.6</speed>
<temp>0.00</temp>
<bpm>0</bpm>
<rpm>0.00</rpm>
</extensions>
</trkpt>
<trkpt lat="64.239891052" lon="-20.522172928">
<ele>83.564453</ele>
<time>2012-07-19T17:15:36Z</time>
<speed>5.510000</speed>
<extensions>
<speed>5.5</speed>
<temp>0.00</temp>
<bpm>0</bpm>
<rpm>0.00</rpm>
</extensions>
</trkpt>
<trkpt lat="64.239891052" lon="-20.521619797">
<ele>84.568359</ele>
<time>2012-07-19T17:15:41Z</time>
<speed>5.550000</speed>
<extensions>
<speed>5.5</speed>
<temp>0.00</temp>
<bpm>0</bpm>
<rpm>0.00</rpm>
</extensions>
</trkpt>
<trkpt lat="64.239906311" lon="-20.521028519">
<ele>84.427734</ele>
<time>2012-07-19T17:15:46Z</time>
<speed>5.590000</speed>
<extensions>
<speed>5.6</speed>
<temp>0.00</temp>
<bpm>0</bpm>
<rpm>0.00</rpm>
</extensions>
</trkpt>
<trkpt lat="64.239921570" lon="-20.520456314">
<ele>84.666016</ele>
<time>2012-07-19T17:15:51Z</time>
<speed>5.320000</speed>
<extensions>
<speed>5.3</speed>
<temp>0.00</temp>
<bpm>0</bpm>
<rpm>0.00</rpm>
</extensions>
</trkpt>
<trkpt lat="64.239929199" lon="-20.519918442">
<ele>84.564453</ele>
<time>2012-07-19T17:15:56Z</time>
<speed>5.380000</speed>
<extensions>
<speed>5.4</speed>
<temp>0.00</temp>
<bpm>0</bpm>
<rpm>0.00</rpm>
</extensions>
</trkpt>
<trkpt lat="64.239952087" lon="-20.519342422">
<ele>84.955078</ele>
<time>2012-07-19T17:16:01Z</time>
<speed>5.730000</speed>
<extensions>
<speed>5.7</speed>
<temp>0.00</temp>
<bpm>0</bpm>
<rpm>0.00</rpm>
</extensions>
</trkpt>
<trkpt lat="64.239967346" lon="-20.518783569">
<ele>85.173828</ele>
<time>2012-07-19T17:16:06Z</time>
<speed>5.270000</speed>
<extensions>
<speed>5.3</speed>
<temp>0.00</temp>
<bpm>0</bpm>
<rpm>0.00</rpm>
</extensions>
</trkpt>
<trkpt lat="64.239990234" lon="-20.518215179">
<ele>85.505859</ele>
<time>2012-07-19T17:16:11Z</time>
<speed>5.740000</speed>
<extensions>
<speed>5.7</speed>
<temp>0.00</temp>
<bpm>0</bpm>
<rpm>0.00</rpm>
</extensions>
</trkpt>
<trkpt lat="64.240020752" lon="-20.517621994">
<ele>85.494141</ele>
<time>2012-07-19T17:16:16Z</time>
<speed>5.920000</speed>
<extensions>
<speed>5.9</speed>
<temp>0.00</temp>
<bpm>0</bpm>
<rpm>0.00</rpm>
</extensions>
</trkpt>
<trkpt lat="64.240066528" lon="-20.517021179">
<ele>85.222656</ele>
<time>2012-07-19T17:16:21Z</time>
<speed>5.430000</speed>
<extensions>
<speed>5.4</speed>
<temp>0.00</temp>
<bpm>0</bpm>
<rpm>0.00</rpm>
</extensions>
</trkpt>
<trkpt lat="64.240112305" lon="-20.516471863">
<ele>85.357422</ele>
<time>2012-07-19T17:16:26Z</time>
<speed>5.780000</speed>
<extensions>
<speed>5.8</speed>
<temp>0.00</temp>
<bpm>0</bpm>
<rpm>0.00</rpm>
</extensions>
</trkpt>
<trkpt lat="64.240173340" lon="-20.515876770">
<ele>85.457031</ele>
<time>2012-07-19T17:16:31Z</time>
<speed>5.970000</speed>
<extensions>
<speed>6.0</speed>
<temp>0.00</temp>
<bpm>0</bpm>
<rpm>0.00</rpm>
</extensions>
</trkpt>
<trkpt lat="64.240226746" lon="-20.515275955">
<ele>85.281250</ele>
<time>2012-07-19T17:16:36Z</time>
<speed>5.930000</speed>
<extensions>
<speed>5.9</speed>
<temp>0.00</temp>
<bpm>0</bpm>
<rpm>0.00</rpm>
</extensions>
</trkpt>
<trkpt lat="64.240287781" lon="-20.514732361">
<ele>85.843750</ele>
<time>2012-07-19T17:16:41Z</time>
<speed>4.760000</speed>
<extensions>
<speed>4.8</speed>
<temp>0.00</temp>
<bpm>0</bpm>
<rpm>0.00</rpm>
</extensions>
</trkpt>
<trkpt lat="64.240333557" lon="-20.514331818">
<ele>86.132813</ele>
<time>2012-07-19T17:16:46Z</time>
<speed>3.480000</speed>
<extensions>
<speed>3.5</speed>
<temp>0.00</temp>
<bpm>0</bpm>
<rpm>0.00</rpm>
</extensions>
</trkpt>
<trkpt lat="64.240371704" lon="-20.513980865">
<ele>85.974609</ele>
<time>2012-07-19T17:16:51Z</time>
<speed>3.880000</speed>
<extensions>
<speed>3.9</speed>
<temp>0.00</temp>
<bpm>0</bpm>
<rpm>0.00</rpm>
</extensions>
</trkpt>
<trkpt lat="64.240432739" lon="-20.513566971">
<ele>86.123047</ele>
<time>2012-07-19T17:16:56Z</time>
<speed>4.680000</speed>
<extensions>
<speed>4.7</speed>
<temp>0.00</temp>
<bpm>0</bpm>
<rpm>0.00</rpm>
</extensions>
</trkpt>
<trkpt lat="64.240501404" lon="-20.513080597">
<ele>85.675781</ele>
<time>2012-07-19T17:17:01Z</time>
<speed>5.020000</speed>
<extensions>
<speed>5.0</speed>
<temp>0.00</temp>
<bpm>0</bpm>
<rpm>0.00</rpm>
</extensions>
</trkpt>
<trkpt lat="64.240570068" lon="-20.512590408">
<ele>85.613281</ele>
<time>2012-07-19T17:17:06Z</time>
<speed>5.210000</speed>
<extensions>
<speed>5.2</speed>
<temp>0.00</temp>
<bpm>0</bpm>
<rpm>0.00</rpm>
</extensions>
</trkpt>
<trkpt lat="64.240646362" lon="-20.512096405">
<ele>85.486328</ele>
<time>2012-07-19T17:17:11Z</time>
<speed>4.980000</speed>
<extensions>
<speed>5.0</speed>
<temp>0.00</temp>
<bpm>0</bpm>
<rpm>0.00</rpm>
</extensions>
</trkpt>
<trkpt lat="64.240737915" lon="-20.511589050">
<ele>85.871094</ele>
<time>2012-07-19T17:17:16Z</time>
<speed>5.400000</speed>
<extensions>
<speed>5.4</speed>
<temp>0.00</temp>
<bpm>0</bpm>
<rpm>0.00</rpm>
</extensions>
</trkpt>
<trkpt lat="64.240837097" lon="-20.511089325">
<ele>85.994141</ele>
<time>2012-07-19T17:17:21Z</time>
<speed>4.800000</speed>
<extensions>
<speed>4.8</speed>
<temp>0.00</temp>
<bpm>0</bpm>
<rpm>0.00</rpm>
</extensions>
</trkpt>
<trkpt lat="64.240913391" lon="-20.510690689">
<ele>86.759766</ele>
<time>2012-07-19T17:17:26Z</time>
<speed>4.350000</speed>
<extensions>
<speed>4.3</speed>
<temp>0.00</temp>
<bpm>0</bpm>
<rpm>0.00</rpm>
</extensions>
</trkpt>
<trkpt lat="64.241020203" lon="-20.510227203">
<ele>87.007813</ele>
<time>2012-07-19T17:17:31Z</time>
<speed>5.420000</speed>
<extensions>
<speed>5.4</speed>
<temp>0.00</temp>
<bpm>0</bpm>
<rpm>0.00</rpm>
</extensions>
</trkpt>
<trkpt lat="64.241104126" lon="-20.509782791">
<ele>86.683594</ele>
<time>2012-07-19T17:17:36Z</time>
<speed>4.740000</speed>
<extensions>
<speed>4.7</speed>
<temp>0.00</temp>
<bpm>0</bpm>
<rpm>0.00</rpm>
</extensions>
</trkpt>
<trkpt lat="64.241203308" lon="-20.509311676">
<ele>86.214844</ele>
<time>2012-07-19T17:17:41Z</time>
<speed>5.350000</speed>
<extensions>
<speed>5.4</speed>
<temp>0.00</temp>
<bpm>0</bpm>
<rpm>0.00</rpm>
</extensions>
</trkpt>
<trkpt lat="64.241333008" lon="-20.508802414">
<ele>87.273438</ele>
<time>2012-07-19T17:17:46Z</time>
<speed>5.670000</speed>
<extensions>
<speed>5.7</speed>
<temp>0.00</temp>
<bpm>0</bpm>
<rpm>0.00</rpm>
</extensions>
</trkpt>
<trkpt lat="64.241455078" lon="-20.508338928">
<ele>87.255859</ele>
<time>2012-07-19T17:17:51Z</time>
<speed>5.550000</speed>
<extensions>
<speed>5.5</speed>
<temp>0.00</temp>
<bpm>0</bpm>
<rpm>0.00</rpm>
</extensions>
</trkpt>
<trkpt lat="64.241584778" lon="-20.507846832">
<ele>87.814453</ele>
<time>2012-07-19T17:17:56Z</time>
<speed>5.280000</speed>
<extensions>
<speed>5.3</speed>
<temp>0.00</temp>
<bpm>0</bpm>
<rpm>0.00</rpm>
</extensions>
</trkpt>
<trkpt lat="64.241706848" lon="-20.507402420">
<ele>89.064453</ele>
<time>2012-07-19T17:18:01Z</time>
<speed>5.140000</speed>
<extensions>
<speed>5.1</speed>
<temp>0.00</temp>
<bpm>0</bpm>
<rpm>0.00</rpm>
</extensions>
</trkpt>
<trkpt lat="64.241859436" lon="-20.506925583">
<ele>90.130859</ele>
<time>2012-07-19T17:18:06Z</time>
<speed>5.800000</speed>
<extensions>
<speed>5.8</speed>
<temp>0.00</temp>
<bpm>0</bpm>
<rpm>0.00</rpm>
</extensions>
</trkpt>
<trkpt lat="64.242019653" lon="-20.506439209">
<ele>90.273438</ele>
<time>2012-07-19T17:18:11Z</time>
<speed>6.050000</speed>
<extensions>
<speed>6.1</speed>
<temp>0.00</temp>
<bpm>0</bpm>
<rpm>0.00</rpm>
</extensions>
</trkpt>
<trkpt lat="64.242195129" lon="-20.505922318">
<ele>90.451172</ele>
<time>2012-07-19T17:18:16Z</time>
<speed>6.180000</speed>
<extensions>
<speed>6.2</speed>
<temp>0.00</temp>
<bpm>0</bpm>
<rpm>0.00</rpm>
</extensions>
</trkpt>
<trkpt lat="64.242370605" lon="-20.505420685">
<ele>90.724609</ele>
<time>2012-07-19T17:18:21Z</time>
<speed>6.350000</speed>
<extensions>
<speed>6.4</speed>
<temp>0.00</temp>
<bpm>0</bpm>
<rpm>0.00</rpm>
</extensions>
</trkpt>
<trkpt lat="64.242546082" lon="-20.504953384">
<ele>91.431641</ele>
<time>2012-07-19T17:18:26Z</time>
<speed>5.620000</speed>
<extensions>
<speed>5.6</speed>
<temp>0.00</temp>
<bpm>0</bpm>
<rpm>0.00</rpm>
</extensions>
</trkpt>
<trkpt lat="64.242698669" lon="-20.504554749">
<ele>91.423828</ele>
<time>2012-07-19T17:18:31Z</time>
<speed>5.510000</speed>
<extensions>
<speed>5.5</speed>
<temp>0.00</temp>
<bpm>0</bpm>
<rpm>0.00</rpm>
</extensions>
</trkpt>
<trkpt lat="64.242874146" lon="-20.504100800">
<ele>91.085938</ele>
<time>2012-07-19T17:18:36Z</time>
<speed>5.700000</speed>
<extensions>
<speed>5.7</speed>
<temp>0.00</temp>
<bpm>0</bpm>
<rpm>0.00</rpm>
</extensions>
</trkpt>
<trkpt lat="64.243080139" lon="-20.503641129">
<ele>91.625000</ele>
<time>2012-07-19T17:18:41Z</time>
<speed>6.420000</speed>
<extensions>
<speed>6.4</speed>
<temp>0.00</temp>
<bpm>0</bpm>
<rpm>0.00</rpm>
</extensions>
</trkpt>
<trkpt lat="64.243293762" lon="-20.503171921">
<ele>91.943359</ele>
<time>2012-07-19T17:18:46Z</time>
<speed>6.570000</speed>
<extensions>
<speed>6.6</speed>
<temp>0.00</temp>
<bpm>0</bpm>
<rpm>0.00</rpm>
</extensions>
</trkpt>
<trkpt lat="64.243476868" lon="-20.502767563">
<ele>85.988281</ele>
<time>2012-07-19T17:18:51Z</time>
<speed>5.240000</speed>
<extensions>
<speed>5.2</speed>
<temp>0.00</temp>
<bpm>0</bpm>
<rpm>0.00</rpm>
</extensions>
</trkpt>
<trkpt lat="64.243667603" lon="-20.502426147">
<ele>83.095703</ele>
<time>2012-07-19T17:18:56Z</time>
<speed>5.590000</speed>
<extensions>
<speed>5.6</speed>
<temp>0.00</temp>
<bpm>0</bpm>
<rpm>0.00</rpm>
</extensions>
</trkpt>
<trkpt lat="64.243873596" lon="-20.502031326">
<ele>81.914063</ele>
<time>2012-07-19T17:19:01Z</time>
<speed>6.020000</speed>
<extensions>
<speed>6.0</speed>
<temp>0.00</temp>
<bpm>0</bpm>
<rpm>0.00</rpm>
</extensions>
</trkpt>
<trkpt lat="64.244079590" lon="-20.501609802">
<ele>81.904297</ele>
<time>2012-07-19T17:19:06Z</time>
<speed>6.110000</speed>
<extensions>
<speed>6.1</speed>
<temp>0.00</temp>
<bpm>0</bpm>
<rpm>0.00</rpm>
</extensions>
</trkpt>
<trkpt lat="64.244293213" lon="-20.501213074">
<ele>82.039063</ele>
<time>2012-07-19T17:19:11Z</time>
<speed>6.010000</speed>
<extensions>
<speed>6.0</speed>
<temp>0.00</temp>
<bpm>0</bpm>
<rpm>0.00</rpm>
</extensions>
</trkpt>
<trkpt lat="64.244506836" lon="-20.500810623">
<ele>83.029297</ele>
<time>2012-07-19T17:19:16Z</time>
<speed>6.190000</speed>
<extensions>
<speed>6.2</speed>
<temp>0.00</temp>
<bpm>0</bpm>
<rpm>0.00</rpm>
</extensions>
</trkpt>
<trkpt lat="64.244697571" lon="-20.500431061">
<ele>84.845703</ele>
<time>2012-07-19T17:19:21Z</time>
<speed>5.370000</speed>
<extensions>
<speed>5.4</speed>
<temp>0.00</temp>
<bpm>0</bpm>
<rpm>0.00</rpm>
</extensions>
</trkpt>
<trkpt lat="64.244880676" lon="-20.500072479">
<ele>87.580078</ele>
<time>2012-07-19T17:19:26Z</time>
<speed>5.230000</speed>
<extensions>
<speed>5.2</speed>
<temp>0.00</temp>
<bpm>0</bpm>
<rpm>0.00</rpm>
</extensions>
</trkpt>
<trkpt lat="64.245056152" lon="-20.499734879">
<ele>90.492188</ele>
<time>2012-07-19T17:19:31Z</time>
<speed>4.900000</speed>
<extensions>
<speed>4.9</speed>
<temp>0.00</temp>
<bpm>0</bpm>
<rpm>0.00</rpm>
</extensions>
</trkpt>
<trkpt lat="64.245216370" lon="-20.499404907">
<ele>91.716797</ele>
<time>2012-07-19T17:19:36Z</time>
<speed>4.700000</speed>
<extensions>
<speed>4.7</speed>
<temp>0.00</temp>
<bpm>0</bpm>
<rpm>0.00</rpm>
</extensions>
</trkpt>
<trkpt lat="64.245376587" lon="-20.499092102">
<ele>91.898438</ele>
<time>2012-07-19T17:19:41Z</time>
<speed>5.020000</speed>
<extensions>
<speed>5.0</speed>
<temp>0.00</temp>
<bpm>0</bpm>
<rpm>0.00</rpm>
</extensions>
</trkpt>
<trkpt lat="64.245529175" lon="-20.498804092">
<ele>92.623047</ele>
<time>2012-07-19T17:19:46Z</time>
<speed>4.250000</speed>
<extensions>
<speed>4.3</speed>
<temp>0.00</temp>
<bpm>0</bpm>
<rpm>0.00</rpm>
</extensions>
</trkpt>
<trkpt lat="64.245674133" lon="-20.498531342">
<ele>93.166016</ele>
<time>2012-07-19T17:19:51Z</time>
<speed>3.890000</speed>
<extensions>
<speed>3.9</speed>
<temp>0.00</temp>
<bpm>0</bpm>
<rpm>0.00</rpm>
</extensions>
</trkpt>
<trkpt lat="64.245803833" lon="-20.498291016">
<ele>93.525391</ele>
<time>2012-07-19T17:19:56Z</time>
<speed>3.390000</speed>
<extensions>
<speed>3.4</speed>
<temp>0.00</temp>
<bpm>0</bpm>
<rpm>0.00</rpm>
</extensions>
</trkpt>
<trkpt lat="64.245903015" lon="-20.498098373">
<ele>93.695313</ele>
<time>2012-07-19T17:20:01Z</time>
<speed>3.330000</speed>
<extensions>
<speed>3.3</speed>
<temp>0.00</temp>
<bpm>0</bpm>
<rpm>0.00</rpm>
</extensions>
</trkpt>
<trkpt lat="64.246025085" lon="-20.497865677">
<ele>94.558594</ele>
<time>2012-07-19T17:20:06Z</time>
<speed>3.860000</speed>
<extensions>
<speed>3.9</speed>
<temp>0.00</temp>
<bpm>0</bpm>
<rpm>0.00</rpm>
</extensions>
</trkpt>
<trkpt lat="64.246154785" lon="-20.497623444">
<ele>95.220703</ele>
<time>2012-07-19T17:20:11Z</time>
<speed>3.420000</speed>
<extensions>
<speed>3.4</speed>
<temp>0.00</temp>
<bpm>0</bpm>
<rpm>0.00</rpm>
</extensions>
</trkpt>
<trkpt lat="64.246292114" lon="-20.497379303">
<ele>95.839844</ele>
<time>2012-07-19T17:20:16Z</time>
<speed>3.640000</speed>
<extensions>
<speed>3.6</speed>
<temp>0.00</temp>
<bpm>0</bpm>
<rpm>0.00</rpm>
</extensions>
</trkpt>
<trkpt lat="64.246437073" lon="-20.497154236">
<ele>96.525391</ele>
<time>2012-07-19T17:20:21Z</time>
<speed>3.880000</speed>
<extensions>
<speed>3.9</speed>
<temp>0.00</temp>
<bpm>0</bpm>
<rpm>0.00</rpm>
</extensions>
</trkpt>
<trkpt lat="64.246543884" lon="-20.496948242">
<ele>96.378906</ele>
<time>2012-07-19T17:20:26Z</time>
<speed>2.510000</speed>
<extensions>
<speed>2.5</speed>
<temp>0.00</temp>
<bpm>0</bpm>
<rpm>0.00</rpm>
</extensions>
</trkpt>
<trkpt lat="64.246635437" lon="-20.496795654">
<ele>96.519531</ele>
<time>2012-07-19T17:20:31Z</time>
<speed>3.050000</speed>
<extensions>
<speed>3.0</speed>
<temp>0.00</temp>
<bpm>0</bpm>
<rpm>0.00</rpm>
</extensions>
</trkpt>
<trkpt lat="64.246772766" lon="-20.496562958">
<ele>96.349609</ele>
<time>2012-07-19T17:20:36Z</time>
<speed>4.330000</speed>
<extensions>
<speed>4.3</speed>
<temp>0.00</temp>
<bpm>0</bpm>
<rpm>0.00</rpm>
</extensions>
</trkpt>
<trkpt lat="64.246948242" lon="-20.496288300">
<ele>95.970703</ele>
<time>2012-07-19T17:20:41Z</time>
<speed>5.190000</speed>
<extensions>
<speed>5.2</speed>
<temp>0.00</temp>
<bpm>0</bpm>
<rpm>0.00</rpm>
</extensions>
</trkpt>
<trkpt lat="64.247138977" lon="-20.495985031">
<ele>96.294922</ele>
<time>2012-07-19T17:20:46Z</time>
<speed>4.590000</speed>
<extensions>
<speed>4.6</speed>
<temp>0.00</temp>
<bpm>0</bpm>
<rpm>0.00</rpm>
</extensions>
</trkpt>
<trkpt lat="64.247291565" lon="-20.495725632">
<ele>96.435547</ele>
<time>2012-07-19T17:20:51Z</time>
<speed>4.130000</speed>
<extensions>
<speed>4.1</speed>
<temp>0.00</temp>
<bpm>0</bpm>
<rpm>0.00</rpm>
</extensions>
</trkpt>
<trkpt lat="64.247467041" lon="-20.495477676">
<ele>96.740234</ele>
<time>2012-07-19T17:20:56Z</time>
<speed>4.290000</speed>
<extensions>
<speed>4.3</speed>
<temp>0.00</temp>
<bpm>0</bpm>
<rpm>0.00</rpm>
</extensions>
</trkpt>
<trkpt lat="64.247612000" lon="-20.495229721">
<ele>96.775391</ele>
<time>2012-07-19T17:21:01Z</time>
<speed>4.160000</speed>
<extensions>
<speed>4.2</speed>
<temp>0.00</temp>
<bpm>0</bpm>
<rpm>0.00</rpm>
</extensions>
</trkpt>
<trkpt lat="64.247779846" lon="-20.495000839">
<ele>96.755859</ele>
<time>2012-07-19T17:21:06Z</time>
<speed>4.100000</speed>
<extensions>
<speed>4.1</speed>
<temp>0.00</temp>
<bpm>0</bpm>
<rpm>0.00</rpm>
</extensions>
</trkpt>
<trkpt lat="64.247940063" lon="-20.494768143">
<ele>96.474609</ele>
<time>2012-07-19T17:21:11Z</time>
<speed>4.080000</speed>
<extensions>
<speed>4.1</speed>
<temp>0.00</temp>
<bpm>0</bpm>
<rpm>0.00</rpm>
</extensions>
</trkpt>
<trkpt lat="64.248123169" lon="-20.494525909">
<ele>96.791016</ele>
<time>2012-07-19T17:21:16Z</time>
<speed>5.110000</speed>
<extensions>
<speed>5.1</speed>
<temp>0.00</temp>
<bpm>0</bpm>
<rpm>0.00</rpm>
</extensions>
</trkpt>
<trkpt lat="64.248313904" lon="-20.494249344">
<ele>97.025391</ele>
<time>2012-07-19T17:21:21Z</time>
<speed>5.020000</speed>
<extensions>
<speed>5.0</speed>
<temp>0.00</temp>
<bpm>0</bpm>
<rpm>0.00</rpm>
</extensions>
</trkpt>
<trkpt lat="64.248512268" lon="-20.493955612">
<ele>98.312500</ele>
<time>2012-07-19T17:21:26Z</time>
<speed>5.370000</speed>
<extensions>
<speed>5.4</speed>
<temp>0.00</temp>
<bpm>0</bpm>
<rpm>0.00</rpm>
</extensions>
</trkpt>
<trkpt lat="64.248725891" lon="-20.493680954">
<ele>99.322266</ele>
<time>2012-07-19T17:21:31Z</time>
<speed>5.030000</speed>
<extensions>
<speed>5.0</speed>
<temp>0.00</temp>
<bpm>0</bpm>
<rpm>0.00</rpm>
</extensions>
</trkpt>
<trkpt lat="64.248893738" lon="-20.493450165">
<ele>99.792969</ele>
<time>2012-07-19T17:21:36Z</time>
<speed>3.630000</speed>
<extensions>
<speed>3.6</speed>
<temp>0.00</temp>
<bpm>0</bpm>
<rpm>0.00</rpm>
</extensions>
</trkpt>
<trkpt lat="64.249031067" lon="-20.493268967">
<ele>100.197266</ele>
<time>2012-07-19T17:21:41Z</time>
<speed>3.030000</speed>
<extensions>
<speed>3.0</speed>
<temp>0.00</temp>
<bpm>0</bpm>
<rpm>0.00</rpm>
</extensions>
</trkpt>
<trkpt lat="64.249137878" lon="-20.493143082">
<ele>100.058594</ele>
<time>2012-07-19T17:21:46Z</time>
<speed>2.620000</speed>
<extensions>
<speed>2.6</speed>
<temp>0.00</temp>
<bpm>0</bpm>
<rpm>0.00</rpm>
</extensions>
</trkpt>
<trkpt lat="64.249259949" lon="-20.492996216">
<ele>101.042969</ele>
<time>2012-07-19T17:21:51Z</time>
<speed>2.940000</speed>
<extensions>
<speed>2.9</speed>
<temp>0.00</temp>
<bpm>0</bpm>
<rpm>0.00</rpm>
</extensions>
</trkpt>
<trkpt lat="64.249389648" lon="-20.492824554">
<ele>101.582031</ele>
<time>2012-07-19T17:21:56Z</time>
<speed>3.100000</speed>
<extensions>
<speed>3.1</speed>
<temp>0.00</temp>
<bpm>0</bpm>
<rpm>0.00</rpm>
</extensions>
</trkpt>
<trkpt lat="64.249519348" lon="-20.492671967">
<ele>102.070313</ele>
<time>2012-07-19T17:22:01Z</time>
<speed>3.030000</speed>
<extensions>
<speed>3.0</speed>
<temp>0.00</temp>
<bpm>0</bpm>
<rpm>0.00</rpm>
</extensions>
</trkpt>
<trkpt lat="64.249656677" lon="-20.492511749">
<ele>101.654297</ele>
<time>2012-07-19T17:22:06Z</time>
<speed>2.900000</speed>
<extensions>
<speed>2.9</speed>
<temp>0.00</temp>
<bpm>0</bpm>
<rpm>0.00</rpm>
</extensions>
</trkpt>
<trkpt lat="64.249778748" lon="-20.492368698">
<ele>102.765625</ele>
<time>2012-07-19T17:22:11Z</time>
<speed>3.180000</speed>
<extensions>
<speed>3.2</speed>
<temp>0.00</temp>
<bpm>0</bpm>
<rpm>0.00</rpm>
</extensions>
</trkpt>
<trkpt lat="64.249900818" lon="-20.492210388">
<ele>103.492188</ele>
<time>2012-07-19T17:22:16Z</time>
<speed>2.820000</speed>
<extensions>
<speed>2.8</speed>
<temp>0.00</temp>
<bpm>0</bpm>
<rpm>0.00</rpm>
</extensions>
</trkpt>
<trkpt lat="64.250038147" lon="-20.492033005">
<ele>104.171875</ele>
<time>2012-07-19T17:22:21Z</time>
<speed>4.140000</speed>
<extensions>
<speed>4.1</speed>
<temp>0.00</temp>
<bpm>0</bpm>
<rpm>0.00</rpm>
</extensions>
</trkpt>
<trkpt lat="64.250190735" lon="-20.491836548">
<ele>104.958984</ele>
<time>2012-07-19T17:22:26Z</time>
<speed>3.490000</speed>
<extensions>
<speed>3.5</speed>
<temp>0.00</temp>
<bpm>0</bpm>
<rpm>0.00</rpm>
</extensions>
</trkpt>
<trkpt lat="64.250312805" lon="-20.491680145">
<ele>105.314453</ele>
<time>2012-07-19T17:22:31Z</time>
<speed>3.140000</speed>
<extensions>
<speed>3.1</speed>
<temp>0.00</temp>
<bpm>0</bpm>
<rpm>0.00</rpm>
</extensions>
</trkpt>
<trkpt lat="64.250442505" lon="-20.491516113">
<ele>105.496094</ele>
<time>2012-07-19T17:22:36Z</time>
<speed>3.150000</speed>
<extensions>
<speed>3.2</speed>
<temp>0.00</temp>
<bpm>0</bpm>
<rpm>0.00</rpm>
</extensions>
</trkpt>
<trkpt lat="64.250572205" lon="-20.491348267">
<ele>105.316406</ele>
<time>2012-07-19T17:22:41Z</time>
<speed>3.410000</speed>
<extensions>
<speed>3.4</speed>
<temp>0.00</temp>
<bpm>0</bpm>
<rpm>0.00</rpm>
</extensions>
</trkpt>
<trkpt lat="64.250709534" lon="-20.491184235">
<ele>105.734375</ele>
<time>2012-07-19T17:22:46Z</time>
<speed>3.430000</speed>
<extensions>
<speed>3.4</speed>
<temp>0.00</temp>
<bpm>0</bpm>
<rpm>0.00</rpm>
</extensions>
</trkpt>
<trkpt lat="64.250854492" lon="-20.491016388">
<ele>105.814453</ele>
<time>2012-07-19T17:22:51Z</time>
<speed>3.680000</speed>
<extensions>
<speed>3.7</speed>
<temp>0.00</temp>
<bpm>0</bpm>
<rpm>0.00</rpm>
</extensions>
</trkpt>
<trkpt lat="64.251014709" lon="-20.490835190">
<ele>105.900391</ele>
<time>2012-07-19T17:22:56Z</time>
<speed>3.760000</speed>
<extensions>
<speed>3.8</speed>
<temp>0.00</temp>
<bpm>0</bpm>
<rpm>0.00</rpm>
</extensions>
</trkpt>
<trkpt lat="64.251174927" lon="-20.490636826">
<ele>106.318359</ele>
<time>2012-07-19T17:23:01Z</time>
<speed>4.190000</speed>
<extensions>
<speed>4.2</speed>
<temp>0.00</temp>
<bpm>0</bpm>
<rpm>0.00</rpm>
</extensions>
</trkpt>
<trkpt lat="64.251327515" lon="-20.490440369">
<ele>106.845703</ele>
<time>2012-07-19T17:23:06Z</time>
<speed>3.860000</speed>
<extensions>
<speed>3.9</speed>
<temp>0.00</temp>
<bpm>0</bpm>
<rpm>0.00</rpm>
</extensions>
</trkpt>
<trkpt lat="64.251495361" lon="-20.490234375">
<ele>107.296875</ele>
<time>2012-07-19T17:23:11Z</time>
<speed>4.170000</speed>
<extensions>
<speed>4.2</speed>
<temp>0.00</temp>
<bpm>0</bpm>
<rpm>0.00</rpm>
</extensions>
</trkpt>
<trkpt lat="64.251663208" lon="-20.490015030">
<ele>107.490234</ele>
<time>2012-07-19T17:23:16Z</time>
<speed>4.620000</speed>
<extensions>
<speed>4.6</speed>
<temp>0.00</temp>
<bpm>0</bpm>
<rpm>0.00</rpm>
</extensions>
</trkpt>
<trkpt lat="64.251846313" lon="-20.489765167">
<ele>107.501953</ele>
<time>2012-07-19T17:23:21Z</time>
<speed>4.400000</speed>
<extensions>
<speed>4.4</speed>
<temp>0.00</temp>
<bpm>0</bpm>
<rpm>0.00</rpm>
</extensions>
</trkpt>
<trkpt lat="64.251998901" lon="-20.489555359">
<ele>108.056641</ele>
<time>2012-07-19T17:23:26Z</time>
<speed>4.170000</speed>
<extensions>
<speed>4.2</speed>
<temp>0.00</temp>
<bpm>0</bpm>
<rpm>0.00</rpm>
</extensions>
</trkpt>
<trkpt lat="64.252166748" lon="-20.489292145">
<ele>107.900391</ele>
<time>2012-07-19T17:23:31Z</time>
<speed>4.830000</speed>
<extensions>
<speed>4.8</speed>
<temp>0.00</temp>
<bpm>0</bpm>
<rpm>0.00</rpm>
</extensions>
</trkpt>
<trkpt lat="64.252357483" lon="-20.489015579">
<ele>107.443359</ele>
<time>2012-07-19T17:23:36Z</time>
<speed>4.970000</speed>
<extensions>
<speed>5.0</speed>
<temp>0.00</temp>
<bpm>0</bpm>
<rpm>0.00</rpm>
</extensions>
</trkpt>
<trkpt lat="64.252540588" lon="-20.488716125">
<ele>107.548828</ele>
<time>2012-07-19T17:23:41Z</time>
<speed>5.100000</speed>
<extensions>
<speed>5.1</speed>
<temp>0.00</temp>
<bpm>0</bpm>
<rpm>0.00</rpm>
</extensions>
</trkpt>
<trkpt lat="64.252723694" lon="-20.488368988">
<ele>107.259766</ele>
<time>2012-07-19T17:23:46Z</time>
<speed>5.480000</speed>
<extensions>
<speed>5.5</speed>
<temp>0.00</temp>
<bpm>0</bpm>
<rpm>0.00</rpm>
</extensions>
</trkpt>
<trkpt lat="64.252922058" lon="-20.487991333">
<ele>107.412109</ele>
<time>2012-07-19T17:23:51Z</time>
<speed>5.760000</speed>
<extensions>
<speed>5.8</speed>
<temp>0.00</temp>
<bpm>0</bpm>
<rpm>0.00</rpm>
</extensions>
</trkpt>
<trkpt lat="64.253105164" lon="-20.487623215">
<ele>107.515625</ele>
<time>2012-07-19T17:23:56Z</time>
<speed>5.330000</speed>
<extensions>
<speed>5.3</speed>
<temp>0.00</temp>
<bpm>0</bpm>
<rpm>0.00</rpm>
</extensions>
</trkpt>
<trkpt lat="64.253295898" lon="-20.487247467">
<ele>107.337891</ele>
<time>2012-07-19T17:24:01Z</time>
<speed>5.850000</speed>
<extensions>
<speed>5.8</speed>
<temp>0.00</temp>
<bpm>0</bpm>
<rpm>0.00</rpm>
</extensions>
</trkpt>
<trkpt lat="64.253486633" lon="-20.486835480">
<ele>106.677734</ele>
<time>2012-07-19T17:24:06Z</time>
<speed>5.810000</speed>
<extensions>
<speed>5.8</speed>
<temp>0.00</temp>
<bpm>0</bpm>
<rpm>0.00</rpm>
</extensions>
</trkpt>
<trkpt lat="64.253662109" lon="-20.486415863">
<ele>106.765625</ele>
<time>2012-07-19T17:24:11Z</time>
<speed>5.950000</speed>
<extensions>
<speed>6.0</speed>
<temp>0.00</temp>
<bpm>0</bpm>
<rpm>0.00</rpm>
</extensions>
</trkpt>
<trkpt lat="64.253868103" lon="-20.485973358">
<ele>105.923828</ele>
<time>2012-07-19T17:24:16Z</time>
<speed>6.450000</speed>
<extensions>
<speed>6.4</speed>
<temp>0.00</temp>
<bpm>0</bpm>
<rpm>0.00</rpm>
</extensions>
</trkpt>
<trkpt lat="64.254081726" lon="-20.485490799">
<ele>104.402344</ele>
<time>2012-07-19T17:24:21Z</time>
<speed>6.930000</speed>
<extensions>
<speed>6.9</speed>
<temp>0.00</temp>
<bpm>0</bpm>
<rpm>0.00</rpm>
</extensions>
</trkpt>
<trkpt lat="64.254310608" lon="-20.484962463">
<ele>103.833984</ele>
<time>2012-07-19T17:24:26Z</time>
<speed>6.900000</speed>
<extensions>
<speed>6.9</speed>
<temp>0.00</temp>
<bpm>0</bpm>
<rpm>0.00</rpm>
</extensions>
</trkpt>
<trkpt lat="64.254531860" lon="-20.484457016">
<ele>103.269531</ele>
<time>2012-07-19T17:24:31Z</time>
<speed>6.980000</speed>
<extensions>
<speed>7.0</speed>
<temp>0.00</temp>
<bpm>0</bpm>
<rpm>0.00</rpm>
</extensions>
</trkpt>
<trkpt lat="64.254753113" lon="-20.483976364">
<ele>103.148438</ele>
<time>2012-07-19T17:24:36Z</time>
<speed>6.320000</speed>
<extensions>
<speed>6.3</speed>
<temp>0.00</temp>
<bpm>0</bpm>
<rpm>0.00</rpm>
</extensions>
</trkpt>
<trkpt lat="64.254951477" lon="-20.483497620">
<ele>103.283203</ele>
<time>2012-07-19T17:24:41Z</time>
<speed>5.910000</speed>
<extensions>
<speed>5.9</speed>
<temp>0.00</temp>
<bpm>0</bpm>
<rpm>0.00</rpm>
</extensions>
</trkpt>
<trkpt lat="64.255119324" lon="-20.483068466">
<ele>104.083984</ele>
<time>2012-07-19T17:24:46Z</time>
<speed>5.500000</speed>
<extensions>
<speed>5.5</speed>
<temp>0.00</temp>
<bpm>0</bpm>
<rpm>0.00</rpm>
</extensions>
</trkpt>
<trkpt lat="64.255271912" lon="-20.482662201">
<ele>104.531250</ele>
<time>2012-07-19T17:24:51Z</time>
<speed>5.070000</speed>
<extensions>
<speed>5.1</speed>
<temp>0.00</temp>
<bpm>0</bpm>
<rpm>0.00</rpm>
</extensions>
</trkpt>
<trkpt lat="64.255424500" lon="-20.482295990">
<ele>105.109375</ele>
<time>2012-07-19T17:24:56Z</time>
<speed>4.320000</speed>
<extensions>
<speed>4.3</speed>
<temp>0.00</temp>
<bpm>0</bpm>
<rpm>0.00</rpm>
</extensions>
</trkpt>
<trkpt lat="64.255561829" lon="-20.481977463">
<ele>105.394531</ele>
<time>2012-07-19T17:25:01Z</time>
<speed>4.420000</speed>
<extensions>
<speed>4.4</speed>
<temp>0.00</temp>
<bpm>0</bpm>
<rpm>0.00</rpm>
</extensions>
</trkpt>
<trkpt lat="64.255699158" lon="-20.481653214">
<ele>105.458984</ele>
<time>2012-07-19T17:25:06Z</time>
<speed>4.440000</speed>
<extensions>
<speed>4.4</speed>
<temp>0.00</temp>
<bpm>0</bpm>
<rpm>0.00</rpm>
</extensions>
</trkpt>
<trkpt lat="64.255828857" lon="-20.481323242">
<ele>105.681641</ele>
<time>2012-07-19T17:25:11Z</time>
<speed>3.940000</speed>
<extensions>
<speed>3.9</speed>
<temp>0.00</temp>
<bpm>0</bpm>
<rpm>0.00</rpm>
</extensions>
</trkpt>
<trkpt lat="64.255943298" lon="-20.481023788">
<ele>105.353516</ele>
<time>2012-07-19T17:25:16Z</time>
<speed>4.200000</speed>
<extensions>
<speed>4.2</speed>
<temp>0.00</temp>
<bpm>0</bpm>
<rpm>0.00</rpm>
</extensions>
</trkpt>
<trkpt lat="64.256072998" lon="-20.480703354">
<ele>105.179688</ele>
<time>2012-07-19T17:25:21Z</time>
<speed>4.440000</speed>
<extensions>
<speed>4.4</speed>
<temp>0.00</temp>
<bpm>0</bpm>
<rpm>0.00</rpm>
</extensions>
</trkpt>
<trkpt lat="64.256217957" lon="-20.480348587">
<ele>104.824219</ele>
<time>2012-07-19T17:25:26Z</time>
<speed>4.510000</speed>
<extensions>
<speed>4.5</speed>
<temp>0.00</temp>
<bpm>0</bpm>
<rpm>0.00</rpm>
</extensions>
</trkpt>
<trkpt lat="64.256370544" lon="-20.479993820">
<ele>104.787109</ele>
<time>2012-07-19T17:25:31Z</time>
<speed>4.760000</speed>
<extensions>
<speed>4.8</speed>
<temp>0.00</temp>
<bpm>0</bpm>
<rpm>0.00</rpm>
</extensions>
</trkpt>
<trkpt lat="64.256500244" lon="-20.479614258">
<ele>105.328125</ele>
<time>2012-07-19T17:25:36Z</time>
<speed>5.090000</speed>
<extensions>
<speed>5.1</speed>
<temp>0.00</temp>
<bpm>0</bpm>
<rpm>0.00</rpm>
</extensions>
</trkpt>
<trkpt lat="64.256660461" lon="-20.479215622">
<ele>104.998047</ele>
<time>2012-07-19T17:25:41Z</time>
<speed>5.390000</speed>
<extensions>
<speed>5.4</speed>
<temp>0.00</temp>
<bpm>0</bpm>
<rpm>0.00</rpm>
</extensions>
</trkpt>
<trkpt lat="64.256835938" lon="-20.478769302">
<ele>105.396484</ele>
<time>2012-07-19T17:25:46Z</time>
<speed>6.250000</speed>
<extensions>
<speed>6.3</speed>
<temp>0.00</temp>
<bpm>0</bpm>
<rpm>0.00</rpm>
</extensions>
</trkpt>
<trkpt lat="64.257034302" lon="-20.478284836">
<ele>104.388672</ele>
<time>2012-07-19T17:25:51Z</time>
<speed>6.240000</speed>
<extensions>
<speed>6.2</speed>
<temp>0.00</temp>
<bpm>0</bpm>
<rpm>0.00</rpm>
</extensions>
</trkpt>
<trkpt lat="64.257232666" lon="-20.477830887">
<ele>103.328125</ele>
<time>2012-07-19T17:25:56Z</time>
<speed>5.470000</speed>
<extensions>
<speed>5.5</speed>
<temp>0.00</temp>
<bpm>0</bpm>
<rpm>0.00</rpm>
</extensions>
</trkpt>
<trkpt lat="64.257392883" lon="-20.477399826">
<ele>103.285156</ele>
<time>2012-07-19T17:26:01Z</time>
<speed>5.300000</speed>
<extensions>
<speed>5.3</speed>
<temp>0.00</temp>
<bpm>0</bpm>
<rpm>0.00</rpm>
</extensions>
</trkpt>
<trkpt lat="64.257545471" lon="-20.476985931">
<ele>103.937500</ele>
<time>2012-07-19T17:26:06Z</time>
<speed>5.340000</speed>
<extensions>
<speed>5.3</speed>
<temp>0.00</temp>
<bpm>0</bpm>
<rpm>0.00</rpm>
</extensions>
</trkpt>
<trkpt lat="64.257698059" lon="-20.476583481">
<ele>104.681641</ele>
<time>2012-07-19T17:26:11Z</time>
<speed>4.990000</speed>
<extensions>
<speed>5.0</speed>
<temp>0.00</temp>
<bpm>0</bpm>
<rpm>0.00</rpm>
</extensions>
</trkpt>
<trkpt lat="64.257850647" lon="-20.476236343">
<ele>103.955078</ele>
<time>2012-07-19T17:26:16Z</time>
<speed>4.670000</speed>
<extensions>
<speed>4.7</speed>
<temp>0.00</temp>
<bpm>0</bpm>
<rpm>0.00</rpm>
</extensions>
</trkpt>
<trkpt lat="64.257995605" lon="-20.475885391">
<ele>103.474609</ele>
<time>2012-07-19T17:26:21Z</time>
<speed>4.600000</speed>
<extensions>
<speed>4.6</speed>
<temp>0.00</temp>
<bpm>0</bpm>
<rpm>0.00</rpm>
</extensions>
</trkpt>
<trkpt lat="64.258132935" lon="-20.475563049">
<ele>104.423828</ele>
<time>2012-07-19T17:26:26Z</time>
<speed>4.400000</speed>
<extensions>
<speed>4.4</speed>
<temp>0.00</temp>
<bpm>0</bpm>
<rpm>0.00</rpm>
</extensions>
</trkpt>
<trkpt lat="64.258277893" lon="-20.475254059">
<ele>105.029297</ele>
<time>2012-07-19T17:26:31Z</time>
<speed>4.290000</speed>
<extensions>
<speed>4.3</speed>
<temp>0.00</temp>
<bpm>0</bpm>
<rpm>0.00</rpm>
</extensions>
</trkpt>
<trkpt lat="64.258384705" lon="-20.475032806">
<ele>105.111328</ele>
<time>2012-07-19T17:26:36Z</time>
<speed>3.030000</speed>
<extensions>
<speed>3.0</speed>
<temp>0.00</temp>
<bpm>0</bpm>
<rpm>0.00</rpm>
</extensions>
</trkpt>
<trkpt lat="64.258514404" lon="-20.474803925">
<ele>105.681641</ele>
<time>2012-07-19T17:26:41Z</time>
<speed>3.700000</speed>
<extensions>
<speed>3.7</speed>
<temp>0.00</temp>
<bpm>0</bpm>
<rpm>0.00</rpm>
</extensions>
</trkpt>
<trkpt lat="64.258644104" lon="-20.474580765">
<ele>106.460938</ele>
<time>2012-07-19T17:26:46Z</time>
<speed>3.280000</speed>
<extensions>
<speed>3.3</speed>
<temp>0.00</temp>
<bpm>0</bpm>
<rpm>0.00</rpm>
</extensions>
</trkpt>
<trkpt lat="64.258750916" lon="-20.474426270">
<ele>107.140625</ele>
<time>2012-07-19T17:26:51Z</time>
<speed>2.650000</speed>
<extensions>
<speed>2.6</speed>
<temp>0.00</temp>
<bpm>0</bpm>
<rpm>0.00</rpm>
</extensions>
</trkpt>
<trkpt lat="64.258865356" lon="-20.474250793">
<ele>108.011719</ele>
<time>2012-07-19T17:26:56Z</time>
<speed>3.480000</speed>
<extensions>
<speed>3.5</speed>
<temp>0.00</temp>
<bpm>0</bpm>
<rpm>0.00</rpm>
</extensions>
</trkpt>
<trkpt lat="64.258995056" lon="-20.474073410">
<ele>108.468750</ele>
<time>2012-07-19T17:27:01Z</time>
<speed>3.440000</speed>
<extensions>
<speed>3.4</speed>
<temp>0.00</temp>
<bpm>0</bpm>
<rpm>0.00</rpm>
</extensions>
</trkpt>
<trkpt lat="64.259124756" lon="-20.473913193">
<ele>108.878906</ele>
<time>2012-07-19T17:27:06Z</time>
<speed>3.910000</speed>
<extensions>
<speed>3.9</speed>
<temp>0.00</temp>
<bpm>0</bpm>
<rpm>0.00</rpm>
</extensions>
</trkpt>
<trkpt lat="64.259277344" lon="-20.473731995">
<ele>108.714844</ele>
<time>2012-07-19T17:27:11Z</time>
<speed>3.250000</speed>
<extensions>
<speed>3.2</speed>
<temp>0.00</temp>
<bpm>0</bpm>
<rpm>0.00</rpm>
</extensions>
</trkpt>
<trkpt lat="64.259414673" lon="-20.473564148">
<ele>108.822266</ele>
<time>2012-07-19T17:27:16Z</time>
<speed>3.640000</speed>
<extensions>
<speed>3.6</speed>
<temp>0.00</temp>
<bpm>0</bpm>
<rpm>0.00</rpm>
</extensions>
</trkpt>
<trkpt lat="64.259567261" lon="-20.473394394">
<ele>109.761719</ele>
<time>2012-07-19T17:27:21Z</time>
<speed>3.520000</speed>
<extensions>
<speed>3.5</speed>
<temp>0.00</temp>
<bpm>0</bpm>
<rpm>0.00</rpm>
</extensions>
</trkpt>
<trkpt lat="64.259689331" lon="-20.473268509">
<ele>110.882813</ele>
<time>2012-07-19T17:27:26Z</time>
<speed>2.710000</speed>
<extensions>
<speed>2.7</speed>
<temp>0.00</temp>
<bpm>0</bpm>
<rpm>0.00</rpm>
</extensions>
</trkpt>
<trkpt lat="64.259811401" lon="-20.473136902">
<ele>111.941406</ele>
<time>2012-07-19T17:27:31Z</time>
<speed>3.360000</speed>
<extensions>
<speed>3.4</speed>
<temp>0.00</temp>
<bpm>0</bpm>
<rpm>0.00</rpm>
</extensions>
</trkpt>
<trkpt lat="64.259941101" lon="-20.472993851">
<ele>112.560547</ele>
<time>2012-07-19T17:27:36Z</time>
<speed>3.570000</speed>
<extensions>
<speed>3.6</speed>
<temp>0.00</temp>
<bpm>0</bpm>
<rpm>0.00</rpm>
</extensions>
</trkpt>
<trkpt lat="64.260063171" lon="-20.472852707">
<ele>112.820313</ele>
<time>2012-07-19T17:27:41Z</time>
<speed>2.990000</speed>
<extensions>
<speed>3.0</speed>
<temp>0.00</temp>
<bpm>0</bpm>
<rpm>0.00</rpm>
</extensions>
</trkpt>
<trkpt lat="64.260177612" lon="-20.472723007">
<ele>113.416016</ele>
<time>2012-07-19T17:27:46Z</time>
<speed>3.050000</speed>
<extensions>
<speed>3.0</speed>
<temp>0.00</temp>
<bpm>0</bpm>
<rpm>0.00</rpm>
</extensions>
</trkpt>
<trkpt lat="64.260307312" lon="-20.472581863">
<ele>113.974609</ele>
<time>2012-07-19T17:27:51Z</time>
<speed>3.160000</speed>
<extensions>
<speed>3.2</speed>
<temp>0.00</temp>
<bpm>0</bpm>
<rpm>0.00</rpm>
</extensions>
</trkpt>
<trkpt lat="64.260391235" lon="-20.472465515">
<ele>113.982422</ele>
<time>2012-07-19T17:27:56Z</time>
<speed>1.720000</speed>
<extensions>
<speed>1.7</speed>
<temp>0.00</temp>
<bpm>0</bpm>
<rpm>0.00</rpm>
</extensions>
</trkpt>
<trkpt lat="64.260444641" lon="-20.472391129">
<ele>114.439453</ele>
<time>2012-07-19T17:28:01Z</time>
<speed>0.450000</speed>
<extensions>
<speed>0.5</speed>
<temp>0.00</temp>
<bpm>0</bpm>
<rpm>0.00</rpm>
</extensions>
</trkpt>
<trkpt lat="64.260452271" lon="-20.472393036">
<ele>114.605469</ele>
<time>2012-07-19T17:28:06Z</time>
<speed>0.070000</speed>
<extensions>
<speed>0.1</speed>
<temp>0.00</temp>
<bpm>0</bpm>
<rpm>0.00</rpm>
</extensions>
</trkpt>
<trkpt lat="64.260444641" lon="-20.472393036">
<ele>114.546875</ele>
<time>2012-07-19T17:28:11Z</time>
<speed>0.080000</speed>
<extensions>
<speed>0.1</speed>
<temp>0.00</temp>
<bpm>0</bpm>
<rpm>0.00</rpm>
</extensions>
</trkpt>
<trkpt lat="64.260444641" lon="-20.472387314">
<ele>114.664063</ele>
<time>2012-07-19T17:28:16Z</time>
<speed>0.010000</speed>
<extensions>
<speed>0.0</speed>
<temp>0.00</temp>
<bpm>0</bpm>
<rpm>0.00</rpm>
</extensions>
</trkpt>
<trkpt lat="64.260444641" lon="-20.472385406">
<ele>114.708984</ele>
<time>2012-07-19T17:28:21Z</time>
<speed>0.020000</speed>
<extensions>
<speed>0.0</speed>
<temp>0.00</temp>
<bpm>0</bpm>
<rpm>0.00</rpm>
</extensions>
</trkpt>
<trkpt lat="64.260452271" lon="-20.472385406">
<ele>114.814453</ele>
<time>2012-07-19T17:28:26Z</time>
<speed>0.030000</speed>
<extensions>
<speed>0.0</speed>
<temp>0.00</temp>
<bpm>0</bpm>
<rpm>0.00</rpm>
</extensions>
</trkpt>
<trkpt lat="64.260452271" lon="-20.472381592">
<ele>114.849609</ele>
<time>2012-07-19T17:28:31Z</time>
<extensions>
<speed>0.0</speed>
<temp>0.00</temp>
<bpm>0</bpm>
<rpm>0.00</rpm>
</extensions>
</trkpt>
<trkpt lat="64.260452271" lon="-20.472379684">
<ele>114.884766</ele>
<time>2012-07-19T17:28:36Z</time>
<extensions>
<speed>0.0</speed>
<temp>0.00</temp>
<bpm>0</bpm>
<rpm>0.00</rpm>
</extensions>
</trkpt>
<trkpt lat="64.260452271" lon="-20.472377777">
<ele>114.910156</ele>
<time>2012-07-19T17:28:41Z</time>
<speed>0.030000</speed>
<extensions>
<speed>0.0</speed>
<temp>0.00</temp>
<bpm>0</bpm>
<rpm>0.00</rpm>
</extensions>
</trkpt>
<trkpt lat="64.260452271" lon="-20.472381592">
<ele>114.912109</ele>
<time>2012-07-19T17:28:46Z</time>
<speed>0.100000</speed>
<extensions>
<speed>0.1</speed>
<temp>0.00</temp>
<bpm>0</bpm>
<rpm>0.00</rpm>
</extensions>
</trkpt>
<trkpt lat="64.260452271" lon="-20.472389221">
<ele>114.935547</ele>
<time>2012-07-19T17:28:51Z</time>
<speed>0.030000</speed>
<extensions>
<speed>0.0</speed>
<temp>0.00</temp>
<bpm>0</bpm>
<rpm>0.00</rpm>
</extensions>
</trkpt>
<trkpt lat="64.260452271" lon="-20.472389221">
<ele>114.937500</ele>
<time>2012-07-19T17:28:56Z</time>
<speed>0.040000</speed>
<extensions>
<speed>0.0</speed>
<temp>0.00</temp>
<bpm>0</bpm>
<rpm>0.00</rpm>
</extensions>
</trkpt>
<trkpt lat="64.260444641" lon="-20.472389221">
<ele>114.976563</ele>
<time>2012-07-19T17:29:01Z</time>
<speed>0.020000</speed>
<extensions>
<speed>0.0</speed>
<temp>0.00</temp>
<bpm>0</bpm>
<rpm>0.00</rpm>
</extensions>
</trkpt>
<trkpt lat="64.260444641" lon="-20.472389221">
<ele>114.966797</ele>
<time>2012-07-19T17:29:06Z</time>
<speed>0.080000</speed>
<extensions>
<speed>0.1</speed>
<temp>0.00</temp>
<bpm>0</bpm>
<rpm>0.00</rpm>
</extensions>
</trkpt>
<trkpt lat="64.260444641" lon="-20.472389221">
<ele>114.966797</ele>
<time>2012-07-19T17:29:11Z</time>
<speed>0.010000</speed>
<extensions>
<speed>0.0</speed>
<temp>0.00</temp>
<bpm>0</bpm>
<rpm>0.00</rpm>
</extensions>
</trkpt>
<trkpt lat="64.260444641" lon="-20.472389221">
<ele>114.970703</ele>
<time>2012-07-19T17:29:16Z</time>
<speed>0.010000</speed>
<extensions>
<speed>0.0</speed>
<temp>0.00</temp>
<bpm>0</bpm>
<rpm>0.00</rpm>
</extensions>
</trkpt>
<trkpt lat="64.260444641" lon="-20.472389221">
<ele>114.966797</ele>
<time>2012-07-19T17:29:21Z</time>
<extensions>
<speed>0.0</speed>
<temp>0.00</temp>
<bpm>0</bpm>
<rpm>0.00</rpm>
</extensions>
</trkpt>
<trkpt lat="64.260444641" lon="-20.472389221">
<ele>114.964844</ele>
<time>2012-07-19T17:29:26Z</time>
<extensions>
<speed>0.0</speed>
<temp>0.00</temp>
<bpm>0</bpm>
<rpm>0.00</rpm>
</extensions>
</trkpt>
<trkpt lat="64.260444641" lon="-20.472389221">
<ele>114.962891</ele>
<time>2012-07-19T17:29:31Z</time>
<extensions>
<speed>0.0</speed>
<temp>0.00</temp>
<bpm>0</bpm>
<rpm>0.00</rpm>
</extensions>
</trkpt>
<trkpt lat="64.260444641" lon="-20.472389221">
<ele>114.962891</ele>
<time>2012-07-19T17:29:36Z</time>
<extensions>
<speed>0.0</speed>
<temp>0.00</temp>
<bpm>0</bpm>
<rpm>0.00</rpm>
</extensions>
</trkpt>
<trkpt lat="64.260444641" lon="-20.472389221">
<ele>114.972656</ele>
<time>2012-07-19T17:29:41Z</time>
<extensions>
<speed>0.0</speed>
<temp>0.00</temp>
<bpm>0</bpm>
<rpm>0.00</rpm>
</extensions>
</trkpt>
<trkpt lat="64.260444641" lon="-20.472391129">
<ele>114.974609</ele>
<time>2012-07-19T17:29:46Z</time>
<extensions>
<speed>0.0</speed>
<temp>0.00</temp>
<bpm>0</bpm>
<rpm>0.00</rpm>
</extensions>
</trkpt>
<trkpt lat="64.260444641" lon="-20.472391129">
<ele>114.980469</ele>
<time>2012-07-19T17:29:51Z</time>
<extensions>
<speed>0.0</speed>
<temp>0.00</temp>
<bpm>0</bpm>
<rpm>0.00</rpm>
</extensions>
</trkpt>
<trkpt lat="64.260444641" lon="-20.472391129">
<ele>114.986328</ele>
<time>2012-07-19T17:29:56Z</time>
<extensions>
<speed>0.0</speed>
<temp>0.00</temp>
<bpm>0</bpm>
<rpm>0.00</rpm>
</extensions>
</trkpt>
<trkpt lat="64.260444641" lon="-20.472391129">
<ele>114.990234</ele>
<time>2012-07-19T17:30:01Z</time>
<extensions>
<speed>0.0</speed>
<temp>0.00</temp>
<bpm>0</bpm>
<rpm>0.00</rpm>
</extensions>
</trkpt>
<trkpt lat="64.260444641" lon="-20.472391129">
<ele>114.992188</ele>
<time>2012-07-19T17:30:06Z</time>
<speed>0.010000</speed>
<extensions>
<speed>0.0</speed>
<temp>0.00</temp>
<bpm>0</bpm>
<rpm>0.00</rpm>
</extensions>
</trkpt>
<trkpt lat="64.260444641" lon="-20.472391129">
<ele>114.998047</ele>
<time>2012-07-19T17:30:11Z</time>
<speed>0.010000</speed>
<extensions>
<speed>0.0</speed>
<temp>0.00</temp>
<bpm>0</bpm>
<rpm>0.00</rpm>
</extensions>
</trkpt>
<trkpt lat="64.260444641" lon="-20.472391129">
<ele>115.000000</ele>
<time>2012-07-19T17:30:16Z</time>
<speed>0.010000</speed>
<extensions>
<speed>0.0</speed>
<temp>0.00</temp>
<bpm>0</bpm>
<rpm>0.00</rpm>
</extensions>
</trkpt>
<trkpt lat="64.260444641" lon="-20.472391129">
<ele>115.005859</ele>
<time>2012-07-19T17:30:21Z</time>
<extensions>
<speed>0.0</speed>
<temp>0.00</temp>
<bpm>0</bpm>
<rpm>0.00</rpm>
</extensions>
</trkpt>
<trkpt lat="64.260444641" lon="-20.472391129">
<ele>115.013672</ele>
<time>2012-07-19T17:30:26Z</time>
<extensions>
<speed>0.0</speed>
<temp>0.00</temp>
<bpm>0</bpm>
<rpm>0.00</rpm>
</extensions>
</trkpt>
<trkpt lat="64.260444641" lon="-20.472391129">
<ele>115.013672</ele>
<time>2012-07-19T17:30:31Z</time>
<extensions>
<speed>0.0</speed>
<temp>0.00</temp>
<bpm>0</bpm>
<rpm>0.00</rpm>
</extensions>
</trkpt>
<trkpt lat="64.260444641" lon="-20.472391129">
<ele>115.009766</ele>
<time>2012-07-19T17:30:36Z</time>
<speed>0.040000</speed>
<extensions>
<speed>0.0</speed>
<temp>0.00</temp>
<bpm>0</bpm>
<rpm>0.00</rpm>
</extensions>
</trkpt>
<trkpt lat="64.260444641" lon="-20.472393036">
<ele>114.966797</ele>
<time>2012-07-19T17:30:41Z</time>
<speed>0.240000</speed>
<extensions>
<speed>0.2</speed>
<temp>0.00</temp>
<bpm>0</bpm>
<rpm>0.00</rpm>
</extensions>
</trkpt>
<trkpt lat="64.260444641" lon="-20.472389221">
<ele>114.982422</ele>
<time>2012-07-19T17:30:46Z</time>
<speed>0.010000</speed>
<extensions>
<speed>0.0</speed>
<temp>0.00</temp>
<bpm>0</bpm>
<rpm>0.00</rpm>
</extensions>
</trkpt>
<trkpt lat="64.260444641" lon="-20.472389221">
<ele>114.976563</ele>
<time>2012-07-19T17:30:51Z</time>
<speed>0.020000</speed>
<extensions>
<speed>0.0</speed>
<temp>0.00</temp>
<bpm>0</bpm>
<rpm>0.00</rpm>
</extensions>
</trkpt>
<trkpt lat="64.260444641" lon="-20.472389221">
<ele>114.974609</ele>
<time>2012-07-19T17:30:56Z</time>
<extensions>
<speed>0.0</speed>
<temp>0.00</temp>
<bpm>0</bpm>
<rpm>0.00</rpm>
</extensions>
</trkpt>
<trkpt lat="64.260444641" lon="-20.472389221">
<ele>114.976563</ele>
<time>2012-07-19T17:31:01Z</time>
<extensions>
<speed>0.0</speed>
<temp>0.00</temp>
<bpm>0</bpm>
<rpm>0.00</rpm>
</extensions>
</trkpt>
<trkpt lat="64.260444641" lon="-20.472389221">
<ele>114.980469</ele>
<time>2012-07-19T17:31:06Z</time>
<extensions>
<speed>0.0</speed>
<temp>0.00</temp>
<bpm>0</bpm>
<rpm>0.00</rpm>
</extensions>
</trkpt>
<trkpt lat="64.260444641" lon="-20.472389221">
<ele>114.982422</ele>
<time>2012-07-19T17:31:11Z</time>
<speed>0.020000</speed>
<extensions>
<speed>0.0</speed>
<temp>0.00</temp>
<bpm>0</bpm>
<rpm>0.00</rpm>
</extensions>
</trkpt>
<trkpt lat="64.260444641" lon="-20.472389221">
<ele>114.978516</ele>
<time>2012-07-19T17:31:16Z</time>
<speed>0.010000</speed>
<extensions>
<speed>0.0</speed>
<temp>0.00</temp>
<bpm>0</bpm>
<rpm>0.00</rpm>
</extensions>
</trkpt>
<trkpt lat="64.260444641" lon="-20.472389221">
<ele>114.984375</ele>
<time>2012-07-19T17:31:21Z</time>
<extensions>
<speed>0.0</speed>
<temp>0.00</temp>
<bpm>0</bpm>
<rpm>0.00</rpm>
</extensions>
</trkpt>
<trkpt lat="64.260444641" lon="-20.472389221">
<ele>114.986328</ele>
<time>2012-07-19T17:31:26Z</time>
<speed>0.010000</speed>
<extensions>
<speed>0.0</speed>
<temp>0.00</temp>
<bpm>0</bpm>
<rpm>0.00</rpm>
</extensions>
</trkpt>
<trkpt lat="64.260444641" lon="-20.472389221">
<ele>114.992188</ele>
<time>2012-07-19T17:31:31Z</time>
<extensions>
<speed>0.0</speed>
<temp>0.00</temp>
<bpm>0</bpm>
<rpm>0.00</rpm>
</extensions>
</trkpt>
<trkpt lat="64.260444641" lon="-20.472389221">
<ele>114.996094</ele>
<time>2012-07-19T17:31:36Z</time>
<extensions>
<speed>0.0</speed>
<temp>0.00</temp>
<bpm>0</bpm>
<rpm>0.00</rpm>
</extensions>
</trkpt>
<trkpt lat="64.260444641" lon="-20.472389221">
<ele>114.998047</ele>
<time>2012-07-19T17:31:41Z</time>
<extensions>
<speed>0.0</speed>
<temp>0.00</temp>
<bpm>0</bpm>
<rpm>0.00</rpm>
</extensions>
</trkpt>
<trkpt lat="64.260444641" lon="-20.472389221">
<ele>115.000000</ele>
<time>2012-07-19T17:31:46Z</time>
<speed>0.010000</speed>
<extensions>
<speed>0.0</speed>
<temp>0.00</temp>
<bpm>0</bpm>
<rpm>0.00</rpm>
</extensions>
</trkpt>
<trkpt lat="64.260444641" lon="-20.472389221">
<ele>115.000000</ele>
<time>2012-07-19T17:31:51Z</time>
<extensions>
<speed>0.0</speed>
<temp>0.00</temp>
<bpm>0</bpm>
<rpm>0.00</rpm>
</extensions>
</trkpt>
<trkpt lat="64.260444641" lon="-20.472389221">
<ele>115.007813</ele>
<time>2012-07-19T17:31:56Z</time>
<extensions>
<speed>0.0</speed>
<temp>0.00</temp>
<bpm>0</bpm>
<rpm>0.00</rpm>
</extensions>
</trkpt>
<trkpt lat="64.260444641" lon="-20.472389221">
<ele>115.011719</ele>
<time>2012-07-19T17:32:01Z</time>
<speed>0.010000</speed>
<extensions>
<speed>0.0</speed>
<temp>0.00</temp>
<bpm>0</bpm>
<rpm>0.00</rpm>
</extensions>
</trkpt>
<trkpt lat="64.260444641" lon="-20.472389221">
<ele>115.015625</ele>
<time>2012-07-19T17:32:06Z</time>
<speed>0.010000</speed>
<extensions>
<speed>0.0</speed>
<temp>0.00</temp>
<bpm>0</bpm>
<rpm>0.00</rpm>
</extensions>
</trkpt>
<trkpt lat="64.260444641" lon="-20.472389221">
<ele>115.025391</ele>
<time>2012-07-19T17:32:11Z</time>
<extensions>
<speed>0.0</speed>
<temp>0.00</temp>
<bpm>0</bpm>
<rpm>0.00</rpm>
</extensions>
</trkpt>
<trkpt lat="64.260444641" lon="-20.472389221">
<ele>115.027344</ele>
<time>2012-07-19T17:32:16Z</time>
<speed>0.010000</speed>
<extensions>
<speed>0.0</speed>
<temp>0.00</temp>
<bpm>0</bpm>
<rpm>0.00</rpm>
</extensions>
</trkpt>
<trkpt lat="64.260444641" lon="-20.472387314">
<ele>115.027344</ele>
<time>2012-07-19T17:32:21Z</time>
<extensions>
<speed>0.0</speed>
<temp>0.00</temp>
<bpm>0</bpm>
<rpm>0.00</rpm>
</extensions>
</trkpt>
<trkpt lat="64.260444641" lon="-20.472387314">
<ele>115.023438</ele>
<time>2012-07-19T17:32:26Z</time>
<speed>0.010000</speed>
<extensions>
<speed>0.0</speed>
<temp>0.00</temp>
<bpm>0</bpm>
<rpm>0.00</rpm>
</extensions>
</trkpt>
<trkpt lat="64.260444641" lon="-20.472387314">
<ele>115.027344</ele>
<time>2012-07-19T17:32:31Z</time>
<extensions>
<speed>0.0</speed>
<temp>0.00</temp>
<bpm>0</bpm>
<rpm>0.00</rpm>
</extensions>
</trkpt>
<trkpt lat="64.260444641" lon="-20.472387314">
<ele>115.025391</ele>
<time>2012-07-19T17:32:36Z</time>
<speed>0.010000</speed>
<extensions>
<speed>0.0</speed>
<temp>0.00</temp>
<bpm>0</bpm>
<rpm>0.00</rpm>
</extensions>
</trkpt>
<trkpt lat="64.260444641" lon="-20.472387314">
<ele>115.025391</ele>
<time>2012-07-19T17:32:41Z</time>
<extensions>
<speed>0.0</speed>
<temp>0.00</temp>
<bpm>0</bpm>
<rpm>0.00</rpm>
</extensions>
</trkpt>
<trkpt lat="64.260444641" lon="-20.472387314">
<ele>115.021484</ele>
<time>2012-07-19T17:32:46Z</time>
<extensions>
<speed>0.0</speed>
<temp>0.00</temp>
<bpm>0</bpm>
<rpm>0.00</rpm>
</extensions>
</trkpt>
<trkpt lat="64.260444641" lon="-20.472385406">
<ele>115.021484</ele>
<time>2012-07-19T17:32:51Z</time>
<extensions>
<speed>0.0</speed>
<temp>0.00</temp>
<bpm>0</bpm>
<rpm>0.00</rpm>
</extensions>
</trkpt>
<trkpt lat="64.260444641" lon="-20.472385406">
<ele>115.019531</ele>
<time>2012-07-19T17:32:56Z</time>
<extensions>
<speed>0.0</speed>
<temp>0.00</temp>
<bpm>0</bpm>
<rpm>0.00</rpm>
</extensions>
</trkpt>
<trkpt lat="64.260444641" lon="-20.472385406">
<ele>115.019531</ele>
<time>2012-07-19T17:33:01Z</time>
<extensions>
<speed>0.0</speed>
<temp>0.00</temp>
<bpm>0</bpm>
<rpm>0.00</rpm>
</extensions>
</trkpt>
<trkpt lat="64.260444641" lon="-20.472385406">
<ele>115.015625</ele>
<time>2012-07-19T17:33:06Z</time>
<extensions>
<speed>0.0</speed>
<temp>0.00</temp>
<bpm>0</bpm>
<rpm>0.00</rpm>
</extensions>
</trkpt>
<trkpt lat="64.260444641" lon="-20.472385406">
<ele>115.021484</ele>
<time>2012-07-19T17:33:11Z</time>
<extensions>
<speed>0.0</speed>
<temp>0.00</temp>
<bpm>0</bpm>
<rpm>0.00</rpm>
</extensions>
</trkpt>
<trkpt lat="64.260444641" lon="-20.472385406">
<ele>115.021484</ele>
<time>2012-07-19T17:33:16Z</time>
<extensions>
<speed>0.0</speed>
<temp>0.00</temp>
<bpm>0</bpm>
<rpm>0.00</rpm>
</extensions>
</trkpt>
<trkpt lat="64.260444641" lon="-20.472385406">
<ele>115.023438</ele>
<time>2012-07-19T17:33:21Z</time>
<extensions>
<speed>0.0</speed>
<temp>0.00</temp>
<bpm>0</bpm>
<rpm>0.00</rpm>
</extensions>
</trkpt>
<trkpt lat="64.260444641" lon="-20.472385406">
<ele>115.025391</ele>
<time>2012-07-19T17:33:26Z</time>
<extensions>
<speed>0.0</speed>
<temp>0.00</temp>
<bpm>0</bpm>
<rpm>0.00</rpm>
</extensions>
</trkpt>
<trkpt lat="64.260444641" lon="-20.472385406">
<ele>115.027344</ele>
<time>2012-07-19T17:33:31Z</time>
<extensions>
<speed>0.0</speed>
<temp>0.00</temp>
<bpm>0</bpm>
<rpm>0.00</rpm>
</extensions>
</trkpt>
<trkpt lat="64.260444641" lon="-20.472385406">
<ele>115.029297</ele>
<time>2012-07-19T17:33:36Z</time>
<extensions>
<speed>0.0</speed>
<temp>0.00</temp>
<bpm>0</bpm>
<rpm>0.00</rpm>
</extensions>
</trkpt>
<trkpt lat="64.260444641" lon="-20.472385406">
<ele>115.031250</ele>
<time>2012-07-19T17:33:41Z</time>
<extensions>
<speed>0.0</speed>
<temp>0.00</temp>
<bpm>0</bpm>
<rpm>0.00</rpm>
</extensions>
</trkpt>
<trkpt lat="64.260444641" lon="-20.472385406">
<ele>115.035156</ele>
<time>2012-07-19T17:33:46Z</time>
<extensions>
<speed>0.0</speed>
<temp>0.00</temp>
<bpm>0</bpm>
<rpm>0.00</rpm>
</extensions>
</trkpt>
<trkpt lat="64.260444641" lon="-20.472385406">
<ele>115.035156</ele>
<time>2012-07-19T17:33:51Z</time>
<extensions>
<speed>0.0</speed>
<temp>0.00</temp>
<bpm>0</bpm>
<rpm>0.00</rpm>
</extensions>
</trkpt>
<trkpt lat="64.260444641" lon="-20.472385406">
<ele>115.035156</ele>
<time>2012-07-19T17:33:56Z</time>
<extensions>
<speed>0.0</speed>
<temp>0.00</temp>
<bpm>0</bpm>
<rpm>0.00</rpm>
</extensions>
</trkpt>
<trkpt lat="64.260444641" lon="-20.472385406">
<ele>115.037109</ele>
<time>2012-07-19T17:34:01Z</time>
<speed>0.010000</speed>
<extensions>
<speed>0.0</speed>
<temp>0.00</temp>
<bpm>0</bpm>
<rpm>0.00</rpm>
</extensions>
</trkpt>
<trkpt lat="64.260444641" lon="-20.472385406">
<ele>115.037109</ele>
<time>2012-07-19T17:34:06Z</time>
<extensions>
<speed>0.0</speed>
<temp>0.00</temp>
<bpm>0</bpm>
<rpm>0.00</rpm>
</extensions>
</trkpt>
<trkpt lat="64.260444641" lon="-20.472385406">
<ele>115.037109</ele>
<time>2012-07-19T17:34:11Z</time>
<extensions>
<speed>0.0</speed>
<temp>0.00</temp>
<bpm>0</bpm>
<rpm>0.00</rpm>
</extensions>
</trkpt>
<trkpt lat="64.260444641" lon="-20.472385406">
<ele>115.041016</ele>
<time>2012-07-19T17:34:16Z</time>
<extensions>
<speed>0.0</speed>
<temp>0.00</temp>
<bpm>0</bpm>
<rpm>0.00</rpm>
</extensions>
</trkpt>
<trkpt lat="64.260444641" lon="-20.472385406">
<ele>115.041016</ele>
<time>2012-07-19T17:34:21Z</time>
<extensions>
<speed>0.0</speed>
<temp>0.00</temp>
<bpm>0</bpm>
<rpm>0.00</rpm>
</extensions>
</trkpt>
<trkpt lat="64.260444641" lon="-20.472385406">
<ele>115.041016</ele>
<time>2012-07-19T17:34:26Z</time>
<speed>0.030000</speed>
<extensions>
<speed>0.0</speed>
<temp>0.00</temp>
<bpm>0</bpm>
<rpm>0.00</rpm>
</extensions>
</trkpt>
<trkpt lat="64.260444641" lon="-20.472385406">
<ele>115.041016</ele>
<time>2012-07-19T17:34:31Z</time>
<extensions>
<speed>0.0</speed>
<temp>0.00</temp>
<bpm>0</bpm>
<rpm>0.00</rpm>
</extensions>
</trkpt>
<trkpt lat="64.260444641" lon="-20.472385406">
<ele>115.041016</ele>
<time>2012-07-19T17:34:36Z</time>
<extensions>
<speed>0.0</speed>
<temp>0.00</temp>
<bpm>0</bpm>
<rpm>0.00</rpm>
</extensions>
</trkpt>
<trkpt lat="64.260444641" lon="-20.472385406">
<ele>115.041016</ele>
<time>2012-07-19T17:34:41Z</time>
<extensions>
<speed>0.0</speed>
<temp>0.00</temp>
<bpm>0</bpm>
<rpm>0.00</rpm>
</extensions>
</trkpt>
<trkpt lat="64.260444641" lon="-20.472385406">
<ele>115.039063</ele>
<time>2012-07-19T17:34:46Z</time>
<extensions>
<speed>0.0</speed>
<temp>0.00</temp>
<bpm>0</bpm>
<rpm>0.00</rpm>
</extensions>
</trkpt>
<trkpt lat="64.260444641" lon="-20.472385406">
<ele>115.044922</ele>
<time>2012-07-19T17:34:51Z</time>
<extensions>
<speed>0.0</speed>
<temp>0.00</temp>
<bpm>0</bpm>
<rpm>0.00</rpm>
</extensions>
</trkpt>
<trkpt lat="64.260444641" lon="-20.472385406">
<ele>115.048828</ele>
<time>2012-07-19T17:34:56Z</time>
<extensions>
<speed>0.0</speed>
<temp>0.00</temp>
<bpm>0</bpm>
<rpm>0.00</rpm>
</extensions>
</trkpt>
<trkpt lat="64.260444641" lon="-20.472385406">
<ele>115.052734</ele>
<time>2012-07-19T17:35:01Z</time>
<extensions>
<speed>0.0</speed>
<temp>0.00</temp>
<bpm>0</bpm>
<rpm>0.00</rpm>
</extensions>
</trkpt>
<trkpt lat="64.260444641" lon="-20.472385406">
<ele>115.050781</ele>
<time>2012-07-19T17:35:06Z</time>
<speed>0.010000</speed>
<extensions>
<speed>0.0</speed>
<temp>0.00</temp>
<bpm>0</bpm>
<rpm>0.00</rpm>
</extensions>
</trkpt>
<trkpt lat="64.260444641" lon="-20.472385406">
<ele>115.048828</ele>
<time>2012-07-19T17:35:11Z</time>
<extensions>
<speed>0.0</speed>
<temp>0.00</temp>
<bpm>0</bpm>
<rpm>0.00</rpm>
</extensions>
</trkpt>
<trkpt lat="64.260444641" lon="-20.472385406">
<ele>115.050781</ele>
<time>2012-07-19T17:35:16Z</time>
<speed>0.010000</speed>
<extensions>
<speed>0.0</speed>
<temp>0.00</temp>
<bpm>0</bpm>
<rpm>0.00</rpm>
</extensions>
</trkpt>
<trkpt lat="64.260444641" lon="-20.472385406">
<ele>115.031250</ele>
<time>2012-07-19T17:35:21Z</time>
<extensions>
<speed>0.0</speed>
<temp>0.00</temp>
<bpm>0</bpm>
<rpm>0.00</rpm>
</extensions>
</trkpt>
<trkpt lat="64.260459900" lon="-20.472385406">
<ele>114.970703</ele>
<time>2012-07-19T17:35:26Z</time>
<speed>0.800000</speed>
<extensions>
<speed>0.8</speed>
<temp>0.00</temp>
<bpm>0</bpm>
<rpm>0.00</rpm>
</extensions>
</trkpt>
<trkpt lat="64.260520935" lon="-20.472322464">
<ele>115.542969</ele>
<time>2012-07-19T17:35:31Z</time>
<speed>1.990000</speed>
<extensions>
<speed>2.0</speed>
<temp>0.00</temp>
<bpm>0</bpm>
<rpm>0.00</rpm>
</extensions>
</trkpt>
<trkpt lat="64.260612488" lon="-20.472227097">
<ele>115.066406</ele>
<time>2012-07-19T17:35:36Z</time>
<speed>2.460000</speed>
<extensions>
<speed>2.5</speed>
<temp>0.00</temp>
<bpm>0</bpm>
<rpm>0.00</rpm>
</extensions>
</trkpt>
<trkpt lat="64.260734558" lon="-20.472105026">
<ele>115.777344</ele>
<time>2012-07-19T17:35:41Z</time>
<speed>3.350000</speed>
<extensions>
<speed>3.4</speed>
<temp>0.00</temp>
<bpm>0</bpm>
<rpm>0.00</rpm>
</extensions>
</trkpt>
<trkpt lat="64.260879517" lon="-20.471946716">
<ele>115.763672</ele>
<time>2012-07-19T17:35:46Z</time>
<speed>3.740000</speed>
<extensions>
<speed>3.7</speed>
<temp>0.00</temp>
<bpm>0</bpm>
<rpm>0.00</rpm>
</extensions>
</trkpt>
<trkpt lat="64.261016846" lon="-20.471778870">
<ele>116.322266</ele>
<time>2012-07-19T17:35:51Z</time>
<speed>3.550000</speed>
<extensions>
<speed>3.5</speed>
<temp>0.00</temp>
<bpm>0</bpm>
<rpm>0.00</rpm>
</extensions>
</trkpt>
<trkpt lat="64.261131287" lon="-20.471677780">
<ele>115.931641</ele>
<time>2012-07-19T17:35:56Z</time>
<speed>2.720000</speed>
<extensions>
<speed>2.7</speed>
<temp>0.00</temp>
<bpm>0</bpm>
<rpm>0.00</rpm>
</extensions>
</trkpt>
<trkpt lat="64.261230469" lon="-20.471559525">
<ele>116.541016</ele>
<time>2012-07-19T17:36:01Z</time>
<speed>2.720000</speed>
<extensions>
<speed>2.7</speed>
<temp>0.00</temp>
<bpm>0</bpm>
<rpm>0.00</rpm>
</extensions>
</trkpt>
<trkpt lat="64.261360168" lon="-20.471410751">
<ele>116.119141</ele>
<time>2012-07-19T17:36:06Z</time>
<speed>3.840000</speed>
<extensions>
<speed>3.8</speed>
<temp>0.00</temp>
<bpm>0</bpm>
<rpm>0.00</rpm>
</extensions>
</trkpt>
<trkpt lat="64.261535645" lon="-20.471220016">
<ele>116.539063</ele>
<time>2012-07-19T17:36:11Z</time>
<speed>4.650000</speed>
<extensions>
<speed>4.6</speed>
<temp>0.00</temp>
<bpm>0</bpm>
<rpm>0.00</rpm>
</extensions>
</trkpt>
<trkpt lat="64.261734009" lon="-20.471015930">
<ele>116.640625</ele>
<time>2012-07-19T17:36:16Z</time>
<speed>4.750000</speed>
<extensions>
<speed>4.8</speed>
<temp>0.00</temp>
<bpm>0</bpm>
<rpm>0.00</rpm>
</extensions>
</trkpt>
<trkpt lat="64.261924744" lon="-20.470800400">
<ele>116.960938</ele>
<time>2012-07-19T17:36:21Z</time>
<speed>4.250000</speed>
<extensions>
<speed>4.3</speed>
<temp>0.00</temp>
<bpm>0</bpm>
<rpm>0.00</rpm>
</extensions>
</trkpt>
<trkpt lat="64.262092590" lon="-20.470598221">
<ele>117.494141</ele>
<time>2012-07-19T17:36:26Z</time>
<speed>4.800000</speed>
<extensions>
<speed>4.8</speed>
<temp>0.00</temp>
<bpm>0</bpm>
<rpm>0.00</rpm>
</extensions>
</trkpt>
<trkpt lat="64.262290955" lon="-20.470388412">
<ele>117.845703</ele>
<time>2012-07-19T17:36:31Z</time>
<speed>4.660000</speed>
<extensions>
<speed>4.7</speed>
<temp>0.00</temp>
<bpm>0</bpm>
<rpm>0.00</rpm>
</extensions>
</trkpt>
<trkpt lat="64.262481689" lon="-20.470176697">
<ele>118.814453</ele>
<time>2012-07-19T17:36:36Z</time>
<speed>4.850000</speed>
<extensions>
<speed>4.8</speed>
<temp>0.00</temp>
<bpm>0</bpm>
<rpm>0.00</rpm>
</extensions>
</trkpt>
<trkpt lat="64.262657166" lon="-20.469957352">
<ele>120.128906</ele>
<time>2012-07-19T17:36:41Z</time>
<speed>4.470000</speed>
<extensions>
<speed>4.5</speed>
<temp>0.00</temp>
<bpm>0</bpm>
<rpm>0.00</rpm>
</extensions>
</trkpt>
<trkpt lat="64.262855530" lon="-20.469749451">
<ele>120.031250</ele>
<time>2012-07-19T17:36:46Z</time>
<speed>4.270000</speed>
<extensions>
<speed>4.3</speed>
<temp>0.00</temp>
<bpm>0</bpm>
<rpm>0.00</rpm>
</extensions>
</trkpt>
<trkpt lat="64.263038635" lon="-20.469554901">
<ele>120.113281</ele>
<time>2012-07-19T17:36:51Z</time>
<speed>4.560000</speed>
<extensions>
<speed>4.6</speed>
<temp>0.00</temp>
<bpm>0</bpm>
<rpm>0.00</rpm>
</extensions>
</trkpt>
<trkpt lat="64.263229370" lon="-20.469333649">
<ele>120.761719</ele>
<time>2012-07-19T17:36:56Z</time>
<speed>5.000000</speed>
<extensions>
<speed>5.0</speed>
<temp>0.00</temp>
<bpm>0</bpm>
<rpm>0.00</rpm>
</extensions>
</trkpt>
<trkpt lat="64.263397217" lon="-20.469144821">
<ele>121.181641</ele>
<time>2012-07-19T17:37:01Z</time>
<speed>3.570000</speed>
<extensions>
<speed>3.6</speed>
<temp>0.00</temp>
<bpm>0</bpm>
<rpm>0.00</rpm>
</extensions>
</trkpt>
<trkpt lat="64.263549805" lon="-20.468982697">
<ele>121.179688</ele>
<time>2012-07-19T17:37:06Z</time>
<speed>4.290000</speed>
<extensions>
<speed>4.3</speed>
<temp>0.00</temp>
<bpm>0</bpm>
<rpm>0.00</rpm>
</extensions>
</trkpt>
<trkpt lat="64.263748169" lon="-20.468776703">
<ele>121.121094</ele>
<time>2012-07-19T17:37:11Z</time>
<speed>4.590000</speed>
<extensions>
<speed>4.6</speed>
<temp>0.00</temp>
<bpm>0</bpm>
<rpm>0.00</rpm>
</extensions>
</trkpt>
<trkpt lat="64.263923645" lon="-20.468595505">
<ele>120.296875</ele>
<time>2012-07-19T17:37:16Z</time>
<speed>4.440000</speed>
<extensions>
<speed>4.4</speed>
<temp>0.00</temp>
<bpm>0</bpm>
<rpm>0.00</rpm>
</extensions>
</trkpt>
<trkpt lat="64.264106750" lon="-20.468381882">
<ele>120.876953</ele>
<time>2012-07-19T17:37:21Z</time>
<speed>4.470000</speed>
<extensions>
<speed>4.5</speed>
<temp>0.00</temp>
<bpm>0</bpm>
<rpm>0.00</rpm>
</extensions>
</trkpt>
<trkpt lat="64.264259338" lon="-20.468208313">
<ele>121.082031</ele>
<time>2012-07-19T17:37:26Z</time>
<speed>4.130000</speed>
<extensions>
<speed>4.1</speed>
<temp>0.00</temp>
<bpm>0</bpm>
<rpm>0.00</rpm>
</extensions>
</trkpt>
<trkpt lat="64.264427185" lon="-20.468004227">
<ele>121.300781</ele>
<time>2012-07-19T17:37:31Z</time>
<speed>4.240000</speed>
<extensions>
<speed>4.2</speed>
<temp>0.00</temp>
<bpm>0</bpm>
<rpm>0.00</rpm>
</extensions>
</trkpt>
<trkpt lat="64.264595032" lon="-20.467796326">
<ele>121.802734</ele>
<time>2012-07-19T17:37:36Z</time>
<speed>3.590000</speed>
<extensions>
<speed>3.6</speed>
<temp>0.00</temp>
<bpm>0</bpm>
<rpm>0.00</rpm>
</extensions>
</trkpt>
<trkpt lat="64.264747620" lon="-20.467597961">
<ele>122.435547</ele>
<time>2012-07-19T17:37:41Z</time>
<speed>4.300000</speed>
<extensions>
<speed>4.3</speed>
<temp>0.00</temp>
<bpm>0</bpm>
<rpm>0.00</rpm>
</extensions>
</trkpt>
<trkpt lat="64.264907837" lon="-20.467357635">
<ele>122.859375</ele>
<time>2012-07-19T17:37:46Z</time>
<speed>4.350000</speed>
<extensions>
<speed>4.3</speed>
<temp>0.00</temp>
<bpm>0</bpm>
<rpm>0.00</rpm>
</extensions>
</trkpt>
<trkpt lat="64.265075684" lon="-20.467100143">
<ele>124.792969</ele>
<time>2012-07-19T17:37:51Z</time>
<speed>4.700000</speed>
<extensions>
<speed>4.7</speed>
<temp>0.00</temp>
<bpm>0</bpm>
<rpm>0.00</rpm>
</extensions>
</trkpt>
<trkpt lat="64.265235901" lon="-20.466835022">
<ele>126.298828</ele>
<time>2012-07-19T17:37:56Z</time>
<speed>4.270000</speed>
<extensions>
<speed>4.3</speed>
<temp>0.00</temp>
<bpm>0</bpm>
<rpm>0.00</rpm>
</extensions>
</trkpt>
<trkpt lat="64.265403748" lon="-20.466571808">
<ele>125.980469</ele>
<time>2012-07-19T17:38:01Z</time>
<speed>4.860000</speed>
<extensions>
<speed>4.9</speed>
<temp>0.00</temp>
<bpm>0</bpm>
<rpm>0.00</rpm>
</extensions>
</trkpt>
<trkpt lat="64.265571594" lon="-20.466293335">
<ele>126.300781</ele>
<time>2012-07-19T17:38:06Z</time>
<speed>4.770000</speed>
<extensions>
<speed>4.8</speed>
<temp>0.00</temp>
<bpm>0</bpm>
<rpm>0.00</rpm>
</extensions>
</trkpt>
<trkpt lat="64.265739441" lon="-20.465988159">
<ele>126.818359</ele>
<time>2012-07-19T17:38:11Z</time>
<speed>5.230000</speed>
<extensions>
<speed>5.2</speed>
<temp>0.00</temp>
<bpm>0</bpm>
<rpm>0.00</rpm>
</extensions>
</trkpt>
<trkpt lat="64.265930176" lon="-20.465642929">
<ele>126.425781</ele>
<time>2012-07-19T17:38:16Z</time>
<speed>5.510000</speed>
<extensions>
<speed>5.5</speed>
<temp>0.00</temp>
<bpm>0</bpm>
<rpm>0.00</rpm>
</extensions>
</trkpt>
<trkpt lat="64.266128540" lon="-20.465270996">
<ele>126.087891</ele>
<time>2012-07-19T17:38:21Z</time>
<speed>5.380000</speed>
<extensions>
<speed>5.4</speed>
<temp>0.00</temp>
<bpm>0</bpm>
<rpm>0.00</rpm>
</extensions>
</trkpt>
<trkpt lat="64.266311646" lon="-20.464887619">
<ele>125.886719</ele>
<time>2012-07-19T17:38:26Z</time>
<speed>5.750000</speed>
<extensions>
<speed>5.8</speed>
<temp>0.00</temp>
<bpm>0</bpm>
<rpm>0.00</rpm>
</extensions>
</trkpt>
<trkpt lat="64.266517639" lon="-20.464458466">
<ele>125.300781</ele>
<time>2012-07-19T17:38:31Z</time>
<speed>6.280000</speed>
<extensions>
<speed>6.3</speed>
<temp>0.00</temp>
<bpm>0</bpm>
<rpm>0.00</rpm>
</extensions>
</trkpt>
<trkpt lat="64.266723633" lon="-20.463987350">
<ele>124.138672</ele>
<time>2012-07-19T17:38:36Z</time>
<speed>6.420000</speed>
<extensions>
<speed>6.4</speed>
<temp>0.00</temp>
<bpm>0</bpm>
<rpm>0.00</rpm>
</extensions>
</trkpt>
<trkpt lat="64.266921997" lon="-20.463479996">
<ele>122.736328</ele>
<time>2012-07-19T17:38:41Z</time>
<speed>6.820000</speed>
<extensions>
<speed>6.8</speed>
<temp>0.00</temp>
<bpm>0</bpm>
<rpm>0.00</rpm>
</extensions>
</trkpt>
<trkpt lat="64.267135620" lon="-20.462940216">
<ele>121.417969</ele>
<time>2012-07-19T17:38:46Z</time>
<speed>7.010000</speed>
<extensions>
<speed>7.0</speed>
<temp>0.00</temp>
<bpm>0</bpm>
<rpm>0.00</rpm>
</extensions>
</trkpt>
<trkpt lat="64.267341614" lon="-20.462356567">
<ele>120.025391</ele>
<time>2012-07-19T17:38:51Z</time>
<speed>7.420000</speed>
<extensions>
<speed>7.4</speed>
<temp>0.00</temp>
<bpm>0</bpm>
<rpm>0.00</rpm>
</extensions>
</trkpt>
<trkpt lat="64.267547607" lon="-20.461719513">
<ele>118.480469</ele>
<time>2012-07-19T17:38:56Z</time>
<speed>7.960000</speed>
<extensions>
<speed>8.0</speed>
<temp>0.00</temp>
<bpm>0</bpm>
<rpm>0.00</rpm>
</extensions>
</trkpt>
<trkpt lat="64.267761230" lon="-20.461042404">
<ele>116.810547</ele>
<time>2012-07-19T17:39:01Z</time>
<speed>8.270000</speed>
<extensions>
<speed>8.3</speed>
<temp>0.00</temp>
<bpm>0</bpm>
<rpm>0.00</rpm>
</extensions>
</trkpt>
<trkpt lat="64.267982483" lon="-20.460338593">
<ele>115.224609</ele>
<time>2012-07-19T17:39:06Z</time>
<speed>8.450000</speed>
<extensions>
<speed>8.5</speed>
<temp>0.00</temp>
<bpm>0</bpm>
<rpm>0.00</rpm>
</extensions>
</trkpt>
<trkpt lat="64.268196106" lon="-20.459638596">
<ele>114.097656</ele>
<time>2012-07-19T17:39:11Z</time>
<speed>8.230000</speed>
<extensions>
<speed>8.2</speed>
<temp>0.00</temp>
<bpm>0</bpm>
<rpm>0.00</rpm>
</extensions>
</trkpt>
<trkpt lat="64.268417358" lon="-20.458944321">
<ele>112.824219</ele>
<time>2012-07-19T17:39:16Z</time>
<speed>8.100000</speed>
<extensions>
<speed>8.1</speed>
<temp>0.00</temp>
<bpm>0</bpm>
<rpm>0.00</rpm>
</extensions>
</trkpt>
<trkpt lat="64.268623352" lon="-20.458286285">
<ele>112.123047</ele>
<time>2012-07-19T17:39:21Z</time>
<speed>7.480000</speed>
<extensions>
<speed>7.5</speed>
<temp>0.00</temp>
<bpm>0</bpm>
<rpm>0.00</rpm>
</extensions>
</trkpt>
<trkpt lat="64.268806458" lon="-20.457691193">
<ele>111.921875</ele>
<time>2012-07-19T17:39:26Z</time>
<speed>6.730000</speed>
<extensions>
<speed>6.7</speed>
<temp>0.00</temp>
<bpm>0</bpm>
<rpm>0.00</rpm>
</extensions>
</trkpt>
<trkpt lat="64.268981934" lon="-20.457157135">
<ele>111.824219</ele>
<time>2012-07-19T17:39:31Z</time>
<speed>6.170000</speed>
<extensions>
<speed>6.2</speed>
<temp>0.00</temp>
<bpm>0</bpm>
<rpm>0.00</rpm>
</extensions>
</trkpt>
<trkpt lat="64.269134521" lon="-20.456642151">
<ele>112.160156</ele>
<time>2012-07-19T17:39:36Z</time>
<speed>5.850000</speed>
<extensions>
<speed>5.8</speed>
<temp>0.00</temp>
<bpm>0</bpm>
<rpm>0.00</rpm>
</extensions>
</trkpt>
<trkpt lat="64.269287109" lon="-20.456150055">
<ele>112.503906</ele>
<time>2012-07-19T17:39:41Z</time>
<speed>5.920000</speed>
<extensions>
<speed>5.9</speed>
<temp>0.00</temp>
<bpm>0</bpm>
<rpm>0.00</rpm>
</extensions>
</trkpt>
<trkpt lat="64.269439697" lon="-20.455684662">
<ele>112.505859</ele>
<time>2012-07-19T17:39:46Z</time>
<speed>5.670000</speed>
<extensions>
<speed>5.7</speed>
<temp>0.00</temp>
<bpm>0</bpm>
<rpm>0.00</rpm>
</extensions>
</trkpt>
<trkpt lat="64.269577026" lon="-20.455200195">
<ele>113.000000</ele>
<time>2012-07-19T17:39:51Z</time>
<speed>5.720000</speed>
<extensions>
<speed>5.7</speed>
<temp>0.00</temp>
<bpm>0</bpm>
<rpm>0.00</rpm>
</extensions>
</trkpt>
<trkpt lat="64.269729614" lon="-20.454740524">
<ele>113.779297</ele>
<time>2012-07-19T17:39:56Z</time>
<speed>5.700000</speed>
<extensions>
<speed>5.7</speed>
<temp>0.00</temp>
<bpm>0</bpm>
<rpm>0.00</rpm>
</extensions>
</trkpt>
<trkpt lat="64.269882202" lon="-20.454278946">
<ele>114.101563</ele>
<time>2012-07-19T17:40:01Z</time>
<speed>5.660000</speed>
<extensions>
<speed>5.7</speed>
<temp>0.00</temp>
<bpm>0</bpm>
<rpm>0.00</rpm>
</extensions>
</trkpt>
<trkpt lat="64.270027161" lon="-20.453804016">
<ele>114.107422</ele>
<time>2012-07-19T17:40:06Z</time>
<speed>5.550000</speed>
<extensions>
<speed>5.5</speed>
<temp>0.00</temp>
<bpm>0</bpm>
<rpm>0.00</rpm>
</extensions>
</trkpt>
<trkpt lat="64.270156860" lon="-20.453363419">
<ele>113.708984</ele>
<time>2012-07-19T17:40:11Z</time>
<speed>5.030000</speed>
<extensions>
<speed>5.0</speed>
<temp>0.00</temp>
<bpm>0</bpm>
<rpm>0.00</rpm>
</extensions>
</trkpt>
<trkpt lat="64.270301819" lon="-20.452959061">
<ele>114.080078</ele>
<time>2012-07-19T17:40:16Z</time>
<speed>4.990000</speed>
<extensions>
<speed>5.0</speed>
<temp>0.00</temp>
<bpm>0</bpm>
<rpm>0.00</rpm>
</extensions>
</trkpt>
<trkpt lat="64.270423889" lon="-20.452550888">
<ele>114.564453</ele>
<time>2012-07-19T17:40:21Z</time>
<speed>4.640000</speed>
<extensions>
<speed>4.6</speed>
<temp>0.00</temp>
<bpm>0</bpm>
<rpm>0.00</rpm>
</extensions>
</trkpt>
<trkpt lat="64.270538330" lon="-20.452154160">
<ele>114.859375</ele>
<time>2012-07-19T17:40:26Z</time>
<speed>4.700000</speed>
<extensions>
<speed>4.7</speed>
<temp>0.00</temp>
<bpm>0</bpm>
<rpm>0.00</rpm>
</extensions>
</trkpt>
<trkpt lat="64.270652771" lon="-20.451766968">
<ele>115.275391</ele>
<time>2012-07-19T17:40:31Z</time>
<speed>4.010000</speed>
<extensions>
<speed>4.0</speed>
<temp>0.00</temp>
<bpm>0</bpm>
<rpm>0.00</rpm>
</extensions>
</trkpt>
<trkpt lat="64.270744324" lon="-20.451475143">
<ele>114.896484</ele>
<time>2012-07-19T17:40:36Z</time>
<speed>3.260000</speed>
<extensions>
<speed>3.3</speed>
<temp>0.00</temp>
<bpm>0</bpm>
<rpm>0.00</rpm>
</extensions>
</trkpt>
<trkpt lat="64.270843506" lon="-20.451171875">
<ele>116.255859</ele>
<time>2012-07-19T17:40:41Z</time>
<speed>3.750000</speed>
<extensions>
<speed>3.8</speed>
<temp>0.00</temp>
<bpm>0</bpm>
<rpm>0.00</rpm>
</extensions>
</trkpt>
<trkpt lat="64.270950317" lon="-20.450819016">
<ele>116.781250</ele>
<time>2012-07-19T17:40:46Z</time>
<speed>4.370000</speed>
<extensions>
<speed>4.4</speed>
<temp>0.00</temp>
<bpm>0</bpm>
<rpm>0.00</rpm>
</extensions>
</trkpt>
<trkpt lat="64.271064758" lon="-20.450460434">
<ele>117.177734</ele>
<time>2012-07-19T17:40:51Z</time>
<speed>4.140000</speed>
<extensions>
<speed>4.1</speed>
<temp>0.00</temp>
<bpm>0</bpm>
<rpm>0.00</rpm>
</extensions>
</trkpt>
<trkpt lat="64.271179199" lon="-20.450107574">
<ele>116.888672</ele>
<time>2012-07-19T17:40:56Z</time>
<speed>4.640000</speed>
<extensions>
<speed>4.6</speed>
<temp>0.00</temp>
<bpm>0</bpm>
<rpm>0.00</rpm>
</extensions>
</trkpt>
<trkpt lat="64.271286011" lon="-20.449728012">
<ele>116.785156</ele>
<time>2012-07-19T17:41:01Z</time>
<speed>4.500000</speed>
<extensions>
<speed>4.5</speed>
<temp>0.00</temp>
<bpm>0</bpm>
<rpm>0.00</rpm>
</extensions>
</trkpt>
<trkpt lat="64.271408081" lon="-20.449346542">
<ele>117.435547</ele>
<time>2012-07-19T17:41:06Z</time>
<speed>4.520000</speed>
<extensions>
<speed>4.5</speed>
<temp>0.00</temp>
<bpm>0</bpm>
<rpm>0.00</rpm>
</extensions>
</trkpt>
<trkpt lat="64.271530151" lon="-20.448978424">
<ele>117.320313</ele>
<time>2012-07-19T17:41:11Z</time>
<speed>4.270000</speed>
<extensions>
<speed>4.3</speed>
<temp>0.00</temp>
<bpm>0</bpm>
<rpm>0.00</rpm>
</extensions>
</trkpt>
<trkpt lat="64.271614075" lon="-20.448684692">
<ele>117.480469</ele>
<time>2012-07-19T17:41:16Z</time>
<speed>3.060000</speed>
<extensions>
<speed>3.1</speed>
<temp>0.00</temp>
<bpm>0</bpm>
<rpm>0.00</rpm>
</extensions>
</trkpt>
<trkpt lat="64.271713257" lon="-20.448385239">
<ele>118.107422</ele>
<time>2012-07-19T17:41:21Z</time>
<speed>3.680000</speed>
<extensions>
<speed>3.7</speed>
<temp>0.00</temp>
<bpm>0</bpm>
<rpm>0.00</rpm>
</extensions>
</trkpt>
<trkpt lat="64.271812439" lon="-20.448051453">
<ele>118.111328</ele>
<time>2012-07-19T17:41:26Z</time>
<speed>4.350000</speed>
<extensions>
<speed>4.3</speed>
<temp>0.00</temp>
<bpm>0</bpm>
<rpm>0.00</rpm>
</extensions>
</trkpt>
<trkpt lat="64.271919250" lon="-20.447681427">
<ele>119.298828</ele>
<time>2012-07-19T17:41:31Z</time>
<speed>4.370000</speed>
<extensions>
<speed>4.4</speed>
<temp>0.00</temp>
<bpm>0</bpm>
<rpm>0.00</rpm>
</extensions>
</trkpt>
<trkpt lat="64.272033691" lon="-20.447319031">
<ele>119.531250</ele>
<time>2012-07-19T17:41:36Z</time>
<speed>4.330000</speed>
<extensions>
<speed>4.3</speed>
<temp>0.00</temp>
<bpm>0</bpm>
<rpm>0.00</rpm>
</extensions>
</trkpt>
<trkpt lat="64.272155762" lon="-20.446937561">
<ele>118.689453</ele>
<time>2012-07-19T17:41:41Z</time>
<speed>4.710000</speed>
<extensions>
<speed>4.7</speed>
<temp>0.00</temp>
<bpm>0</bpm>
<rpm>0.00</rpm>
</extensions>
</trkpt>
<trkpt lat="64.272270203" lon="-20.446580887">
<ele>118.910156</ele>
<time>2012-07-19T17:41:46Z</time>
<speed>3.950000</speed>
<extensions>
<speed>4.0</speed>
<temp>0.00</temp>
<bpm>0</bpm>
<rpm>0.00</rpm>
</extensions>
</trkpt>
<trkpt lat="64.272361755" lon="-20.446281433">
<ele>119.572266</ele>
<time>2012-07-19T17:41:51Z</time>
<speed>3.330000</speed>
<extensions>
<speed>3.3</speed>
<temp>0.00</temp>
<bpm>0</bpm>
<rpm>0.00</rpm>
</extensions>
</trkpt>
<trkpt lat="64.272453308" lon="-20.445978165">
<ele>120.283203</ele>
<time>2012-07-19T17:41:56Z</time>
<speed>3.970000</speed>
<extensions>
<speed>4.0</speed>
<temp>0.00</temp>
<bpm>0</bpm>
<rpm>0.00</rpm>
</extensions>
</trkpt>
<trkpt lat="64.272567749" lon="-20.445602417">
<ele>120.748047</ele>
<time>2012-07-19T17:42:01Z</time>
<speed>4.650000</speed>
<extensions>
<speed>4.6</speed>
<temp>0.00</temp>
<bpm>0</bpm>
<rpm>0.00</rpm>
</extensions>
</trkpt>
<trkpt lat="64.272697449" lon="-20.445213318">
<ele>121.359375</ele>
<time>2012-07-19T17:42:06Z</time>
<speed>4.690000</speed>
<extensions>
<speed>4.7</speed>
<temp>0.00</temp>
<bpm>0</bpm>
<rpm>0.00</rpm>
</extensions>
</trkpt>
<trkpt lat="64.272827148" lon="-20.444810867">
<ele>121.162109</ele>
<time>2012-07-19T17:42:11Z</time>
<speed>4.860000</speed>
<extensions>
<speed>4.9</speed>
<temp>0.00</temp>
<bpm>0</bpm>
<rpm>0.00</rpm>
</extensions>
</trkpt>
<trkpt lat="64.272933960" lon="-20.444454193">
<ele>120.814453</ele>
<time>2012-07-19T17:42:16Z</time>
<speed>4.290000</speed>
<extensions>
<speed>4.3</speed>
<temp>0.00</temp>
<bpm>0</bpm>
<rpm>0.00</rpm>
</extensions>
</trkpt>
<trkpt lat="64.273063660" lon="-20.444061279">
<ele>120.937500</ele>
<time>2012-07-19T17:42:21Z</time>
<speed>4.810000</speed>
<extensions>
<speed>4.8</speed>
<temp>0.00</temp>
<bpm>0</bpm>
<rpm>0.00</rpm>
</extensions>
</trkpt>
<trkpt lat="64.273208618" lon="-20.443618774">
<ele>121.013672</ele>
<time>2012-07-19T17:42:26Z</time>
<speed>5.440000</speed>
<extensions>
<speed>5.4</speed>
<temp>0.00</temp>
<bpm>0</bpm>
<rpm>0.00</rpm>
</extensions>
</trkpt>
<trkpt lat="64.273330688" lon="-20.443208694">
<ele>121.630859</ele>
<time>2012-07-19T17:42:31Z</time>
<speed>4.230000</speed>
<extensions>
<speed>4.2</speed>
<temp>0.00</temp>
<bpm>0</bpm>
<rpm>0.00</rpm>
</extensions>
</trkpt>
<trkpt lat="64.273429871" lon="-20.442890167">
<ele>121.871094</ele>
<time>2012-07-19T17:42:36Z</time>
<speed>3.480000</speed>
<extensions>
<speed>3.5</speed>
<temp>0.00</temp>
<bpm>0</bpm>
<rpm>0.00</rpm>
</extensions>
</trkpt>
<trkpt lat="64.273529053" lon="-20.442567825">
<ele>122.291016</ele>
<time>2012-07-19T17:42:41Z</time>
<speed>4.340000</speed>
<extensions>
<speed>4.3</speed>
<temp>0.00</temp>
<bpm>0</bpm>
<rpm>0.00</rpm>
</extensions>
</trkpt>
<trkpt lat="64.273651123" lon="-20.442174911">
<ele>121.970703</ele>
<time>2012-07-19T17:42:46Z</time>
<speed>4.700000</speed>
<extensions>
<speed>4.7</speed>
<temp>0.00</temp>
<bpm>0</bpm>
<rpm>0.00</rpm>
</extensions>
</trkpt>
<trkpt lat="64.273773193" lon="-20.441759109">
<ele>122.820313</ele>
<time>2012-07-19T17:42:51Z</time>
<speed>5.150000</speed>
<extensions>
<speed>5.2</speed>
<temp>0.00</temp>
<bpm>0</bpm>
<rpm>0.00</rpm>
</extensions>
</trkpt>
<trkpt lat="64.273910522" lon="-20.441331863">
<ele>122.347656</ele>
<time>2012-07-19T17:42:56Z</time>
<speed>5.160000</speed>
<extensions>
<speed>5.2</speed>
<temp>0.00</temp>
<bpm>0</bpm>
<rpm>0.00</rpm>
</extensions>
</trkpt>
<trkpt lat="64.274032593" lon="-20.440940857">
<ele>121.748047</ele>
<time>2012-07-19T17:43:01Z</time>
<speed>4.490000</speed>
<extensions>
<speed>4.5</speed>
<temp>0.00</temp>
<bpm>0</bpm>
<rpm>0.00</rpm>
</extensions>
</trkpt>
<trkpt lat="64.274154663" lon="-20.440567017">
<ele>122.242188</ele>
<time>2012-07-19T17:43:06Z</time>
<speed>4.700000</speed>
<extensions>
<speed>4.7</speed>
<temp>0.00</temp>
<bpm>0</bpm>
<rpm>0.00</rpm>
</extensions>
</trkpt>
<trkpt lat="64.274276733" lon="-20.440191269">
<ele>120.984375</ele>
<time>2012-07-19T17:43:11Z</time>
<speed>4.720000</speed>
<extensions>
<speed>4.7</speed>
<temp>0.00</temp>
<bpm>0</bpm>
<rpm>0.00</rpm>
</extensions>
</trkpt>
<trkpt lat="64.274391174" lon="-20.439815521">
<ele>120.857422</ele>
<time>2012-07-19T17:43:16Z</time>
<speed>4.390000</speed>
<extensions>
<speed>4.4</speed>
<temp>0.00</temp>
<bpm>0</bpm>
<rpm>0.00</rpm>
</extensions>
</trkpt>
<trkpt lat="64.274505615" lon="-20.439418793">
<ele>120.976563</ele>
<time>2012-07-19T17:43:21Z</time>
<speed>4.810000</speed>
<extensions>
<speed>4.8</speed>
<temp>0.00</temp>
<bpm>0</bpm>
<rpm>0.00</rpm>
</extensions>
</trkpt>
<trkpt lat="64.274635315" lon="-20.438974380">
<ele>122.312500</ele>
<time>2012-07-19T17:43:26Z</time>
<speed>5.120000</speed>
<extensions>
<speed>5.1</speed>
<temp>0.00</temp>
<bpm>0</bpm>
<rpm>0.00</rpm>
</extensions>
</trkpt>
<trkpt lat="64.274765015" lon="-20.438564301">
<ele>125.496094</ele>
<time>2012-07-19T17:43:31Z</time>
<speed>4.100000</speed>
<extensions>
<speed>4.1</speed>
<temp>0.00</temp>
<bpm>0</bpm>
<rpm>0.00</rpm>
</extensions>
</trkpt>
<trkpt lat="64.274864197" lon="-20.438234329">
<ele>125.998047</ele>
<time>2012-07-19T17:43:36Z</time>
<speed>4.500000</speed>
<extensions>
<speed>4.5</speed>
<temp>0.00</temp>
<bpm>0</bpm>
<rpm>0.00</rpm>
</extensions>
</trkpt>
<trkpt lat="64.274986267" lon="-20.437839508">
<ele>127.507813</ele>
<time>2012-07-19T17:43:41Z</time>
<speed>4.850000</speed>
<extensions>
<speed>4.8</speed>
<temp>0.00</temp>
<bpm>0</bpm>
<rpm>0.00</rpm>
</extensions>
</trkpt>
<trkpt lat="64.275093079" lon="-20.437461853">
<ele>128.414063</ele>
<time>2012-07-19T17:43:46Z</time>
<speed>4.450000</speed>
<extensions>
<speed>4.5</speed>
<temp>0.00</temp>
<bpm>0</bpm>
<rpm>0.00</rpm>
</extensions>
</trkpt>
<trkpt lat="64.275222778" lon="-20.437042236">
<ele>129.500000</ele>
<time>2012-07-19T17:43:51Z</time>
<speed>4.490000</speed>
<extensions>
<speed>4.5</speed>
<temp>0.00</temp>
<bpm>0</bpm>
<rpm>0.00</rpm>
</extensions>
</trkpt>
<trkpt lat="64.275344849" lon="-20.436691284">
<ele>130.878906</ele>
<time>2012-07-19T17:43:56Z</time>
<speed>3.840000</speed>
<extensions>
<speed>3.8</speed>
<temp>0.00</temp>
<bpm>0</bpm>
<rpm>0.00</rpm>
</extensions>
</trkpt>
<trkpt lat="64.275436401" lon="-20.436353683">
<ele>131.710938</ele>
<time>2012-07-19T17:44:01Z</time>
<speed>4.280000</speed>
<extensions>
<speed>4.3</speed>
<temp>0.00</temp>
<bpm>0</bpm>
<rpm>0.00</rpm>
</extensions>
</trkpt>
<trkpt lat="64.275543213" lon="-20.435974121">
<ele>133.074219</ele>
<time>2012-07-19T17:44:06Z</time>
<speed>4.770000</speed>
<extensions>
<speed>4.8</speed>
<temp>0.00</temp>
<bpm>0</bpm>
<rpm>0.00</rpm>
</extensions>
</trkpt>
<trkpt lat="64.275650024" lon="-20.435619354">
<ele>134.656250</ele>
<time>2012-07-19T17:44:11Z</time>
<speed>4.660000</speed>
<extensions>
<speed>4.7</speed>
<temp>0.00</temp>
<bpm>0</bpm>
<rpm>0.00</rpm>
</extensions>
</trkpt>
<trkpt lat="64.275787354" lon="-20.435220718">
<ele>133.507813</ele>
<time>2012-07-19T17:44:16Z</time>
<speed>4.780000</speed>
<extensions>
<speed>4.8</speed>
<temp>0.00</temp>
<bpm>0</bpm>
<rpm>0.00</rpm>
</extensions>
</trkpt>
<trkpt lat="64.275894165" lon="-20.434829712">
<ele>132.570313</ele>
<time>2012-07-19T17:44:21Z</time>
<speed>4.310000</speed>
<extensions>
<speed>4.3</speed>
<temp>0.00</temp>
<bpm>0</bpm>
<rpm>0.00</rpm>
</extensions>
</trkpt>
<trkpt lat="64.275985718" lon="-20.434469223">
<ele>132.191406</ele>
<time>2012-07-19T17:44:26Z</time>
<speed>3.990000</speed>
<extensions>
<speed>4.0</speed>
<temp>0.00</temp>
<bpm>0</bpm>
<rpm>0.00</rpm>
</extensions>
</trkpt>
<trkpt lat="64.276092529" lon="-20.434085846">
<ele>131.207031</ele>
<time>2012-07-19T17:44:31Z</time>
<speed>4.610000</speed>
<extensions>
<speed>4.6</speed>
<temp>0.00</temp>
<bpm>0</bpm>
<rpm>0.00</rpm>
</extensions>
</trkpt>
<trkpt lat="64.276214600" lon="-20.433639526">
<ele>130.226563</ele>
<time>2012-07-19T17:44:36Z</time>
<speed>4.810000</speed>
<extensions>
<speed>4.8</speed>
<temp>0.00</temp>
<bpm>0</bpm>
<rpm>0.00</rpm>
</extensions>
</trkpt>
<trkpt lat="64.276321411" lon="-20.433197021">
<ele>128.652344</ele>
<time>2012-07-19T17:44:41Z</time>
<speed>4.590000</speed>
<extensions>
<speed>4.6</speed>
<temp>0.00</temp>
<bpm>0</bpm>
<rpm>0.00</rpm>
</extensions>
</trkpt>
<trkpt lat="64.276428223" lon="-20.432723999">
<ele>127.453125</ele>
<time>2012-07-19T17:44:46Z</time>
<speed>5.030000</speed>
<extensions>
<speed>5.0</speed>
<temp>0.00</temp>
<bpm>0</bpm>
<rpm>0.00</rpm>
</extensions>
</trkpt>
<trkpt lat="64.276527405" lon="-20.432237625">
<ele>126.294922</ele>
<time>2012-07-19T17:44:51Z</time>
<speed>5.210000</speed>
<extensions>
<speed>5.2</speed>
<temp>0.00</temp>
<bpm>0</bpm>
<rpm>0.00</rpm>
</extensions>
</trkpt>
<trkpt lat="64.276618958" lon="-20.431692123">
<ele>124.980469</ele>
<time>2012-07-19T17:44:56Z</time>
<speed>5.710000</speed>
<extensions>
<speed>5.7</speed>
<temp>0.00</temp>
<bpm>0</bpm>
<rpm>0.00</rpm>
</extensions>
</trkpt>
<trkpt lat="64.276695251" lon="-20.431121826">
<ele>123.978516</ele>
<time>2012-07-19T17:45:01Z</time>
<speed>5.920000</speed>
<extensions>
<speed>5.9</speed>
<temp>0.00</temp>
<bpm>0</bpm>
<rpm>0.00</rpm>
</extensions>
</trkpt>
<trkpt lat="64.276771545" lon="-20.430521011">
<ele>122.828125</ele>
<time>2012-07-19T17:45:06Z</time>
<speed>6.260000</speed>
<extensions>
<speed>6.3</speed>
<temp>0.00</temp>
<bpm>0</bpm>
<rpm>0.00</rpm>
</extensions>
</trkpt>
<trkpt lat="64.276832581" lon="-20.429843903">
<ele>121.853516</ele>
<time>2012-07-19T17:45:11Z</time>
<speed>7.120000</speed>
<extensions>
<speed>7.1</speed>
<temp>0.00</temp>
<bpm>0</bpm>
<rpm>0.00</rpm>
</extensions>
</trkpt>
<trkpt lat="64.276893616" lon="-20.429098129">
<ele>120.468750</ele>
<time>2012-07-19T17:45:16Z</time>
<speed>7.220000</speed>
<extensions>
<speed>7.2</speed>
<temp>0.00</temp>
<bpm>0</bpm>
<rpm>0.00</rpm>
</extensions>
</trkpt>
<trkpt lat="64.276924133" lon="-20.428365707">
<ele>119.486328</ele>
<time>2012-07-19T17:45:21Z</time>
<speed>7.060000</speed>
<extensions>
<speed>7.1</speed>
<temp>0.00</temp>
<bpm>0</bpm>
<rpm>0.00</rpm>
</extensions>
</trkpt>
<trkpt lat="64.276939392" lon="-20.427661896">
<ele>118.949219</ele>
<time>2012-07-19T17:45:26Z</time>
<speed>6.670000</speed>
<extensions>
<speed>6.7</speed>
<temp>0.00</temp>
<bpm>0</bpm>
<rpm>0.00</rpm>
</extensions>
</trkpt>
<trkpt lat="64.276939392" lon="-20.427005768">
<ele>118.291016</ele>
<time>2012-07-19T17:45:31Z</time>
<speed>5.820000</speed>
<extensions>
<speed>5.8</speed>
<temp>0.00</temp>
<bpm>0</bpm>
<rpm>0.00</rpm>
</extensions>
</trkpt>
<trkpt lat="64.276939392" lon="-20.426401138">
<ele>118.417969</ele>
<time>2012-07-19T17:45:36Z</time>
<speed>6.110000</speed>
<extensions>
<speed>6.1</speed>
<temp>0.00</temp>
<bpm>0</bpm>
<rpm>0.00</rpm>
</extensions>
</trkpt>
<trkpt lat="64.276939392" lon="-20.425786972">
<ele>118.255859</ele>
<time>2012-07-19T17:45:41Z</time>
<speed>5.860000</speed>
<extensions>
<speed>5.9</speed>
<temp>0.00</temp>
<bpm>0</bpm>
<rpm>0.00</rpm>
</extensions>
</trkpt>
<trkpt lat="64.276931763" lon="-20.425191879">
<ele>118.099609</ele>
<time>2012-07-19T17:45:46Z</time>
<speed>5.330000</speed>
<extensions>
<speed>5.3</speed>
<temp>0.00</temp>
<bpm>0</bpm>
<rpm>0.00</rpm>
</extensions>
</trkpt>
<trkpt lat="64.276931763" lon="-20.424636841">
<ele>117.820313</ele>
<time>2012-07-19T17:45:51Z</time>
<speed>5.050000</speed>
<extensions>
<speed>5.1</speed>
<temp>0.00</temp>
<bpm>0</bpm>
<rpm>0.00</rpm>
</extensions>
</trkpt>
<trkpt lat="64.276931763" lon="-20.424180984">
<ele>117.552734</ele>
<time>2012-07-19T17:45:56Z</time>
<speed>4.110000</speed>
<extensions>
<speed>4.1</speed>
<temp>0.00</temp>
<bpm>0</bpm>
<rpm>0.00</rpm>
</extensions>
</trkpt>
<trkpt lat="64.276924133" lon="-20.423717499">
<ele>117.423828</ele>
<time>2012-07-19T17:46:01Z</time>
<speed>5.150000</speed>
<extensions>
<speed>5.2</speed>
<temp>0.00</temp>
<bpm>0</bpm>
<rpm>0.00</rpm>
</extensions>
</trkpt>
<trkpt lat="64.276924133" lon="-20.423154831">
<ele>117.224609</ele>
<time>2012-07-19T17:46:06Z</time>
<speed>5.630000</speed>
<extensions>
<speed>5.6</speed>
<temp>0.00</temp>
<bpm>0</bpm>
<rpm>0.00</rpm>
</extensions>
</trkpt>
<trkpt lat="64.276924133" lon="-20.422590256">
<ele>117.169922</ele>
<time>2012-07-19T17:46:11Z</time>
<speed>4.960000</speed>
<extensions>
<speed>5.0</speed>
<temp>0.00</temp>
<bpm>0</bpm>
<rpm>0.00</rpm>
</extensions>
</trkpt>
<trkpt lat="64.276916504" lon="-20.422069550">
<ele>116.904297</ele>
<time>2012-07-19T17:46:16Z</time>
<speed>5.200000</speed>
<extensions>
<speed>5.2</speed>
<temp>0.00</temp>
<bpm>0</bpm>
<rpm>0.00</rpm>
</extensions>
</trkpt>
<trkpt lat="64.276924133" lon="-20.421533585">
<ele>117.085938</ele>
<time>2012-07-19T17:46:21Z</time>
<speed>5.030000</speed>
<extensions>
<speed>5.0</speed>
<temp>0.00</temp>
<bpm>0</bpm>
<rpm>0.00</rpm>
</extensions>
</trkpt>
<trkpt lat="64.276916504" lon="-20.421005249">
<ele>117.390625</ele>
<time>2012-07-19T17:46:26Z</time>
<speed>5.190000</speed>
<extensions>
<speed>5.2</speed>
<temp>0.00</temp>
<bpm>0</bpm>
<rpm>0.00</rpm>
</extensions>
</trkpt>
<trkpt lat="64.276908875" lon="-20.420494080">
<ele>117.433594</ele>
<time>2012-07-19T17:46:31Z</time>
<speed>4.860000</speed>
<extensions>
<speed>4.9</speed>
<temp>0.00</temp>
<bpm>0</bpm>
<rpm>0.00</rpm>
</extensions>
</trkpt>
<trkpt lat="64.276901245" lon="-20.420017242">
<ele>117.841797</ele>
<time>2012-07-19T17:46:36Z</time>
<speed>4.440000</speed>
<extensions>
<speed>4.4</speed>
<temp>0.00</temp>
<bpm>0</bpm>
<rpm>0.00</rpm>
</extensions>
</trkpt>
<trkpt lat="64.276885986" lon="-20.419597626">
<ele>118.085938</ele>
<time>2012-07-19T17:46:41Z</time>
<speed>3.920000</speed>
<extensions>
<speed>3.9</speed>
<temp>0.00</temp>
<bpm>0</bpm>
<rpm>0.00</rpm>
</extensions>
</trkpt>
<trkpt lat="64.276893616" lon="-20.419231415">
<ele>118.474609</ele>
<time>2012-07-19T17:46:46Z</time>
<speed>3.400000</speed>
<extensions>
<speed>3.4</speed>
<temp>0.00</temp>
<bpm>0</bpm>
<rpm>0.00</rpm>
</extensions>
</trkpt>
<trkpt lat="64.276870728" lon="-20.418869019">
<ele>118.017578</ele>
<time>2012-07-19T17:46:51Z</time>
<speed>3.400000</speed>
<extensions>
<speed>3.4</speed>
<temp>0.00</temp>
<bpm>0</bpm>
<rpm>0.00</rpm>
</extensions>
</trkpt>
<trkpt lat="64.276855469" lon="-20.418554306">
<ele>118.132813</ele>
<time>2012-07-19T17:46:56Z</time>
<speed>2.990000</speed>
<extensions>
<speed>3.0</speed>
<temp>0.00</temp>
<bpm>0</bpm>
<rpm>0.00</rpm>
</extensions>
</trkpt>
<trkpt lat="64.276840210" lon="-20.418249130">
<ele>118.574219</ele>
<time>2012-07-19T17:47:01Z</time>
<speed>2.770000</speed>
<extensions>
<speed>2.8</speed>
<temp>0.00</temp>
<bpm>0</bpm>
<rpm>0.00</rpm>
</extensions>
</trkpt>
<trkpt lat="64.276824951" lon="-20.418001175">
<ele>119.457031</ele>
<time>2012-07-19T17:47:06Z</time>
<speed>2.510000</speed>
<extensions>
<speed>2.5</speed>
<temp>0.00</temp>
<bpm>0</bpm>
<rpm>0.00</rpm>
</extensions>
</trkpt>
<trkpt lat="64.276802063" lon="-20.417718887">
<ele>121.109375</ele>
<time>2012-07-19T17:47:11Z</time>
<speed>2.960000</speed>
<extensions>
<speed>3.0</speed>
<temp>0.00</temp>
<bpm>0</bpm>
<rpm>0.00</rpm>
</extensions>
</trkpt>
<trkpt lat="64.276786804" lon="-20.417488098">
<ele>121.574219</ele>
<time>2012-07-19T17:47:16Z</time>
<speed>2.220000</speed>
<extensions>
<speed>2.2</speed>
<temp>0.00</temp>
<bpm>0</bpm>
<rpm>0.00</rpm>
</extensions>
</trkpt>
<trkpt lat="64.276779175" lon="-20.417213440">
<ele>122.056641</ele>
<time>2012-07-19T17:47:21Z</time>
<speed>2.480000</speed>
<extensions>
<speed>2.5</speed>
<temp>0.00</temp>
<bpm>0</bpm>
<rpm>0.00</rpm>
</extensions>
</trkpt>
<trkpt lat="64.276756287" lon="-20.416990280">
<ele>123.539063</ele>
<time>2012-07-19T17:47:26Z</time>
<speed>2.540000</speed>
<extensions>
<speed>2.5</speed>
<temp>0.00</temp>
<bpm>0</bpm>
<rpm>0.00</rpm>
</extensions>
</trkpt>
<trkpt lat="64.276748657" lon="-20.416727066">
<ele>124.779297</ele>
<time>2012-07-19T17:47:31Z</time>
<speed>2.430000</speed>
<extensions>
<speed>2.4</speed>
<temp>0.00</temp>
<bpm>0</bpm>
<rpm>0.00</rpm>
</extensions>
</trkpt>
<trkpt lat="64.276725769" lon="-20.416458130">
<ele>125.687500</ele>
<time>2012-07-19T17:47:36Z</time>
<speed>2.470000</speed>
<extensions>
<speed>2.5</speed>
<temp>0.00</temp>
<bpm>0</bpm>
<rpm>0.00</rpm>
</extensions>
</trkpt>
<trkpt lat="64.276687622" lon="-20.416250229">
<ele>125.480469</ele>
<time>2012-07-19T17:47:41Z</time>
<speed>2.090000</speed>
<extensions>
<speed>2.1</speed>
<temp>0.00</temp>
<bpm>0</bpm>
<rpm>0.00</rpm>
</extensions>
</trkpt>
<trkpt lat="64.276664734" lon="-20.416032791">
<ele>123.849609</ele>
<time>2012-07-19T17:47:46Z</time>
<speed>2.400000</speed>
<extensions>
<speed>2.4</speed>
<temp>0.00</temp>
<bpm>0</bpm>
<rpm>0.00</rpm>
</extensions>
</trkpt>
<trkpt lat="64.276649475" lon="-20.415784836">
<ele>124.603516</ele>
<time>2012-07-19T17:47:51Z</time>
<speed>2.270000</speed>
<extensions>
<speed>2.3</speed>
<temp>0.00</temp>
<bpm>0</bpm>
<rpm>0.00</rpm>
</extensions>
</trkpt>
<trkpt lat="64.276618958" lon="-20.415548325">
<ele>124.671875</ele>
<time>2012-07-19T17:47:56Z</time>
<speed>2.450000</speed>
<extensions>
<speed>2.4</speed>
<temp>0.00</temp>
<bpm>0</bpm>
<rpm>0.00</rpm>
</extensions>
</trkpt>
<trkpt lat="64.276596069" lon="-20.415336609">
<ele>125.091797</ele>
<time>2012-07-19T17:48:01Z</time>
<speed>2.220000</speed>
<extensions>
<speed>2.2</speed>
<temp>0.00</temp>
<bpm>0</bpm>
<rpm>0.00</rpm>
</extensions>
</trkpt>
<trkpt lat="64.276573181" lon="-20.415084839">
<ele>125.640625</ele>
<time>2012-07-19T17:48:06Z</time>
<speed>2.520000</speed>
<extensions>
<speed>2.5</speed>
<temp>0.00</temp>
<bpm>0</bpm>
<rpm>0.00</rpm>
</extensions>
</trkpt>
<trkpt lat="64.276542664" lon="-20.414842606">
<ele>125.197266</ele>
<time>2012-07-19T17:48:11Z</time>
<speed>2.320000</speed>
<extensions>
<speed>2.3</speed>
<temp>0.00</temp>
<bpm>0</bpm>
<rpm>0.00</rpm>
</extensions>
</trkpt>
<trkpt lat="64.276512146" lon="-20.414613724">
<ele>126.240234</ele>
<time>2012-07-19T17:48:16Z</time>
<speed>2.250000</speed>
<extensions>
<speed>2.3</speed>
<temp>0.00</temp>
<bpm>0</bpm>
<rpm>0.00</rpm>
</extensions>
</trkpt>
<trkpt lat="64.276481628" lon="-20.414449692">
<ele>126.853516</ele>
<time>2012-07-19T17:48:21Z</time>
<speed>1.590000</speed>
<extensions>
<speed>1.6</speed>
<temp>0.00</temp>
<bpm>0</bpm>
<rpm>0.00</rpm>
</extensions>
</trkpt>
<trkpt lat="64.276451111" lon="-20.414260864">
<ele>127.189453</ele>
<time>2012-07-19T17:48:26Z</time>
<speed>2.220000</speed>
<extensions>
<speed>2.2</speed>
<temp>0.00</temp>
<bpm>0</bpm>
<rpm>0.00</rpm>
</extensions>
</trkpt>
<trkpt lat="64.276420593" lon="-20.414011002">
<ele>127.914063</ele>
<time>2012-07-19T17:48:31Z</time>
<speed>2.390000</speed>
<extensions>
<speed>2.4</speed>
<temp>0.00</temp>
<bpm>0</bpm>
<rpm>0.00</rpm>
</extensions>
</trkpt>
<trkpt lat="64.276397705" lon="-20.413759232">
<ele>128.042969</ele>
<time>2012-07-19T17:48:36Z</time>
<speed>2.420000</speed>
<extensions>
<speed>2.4</speed>
<temp>0.00</temp>
<bpm>0</bpm>
<rpm>0.00</rpm>
</extensions>
</trkpt>
<trkpt lat="64.276367188" lon="-20.413524628">
<ele>128.187500</ele>
<time>2012-07-19T17:48:41Z</time>
<speed>2.460000</speed>
<extensions>
<speed>2.5</speed>
<temp>0.00</temp>
<bpm>0</bpm>
<rpm>0.00</rpm>
</extensions>
</trkpt>
<trkpt lat="64.276336670" lon="-20.413249969">
<ele>128.472656</ele>
<time>2012-07-19T17:48:46Z</time>
<speed>2.780000</speed>
<extensions>
<speed>2.8</speed>
<temp>0.00</temp>
<bpm>0</bpm>
<rpm>0.00</rpm>
</extensions>
</trkpt>
<trkpt lat="64.276290894" lon="-20.412963867">
<ele>129.164063</ele>
<time>2012-07-19T17:48:51Z</time>
<speed>2.870000</speed>
<extensions>
<speed>2.9</speed>
<temp>0.00</temp>
<bpm>0</bpm>
<rpm>0.00</rpm>
</extensions>
</trkpt>
<trkpt lat="64.276229858" lon="-20.412670135">
<ele>129.562500</ele>
<time>2012-07-19T17:48:56Z</time>
<speed>3.050000</speed>
<extensions>
<speed>3.0</speed>
<temp>0.00</temp>
<bpm>0</bpm>
<rpm>0.00</rpm>
</extensions>
</trkpt>
<trkpt lat="64.276168823" lon="-20.412385941">
<ele>129.398438</ele>
<time>2012-07-19T17:49:01Z</time>
<speed>3.170000</speed>
<extensions>
<speed>3.2</speed>
<temp>0.00</temp>
<bpm>0</bpm>
<rpm>0.00</rpm>
</extensions>
</trkpt>
<trkpt lat="64.276107788" lon="-20.412073135">
<ele>129.609375</ele>
<time>2012-07-19T17:49:06Z</time>
<speed>3.400000</speed>
<extensions>
<speed>3.4</speed>
<temp>0.00</temp>
<bpm>0</bpm>
<rpm>0.00</rpm>
</extensions>
</trkpt>
<trkpt lat="64.276039124" lon="-20.411741257">
<ele>129.859375</ele>
<time>2012-07-19T17:49:11Z</time>
<speed>3.480000</speed>
<extensions>
<speed>3.5</speed>
<temp>0.00</temp>
<bpm>0</bpm>
<rpm>0.00</rpm>
</extensions>
</trkpt>
<trkpt lat="64.275970459" lon="-20.411424637">
<ele>129.812500</ele>
<time>2012-07-19T17:49:16Z</time>
<speed>3.880000</speed>
<extensions>
<speed>3.9</speed>
<temp>0.00</temp>
<bpm>0</bpm>
<rpm>0.00</rpm>
</extensions>
</trkpt>
<trkpt lat="64.275901794" lon="-20.411092758">
<ele>129.718750</ele>
<time>2012-07-19T17:49:21Z</time>
<speed>2.950000</speed>
<extensions>
<speed>2.9</speed>
<temp>0.00</temp>
<bpm>0</bpm>
<rpm>0.00</rpm>
</extensions>
</trkpt>
<trkpt lat="64.275833130" lon="-20.410797119">
<ele>129.457031</ele>
<time>2012-07-19T17:49:26Z</time>
<speed>3.590000</speed>
<extensions>
<speed>3.6</speed>
<temp>0.00</temp>
<bpm>0</bpm>
<rpm>0.00</rpm>
</extensions>
</trkpt>
<trkpt lat="64.275741577" lon="-20.410463333">
<ele>129.351563</ele>
<time>2012-07-19T17:49:31Z</time>
<speed>3.790000</speed>
<extensions>
<speed>3.8</speed>
<temp>0.00</temp>
<bpm>0</bpm>
<rpm>0.00</rpm>
</extensions>
</trkpt>
<trkpt lat="64.275665283" lon="-20.410114288">
<ele>129.308594</ele>
<time>2012-07-19T17:49:36Z</time>
<speed>3.740000</speed>
<extensions>
<speed>3.7</speed>
<temp>0.00</temp>
<bpm>0</bpm>
<rpm>0.00</rpm>
</extensions>
</trkpt>
<trkpt lat="64.275573730" lon="-20.409772873">
<ele>129.121094</ele>
<time>2012-07-19T17:49:41Z</time>
<speed>3.740000</speed>
<extensions>
<speed>3.7</speed>
<temp>0.00</temp>
<bpm>0</bpm>
<rpm>0.00</rpm>
</extensions>
</trkpt>
<trkpt lat="64.275497437" lon="-20.409460068">
<ele>128.742188</ele>
<time>2012-07-19T17:49:46Z</time>
<speed>3.670000</speed>
<extensions>
<speed>3.7</speed>
<temp>0.00</temp>
<bpm>0</bpm>
<rpm>0.00</rpm>
</extensions>
</trkpt>
<trkpt lat="64.275405884" lon="-20.409109116">
<ele>128.324219</ele>
<time>2012-07-19T17:49:51Z</time>
<speed>3.960000</speed>
<extensions>
<speed>4.0</speed>
<temp>0.00</temp>
<bpm>0</bpm>
<rpm>0.00</rpm>
</extensions>
</trkpt>
<trkpt lat="64.275321960" lon="-20.408769608">
<ele>127.972656</ele>
<time>2012-07-19T17:49:56Z</time>
<speed>3.880000</speed>
<extensions>
<speed>3.9</speed>
<temp>0.00</temp>
<bpm>0</bpm>
<rpm>0.00</rpm>
</extensions>
</trkpt>
<trkpt lat="64.275222778" lon="-20.408409119">
<ele>127.978516</ele>
<time>2012-07-19T17:50:01Z</time>
<speed>4.260000</speed>
<extensions>
<speed>4.3</speed>
<temp>0.00</temp>
<bpm>0</bpm>
<rpm>0.00</rpm>
</extensions>
</trkpt>
<trkpt lat="64.275115967" lon="-20.408042908">
<ele>127.798828</ele>
<time>2012-07-19T17:50:06Z</time>
<speed>4.190000</speed>
<extensions>
<speed>4.2</speed>
<temp>0.00</temp>
<bpm>0</bpm>
<rpm>0.00</rpm>
</extensions>
</trkpt>
<trkpt lat="64.275016785" lon="-20.407657623">
<ele>127.761719</ele>
<time>2012-07-19T17:50:11Z</time>
<speed>4.370000</speed>
<extensions>
<speed>4.4</speed>
<temp>0.00</temp>
<bpm>0</bpm>
<rpm>0.00</rpm>
</extensions>
</trkpt>
<trkpt lat="64.274925232" lon="-20.407281876">
<ele>127.111328</ele>
<time>2012-07-19T17:50:16Z</time>
<speed>4.170000</speed>
<extensions>
<speed>4.2</speed>
<temp>0.00</temp>
<bpm>0</bpm>
<rpm>0.00</rpm>
</extensions>
</trkpt>
<trkpt lat="64.274833679" lon="-20.406881332">
<ele>127.230469</ele>
<time>2012-07-19T17:50:21Z</time>
<speed>4.370000</speed>
<extensions>
<speed>4.4</speed>
<temp>0.00</temp>
<bpm>0</bpm>
<rpm>0.00</rpm>
</extensions>
</trkpt>
<trkpt lat="64.274749756" lon="-20.406475067">
<ele>127.275391</ele>
<time>2012-07-19T17:50:26Z</time>
<speed>4.530000</speed>
<extensions>
<speed>4.5</speed>
<temp>0.00</temp>
<bpm>0</bpm>
<rpm>0.00</rpm>
</extensions>
</trkpt>
<trkpt lat="64.274658203" lon="-20.406040192">
<ele>126.806641</ele>
<time>2012-07-19T17:50:31Z</time>
<speed>4.560000</speed>
<extensions>
<speed>4.6</speed>
<temp>0.00</temp>
<bpm>0</bpm>
<rpm>0.00</rpm>
</extensions>
</trkpt>
<trkpt lat="64.274574280" lon="-20.405626297">
<ele>127.291016</ele>
<time>2012-07-19T17:50:36Z</time>
<speed>4.340000</speed>
<extensions>
<speed>4.3</speed>
<temp>0.00</temp>
<bpm>0</bpm>
<rpm>0.00</rpm>
</extensions>
</trkpt>
<trkpt lat="64.274497986" lon="-20.405242920">
<ele>127.515625</ele>
<time>2012-07-19T17:50:41Z</time>
<speed>3.630000</speed>
<extensions>
<speed>3.6</speed>
<temp>0.00</temp>
<bpm>0</bpm>
<rpm>0.00</rpm>
</extensions>
</trkpt>
<trkpt lat="64.274436951" lon="-20.404878616">
<ele>127.564453</ele>
<time>2012-07-19T17:50:46Z</time>
<speed>4.400000</speed>
<extensions>
<speed>4.4</speed>
<temp>0.00</temp>
<bpm>0</bpm>
<rpm>0.00</rpm>
</extensions>
</trkpt>
<trkpt lat="64.274353027" lon="-20.404411316">
<ele>127.464844</ele>
<time>2012-07-19T17:50:51Z</time>
<speed>4.950000</speed>
<extensions>
<speed>4.9</speed>
<temp>0.00</temp>
<bpm>0</bpm>
<rpm>0.00</rpm>
</extensions>
</trkpt>
<trkpt lat="64.274291992" lon="-20.403953552">
<ele>127.306641</ele>
<time>2012-07-19T17:50:56Z</time>
<speed>4.490000</speed>
<extensions>
<speed>4.5</speed>
<temp>0.00</temp>
<bpm>0</bpm>
<rpm>0.00</rpm>
</extensions>
</trkpt>
<trkpt lat="64.274215698" lon="-20.403497696">
<ele>126.871094</ele>
<time>2012-07-19T17:51:01Z</time>
<speed>4.870000</speed>
<extensions>
<speed>4.9</speed>
<temp>0.00</temp>
<bpm>0</bpm>
<rpm>0.00</rpm>
</extensions>
</trkpt>
<trkpt lat="64.274147034" lon="-20.403022766">
<ele>126.289063</ele>
<time>2012-07-19T17:51:06Z</time>
<speed>4.890000</speed>
<extensions>
<speed>4.9</speed>
<temp>0.00</temp>
<bpm>0</bpm>
<rpm>0.00</rpm>
</extensions>
</trkpt>
<trkpt lat="64.274085999" lon="-20.402513504">
<ele>125.781250</ele>
<time>2012-07-19T17:51:11Z</time>
<speed>5.280000</speed>
<extensions>
<speed>5.3</speed>
<temp>0.00</temp>
<bpm>0</bpm>
<rpm>0.00</rpm>
</extensions>
</trkpt>
<trkpt lat="64.274017334" lon="-20.401958466">
<ele>124.671875</ele>
<time>2012-07-19T17:51:16Z</time>
<speed>6.160000</speed>
<extensions>
<speed>6.2</speed>
<temp>0.00</temp>
<bpm>0</bpm>
<rpm>0.00</rpm>
</extensions>
</trkpt>
<trkpt lat="64.273941040" lon="-20.401285172">
<ele>123.482422</ele>
<time>2012-07-19T17:51:21Z</time>
<speed>7.070000</speed>
<extensions>
<speed>7.1</speed>
<temp>0.00</temp>
<bpm>0</bpm>
<rpm>0.00</rpm>
</extensions>
</trkpt>
<trkpt lat="64.273872375" lon="-20.400552750">
<ele>122.345703</ele>
<time>2012-07-19T17:51:26Z</time>
<speed>7.360000</speed>
<extensions>
<speed>7.4</speed>
<temp>0.00</temp>
<bpm>0</bpm>
<rpm>0.00</rpm>
</extensions>
</trkpt>
<trkpt lat="64.273803711" lon="-20.399816513">
<ele>121.306641</ele>
<time>2012-07-19T17:51:31Z</time>
<speed>7.170000</speed>
<extensions>
<speed>7.2</speed>
<temp>0.00</temp>
<bpm>0</bpm>
<rpm>0.00</rpm>
</extensions>
</trkpt>
<trkpt lat="64.273750305" lon="-20.399112701">
<ele>120.980469</ele>
<time>2012-07-19T17:51:36Z</time>
<speed>6.630000</speed>
<extensions>
<speed>6.6</speed>
<temp>0.00</temp>
<bpm>0</bpm>
<rpm>0.00</rpm>
</extensions>
</trkpt>
<trkpt lat="64.273712158" lon="-20.398473740">
<ele>121.089844</ele>
<time>2012-07-19T17:51:41Z</time>
<speed>6.150000</speed>
<extensions>
<speed>6.1</speed>
<temp>0.00</temp>
<bpm>0</bpm>
<rpm>0.00</rpm>
</extensions>
</trkpt>
<trkpt lat="64.273674011" lon="-20.397886276">
<ele>121.566406</ele>
<time>2012-07-19T17:51:46Z</time>
<speed>5.520000</speed>
<extensions>
<speed>5.5</speed>
<temp>0.00</temp>
<bpm>0</bpm>
<rpm>0.00</rpm>
</extensions>
</trkpt>
<trkpt lat="64.273628235" lon="-20.397335052">
<ele>122.109375</ele>
<time>2012-07-19T17:51:51Z</time>
<speed>5.160000</speed>
<extensions>
<speed>5.2</speed>
<temp>0.00</temp>
<bpm>0</bpm>
<rpm>0.00</rpm>
</extensions>
</trkpt>
<trkpt lat="64.273582458" lon="-20.396808624">
<ele>122.599609</ele>
<time>2012-07-19T17:51:56Z</time>
<speed>5.250000</speed>
<extensions>
<speed>5.2</speed>
<temp>0.00</temp>
<bpm>0</bpm>
<rpm>0.00</rpm>
</extensions>
</trkpt>
<trkpt lat="64.273521423" lon="-20.396291733">
<ele>122.160156</ele>
<time>2012-07-19T17:52:01Z</time>
<speed>5.540000</speed>
<extensions>
<speed>5.5</speed>
<temp>0.00</temp>
<bpm>0</bpm>
<rpm>0.00</rpm>
</extensions>
</trkpt>
<trkpt lat="64.273460388" lon="-20.395730972">
<ele>121.759766</ele>
<time>2012-07-19T17:52:06Z</time>
<speed>5.810000</speed>
<extensions>
<speed>5.8</speed>
<temp>0.00</temp>
<bpm>0</bpm>
<rpm>0.00</rpm>
</extensions>
</trkpt>
<trkpt lat="64.273384094" lon="-20.395132065">
<ele>121.566406</ele>
<time>2012-07-19T17:52:11Z</time>
<speed>6.030000</speed>
<extensions>
<speed>6.0</speed>
<temp>0.00</temp>
<bpm>0</bpm>
<rpm>0.00</rpm>
</extensions>
</trkpt>
<trkpt lat="64.273284912" lon="-20.394531250">
<ele>121.285156</ele>
<time>2012-07-19T17:52:16Z</time>
<speed>6.260000</speed>
<extensions>
<speed>6.3</speed>
<temp>0.00</temp>
<bpm>0</bpm>
<rpm>0.00</rpm>
</extensions>
</trkpt>
<trkpt lat="64.273185730" lon="-20.393907547">
<ele>121.013672</ele>
<time>2012-07-19T17:52:21Z</time>
<speed>6.280000</speed>
<extensions>
<speed>6.3</speed>
<temp>0.00</temp>
<bpm>0</bpm>
<rpm>0.00</rpm>
</extensions>
</trkpt>
<trkpt lat="64.273071289" lon="-20.393306732">
<ele>120.273438</ele>
<time>2012-07-19T17:52:26Z</time>
<speed>6.410000</speed>
<extensions>
<speed>6.4</speed>
<temp>0.00</temp>
<bpm>0</bpm>
<rpm>0.00</rpm>
</extensions>
</trkpt>
<trkpt lat="64.272941589" lon="-20.392698288">
<ele>120.179688</ele>
<time>2012-07-19T17:52:31Z</time>
<speed>6.520000</speed>
<extensions>
<speed>6.5</speed>
<temp>0.00</temp>
<bpm>0</bpm>
<rpm>0.00</rpm>
</extensions>
</trkpt>
<trkpt lat="64.272811890" lon="-20.392107010">
<ele>119.939453</ele>
<time>2012-07-19T17:52:36Z</time>
<speed>6.510000</speed>
<extensions>
<speed>6.5</speed>
<temp>0.00</temp>
<bpm>0</bpm>
<rpm>0.00</rpm>
</extensions>
</trkpt>
<trkpt lat="64.272659302" lon="-20.391536713">
<ele>119.708984</ele>
<time>2012-07-19T17:52:41Z</time>
<speed>6.430000</speed>
<extensions>
<speed>6.4</speed>
<temp>0.00</temp>
<bpm>0</bpm>
<rpm>0.00</rpm>
</extensions>
</trkpt>
<trkpt lat="64.272506714" lon="-20.390975952">
<ele>119.146484</ele>
<time>2012-07-19T17:52:46Z</time>
<speed>5.970000</speed>
<extensions>
<speed>6.0</speed>
<temp>0.00</temp>
<bpm>0</bpm>
<rpm>0.00</rpm>
</extensions>
</trkpt>
<trkpt lat="64.272369385" lon="-20.390485764">
<ele>118.660156</ele>
<time>2012-07-19T17:52:51Z</time>
<speed>5.830000</speed>
<extensions>
<speed>5.8</speed>
<temp>0.00</temp>
<bpm>0</bpm>
<rpm>0.00</rpm>
</extensions>
</trkpt>
<trkpt lat="64.272216797" lon="-20.389961243">
<ele>118.605469</ele>
<time>2012-07-19T17:52:56Z</time>
<speed>6.270000</speed>
<extensions>
<speed>6.3</speed>
<temp>0.00</temp>
<bpm>0</bpm>
<rpm>0.00</rpm>
</extensions>
</trkpt>
<trkpt lat="64.272048950" lon="-20.389415741">
<ele>118.011719</ele>
<time>2012-07-19T17:53:01Z</time>
<speed>6.000000</speed>
<extensions>
<speed>6.0</speed>
<temp>0.00</temp>
<bpm>0</bpm>
<rpm>0.00</rpm>
</extensions>
</trkpt>
<trkpt lat="64.271903992" lon="-20.388931274">
<ele>117.472656</ele>
<time>2012-07-19T17:53:06Z</time>
<speed>5.930000</speed>
<extensions>
<speed>5.9</speed>
<temp>0.00</temp>
<bpm>0</bpm>
<rpm>0.00</rpm>
</extensions>
</trkpt>
<trkpt lat="64.271759033" lon="-20.388433456">
<ele>117.314453</ele>
<time>2012-07-19T17:53:11Z</time>
<speed>5.520000</speed>
<extensions>
<speed>5.5</speed>
<temp>0.00</temp>
<bpm>0</bpm>
<rpm>0.00</rpm>
</extensions>
</trkpt>
<trkpt lat="64.271629333" lon="-20.387950897">
<ele>116.900391</ele>
<time>2012-07-19T17:53:16Z</time>
<speed>5.560000</speed>
<extensions>
<speed>5.6</speed>
<temp>0.00</temp>
<bpm>0</bpm>
<rpm>0.00</rpm>
</extensions>
</trkpt>
<trkpt lat="64.271499634" lon="-20.387434006">
<ele>116.632813</ele>
<time>2012-07-19T17:53:21Z</time>
<speed>5.720000</speed>
<extensions>
<speed>5.7</speed>
<temp>0.00</temp>
<bpm>0</bpm>
<rpm>0.00</rpm>
</extensions>
</trkpt>
<trkpt lat="64.271392822" lon="-20.386922836">
<ele>116.757813</ele>
<time>2012-07-19T17:53:26Z</time>
<speed>5.760000</speed>
<extensions>
<speed>5.8</speed>
<temp>0.00</temp>
<bpm>0</bpm>
<rpm>0.00</rpm>
</extensions>
</trkpt>
<trkpt lat="64.271278381" lon="-20.386369705">
<ele>116.318359</ele>
<time>2012-07-19T17:53:31Z</time>
<speed>6.010000</speed>
<extensions>
<speed>6.0</speed>
<temp>0.00</temp>
<bpm>0</bpm>
<rpm>0.00</rpm>
</extensions>
</trkpt>
<trkpt lat="64.271186829" lon="-20.385801315">
<ele>116.013672</ele>
<time>2012-07-19T17:53:36Z</time>
<speed>5.620000</speed>
<extensions>
<speed>5.6</speed>
<temp>0.00</temp>
<bpm>0</bpm>
<rpm>0.00</rpm>
</extensions>
</trkpt>
<trkpt lat="64.271102905" lon="-20.385229111">
<ele>115.416016</ele>
<time>2012-07-19T17:53:41Z</time>
<speed>5.800000</speed>
<extensions>
<speed>5.8</speed>
<temp>0.00</temp>
<bpm>0</bpm>
<rpm>0.00</rpm>
</extensions>
</trkpt>
<trkpt lat="64.271026611" lon="-20.384666443">
<ele>115.287109</ele>
<time>2012-07-19T17:53:46Z</time>
<speed>6.070000</speed>
<extensions>
<speed>6.1</speed>
<temp>0.00</temp>
<bpm>0</bpm>
<rpm>0.00</rpm>
</extensions>
</trkpt>
<trkpt lat="64.270965576" lon="-20.384038925">
<ele>114.857422</ele>
<time>2012-07-19T17:53:51Z</time>
<speed>6.160000</speed>
<extensions>
<speed>6.2</speed>
<temp>0.00</temp>
<bpm>0</bpm>
<rpm>0.00</rpm>
</extensions>
</trkpt>
<trkpt lat="64.270919800" lon="-20.383434296">
<ele>114.339844</ele>
<time>2012-07-19T17:53:56Z</time>
<speed>5.890000</speed>
<extensions>
<speed>5.9</speed>
<temp>0.00</temp>
<bpm>0</bpm>
<rpm>0.00</rpm>
</extensions>
</trkpt>
<trkpt lat="64.270866394" lon="-20.382804871">
<ele>113.833984</ele>
<time>2012-07-19T17:54:01Z</time>
<speed>6.610000</speed>
<extensions>
<speed>6.6</speed>
<temp>0.00</temp>
<bpm>0</bpm>
<rpm>0.00</rpm>
</extensions>
</trkpt>
<trkpt lat="64.270835876" lon="-20.382083893">
<ele>112.783203</ele>
<time>2012-07-19T17:54:06Z</time>
<speed>7.290000</speed>
<extensions>
<speed>7.3</speed>
<temp>0.00</temp>
<bpm>0</bpm>
<rpm>0.00</rpm>
</extensions>
</trkpt>
<trkpt lat="64.270828247" lon="-20.381319046">
<ele>112.468750</ele>
<time>2012-07-19T17:54:11Z</time>
<speed>7.420000</speed>
<extensions>
<speed>7.4</speed>
<temp>0.00</temp>
<bpm>0</bpm>
<rpm>0.00</rpm>
</extensions>
</trkpt>
<trkpt lat="64.270835876" lon="-20.380548477">
<ele>111.556641</ele>
<time>2012-07-19T17:54:16Z</time>
<speed>7.360000</speed>
<extensions>
<speed>7.4</speed>
<temp>0.00</temp>
<bpm>0</bpm>
<rpm>0.00</rpm>
</extensions>
</trkpt>
<trkpt lat="64.270858765" lon="-20.379783630">
<ele>111.048828</ele>
<time>2012-07-19T17:54:21Z</time>
<speed>7.510000</speed>
<extensions>
<speed>7.5</speed>
<temp>0.00</temp>
<bpm>0</bpm>
<rpm>0.00</rpm>
</extensions>
</trkpt>
<trkpt lat="64.270904541" lon="-20.378976822">
<ele>109.880859</ele>
<time>2012-07-19T17:54:26Z</time>
<speed>8.050000</speed>
<extensions>
<speed>8.0</speed>
<temp>0.00</temp>
<bpm>0</bpm>
<rpm>0.00</rpm>
</extensions>
</trkpt>
<trkpt lat="64.270980835" lon="-20.378162384">
<ele>109.195313</ele>
<time>2012-07-19T17:54:31Z</time>
<speed>7.830000</speed>
<extensions>
<speed>7.8</speed>
<temp>0.00</temp>
<bpm>0</bpm>
<rpm>0.00</rpm>
</extensions>
</trkpt>
<trkpt lat="64.271064758" lon="-20.377399445">
<ele>108.458984</ele>
<time>2012-07-19T17:54:36Z</time>
<speed>7.350000</speed>
<extensions>
<speed>7.3</speed>
<temp>0.00</temp>
<bpm>0</bpm>
<rpm>0.00</rpm>
</extensions>
</trkpt>
<trkpt lat="64.271179199" lon="-20.376653671">
<ele>107.628906</ele>
<time>2012-07-19T17:54:41Z</time>
<speed>7.980000</speed>
<extensions>
<speed>8.0</speed>
<temp>0.00</temp>
<bpm>0</bpm>
<rpm>0.00</rpm>
</extensions>
</trkpt>
<trkpt lat="64.271308899" lon="-20.375886917">
<ele>106.818359</ele>
<time>2012-07-19T17:54:46Z</time>
<speed>8.180000</speed>
<extensions>
<speed>8.2</speed>
<temp>0.00</temp>
<bpm>0</bpm>
<rpm>0.00</rpm>
</extensions>
</trkpt>
<trkpt lat="64.271469116" lon="-20.375112534">
<ele>106.031250</ele>
<time>2012-07-19T17:54:51Z</time>
<speed>8.230000</speed>
<extensions>
<speed>8.2</speed>
<temp>0.00</temp>
<bpm>0</bpm>
<rpm>0.00</rpm>
</extensions>
</trkpt>
<trkpt lat="64.271629333" lon="-20.374351501">
<ele>105.664063</ele>
<time>2012-07-19T17:54:56Z</time>
<speed>8.260000</speed>
<extensions>
<speed>8.3</speed>
<temp>0.00</temp>
<bpm>0</bpm>
<rpm>0.00</rpm>
</extensions>
</trkpt>
<trkpt lat="64.271781921" lon="-20.373582840">
<ele>105.626953</ele>
<time>2012-07-19T17:55:01Z</time>
<speed>8.100000</speed>
<extensions>
<speed>8.1</speed>
<temp>0.00</temp>
<bpm>0</bpm>
<rpm>0.00</rpm>
</extensions>
</trkpt>
<trkpt lat="64.271919250" lon="-20.372880936">
<ele>105.835938</ele>
<time>2012-07-19T17:55:06Z</time>
<speed>6.930000</speed>
<extensions>
<speed>6.9</speed>
<temp>0.00</temp>
<bpm>0</bpm>
<rpm>0.00</rpm>
</extensions>
</trkpt>
<trkpt lat="64.272041321" lon="-20.372222900">
<ele>105.859375</ele>
<time>2012-07-19T17:55:11Z</time>
<speed>7.100000</speed>
<extensions>
<speed>7.1</speed>
<temp>0.00</temp>
<bpm>0</bpm>
<rpm>0.00</rpm>
</extensions>
</trkpt>
<trkpt lat="64.272140503" lon="-20.371545792">
<ele>106.056641</ele>
<time>2012-07-19T17:55:16Z</time>
<speed>6.500000</speed>
<extensions>
<speed>6.5</speed>
<temp>0.00</temp>
<bpm>0</bpm>
<rpm>0.00</rpm>
</extensions>
</trkpt>
<trkpt lat="64.272216797" lon="-20.370954514">
<ele>106.205078</ele>
<time>2012-07-19T17:55:21Z</time>
<speed>5.910000</speed>
<extensions>
<speed>5.9</speed>
<temp>0.00</temp>
<bpm>0</bpm>
<rpm>0.00</rpm>
</extensions>
</trkpt>
<trkpt lat="64.272270203" lon="-20.370334625">
<ele>106.644531</ele>
<time>2012-07-19T17:55:26Z</time>
<speed>6.400000</speed>
<extensions>
<speed>6.4</speed>
<temp>0.00</temp>
<bpm>0</bpm>
<rpm>0.00</rpm>
</extensions>
</trkpt>
<trkpt lat="64.272323608" lon="-20.369678497">
<ele>106.652344</ele>
<time>2012-07-19T17:55:31Z</time>
<speed>6.120000</speed>
<extensions>
<speed>6.1</speed>
<temp>0.00</temp>
<bpm>0</bpm>
<rpm>0.00</rpm>
</extensions>
</trkpt>
<trkpt lat="64.272361755" lon="-20.369091034">
<ele>106.710938</ele>
<time>2012-07-19T17:55:36Z</time>
<speed>5.920000</speed>
<extensions>
<speed>5.9</speed>
<temp>0.00</temp>
<bpm>0</bpm>
<rpm>0.00</rpm>
</extensions>
</trkpt>
<trkpt lat="64.272407532" lon="-20.368457794">
<ele>106.470703</ele>
<time>2012-07-19T17:55:41Z</time>
<speed>6.290000</speed>
<extensions>
<speed>6.3</speed>
<temp>0.00</temp>
<bpm>0</bpm>
<rpm>0.00</rpm>
</extensions>
</trkpt>
<trkpt lat="64.272445679" lon="-20.367849350">
<ele>106.523438</ele>
<time>2012-07-19T17:55:46Z</time>
<speed>5.880000</speed>
<extensions>
<speed>5.9</speed>
<temp>0.00</temp>
<bpm>0</bpm>
<rpm>0.00</rpm>
</extensions>
</trkpt>
<trkpt lat="64.272468567" lon="-20.367210388">
<ele>106.611328</ele>
<time>2012-07-19T17:55:51Z</time>
<speed>6.530000</speed>
<extensions>
<speed>6.5</speed>
<temp>0.00</temp>
<bpm>0</bpm>
<rpm>0.00</rpm>
</extensions>
</trkpt>
<trkpt lat="64.272506714" lon="-20.366525650">
<ele>106.125000</ele>
<time>2012-07-19T17:55:56Z</time>
<speed>6.460000</speed>
<extensions>
<speed>6.5</speed>
<temp>0.00</temp>
<bpm>0</bpm>
<rpm>0.00</rpm>
</extensions>
</trkpt>
<trkpt lat="64.272544861" lon="-20.365890503">
<ele>105.607422</ele>
<time>2012-07-19T17:56:01Z</time>
<speed>6.230000</speed>
<extensions>
<speed>6.2</speed>
<temp>0.00</temp>
<bpm>0</bpm>
<rpm>0.00</rpm>
</extensions>
</trkpt>
<trkpt lat="64.272583008" lon="-20.365224838">
<ele>105.412109</ele>
<time>2012-07-19T17:56:06Z</time>
<speed>6.730000</speed>
<extensions>
<speed>6.7</speed>
<temp>0.00</temp>
<bpm>0</bpm>
<rpm>0.00</rpm>
</extensions>
</trkpt>
<trkpt lat="64.272621155" lon="-20.364555359">
<ele>105.367188</ele>
<time>2012-07-19T17:56:11Z</time>
<speed>6.240000</speed>
<extensions>
<speed>6.2</speed>
<temp>0.00</temp>
<bpm>0</bpm>
<rpm>0.00</rpm>
</extensions>
</trkpt>
<trkpt lat="64.272651672" lon="-20.363948822">
<ele>105.041016</ele>
<time>2012-07-19T17:56:16Z</time>
<speed>5.590000</speed>
<extensions>
<speed>5.6</speed>
<temp>0.00</temp>
<bpm>0</bpm>
<rpm>0.00</rpm>
</extensions>
</trkpt>
<trkpt lat="64.272674561" lon="-20.363363266">
<ele>104.550781</ele>
<time>2012-07-19T17:56:21Z</time>
<speed>6.090000</speed>
<extensions>
<speed>6.1</speed>
<temp>0.00</temp>
<bpm>0</bpm>
<rpm>0.00</rpm>
</extensions>
</trkpt>
<trkpt lat="64.272712708" lon="-20.362710953">
<ele>103.992188</ele>
<time>2012-07-19T17:56:26Z</time>
<speed>6.390000</speed>
<extensions>
<speed>6.4</speed>
<temp>0.00</temp>
<bpm>0</bpm>
<rpm>0.00</rpm>
</extensions>
</trkpt>
<trkpt lat="64.272743225" lon="-20.362094879">
<ele>103.931641</ele>
<time>2012-07-19T17:56:31Z</time>
<speed>5.740000</speed>
<extensions>
<speed>5.7</speed>
<temp>0.00</temp>
<bpm>0</bpm>
<rpm>0.00</rpm>
</extensions>
</trkpt>
<trkpt lat="64.272781372" lon="-20.361501694">
<ele>103.714844</ele>
<time>2012-07-19T17:56:36Z</time>
<speed>5.940000</speed>
<extensions>
<speed>5.9</speed>
<temp>0.00</temp>
<bpm>0</bpm>
<rpm>0.00</rpm>
</extensions>
</trkpt>
<trkpt lat="64.272811890" lon="-20.360897064">
<ele>103.529297</ele>
<time>2012-07-19T17:56:41Z</time>
<speed>6.070000</speed>
<extensions>
<speed>6.1</speed>
<temp>0.00</temp>
<bpm>0</bpm>
<rpm>0.00</rpm>
</extensions>
</trkpt>
<trkpt lat="64.272857666" lon="-20.360254288">
<ele>103.785156</ele>
<time>2012-07-19T17:56:46Z</time>
<speed>6.350000</speed>
<extensions>
<speed>6.4</speed>
<temp>0.00</temp>
<bpm>0</bpm>
<rpm>0.00</rpm>
</extensions>
</trkpt>
<trkpt lat="64.272918701" lon="-20.359592438">
<ele>103.843750</ele>
<time>2012-07-19T17:56:51Z</time>
<speed>6.630000</speed>
<extensions>
<speed>6.6</speed>
<temp>0.00</temp>
<bpm>0</bpm>
<rpm>0.00</rpm>
</extensions>
</trkpt>
<trkpt lat="64.272994995" lon="-20.358926773">
<ele>103.423828</ele>
<time>2012-07-19T17:56:56Z</time>
<speed>6.470000</speed>
<extensions>
<speed>6.5</speed>
<temp>0.00</temp>
<bpm>0</bpm>
<rpm>0.00</rpm>
</extensions>
</trkpt>
<trkpt lat="64.273078918" lon="-20.358341217">
<ele>103.333984</ele>
<time>2012-07-19T17:57:01Z</time>
<speed>5.680000</speed>
<extensions>
<speed>5.7</speed>
<temp>0.00</temp>
<bpm>0</bpm>
<rpm>0.00</rpm>
</extensions>
</trkpt>
<trkpt lat="64.273162842" lon="-20.357797623">
<ele>103.369141</ele>
<time>2012-07-19T17:57:06Z</time>
<speed>5.910000</speed>
<extensions>
<speed>5.9</speed>
<temp>0.00</temp>
<bpm>0</bpm>
<rpm>0.00</rpm>
</extensions>
</trkpt>
<trkpt lat="64.273269653" lon="-20.357254028">
<ele>103.191406</ele>
<time>2012-07-19T17:57:11Z</time>
<speed>5.820000</speed>
<extensions>
<speed>5.8</speed>
<temp>0.00</temp>
<bpm>0</bpm>
<rpm>0.00</rpm>
</extensions>
</trkpt>
<trkpt lat="64.273406982" lon="-20.356737137">
<ele>103.277344</ele>
<time>2012-07-19T17:57:16Z</time>
<speed>5.880000</speed>
<extensions>
<speed>5.9</speed>
<temp>0.00</temp>
<bpm>0</bpm>
<rpm>0.00</rpm>
</extensions>
</trkpt>
<trkpt lat="64.273544312" lon="-20.356206894">
<ele>102.974609</ele>
<time>2012-07-19T17:57:21Z</time>
<speed>6.040000</speed>
<extensions>
<speed>6.0</speed>
<temp>0.00</temp>
<bpm>0</bpm>
<rpm>0.00</rpm>
</extensions>
</trkpt>
<trkpt lat="64.273712158" lon="-20.355676651">
<ele>102.746094</ele>
<time>2012-07-19T17:57:26Z</time>
<speed>6.600000</speed>
<extensions>
<speed>6.6</speed>
<temp>0.00</temp>
<bpm>0</bpm>
<rpm>0.00</rpm>
</extensions>
</trkpt>
<trkpt lat="64.273918152" lon="-20.355138779">
<ele>102.597656</ele>
<time>2012-07-19T17:57:31Z</time>
<speed>6.630000</speed>
<extensions>
<speed>6.6</speed>
<temp>0.00</temp>
<bpm>0</bpm>
<rpm>0.00</rpm>
</extensions>
</trkpt>
<trkpt lat="64.274108887" lon="-20.354661942">
<ele>102.419922</ele>
<time>2012-07-19T17:57:36Z</time>
<speed>6.070000</speed>
<extensions>
<speed>6.1</speed>
<temp>0.00</temp>
<bpm>0</bpm>
<rpm>0.00</rpm>
</extensions>
</trkpt>
<trkpt lat="64.274322510" lon="-20.354198456">
<ele>101.966797</ele>
<time>2012-07-19T17:57:41Z</time>
<speed>6.820000</speed>
<extensions>
<speed>6.8</speed>
<temp>0.00</temp>
<bpm>0</bpm>
<rpm>0.00</rpm>
</extensions>
</trkpt>
<trkpt lat="64.274551392" lon="-20.353746414">
<ele>102.250000</ele>
<time>2012-07-19T17:57:46Z</time>
<speed>6.640000</speed>
<extensions>
<speed>6.6</speed>
<temp>0.00</temp>
<bpm>0</bpm>
<rpm>0.00</rpm>
</extensions>
</trkpt>
<trkpt lat="64.274749756" lon="-20.353343964">
<ele>102.792969</ele>
<time>2012-07-19T17:57:51Z</time>
<speed>5.700000</speed>
<extensions>
<speed>5.7</speed>
<temp>0.00</temp>
<bpm>0</bpm>
<rpm>0.00</rpm>
</extensions>
</trkpt>
<trkpt lat="64.274955750" lon="-20.352956772">
<ele>103.162109</ele>
<time>2012-07-19T17:57:56Z</time>
<speed>5.950000</speed>
<extensions>
<speed>6.0</speed>
<temp>0.00</temp>
<bpm>0</bpm>
<rpm>0.00</rpm>
</extensions>
</trkpt>
<trkpt lat="64.275154114" lon="-20.352548599">
<ele>103.138672</ele>
<time>2012-07-19T17:58:01Z</time>
<speed>5.690000</speed>
<extensions>
<speed>5.7</speed>
<temp>0.00</temp>
<bpm>0</bpm>
<rpm>0.00</rpm>
</extensions>
</trkpt>
<trkpt lat="64.275337219" lon="-20.352170944">
<ele>103.363281</ele>
<time>2012-07-19T17:58:06Z</time>
<speed>5.470000</speed>
<extensions>
<speed>5.5</speed>
<temp>0.00</temp>
<bpm>0</bpm>
<rpm>0.00</rpm>
</extensions>
</trkpt>
<trkpt lat="64.275520325" lon="-20.351772308">
<ele>103.105469</ele>
<time>2012-07-19T17:58:11Z</time>
<speed>5.920000</speed>
<extensions>
<speed>5.9</speed>
<temp>0.00</temp>
<bpm>0</bpm>
<rpm>0.00</rpm>
</extensions>
</trkpt>
<trkpt lat="64.275718689" lon="-20.351381302">
<ele>103.035156</ele>
<time>2012-07-19T17:58:16Z</time>
<speed>5.430000</speed>
<extensions>
<speed>5.4</speed>
<temp>0.00</temp>
<bpm>0</bpm>
<rpm>0.00</rpm>
</extensions>
</trkpt>
<trkpt lat="64.275901794" lon="-20.351015091">
<ele>103.041016</ele>
<time>2012-07-19T17:58:21Z</time>
<speed>5.530000</speed>
<extensions>
<speed>5.5</speed>
<temp>0.00</temp>
<bpm>0</bpm>
<rpm>0.00</rpm>
</extensions>
</trkpt>
<trkpt lat="64.276115417" lon="-20.350654602">
<ele>103.148438</ele>
<time>2012-07-19T17:58:26Z</time>
<speed>6.140000</speed>
<extensions>
<speed>6.1</speed>
<temp>0.00</temp>
<bpm>0</bpm>
<rpm>0.00</rpm>
</extensions>
</trkpt>
<trkpt lat="64.276359558" lon="-20.350267410">
<ele>102.642578</ele>
<time>2012-07-19T17:58:31Z</time>
<speed>6.640000</speed>
<extensions>
<speed>6.6</speed>
<temp>0.00</temp>
<bpm>0</bpm>
<rpm>0.00</rpm>
</extensions>
</trkpt>
<trkpt lat="64.276611328" lon="-20.349868774">
<ele>102.312500</ele>
<time>2012-07-19T17:58:36Z</time>
<speed>6.650000</speed>
<extensions>
<speed>6.7</speed>
<temp>0.00</temp>
<bpm>0</bpm>
<rpm>0.00</rpm>
</extensions>
</trkpt>
<trkpt lat="64.276893616" lon="-20.349494934">
<ele>100.537109</ele>
<time>2012-07-19T17:58:41Z</time>
<speed>6.950000</speed>
<extensions>
<speed>7.0</speed>
<temp>0.00</temp>
<bpm>0</bpm>
<rpm>0.00</rpm>
</extensions>
</trkpt>
<trkpt lat="64.277168274" lon="-20.349128723">
<ele>99.703125</ele>
<time>2012-07-19T17:58:46Z</time>
<speed>7.260000</speed>
<extensions>
<speed>7.3</speed>
<temp>0.00</temp>
<bpm>0</bpm>
<rpm>0.00</rpm>
</extensions>
</trkpt>
<trkpt lat="64.277442932" lon="-20.348806381">
<ele>98.968750</ele>
<time>2012-07-19T17:58:51Z</time>
<speed>6.970000</speed>
<extensions>
<speed>7.0</speed>
<temp>0.00</temp>
<bpm>0</bpm>
<rpm>0.00</rpm>
</extensions>
</trkpt>
<trkpt lat="64.277717590" lon="-20.348489761">
<ele>99.324219</ele>
<time>2012-07-19T17:58:56Z</time>
<speed>6.770000</speed>
<extensions>
<speed>6.8</speed>
<temp>0.00</temp>
<bpm>0</bpm>
<rpm>0.00</rpm>
</extensions>
</trkpt>
<trkpt lat="64.277992249" lon="-20.348205566">
<ele>99.152344</ele>
<time>2012-07-19T17:59:01Z</time>
<speed>6.490000</speed>
<extensions>
<speed>6.5</speed>
<temp>0.00</temp>
<bpm>0</bpm>
<rpm>0.00</rpm>
</extensions>
</trkpt>
<trkpt lat="64.278259277" lon="-20.347917557">
<ele>99.896484</ele>
<time>2012-07-19T17:59:06Z</time>
<speed>6.190000</speed>
<extensions>
<speed>6.2</speed>
<temp>0.00</temp>
<bpm>0</bpm>
<rpm>0.00</rpm>
</extensions>
</trkpt>
<trkpt lat="64.278495789" lon="-20.347677231">
<ele>99.908203</ele>
<time>2012-07-19T17:59:11Z</time>
<speed>5.290000</speed>
<extensions>
<speed>5.3</speed>
<temp>0.00</temp>
<bpm>0</bpm>
<rpm>0.00</rpm>
</extensions>
</trkpt>
<trkpt lat="64.278694153" lon="-20.347448349">
<ele>100.597656</ele>
<time>2012-07-19T17:59:16Z</time>
<speed>5.190000</speed>
<extensions>
<speed>5.2</speed>
<temp>0.00</temp>
<bpm>0</bpm>
<rpm>0.00</rpm>
</extensions>
</trkpt>
<trkpt lat="64.278915405" lon="-20.347202301">
<ele>100.902344</ele>
<time>2012-07-19T17:59:21Z</time>
<speed>6.030000</speed>
<extensions>
<speed>6.0</speed>
<temp>0.00</temp>
<bpm>0</bpm>
<rpm>0.00</rpm>
</extensions>
</trkpt>
<trkpt lat="64.279174805" lon="-20.346921921">
<ele>102.697266</ele>
<time>2012-07-19T17:59:26Z</time>
<speed>6.290000</speed>
<extensions>
<speed>6.3</speed>
<temp>0.00</temp>
<bpm>0</bpm>
<rpm>0.00</rpm>
</extensions>
</trkpt>
<trkpt lat="64.279434204" lon="-20.346647263">
<ele>101.808594</ele>
<time>2012-07-19T17:59:31Z</time>
<speed>6.340000</speed>
<extensions>
<speed>6.3</speed>
<temp>0.00</temp>
<bpm>0</bpm>
<rpm>0.00</rpm>
</extensions>
</trkpt>
<trkpt lat="64.279678345" lon="-20.346405029">
<ele>101.535156</ele>
<time>2012-07-19T17:59:36Z</time>
<speed>5.440000</speed>
<extensions>
<speed>5.4</speed>
<temp>0.00</temp>
<bpm>0</bpm>
<rpm>0.00</rpm>
</extensions>
</trkpt>
<trkpt lat="64.279899597" lon="-20.346162796">
<ele>100.607422</ele>
<time>2012-07-19T17:59:41Z</time>
<speed>5.700000</speed>
<extensions>
<speed>5.7</speed>
<temp>0.00</temp>
<bpm>0</bpm>
<rpm>0.00</rpm>
</extensions>
</trkpt>
<trkpt lat="64.280143738" lon="-20.345924377">
<ele>99.580078</ele>
<time>2012-07-19T17:59:46Z</time>
<speed>5.510000</speed>
<extensions>
<speed>5.5</speed>
<temp>0.00</temp>
<bpm>0</bpm>
<rpm>0.00</rpm>
</extensions>
</trkpt>
<trkpt lat="64.280372620" lon="-20.345697403">
<ele>100.068359</ele>
<time>2012-07-19T17:59:51Z</time>
<speed>5.530000</speed>
<extensions>
<speed>5.5</speed>
<temp>0.00</temp>
<bpm>0</bpm>
<rpm>0.00</rpm>
</extensions>
</trkpt>
<trkpt lat="64.280586243" lon="-20.345472336">
<ele>98.771484</ele>
<time>2012-07-19T17:59:56Z</time>
<speed>5.430000</speed>
<extensions>
<speed>5.4</speed>
<temp>0.00</temp>
<bpm>0</bpm>
<rpm>0.00</rpm>
</extensions>
</trkpt>
<trkpt lat="64.280799866" lon="-20.345235825">
<ele>99.359375</ele>
<time>2012-07-19T18:00:01Z</time>
<speed>5.250000</speed>
<extensions>
<speed>5.2</speed>
<temp>0.00</temp>
<bpm>0</bpm>
<rpm>0.00</rpm>
</extensions>
</trkpt>
<trkpt lat="64.281005859" lon="-20.345006943">
<ele>98.560547</ele>
<time>2012-07-19T18:00:06Z</time>
<speed>5.250000</speed>
<extensions>
<speed>5.2</speed>
<temp>0.00</temp>
<bpm>0</bpm>
<rpm>0.00</rpm>
</extensions>
</trkpt>
<trkpt lat="64.281204224" lon="-20.344762802">
<ele>97.718750</ele>
<time>2012-07-19T18:00:11Z</time>
<speed>4.750000</speed>
<extensions>
<speed>4.8</speed>
<temp>0.00</temp>
<bpm>0</bpm>
<rpm>0.00</rpm>
</extensions>
</trkpt>
<trkpt lat="64.281387329" lon="-20.344573975">
<ele>98.244141</ele>
<time>2012-07-19T18:00:16Z</time>
<speed>4.560000</speed>
<extensions>
<speed>4.6</speed>
<temp>0.00</temp>
<bpm>0</bpm>
<rpm>0.00</rpm>
</extensions>
</trkpt>
<trkpt lat="64.281578064" lon="-20.344358444">
<ele>98.105469</ele>
<time>2012-07-19T18:00:21Z</time>
<speed>4.650000</speed>
<extensions>
<speed>4.6</speed>
<temp>0.00</temp>
<bpm>0</bpm>
<rpm>0.00</rpm>
</extensions>
</trkpt>
<trkpt lat="64.281784058" lon="-20.344137192">
<ele>98.867188</ele>
<time>2012-07-19T18:00:26Z</time>
<speed>4.920000</speed>
<extensions>
<speed>4.9</speed>
<temp>0.00</temp>
<bpm>0</bpm>
<rpm>0.00</rpm>
</extensions>
</trkpt>
<trkpt lat="64.282005310" lon="-20.343915939">
<ele>99.628906</ele>
<time>2012-07-19T18:00:31Z</time>
<speed>5.200000</speed>
<extensions>
<speed>5.2</speed>
<temp>0.00</temp>
<bpm>0</bpm>
<rpm>0.00</rpm>
</extensions>
</trkpt>
<trkpt lat="64.282211304" lon="-20.343677521">
<ele>100.939453</ele>
<time>2012-07-19T18:00:36Z</time>
<speed>4.240000</speed>
<extensions>
<speed>4.2</speed>
<temp>0.00</temp>
<bpm>0</bpm>
<rpm>0.00</rpm>
</extensions>
</trkpt>
<trkpt lat="64.282371521" lon="-20.343498230">
<ele>103.511719</ele>
<time>2012-07-19T18:00:41Z</time>
<speed>3.670000</speed>
<extensions>
<speed>3.7</speed>
<temp>0.00</temp>
<bpm>0</bpm>
<rpm>0.00</rpm>
</extensions>
</trkpt>
<trkpt lat="64.282531738" lon="-20.343328476">
<ele>104.580078</ele>
<time>2012-07-19T18:00:46Z</time>
<speed>4.340000</speed>
<extensions>
<speed>4.3</speed>
<temp>0.00</temp>
<bpm>0</bpm>
<rpm>0.00</rpm>
</extensions>
</trkpt>
<trkpt lat="64.282714844" lon="-20.343135834">
<ele>105.519531</ele>
<time>2012-07-19T18:00:51Z</time>
<speed>4.560000</speed>
<extensions>
<speed>4.6</speed>
<temp>0.00</temp>
<bpm>0</bpm>
<rpm>0.00</rpm>
</extensions>
</trkpt>
<trkpt lat="64.282897949" lon="-20.342922211">
<ele>105.847656</ele>
<time>2012-07-19T18:00:56Z</time>
<speed>4.970000</speed>
<extensions>
<speed>5.0</speed>
<temp>0.00</temp>
<bpm>0</bpm>
<rpm>0.00</rpm>
</extensions>
</trkpt>
<trkpt lat="64.283103943" lon="-20.342683792">
<ele>106.941406</ele>
<time>2012-07-19T18:01:01Z</time>
<speed>5.160000</speed>
<extensions>
<speed>5.2</speed>
<temp>0.00</temp>
<bpm>0</bpm>
<rpm>0.00</rpm>
</extensions>
</trkpt>
<trkpt lat="64.283309937" lon="-20.342475891">
<ele>107.515625</ele>
<time>2012-07-19T18:01:06Z</time>
<speed>4.770000</speed>
<extensions>
<speed>4.8</speed>
<temp>0.00</temp>
<bpm>0</bpm>
<rpm>0.00</rpm>
</extensions>
</trkpt>
<trkpt lat="64.283477783" lon="-20.342315674">
<ele>106.912109</ele>
<time>2012-07-19T18:01:11Z</time>
<speed>3.160000</speed>
<extensions>
<speed>3.2</speed>
<temp>0.00</temp>
<bpm>0</bpm>
<rpm>0.00</rpm>
</extensions>
</trkpt>
<trkpt lat="64.283599854" lon="-20.342189789">
<ele>107.185547</ele>
<time>2012-07-19T18:01:16Z</time>
<speed>3.060000</speed>
<extensions>
<speed>3.1</speed>
<temp>0.00</temp>
<bpm>0</bpm>
<rpm>0.00</rpm>
</extensions>
</trkpt>
<trkpt lat="64.283721924" lon="-20.342052460">
<ele>106.931641</ele>
<time>2012-07-19T18:01:21Z</time>
<speed>3.390000</speed>
<extensions>
<speed>3.4</speed>
<temp>0.00</temp>
<bpm>0</bpm>
<rpm>0.00</rpm>
</extensions>
</trkpt>
<trkpt lat="64.283866882" lon="-20.341915131">
<ele>105.875000</ele>
<time>2012-07-19T18:01:26Z</time>
<speed>3.600000</speed>
<extensions>
<speed>3.6</speed>
<temp>0.00</temp>
<bpm>0</bpm>
<rpm>0.00</rpm>
</extensions>
</trkpt>
<trkpt lat="64.284004211" lon="-20.341762543">
<ele>105.748047</ele>
<time>2012-07-19T18:01:31Z</time>
<speed>3.410000</speed>
<extensions>
<speed>3.4</speed>
<temp>0.00</temp>
<bpm>0</bpm>
<rpm>0.00</rpm>
</extensions>
</trkpt>
<trkpt lat="64.284149170" lon="-20.341598511">
<ele>105.908203</ele>
<time>2012-07-19T18:01:36Z</time>
<speed>3.450000</speed>
<extensions>
<speed>3.5</speed>
<temp>0.00</temp>
<bpm>0</bpm>
<rpm>0.00</rpm>
</extensions>
</trkpt>
<trkpt lat="64.284278870" lon="-20.341440201">
<ele>105.308594</ele>
<time>2012-07-19T18:01:41Z</time>
<speed>3.690000</speed>
<extensions>
<speed>3.7</speed>
<temp>0.00</temp>
<bpm>0</bpm>
<rpm>0.00</rpm>
</extensions>
</trkpt>
<trkpt lat="64.284431458" lon="-20.341276169">
<ele>106.007813</ele>
<time>2012-07-19T18:01:46Z</time>
<speed>3.800000</speed>
<extensions>
<speed>3.8</speed>
<temp>0.00</temp>
<bpm>0</bpm>
<rpm>0.00</rpm>
</extensions>
</trkpt>
<trkpt lat="64.284584045" lon="-20.341142654">
<ele>105.214844</ele>
<time>2012-07-19T18:01:51Z</time>
<speed>3.570000</speed>
<extensions>
<speed>3.6</speed>
<temp>0.00</temp>
<bpm>0</bpm>
<rpm>0.00</rpm>
</extensions>
</trkpt>
<trkpt lat="64.284721375" lon="-20.341012955">
<ele>104.492188</ele>
<time>2012-07-19T18:01:56Z</time>
<speed>3.510000</speed>
<extensions>
<speed>3.5</speed>
<temp>0.00</temp>
<bpm>0</bpm>
<rpm>0.00</rpm>
</extensions>
</trkpt>
<trkpt lat="64.284866333" lon="-20.340873718">
<ele>105.113281</ele>
<time>2012-07-19T18:02:01Z</time>
<speed>3.520000</speed>
<extensions>
<speed>3.5</speed>
<temp>0.00</temp>
<bpm>0</bpm>
<rpm>0.00</rpm>
</extensions>
</trkpt>
<trkpt lat="64.285026550" lon="-20.340742111">
<ele>104.853516</ele>
<time>2012-07-19T18:02:06Z</time>
<speed>3.400000</speed>
<extensions>
<speed>3.4</speed>
<temp>0.00</temp>
<bpm>0</bpm>
<rpm>0.00</rpm>
</extensions>
</trkpt>
<trkpt lat="64.285202026" lon="-20.340602875">
<ele>104.890625</ele>
<time>2012-07-19T18:02:11Z</time>
<speed>4.310000</speed>
<extensions>
<speed>4.3</speed>
<temp>0.00</temp>
<bpm>0</bpm>
<rpm>0.00</rpm>
</extensions>
</trkpt>
<trkpt lat="64.285392761" lon="-20.340490341">
<ele>105.625000</ele>
<time>2012-07-19T18:02:16Z</time>
<speed>4.290000</speed>
<extensions>
<speed>4.3</speed>
<temp>0.00</temp>
<bpm>0</bpm>
<rpm>0.00</rpm>
</extensions>
</trkpt>
<trkpt lat="64.285598755" lon="-20.340377808">
<ele>106.224609</ele>
<time>2012-07-19T18:02:21Z</time>
<speed>4.150000</speed>
<extensions>
<speed>4.1</speed>
<temp>0.00</temp>
<bpm>0</bpm>
<rpm>0.00</rpm>
</extensions>
</trkpt>
<trkpt lat="64.285789490" lon="-20.340229034">
<ele>106.972656</ele>
<time>2012-07-19T18:02:26Z</time>
<speed>4.340000</speed>
<extensions>
<speed>4.3</speed>
<temp>0.00</temp>
<bpm>0</bpm>
<rpm>0.00</rpm>
</extensions>
</trkpt>
<trkpt lat="64.285987854" lon="-20.340093613">
<ele>107.541016</ele>
<time>2012-07-19T18:02:31Z</time>
<speed>4.640000</speed>
<extensions>
<speed>4.6</speed>
<temp>0.00</temp>
<bpm>0</bpm>
<rpm>0.00</rpm>
</extensions>
</trkpt>
<trkpt lat="64.286193848" lon="-20.339944839">
<ele>108.320313</ele>
<time>2012-07-19T18:02:36Z</time>
<speed>4.680000</speed>
<extensions>
<speed>4.7</speed>
<temp>0.00</temp>
<bpm>0</bpm>
<rpm>0.00</rpm>
</extensions>
</trkpt>
<trkpt lat="64.286415100" lon="-20.339805603">
<ele>107.148438</ele>
<time>2012-07-19T18:02:41Z</time>
<speed>5.020000</speed>
<extensions>
<speed>5.0</speed>
<temp>0.00</temp>
<bpm>0</bpm>
<rpm>0.00</rpm>
</extensions>
</trkpt>
<trkpt lat="64.286682129" lon="-20.339651108">
<ele>106.996094</ele>
<time>2012-07-19T18:02:46Z</time>
<speed>5.870000</speed>
<extensions>
<speed>5.9</speed>
<temp>0.00</temp>
<bpm>0</bpm>
<rpm>0.00</rpm>
</extensions>
</trkpt>
<trkpt lat="64.286949158" lon="-20.339500427">
<ele>105.761719</ele>
<time>2012-07-19T18:02:51Z</time>
<speed>5.780000</speed>
<extensions>
<speed>5.8</speed>
<temp>0.00</temp>
<bpm>0</bpm>
<rpm>0.00</rpm>
</extensions>
</trkpt>
<trkpt lat="64.287208557" lon="-20.339363098">
<ele>104.947266</ele>
<time>2012-07-19T18:02:56Z</time>
<speed>5.930000</speed>
<extensions>
<speed>5.9</speed>
<temp>0.00</temp>
<bpm>0</bpm>
<rpm>0.00</rpm>
</extensions>
</trkpt>
<trkpt lat="64.287490845" lon="-20.339193344">
<ele>105.453125</ele>
<time>2012-07-19T18:03:01Z</time>
<speed>5.830000</speed>
<extensions>
<speed>5.8</speed>
<temp>0.00</temp>
<bpm>0</bpm>
<rpm>0.00</rpm>
</extensions>
</trkpt>
<trkpt lat="64.287750244" lon="-20.339044571">
<ele>102.583984</ele>
<time>2012-07-19T18:03:06Z</time>
<speed>6.400000</speed>
<extensions>
<speed>6.4</speed>
<temp>0.00</temp>
<bpm>0</bpm>
<rpm>0.00</rpm>
</extensions>
</trkpt>
<trkpt lat="64.288063049" lon="-20.338850021">
<ele>103.662109</ele>
<time>2012-07-19T18:03:11Z</time>
<speed>7.080000</speed>
<extensions>
<speed>7.1</speed>
<temp>0.00</temp>
<bpm>0</bpm>
<rpm>0.00</rpm>
</extensions>
</trkpt>
<trkpt lat="64.288368225" lon="-20.338649750">
<ele>103.373047</ele>
<time>2012-07-19T18:03:16Z</time>
<speed>6.880000</speed>
<extensions>
<speed>6.9</speed>
<temp>0.00</temp>
<bpm>0</bpm>
<rpm>0.00</rpm>
</extensions>
</trkpt>
<trkpt lat="64.288665771" lon="-20.338474274">
<ele>100.339844</ele>
<time>2012-07-19T18:03:21Z</time>
<speed>6.740000</speed>
<extensions>
<speed>6.7</speed>
<temp>0.00</temp>
<bpm>0</bpm>
<rpm>0.00</rpm>
</extensions>
</trkpt>
<trkpt lat="64.288963318" lon="-20.338262558">
<ele>99.339844</ele>
<time>2012-07-19T18:03:26Z</time>
<speed>6.970000</speed>
<extensions>
<speed>7.0</speed>
<temp>0.00</temp>
<bpm>0</bpm>
<rpm>0.00</rpm>
</extensions>
</trkpt>
<trkpt lat="64.289245605" lon="-20.338090897">
<ele>98.123047</ele>
<time>2012-07-19T18:03:31Z</time>
<speed>6.550000</speed>
<extensions>
<speed>6.5</speed>
<temp>0.00</temp>
<bpm>0</bpm>
<rpm>0.00</rpm>
</extensions>
</trkpt>
<trkpt lat="64.289535522" lon="-20.337900162">
<ele>98.105469</ele>
<time>2012-07-19T18:03:36Z</time>
<speed>6.650000</speed>
<extensions>
<speed>6.7</speed>
<temp>0.00</temp>
<bpm>0</bpm>
<rpm>0.00</rpm>
</extensions>
</trkpt>
<trkpt lat="64.289855957" lon="-20.337703705">
<ele>97.005859</ele>
<time>2012-07-19T18:03:41Z</time>
<speed>6.800000</speed>
<extensions>
<speed>6.8</speed>
<temp>0.00</temp>
<bpm>0</bpm>
<rpm>0.00</rpm>
</extensions>
</trkpt>
<trkpt lat="64.290168762" lon="-20.337520599">
<ele>96.658203</ele>
<time>2012-07-19T18:03:46Z</time>
<speed>6.760000</speed>
<extensions>
<speed>6.8</speed>
<temp>0.00</temp>
<bpm>0</bpm>
<rpm>0.00</rpm>
</extensions>
</trkpt>
<trkpt lat="64.290435791" lon="-20.337356567">
<ele>95.052734</ele>
<time>2012-07-19T18:03:51Z</time>
<speed>6.100000</speed>
<extensions>
<speed>6.1</speed>
<temp>0.00</temp>
<bpm>0</bpm>
<rpm>0.00</rpm>
</extensions>
</trkpt>
<trkpt lat="64.290687561" lon="-20.337179184">
<ele>95.236328</ele>
<time>2012-07-19T18:03:56Z</time>
<speed>6.360000</speed>
<extensions>
<speed>6.4</speed>
<temp>0.00</temp>
<bpm>0</bpm>
<rpm>0.00</rpm>
</extensions>
</trkpt>
<trkpt lat="64.291007996" lon="-20.336980820">
<ele>96.255859</ele>
<time>2012-07-19T18:04:01Z</time>
<speed>7.280000</speed>
<extensions>
<speed>7.3</speed>
<temp>0.00</temp>
<bpm>0</bpm>
<rpm>0.00</rpm>
</extensions>
</trkpt>
<trkpt lat="64.291320801" lon="-20.336771011">
<ele>94.056641</ele>
<time>2012-07-19T18:04:06Z</time>
<speed>6.750000</speed>
<extensions>
<speed>6.7</speed>
<temp>0.00</temp>
<bpm>0</bpm>
<rpm>0.00</rpm>
</extensions>
</trkpt>
<trkpt lat="64.291618347" lon="-20.336584091">
<ele>93.083984</ele>
<time>2012-07-19T18:04:11Z</time>
<speed>6.620000</speed>
<extensions>
<speed>6.6</speed>
<temp>0.00</temp>
<bpm>0</bpm>
<rpm>0.00</rpm>
</extensions>
</trkpt>
<trkpt lat="64.291900635" lon="-20.336406708">
<ele>91.615234</ele>
<time>2012-07-19T18:04:16Z</time>
<speed>6.490000</speed>
<extensions>
<speed>6.5</speed>
<temp>0.00</temp>
<bpm>0</bpm>
<rpm>0.00</rpm>
</extensions>
</trkpt>
<trkpt lat="64.292167664" lon="-20.336235046">
<ele>91.914063</ele>
<time>2012-07-19T18:04:21Z</time>
<speed>5.570000</speed>
<extensions>
<speed>5.6</speed>
<temp>0.00</temp>
<bpm>0</bpm>
<rpm>0.00</rpm>
</extensions>
</trkpt>
<trkpt lat="64.292404175" lon="-20.336084366">
<ele>92.789063</ele>
<time>2012-07-19T18:04:26Z</time>
<speed>5.210000</speed>
<extensions>
<speed>5.2</speed>
<temp>0.00</temp>
<bpm>0</bpm>
<rpm>0.00</rpm>
</extensions>
</trkpt>
<trkpt lat="64.292655945" lon="-20.335924149">
<ele>92.152344</ele>
<time>2012-07-19T18:04:31Z</time>
<speed>5.520000</speed>
<extensions>
<speed>5.5</speed>
<temp>0.00</temp>
<bpm>0</bpm>
<rpm>0.00</rpm>
</extensions>
</trkpt>
<trkpt lat="64.292877197" lon="-20.335783005">
<ele>93.441406</ele>
<time>2012-07-19T18:04:36Z</time>
<speed>4.770000</speed>
<extensions>
<speed>4.8</speed>
<temp>0.00</temp>
<bpm>0</bpm>
<rpm>0.00</rpm>
</extensions>
</trkpt>
<trkpt lat="64.293106079" lon="-20.335638046">
<ele>94.437500</ele>
<time>2012-07-19T18:04:41Z</time>
<speed>5.510000</speed>
<extensions>
<speed>5.5</speed>
<temp>0.00</temp>
<bpm>0</bpm>
<rpm>0.00</rpm>
</extensions>
</trkpt>
<trkpt lat="64.293365479" lon="-20.335474014">
<ele>93.464844</ele>
<time>2012-07-19T18:04:46Z</time>
<speed>5.980000</speed>
<extensions>
<speed>6.0</speed>
<temp>0.00</temp>
<bpm>0</bpm>
<rpm>0.00</rpm>
</extensions>
</trkpt>
<trkpt lat="64.293624878" lon="-20.335323334">
<ele>93.285156</ele>
<time>2012-07-19T18:04:51Z</time>
<speed>5.870000</speed>
<extensions>
<speed>5.9</speed>
<temp>0.00</temp>
<bpm>0</bpm>
<rpm>0.00</rpm>
</extensions>
</trkpt>
<trkpt lat="64.293846130" lon="-20.335178375">
<ele>95.326172</ele>
<time>2012-07-19T18:04:56Z</time>
<speed>4.800000</speed>
<extensions>
<speed>4.8</speed>
<temp>0.00</temp>
<bpm>0</bpm>
<rpm>0.00</rpm>
</extensions>
</trkpt>
<trkpt lat="64.294067383" lon="-20.335054398">
<ele>93.425781</ele>
<time>2012-07-19T18:05:01Z</time>
<speed>5.190000</speed>
<extensions>
<speed>5.2</speed>
<temp>0.00</temp>
<bpm>0</bpm>
<rpm>0.00</rpm>
</extensions>
</trkpt>
<trkpt lat="64.294303894" lon="-20.334884644">
<ele>95.166016</ele>
<time>2012-07-19T18:05:06Z</time>
<speed>5.530000</speed>
<extensions>
<speed>5.5</speed>
<temp>0.00</temp>
<bpm>0</bpm>
<rpm>0.00</rpm>
</extensions>
</trkpt>
<trkpt lat="64.294540405" lon="-20.334735870">
<ele>96.718750</ele>
<time>2012-07-19T18:05:11Z</time>
<speed>5.030000</speed>
<extensions>
<speed>5.0</speed>
<temp>0.00</temp>
<bpm>0</bpm>
<rpm>0.00</rpm>
</extensions>
</trkpt>
<trkpt lat="64.294731140" lon="-20.334621429">
<ele>98.041016</ele>
<time>2012-07-19T18:05:16Z</time>
<speed>4.210000</speed>
<extensions>
<speed>4.2</speed>
<temp>0.00</temp>
<bpm>0</bpm>
<rpm>0.00</rpm>
</extensions>
</trkpt>
<trkpt lat="64.294921875" lon="-20.334505081">
<ele>101.150391</ele>
<time>2012-07-19T18:05:21Z</time>
<speed>4.770000</speed>
<extensions>
<speed>4.8</speed>
<temp>0.00</temp>
<bpm>0</bpm>
<rpm>0.00</rpm>
</extensions>
</trkpt>
<trkpt lat="64.295143127" lon="-20.334356308">
<ele>101.363281</ele>
<time>2012-07-19T18:05:26Z</time>
<speed>5.260000</speed>
<extensions>
<speed>5.3</speed>
<temp>0.00</temp>
<bpm>0</bpm>
<rpm>0.00</rpm>
</extensions>
</trkpt>
<trkpt lat="64.295387268" lon="-20.334211349">
<ele>98.300781</ele>
<time>2012-07-19T18:05:31Z</time>
<speed>5.470000</speed>
<extensions>
<speed>5.5</speed>
<temp>0.00</temp>
<bpm>0</bpm>
<rpm>0.00</rpm>
</extensions>
</trkpt>
<trkpt lat="64.295600891" lon="-20.334054947">
<ele>99.636719</ele>
<time>2012-07-19T18:05:36Z</time>
<speed>4.460000</speed>
<extensions>
<speed>4.5</speed>
<temp>0.00</temp>
<bpm>0</bpm>
<rpm>0.00</rpm>
</extensions>
</trkpt>
<trkpt lat="64.295799255" lon="-20.333932877">
<ele>98.890625</ele>
<time>2012-07-19T18:05:41Z</time>
<speed>4.870000</speed>
<extensions>
<speed>4.9</speed>
<temp>0.00</temp>
<bpm>0</bpm>
<rpm>0.00</rpm>
</extensions>
</trkpt>
<trkpt lat="64.296020508" lon="-20.333795547">
<ele>100.943359</ele>
<time>2012-07-19T18:05:46Z</time>
<speed>5.000000</speed>
<extensions>
<speed>5.0</speed>
<temp>0.00</temp>
<bpm>0</bpm>
<rpm>0.00</rpm>
</extensions>
</trkpt>
<trkpt lat="64.296226501" lon="-20.333669662">
<ele>102.107422</ele>
<time>2012-07-19T18:05:51Z</time>
<speed>4.120000</speed>
<extensions>
<speed>4.1</speed>
<temp>0.00</temp>
<bpm>0</bpm>
<rpm>0.00</rpm>
</extensions>
</trkpt>
<trkpt lat="64.296394348" lon="-20.333564758">
<ele>100.369141</ele>
<time>2012-07-19T18:05:56Z</time>
<speed>4.190000</speed>
<extensions>
<speed>4.2</speed>
<temp>0.00</temp>
<bpm>0</bpm>
<rpm>0.00</rpm>
</extensions>
</trkpt>
<trkpt lat="64.296585083" lon="-20.333454132">
<ele>100.982422</ele>
<time>2012-07-19T18:06:01Z</time>
<speed>3.670000</speed>
<extensions>
<speed>3.7</speed>
<temp>0.00</temp>
<bpm>0</bpm>
<rpm>0.00</rpm>
</extensions>
</trkpt>
<trkpt lat="64.296745300" lon="-20.333328247">
<ele>100.250000</ele>
<time>2012-07-19T18:06:06Z</time>
<speed>4.370000</speed>
<extensions>
<speed>4.4</speed>
<temp>0.00</temp>
<bpm>0</bpm>
<rpm>0.00</rpm>
</extensions>
</trkpt>
<trkpt lat="64.296951294" lon="-20.333189011">
<ele>99.615234</ele>
<time>2012-07-19T18:06:11Z</time>
<speed>4.770000</speed>
<extensions>
<speed>4.8</speed>
<temp>0.00</temp>
<bpm>0</bpm>
<rpm>0.00</rpm>
</extensions>
</trkpt>
<trkpt lat="64.297172546" lon="-20.333055496">
<ele>99.218750</ele>
<time>2012-07-19T18:06:16Z</time>
<speed>4.930000</speed>
<extensions>
<speed>4.9</speed>
<temp>0.00</temp>
<bpm>0</bpm>
<rpm>0.00</rpm>
</extensions>
</trkpt>
<trkpt lat="64.297386169" lon="-20.332906723">
<ele>99.240234</ele>
<time>2012-07-19T18:06:21Z</time>
<speed>4.890000</speed>
<extensions>
<speed>4.9</speed>
<temp>0.00</temp>
<bpm>0</bpm>
<rpm>0.00</rpm>
</extensions>
</trkpt>
<trkpt lat="64.297607422" lon="-20.332777023">
<ele>94.927734</ele>
<time>2012-07-19T18:06:26Z</time>
<speed>5.850000</speed>
<extensions>
<speed>5.8</speed>
<temp>0.00</temp>
<bpm>0</bpm>
<rpm>0.00</rpm>
</extensions>
</trkpt>
<trkpt lat="64.297866821" lon="-20.332611084">
<ele>93.005859</ele>
<time>2012-07-19T18:06:31Z</time>
<speed>6.080000</speed>
<extensions>
<speed>6.1</speed>
<temp>0.00</temp>
<bpm>0</bpm>
<rpm>0.00</rpm>
</extensions>
</trkpt>
<trkpt lat="64.298133850" lon="-20.332431793">
<ele>93.255859</ele>
<time>2012-07-19T18:06:36Z</time>
<speed>6.140000</speed>
<extensions>
<speed>6.1</speed>
<temp>0.00</temp>
<bpm>0</bpm>
<rpm>0.00</rpm>
</extensions>
</trkpt>
<trkpt lat="64.298400879" lon="-20.332263947">
<ele>92.919922</ele>
<time>2012-07-19T18:06:41Z</time>
<speed>6.380000</speed>
<extensions>
<speed>6.4</speed>
<temp>0.00</temp>
<bpm>0</bpm>
<rpm>0.00</rpm>
</extensions>
</trkpt>
<trkpt lat="64.298683167" lon="-20.332109451">
<ele>94.240234</ele>
<time>2012-07-19T18:06:46Z</time>
<speed>6.570000</speed>
<extensions>
<speed>6.6</speed>
<temp>0.00</temp>
<bpm>0</bpm>
<rpm>0.00</rpm>
</extensions>
</trkpt>
<trkpt lat="64.298965454" lon="-20.331943512">
<ele>95.568359</ele>
<time>2012-07-19T18:06:51Z</time>
<speed>6.570000</speed>
<extensions>
<speed>6.6</speed>
<temp>0.00</temp>
<bpm>0</bpm>
<rpm>0.00</rpm>
</extensions>
</trkpt>
<trkpt lat="64.299232483" lon="-20.331768036">
<ele>95.523438</ele>
<time>2012-07-19T18:06:56Z</time>
<speed>6.060000</speed>
<extensions>
<speed>6.1</speed>
<temp>0.00</temp>
<bpm>0</bpm>
<rpm>0.00</rpm>
</extensions>
</trkpt>
<trkpt lat="64.299514771" lon="-20.331609726">
<ele>96.509766</ele>
<time>2012-07-19T18:07:01Z</time>
<speed>6.270000</speed>
<extensions>
<speed>6.3</speed>
<temp>0.00</temp>
<bpm>0</bpm>
<rpm>0.00</rpm>
</extensions>
</trkpt>
<trkpt lat="64.299789429" lon="-20.331434250">
<ele>96.601563</ele>
<time>2012-07-19T18:07:06Z</time>
<speed>6.300000</speed>
<extensions>
<speed>6.3</speed>
<temp>0.00</temp>
<bpm>0</bpm>
<rpm>0.00</rpm>
</extensions>
</trkpt>
<trkpt lat="64.300064087" lon="-20.331258774">
<ele>97.322266</ele>
<time>2012-07-19T18:07:11Z</time>
<speed>6.260000</speed>
<extensions>
<speed>6.3</speed>
<temp>0.00</temp>
<bpm>0</bpm>
<rpm>0.00</rpm>
</extensions>
</trkpt>
<trkpt lat="64.300346375" lon="-20.331100464">
<ele>99.173828</ele>
<time>2012-07-19T18:07:16Z</time>
<speed>5.790000</speed>
<extensions>
<speed>5.8</speed>
<temp>0.00</temp>
<bpm>0</bpm>
<rpm>0.00</rpm>
</extensions>
</trkpt>
<trkpt lat="64.300582886" lon="-20.330945969">
<ele>98.998047</ele>
<time>2012-07-19T18:07:21Z</time>
<speed>5.240000</speed>
<extensions>
<speed>5.2</speed>
<temp>0.00</temp>
<bpm>0</bpm>
<rpm>0.00</rpm>
</extensions>
</trkpt>
<trkpt lat="64.300834656" lon="-20.330772400">
<ele>98.451172</ele>
<time>2012-07-19T18:07:26Z</time>
<speed>5.700000</speed>
<extensions>
<speed>5.7</speed>
<temp>0.00</temp>
<bpm>0</bpm>
<rpm>0.00</rpm>
</extensions>
</trkpt>
<trkpt lat="64.301071167" lon="-20.330589294">
<ele>97.824219</ele>
<time>2012-07-19T18:07:31Z</time>
<speed>5.540000</speed>
<extensions>
<speed>5.5</speed>
<temp>0.00</temp>
<bpm>0</bpm>
<rpm>0.00</rpm>
</extensions>
</trkpt>
<trkpt lat="64.301315308" lon="-20.330402374">
<ele>96.082031</ele>
<time>2012-07-19T18:07:36Z</time>
<speed>5.620000</speed>
<extensions>
<speed>5.6</speed>
<temp>0.00</temp>
<bpm>0</bpm>
<rpm>0.00</rpm>
</extensions>
</trkpt>
<trkpt lat="64.301521301" lon="-20.330196381">
<ele>97.142578</ele>
<time>2012-07-19T18:07:41Z</time>
<speed>5.430000</speed>
<extensions>
<speed>5.4</speed>
<temp>0.00</temp>
<bpm>0</bpm>
<rpm>0.00</rpm>
</extensions>
</trkpt>
<trkpt lat="64.301742554" lon="-20.329977036">
<ele>97.673828</ele>
<time>2012-07-19T18:07:46Z</time>
<speed>5.530000</speed>
<extensions>
<speed>5.5</speed>
<temp>0.00</temp>
<bpm>0</bpm>
<rpm>0.00</rpm>
</extensions>
</trkpt>
<trkpt lat="64.301979065" lon="-20.329736710">
<ele>94.296875</ele>
<time>2012-07-19T18:07:51Z</time>
<speed>6.400000</speed>
<extensions>
<speed>6.4</speed>
<temp>0.00</temp>
<bpm>0</bpm>
<rpm>0.00</rpm>
</extensions>
</trkpt>
<trkpt lat="64.302238464" lon="-20.329463959">
<ele>93.435547</ele>
<time>2012-07-19T18:07:56Z</time>
<speed>6.350000</speed>
<extensions>
<speed>6.4</speed>
<temp>0.00</temp>
<bpm>0</bpm>
<rpm>0.00</rpm>
</extensions>
</trkpt>
<trkpt lat="64.302490234" lon="-20.329154968">
<ele>91.591797</ele>
<time>2012-07-19T18:08:01Z</time>
<speed>6.410000</speed>
<extensions>
<speed>6.4</speed>
<temp>0.00</temp>
<bpm>0</bpm>
<rpm>0.00</rpm>
</extensions>
</trkpt>
<trkpt lat="64.302757263" lon="-20.328798294">
<ele>89.921875</ele>
<time>2012-07-19T18:08:06Z</time>
<speed>6.940000</speed>
<extensions>
<speed>6.9</speed>
<temp>0.00</temp>
<bpm>0</bpm>
<rpm>0.00</rpm>
</extensions>
</trkpt>
<trkpt lat="64.303016663" lon="-20.328382492">
<ele>89.289063</ele>
<time>2012-07-19T18:08:11Z</time>
<speed>7.210000</speed>
<extensions>
<speed>7.2</speed>
<temp>0.00</temp>
<bpm>0</bpm>
<rpm>0.00</rpm>
</extensions>
</trkpt>
<trkpt lat="64.303276062" lon="-20.327901840">
<ele>89.927734</ele>
<time>2012-07-19T18:08:16Z</time>
<speed>7.360000</speed>
<extensions>
<speed>7.4</speed>
<temp>0.00</temp>
<bpm>0</bpm>
<rpm>0.00</rpm>
</extensions>
</trkpt>
<trkpt lat="64.303520203" lon="-20.327404022">
<ele>90.562500</ele>
<time>2012-07-19T18:08:21Z</time>
<speed>7.170000</speed>
<extensions>
<speed>7.2</speed>
<temp>0.00</temp>
<bpm>0</bpm>
<rpm>0.00</rpm>
</extensions>
</trkpt>
<trkpt lat="64.303749084" lon="-20.326902390">
<ele>90.310547</ele>
<time>2012-07-19T18:08:26Z</time>
<speed>6.640000</speed>
<extensions>
<speed>6.6</speed>
<temp>0.00</temp>
<bpm>0</bpm>
<rpm>0.00</rpm>
</extensions>
</trkpt>
<trkpt lat="64.303939819" lon="-20.326419830">
<ele>89.857422</ele>
<time>2012-07-19T18:08:31Z</time>
<speed>6.370000</speed>
<extensions>
<speed>6.4</speed>
<temp>0.00</temp>
<bpm>0</bpm>
<rpm>0.00</rpm>
</extensions>
</trkpt>
<trkpt lat="64.304122925" lon="-20.325931549">
<ele>90.060547</ele>
<time>2012-07-19T18:08:36Z</time>
<speed>6.460000</speed>
<extensions>
<speed>6.5</speed>
<temp>0.00</temp>
<bpm>0</bpm>
<rpm>0.00</rpm>
</extensions>
</trkpt>
<trkpt lat="64.304290771" lon="-20.325386047">
<ele>89.125000</ele>
<time>2012-07-19T18:08:41Z</time>
<speed>6.500000</speed>
<extensions>
<speed>6.5</speed>
<temp>0.00</temp>
<bpm>0</bpm>
<rpm>0.00</rpm>
</extensions>
</trkpt>
<trkpt lat="64.304466248" lon="-20.324823380">
<ele>89.529297</ele>
<time>2012-07-19T18:08:46Z</time>
<speed>6.560000</speed>
<extensions>
<speed>6.6</speed>
<temp>0.00</temp>
<bpm>0</bpm>
<rpm>0.00</rpm>
</extensions>
</trkpt>
<trkpt lat="64.304626465" lon="-20.324253082">
<ele>89.517578</ele>
<time>2012-07-19T18:08:51Z</time>
<speed>6.560000</speed>
<extensions>
<speed>6.6</speed>
<temp>0.00</temp>
<bpm>0</bpm>
<rpm>0.00</rpm>
</extensions>
</trkpt>
<trkpt lat="64.304779053" lon="-20.323646545">
<ele>90.187500</ele>
<time>2012-07-19T18:08:56Z</time>
<speed>6.500000</speed>
<extensions>
<speed>6.5</speed>
<temp>0.00</temp>
<bpm>0</bpm>
<rpm>0.00</rpm>
</extensions>
</trkpt>
<trkpt lat="64.304916382" lon="-20.323066711">
<ele>90.603516</ele>
<time>2012-07-19T18:09:01Z</time>
<speed>6.330000</speed>
<extensions>
<speed>6.3</speed>
<temp>0.00</temp>
<bpm>0</bpm>
<rpm>0.00</rpm>
</extensions>
</trkpt>
<trkpt lat="64.305046082" lon="-20.322530746">
<ele>90.585938</ele>
<time>2012-07-19T18:09:06Z</time>
<speed>5.870000</speed>
<extensions>
<speed>5.9</speed>
<temp>0.00</temp>
<bpm>0</bpm>
<rpm>0.00</rpm>
</extensions>
</trkpt>
<trkpt lat="64.305175781" lon="-20.321977615">
<ele>91.230469</ele>
<time>2012-07-19T18:09:11Z</time>
<speed>5.700000</speed>
<extensions>
<speed>5.7</speed>
<temp>0.00</temp>
<bpm>0</bpm>
<rpm>0.00</rpm>
</extensions>
</trkpt>
<trkpt lat="64.305290222" lon="-20.321468353">
<ele>91.515625</ele>
<time>2012-07-19T18:09:16Z</time>
<speed>5.250000</speed>
<extensions>
<speed>5.2</speed>
<temp>0.00</temp>
<bpm>0</bpm>
<rpm>0.00</rpm>
</extensions>
</trkpt>
<trkpt lat="64.305389404" lon="-20.320989609">
<ele>90.812500</ele>
<time>2012-07-19T18:09:21Z</time>
<speed>5.440000</speed>
<extensions>
<speed>5.4</speed>
<temp>0.00</temp>
<bpm>0</bpm>
<rpm>0.00</rpm>
</extensions>
</trkpt>
<trkpt lat="64.305503845" lon="-20.320493698">
<ele>90.292969</ele>
<time>2012-07-19T18:09:26Z</time>
<speed>4.680000</speed>
<extensions>
<speed>4.7</speed>
<temp>0.00</temp>
<bpm>0</bpm>
<rpm>0.00</rpm>
</extensions>
</trkpt>
<trkpt lat="64.305603027" lon="-20.320081711">
<ele>89.058594</ele>
<time>2012-07-19T18:09:31Z</time>
<speed>4.330000</speed>
<extensions>
<speed>4.3</speed>
<temp>0.00</temp>
<bpm>0</bpm>
<rpm>0.00</rpm>
</extensions>
</trkpt>
<trkpt lat="64.305702209" lon="-20.319692612">
<ele>88.791016</ele>
<time>2012-07-19T18:09:36Z</time>
<speed>4.260000</speed>
<extensions>
<speed>4.3</speed>
<temp>0.00</temp>
<bpm>0</bpm>
<rpm>0.00</rpm>
</extensions>
</trkpt>
<trkpt lat="64.305793762" lon="-20.319280624">
<ele>88.085938</ele>
<time>2012-07-19T18:09:41Z</time>
<speed>4.250000</speed>
<extensions>
<speed>4.3</speed>
<temp>0.00</temp>
<bpm>0</bpm>
<rpm>0.00</rpm>
</extensions>
</trkpt>
<trkpt lat="64.305870056" lon="-20.318891525">
<ele>86.929688</ele>
<time>2012-07-19T18:09:46Z</time>
<speed>4.130000</speed>
<extensions>
<speed>4.1</speed>
<temp>0.00</temp>
<bpm>0</bpm>
<rpm>0.00</rpm>
</extensions>
</trkpt>
<trkpt lat="64.305976868" lon="-20.318471909">
<ele>88.333984</ele>
<time>2012-07-19T18:09:51Z</time>
<speed>4.350000</speed>
<extensions>
<speed>4.3</speed>
<temp>0.00</temp>
<bpm>0</bpm>
<rpm>0.00</rpm>
</extensions>
</trkpt>
<trkpt lat="64.306083679" lon="-20.318038940">
<ele>89.558594</ele>
<time>2012-07-19T18:09:56Z</time>
<speed>4.630000</speed>
<extensions>
<speed>4.6</speed>
<temp>0.00</temp>
<bpm>0</bpm>
<rpm>0.00</rpm>
</extensions>
</trkpt>
<trkpt lat="64.306175232" lon="-20.317621231">
<ele>88.826172</ele>
<time>2012-07-19T18:10:01Z</time>
<speed>4.710000</speed>
<extensions>
<speed>4.7</speed>
<temp>0.00</temp>
<bpm>0</bpm>
<rpm>0.00</rpm>
</extensions>
</trkpt>
<trkpt lat="64.306282043" lon="-20.317197800">
<ele>89.941406</ele>
<time>2012-07-19T18:10:06Z</time>
<speed>4.330000</speed>
<extensions>
<speed>4.3</speed>
<temp>0.00</temp>
<bpm>0</bpm>
<rpm>0.00</rpm>
</extensions>
</trkpt>
<trkpt lat="64.306373596" lon="-20.316774368">
<ele>88.558594</ele>
<time>2012-07-19T18:10:11Z</time>
<speed>4.900000</speed>
<extensions>
<speed>4.9</speed>
<temp>0.00</temp>
<bpm>0</bpm>
<rpm>0.00</rpm>
</extensions>
</trkpt>
<trkpt lat="64.306472778" lon="-20.316326141">
<ele>87.882813</ele>
<time>2012-07-19T18:10:16Z</time>
<speed>4.760000</speed>
<extensions>
<speed>4.8</speed>
<temp>0.00</temp>
<bpm>0</bpm>
<rpm>0.00</rpm>
</extensions>
</trkpt>
<trkpt lat="64.306587219" lon="-20.315881729">
<ele>88.630859</ele>
<time>2012-07-19T18:10:21Z</time>
<speed>4.540000</speed>
<extensions>
<speed>4.5</speed>
<temp>0.00</temp>
<bpm>0</bpm>
<rpm>0.00</rpm>
</extensions>
</trkpt>
<trkpt lat="64.306709290" lon="-20.315422058">
<ele>91.109375</ele>
<time>2012-07-19T18:10:26Z</time>
<speed>4.710000</speed>
<extensions>
<speed>4.7</speed>
<temp>0.00</temp>
<bpm>0</bpm>
<rpm>0.00</rpm>
</extensions>
</trkpt>
<trkpt lat="64.306800842" lon="-20.315031052">
<ele>90.345703</ele>
<time>2012-07-19T18:10:31Z</time>
<speed>4.320000</speed>
<extensions>
<speed>4.3</speed>
<temp>0.00</temp>
<bpm>0</bpm>
<rpm>0.00</rpm>
</extensions>
</trkpt>
<trkpt lat="64.306907654" lon="-20.314584732">
<ele>91.119141</ele>
<time>2012-07-19T18:10:36Z</time>
<speed>4.940000</speed>
<extensions>
<speed>4.9</speed>
<temp>0.00</temp>
<bpm>0</bpm>
<rpm>0.00</rpm>
</extensions>
</trkpt>
<trkpt lat="64.307022095" lon="-20.314115524">
<ele>92.158203</ele>
<time>2012-07-19T18:10:41Z</time>
<speed>5.140000</speed>
<extensions>
<speed>5.1</speed>
<temp>0.00</temp>
<bpm>0</bpm>
<rpm>0.00</rpm>
</extensions>
</trkpt>
<trkpt lat="64.307136536" lon="-20.313646317">
<ele>93.738281</ele>
<time>2012-07-19T18:10:46Z</time>
<speed>4.640000</speed>
<extensions>
<speed>4.6</speed>
<temp>0.00</temp>
<bpm>0</bpm>
<rpm>0.00</rpm>
</extensions>
</trkpt>
<trkpt lat="64.307228088" lon="-20.313228607">
<ele>93.507813</ele>
<time>2012-07-19T18:10:51Z</time>
<speed>4.860000</speed>
<extensions>
<speed>4.9</speed>
<temp>0.00</temp>
<bpm>0</bpm>
<rpm>0.00</rpm>
</extensions>
</trkpt>
<trkpt lat="64.307342529" lon="-20.312746048">
<ele>94.753906</ele>
<time>2012-07-19T18:10:56Z</time>
<speed>5.460000</speed>
<extensions>
<speed>5.5</speed>
<temp>0.00</temp>
<bpm>0</bpm>
<rpm>0.00</rpm>
</extensions>
</trkpt>
<trkpt lat="64.307464600" lon="-20.312248230">
<ele>95.453125</ele>
<time>2012-07-19T18:11:01Z</time>
<speed>5.410000</speed>
<extensions>
<speed>5.4</speed>
<temp>0.00</temp>
<bpm>0</bpm>
<rpm>0.00</rpm>
</extensions>
</trkpt>
<trkpt lat="64.307579041" lon="-20.311771393">
<ele>96.501953</ele>
<time>2012-07-19T18:11:06Z</time>
<speed>4.590000</speed>
<extensions>
<speed>4.6</speed>
<temp>0.00</temp>
<bpm>0</bpm>
<rpm>0.00</rpm>
</extensions>
</trkpt>
<trkpt lat="64.307685852" lon="-20.311323166">
<ele>96.585938</ele>
<time>2012-07-19T18:11:11Z</time>
<speed>5.280000</speed>
<extensions>
<speed>5.3</speed>
<temp>0.00</temp>
<bpm>0</bpm>
<rpm>0.00</rpm>
</extensions>
</trkpt>
<trkpt lat="64.307800293" lon="-20.310842514">
<ele>96.863281</ele>
<time>2012-07-19T18:11:16Z</time>
<speed>5.270000</speed>
<extensions>
<speed>5.3</speed>
<temp>0.00</temp>
<bpm>0</bpm>
<rpm>0.00</rpm>
</extensions>
</trkpt>
<trkpt lat="64.307914734" lon="-20.310358047">
<ele>96.751953</ele>
<time>2012-07-19T18:11:21Z</time>
<speed>5.240000</speed>
<extensions>
<speed>5.2</speed>
<temp>0.00</temp>
<bpm>0</bpm>
<rpm>0.00</rpm>
</extensions>
</trkpt>
<trkpt lat="64.308021545" lon="-20.309885025">
<ele>96.857422</ele>
<time>2012-07-19T18:11:26Z</time>
<speed>5.010000</speed>
<extensions>
<speed>5.0</speed>
<temp>0.00</temp>
<bpm>0</bpm>
<rpm>0.00</rpm>
</extensions>
</trkpt>
<trkpt lat="64.308128357" lon="-20.309471130">
<ele>97.380859</ele>
<time>2012-07-19T18:11:31Z</time>
<speed>5.290000</speed>
<extensions>
<speed>5.3</speed>
<temp>0.00</temp>
<bpm>0</bpm>
<rpm>0.00</rpm>
</extensions>
</trkpt>
<trkpt lat="64.308227539" lon="-20.309017181">
<ele>97.380859</ele>
<time>2012-07-19T18:11:36Z</time>
<speed>4.930000</speed>
<extensions>
<speed>4.9</speed>
<temp>0.00</temp>
<bpm>0</bpm>
<rpm>0.00</rpm>
</extensions>
</trkpt>
<trkpt lat="64.308326721" lon="-20.308614731">
<ele>97.761719</ele>
<time>2012-07-19T18:11:41Z</time>
<speed>4.090000</speed>
<extensions>
<speed>4.1</speed>
<temp>0.00</temp>
<bpm>0</bpm>
<rpm>0.00</rpm>
</extensions>
</trkpt>
<trkpt lat="64.308403015" lon="-20.308237076">
<ele>97.337891</ele>
<time>2012-07-19T18:11:46Z</time>
<speed>3.490000</speed>
<extensions>
<speed>3.5</speed>
<temp>0.00</temp>
<bpm>0</bpm>
<rpm>0.00</rpm>
</extensions>
</trkpt>
<trkpt lat="64.308479309" lon="-20.307912827">
<ele>98.402344</ele>
<time>2012-07-19T18:11:51Z</time>
<speed>3.610000</speed>
<extensions>
<speed>3.6</speed>
<temp>0.00</temp>
<bpm>0</bpm>
<rpm>0.00</rpm>
</extensions>
</trkpt>
<trkpt lat="64.308547974" lon="-20.307598114">
<ele>99.064453</ele>
<time>2012-07-19T18:11:56Z</time>
<speed>2.980000</speed>
<extensions>
<speed>3.0</speed>
<temp>0.00</temp>
<bpm>0</bpm>
<rpm>0.00</rpm>
</extensions>
</trkpt>
<trkpt lat="64.308616638" lon="-20.307331085">
<ele>100.007813</ele>
<time>2012-07-19T18:12:01Z</time>
<speed>2.970000</speed>
<extensions>
<speed>3.0</speed>
<temp>0.00</temp>
<bpm>0</bpm>
<rpm>0.00</rpm>
</extensions>
</trkpt>
<trkpt lat="64.308677673" lon="-20.307044983">
<ele>99.888672</ele>
<time>2012-07-19T18:12:06Z</time>
<speed>3.400000</speed>
<extensions>
<speed>3.4</speed>
<temp>0.00</temp>
<bpm>0</bpm>
<rpm>0.00</rpm>
</extensions>
</trkpt>
<trkpt lat="64.308731079" lon="-20.306735992">
<ele>103.187500</ele>
<time>2012-07-19T18:12:11Z</time>
<speed>3.450000</speed>
<extensions>
<speed>3.5</speed>
<temp>0.00</temp>
<bpm>0</bpm>
<rpm>0.00</rpm>
</extensions>
</trkpt>
<trkpt lat="64.308799744" lon="-20.306463242">
<ele>103.828125</ele>
<time>2012-07-19T18:12:16Z</time>
<speed>2.050000</speed>
<extensions>
<speed>2.1</speed>
<temp>0.00</temp>
<bpm>0</bpm>
<rpm>0.00</rpm>
</extensions>
</trkpt>
<trkpt lat="64.308845520" lon="-20.306262970">
<ele>104.345703</ele>
<time>2012-07-19T18:12:21Z</time>
<speed>3.190000</speed>
<extensions>
<speed>3.2</speed>
<temp>0.00</temp>
<bpm>0</bpm>
<rpm>0.00</rpm>
</extensions>
</trkpt>
<trkpt lat="64.308921814" lon="-20.305932999">
<ele>104.675781</ele>
<time>2012-07-19T18:12:26Z</time>
<speed>4.040000</speed>
<extensions>
<speed>4.0</speed>
<temp>0.00</temp>
<bpm>0</bpm>
<rpm>0.00</rpm>
</extensions>
</trkpt>
<trkpt lat="64.308998108" lon="-20.305610657">
<ele>104.687500</ele>
<time>2012-07-19T18:12:31Z</time>
<speed>3.720000</speed>
<extensions>
<speed>3.7</speed>
<temp>0.00</temp>
<bpm>0</bpm>
<rpm>0.00</rpm>
</extensions>
</trkpt>
<trkpt lat="64.309074402" lon="-20.305286407">
<ele>104.730469</ele>
<time>2012-07-19T18:12:36Z</time>
<speed>2.700000</speed>
<extensions>
<speed>2.7</speed>
<temp>0.00</temp>
<bpm>0</bpm>
<rpm>0.00</rpm>
</extensions>
</trkpt>
<trkpt lat="64.309135437" lon="-20.305036545">
<ele>104.771484</ele>
<time>2012-07-19T18:12:41Z</time>
<speed>2.990000</speed>
<extensions>
<speed>3.0</speed>
<temp>0.00</temp>
<bpm>0</bpm>
<rpm>0.00</rpm>
</extensions>
</trkpt>
<trkpt lat="64.309204102" lon="-20.304748535">
<ele>105.091797</ele>
<time>2012-07-19T18:12:46Z</time>
<speed>3.190000</speed>
<extensions>
<speed>3.2</speed>
<temp>0.00</temp>
<bpm>0</bpm>
<rpm>0.00</rpm>
</extensions>
</trkpt>
<trkpt lat="64.309249878" lon="-20.304491043">
<ele>105.724609</ele>
<time>2012-07-19T18:12:51Z</time>
<speed>3.550000</speed>
<extensions>
<speed>3.5</speed>
<temp>0.00</temp>
<bpm>0</bpm>
<rpm>0.00</rpm>
</extensions>
</trkpt>
<trkpt lat="64.309341431" lon="-20.304176331">
<ele>106.560547</ele>
<time>2012-07-19T18:12:56Z</time>
<speed>3.540000</speed>
<extensions>
<speed>3.5</speed>
<temp>0.00</temp>
<bpm>0</bpm>
<rpm>0.00</rpm>
</extensions>
</trkpt>
<trkpt lat="64.309417725" lon="-20.303876877">
<ele>106.835938</ele>
<time>2012-07-19T18:13:01Z</time>
<speed>3.190000</speed>
<extensions>
<speed>3.2</speed>
<temp>0.00</temp>
<bpm>0</bpm>
<rpm>0.00</rpm>
</extensions>
</trkpt>
<trkpt lat="64.309486389" lon="-20.303621292">
<ele>107.929688</ele>
<time>2012-07-19T18:13:06Z</time>
<speed>2.730000</speed>
<extensions>
<speed>2.7</speed>
<temp>0.00</temp>
<bpm>0</bpm>
<rpm>0.00</rpm>
</extensions>
</trkpt>
<trkpt lat="64.309547424" lon="-20.303432465">
<ele>110.650391</ele>
<time>2012-07-19T18:13:11Z</time>
<speed>2.470000</speed>
<extensions>
<speed>2.5</speed>
<temp>0.00</temp>
<bpm>0</bpm>
<rpm>0.00</rpm>
</extensions>
</trkpt>
<trkpt lat="64.309577942" lon="-20.303260803">
<ele>112.128906</ele>
<time>2012-07-19T18:13:16Z</time>
<speed>1.640000</speed>
<extensions>
<speed>1.6</speed>
<temp>0.00</temp>
<bpm>0</bpm>
<rpm>0.00</rpm>
</extensions>
</trkpt>
<trkpt lat="64.309600830" lon="-20.303060532">
<ele>112.869141</ele>
<time>2012-07-19T18:13:21Z</time>
<speed>2.160000</speed>
<extensions>
<speed>2.2</speed>
<temp>0.00</temp>
<bpm>0</bpm>
<rpm>0.00</rpm>
</extensions>
</trkpt>
<trkpt lat="64.309623718" lon="-20.302883148">
<ele>113.505859</ele>
<time>2012-07-19T18:13:26Z</time>
<speed>1.550000</speed>
<extensions>
<speed>1.5</speed>
<temp>0.00</temp>
<bpm>0</bpm>
<rpm>0.00</rpm>
</extensions>
</trkpt>
<trkpt lat="64.309631348" lon="-20.302703857">
<ele>113.089844</ele>
<time>2012-07-19T18:13:31Z</time>
<speed>1.480000</speed>
<extensions>
<speed>1.5</speed>
<temp>0.00</temp>
<bpm>0</bpm>
<rpm>0.00</rpm>
</extensions>
</trkpt>
<trkpt lat="64.309638977" lon="-20.302652359">
<ele>111.632813</ele>
<time>2012-07-19T18:13:36Z</time>
<speed>0.100000</speed>
<extensions>
<speed>0.1</speed>
<temp>0.00</temp>
<bpm>0</bpm>
<rpm>0.00</rpm>
</extensions>
</trkpt>
<trkpt lat="64.309631348" lon="-20.302646637">
<ele>111.628906</ele>
<time>2012-07-19T18:13:41Z</time>
<speed>0.740000</speed>
<extensions>
<speed>0.7</speed>
<temp>0.00</temp>
<bpm>0</bpm>
<rpm>0.00</rpm>
</extensions>
</trkpt>
<trkpt lat="64.309646606" lon="-20.302520752">
<ele>112.208984</ele>
<time>2012-07-19T18:13:46Z</time>
<speed>1.810000</speed>
<extensions>
<speed>1.8</speed>
<temp>0.00</temp>
<bpm>0</bpm>
<rpm>0.00</rpm>
</extensions>
</trkpt>
<trkpt lat="64.309700012" lon="-20.302331924">
<ele>112.326172</ele>
<time>2012-07-19T18:13:51Z</time>
<speed>1.710000</speed>
<extensions>
<speed>1.7</speed>
<temp>0.00</temp>
<bpm>0</bpm>
<rpm>0.00</rpm>
</extensions>
</trkpt>
<trkpt lat="64.309738159" lon="-20.302158356">
<ele>112.548828</ele>
<time>2012-07-19T18:13:56Z</time>
<speed>1.900000</speed>
<extensions>
<speed>1.9</speed>
<temp>0.00</temp>
<bpm>0</bpm>
<rpm>0.00</rpm>
</extensions>
</trkpt>
<trkpt lat="64.309753418" lon="-20.301977158">
<ele>112.880859</ele>
<time>2012-07-19T18:14:01Z</time>
<speed>1.960000</speed>
<extensions>
<speed>2.0</speed>
<temp>0.00</temp>
<bpm>0</bpm>
<rpm>0.00</rpm>
</extensions>
</trkpt>
<trkpt lat="64.309753418" lon="-20.301761627">
<ele>113.095703</ele>
<time>2012-07-19T18:14:06Z</time>
<speed>2.080000</speed>
<extensions>
<speed>2.1</speed>
<temp>0.00</temp>
<bpm>0</bpm>
<rpm>0.00</rpm>
</extensions>
</trkpt>
<trkpt lat="64.309783936" lon="-20.301616669">
<ele>113.486328</ele>
<time>2012-07-19T18:14:11Z</time>
<speed>1.250000</speed>
<extensions>
<speed>1.3</speed>
<temp>0.00</temp>
<bpm>0</bpm>
<rpm>0.00</rpm>
</extensions>
</trkpt>
<trkpt lat="64.309829712" lon="-20.301504135">
<ele>114.144531</ele>
<time>2012-07-19T18:14:16Z</time>
<speed>1.090000</speed>
<extensions>
<speed>1.1</speed>
<temp>0.00</temp>
<bpm>0</bpm>
<rpm>0.00</rpm>
</extensions>
</trkpt>
<trkpt lat="64.309806824" lon="-20.301555634">
<ele>113.074219</ele>
<time>2012-07-19T18:14:21Z</time>
<speed>2.900000</speed>
<extensions>
<speed>2.9</speed>
<temp>0.00</temp>
<bpm>0</bpm>
<rpm>0.00</rpm>
</extensions>
</trkpt>
<trkpt lat="64.309768677" lon="-20.301801682">
<ele>113.556641</ele>
<time>2012-07-19T18:14:26Z</time>
<speed>2.390000</speed>
<extensions>
<speed>2.4</speed>
<temp>0.00</temp>
<bpm>0</bpm>
<rpm>0.00</rpm>
</extensions>
</trkpt>
<trkpt lat="64.309753418" lon="-20.301959991">
<ele>113.648438</ele>
<time>2012-07-19T18:14:31Z</time>
<speed>0.110000</speed>
<extensions>
<speed>0.1</speed>
<temp>0.00</temp>
<bpm>0</bpm>
<rpm>0.00</rpm>
</extensions>
</trkpt>
<trkpt lat="64.309753418" lon="-20.301948547">
<ele>112.968750</ele>
<time>2012-07-19T18:14:36Z</time>
<speed>0.030000</speed>
<extensions>
<speed>0.0</speed>
<temp>0.00</temp>
<bpm>0</bpm>
<rpm>0.00</rpm>
</extensions>
</trkpt>
<trkpt lat="64.309753418" lon="-20.301963806">
<ele>112.755859</ele>
<time>2012-07-19T18:14:41Z</time>
<speed>0.110000</speed>
<extensions>
<speed>0.1</speed>
<temp>0.00</temp>
<bpm>0</bpm>
<rpm>0.00</rpm>
</extensions>
</trkpt>
<trkpt lat="64.309753418" lon="-20.301971436">
<ele>113.009766</ele>
<time>2012-07-19T18:14:46Z</time>
<speed>0.040000</speed>
<extensions>
<speed>0.0</speed>
<temp>0.00</temp>
<bpm>0</bpm>
<rpm>0.00</rpm>
</extensions>
</trkpt>
<trkpt lat="64.309753418" lon="-20.301982880">
<ele>113.046875</ele>
<time>2012-07-19T18:14:51Z</time>
<speed>0.020000</speed>
<extensions>
<speed>0.0</speed>
<temp>0.00</temp>
<bpm>0</bpm>
<rpm>0.00</rpm>
</extensions>
</trkpt>
<trkpt lat="64.309753418" lon="-20.301982880">
<ele>113.123047</ele>
<time>2012-07-19T18:14:56Z</time>
<extensions>
<speed>0.0</speed>
<temp>0.00</temp>
<bpm>0</bpm>
<rpm>0.00</rpm>
</extensions>
</trkpt>
<trkpt lat="64.309753418" lon="-20.301982880">
<ele>113.144531</ele>
<time>2012-07-19T18:15:01Z</time>
<speed>0.010000</speed>
<extensions>
<speed>0.0</speed>
<temp>0.00</temp>
<bpm>0</bpm>
<rpm>0.00</rpm>
</extensions>
</trkpt>
<trkpt lat="64.309753418" lon="-20.301982880">
<ele>113.140625</ele>
<time>2012-07-19T18:15:06Z</time>
<speed>0.010000</speed>
<extensions>
<speed>0.0</speed>
<temp>0.00</temp>
<bpm>0</bpm>
<rpm>0.00</rpm>
</extensions>
</trkpt>
<trkpt lat="64.309753418" lon="-20.301982880">
<ele>113.152344</ele>
<time>2012-07-19T18:15:11Z</time>
<speed>0.030000</speed>
<extensions>
<speed>0.0</speed>
<temp>0.00</temp>
<bpm>0</bpm>
<rpm>0.00</rpm>
</extensions>
</trkpt>
<trkpt lat="64.309753418" lon="-20.301980972">
<ele>113.126953</ele>
<time>2012-07-19T18:15:16Z</time>
<speed>0.060000</speed>
<extensions>
<speed>0.1</speed>
<temp>0.00</temp>
<bpm>0</bpm>
<rpm>0.00</rpm>
</extensions>
</trkpt>
<trkpt lat="64.309722900" lon="-20.301992416">
<ele>112.964844</ele>
<time>2012-07-19T18:15:21Z</time>
<speed>1.340000</speed>
<extensions>
<speed>1.3</speed>
<temp>0.00</temp>
<bpm>0</bpm>
<rpm>0.00</rpm>
</extensions>
</trkpt>
<trkpt lat="64.309722900" lon="-20.301872253">
<ele>112.935547</ele>
<time>2012-07-19T18:15:26Z</time>
<speed>1.170000</speed>
<extensions>
<speed>1.2</speed>
<temp>0.00</temp>
<bpm>0</bpm>
<rpm>0.00</rpm>
</extensions>
</trkpt>
<trkpt lat="64.309738159" lon="-20.301774979">
<ele>113.474609</ele>
<time>2012-07-19T18:15:31Z</time>
<speed>1.460000</speed>
<extensions>
<speed>1.5</speed>
<temp>0.00</temp>
<bpm>0</bpm>
<rpm>0.00</rpm>
</extensions>
</trkpt>
<trkpt lat="64.309768677" lon="-20.301639557">
<ele>114.078125</ele>
<time>2012-07-19T18:15:36Z</time>
<speed>1.490000</speed>
<extensions>
<speed>1.5</speed>
<temp>0.00</temp>
<bpm>0</bpm>
<rpm>0.00</rpm>
</extensions>
</trkpt>
<trkpt lat="64.309806824" lon="-20.301572800">
<ele>114.640625</ele>
<time>2012-07-19T18:15:41Z</time>
<speed>0.880000</speed>
<extensions>
<speed>0.9</speed>
<temp>0.00</temp>
<bpm>0</bpm>
<rpm>0.00</rpm>
</extensions>
</trkpt>
<trkpt lat="64.309799194" lon="-20.301452637">
<ele>112.580078</ele>
<time>2012-07-19T18:15:46Z</time>
<speed>0.400000</speed>
<extensions>
<speed>0.4</speed>
<temp>0.00</temp>
<bpm>0</bpm>
<rpm>0.00</rpm>
</extensions>
</trkpt>
<trkpt lat="64.309791565" lon="-20.301391602">
<ele>110.011719</ele>
<time>2012-07-19T18:15:51Z</time>
<speed>0.450000</speed>
<extensions>
<speed>0.5</speed>
<temp>0.00</temp>
<bpm>0</bpm>
<rpm>0.00</rpm>
</extensions>
</trkpt>
<trkpt lat="64.309768677" lon="-20.301353455">
<ele>109.179688</ele>
<time>2012-07-19T18:15:56Z</time>
<speed>0.890000</speed>
<extensions>
<speed>0.9</speed>
<temp>0.00</temp>
<bpm>0</bpm>
<rpm>0.00</rpm>
</extensions>
</trkpt>
<trkpt lat="64.309738159" lon="-20.301307678">
<ele>108.927734</ele>
<time>2012-07-19T18:16:01Z</time>
<speed>0.890000</speed>
<extensions>
<speed>0.9</speed>
<temp>0.00</temp>
<bpm>0</bpm>
<rpm>0.00</rpm>
</extensions>
</trkpt>
<trkpt lat="64.309692383" lon="-20.301284790">
<ele>108.404297</ele>
<time>2012-07-19T18:16:06Z</time>
<speed>0.400000</speed>
<extensions>
<speed>0.4</speed>
<temp>0.00</temp>
<bpm>0</bpm>
<rpm>0.00</rpm>
</extensions>
</trkpt>
<trkpt lat="64.309700012" lon="-20.301292419">
<ele>109.044922</ele>
<time>2012-07-19T18:16:11Z</time>
<extensions>
<speed>0.0</speed>
<temp>0.00</temp>
<bpm>0</bpm>
<rpm>0.00</rpm>
</extensions>
</trkpt>
<trkpt lat="64.309692383" lon="-20.301292419">
<ele>109.050781</ele>
<time>2012-07-19T18:16:16Z</time>
<extensions>
<speed>0.0</speed>
<temp>0.00</temp>
<bpm>0</bpm>
<rpm>0.00</rpm>
</extensions>
</trkpt>
<trkpt lat="64.309692383" lon="-20.301292419">
<ele>109.021484</ele>
<time>2012-07-19T18:16:21Z</time>
<extensions>
<speed>0.0</speed>
<temp>0.00</temp>
<bpm>0</bpm>
<rpm>0.00</rpm>
</extensions>
</trkpt>
<trkpt lat="64.309692383" lon="-20.301292419">
<ele>109.042969</ele>
<time>2012-07-19T18:16:26Z</time>
<speed>0.040000</speed>
<extensions>
<speed>0.0</speed>
<temp>0.00</temp>
<bpm>0</bpm>
<rpm>0.00</rpm>
</extensions>
</trkpt>
<trkpt lat="64.309700012" lon="-20.301290512">
<ele>108.830078</ele>
<time>2012-07-19T18:16:31Z</time>
<speed>0.320000</speed>
<extensions>
<speed>0.3</speed>
<temp>0.00</temp>
<bpm>0</bpm>
<rpm>0.00</rpm>
</extensions>
</trkpt>
<trkpt lat="64.309700012" lon="-20.301282883">
<ele>108.615234</ele>
<time>2012-07-19T18:16:36Z</time>
<speed>0.240000</speed>
<extensions>
<speed>0.2</speed>
<temp>0.00</temp>
<bpm>0</bpm>
<rpm>0.00</rpm>
</extensions>
</trkpt>
<trkpt lat="64.309707642" lon="-20.301290512">
<ele>108.105469</ele>
<time>2012-07-19T18:16:41Z</time>
<speed>0.070000</speed>
<extensions>
<speed>0.1</speed>
<temp>0.00</temp>
<bpm>0</bpm>
<rpm>0.00</rpm>
</extensions>
</trkpt>
<trkpt lat="64.309738159" lon="-20.301277161">
<ele>108.429688</ele>
<time>2012-07-19T18:16:46Z</time>
<speed>1.670000</speed>
<extensions>
<speed>1.7</speed>
<temp>0.00</temp>
<bpm>0</bpm>
<rpm>0.00</rpm>
</extensions>
</trkpt>
<trkpt lat="64.309814453" lon="-20.301286697">
<ele>109.146484</ele>
<time>2012-07-19T18:16:51Z</time>
<speed>1.670000</speed>
<extensions>
<speed>1.7</speed>
<temp>0.00</temp>
<bpm>0</bpm>
<rpm>0.00</rpm>
</extensions>
</trkpt>
<trkpt lat="64.309875488" lon="-20.301351547">
<ele>109.628906</ele>
<time>2012-07-19T18:16:56Z</time>
<speed>2.170000</speed>
<extensions>
<speed>2.2</speed>
<temp>0.00</temp>
<bpm>0</bpm>
<rpm>0.00</rpm>
</extensions>
</trkpt>
<trkpt lat="64.309875488" lon="-20.301557541">
<ele>110.025391</ele>
<time>2012-07-19T18:17:01Z</time>
<speed>1.890000</speed>
<extensions>
<speed>1.9</speed>
<temp>0.00</temp>
<bpm>0</bpm>
<rpm>0.00</rpm>
</extensions>
</trkpt>
<trkpt lat="64.309852600" lon="-20.301748276">
<ele>110.285156</ele>
<time>2012-07-19T18:17:06Z</time>
<speed>2.060000</speed>
<extensions>
<speed>2.1</speed>
<temp>0.00</temp>
<bpm>0</bpm>
<rpm>0.00</rpm>
</extensions>
</trkpt>
<trkpt lat="64.309806824" lon="-20.301986694">
<ele>110.222656</ele>
<time>2012-07-19T18:17:11Z</time>
<speed>2.430000</speed>
<extensions>
<speed>2.4</speed>
<temp>0.00</temp>
<bpm>0</bpm>
<rpm>0.00</rpm>
</extensions>
</trkpt>
<trkpt lat="64.309799194" lon="-20.302204132">
<ele>114.587891</ele>
<time>2012-07-19T18:17:16Z</time>
<speed>1.910000</speed>
<extensions>
<speed>1.9</speed>
<temp>0.00</temp>
<bpm>0</bpm>
<rpm>0.00</rpm>
</extensions>
</trkpt>
<trkpt lat="64.309768677" lon="-20.302412033">
<ele>116.945313</ele>
<time>2012-07-19T18:17:21Z</time>
<speed>1.680000</speed>
<extensions>
<speed>1.7</speed>
<temp>0.00</temp>
<bpm>0</bpm>
<rpm>0.00</rpm>
</extensions>
</trkpt>
<trkpt lat="64.309722900" lon="-20.302598953">
<ele>118.605469</ele>
<time>2012-07-19T18:17:26Z</time>
<speed>2.580000</speed>
<extensions>
<speed>2.6</speed>
<temp>0.00</temp>
<bpm>0</bpm>
<rpm>0.00</rpm>
</extensions>
</trkpt>
<trkpt lat="64.309715271" lon="-20.302839279">
<ele>117.039063</ele>
<time>2012-07-19T18:17:31Z</time>
<speed>2.550000</speed>
<extensions>
<speed>2.6</speed>
<temp>0.00</temp>
<bpm>0</bpm>
<rpm>0.00</rpm>
</extensions>
</trkpt>
<trkpt lat="64.309677124" lon="-20.303161621">
<ele>116.093750</ele>
<time>2012-07-19T18:17:36Z</time>
<speed>3.710000</speed>
<extensions>
<speed>3.7</speed>
<temp>0.00</temp>
<bpm>0</bpm>
<rpm>0.00</rpm>
</extensions>
</trkpt>
<trkpt lat="64.309570313" lon="-20.303594589">
<ele>114.248047</ele>
<time>2012-07-19T18:17:41Z</time>
<speed>5.350000</speed>
<extensions>
<speed>5.4</speed>
<temp>0.00</temp>
<bpm>0</bpm>
<rpm>0.00</rpm>
</extensions>
</trkpt>
<trkpt lat="64.309448242" lon="-20.304128647">
<ele>111.800781</ele>
<time>2012-07-19T18:17:46Z</time>
<speed>5.820000</speed>
<extensions>
<speed>5.8</speed>
<temp>0.00</temp>
<bpm>0</bpm>
<rpm>0.00</rpm>
</extensions>
</trkpt>
<trkpt lat="64.309356689" lon="-20.304590225">
<ele>110.466797</ele>
<time>2012-07-19T18:17:51Z</time>
<speed>3.730000</speed>
<extensions>
<speed>3.7</speed>
<temp>0.00</temp>
<bpm>0</bpm>
<rpm>0.00</rpm>
</extensions>
</trkpt>
<trkpt lat="64.309402466" lon="-20.304862976">
<ele>107.144531</ele>
<time>2012-07-19T18:17:56Z</time>
<speed>2.910000</speed>
<extensions>
<speed>2.9</speed>
<temp>0.00</temp>
<bpm>0</bpm>
<rpm>0.00</rpm>
</extensions>
</trkpt>
<trkpt lat="64.309501648" lon="-20.305084229">
<ele>106.681641</ele>
<time>2012-07-19T18:18:01Z</time>
<speed>3.170000</speed>
<extensions>
<speed>3.2</speed>
<temp>0.00</temp>
<bpm>0</bpm>
<rpm>0.00</rpm>
</extensions>
</trkpt>
<trkpt lat="64.309638977" lon="-20.305213928">
<ele>106.488281</ele>
<time>2012-07-19T18:18:06Z</time>
<speed>3.340000</speed>
<extensions>
<speed>3.3</speed>
<temp>0.00</temp>
<bpm>0</bpm>
<rpm>0.00</rpm>
</extensions>
</trkpt>
<trkpt lat="64.309761047" lon="-20.305324554">
<ele>106.939453</ele>
<time>2012-07-19T18:18:11Z</time>
<speed>2.810000</speed>
<extensions>
<speed>2.8</speed>
<temp>0.00</temp>
<bpm>0</bpm>
<rpm>0.00</rpm>
</extensions>
</trkpt>
<trkpt lat="64.309860229" lon="-20.305379868">
<ele>106.511719</ele>
<time>2012-07-19T18:18:16Z</time>
<speed>1.420000</speed>
<extensions>
<speed>1.4</speed>
<temp>0.00</temp>
<bpm>0</bpm>
<rpm>0.00</rpm>
</extensions>
</trkpt>
<trkpt lat="64.309883118" lon="-20.305421829">
<ele>105.951172</ele>
<time>2012-07-19T18:18:21Z</time>
<speed>0.040000</speed>
<extensions>
<speed>0.0</speed>
<temp>0.00</temp>
<bpm>0</bpm>
<rpm>0.00</rpm>
</extensions>
</trkpt>
<trkpt lat="64.309883118" lon="-20.305421829">
<ele>105.558594</ele>
<time>2012-07-19T18:18:26Z</time>
<speed>0.150000</speed>
<extensions>
<speed>0.2</speed>
<temp>0.00</temp>
<bpm>0</bpm>
<rpm>0.00</rpm>
</extensions>
</trkpt>
<trkpt lat="64.309883118" lon="-20.305429459">
<ele>105.398438</ele>
<time>2012-07-19T18:18:31Z</time>
<speed>0.140000</speed>
<extensions>
<speed>0.1</speed>
<temp>0.00</temp>
<bpm>0</bpm>
<rpm>0.00</rpm>
</extensions>
</trkpt>
<trkpt lat="64.309890747" lon="-20.305429459">
<ele>105.324219</ele>
<time>2012-07-19T18:18:36Z</time>
<speed>0.080000</speed>
<extensions>
<speed>0.1</speed>
<temp>0.00</temp>
<bpm>0</bpm>
<rpm>0.00</rpm>
</extensions>
</trkpt>
<trkpt lat="64.309890747" lon="-20.305446625">
<ele>105.281250</ele>
<time>2012-07-19T18:18:41Z</time>
<speed>0.140000</speed>
<extensions>
<speed>0.1</speed>
<temp>0.00</temp>
<bpm>0</bpm>
<rpm>0.00</rpm>
</extensions>
</trkpt>
<trkpt lat="64.309890747" lon="-20.305459976">
<ele>105.244141</ele>
<time>2012-07-19T18:18:46Z</time>
<speed>0.210000</speed>
<extensions>
<speed>0.2</speed>
<temp>0.00</temp>
<bpm>0</bpm>
<rpm>0.00</rpm>
</extensions>
</trkpt>
<trkpt lat="64.309890747" lon="-20.305484772">
<ele>105.234375</ele>
<time>2012-07-19T18:18:51Z</time>
<speed>0.090000</speed>
<extensions>
<speed>0.1</speed>
<temp>0.00</temp>
<bpm>0</bpm>
<rpm>0.00</rpm>
</extensions>
</trkpt>
<trkpt lat="64.309890747" lon="-20.305498123">
<ele>105.226563</ele>
<time>2012-07-19T18:18:56Z</time>
<speed>0.080000</speed>
<extensions>
<speed>0.1</speed>
<temp>0.00</temp>
<bpm>0</bpm>
<rpm>0.00</rpm>
</extensions>
</trkpt>
<trkpt lat="64.309890747" lon="-20.305501938">
<ele>105.220703</ele>
<time>2012-07-19T18:19:01Z</time>
<extensions>
<speed>0.0</speed>
<temp>0.00</temp>
<bpm>0</bpm>
<rpm>0.00</rpm>
</extensions>
</trkpt>
<trkpt lat="64.309890747" lon="-20.305519104">
<ele>105.210938</ele>
<time>2012-07-19T18:19:06Z</time>
<speed>0.230000</speed>
<extensions>
<speed>0.2</speed>
<temp>0.00</temp>
<bpm>0</bpm>
<rpm>0.00</rpm>
</extensions>
</trkpt>
<trkpt lat="64.309890747" lon="-20.305534363">
<ele>105.173828</ele>
<time>2012-07-19T18:19:11Z</time>
<speed>0.170000</speed>
<extensions>
<speed>0.2</speed>
<temp>0.00</temp>
<bpm>0</bpm>
<rpm>0.00</rpm>
</extensions>
</trkpt>
<trkpt lat="64.309883118" lon="-20.305541992">
<ele>105.195313</ele>
<time>2012-07-19T18:19:16Z</time>
<speed>0.070000</speed>
<extensions>
<speed>0.1</speed>
<temp>0.00</temp>
<bpm>0</bpm>
<rpm>0.00</rpm>
</extensions>
</trkpt>
<trkpt lat="64.309883118" lon="-20.305551529">
<ele>105.230469</ele>
<time>2012-07-19T18:19:21Z</time>
<speed>0.080000</speed>
<extensions>
<speed>0.1</speed>
<temp>0.00</temp>
<bpm>0</bpm>
<rpm>0.00</rpm>
</extensions>
</trkpt>
<trkpt lat="64.309883118" lon="-20.305551529">
<ele>105.271484</ele>
<time>2012-07-19T18:19:26Z</time>
<speed>0.010000</speed>
<extensions>
<speed>0.0</speed>
<temp>0.00</temp>
<bpm>0</bpm>
<rpm>0.00</rpm>
</extensions>
</trkpt>
<trkpt lat="64.309890747" lon="-20.305541992">
<ele>105.197266</ele>
<time>2012-07-19T18:19:31Z</time>
<speed>0.310000</speed>
<extensions>
<speed>0.3</speed>
<temp>0.00</temp>
<bpm>0</bpm>
<rpm>0.00</rpm>
</extensions>
</trkpt>
<trkpt lat="64.309890747" lon="-20.305513382">
<ele>105.093750</ele>
<time>2012-07-19T18:19:36Z</time>
<speed>0.330000</speed>
<extensions>
<speed>0.3</speed>
<temp>0.00</temp>
<bpm>0</bpm>
<rpm>0.00</rpm>
</extensions>
</trkpt>
<trkpt lat="64.309890747" lon="-20.305503845">
<ele>104.750000</ele>
<time>2012-07-19T18:19:41Z</time>
<speed>0.040000</speed>
<extensions>
<speed>0.0</speed>
<temp>0.00</temp>
<bpm>0</bpm>
<rpm>0.00</rpm>
</extensions>
</trkpt>
<trkpt lat="64.309890747" lon="-20.305498123">
<ele>104.345703</ele>
<time>2012-07-19T18:19:46Z</time>
<speed>0.030000</speed>
<extensions>
<speed>0.0</speed>
<temp>0.00</temp>
<bpm>0</bpm>
<rpm>0.00</rpm>
</extensions>
</trkpt>
<trkpt lat="64.309890747" lon="-20.305498123">
<ele>103.921875</ele>
<time>2012-07-19T18:19:51Z</time>
<speed>0.040000</speed>
<extensions>
<speed>0.0</speed>
<temp>0.00</temp>
<bpm>0</bpm>
<rpm>0.00</rpm>
</extensions>
</trkpt>
<trkpt lat="64.309890747" lon="-20.305494308">
<ele>103.457031</ele>
<time>2012-07-19T18:19:56Z</time>
<speed>0.050000</speed>
<extensions>
<speed>0.1</speed>
<temp>0.00</temp>
<bpm>0</bpm>
<rpm>0.00</rpm>
</extensions>
</trkpt>
<trkpt lat="64.309890747" lon="-20.305490494">
<ele>103.115234</ele>
<time>2012-07-19T18:20:01Z</time>
<speed>0.020000</speed>
<extensions>
<speed>0.0</speed>
<temp>0.00</temp>
<bpm>0</bpm>
<rpm>0.00</rpm>
</extensions>
</trkpt>
<trkpt lat="64.309890747" lon="-20.305490494">
<ele>103.121094</ele>
<time>2012-07-19T18:20:06Z</time>
<speed>0.010000</speed>
<extensions>
<speed>0.0</speed>
<temp>0.00</temp>
<bpm>0</bpm>
<rpm>0.00</rpm>
</extensions>
</trkpt>
<trkpt lat="64.309890747" lon="-20.305492401">
<ele>103.117188</ele>
<time>2012-07-19T18:20:11Z</time>
<speed>0.010000</speed>
<extensions>
<speed>0.0</speed>
<temp>0.00</temp>
<bpm>0</bpm>
<rpm>0.00</rpm>
</extensions>
</trkpt>
<trkpt lat="64.309890747" lon="-20.305492401">
<ele>103.113281</ele>
<time>2012-07-19T18:20:16Z</time>
<speed>0.010000</speed>
<extensions>
<speed>0.0</speed>
<temp>0.00</temp>
<bpm>0</bpm>
<rpm>0.00</rpm>
</extensions>
</trkpt>
<trkpt lat="64.309890747" lon="-20.305492401">
<ele>103.103516</ele>
<time>2012-07-19T18:20:21Z</time>
<extensions>
<speed>0.0</speed>
<temp>0.00</temp>
<bpm>0</bpm>
<rpm>0.00</rpm>
</extensions>
</trkpt>
<trkpt lat="64.309890747" lon="-20.305492401">
<ele>103.103516</ele>
<time>2012-07-19T18:20:26Z</time>
<speed>0.020000</speed>
<extensions>
<speed>0.0</speed>
<temp>0.00</temp>
<bpm>0</bpm>
<rpm>0.00</rpm>
</extensions>
</trkpt>
<trkpt lat="64.309890747" lon="-20.305492401">
<ele>103.105469</ele>
<time>2012-07-19T18:20:31Z</time>
<extensions>
<speed>0.0</speed>
<temp>0.00</temp>
<bpm>0</bpm>
<rpm>0.00</rpm>
</extensions>
</trkpt>
<trkpt lat="64.309890747" lon="-20.305492401">
<ele>103.101563</ele>
<time>2012-07-19T18:20:36Z</time>
<speed>0.010000</speed>
<extensions>
<speed>0.0</speed>
<temp>0.00</temp>
<bpm>0</bpm>
<rpm>0.00</rpm>
</extensions>
</trkpt>
<trkpt lat="64.309890747" lon="-20.305492401">
<ele>103.099609</ele>
<time>2012-07-19T18:20:41Z</time>
<speed>0.020000</speed>
<extensions>
<speed>0.0</speed>
<temp>0.00</temp>
<bpm>0</bpm>
<rpm>0.00</rpm>
</extensions>
</trkpt>
<trkpt lat="64.309890747" lon="-20.305492401">
<ele>103.085938</ele>
<time>2012-07-19T18:20:46Z</time>
<speed>0.010000</speed>
<extensions>
<speed>0.0</speed>
<temp>0.00</temp>
<bpm>0</bpm>
<rpm>0.00</rpm>
</extensions>
</trkpt>
<trkpt lat="64.309890747" lon="-20.305492401">
<ele>103.087891</ele>
<time>2012-07-19T18:20:51Z</time>
<speed>0.020000</speed>
<extensions>
<speed>0.0</speed>
<temp>0.00</temp>
<bpm>0</bpm>
<rpm>0.00</rpm>
</extensions>
</trkpt>
<trkpt lat="64.309890747" lon="-20.305492401">
<ele>103.099609</ele>
<time>2012-07-19T18:20:56Z</time>
<extensions>
<speed>0.0</speed>
<temp>0.00</temp>
<bpm>0</bpm>
<rpm>0.00</rpm>
</extensions>
</trkpt>
<trkpt lat="64.309890747" lon="-20.305492401">
<ele>103.103516</ele>
<time>2012-07-19T18:21:01Z</time>
<speed>0.010000</speed>
<extensions>
<speed>0.0</speed>
<temp>0.00</temp>
<bpm>0</bpm>
<rpm>0.00</rpm>
</extensions>
</trkpt>
<trkpt lat="64.309890747" lon="-20.305494308">
<ele>103.095703</ele>
<time>2012-07-19T18:21:06Z</time>
<speed>0.010000</speed>
<extensions>
<speed>0.0</speed>
<temp>0.00</temp>
<bpm>0</bpm>
<rpm>0.00</rpm>
</extensions>
</trkpt>
<trkpt lat="64.309890747" lon="-20.305494308">
<ele>103.109375</ele>
<time>2012-07-19T18:21:11Z</time>
<extensions>
<speed>0.0</speed>
<temp>0.00</temp>
<bpm>0</bpm>
<rpm>0.00</rpm>
</extensions>
</trkpt>
<trkpt lat="64.309890747" lon="-20.305494308">
<ele>103.115234</ele>
<time>2012-07-19T18:21:16Z</time>
<extensions>
<speed>0.0</speed>
<temp>0.00</temp>
<bpm>0</bpm>
<rpm>0.00</rpm>
</extensions>
</trkpt>
<trkpt lat="64.309890747" lon="-20.305494308">
<ele>103.113281</ele>
<time>2012-07-19T18:21:21Z</time>
<speed>0.010000</speed>
<extensions>
<speed>0.0</speed>
<temp>0.00</temp>
<bpm>0</bpm>
<rpm>0.00</rpm>
</extensions>
</trkpt>
<trkpt lat="64.309890747" lon="-20.305494308">
<ele>103.119141</ele>
<time>2012-07-19T18:21:26Z</time>
<extensions>
<speed>0.0</speed>
<temp>0.00</temp>
<bpm>0</bpm>
<rpm>0.00</rpm>
</extensions>
</trkpt>
<trkpt lat="64.309890747" lon="-20.305494308">
<ele>103.119141</ele>
<time>2012-07-19T18:21:31Z</time>
<speed>0.010000</speed>
<extensions>
<speed>0.0</speed>
<temp>0.00</temp>
<bpm>0</bpm>
<rpm>0.00</rpm>
</extensions>
</trkpt>
<trkpt lat="64.309890747" lon="-20.305494308">
<ele>103.125000</ele>
<time>2012-07-19T18:21:36Z</time>
<extensions>
<speed>0.0</speed>
<temp>0.00</temp>
<bpm>0</bpm>
<rpm>0.00</rpm>
</extensions>
</trkpt>
<trkpt lat="64.309890747" lon="-20.305494308">
<ele>103.132813</ele>
<time>2012-07-19T18:21:41Z</time>
<extensions>
<speed>0.0</speed>
<temp>0.00</temp>
<bpm>0</bpm>
<rpm>0.00</rpm>
</extensions>
</trkpt>
<trkpt lat="64.309890747" lon="-20.305496216">
<ele>103.134766</ele>
<time>2012-07-19T18:21:46Z</time>
<extensions>
<speed>0.0</speed>
<temp>0.00</temp>
<bpm>0</bpm>
<rpm>0.00</rpm>
</extensions>
</trkpt>
<trkpt lat="64.309890747" lon="-20.305496216">
<ele>103.130859</ele>
<time>2012-07-19T18:21:51Z</time>
<speed>0.010000</speed>
<extensions>
<speed>0.0</speed>
<temp>0.00</temp>
<bpm>0</bpm>
<rpm>0.00</rpm>
</extensions>
</trkpt>
<trkpt lat="64.309890747" lon="-20.305496216">
<ele>103.128906</ele>
<time>2012-07-19T18:21:56Z</time>
<speed>0.010000</speed>
<extensions>
<speed>0.0</speed>
<temp>0.00</temp>
<bpm>0</bpm>
<rpm>0.00</rpm>
</extensions>
</trkpt>
<trkpt lat="64.309890747" lon="-20.305496216">
<ele>103.128906</ele>
<time>2012-07-19T18:22:01Z</time>
<extensions>
<speed>0.0</speed>
<temp>0.00</temp>
<bpm>0</bpm>
<rpm>0.00</rpm>
</extensions>
</trkpt>
<trkpt lat="64.309890747" lon="-20.305496216">
<ele>103.138672</ele>
<time>2012-07-19T18:22:06Z</time>
<extensions>
<speed>0.0</speed>
<temp>0.00</temp>
<bpm>0</bpm>
<rpm>0.00</rpm>
</extensions>
</trkpt>
<trkpt lat="64.309890747" lon="-20.305496216">
<ele>103.140625</ele>
<time>2012-07-19T18:22:11Z</time>
<extensions>
<speed>0.0</speed>
<temp>0.00</temp>
<bpm>0</bpm>
<rpm>0.00</rpm>
</extensions>
</trkpt>
<trkpt lat="64.309890747" lon="-20.305498123">
<ele>103.148438</ele>
<time>2012-07-19T18:22:16Z</time>
<extensions>
<speed>0.0</speed>
<temp>0.00</temp>
<bpm>0</bpm>
<rpm>0.00</rpm>
</extensions>
</trkpt>
<trkpt lat="64.309890747" lon="-20.305498123">
<ele>103.162109</ele>
<time>2012-07-19T18:22:21Z</time>
<extensions>
<speed>0.0</speed>
<temp>0.00</temp>
<bpm>0</bpm>
<rpm>0.00</rpm>
</extensions>
</trkpt>
<trkpt lat="64.309890747" lon="-20.305498123">
<ele>103.169922</ele>
<time>2012-07-19T18:22:26Z</time>
<speed>0.010000</speed>
<extensions>
<speed>0.0</speed>
<temp>0.00</temp>
<bpm>0</bpm>
<rpm>0.00</rpm>
</extensions>
</trkpt>
<trkpt lat="64.309890747" lon="-20.305498123">
<ele>103.181641</ele>
<time>2012-07-19T18:22:31Z</time>
<speed>0.010000</speed>
<extensions>
<speed>0.0</speed>
<temp>0.00</temp>
<bpm>0</bpm>
<rpm>0.00</rpm>
</extensions>
</trkpt>
<trkpt lat="64.309890747" lon="-20.305498123">
<ele>103.193359</ele>
<time>2012-07-19T18:22:36Z</time>
<extensions>
<speed>0.0</speed>
<temp>0.00</temp>
<bpm>0</bpm>
<rpm>0.00</rpm>
</extensions>
</trkpt>
<trkpt lat="64.309890747" lon="-20.305500031">
<ele>103.216797</ele>
<time>2012-07-19T18:22:41Z</time>
<speed>0.010000</speed>
<extensions>
<speed>0.0</speed>
<temp>0.00</temp>
<bpm>0</bpm>
<rpm>0.00</rpm>
</extensions>
</trkpt>
<trkpt lat="64.309890747" lon="-20.305500031">
<ele>103.212891</ele>
<time>2012-07-19T18:22:46Z</time>
<extensions>
<speed>0.0</speed>
<temp>0.00</temp>
<bpm>0</bpm>
<rpm>0.00</rpm>
</extensions>
</trkpt>
<trkpt lat="64.309890747" lon="-20.305500031">
<ele>103.218750</ele>
<time>2012-07-19T18:22:51Z</time>
<speed>0.010000</speed>
<extensions>
<speed>0.0</speed>
<temp>0.00</temp>
<bpm>0</bpm>
<rpm>0.00</rpm>
</extensions>
</trkpt>
<trkpt lat="64.309890747" lon="-20.305500031">
<ele>103.199219</ele>
<time>2012-07-19T18:22:56Z</time>
<extensions>
<speed>0.0</speed>
<temp>0.00</temp>
<bpm>0</bpm>
<rpm>0.00</rpm>
</extensions>
</trkpt>
<trkpt lat="64.309890747" lon="-20.305500031">
<ele>103.185547</ele>
<time>2012-07-19T18:23:01Z</time>
<speed>0.010000</speed>
<extensions>
<speed>0.0</speed>
<temp>0.00</temp>
<bpm>0</bpm>
<rpm>0.00</rpm>
</extensions>
</trkpt>
<trkpt lat="64.309890747" lon="-20.305501938">
<ele>103.216797</ele>
<time>2012-07-19T18:23:06Z</time>
<speed>0.010000</speed>
<extensions>
<speed>0.0</speed>
<temp>0.00</temp>
<bpm>0</bpm>
<rpm>0.00</rpm>
</extensions>
</trkpt>
<trkpt lat="64.309890747" lon="-20.305501938">
<ele>103.228516</ele>
<time>2012-07-19T18:23:11Z</time>
<extensions>
<speed>0.0</speed>
<temp>0.00</temp>
<bpm>0</bpm>
<rpm>0.00</rpm>
</extensions>
</trkpt>
<trkpt lat="64.309890747" lon="-20.305501938">
<ele>103.224609</ele>
<time>2012-07-19T18:23:16Z</time>
<extensions>
<speed>0.0</speed>
<temp>0.00</temp>
<bpm>0</bpm>
<rpm>0.00</rpm>
</extensions>
</trkpt>
<trkpt lat="64.309890747" lon="-20.305501938">
<ele>103.230469</ele>
<time>2012-07-19T18:23:21Z</time>
<speed>0.010000</speed>
<extensions>
<speed>0.0</speed>
<temp>0.00</temp>
<bpm>0</bpm>
<rpm>0.00</rpm>
</extensions>
</trkpt>
<trkpt lat="64.309890747" lon="-20.305501938">
<ele>103.230469</ele>
<time>2012-07-19T18:23:26Z</time>
<speed>0.010000</speed>
<extensions>
<speed>0.0</speed>
<temp>0.00</temp>
<bpm>0</bpm>
<rpm>0.00</rpm>
</extensions>
</trkpt>
<trkpt lat="64.309890747" lon="-20.305501938">
<ele>103.257813</ele>
<time>2012-07-19T18:23:31Z</time>
<speed>0.010000</speed>
<extensions>
<speed>0.0</speed>
<temp>0.00</temp>
<bpm>0</bpm>
<rpm>0.00</rpm>
</extensions>
</trkpt>
<trkpt lat="64.309890747" lon="-20.305501938">
<ele>103.271484</ele>
<time>2012-07-19T18:23:36Z</time>
<extensions>
<speed>0.0</speed>
<temp>0.00</temp>
<bpm>0</bpm>
<rpm>0.00</rpm>
</extensions>
</trkpt>
<trkpt lat="64.309890747" lon="-20.305503845">
<ele>103.265625</ele>
<time>2012-07-19T18:23:41Z</time>
<extensions>
<speed>0.0</speed>
<temp>0.00</temp>
<bpm>0</bpm>
<rpm>0.00</rpm>
</extensions>
</trkpt>
<trkpt lat="64.309890747" lon="-20.305503845">
<ele>103.269531</ele>
<time>2012-07-19T18:23:46Z</time>
<speed>0.010000</speed>
<extensions>
<speed>0.0</speed>
<temp>0.00</temp>
<bpm>0</bpm>
<rpm>0.00</rpm>
</extensions>
</trkpt>
<trkpt lat="64.309890747" lon="-20.305503845">
<ele>103.279297</ele>
<time>2012-07-19T18:23:51Z</time>
<speed>0.010000</speed>
<extensions>
<speed>0.0</speed>
<temp>0.00</temp>
<bpm>0</bpm>
<rpm>0.00</rpm>
</extensions>
</trkpt>
<trkpt lat="64.309890747" lon="-20.305503845">
<ele>103.289063</ele>
<time>2012-07-19T18:23:56Z</time>
<speed>0.010000</speed>
<extensions>
<speed>0.0</speed>
<temp>0.00</temp>
<bpm>0</bpm>
<rpm>0.00</rpm>
</extensions>
</trkpt>
<trkpt lat="64.309890747" lon="-20.305503845">
<ele>103.300781</ele>
<time>2012-07-19T18:24:01Z</time>
<speed>0.010000</speed>
<extensions>
<speed>0.0</speed>
<temp>0.00</temp>
<bpm>0</bpm>
<rpm>0.00</rpm>
</extensions>
</trkpt>
<trkpt lat="64.309890747" lon="-20.305503845">
<ele>103.316406</ele>
<time>2012-07-19T18:24:06Z</time>
<speed>0.010000</speed>
<extensions>
<speed>0.0</speed>
<temp>0.00</temp>
<bpm>0</bpm>
<rpm>0.00</rpm>
</extensions>
</trkpt>
<trkpt lat="64.309890747" lon="-20.305503845">
<ele>103.316406</ele>
<time>2012-07-19T18:24:11Z</time>
<speed>0.010000</speed>
<extensions>
<speed>0.0</speed>
<temp>0.00</temp>
<bpm>0</bpm>
<rpm>0.00</rpm>
</extensions>
</trkpt>
<trkpt lat="64.309890747" lon="-20.305505753">
<ele>103.314453</ele>
<time>2012-07-19T18:24:16Z</time>
<extensions>
<speed>0.0</speed>
<temp>0.00</temp>
<bpm>0</bpm>
<rpm>0.00</rpm>
</extensions>
</trkpt>
<trkpt lat="64.309890747" lon="-20.305503845">
<ele>103.316406</ele>
<time>2012-07-19T18:24:21Z</time>
<extensions>
<speed>0.0</speed>
<temp>0.00</temp>
<bpm>0</bpm>
<rpm>0.00</rpm>
</extensions>
</trkpt>
<trkpt lat="64.309890747" lon="-20.305505753">
<ele>103.308594</ele>
<time>2012-07-19T18:24:26Z</time>
<extensions>
<speed>0.0</speed>
<temp>0.00</temp>
<bpm>0</bpm>
<rpm>0.00</rpm>
</extensions>
</trkpt>
<trkpt lat="64.309890747" lon="-20.305505753">
<ele>103.310547</ele>
<time>2012-07-19T18:24:31Z</time>
<speed>0.010000</speed>
<extensions>
<speed>0.0</speed>
<temp>0.00</temp>
<bpm>0</bpm>
<rpm>0.00</rpm>
</extensions>
</trkpt>
<trkpt lat="64.309890747" lon="-20.305505753">
<ele>103.312500</ele>
<time>2012-07-19T18:24:36Z</time>
<speed>0.010000</speed>
<extensions>
<speed>0.0</speed>
<temp>0.00</temp>
<bpm>0</bpm>
<rpm>0.00</rpm>
</extensions>
</trkpt>
<trkpt lat="64.309890747" lon="-20.305505753">
<ele>103.298828</ele>
<time>2012-07-19T18:24:41Z</time>
<extensions>
<speed>0.0</speed>
<temp>0.00</temp>
<bpm>0</bpm>
<rpm>0.00</rpm>
</extensions>
</trkpt>
<trkpt lat="64.309890747" lon="-20.305505753">
<ele>103.298828</ele>
<time>2012-07-19T18:24:46Z</time>
<speed>0.030000</speed>
<extensions>
<speed>0.0</speed>
<temp>0.00</temp>
<bpm>0</bpm>
<rpm>0.00</rpm>
</extensions>
</trkpt>
<trkpt lat="64.309890747" lon="-20.305505753">
<ele>103.291016</ele>
<time>2012-07-19T18:24:51Z</time>
<speed>0.010000</speed>
<extensions>
<speed>0.0</speed>
<temp>0.00</temp>
<bpm>0</bpm>
<rpm>0.00</rpm>
</extensions>
</trkpt>
<trkpt lat="64.309890747" lon="-20.305505753">
<ele>103.291016</ele>
<time>2012-07-19T18:24:56Z</time>
<speed>0.020000</speed>
<extensions>
<speed>0.0</speed>
<temp>0.00</temp>
<bpm>0</bpm>
<rpm>0.00</rpm>
</extensions>
</trkpt>
<trkpt lat="64.309890747" lon="-20.305505753">
<ele>103.261719</ele>
<time>2012-07-19T18:25:01Z</time>
<extensions>
<speed>0.0</speed>
<temp>0.00</temp>
<bpm>0</bpm>
<rpm>0.00</rpm>
</extensions>
</trkpt>
<trkpt lat="64.309890747" lon="-20.305505753">
<ele>103.263672</ele>
<time>2012-07-19T18:25:06Z</time>
<speed>0.020000</speed>
<extensions>
<speed>0.0</speed>
<temp>0.00</temp>
<bpm>0</bpm>
<rpm>0.00</rpm>
</extensions>
</trkpt>
<trkpt lat="64.309890747" lon="-20.305505753">
<ele>103.265625</ele>
<time>2012-07-19T18:25:11Z</time>
<speed>0.020000</speed>
<extensions>
<speed>0.0</speed>
<temp>0.00</temp>
<bpm>0</bpm>
<rpm>0.00</rpm>
</extensions>
</trkpt>
<trkpt lat="64.309890747" lon="-20.305505753">
<ele>103.269531</ele>
<time>2012-07-19T18:25:16Z</time>
<extensions>
<speed>0.0</speed>
<temp>0.00</temp>
<bpm>0</bpm>
<rpm>0.00</rpm>
</extensions>
</trkpt>
<trkpt lat="64.309890747" lon="-20.305505753">
<ele>103.273438</ele>
<time>2012-07-19T18:25:21Z</time>
<extensions>
<speed>0.0</speed>
<temp>0.00</temp>
<bpm>0</bpm>
<rpm>0.00</rpm>
</extensions>
</trkpt>
<trkpt lat="64.309890747" lon="-20.305503845">
<ele>103.304688</ele>
<time>2012-07-19T18:25:26Z</time>
<speed>0.010000</speed>
<extensions>
<speed>0.0</speed>
<temp>0.00</temp>
<bpm>0</bpm>
<rpm>0.00</rpm>
</extensions>
</trkpt>
<trkpt lat="64.309890747" lon="-20.305503845">
<ele>103.306641</ele>
<time>2012-07-19T18:25:31Z</time>
<extensions>
<speed>0.0</speed>
<temp>0.00</temp>
<bpm>0</bpm>
<rpm>0.00</rpm>
</extensions>
</trkpt>
<trkpt lat="64.309890747" lon="-20.305505753">
<ele>103.285156</ele>
<time>2012-07-19T18:25:36Z</time>
<speed>0.020000</speed>
<extensions>
<speed>0.0</speed>
<temp>0.00</temp>
<bpm>0</bpm>
<rpm>0.00</rpm>
</extensions>
</trkpt>
<trkpt lat="64.309890747" lon="-20.305505753">
<ele>103.294922</ele>
<time>2012-07-19T18:25:41Z</time>
<speed>0.010000</speed>
<extensions>
<speed>0.0</speed>
<temp>0.00</temp>
<bpm>0</bpm>
<rpm>0.00</rpm>
</extensions>
</trkpt>
<trkpt lat="64.309890747" lon="-20.305505753">
<ele>103.279297</ele>
<time>2012-07-19T18:25:46Z</time>
<extensions>
<speed>0.0</speed>
<temp>0.00</temp>
<bpm>0</bpm>
<rpm>0.00</rpm>
</extensions>
</trkpt>
<trkpt lat="64.309890747" lon="-20.305505753">
<ele>103.267578</ele>
<time>2012-07-19T18:25:51Z</time>
<speed>0.010000</speed>
<extensions>
<speed>0.0</speed>
<temp>0.00</temp>
<bpm>0</bpm>
<rpm>0.00</rpm>
</extensions>
</trkpt>
<trkpt lat="64.309890747" lon="-20.305505753">
<ele>103.259766</ele>
<time>2012-07-19T18:25:56Z</time>
<extensions>
<speed>0.0</speed>
<temp>0.00</temp>
<bpm>0</bpm>
<rpm>0.00</rpm>
</extensions>
</trkpt>
<trkpt lat="64.309890747" lon="-20.305505753">
<ele>103.259766</ele>
<time>2012-07-19T18:26:01Z</time>
<speed>0.010000</speed>
<extensions>
<speed>0.0</speed>
<temp>0.00</temp>
<bpm>0</bpm>
<rpm>0.00</rpm>
</extensions>
</trkpt>
<trkpt lat="64.309890747" lon="-20.305505753">
<ele>103.269531</ele>
<time>2012-07-19T18:26:06Z</time>
<speed>0.010000</speed>
<extensions>
<speed>0.0</speed>
<temp>0.00</temp>
<bpm>0</bpm>
<rpm>0.00</rpm>
</extensions>
</trkpt>
<trkpt lat="64.309890747" lon="-20.305505753">
<ele>103.279297</ele>
<time>2012-07-19T18:26:11Z</time>
<speed>0.010000</speed>
<extensions>
<speed>0.0</speed>
<temp>0.00</temp>
<bpm>0</bpm>
<rpm>0.00</rpm>
</extensions>
</trkpt>
<trkpt lat="64.309890747" lon="-20.305505753">
<ele>103.291016</ele>
<time>2012-07-19T18:26:16Z</time>
<extensions>
<speed>0.0</speed>
<temp>0.00</temp>
<bpm>0</bpm>
<rpm>0.00</rpm>
</extensions>
</trkpt>
<trkpt lat="64.309890747" lon="-20.305505753">
<ele>103.279297</ele>
<time>2012-07-19T18:26:21Z</time>
<speed>0.010000</speed>
<extensions>
<speed>0.0</speed>
<temp>0.00</temp>
<bpm>0</bpm>
<rpm>0.00</rpm>
</extensions>
</trkpt>
<trkpt lat="64.309890747" lon="-20.305505753">
<ele>103.261719</ele>
<time>2012-07-19T18:26:26Z</time>
<speed>0.010000</speed>
<extensions>
<speed>0.0</speed>
<temp>0.00</temp>
<bpm>0</bpm>
<rpm>0.00</rpm>
</extensions>
</trkpt>
<trkpt lat="64.309890747" lon="-20.305505753">
<ele>103.269531</ele>
<time>2012-07-19T18:26:31Z</time>
<extensions>
<speed>0.0</speed>
<temp>0.00</temp>
<bpm>0</bpm>
<rpm>0.00</rpm>
</extensions>
</trkpt>
<trkpt lat="64.309890747" lon="-20.305507660">
<ele>103.281250</ele>
<time>2012-07-19T18:26:36Z</time>
<extensions>
<speed>0.0</speed>
<temp>0.00</temp>
<bpm>0</bpm>
<rpm>0.00</rpm>
</extensions>
</trkpt>
<trkpt lat="64.309890747" lon="-20.305507660">
<ele>103.273438</ele>
<time>2012-07-19T18:26:41Z</time>
<extensions>
<speed>0.0</speed>
<temp>0.00</temp>
<bpm>0</bpm>
<rpm>0.00</rpm>
</extensions>
</trkpt>
<trkpt lat="64.309890747" lon="-20.305507660">
<ele>103.271484</ele>
<time>2012-07-19T18:26:46Z</time>
<extensions>
<speed>0.0</speed>
<temp>0.00</temp>
<bpm>0</bpm>
<rpm>0.00</rpm>
</extensions>
</trkpt>
<trkpt lat="64.309890747" lon="-20.305507660">
<ele>103.275391</ele>
<time>2012-07-19T18:26:51Z</time>
<speed>0.010000</speed>
<extensions>
<speed>0.0</speed>
<temp>0.00</temp>
<bpm>0</bpm>
<rpm>0.00</rpm>
</extensions>
</trkpt>
<trkpt lat="64.309890747" lon="-20.305507660">
<ele>103.296875</ele>
<time>2012-07-19T18:26:56Z</time>
<extensions>
<speed>0.0</speed>
<temp>0.00</temp>
<bpm>0</bpm>
<rpm>0.00</rpm>
</extensions>
</trkpt>
<trkpt lat="64.309890747" lon="-20.305507660">
<ele>103.310547</ele>
<time>2012-07-19T18:27:01Z</time>
<speed>0.010000</speed>
<extensions>
<speed>0.0</speed>
<temp>0.00</temp>
<bpm>0</bpm>
<rpm>0.00</rpm>
</extensions>
</trkpt>
<trkpt lat="64.309890747" lon="-20.305507660">
<ele>103.283203</ele>
<time>2012-07-19T18:27:06Z</time>
<extensions>
<speed>0.0</speed>
<temp>0.00</temp>
<bpm>0</bpm>
<rpm>0.00</rpm>
</extensions>
</trkpt>
<trkpt lat="64.309890747" lon="-20.305509567">
<ele>103.259766</ele>
<time>2012-07-19T18:27:11Z</time>
<extensions>
<speed>0.0</speed>
<temp>0.00</temp>
<bpm>0</bpm>
<rpm>0.00</rpm>
</extensions>
</trkpt>
<trkpt lat="64.309890747" lon="-20.305509567">
<ele>103.232422</ele>
<time>2012-07-19T18:27:16Z</time>
<speed>0.030000</speed>
<extensions>
<speed>0.0</speed>
<temp>0.00</temp>
<bpm>0</bpm>
<rpm>0.00</rpm>
</extensions>
</trkpt>
<trkpt lat="64.309890747" lon="-20.305509567">
<ele>103.236328</ele>
<time>2012-07-19T18:27:21Z</time>
<extensions>
<speed>0.0</speed>
<temp>0.00</temp>
<bpm>0</bpm>
<rpm>0.00</rpm>
</extensions>
</trkpt>
<trkpt lat="64.309890747" lon="-20.305509567">
<ele>103.240234</ele>
<time>2012-07-19T18:27:26Z</time>
<speed>0.020000</speed>
<extensions>
<speed>0.0</speed>
<temp>0.00</temp>
<bpm>0</bpm>
<rpm>0.00</rpm>
</extensions>
</trkpt>
<trkpt lat="64.309890747" lon="-20.305509567">
<ele>103.244141</ele>
<time>2012-07-19T18:27:31Z</time>
<speed>0.010000</speed>
<extensions>
<speed>0.0</speed>
<temp>0.00</temp>
<bpm>0</bpm>
<rpm>0.00</rpm>
</extensions>
</trkpt>
<trkpt lat="64.309890747" lon="-20.305509567">
<ele>103.248047</ele>
<time>2012-07-19T18:27:36Z</time>
<extensions>
<speed>0.0</speed>
<temp>0.00</temp>
<bpm>0</bpm>
<rpm>0.00</rpm>
</extensions>
</trkpt>
<trkpt lat="64.309890747" lon="-20.305509567">
<ele>103.250000</ele>
<time>2012-07-19T18:27:41Z</time>
<speed>0.020000</speed>
<extensions>
<speed>0.0</speed>
<temp>0.00</temp>
<bpm>0</bpm>
<rpm>0.00</rpm>
</extensions>
</trkpt>
<trkpt lat="64.309906006" lon="-20.305534363">
<ele>103.406250</ele>
<time>2012-07-19T18:27:46Z</time>
<speed>0.420000</speed>
<extensions>
<speed>0.4</speed>
<temp>0.00</temp>
<bpm>0</bpm>
<rpm>0.00</rpm>
</extensions>
</trkpt>
<trkpt lat="64.309928894" lon="-20.305585861">
<ele>104.056641</ele>
<time>2012-07-19T18:27:51Z</time>
<speed>1.290000</speed>
<extensions>
<speed>1.3</speed>
<temp>0.00</temp>
<bpm>0</bpm>
<rpm>0.00</rpm>
</extensions>
</trkpt>
<trkpt lat="64.309974670" lon="-20.305610657">
<ele>105.201172</ele>
<time>2012-07-19T18:27:56Z</time>
<speed>1.060000</speed>
<extensions>
<speed>1.1</speed>
<temp>0.00</temp>
<bpm>0</bpm>
<rpm>0.00</rpm>
</extensions>
</trkpt>
<trkpt lat="64.310020447" lon="-20.305644989">
<ele>106.494141</ele>
<time>2012-07-19T18:28:01Z</time>
<speed>1.100000</speed>
<extensions>
<speed>1.1</speed>
<temp>0.00</temp>
<bpm>0</bpm>
<rpm>0.00</rpm>
</extensions>
</trkpt>
<trkpt lat="64.310066223" lon="-20.305688858">
<ele>107.037109</ele>
<time>2012-07-19T18:28:06Z</time>
<speed>0.840000</speed>
<extensions>
<speed>0.8</speed>
<temp>0.00</temp>
<bpm>0</bpm>
<rpm>0.00</rpm>
</extensions>
</trkpt>
<trkpt lat="64.310112000" lon="-20.305770874">
<ele>106.619141</ele>
<time>2012-07-19T18:28:11Z</time>
<speed>1.000000</speed>
<extensions>
<speed>1.0</speed>
<temp>0.00</temp>
<bpm>0</bpm>
<rpm>0.00</rpm>
</extensions>
</trkpt>
<trkpt lat="64.310127258" lon="-20.305845261">
<ele>105.072266</ele>
<time>2012-07-19T18:28:16Z</time>
<speed>0.850000</speed>
<extensions>
<speed>0.8</speed>
<temp>0.00</temp>
<bpm>0</bpm>
<rpm>0.00</rpm>
</extensions>
</trkpt>
<trkpt lat="64.310134888" lon="-20.305929184">
<ele>101.443359</ele>
<time>2012-07-19T18:28:21Z</time>
<speed>0.730000</speed>
<extensions>
<speed>0.7</speed>
<temp>0.00</temp>
<bpm>0</bpm>
<rpm>0.00</rpm>
</extensions>
</trkpt>
<trkpt lat="64.310142517" lon="-20.305999756">
<ele>101.201172</ele>
<time>2012-07-19T18:28:26Z</time>
<speed>0.650000</speed>
<extensions>
<speed>0.6</speed>
<temp>0.00</temp>
<bpm>0</bpm>
<rpm>0.00</rpm>
</extensions>
</trkpt>
<trkpt lat="64.310142517" lon="-20.305994034">
<ele>100.667969</ele>
<time>2012-07-19T18:28:31Z</time>
<speed>0.010000</speed>
<extensions>
<speed>0.0</speed>
<temp>0.00</temp>
<bpm>0</bpm>
<rpm>0.00</rpm>
</extensions>
</trkpt>
<trkpt lat="64.310142517" lon="-20.305994034">
<ele>100.595703</ele>
<time>2012-07-19T18:28:36Z</time>
<extensions>
<speed>0.0</speed>
<temp>0.00</temp>
<bpm>0</bpm>
<rpm>0.00</rpm>
</extensions>
</trkpt>
<trkpt lat="64.310142517" lon="-20.305994034">
<ele>100.595703</ele>
<time>2012-07-19T18:28:41Z</time>
<speed>0.470000</speed>
<extensions>
<speed>0.5</speed>
<temp>0.00</temp>
<bpm>0</bpm>
<rpm>0.00</rpm>
</extensions>
</trkpt>
<trkpt lat="64.310134888" lon="-20.305995941">
<ele>100.527344</ele>
<time>2012-07-19T18:28:46Z</time>
<extensions>
<speed>0.0</speed>
<temp>0.00</temp>
<bpm>0</bpm>
<rpm>0.00</rpm>
</extensions>
</trkpt>
<trkpt lat="64.310134888" lon="-20.305995941">
<ele>100.529297</ele>
<time>2012-07-19T18:28:51Z</time>
<extensions>
<speed>0.0</speed>
<temp>0.00</temp>
<bpm>0</bpm>
<rpm>0.00</rpm>
</extensions>
</trkpt>
<trkpt lat="64.310134888" lon="-20.305992126">
<ele>100.453125</ele>
<time>2012-07-19T18:28:56Z</time>
<speed>0.040000</speed>
<extensions>
<speed>0.0</speed>
<temp>0.00</temp>
<bpm>0</bpm>
<rpm>0.00</rpm>
</extensions>
</trkpt>
<trkpt lat="64.310134888" lon="-20.305994034">
<ele>100.806641</ele>
<time>2012-07-19T18:29:01Z</time>
<extensions>
<speed>0.0</speed>
<temp>0.00</temp>
<bpm>0</bpm>
<rpm>0.00</rpm>
</extensions>
</trkpt>
<trkpt lat="64.310134888" lon="-20.305994034">
<ele>100.810547</ele>
<time>2012-07-19T18:29:06Z</time>
<extensions>
<speed>0.0</speed>
<temp>0.00</temp>
<bpm>0</bpm>
<rpm>0.00</rpm>
</extensions>
</trkpt>
<trkpt lat="64.310134888" lon="-20.305994034">
<ele>100.800781</ele>
<time>2012-07-19T18:29:11Z</time>
<speed>0.010000</speed>
<extensions>
<speed>0.0</speed>
<temp>0.00</temp>
<bpm>0</bpm>
<rpm>0.00</rpm>
</extensions>
</trkpt>
<trkpt lat="64.310134888" lon="-20.305994034">
<ele>100.765625</ele>
<time>2012-07-19T18:29:16Z</time>
<extensions>
<speed>0.0</speed>
<temp>0.00</temp>
<bpm>0</bpm>
<rpm>0.00</rpm>
</extensions>
</trkpt>
<trkpt lat="64.310134888" lon="-20.305994034">
<ele>100.744141</ele>
<time>2012-07-19T18:29:21Z</time>
<extensions>
<speed>0.0</speed>
<temp>0.00</temp>
<bpm>0</bpm>
<rpm>0.00</rpm>
</extensions>
</trkpt>
<trkpt lat="64.310134888" lon="-20.305994034">
<ele>100.728516</ele>
<time>2012-07-19T18:29:26Z</time>
<extensions>
<speed>0.0</speed>
<temp>0.00</temp>
<bpm>0</bpm>
<rpm>0.00</rpm>
</extensions>
</trkpt>
<trkpt lat="64.310134888" lon="-20.305994034">
<ele>100.708984</ele>
<time>2012-07-19T18:29:31Z</time>
<extensions>
<speed>0.0</speed>
<temp>0.00</temp>
<bpm>0</bpm>
<rpm>0.00</rpm>
</extensions>
</trkpt>
<trkpt lat="64.310134888" lon="-20.305994034">
<ele>100.714844</ele>
<time>2012-07-19T18:29:36Z</time>
<extensions>
<speed>0.0</speed>
<temp>0.00</temp>
<bpm>0</bpm>
<rpm>0.00</rpm>
</extensions>
</trkpt>
<trkpt lat="64.310134888" lon="-20.305994034">
<ele>100.728516</ele>
<time>2012-07-19T18:29:41Z</time>
<extensions>
<speed>0.0</speed>
<temp>0.00</temp>
<bpm>0</bpm>
<rpm>0.00</rpm>
</extensions>
</trkpt>
<trkpt lat="64.310134888" lon="-20.305994034">
<ele>100.751953</ele>
<time>2012-07-19T18:29:46Z</time>
<speed>0.290000</speed>
<extensions>
<speed>0.3</speed>
<temp>0.00</temp>
<bpm>0</bpm>
<rpm>0.00</rpm>
</extensions>
</trkpt>
<trkpt lat="64.310134888" lon="-20.305995941">
<ele>100.773438</ele>
<time>2012-07-19T18:29:51Z</time>
<extensions>
<speed>0.0</speed>
<temp>0.00</temp>
<bpm>0</bpm>
<rpm>0.00</rpm>
</extensions>
</trkpt>
<trkpt lat="64.310134888" lon="-20.305995941">
<ele>100.792969</ele>
<time>2012-07-19T18:29:56Z</time>
<extensions>
<speed>0.0</speed>
<temp>0.00</temp>
<bpm>0</bpm>
<rpm>0.00</rpm>
</extensions>
</trkpt>
<trkpt lat="64.310134888" lon="-20.305995941">
<ele>100.806641</ele>
<time>2012-07-19T18:30:01Z</time>
<extensions>
<speed>0.0</speed>
<temp>0.00</temp>
<bpm>0</bpm>
<rpm>0.00</rpm>
</extensions>
</trkpt>
<trkpt lat="64.310134888" lon="-20.305995941">
<ele>100.816406</ele>
<time>2012-07-19T18:30:06Z</time>
<extensions>
<speed>0.0</speed>
<temp>0.00</temp>
<bpm>0</bpm>
<rpm>0.00</rpm>
</extensions>
</trkpt>
<trkpt lat="64.310134888" lon="-20.305995941">
<ele>100.824219</ele>
<time>2012-07-19T18:30:11Z</time>
<extensions>
<speed>0.0</speed>
<temp>0.00</temp>
<bpm>0</bpm>
<rpm>0.00</rpm>
</extensions>
</trkpt>
<trkpt lat="64.310134888" lon="-20.305995941">
<ele>100.828125</ele>
<time>2012-07-19T18:30:16Z</time>
<extensions>
<speed>0.0</speed>
<temp>0.00</temp>
<bpm>0</bpm>
<rpm>0.00</rpm>
</extensions>
</trkpt>
<trkpt lat="64.310134888" lon="-20.305995941">
<ele>100.843750</ele>
<time>2012-07-19T18:30:21Z</time>
<speed>0.010000</speed>
<extensions>
<speed>0.0</speed>
<temp>0.00</temp>
<bpm>0</bpm>
<rpm>0.00</rpm>
</extensions>
</trkpt>
<trkpt lat="64.310134888" lon="-20.305995941">
<ele>100.841797</ele>
<time>2012-07-19T18:30:26Z</time>
<extensions>
<speed>0.0</speed>
<temp>0.00</temp>
<bpm>0</bpm>
<rpm>0.00</rpm>
</extensions>
</trkpt>
<trkpt lat="64.310134888" lon="-20.305995941">
<ele>100.833984</ele>
<time>2012-07-19T18:30:31Z</time>
<speed>0.260000</speed>
<extensions>
<speed>0.3</speed>
<temp>0.00</temp>
<bpm>0</bpm>
<rpm>0.00</rpm>
</extensions>
</trkpt>
<trkpt lat="64.310134888" lon="-20.305995941">
<ele>100.839844</ele>
<time>2012-07-19T18:30:36Z</time>
<extensions>
<speed>0.0</speed>
<temp>0.00</temp>
<bpm>0</bpm>
<rpm>0.00</rpm>
</extensions>
</trkpt>
<trkpt lat="64.310134888" lon="-20.305995941">
<ele>100.849609</ele>
<time>2012-07-19T18:30:41Z</time>
<extensions>
<speed>0.0</speed>
<temp>0.00</temp>
<bpm>0</bpm>
<rpm>0.00</rpm>
</extensions>
</trkpt>
<trkpt lat="64.310134888" lon="-20.305995941">
<ele>100.861328</ele>
<time>2012-07-19T18:30:46Z</time>
<speed>0.010000</speed>
<extensions>
<speed>0.0</speed>
<temp>0.00</temp>
<bpm>0</bpm>
<rpm>0.00</rpm>
</extensions>
</trkpt>
<trkpt lat="64.310134888" lon="-20.305997849">
<ele>100.873047</ele>
<time>2012-07-19T18:30:51Z</time>
<extensions>
<speed>0.0</speed>
<temp>0.00</temp>
<bpm>0</bpm>
<rpm>0.00</rpm>
</extensions>
</trkpt>
<trkpt lat="64.310134888" lon="-20.305997849">
<ele>100.890625</ele>
<time>2012-07-19T18:30:56Z</time>
<extensions>
<speed>0.0</speed>
<temp>0.00</temp>
<bpm>0</bpm>
<rpm>0.00</rpm>
</extensions>
</trkpt>
<trkpt lat="64.310134888" lon="-20.305997849">
<ele>100.894531</ele>
<time>2012-07-19T18:31:01Z</time>
<speed>0.010000</speed>
<extensions>
<speed>0.0</speed>
<temp>0.00</temp>
<bpm>0</bpm>
<rpm>0.00</rpm>
</extensions>
</trkpt>
<trkpt lat="64.310134888" lon="-20.305997849">
<ele>100.902344</ele>
<time>2012-07-19T18:31:06Z</time>
<extensions>
<speed>0.0</speed>
<temp>0.00</temp>
<bpm>0</bpm>
<rpm>0.00</rpm>
</extensions>
</trkpt>
<trkpt lat="64.310134888" lon="-20.305997849">
<ele>100.904297</ele>
<time>2012-07-19T18:31:11Z</time>
<extensions>
<speed>0.0</speed>
<temp>0.00</temp>
<bpm>0</bpm>
<rpm>0.00</rpm>
</extensions>
</trkpt>
<trkpt lat="64.310134888" lon="-20.305999756">
<ele>101.027344</ele>
<time>2012-07-19T18:31:16Z</time>
<extensions>
<speed>0.0</speed>
<temp>0.00</temp>
<bpm>0</bpm>
<rpm>0.00</rpm>
</extensions>
</trkpt>
<trkpt lat="64.310134888" lon="-20.305997849">
<ele>101.160156</ele>
<time>2012-07-19T18:31:21Z</time>
<extensions>
<speed>0.0</speed>
<temp>0.00</temp>
<bpm>0</bpm>
<rpm>0.00</rpm>
</extensions>
</trkpt>
<trkpt lat="64.310134888" lon="-20.305997849">
<ele>101.164063</ele>
<time>2012-07-19T18:31:26Z</time>
<speed>0.010000</speed>
<extensions>
<speed>0.0</speed>
<temp>0.00</temp>
<bpm>0</bpm>
<rpm>0.00</rpm>
</extensions>
</trkpt>
<trkpt lat="64.310134888" lon="-20.305997849">
<ele>101.175781</ele>
<time>2012-07-19T18:31:31Z</time>
<extensions>
<speed>0.0</speed>
<temp>0.00</temp>
<bpm>0</bpm>
<rpm>0.00</rpm>
</extensions>
</trkpt>
<trkpt lat="64.310134888" lon="-20.305997849">
<ele>101.179688</ele>
<time>2012-07-19T18:31:36Z</time>
<extensions>
<speed>0.0</speed>
<temp>0.00</temp>
<bpm>0</bpm>
<rpm>0.00</rpm>
</extensions>
</trkpt>
<trkpt lat="64.310134888" lon="-20.305997849">
<ele>101.191406</ele>
<time>2012-07-19T18:31:41Z</time>
<extensions>
<speed>0.0</speed>
<temp>0.00</temp>
<bpm>0</bpm>
<rpm>0.00</rpm>
</extensions>
</trkpt>
<trkpt lat="64.310134888" lon="-20.305997849">
<ele>101.207031</ele>
<time>2012-07-19T18:31:46Z</time>
<extensions>
<speed>0.0</speed>
<temp>0.00</temp>
<bpm>0</bpm>
<rpm>0.00</rpm>
</extensions>
</trkpt>
<trkpt lat="64.310134888" lon="-20.305997849">
<ele>101.232422</ele>
<time>2012-07-19T18:31:51Z</time>
<extensions>
<speed>0.0</speed>
<temp>0.00</temp>
<bpm>0</bpm>
<rpm>0.00</rpm>
</extensions>
</trkpt>
<trkpt lat="64.310134888" lon="-20.305997849">
<ele>101.248047</ele>
<time>2012-07-19T18:31:56Z</time>
<extensions>
<speed>0.0</speed>
<temp>0.00</temp>
<bpm>0</bpm>
<rpm>0.00</rpm>
</extensions>
</trkpt>
<trkpt lat="64.310134888" lon="-20.305999756">
<ele>101.255859</ele>
<time>2012-07-19T18:32:01Z</time>
<extensions>
<speed>0.0</speed>
<temp>0.00</temp>
<bpm>0</bpm>
<rpm>0.00</rpm>
</extensions>
</trkpt>
<trkpt lat="64.310134888" lon="-20.305999756">
<ele>101.257813</ele>
<time>2012-07-19T18:32:06Z</time>
<extensions>
<speed>0.0</speed>
<temp>0.00</temp>
<bpm>0</bpm>
<rpm>0.00</rpm>
</extensions>
</trkpt>
<trkpt lat="64.310134888" lon="-20.305999756">
<ele>101.257813</ele>
<time>2012-07-19T18:32:11Z</time>
<extensions>
<speed>0.0</speed>
<temp>0.00</temp>
<bpm>0</bpm>
<rpm>0.00</rpm>
</extensions>
</trkpt>
<trkpt lat="64.310134888" lon="-20.306001663">
<ele>101.267578</ele>
<time>2012-07-19T18:32:16Z</time>
<extensions>
<speed>0.0</speed>
<temp>0.00</temp>
<bpm>0</bpm>
<rpm>0.00</rpm>
</extensions>
</trkpt>
<trkpt lat="64.310134888" lon="-20.306001663">
<ele>101.271484</ele>
<time>2012-07-19T18:32:21Z</time>
<extensions>
<speed>0.0</speed>
<temp>0.00</temp>
<bpm>0</bpm>
<rpm>0.00</rpm>
</extensions>
</trkpt>
<trkpt lat="64.310134888" lon="-20.306001663">
<ele>101.277344</ele>
<time>2012-07-19T18:32:26Z</time>
<extensions>
<speed>0.0</speed>
<temp>0.00</temp>
<bpm>0</bpm>
<rpm>0.00</rpm>
</extensions>
</trkpt>
<trkpt lat="64.310134888" lon="-20.306001663">
<ele>101.296875</ele>
<time>2012-07-19T18:32:31Z</time>
<speed>0.010000</speed>
<extensions>
<speed>0.0</speed>
<temp>0.00</temp>
<bpm>0</bpm>
<rpm>0.00</rpm>
</extensions>
</trkpt>
<trkpt lat="64.310134888" lon="-20.306001663">
<ele>101.312500</ele>
<time>2012-07-19T18:32:36Z</time>
<extensions>
<speed>0.0</speed>
<temp>0.00</temp>
<bpm>0</bpm>
<rpm>0.00</rpm>
</extensions>
</trkpt>
<trkpt lat="64.310134888" lon="-20.306001663">
<ele>101.333984</ele>
<time>2012-07-19T18:32:41Z</time>
<speed>0.010000</speed>
<extensions>
<speed>0.0</speed>
<temp>0.00</temp>
<bpm>0</bpm>
<rpm>0.00</rpm>
</extensions>
</trkpt>
<trkpt lat="64.310134888" lon="-20.306001663">
<ele>101.343750</ele>
<time>2012-07-19T18:32:46Z</time>
<extensions>
<speed>0.0</speed>
<temp>0.00</temp>
<bpm>0</bpm>
<rpm>0.00</rpm>
</extensions>
</trkpt>
<trkpt lat="64.310134888" lon="-20.306001663">
<ele>101.355469</ele>
<time>2012-07-19T18:32:51Z</time>
<speed>0.010000</speed>
<extensions>
<speed>0.0</speed>
<temp>0.00</temp>
<bpm>0</bpm>
<rpm>0.00</rpm>
</extensions>
</trkpt>
<trkpt lat="64.310134888" lon="-20.306003571">
<ele>101.357422</ele>
<time>2012-07-19T18:32:56Z</time>
<speed>0.020000</speed>
<extensions>
<speed>0.0</speed>
<temp>0.00</temp>
<bpm>0</bpm>
<rpm>0.00</rpm>
</extensions>
</trkpt>
<trkpt lat="64.310134888" lon="-20.306003571">
<ele>101.363281</ele>
<time>2012-07-19T18:33:01Z</time>
<extensions>
<speed>0.0</speed>
<temp>0.00</temp>
<bpm>0</bpm>
<rpm>0.00</rpm>
</extensions>
</trkpt>
<trkpt lat="64.310134888" lon="-20.306003571">
<ele>101.373047</ele>
<time>2012-07-19T18:33:06Z</time>
<extensions>
<speed>0.0</speed>
<temp>0.00</temp>
<bpm>0</bpm>
<rpm>0.00</rpm>
</extensions>
</trkpt>
<trkpt lat="64.310134888" lon="-20.306003571">
<ele>101.378906</ele>
<time>2012-07-19T18:33:11Z</time>
<extensions>
<speed>0.0</speed>
<temp>0.00</temp>
<bpm>0</bpm>
<rpm>0.00</rpm>
</extensions>
</trkpt>
<trkpt lat="64.310134888" lon="-20.306003571">
<ele>101.388672</ele>
<time>2012-07-19T18:33:16Z</time>
<speed>0.420000</speed>
<extensions>
<speed>0.4</speed>
<temp>0.00</temp>
<bpm>0</bpm>
<rpm>0.00</rpm>
</extensions>
</trkpt>
<trkpt lat="64.310119629" lon="-20.305925369">
<ele>101.958984</ele>
<time>2012-07-19T18:33:21Z</time>
<speed>0.610000</speed>
<extensions>
<speed>0.6</speed>
<temp>0.00</temp>
<bpm>0</bpm>
<rpm>0.00</rpm>
</extensions>
</trkpt>
<trkpt lat="64.310157776" lon="-20.305820465">
<ele>102.587891</ele>
<time>2012-07-19T18:33:26Z</time>
<speed>1.330000</speed>
<extensions>
<speed>1.3</speed>
<temp>0.00</temp>
<bpm>0</bpm>
<rpm>0.00</rpm>
</extensions>
</trkpt>
<trkpt lat="64.310218811" lon="-20.305744171">
<ele>102.763672</ele>
<time>2012-07-19T18:33:31Z</time>
<speed>1.460000</speed>
<extensions>
<speed>1.5</speed>
<temp>0.00</temp>
<bpm>0</bpm>
<rpm>0.00</rpm>
</extensions>
</trkpt>
<trkpt lat="64.310287476" lon="-20.305755615">
<ele>100.851563</ele>
<time>2012-07-19T18:33:36Z</time>
<speed>1.120000</speed>
<extensions>
<speed>1.1</speed>
<temp>0.00</temp>
<bpm>0</bpm>
<rpm>0.00</rpm>
</extensions>
</trkpt>
<trkpt lat="64.310340881" lon="-20.305700302">
<ele>101.275391</ele>
<time>2012-07-19T18:33:41Z</time>
<speed>1.390000</speed>
<extensions>
<speed>1.4</speed>
<temp>0.00</temp>
<bpm>0</bpm>
<rpm>0.00</rpm>
</extensions>
</trkpt>
<trkpt lat="64.310386658" lon="-20.305650711">
<ele>101.996094</ele>
<time>2012-07-19T18:33:46Z</time>
<speed>1.300000</speed>
<extensions>
<speed>1.3</speed>
<temp>0.00</temp>
<bpm>0</bpm>
<rpm>0.00</rpm>
</extensions>
</trkpt>
<trkpt lat="64.310440063" lon="-20.305576324">
<ele>102.429688</ele>
<time>2012-07-19T18:33:51Z</time>
<speed>1.440000</speed>
<extensions>
<speed>1.4</speed>
<temp>0.00</temp>
<bpm>0</bpm>
<rpm>0.00</rpm>
</extensions>
</trkpt>
<trkpt lat="64.310462952" lon="-20.305433273">
<ele>102.146484</ele>
<time>2012-07-19T18:33:56Z</time>
<speed>1.170000</speed>
<extensions>
<speed>1.2</speed>
<temp>0.00</temp>
<bpm>0</bpm>
<rpm>0.00</rpm>
</extensions>
</trkpt>
<trkpt lat="64.310501099" lon="-20.305313110">
<ele>103.074219</ele>
<time>2012-07-19T18:34:01Z</time>
<speed>1.250000</speed>
<extensions>
<speed>1.3</speed>
<temp>0.00</temp>
<bpm>0</bpm>
<rpm>0.00</rpm>
</extensions>
</trkpt>
<trkpt lat="64.310546875" lon="-20.305263519">
<ele>105.031250</ele>
<time>2012-07-19T18:34:06Z</time>
<speed>1.180000</speed>
<extensions>
<speed>1.2</speed>
<temp>0.00</temp>
<bpm>0</bpm>
<rpm>0.00</rpm>
</extensions>
</trkpt>
<trkpt lat="64.310569763" lon="-20.305248260">
<ele>105.878906</ele>
<time>2012-07-19T18:34:11Z</time>
<speed>0.180000</speed>
<extensions>
<speed>0.2</speed>
<temp>0.00</temp>
<bpm>0</bpm>
<rpm>0.00</rpm>
</extensions>
</trkpt>
<trkpt lat="64.310577393" lon="-20.305252075">
<ele>105.990234</ele>
<time>2012-07-19T18:34:16Z</time>
<speed>0.010000</speed>
<extensions>
<speed>0.0</speed>
<temp>0.00</temp>
<bpm>0</bpm>
<rpm>0.00</rpm>
</extensions>
</trkpt>
<trkpt lat="64.310585022" lon="-20.305269241">
<ele>106.320313</ele>
<time>2012-07-19T18:34:21Z</time>
<speed>0.110000</speed>
<extensions>
<speed>0.1</speed>
<temp>0.00</temp>
<bpm>0</bpm>
<rpm>0.00</rpm>
</extensions>
</trkpt>
<trkpt lat="64.310585022" lon="-20.305276871">
<ele>106.294922</ele>
<time>2012-07-19T18:34:26Z</time>
<speed>0.010000</speed>
<extensions>
<speed>0.0</speed>
<temp>0.00</temp>
<bpm>0</bpm>
<rpm>0.00</rpm>
</extensions>
</trkpt>
<trkpt lat="64.310585022" lon="-20.305276871">
<ele>106.292969</ele>
<time>2012-07-19T18:34:31Z</time>
<speed>0.020000</speed>
<extensions>
<speed>0.0</speed>
<temp>0.00</temp>
<bpm>0</bpm>
<rpm>0.00</rpm>
</extensions>
</trkpt>
<trkpt lat="64.310577393" lon="-20.305273056">
<ele>106.365234</ele>
<time>2012-07-19T18:34:36Z</time>
<speed>0.010000</speed>
<extensions>
<speed>0.0</speed>
<temp>0.00</temp>
<bpm>0</bpm>
<rpm>0.00</rpm>
</extensions>
</trkpt>
<trkpt lat="64.310577393" lon="-20.305273056">
<ele>106.375000</ele>
<time>2012-07-19T18:34:41Z</time>
<extensions>
<speed>0.0</speed>
<temp>0.00</temp>
<bpm>0</bpm>
<rpm>0.00</rpm>
</extensions>
</trkpt>
<trkpt lat="64.310585022" lon="-20.305273056">
<ele>106.365234</ele>
<time>2012-07-19T18:34:46Z</time>
<extensions>
<speed>0.0</speed>
<temp>0.00</temp>
<bpm>0</bpm>
<rpm>0.00</rpm>
</extensions>
</trkpt>
<trkpt lat="64.310585022" lon="-20.305273056">
<ele>106.367188</ele>
<time>2012-07-19T18:34:51Z</time>
<speed>0.010000</speed>
<extensions>
<speed>0.0</speed>
<temp>0.00</temp>
<bpm>0</bpm>
<rpm>0.00</rpm>
</extensions>
</trkpt>
<trkpt lat="64.310585022" lon="-20.305273056">
<ele>106.361328</ele>
<time>2012-07-19T18:34:56Z</time>
<extensions>
<speed>0.0</speed>
<temp>0.00</temp>
<bpm>0</bpm>
<rpm>0.00</rpm>
</extensions>
</trkpt>
<trkpt lat="64.310585022" lon="-20.305274963">
<ele>106.361328</ele>
<time>2012-07-19T18:35:01Z</time>
<extensions>
<speed>0.0</speed>
<temp>0.00</temp>
<bpm>0</bpm>
<rpm>0.00</rpm>
</extensions>
</trkpt>
<trkpt lat="64.310585022" lon="-20.305274963">
<ele>106.378906</ele>
<time>2012-07-19T18:35:06Z</time>
<extensions>
<speed>0.0</speed>
<temp>0.00</temp>
<bpm>0</bpm>
<rpm>0.00</rpm>
</extensions>
</trkpt>
<trkpt lat="64.310585022" lon="-20.305274963">
<ele>106.376953</ele>
<time>2012-07-19T18:35:11Z</time>
<extensions>
<speed>0.0</speed>
<temp>0.00</temp>
<bpm>0</bpm>
<rpm>0.00</rpm>
</extensions>
</trkpt>
<trkpt lat="64.310585022" lon="-20.305274963">
<ele>106.375000</ele>
<time>2012-07-19T18:35:16Z</time>
<extensions>
<speed>0.0</speed>
<temp>0.00</temp>
<bpm>0</bpm>
<rpm>0.00</rpm>
</extensions>
</trkpt>
<trkpt lat="64.310585022" lon="-20.305274963">
<ele>106.375000</ele>
<time>2012-07-19T18:35:21Z</time>
<extensions>
<speed>0.0</speed>
<temp>0.00</temp>
<bpm>0</bpm>
<rpm>0.00</rpm>
</extensions>
</trkpt>
<trkpt lat="64.310585022" lon="-20.305274963">
<ele>106.380859</ele>
<time>2012-07-19T18:35:26Z</time>
<extensions>
<speed>0.0</speed>
<temp>0.00</temp>
<bpm>0</bpm>
<rpm>0.00</rpm>
</extensions>
</trkpt>
<trkpt lat="64.310585022" lon="-20.305274963">
<ele>106.380859</ele>
<time>2012-07-19T18:35:31Z</time>
<extensions>
<speed>0.0</speed>
<temp>0.00</temp>
<bpm>0</bpm>
<rpm>0.00</rpm>
</extensions>
</trkpt>
<trkpt lat="64.310585022" lon="-20.305274963">
<ele>106.404297</ele>
<time>2012-07-19T18:35:36Z</time>
<speed>0.480000</speed>
<extensions>
<speed>0.5</speed>
<temp>0.00</temp>
<bpm>0</bpm>
<rpm>0.00</rpm>
</extensions>
</trkpt>
<trkpt lat="64.310585022" lon="-20.305282593">
<ele>106.542969</ele>
<time>2012-07-19T18:35:41Z</time>
<extensions>
<speed>0.0</speed>
<temp>0.00</temp>
<bpm>0</bpm>
<rpm>0.00</rpm>
</extensions>
</trkpt>
<trkpt lat="64.310585022" lon="-20.305282593">
<ele>106.546875</ele>
<time>2012-07-19T18:35:46Z</time>
<extensions>
<speed>0.0</speed>
<temp>0.00</temp>
<bpm>0</bpm>
<rpm>0.00</rpm>
</extensions>
</trkpt>
<trkpt lat="64.310585022" lon="-20.305282593">
<ele>106.548828</ele>
<time>2012-07-19T18:35:51Z</time>
<extensions>
<speed>0.0</speed>
<temp>0.00</temp>
<bpm>0</bpm>
<rpm>0.00</rpm>
</extensions>
</trkpt>
<trkpt lat="64.310585022" lon="-20.305284500">
<ele>106.550781</ele>
<time>2012-07-19T18:35:56Z</time>
<extensions>
<speed>0.0</speed>
<temp>0.00</temp>
<bpm>0</bpm>
<rpm>0.00</rpm>
</extensions>
</trkpt>
<trkpt lat="64.310585022" lon="-20.305284500">
<ele>106.550781</ele>
<time>2012-07-19T18:36:01Z</time>
<extensions>
<speed>0.0</speed>
<temp>0.00</temp>
<bpm>0</bpm>
<rpm>0.00</rpm>
</extensions>
</trkpt>
<trkpt lat="64.310585022" lon="-20.305284500">
<ele>106.373047</ele>
<time>2012-07-19T18:36:06Z</time>
<speed>0.050000</speed>
<extensions>
<speed>0.1</speed>
<temp>0.00</temp>
<bpm>0</bpm>
<rpm>0.00</rpm>
</extensions>
</trkpt>
<trkpt lat="64.310585022" lon="-20.305288315">
<ele>106.101563</ele>
<time>2012-07-19T18:36:11Z</time>
<speed>0.010000</speed>
<extensions>
<speed>0.0</speed>
<temp>0.00</temp>
<bpm>0</bpm>
<rpm>0.00</rpm>
</extensions>
</trkpt>
<trkpt lat="64.310585022" lon="-20.305288315">
<ele>106.111328</ele>
<time>2012-07-19T18:36:16Z</time>
<extensions>
<speed>0.0</speed>
<temp>0.00</temp>
<bpm>0</bpm>
<rpm>0.00</rpm>
</extensions>
</trkpt>
<trkpt lat="64.310592651" lon="-20.305288315">
<ele>106.500000</ele>
<time>2012-07-19T18:36:21Z</time>
<speed>0.060000</speed>
<extensions>
<speed>0.1</speed>
<temp>0.00</temp>
<bpm>0</bpm>
<rpm>0.00</rpm>
</extensions>
</trkpt>
<trkpt lat="64.310592651" lon="-20.305284500">
<ele>106.837891</ele>
<time>2012-07-19T18:36:26Z</time>
<speed>0.030000</speed>
<extensions>
<speed>0.0</speed>
<temp>0.00</temp>
<bpm>0</bpm>
<rpm>0.00</rpm>
</extensions>
</trkpt>
<trkpt lat="64.310592651" lon="-20.305284500">
<ele>106.833984</ele>
<time>2012-07-19T18:36:31Z</time>
<speed>0.300000</speed>
<extensions>
<speed>0.3</speed>
<temp>0.00</temp>
<bpm>0</bpm>
<rpm>0.00</rpm>
</extensions>
</trkpt>
<trkpt lat="64.310592651" lon="-20.305284500">
<ele>106.833984</ele>
<time>2012-07-19T18:36:36Z</time>
<extensions>
<speed>0.0</speed>
<temp>0.00</temp>
<bpm>0</bpm>
<rpm>0.00</rpm>
</extensions>
</trkpt>
<trkpt lat="64.310592651" lon="-20.305284500">
<ele>106.828125</ele>
<time>2012-07-19T18:36:41Z</time>
<extensions>
<speed>0.0</speed>
<temp>0.00</temp>
<bpm>0</bpm>
<rpm>0.00</rpm>
</extensions>
</trkpt>
<trkpt lat="64.310592651" lon="-20.305282593">
<ele>106.757813</ele>
<time>2012-07-19T18:36:46Z</time>
<speed>0.050000</speed>
<extensions>
<speed>0.1</speed>
<temp>0.00</temp>
<bpm>0</bpm>
<rpm>0.00</rpm>
</extensions>
</trkpt>
<trkpt lat="64.310592651" lon="-20.305290222">
<ele>106.228516</ele>
<time>2012-07-19T18:36:51Z</time>
<extensions>
<speed>0.0</speed>
<temp>0.00</temp>
<bpm>0</bpm>
<rpm>0.00</rpm>
</extensions>
</trkpt>
<trkpt lat="64.310592651" lon="-20.305290222">
<ele>106.212891</ele>
<time>2012-07-19T18:36:56Z</time>
<extensions>
<speed>0.0</speed>
<temp>0.00</temp>
<bpm>0</bpm>
<rpm>0.00</rpm>
</extensions>
</trkpt>
<trkpt lat="64.310592651" lon="-20.305288315">
<ele>106.265625</ele>
<time>2012-07-19T18:37:01Z</time>
<extensions>
<speed>0.0</speed>
<temp>0.00</temp>
<bpm>0</bpm>
<rpm>0.00</rpm>
</extensions>
</trkpt>
<trkpt lat="64.310592651" lon="-20.305288315">
<ele>106.250000</ele>
<time>2012-07-19T18:37:06Z</time>
<extensions>
<speed>0.0</speed>
<temp>0.00</temp>
<bpm>0</bpm>
<rpm>0.00</rpm>
</extensions>
</trkpt>
<trkpt lat="64.310592651" lon="-20.305288315">
<ele>106.234375</ele>
<time>2012-07-19T18:37:11Z</time>
<extensions>
<speed>0.0</speed>
<temp>0.00</temp>
<bpm>0</bpm>
<rpm>0.00</rpm>
</extensions>
</trkpt>
<trkpt lat="64.310592651" lon="-20.305288315">
<ele>106.228516</ele>
<time>2012-07-19T18:37:16Z</time>
<extensions>
<speed>0.0</speed>
<temp>0.00</temp>
<bpm>0</bpm>
<rpm>0.00</rpm>
</extensions>
</trkpt>
<trkpt lat="64.310592651" lon="-20.305288315">
<ele>106.222656</ele>
<time>2012-07-19T18:37:21Z</time>
<extensions>
<speed>0.0</speed>
<temp>0.00</temp>
<bpm>0</bpm>
<rpm>0.00</rpm>
</extensions>
</trkpt>
<trkpt lat="64.310592651" lon="-20.305288315">
<ele>106.228516</ele>
<time>2012-07-19T18:37:26Z</time>
<extensions>
<speed>0.0</speed>
<temp>0.00</temp>
<bpm>0</bpm>
<rpm>0.00</rpm>
</extensions>
</trkpt>
<trkpt lat="64.310592651" lon="-20.305288315">
<ele>106.226563</ele>
<time>2012-07-19T18:37:31Z</time>
<extensions>
<speed>0.0</speed>
<temp>0.00</temp>
<bpm>0</bpm>
<rpm>0.00</rpm>
</extensions>
</trkpt>
<trkpt lat="64.310592651" lon="-20.305288315">
<ele>106.220703</ele>
<time>2012-07-19T18:37:36Z</time>
<extensions>
<speed>0.0</speed>
<temp>0.00</temp>
<bpm>0</bpm>
<rpm>0.00</rpm>
</extensions>
</trkpt>
<trkpt lat="64.310592651" lon="-20.305288315">
<ele>106.220703</ele>
<time>2012-07-19T18:37:41Z</time>
<extensions>
<speed>0.0</speed>
<temp>0.00</temp>
<bpm>0</bpm>
<rpm>0.00</rpm>
</extensions>
</trkpt>
<trkpt lat="64.310592651" lon="-20.305288315">
<ele>106.224609</ele>
<time>2012-07-19T18:37:46Z</time>
<extensions>
<speed>0.0</speed>
<temp>0.00</temp>
<bpm>0</bpm>
<rpm>0.00</rpm>
</extensions>
</trkpt>
<trkpt lat="64.310592651" lon="-20.305288315">
<ele>106.228516</ele>
<time>2012-07-19T18:37:51Z</time>
<extensions>
<speed>0.0</speed>
<temp>0.00</temp>
<bpm>0</bpm>
<rpm>0.00</rpm>
</extensions>
</trkpt>
<trkpt lat="64.310592651" lon="-20.305288315">
<ele>106.234375</ele>
<time>2012-07-19T18:37:56Z</time>
<extensions>
<speed>0.0</speed>
<temp>0.00</temp>
<bpm>0</bpm>
<rpm>0.00</rpm>
</extensions>
</trkpt>
<trkpt lat="64.310592651" lon="-20.305288315">
<ele>106.251953</ele>
<time>2012-07-19T18:38:01Z</time>
<extensions>
<speed>0.0</speed>
<temp>0.00</temp>
<bpm>0</bpm>
<rpm>0.00</rpm>
</extensions>
</trkpt>
<trkpt lat="64.310592651" lon="-20.305288315">
<ele>106.263672</ele>
<time>2012-07-19T18:38:06Z</time>
<extensions>
<speed>0.0</speed>
<temp>0.00</temp>
<bpm>0</bpm>
<rpm>0.00</rpm>
</extensions>
</trkpt>
<trkpt lat="64.310592651" lon="-20.305288315">
<ele>106.267578</ele>
<time>2012-07-19T18:38:11Z</time>
<extensions>
<speed>0.0</speed>
<temp>0.00</temp>
<bpm>0</bpm>
<rpm>0.00</rpm>
</extensions>
</trkpt>
<trkpt lat="64.310592651" lon="-20.305288315">
<ele>106.273438</ele>
<time>2012-07-19T18:38:16Z</time>
<extensions>
<speed>0.0</speed>
<temp>0.00</temp>
<bpm>0</bpm>
<rpm>0.00</rpm>
</extensions>
</trkpt>
<trkpt lat="64.310592651" lon="-20.305288315">
<ele>106.283203</ele>
<time>2012-07-19T18:38:21Z</time>
<speed>0.010000</speed>
<extensions>
<speed>0.0</speed>
<temp>0.00</temp>
<bpm>0</bpm>
<rpm>0.00</rpm>
</extensions>
</trkpt>
<trkpt lat="64.310592651" lon="-20.305288315">
<ele>106.287109</ele>
<time>2012-07-19T18:38:26Z</time>
<speed>0.010000</speed>
<extensions>
<speed>0.0</speed>
<temp>0.00</temp>
<bpm>0</bpm>
<rpm>0.00</rpm>
</extensions>
</trkpt>
<trkpt lat="64.310592651" lon="-20.305288315">
<ele>106.287109</ele>
<time>2012-07-19T18:38:31Z</time>
<extensions>
<speed>0.0</speed>
<temp>0.00</temp>
<bpm>0</bpm>
<rpm>0.00</rpm>
</extensions>
</trkpt>
<trkpt lat="64.310592651" lon="-20.305288315">
<ele>106.285156</ele>
<time>2012-07-19T18:38:36Z</time>
<extensions>
<speed>0.0</speed>
<temp>0.00</temp>
<bpm>0</bpm>
<rpm>0.00</rpm>
</extensions>
</trkpt>
<trkpt lat="64.310592651" lon="-20.305288315">
<ele>106.289063</ele>
<time>2012-07-19T18:38:41Z</time>
<speed>0.390000</speed>
<extensions>
<speed>0.4</speed>
<temp>0.00</temp>
<bpm>0</bpm>
<rpm>0.00</rpm>
</extensions>
</trkpt>
<trkpt lat="64.310592651" lon="-20.305286407">
<ele>106.253906</ele>
<time>2012-07-19T18:38:46Z</time>
<extensions>
<speed>0.0</speed>
<temp>0.00</temp>
<bpm>0</bpm>
<rpm>0.00</rpm>
</extensions>
</trkpt>
<trkpt lat="64.310592651" lon="-20.305286407">
<ele>106.253906</ele>
<time>2012-07-19T18:38:51Z</time>
<extensions>
<speed>0.0</speed>
<temp>0.00</temp>
<bpm>0</bpm>
<rpm>0.00</rpm>
</extensions>
</trkpt>
<trkpt lat="64.310592651" lon="-20.305284500">
<ele>106.048828</ele>
<time>2012-07-19T18:38:56Z</time>
<speed>0.020000</speed>
<extensions>
<speed>0.0</speed>
<temp>0.00</temp>
<bpm>0</bpm>
<rpm>0.00</rpm>
</extensions>
</trkpt>
<trkpt lat="64.310592651" lon="-20.305282593">
<ele>105.589844</ele>
<time>2012-07-19T18:39:01Z</time>
<extensions>
<speed>0.0</speed>
<temp>0.00</temp>
<bpm>0</bpm>
<rpm>0.00</rpm>
</extensions>
</trkpt>
<trkpt lat="64.310592651" lon="-20.305282593">
<ele>105.583984</ele>
<time>2012-07-19T18:39:06Z</time>
<extensions>
<speed>0.0</speed>
<temp>0.00</temp>
<bpm>0</bpm>
<rpm>0.00</rpm>
</extensions>
</trkpt>
<trkpt lat="64.310592651" lon="-20.305282593">
<ele>105.566406</ele>
<time>2012-07-19T18:39:11Z</time>
<speed>0.040000</speed>
<extensions>
<speed>0.0</speed>
<temp>0.00</temp>
<bpm>0</bpm>
<rpm>0.00</rpm>
</extensions>
</trkpt>
<trkpt lat="64.310592651" lon="-20.305282593">
<ele>105.570313</ele>
<time>2012-07-19T18:39:16Z</time>
<extensions>
<speed>0.0</speed>
<temp>0.00</temp>
<bpm>0</bpm>
<rpm>0.00</rpm>
</extensions>
</trkpt>
<trkpt lat="64.310592651" lon="-20.305282593">
<ele>105.578125</ele>
<time>2012-07-19T18:39:21Z</time>
<extensions>
<speed>0.0</speed>
<temp>0.00</temp>
<bpm>0</bpm>
<rpm>0.00</rpm>
</extensions>
</trkpt>
<trkpt lat="64.310592651" lon="-20.305280685">
<ele>105.730469</ele>
<time>2012-07-19T18:39:26Z</time>
<speed>0.030000</speed>
<extensions>
<speed>0.0</speed>
<temp>0.00</temp>
<bpm>0</bpm>
<rpm>0.00</rpm>
</extensions>
</trkpt>
<trkpt lat="64.310592651" lon="-20.305282593">
<ele>105.855469</ele>
<time>2012-07-19T18:39:31Z</time>
<extensions>
<speed>0.0</speed>
<temp>0.00</temp>
<bpm>0</bpm>
<rpm>0.00</rpm>
</extensions>
</trkpt>
<trkpt lat="64.310592651" lon="-20.305282593">
<ele>105.875000</ele>
<time>2012-07-19T18:39:36Z</time>
<extensions>
<speed>0.0</speed>
<temp>0.00</temp>
<bpm>0</bpm>
<rpm>0.00</rpm>
</extensions>
</trkpt>
<trkpt lat="64.310592651" lon="-20.305282593">
<ele>105.871094</ele>
<time>2012-07-19T18:39:41Z</time>
<extensions>
<speed>0.0</speed>
<temp>0.00</temp>
<bpm>0</bpm>
<rpm>0.00</rpm>
</extensions>
</trkpt>
<trkpt lat="64.310592651" lon="-20.305282593">
<ele>105.880859</ele>
<time>2012-07-19T18:39:46Z</time>
<extensions>
<speed>0.0</speed>
<temp>0.00</temp>
<bpm>0</bpm>
<rpm>0.00</rpm>
</extensions>
</trkpt>
<trkpt lat="64.310592651" lon="-20.305282593">
<ele>105.894531</ele>
<time>2012-07-19T18:39:51Z</time>
<speed>0.010000</speed>
<extensions>
<speed>0.0</speed>
<temp>0.00</temp>
<bpm>0</bpm>
<rpm>0.00</rpm>
</extensions>
</trkpt>
<trkpt lat="64.310592651" lon="-20.305282593">
<ele>105.902344</ele>
<time>2012-07-19T18:39:56Z</time>
<extensions>
<speed>0.0</speed>
<temp>0.00</temp>
<bpm>0</bpm>
<rpm>0.00</rpm>
</extensions>
</trkpt>
<trkpt lat="64.310592651" lon="-20.305282593">
<ele>105.910156</ele>
<time>2012-07-19T18:40:01Z</time>
<extensions>
<speed>0.0</speed>
<temp>0.00</temp>
<bpm>0</bpm>
<rpm>0.00</rpm>
</extensions>
</trkpt>
<trkpt lat="64.310592651" lon="-20.305282593">
<ele>105.921875</ele>
<time>2012-07-19T18:40:06Z</time>
<extensions>
<speed>0.0</speed>
<temp>0.00</temp>
<bpm>0</bpm>
<rpm>0.00</rpm>
</extensions>
</trkpt>
<trkpt lat="64.310592651" lon="-20.305282593">
<ele>105.925781</ele>
<time>2012-07-19T18:40:11Z</time>
<extensions>
<speed>0.0</speed>
<temp>0.00</temp>
<bpm>0</bpm>
<rpm>0.00</rpm>
</extensions>
</trkpt>
<trkpt lat="64.310592651" lon="-20.305282593">
<ele>105.917969</ele>
<time>2012-07-19T18:40:16Z</time>
<extensions>
<speed>0.0</speed>
<temp>0.00</temp>
<bpm>0</bpm>
<rpm>0.00</rpm>
</extensions>
</trkpt>
<trkpt lat="64.310592651" lon="-20.305284500">
<ele>105.919922</ele>
<time>2012-07-19T18:40:21Z</time>
<extensions>
<speed>0.0</speed>
<temp>0.00</temp>
<bpm>0</bpm>
<rpm>0.00</rpm>
</extensions>
</trkpt>
<trkpt lat="64.310592651" lon="-20.305284500">
<ele>105.923828</ele>
<time>2012-07-19T18:40:26Z</time>
<speed>0.030000</speed>
<extensions>
<speed>0.0</speed>
<temp>0.00</temp>
<bpm>0</bpm>
<rpm>0.00</rpm>
</extensions>
</trkpt>
<trkpt lat="64.310592651" lon="-20.305284500">
<ele>105.921875</ele>
<time>2012-07-19T18:40:31Z</time>
<extensions>
<speed>0.0</speed>
<temp>0.00</temp>
<bpm>0</bpm>
<rpm>0.00</rpm>
</extensions>
</trkpt>
<trkpt lat="64.310592651" lon="-20.305284500">
<ele>105.923828</ele>
<time>2012-07-19T18:40:36Z</time>
<speed>0.010000</speed>
<extensions>
<speed>0.0</speed>
<temp>0.00</temp>
<bpm>0</bpm>
<rpm>0.00</rpm>
</extensions>
</trkpt>
<trkpt lat="64.310592651" lon="-20.305280685">
<ele>105.949219</ele>
<time>2012-07-19T18:40:41Z</time>
<speed>0.040000</speed>
<extensions>
<speed>0.0</speed>
<temp>0.00</temp>
<bpm>0</bpm>
<rpm>0.00</rpm>
</extensions>
</trkpt>
<trkpt lat="64.310592651" lon="-20.305276871">
<ele>106.107422</ele>
<time>2012-07-19T18:40:46Z</time>
<extensions>
<speed>0.0</speed>
<temp>0.00</temp>
<bpm>0</bpm>
<rpm>0.00</rpm>
</extensions>
</trkpt>
<trkpt lat="64.310592651" lon="-20.305276871">
<ele>106.105469</ele>
<time>2012-07-19T18:40:51Z</time>
<speed>0.010000</speed>
<extensions>
<speed>0.0</speed>
<temp>0.00</temp>
<bpm>0</bpm>
<rpm>0.00</rpm>
</extensions>
</trkpt>
<trkpt lat="64.310592651" lon="-20.305276871">
<ele>106.103516</ele>
<time>2012-07-19T18:40:56Z</time>
<extensions>
<speed>0.0</speed>
<temp>0.00</temp>
<bpm>0</bpm>
<rpm>0.00</rpm>
</extensions>
</trkpt>
<trkpt lat="64.310592651" lon="-20.305276871">
<ele>106.105469</ele>
<time>2012-07-19T18:41:01Z</time>
<extensions>
<speed>0.0</speed>
<temp>0.00</temp>
<bpm>0</bpm>
<rpm>0.00</rpm>
</extensions>
</trkpt>
<trkpt lat="64.310592651" lon="-20.305276871">
<ele>106.113281</ele>
<time>2012-07-19T18:41:06Z</time>
<extensions>
<speed>0.0</speed>
<temp>0.00</temp>
<bpm>0</bpm>
<rpm>0.00</rpm>
</extensions>
</trkpt>
<trkpt lat="64.310592651" lon="-20.305280685">
<ele>106.134766</ele>
<time>2012-07-19T18:41:11Z</time>
<extensions>
<speed>0.0</speed>
<temp>0.00</temp>
<bpm>0</bpm>
<rpm>0.00</rpm>
</extensions>
</trkpt>
<trkpt lat="64.310592651" lon="-20.305282593">
<ele>106.134766</ele>
<time>2012-07-19T18:41:16Z</time>
<extensions>
<speed>0.0</speed>
<temp>0.00</temp>
<bpm>0</bpm>
<rpm>0.00</rpm>
</extensions>
</trkpt>
<trkpt lat="64.310592651" lon="-20.305282593">
<ele>106.134766</ele>
<time>2012-07-19T18:41:21Z</time>
<extensions>
<speed>0.0</speed>
<temp>0.00</temp>
<bpm>0</bpm>
<rpm>0.00</rpm>
</extensions>
</trkpt>
<trkpt lat="64.310592651" lon="-20.305282593">
<ele>106.138672</ele>
<time>2012-07-19T18:41:26Z</time>
<extensions>
<speed>0.0</speed>
<temp>0.00</temp>
<bpm>0</bpm>
<rpm>0.00</rpm>
</extensions>
</trkpt>
<trkpt lat="64.310592651" lon="-20.305282593">
<ele>106.140625</ele>
<time>2012-07-19T18:41:31Z</time>
<extensions>
<speed>0.0</speed>
<temp>0.00</temp>
<bpm>0</bpm>
<rpm>0.00</rpm>
</extensions>
</trkpt>
<trkpt lat="64.310592651" lon="-20.305282593">
<ele>106.144531</ele>
<time>2012-07-19T18:41:36Z</time>
<extensions>
<speed>0.0</speed>
<temp>0.00</temp>
<bpm>0</bpm>
<rpm>0.00</rpm>
</extensions>
</trkpt>
<trkpt lat="64.310592651" lon="-20.305280685">
<ele>106.158203</ele>
<time>2012-07-19T18:41:41Z</time>
<speed>0.010000</speed>
<extensions>
<speed>0.0</speed>
<temp>0.00</temp>
<bpm>0</bpm>
<rpm>0.00</rpm>
</extensions>
</trkpt>
<trkpt lat="64.310592651" lon="-20.305280685">
<ele>106.162109</ele>
<time>2012-07-19T18:41:46Z</time>
<extensions>
<speed>0.0</speed>
<temp>0.00</temp>
<bpm>0</bpm>
<rpm>0.00</rpm>
</extensions>
</trkpt>
<trkpt lat="64.310592651" lon="-20.305280685">
<ele>106.171875</ele>
<time>2012-07-19T18:41:51Z</time>
<extensions>
<speed>0.0</speed>
<temp>0.00</temp>
<bpm>0</bpm>
<rpm>0.00</rpm>
</extensions>
</trkpt>
<trkpt lat="64.310592651" lon="-20.305280685">
<ele>106.177734</ele>
<time>2012-07-19T18:41:56Z</time>
<extensions>
<speed>0.0</speed>
<temp>0.00</temp>
<bpm>0</bpm>
<rpm>0.00</rpm>
</extensions>
</trkpt>
<trkpt lat="64.310592651" lon="-20.305280685">
<ele>106.189453</ele>
<time>2012-07-19T18:42:01Z</time>
<extensions>
<speed>0.0</speed>
<temp>0.00</temp>
<bpm>0</bpm>
<rpm>0.00</rpm>
</extensions>
</trkpt>
<trkpt lat="64.310592651" lon="-20.305280685">
<ele>106.197266</ele>
<time>2012-07-19T18:42:06Z</time>
<extensions>
<speed>0.0</speed>
<temp>0.00</temp>
<bpm>0</bpm>
<rpm>0.00</rpm>
</extensions>
</trkpt>
<trkpt lat="64.310592651" lon="-20.305280685">
<ele>106.207031</ele>
<time>2012-07-19T18:42:11Z</time>
<extensions>
<speed>0.0</speed>
<temp>0.00</temp>
<bpm>0</bpm>
<rpm>0.00</rpm>
</extensions>
</trkpt>
<trkpt lat="64.310592651" lon="-20.305280685">
<ele>106.212891</ele>
<time>2012-07-19T18:42:16Z</time>
<extensions>
<speed>0.0</speed>
<temp>0.00</temp>
<bpm>0</bpm>
<rpm>0.00</rpm>
</extensions>
</trkpt>
<trkpt lat="64.310592651" lon="-20.305280685">
<ele>106.218750</ele>
<time>2012-07-19T18:42:21Z</time>
<extensions>
<speed>0.0</speed>
<temp>0.00</temp>
<bpm>0</bpm>
<rpm>0.00</rpm>
</extensions>
</trkpt>
<trkpt lat="64.310592651" lon="-20.305280685">
<ele>106.222656</ele>
<time>2012-07-19T18:42:26Z</time>
<extensions>
<speed>0.0</speed>
<temp>0.00</temp>
<bpm>0</bpm>
<rpm>0.00</rpm>
</extensions>
</trkpt>
<trkpt lat="64.310592651" lon="-20.305282593">
<ele>106.230469</ele>
<time>2012-07-19T18:42:31Z</time>
<extensions>
<speed>0.0</speed>
<temp>0.00</temp>
<bpm>0</bpm>
<rpm>0.00</rpm>
</extensions>
</trkpt>
<trkpt lat="64.310592651" lon="-20.305282593">
<ele>106.234375</ele>
<time>2012-07-19T18:42:36Z</time>
<extensions>
<speed>0.0</speed>
<temp>0.00</temp>
<bpm>0</bpm>
<rpm>0.00</rpm>
</extensions>
</trkpt>
<trkpt lat="64.310592651" lon="-20.305282593">
<ele>106.236328</ele>
<time>2012-07-19T18:42:41Z</time>
<speed>0.020000</speed>
<extensions>
<speed>0.0</speed>
<temp>0.00</temp>
<bpm>0</bpm>
<rpm>0.00</rpm>
</extensions>
</trkpt>
<trkpt lat="64.310592651" lon="-20.305282593">
<ele>106.234375</ele>
<time>2012-07-19T18:42:46Z</time>
<extensions>
<speed>0.0</speed>
<temp>0.00</temp>
<bpm>0</bpm>
<rpm>0.00</rpm>
</extensions>
</trkpt>
<trkpt lat="64.310592651" lon="-20.305282593">
<ele>106.230469</ele>
<time>2012-07-19T18:42:51Z</time>
<extensions>
<speed>0.0</speed>
<temp>0.00</temp>
<bpm>0</bpm>
<rpm>0.00</rpm>
</extensions>
</trkpt>
<trkpt lat="64.310592651" lon="-20.305282593">
<ele>106.224609</ele>
<time>2012-07-19T18:42:56Z</time>
<extensions>
<speed>0.0</speed>
<temp>0.00</temp>
<bpm>0</bpm>
<rpm>0.00</rpm>
</extensions>
</trkpt>
<trkpt lat="64.310592651" lon="-20.305282593">
<ele>106.222656</ele>
<time>2012-07-19T18:43:01Z</time>
<extensions>
<speed>0.0</speed>
<temp>0.00</temp>
<bpm>0</bpm>
<rpm>0.00</rpm>
</extensions>
</trkpt>
<trkpt lat="64.310592651" lon="-20.305282593">
<ele>106.222656</ele>
<time>2012-07-19T18:43:06Z</time>
<extensions>
<speed>0.0</speed>
<temp>0.00</temp>
<bpm>0</bpm>
<rpm>0.00</rpm>
</extensions>
</trkpt>
<trkpt lat="64.310592651" lon="-20.305282593">
<ele>106.224609</ele>
<time>2012-07-19T18:43:11Z</time>
<extensions>
<speed>0.0</speed>
<temp>0.00</temp>
<bpm>0</bpm>
<rpm>0.00</rpm>
</extensions>
</trkpt>
<trkpt lat="64.310592651" lon="-20.305282593">
<ele>106.234375</ele>
<time>2012-07-19T18:43:16Z</time>
<speed>0.010000</speed>
<extensions>
<speed>0.0</speed>
<temp>0.00</temp>
<bpm>0</bpm>
<rpm>0.00</rpm>
</extensions>
</trkpt>
<trkpt lat="64.310592651" lon="-20.305282593">
<ele>106.255859</ele>
<time>2012-07-19T18:43:21Z</time>
<speed>0.010000</speed>
<extensions>
<speed>0.0</speed>
<temp>0.00</temp>
<bpm>0</bpm>
<rpm>0.00</rpm>
</extensions>
</trkpt>
<trkpt lat="64.310592651" lon="-20.305282593">
<ele>106.263672</ele>
<time>2012-07-19T18:43:26Z</time>
<extensions>
<speed>0.0</speed>
<temp>0.00</temp>
<bpm>0</bpm>
<rpm>0.00</rpm>
</extensions>
</trkpt>
<trkpt lat="64.310592651" lon="-20.305282593">
<ele>106.277344</ele>
<time>2012-07-19T18:43:31Z</time>
<extensions>
<speed>0.0</speed>
<temp>0.00</temp>
<bpm>0</bpm>
<rpm>0.00</rpm>
</extensions>
</trkpt>
<trkpt lat="64.310585022" lon="-20.305280685">
<ele>106.355469</ele>
<time>2012-07-19T18:43:36Z</time>
<speed>0.030000</speed>
<extensions>
<speed>0.0</speed>
<temp>0.00</temp>
<bpm>0</bpm>
<rpm>0.00</rpm>
</extensions>
</trkpt>
<trkpt lat="64.310585022" lon="-20.305280685">
<ele>106.363281</ele>
<time>2012-07-19T18:43:41Z</time>
<extensions>
<speed>0.0</speed>
<temp>0.00</temp>
<bpm>0</bpm>
<rpm>0.00</rpm>
</extensions>
</trkpt>
<trkpt lat="64.310585022" lon="-20.305280685">
<ele>106.365234</ele>
<time>2012-07-19T18:43:46Z</time>
<speed>0.010000</speed>
<extensions>
<speed>0.0</speed>
<temp>0.00</temp>
<bpm>0</bpm>
<rpm>0.00</rpm>
</extensions>
</trkpt>
<trkpt lat="64.310585022" lon="-20.305280685">
<ele>106.359375</ele>
<time>2012-07-19T18:43:51Z</time>
<extensions>
<speed>0.0</speed>
<temp>0.00</temp>
<bpm>0</bpm>
<rpm>0.00</rpm>
</extensions>
</trkpt>
<trkpt lat="64.310585022" lon="-20.305280685">
<ele>106.367188</ele>
<time>2012-07-19T18:43:56Z</time>
<extensions>
<speed>0.0</speed>
<temp>0.00</temp>
<bpm>0</bpm>
<rpm>0.00</rpm>
</extensions>
</trkpt>
<trkpt lat="64.310585022" lon="-20.305280685">
<ele>106.375000</ele>
<time>2012-07-19T18:44:01Z</time>
<extensions>
<speed>0.0</speed>
<temp>0.00</temp>
<bpm>0</bpm>
<rpm>0.00</rpm>
</extensions>
</trkpt>
<trkpt lat="64.310585022" lon="-20.305280685">
<ele>106.376953</ele>
<time>2012-07-19T18:44:06Z</time>
<extensions>
<speed>0.0</speed>
<temp>0.00</temp>
<bpm>0</bpm>
<rpm>0.00</rpm>
</extensions>
</trkpt>
<trkpt lat="64.310585022" lon="-20.305280685">
<ele>106.371094</ele>
<time>2012-07-19T18:44:11Z</time>
<extensions>
<speed>0.0</speed>
<temp>0.00</temp>
<bpm>0</bpm>
<rpm>0.00</rpm>
</extensions>
</trkpt>
<trkpt lat="64.310585022" lon="-20.305280685">
<ele>106.367188</ele>
<time>2012-07-19T18:44:16Z</time>
<extensions>
<speed>0.0</speed>
<temp>0.00</temp>
<bpm>0</bpm>
<rpm>0.00</rpm>
</extensions>
</trkpt>
<trkpt lat="64.310585022" lon="-20.305280685">
<ele>106.357422</ele>
<time>2012-07-19T18:44:21Z</time>
<speed>0.020000</speed>
<extensions>
<speed>0.0</speed>
<temp>0.00</temp>
<bpm>0</bpm>
<rpm>0.00</rpm>
</extensions>
</trkpt>
<trkpt lat="64.310585022" lon="-20.305282593">
<ele>106.353516</ele>
<time>2012-07-19T18:44:26Z</time>
<extensions>
<speed>0.0</speed>
<temp>0.00</temp>
<bpm>0</bpm>
<rpm>0.00</rpm>
</extensions>
</trkpt>
<trkpt lat="64.310585022" lon="-20.305282593">
<ele>106.353516</ele>
<time>2012-07-19T18:44:31Z</time>
<extensions>
<speed>0.0</speed>
<temp>0.00</temp>
<bpm>0</bpm>
<rpm>0.00</rpm>
</extensions>
</trkpt>
<trkpt lat="64.310585022" lon="-20.305282593">
<ele>106.353516</ele>
<time>2012-07-19T18:44:36Z</time>
<speed>0.010000</speed>
<extensions>
<speed>0.0</speed>
<temp>0.00</temp>
<bpm>0</bpm>
<rpm>0.00</rpm>
</extensions>
</trkpt>
<trkpt lat="64.310585022" lon="-20.305282593">
<ele>106.353516</ele>
<time>2012-07-19T18:44:41Z</time>
<extensions>
<speed>0.0</speed>
<temp>0.00</temp>
<bpm>0</bpm>
<rpm>0.00</rpm>
</extensions>
</trkpt>
<trkpt lat="64.310585022" lon="-20.305282593">
<ele>106.347656</ele>
<time>2012-07-19T18:44:46Z</time>
<extensions>
<speed>0.0</speed>
<temp>0.00</temp>
<bpm>0</bpm>
<rpm>0.00</rpm>
</extensions>
</trkpt>
<trkpt lat="64.310585022" lon="-20.305282593">
<ele>106.343750</ele>
<time>2012-07-19T18:44:51Z</time>
<extensions>
<speed>0.0</speed>
<temp>0.00</temp>
<bpm>0</bpm>
<rpm>0.00</rpm>
</extensions>
</trkpt>
<trkpt lat="64.310585022" lon="-20.305282593">
<ele>106.335938</ele>
<time>2012-07-19T18:44:56Z</time>
<extensions>
<speed>0.0</speed>
<temp>0.00</temp>
<bpm>0</bpm>
<rpm>0.00</rpm>
</extensions>
</trkpt>
<trkpt lat="64.310585022" lon="-20.305282593">
<ele>106.324219</ele>
<time>2012-07-19T18:45:01Z</time>
<extensions>
<speed>0.0</speed>
<temp>0.00</temp>
<bpm>0</bpm>
<rpm>0.00</rpm>
</extensions>
</trkpt>
<trkpt lat="64.310585022" lon="-20.305282593">
<ele>106.314453</ele>
<time>2012-07-19T18:45:06Z</time>
<speed>0.010000</speed>
<extensions>
<speed>0.0</speed>
<temp>0.00</temp>
<bpm>0</bpm>
<rpm>0.00</rpm>
</extensions>
</trkpt>
<trkpt lat="64.310585022" lon="-20.305282593">
<ele>106.318359</ele>
<time>2012-07-19T18:45:11Z</time>
<speed>0.010000</speed>
<extensions>
<speed>0.0</speed>
<temp>0.00</temp>
<bpm>0</bpm>
<rpm>0.00</rpm>
</extensions>
</trkpt>
<trkpt lat="64.310585022" lon="-20.305282593">
<ele>106.316406</ele>
<time>2012-07-19T18:45:16Z</time>
<extensions>
<speed>0.0</speed>
<temp>0.00</temp>
<bpm>0</bpm>
<rpm>0.00</rpm>
</extensions>
</trkpt>
<trkpt lat="64.310585022" lon="-20.305282593">
<ele>106.308594</ele>
<time>2012-07-19T18:45:21Z</time>
<extensions>
<speed>0.0</speed>
<temp>0.00</temp>
<bpm>0</bpm>
<rpm>0.00</rpm>
</extensions>
</trkpt>
<trkpt lat="64.310585022" lon="-20.305282593">
<ele>106.298828</ele>
<time>2012-07-19T18:45:26Z</time>
<extensions>
<speed>0.0</speed>
<temp>0.00</temp>
<bpm>0</bpm>
<rpm>0.00</rpm>
</extensions>
</trkpt>
<trkpt lat="64.310585022" lon="-20.305282593">
<ele>106.292969</ele>
<time>2012-07-19T18:45:31Z</time>
<extensions>
<speed>0.0</speed>
<temp>0.00</temp>
<bpm>0</bpm>
<rpm>0.00</rpm>
</extensions>
</trkpt>
<trkpt lat="64.310585022" lon="-20.305282593">
<ele>106.291016</ele>
<time>2012-07-19T18:45:36Z</time>
<speed>0.010000</speed>
<extensions>
<speed>0.0</speed>
<temp>0.00</temp>
<bpm>0</bpm>
<rpm>0.00</rpm>
</extensions>
</trkpt>
<trkpt lat="64.310585022" lon="-20.305284500">
<ele>106.287109</ele>
<time>2012-07-19T18:45:41Z</time>
<speed>0.010000</speed>
<extensions>
<speed>0.0</speed>
<temp>0.00</temp>
<bpm>0</bpm>
<rpm>0.00</rpm>
</extensions>
</trkpt>
<trkpt lat="64.310585022" lon="-20.305284500">
<ele>106.283203</ele>
<time>2012-07-19T18:45:46Z</time>
<extensions>
<speed>0.0</speed>
<temp>0.00</temp>
<bpm>0</bpm>
<rpm>0.00</rpm>
</extensions>
</trkpt>
<trkpt lat="64.310585022" lon="-20.305284500">
<ele>106.285156</ele>
<time>2012-07-19T18:45:51Z</time>
<extensions>
<speed>0.0</speed>
<temp>0.00</temp>
<bpm>0</bpm>
<rpm>0.00</rpm>
</extensions>
</trkpt>
<trkpt lat="64.310585022" lon="-20.305284500">
<ele>106.289063</ele>
<time>2012-07-19T18:45:56Z</time>
<speed>0.050000</speed>
<extensions>
<speed>0.1</speed>
<temp>0.00</temp>
<bpm>0</bpm>
<rpm>0.00</rpm>
</extensions>
</trkpt>
<trkpt lat="64.310585022" lon="-20.305284500">
<ele>106.296875</ele>
<time>2012-07-19T18:46:01Z</time>
<extensions>
<speed>0.0</speed>
<temp>0.00</temp>
<bpm>0</bpm>
<rpm>0.00</rpm>
</extensions>
</trkpt>
<trkpt lat="64.310585022" lon="-20.305284500">
<ele>106.294922</ele>
<time>2012-07-19T18:46:06Z</time>
<extensions>
<speed>0.0</speed>
<temp>0.00</temp>
<bpm>0</bpm>
<rpm>0.00</rpm>
</extensions>
</trkpt>
<trkpt lat="64.310585022" lon="-20.305284500">
<ele>106.292969</ele>
<time>2012-07-19T18:46:11Z</time>
<extensions>
<speed>0.0</speed>
<temp>0.00</temp>
<bpm>0</bpm>
<rpm>0.00</rpm>
</extensions>
</trkpt>
<trkpt lat="64.310585022" lon="-20.305284500">
<ele>106.296875</ele>
<time>2012-07-19T18:46:16Z</time>
<extensions>
<speed>0.0</speed>
<temp>0.00</temp>
<bpm>0</bpm>
<rpm>0.00</rpm>
</extensions>
</trkpt>
<trkpt lat="64.310585022" lon="-20.305284500">
<ele>106.302734</ele>
<time>2012-07-19T18:46:21Z</time>
<extensions>
<speed>0.0</speed>
<temp>0.00</temp>
<bpm>0</bpm>
<rpm>0.00</rpm>
</extensions>
</trkpt>
<trkpt lat="64.310585022" lon="-20.305284500">
<ele>106.296875</ele>
<time>2012-07-19T18:46:26Z</time>
<speed>0.160000</speed>
<extensions>
<speed>0.2</speed>
<temp>0.00</temp>
<bpm>0</bpm>
<rpm>0.00</rpm>
</extensions>
</trkpt>
<trkpt lat="64.310585022" lon="-20.305284500">
<ele>106.285156</ele>
<time>2012-07-19T18:46:31Z</time>
<extensions>
<speed>0.0</speed>
<temp>0.00</temp>
<bpm>0</bpm>
<rpm>0.00</rpm>
</extensions>
</trkpt>
<trkpt lat="64.310585022" lon="-20.305284500">
<ele>106.283203</ele>
<time>2012-07-19T18:46:36Z</time>
<extensions>
<speed>0.0</speed>
<temp>0.00</temp>
<bpm>0</bpm>
<rpm>0.00</rpm>
</extensions>
</trkpt>
<trkpt lat="64.310585022" lon="-20.305284500">
<ele>106.279297</ele>
<time>2012-07-19T18:46:41Z</time>
<extensions>
<speed>0.0</speed>
<temp>0.00</temp>
<bpm>0</bpm>
<rpm>0.00</rpm>
</extensions>
</trkpt>
<trkpt lat="64.310585022" lon="-20.305286407">
<ele>106.281250</ele>
<time>2012-07-19T18:46:46Z</time>
<extensions>
<speed>0.0</speed>
<temp>0.00</temp>
<bpm>0</bpm>
<rpm>0.00</rpm>
</extensions>
</trkpt>
<trkpt lat="64.310585022" lon="-20.305286407">
<ele>106.275391</ele>
<time>2012-07-19T18:46:51Z</time>
<extensions>
<speed>0.0</speed>
<temp>0.00</temp>
<bpm>0</bpm>
<rpm>0.00</rpm>
</extensions>
</trkpt>
<trkpt lat="64.310585022" lon="-20.305286407">
<ele>106.271484</ele>
<time>2012-07-19T18:46:56Z</time>
<extensions>
<speed>0.0</speed>
<temp>0.00</temp>
<bpm>0</bpm>
<rpm>0.00</rpm>
</extensions>
</trkpt>
<trkpt lat="64.310585022" lon="-20.305286407">
<ele>106.263672</ele>
<time>2012-07-19T18:47:01Z</time>
<extensions>
<speed>0.0</speed>
<temp>0.00</temp>
<bpm>0</bpm>
<rpm>0.00</rpm>
</extensions>
</trkpt>
<trkpt lat="64.310585022" lon="-20.305286407">
<ele>106.263672</ele>
<time>2012-07-19T18:47:06Z</time>
<extensions>
<speed>0.0</speed>
<temp>0.00</temp>
<bpm>0</bpm>
<rpm>0.00</rpm>
</extensions>
</trkpt>
<trkpt lat="64.310585022" lon="-20.305286407">
<ele>106.251953</ele>
<time>2012-07-19T18:47:11Z</time>
<extensions>
<speed>0.0</speed>
<temp>0.00</temp>
<bpm>0</bpm>
<rpm>0.00</rpm>
</extensions>
</trkpt>
<trkpt lat="64.310585022" lon="-20.305286407">
<ele>106.242188</ele>
<time>2012-07-19T18:47:16Z</time>
<extensions>
<speed>0.0</speed>
<temp>0.00</temp>
<bpm>0</bpm>
<rpm>0.00</rpm>
</extensions>
</trkpt>
<trkpt lat="64.310585022" lon="-20.305286407">
<ele>106.238281</ele>
<time>2012-07-19T18:47:21Z</time>
<speed>0.010000</speed>
<extensions>
<speed>0.0</speed>
<temp>0.00</temp>
<bpm>0</bpm>
<rpm>0.00</rpm>
</extensions>
</trkpt>
<trkpt lat="64.310585022" lon="-20.305286407">
<ele>106.238281</ele>
<time>2012-07-19T18:47:26Z</time>
<speed>0.010000</speed>
<extensions>
<speed>0.0</speed>
<temp>0.00</temp>
<bpm>0</bpm>
<rpm>0.00</rpm>
</extensions>
</trkpt>
<trkpt lat="64.310585022" lon="-20.305286407">
<ele>106.238281</ele>
<time>2012-07-19T18:47:31Z</time>
<extensions>
<speed>0.0</speed>
<temp>0.00</temp>
<bpm>0</bpm>
<rpm>0.00</rpm>
</extensions>
</trkpt>
<trkpt lat="64.310585022" lon="-20.305286407">
<ele>106.234375</ele>
<time>2012-07-19T18:47:36Z</time>
<speed>0.020000</speed>
<extensions>
<speed>0.0</speed>
<temp>0.00</temp>
<bpm>0</bpm>
<rpm>0.00</rpm>
</extensions>
</trkpt>
<trkpt lat="64.310585022" lon="-20.305284500">
<ele>106.250000</ele>
<time>2012-07-19T18:47:41Z</time>
<extensions>
<speed>0.0</speed>
<temp>0.00</temp>
<bpm>0</bpm>
<rpm>0.00</rpm>
</extensions>
</trkpt>
<trkpt lat="64.310585022" lon="-20.305284500">
<ele>106.240234</ele>
<time>2012-07-19T18:47:46Z</time>
<extensions>
<speed>0.0</speed>
<temp>0.00</temp>
<bpm>0</bpm>
<rpm>0.00</rpm>
</extensions>
</trkpt>
<trkpt lat="64.310585022" lon="-20.305286407">
<ele>106.232422</ele>
<time>2012-07-19T18:47:51Z</time>
<extensions>
<speed>0.0</speed>
<temp>0.00</temp>
<bpm>0</bpm>
<rpm>0.00</rpm>
</extensions>
</trkpt>
<trkpt lat="64.310585022" lon="-20.305286407">
<ele>106.224609</ele>
<time>2012-07-19T18:47:56Z</time>
<speed>0.010000</speed>
<extensions>
<speed>0.0</speed>
<temp>0.00</temp>
<bpm>0</bpm>
<rpm>0.00</rpm>
</extensions>
</trkpt>
<trkpt lat="64.310585022" lon="-20.305286407">
<ele>106.220703</ele>
<time>2012-07-19T18:48:01Z</time>
<extensions>
<speed>0.0</speed>
<temp>0.00</temp>
<bpm>0</bpm>
<rpm>0.00</rpm>
</extensions>
</trkpt>
<trkpt lat="64.310585022" lon="-20.305286407">
<ele>106.218750</ele>
<time>2012-07-19T18:48:06Z</time>
<extensions>
<speed>0.0</speed>
<temp>0.00</temp>
<bpm>0</bpm>
<rpm>0.00</rpm>
</extensions>
</trkpt>
<trkpt lat="64.310585022" lon="-20.305286407">
<ele>106.208984</ele>
<time>2012-07-19T18:48:11Z</time>
<extensions>
<speed>0.0</speed>
<temp>0.00</temp>
<bpm>0</bpm>
<rpm>0.00</rpm>
</extensions>
</trkpt>
<trkpt lat="64.310585022" lon="-20.305286407">
<ele>106.201172</ele>
<time>2012-07-19T18:48:16Z</time>
<extensions>
<speed>0.0</speed>
<temp>0.00</temp>
<bpm>0</bpm>
<rpm>0.00</rpm>
</extensions>
</trkpt>
<trkpt lat="64.310585022" lon="-20.305286407">
<ele>106.201172</ele>
<time>2012-07-19T18:48:21Z</time>
<extensions>
<speed>0.0</speed>
<temp>0.00</temp>
<bpm>0</bpm>
<rpm>0.00</rpm>
</extensions>
</trkpt>
<trkpt lat="64.310585022" lon="-20.305288315">
<ele>106.199219</ele>
<time>2012-07-19T18:48:26Z</time>
<extensions>
<speed>0.0</speed>
<temp>0.00</temp>
<bpm>0</bpm>
<rpm>0.00</rpm>
</extensions>
</trkpt>
<trkpt lat="64.310585022" lon="-20.305288315">
<ele>106.199219</ele>
<time>2012-07-19T18:48:31Z</time>
<speed>0.010000</speed>
<extensions>
<speed>0.0</speed>
<temp>0.00</temp>
<bpm>0</bpm>
<rpm>0.00</rpm>
</extensions>
</trkpt>
<trkpt lat="64.310585022" lon="-20.305288315">
<ele>106.197266</ele>
<time>2012-07-19T18:48:36Z</time>
<speed>0.010000</speed>
<extensions>
<speed>0.0</speed>
<temp>0.00</temp>
<bpm>0</bpm>
<rpm>0.00</rpm>
</extensions>
</trkpt>
<trkpt lat="64.310585022" lon="-20.305288315">
<ele>106.195313</ele>
<time>2012-07-19T18:48:41Z</time>
<extensions>
<speed>0.0</speed>
<temp>0.00</temp>
<bpm>0</bpm>
<rpm>0.00</rpm>
</extensions>
</trkpt>
<trkpt lat="64.310585022" lon="-20.305288315">
<ele>106.185547</ele>
<time>2012-07-19T18:48:46Z</time>
<extensions>
<speed>0.0</speed>
<temp>0.00</temp>
<bpm>0</bpm>
<rpm>0.00</rpm>
</extensions>
</trkpt>
<trkpt lat="64.310585022" lon="-20.305288315">
<ele>106.183594</ele>
<time>2012-07-19T18:48:51Z</time>
<extensions>
<speed>0.0</speed>
<temp>0.00</temp>
<bpm>0</bpm>
<rpm>0.00</rpm>
</extensions>
</trkpt>
<trkpt lat="64.310585022" lon="-20.305288315">
<ele>106.167969</ele>
<time>2012-07-19T18:48:56Z</time>
<extensions>
<speed>0.0</speed>
<temp>0.00</temp>
<bpm>0</bpm>
<rpm>0.00</rpm>
</extensions>
</trkpt>
<trkpt lat="64.310585022" lon="-20.305288315">
<ele>106.181641</ele>
<time>2012-07-19T18:49:01Z</time>
<extensions>
<speed>0.0</speed>
<temp>0.00</temp>
<bpm>0</bpm>
<rpm>0.00</rpm>
</extensions>
</trkpt>
<trkpt lat="64.310585022" lon="-20.305288315">
<ele>106.167969</ele>
<time>2012-07-19T18:49:06Z</time>
<speed>0.010000</speed>
<extensions>
<speed>0.0</speed>
<temp>0.00</temp>
<bpm>0</bpm>
<rpm>0.00</rpm>
</extensions>
</trkpt>
<trkpt lat="64.310585022" lon="-20.305288315">
<ele>106.158203</ele>
<time>2012-07-19T18:49:11Z</time>
<extensions>
<speed>0.0</speed>
<temp>0.00</temp>
<bpm>0</bpm>
<rpm>0.00</rpm>
</extensions>
</trkpt>
<trkpt lat="64.310585022" lon="-20.305288315">
<ele>106.158203</ele>
<time>2012-07-19T18:49:16Z</time>
<extensions>
<speed>0.0</speed>
<temp>0.00</temp>
<bpm>0</bpm>
<rpm>0.00</rpm>
</extensions>
</trkpt>
<trkpt lat="64.310585022" lon="-20.305288315">
<ele>106.167969</ele>
<time>2012-07-19T18:49:21Z</time>
<extensions>
<speed>0.0</speed>
<temp>0.00</temp>
<bpm>0</bpm>
<rpm>0.00</rpm>
</extensions>
</trkpt>
<trkpt lat="64.310585022" lon="-20.305288315">
<ele>106.177734</ele>
<time>2012-07-19T18:49:26Z</time>
<speed>0.010000</speed>
<extensions>
<speed>0.0</speed>
<temp>0.00</temp>
<bpm>0</bpm>
<rpm>0.00</rpm>
</extensions>
</trkpt>
<trkpt lat="64.310585022" lon="-20.305288315">
<ele>106.166016</ele>
<time>2012-07-19T18:49:31Z</time>
<speed>0.010000</speed>
<extensions>
<speed>0.0</speed>
<temp>0.00</temp>
<bpm>0</bpm>
<rpm>0.00</rpm>
</extensions>
</trkpt>
<trkpt lat="64.310585022" lon="-20.305288315">
<ele>106.162109</ele>
<time>2012-07-19T18:49:36Z</time>
<extensions>
<speed>0.0</speed>
<temp>0.00</temp>
<bpm>0</bpm>
<rpm>0.00</rpm>
</extensions>
</trkpt>
<trkpt lat="64.310585022" lon="-20.305288315">
<ele>106.156250</ele>
<time>2012-07-19T18:49:41Z</time>
<speed>0.010000</speed>
<extensions>
<speed>0.0</speed>
<temp>0.00</temp>
<bpm>0</bpm>
<rpm>0.00</rpm>
</extensions>
</trkpt>
<trkpt lat="64.310585022" lon="-20.305288315">
<ele>106.140625</ele>
<time>2012-07-19T18:49:46Z</time>
<speed>0.010000</speed>
<extensions>
<speed>0.0</speed>
<temp>0.00</temp>
<bpm>0</bpm>
<rpm>0.00</rpm>
</extensions>
</trkpt>
<trkpt lat="64.310585022" lon="-20.305288315">
<ele>106.142578</ele>
<time>2012-07-19T18:49:51Z</time>
<extensions>
<speed>0.0</speed>
<temp>0.00</temp>
<bpm>0</bpm>
<rpm>0.00</rpm>
</extensions>
</trkpt>
<trkpt lat="64.310585022" lon="-20.305288315">
<ele>106.138672</ele>
<time>2012-07-19T18:49:56Z</time>
<speed>0.010000</speed>
<extensions>
<speed>0.0</speed>
<temp>0.00</temp>
<bpm>0</bpm>
<rpm>0.00</rpm>
</extensions>
</trkpt>
<trkpt lat="64.310585022" lon="-20.305288315">
<ele>106.138672</ele>
<time>2012-07-19T18:50:01Z</time>
<extensions>
<speed>0.0</speed>
<temp>0.00</temp>
<bpm>0</bpm>
<rpm>0.00</rpm>
</extensions>
</trkpt>
<trkpt lat="64.310585022" lon="-20.305286407">
<ele>106.146484</ele>
<time>2012-07-19T18:50:06Z</time>
<extensions>
<speed>0.0</speed>
<temp>0.00</temp>
<bpm>0</bpm>
<rpm>0.00</rpm>
</extensions>
</trkpt>
<trkpt lat="64.310585022" lon="-20.305286407">
<ele>106.162109</ele>
<time>2012-07-19T18:50:11Z</time>
<extensions>
<speed>0.0</speed>
<temp>0.00</temp>
<bpm>0</bpm>
<rpm>0.00</rpm>
</extensions>
</trkpt>
<trkpt lat="64.310585022" lon="-20.305286407">
<ele>106.169922</ele>
<time>2012-07-19T18:50:16Z</time>
<extensions>
<speed>0.0</speed>
<temp>0.00</temp>
<bpm>0</bpm>
<rpm>0.00</rpm>
</extensions>
</trkpt>
<trkpt lat="64.310585022" lon="-20.305284500">
<ele>106.179688</ele>
<time>2012-07-19T18:50:21Z</time>
<speed>0.070000</speed>
<extensions>
<speed>0.1</speed>
<temp>0.00</temp>
<bpm>0</bpm>
<rpm>0.00</rpm>
</extensions>
</trkpt>
<trkpt lat="64.310585022" lon="-20.305284500">
<ele>106.187500</ele>
<time>2012-07-19T18:50:26Z</time>
<extensions>
<speed>0.0</speed>
<temp>0.00</temp>
<bpm>0</bpm>
<rpm>0.00</rpm>
</extensions>
</trkpt>
<trkpt lat="64.310585022" lon="-20.305284500">
<ele>106.193359</ele>
<time>2012-07-19T18:50:31Z</time>
<speed>0.010000</speed>
<extensions>
<speed>0.0</speed>
<temp>0.00</temp>
<bpm>0</bpm>
<rpm>0.00</rpm>
</extensions>
</trkpt>
<trkpt lat="64.310585022" lon="-20.305284500">
<ele>106.220703</ele>
<time>2012-07-19T18:50:36Z</time>
<extensions>
<speed>0.0</speed>
<temp>0.00</temp>
<bpm>0</bpm>
<rpm>0.00</rpm>
</extensions>
</trkpt>
<trkpt lat="64.310585022" lon="-20.305284500">
<ele>106.234375</ele>
<time>2012-07-19T18:50:41Z</time>
<speed>0.010000</speed>
<extensions>
<speed>0.0</speed>
<temp>0.00</temp>
<bpm>0</bpm>
<rpm>0.00</rpm>
</extensions>
</trkpt>
<trkpt lat="64.310585022" lon="-20.305284500">
<ele>106.218750</ele>
<time>2012-07-19T18:50:46Z</time>
<speed>0.010000</speed>
<extensions>
<speed>0.0</speed>
<temp>0.00</temp>
<bpm>0</bpm>
<rpm>0.00</rpm>
</extensions>
</trkpt>
<trkpt lat="64.310585022" lon="-20.305284500">
<ele>106.212891</ele>
<time>2012-07-19T18:50:51Z</time>
<extensions>
<speed>0.0</speed>
<temp>0.00</temp>
<bpm>0</bpm>
<rpm>0.00</rpm>
</extensions>
</trkpt>
<trkpt lat="64.310585022" lon="-20.305284500">
<ele>106.183594</ele>
<time>2012-07-19T18:50:56Z</time>
<extensions>
<speed>0.0</speed>
<temp>0.00</temp>
<bpm>0</bpm>
<rpm>0.00</rpm>
</extensions>
</trkpt>
<trkpt lat="64.310585022" lon="-20.305284500">
<ele>106.166016</ele>
<time>2012-07-19T18:51:01Z</time>
<speed>0.100000</speed>
<extensions>
<speed>0.1</speed>
<temp>0.00</temp>
<bpm>0</bpm>
<rpm>0.00</rpm>
</extensions>
</trkpt>
<trkpt lat="64.310585022" lon="-20.305284500">
<ele>106.146484</ele>
<time>2012-07-19T18:51:06Z</time>
<extensions>
<speed>0.0</speed>
<temp>0.00</temp>
<bpm>0</bpm>
<rpm>0.00</rpm>
</extensions>
</trkpt>
<trkpt lat="64.310585022" lon="-20.305284500">
<ele>106.123047</ele>
<time>2012-07-19T18:51:11Z</time>
<speed>0.010000</speed>
<extensions>
<speed>0.0</speed>
<temp>0.00</temp>
<bpm>0</bpm>
<rpm>0.00</rpm>
</extensions>
</trkpt>
<trkpt lat="64.310585022" lon="-20.305284500">
<ele>106.095703</ele>
<time>2012-07-19T18:51:16Z</time>
<speed>0.040000</speed>
<extensions>
<speed>0.0</speed>
<temp>0.00</temp>
<bpm>0</bpm>
<rpm>0.00</rpm>
</extensions>
</trkpt>
<trkpt lat="64.310585022" lon="-20.305284500">
<ele>106.074219</ele>
<time>2012-07-19T18:51:21Z</time>
<extensions>
<speed>0.0</speed>
<temp>0.00</temp>
<bpm>0</bpm>
<rpm>0.00</rpm>
</extensions>
</trkpt>
<trkpt lat="64.310585022" lon="-20.305284500">
<ele>106.062500</ele>
<time>2012-07-19T18:51:26Z</time>
<speed>0.010000</speed>
<extensions>
<speed>0.0</speed>
<temp>0.00</temp>
<bpm>0</bpm>
<rpm>0.00</rpm>
</extensions>
</trkpt>
<trkpt lat="64.310585022" lon="-20.305284500">
<ele>106.050781</ele>
<time>2012-07-19T18:51:31Z</time>
<speed>0.010000</speed>
<extensions>
<speed>0.0</speed>
<temp>0.00</temp>
<bpm>0</bpm>
<rpm>0.00</rpm>
</extensions>
</trkpt>
<trkpt lat="64.310585022" lon="-20.305284500">
<ele>106.042969</ele>
<time>2012-07-19T18:51:36Z</time>
<extensions>
<speed>0.0</speed>
<temp>0.00</temp>
<bpm>0</bpm>
<rpm>0.00</rpm>
</extensions>
</trkpt>
<trkpt lat="64.310585022" lon="-20.305284500">
<ele>106.019531</ele>
<time>2012-07-19T18:51:41Z</time>
<speed>0.020000</speed>
<extensions>
<speed>0.0</speed>
<temp>0.00</temp>
<bpm>0</bpm>
<rpm>0.00</rpm>
</extensions>
</trkpt>
<trkpt lat="64.310585022" lon="-20.305284500">
<ele>106.009766</ele>
<time>2012-07-19T18:51:46Z</time>
<extensions>
<speed>0.0</speed>
<temp>0.00</temp>
<bpm>0</bpm>
<rpm>0.00</rpm>
</extensions>
</trkpt>
<trkpt lat="64.310585022" lon="-20.305284500">
<ele>106.009766</ele>
<time>2012-07-19T18:51:51Z</time>
<extensions>
<speed>0.0</speed>
<temp>0.00</temp>
<bpm>0</bpm>
<rpm>0.00</rpm>
</extensions>
</trkpt>
<trkpt lat="64.310585022" lon="-20.305284500">
<ele>106.009766</ele>
<time>2012-07-19T18:51:56Z</time>
<extensions>
<speed>0.0</speed>
<temp>0.00</temp>
<bpm>0</bpm>
<rpm>0.00</rpm>
</extensions>
</trkpt>
<trkpt lat="64.310585022" lon="-20.305286407">
<ele>106.011719</ele>
<time>2012-07-19T18:52:01Z</time>
<extensions>
<speed>0.0</speed>
<temp>0.00</temp>
<bpm>0</bpm>
<rpm>0.00</rpm>
</extensions>
</trkpt>
<trkpt lat="64.310585022" lon="-20.305286407">
<ele>106.017578</ele>
<time>2012-07-19T18:52:06Z</time>
<speed>0.010000</speed>
<extensions>
<speed>0.0</speed>
<temp>0.00</temp>
<bpm>0</bpm>
<rpm>0.00</rpm>
</extensions>
</trkpt>
<trkpt lat="64.310585022" lon="-20.305286407">
<ele>106.013672</ele>
<time>2012-07-19T18:52:11Z</time>
<extensions>
<speed>0.0</speed>
<temp>0.00</temp>
<bpm>0</bpm>
<rpm>0.00</rpm>
</extensions>
</trkpt>
<trkpt lat="64.310585022" lon="-20.305286407">
<ele>106.007813</ele>
<time>2012-07-19T18:52:16Z</time>
<extensions>
<speed>0.0</speed>
<temp>0.00</temp>
<bpm>0</bpm>
<rpm>0.00</rpm>
</extensions>
</trkpt>
<trkpt lat="64.310585022" lon="-20.305286407">
<ele>106.005859</ele>
<time>2012-07-19T18:52:21Z</time>
<speed>0.010000</speed>
<extensions>
<speed>0.0</speed>
<temp>0.00</temp>
<bpm>0</bpm>
<rpm>0.00</rpm>
</extensions>
</trkpt>
<trkpt lat="64.310585022" lon="-20.305286407">
<ele>106.005859</ele>
<time>2012-07-19T18:52:26Z</time>
<speed>0.010000</speed>
<extensions>
<speed>0.0</speed>
<temp>0.00</temp>
<bpm>0</bpm>
<rpm>0.00</rpm>
</extensions>
</trkpt>
<trkpt lat="64.310585022" lon="-20.305286407">
<ele>106.003906</ele>
<time>2012-07-19T18:52:31Z</time>
<speed>0.010000</speed>
<extensions>
<speed>0.0</speed>
<temp>0.00</temp>
<bpm>0</bpm>
<rpm>0.00</rpm>
</extensions>
</trkpt>
<trkpt lat="64.310585022" lon="-20.305286407">
<ele>106.007813</ele>
<time>2012-07-19T18:52:36Z</time>
<extensions>
<speed>0.0</speed>
<temp>0.00</temp>
<bpm>0</bpm>
<rpm>0.00</rpm>
</extensions>
</trkpt>
<trkpt lat="64.310585022" lon="-20.305286407">
<ele>106.013672</ele>
<time>2012-07-19T18:52:41Z</time>
<extensions>
<speed>0.0</speed>
<temp>0.00</temp>
<bpm>0</bpm>
<rpm>0.00</rpm>
</extensions>
</trkpt>
<trkpt lat="64.310585022" lon="-20.305286407">
<ele>106.019531</ele>
<time>2012-07-19T18:52:46Z</time>
<speed>0.010000</speed>
<extensions>
<speed>0.0</speed>
<temp>0.00</temp>
<bpm>0</bpm>
<rpm>0.00</rpm>
</extensions>
</trkpt>
<trkpt lat="64.310585022" lon="-20.305288315">
<ele>106.021484</ele>
<time>2012-07-19T18:52:51Z</time>
<extensions>
<speed>0.0</speed>
<temp>0.00</temp>
<bpm>0</bpm>
<rpm>0.00</rpm>
</extensions>
</trkpt>
<trkpt lat="64.310585022" lon="-20.305288315">
<ele>106.025391</ele>
<time>2012-07-19T18:52:56Z</time>
<extensions>
<speed>0.0</speed>
<temp>0.00</temp>
<bpm>0</bpm>
<rpm>0.00</rpm>
</extensions>
</trkpt>
<trkpt lat="64.310585022" lon="-20.305288315">
<ele>106.027344</ele>
<time>2012-07-19T18:53:01Z</time>
<speed>0.010000</speed>
<extensions>
<speed>0.0</speed>
<temp>0.00</temp>
<bpm>0</bpm>
<rpm>0.00</rpm>
</extensions>
</trkpt>
<trkpt lat="64.310585022" lon="-20.305288315">
<ele>106.056641</ele>
<time>2012-07-19T18:53:06Z</time>
<speed>0.030000</speed>
<extensions>
<speed>0.0</speed>
<temp>0.00</temp>
<bpm>0</bpm>
<rpm>0.00</rpm>
</extensions>
</trkpt>
<trkpt lat="64.310585022" lon="-20.305290222">
<ele>106.064453</ele>
<time>2012-07-19T18:53:11Z</time>
<extensions>
<speed>0.0</speed>
<temp>0.00</temp>
<bpm>0</bpm>
<rpm>0.00</rpm>
</extensions>
</trkpt>
<trkpt lat="64.310585022" lon="-20.305290222">
<ele>106.076172</ele>
<time>2012-07-19T18:53:16Z</time>
<speed>0.010000</speed>
<extensions>
<speed>0.0</speed>
<temp>0.00</temp>
<bpm>0</bpm>
<rpm>0.00</rpm>
</extensions>
</trkpt>
<trkpt lat="64.310585022" lon="-20.305290222">
<ele>106.083984</ele>
<time>2012-07-19T18:53:21Z</time>
<extensions>
<speed>0.0</speed>
<temp>0.00</temp>
<bpm>0</bpm>
<rpm>0.00</rpm>
</extensions>
</trkpt>
<trkpt lat="64.310585022" lon="-20.305290222">
<ele>106.091797</ele>
<time>2012-07-19T18:53:26Z</time>
<speed>0.010000</speed>
<extensions>
<speed>0.0</speed>
<temp>0.00</temp>
<bpm>0</bpm>
<rpm>0.00</rpm>
</extensions>
</trkpt>
<trkpt lat="64.310585022" lon="-20.305290222">
<ele>106.101563</ele>
<time>2012-07-19T18:53:31Z</time>
<extensions>
<speed>0.0</speed>
<temp>0.00</temp>
<bpm>0</bpm>
<rpm>0.00</rpm>
</extensions>
</trkpt>
<trkpt lat="64.310585022" lon="-20.305290222">
<ele>106.091797</ele>
<time>2012-07-19T18:53:36Z</time>
<extensions>
<speed>0.0</speed>
<temp>0.00</temp>
<bpm>0</bpm>
<rpm>0.00</rpm>
</extensions>
</trkpt>
<trkpt lat="64.310585022" lon="-20.305290222">
<ele>106.085938</ele>
<time>2012-07-19T18:53:41Z</time>
<extensions>
<speed>0.0</speed>
<temp>0.00</temp>
<bpm>0</bpm>
<rpm>0.00</rpm>
</extensions>
</trkpt>
<trkpt lat="64.310585022" lon="-20.305290222">
<ele>106.060547</ele>
<time>2012-07-19T18:53:46Z</time>
<extensions>
<speed>0.0</speed>
<temp>0.00</temp>
<bpm>0</bpm>
<rpm>0.00</rpm>
</extensions>
</trkpt>
<trkpt lat="64.310585022" lon="-20.305297852">
<ele>105.843750</ele>
<time>2012-07-19T18:53:51Z</time>
<extensions>
<speed>0.0</speed>
<temp>0.00</temp>
<bpm>0</bpm>
<rpm>0.00</rpm>
</extensions>
</trkpt>
<trkpt lat="64.310585022" lon="-20.305295944">
<ele>105.855469</ele>
<time>2012-07-19T18:53:56Z</time>
<extensions>
<speed>0.0</speed>
<temp>0.00</temp>
<bpm>0</bpm>
<rpm>0.00</rpm>
</extensions>
</trkpt>
<trkpt lat="64.310585022" lon="-20.305295944">
<ele>105.853516</ele>
<time>2012-07-19T18:54:01Z</time>
<extensions>
<speed>0.0</speed>
<temp>0.00</temp>
<bpm>0</bpm>
<rpm>0.00</rpm>
</extensions>
</trkpt>
<trkpt lat="64.310585022" lon="-20.305295944">
<ele>105.855469</ele>
<time>2012-07-19T18:54:06Z</time>
<extensions>
<speed>0.0</speed>
<temp>0.00</temp>
<bpm>0</bpm>
<rpm>0.00</rpm>
</extensions>
</trkpt>
<trkpt lat="64.310585022" lon="-20.305295944">
<ele>105.851563</ele>
<time>2012-07-19T18:54:11Z</time>
<extensions>
<speed>0.0</speed>
<temp>0.00</temp>
<bpm>0</bpm>
<rpm>0.00</rpm>
</extensions>
</trkpt>
<trkpt lat="64.310585022" lon="-20.305297852">
<ele>105.851563</ele>
<time>2012-07-19T18:54:16Z</time>
<extensions>
<speed>0.0</speed>
<temp>0.00</temp>
<bpm>0</bpm>
<rpm>0.00</rpm>
</extensions>
</trkpt>
<trkpt lat="64.310585022" lon="-20.305297852">
<ele>105.851563</ele>
<time>2012-07-19T18:54:21Z</time>
<speed>0.010000</speed>
<extensions>
<speed>0.0</speed>
<temp>0.00</temp>
<bpm>0</bpm>
<rpm>0.00</rpm>
</extensions>
</trkpt>
<trkpt lat="64.310585022" lon="-20.305297852">
<ele>105.855469</ele>
<time>2012-07-19T18:54:26Z</time>
<extensions>
<speed>0.0</speed>
<temp>0.00</temp>
<bpm>0</bpm>
<rpm>0.00</rpm>
</extensions>
</trkpt>
<trkpt lat="64.310585022" lon="-20.305297852">
<ele>105.857422</ele>
<time>2012-07-19T18:54:31Z</time>
<extensions>
<speed>0.0</speed>
<temp>0.00</temp>
<bpm>0</bpm>
<rpm>0.00</rpm>
</extensions>
</trkpt>
<trkpt lat="64.310585022" lon="-20.305297852">
<ele>105.861328</ele>
<time>2012-07-19T18:54:36Z</time>
<speed>0.010000</speed>
<extensions>
<speed>0.0</speed>
<temp>0.00</temp>
<bpm>0</bpm>
<rpm>0.00</rpm>
</extensions>
</trkpt>
<trkpt lat="64.310585022" lon="-20.305297852">
<ele>105.861328</ele>
<time>2012-07-19T18:54:41Z</time>
<extensions>
<speed>0.0</speed>
<temp>0.00</temp>
<bpm>0</bpm>
<rpm>0.00</rpm>
</extensions>
</trkpt>
<trkpt lat="64.310585022" lon="-20.305297852">
<ele>105.851563</ele>
<time>2012-07-19T18:54:46Z</time>
<extensions>
<speed>0.0</speed>
<temp>0.00</temp>
<bpm>0</bpm>
<rpm>0.00</rpm>
</extensions>
</trkpt>
<trkpt lat="64.310585022" lon="-20.305297852">
<ele>105.839844</ele>
<time>2012-07-19T18:54:51Z</time>
<extensions>
<speed>0.0</speed>
<temp>0.00</temp>
<bpm>0</bpm>
<rpm>0.00</rpm>
</extensions>
</trkpt>
<trkpt lat="64.310585022" lon="-20.305297852">
<ele>105.837891</ele>
<time>2012-07-19T18:54:56Z</time>
<extensions>
<speed>0.0</speed>
<temp>0.00</temp>
<bpm>0</bpm>
<rpm>0.00</rpm>
</extensions>
</trkpt>
<trkpt lat="64.310585022" lon="-20.305297852">
<ele>105.847656</ele>
<time>2012-07-19T18:55:01Z</time>
<speed>0.010000</speed>
<extensions>
<speed>0.0</speed>
<temp>0.00</temp>
<bpm>0</bpm>
<rpm>0.00</rpm>
</extensions>
</trkpt>
<trkpt lat="64.310585022" lon="-20.305297852">
<ele>105.853516</ele>
<time>2012-07-19T18:55:06Z</time>
<extensions>
<speed>0.0</speed>
<temp>0.00</temp>
<bpm>0</bpm>
<rpm>0.00</rpm>
</extensions>
</trkpt>
<trkpt lat="64.310585022" lon="-20.305297852">
<ele>105.863281</ele>
<time>2012-07-19T18:55:11Z</time>
<extensions>
<speed>0.0</speed>
<temp>0.00</temp>
<bpm>0</bpm>
<rpm>0.00</rpm>
</extensions>
</trkpt>
<trkpt lat="64.310585022" lon="-20.305297852">
<ele>105.865234</ele>
<time>2012-07-19T18:55:16Z</time>
<speed>0.040000</speed>
<extensions>
<speed>0.0</speed>
<temp>0.00</temp>
<bpm>0</bpm>
<rpm>0.00</rpm>
</extensions>
</trkpt>
<trkpt lat="64.310585022" lon="-20.305297852">
<ele>105.865234</ele>
<time>2012-07-19T18:55:21Z</time>
<speed>0.010000</speed>
<extensions>
<speed>0.0</speed>
<temp>0.00</temp>
<bpm>0</bpm>
<rpm>0.00</rpm>
</extensions>
</trkpt>
<trkpt lat="64.310585022" lon="-20.305297852">
<ele>105.863281</ele>
<time>2012-07-19T18:55:26Z</time>
<speed>0.010000</speed>
<extensions>
<speed>0.0</speed>
<temp>0.00</temp>
<bpm>0</bpm>
<rpm>0.00</rpm>
</extensions>
</trkpt>
<trkpt lat="64.310585022" lon="-20.305297852">
<ele>105.859375</ele>
<time>2012-07-19T18:55:31Z</time>
<speed>0.020000</speed>
<extensions>
<speed>0.0</speed>
<temp>0.00</temp>
<bpm>0</bpm>
<rpm>0.00</rpm>
</extensions>
</trkpt>
<trkpt lat="64.310585022" lon="-20.305297852">
<ele>105.861328</ele>
<time>2012-07-19T18:55:36Z</time>
<speed>0.060000</speed>
<extensions>
<speed>0.1</speed>
<temp>0.00</temp>
<bpm>0</bpm>
<rpm>0.00</rpm>
</extensions>
</trkpt>
<trkpt lat="64.310592651" lon="-20.305294037">
<ele>106.001953</ele>
<time>2012-07-19T18:55:41Z</time>
<speed>0.090000</speed>
<extensions>
<speed>0.1</speed>
<temp>0.00</temp>
<bpm>0</bpm>
<rpm>0.00</rpm>
</extensions>
</trkpt>
<trkpt lat="64.310592651" lon="-20.305288315">
<ele>105.972656</ele>
<time>2012-07-19T18:55:46Z</time>
<extensions>
<speed>0.0</speed>
<temp>0.00</temp>
<bpm>0</bpm>
<rpm>0.00</rpm>
</extensions>
</trkpt>
<trkpt lat="64.310592651" lon="-20.305288315">
<ele>105.964844</ele>
<time>2012-07-19T18:55:51Z</time>
<speed>0.010000</speed>
<extensions>
<speed>0.0</speed>
<temp>0.00</temp>
<bpm>0</bpm>
<rpm>0.00</rpm>
</extensions>
</trkpt>
<trkpt lat="64.310592651" lon="-20.305288315">
<ele>105.953125</ele>
<time>2012-07-19T18:55:56Z</time>
<speed>0.010000</speed>
<extensions>
<speed>0.0</speed>
<temp>0.00</temp>
<bpm>0</bpm>
<rpm>0.00</rpm>
</extensions>
</trkpt>
<trkpt lat="64.310592651" lon="-20.305288315">
<ele>105.945313</ele>
<time>2012-07-19T18:56:01Z</time>
<speed>0.010000</speed>
<extensions>
<speed>0.0</speed>
<temp>0.00</temp>
<bpm>0</bpm>
<rpm>0.00</rpm>
</extensions>
</trkpt>
<trkpt lat="64.310592651" lon="-20.305288315">
<ele>105.941406</ele>
<time>2012-07-19T18:56:06Z</time>
<speed>0.010000</speed>
<extensions>
<speed>0.0</speed>
<temp>0.00</temp>
<bpm>0</bpm>
<rpm>0.00</rpm>
</extensions>
</trkpt>
<trkpt lat="64.310592651" lon="-20.305288315">
<ele>105.931641</ele>
<time>2012-07-19T18:56:11Z</time>
<extensions>
<speed>0.0</speed>
<temp>0.00</temp>
<bpm>0</bpm>
<rpm>0.00</rpm>
</extensions>
</trkpt>
<trkpt lat="64.310592651" lon="-20.305288315">
<ele>105.919922</ele>
<time>2012-07-19T18:56:16Z</time>
<extensions>
<speed>0.0</speed>
<temp>0.00</temp>
<bpm>0</bpm>
<rpm>0.00</rpm>
</extensions>
</trkpt>
<trkpt lat="64.310592651" lon="-20.305290222">
<ele>105.910156</ele>
<time>2012-07-19T18:56:21Z</time>
<extensions>
<speed>0.0</speed>
<temp>0.00</temp>
<bpm>0</bpm>
<rpm>0.00</rpm>
</extensions>
</trkpt>
<trkpt lat="64.310592651" lon="-20.305290222">
<ele>105.894531</ele>
<time>2012-07-19T18:56:26Z</time>
<speed>0.010000</speed>
<extensions>
<speed>0.0</speed>
<temp>0.00</temp>
<bpm>0</bpm>
<rpm>0.00</rpm>
</extensions>
</trkpt>
<trkpt lat="64.310592651" lon="-20.305290222">
<ele>105.880859</ele>
<time>2012-07-19T18:56:31Z</time>
<extensions>
<speed>0.0</speed>
<temp>0.00</temp>
<bpm>0</bpm>
<rpm>0.00</rpm>
</extensions>
</trkpt>
<trkpt lat="64.310592651" lon="-20.305290222">
<ele>105.871094</ele>
<time>2012-07-19T18:56:36Z</time>
<extensions>
<speed>0.0</speed>
<temp>0.00</temp>
<bpm>0</bpm>
<rpm>0.00</rpm>
</extensions>
</trkpt>
<trkpt lat="64.310592651" lon="-20.305290222">
<ele>105.867188</ele>
<time>2012-07-19T18:56:41Z</time>
<speed>0.010000</speed>
<extensions>
<speed>0.0</speed>
<temp>0.00</temp>
<bpm>0</bpm>
<rpm>0.00</rpm>
</extensions>
</trkpt>
<trkpt lat="64.310592651" lon="-20.305290222">
<ele>105.867188</ele>
<time>2012-07-19T18:56:46Z</time>
<extensions>
<speed>0.0</speed>
<temp>0.00</temp>
<bpm>0</bpm>
<rpm>0.00</rpm>
</extensions>
</trkpt>
<trkpt lat="64.310592651" lon="-20.305290222">
<ele>105.871094</ele>
<time>2012-07-19T18:56:51Z</time>
<extensions>
<speed>0.0</speed>
<temp>0.00</temp>
<bpm>0</bpm>
<rpm>0.00</rpm>
</extensions>
</trkpt>
<trkpt lat="64.310592651" lon="-20.305292130">
<ele>105.871094</ele>
<time>2012-07-19T18:56:56Z</time>
<extensions>
<speed>0.0</speed>
<temp>0.00</temp>
<bpm>0</bpm>
<rpm>0.00</rpm>
</extensions>
</trkpt>
<trkpt lat="64.310592651" lon="-20.305292130">
<ele>105.867188</ele>
<time>2012-07-19T18:57:01Z</time>
<speed>0.010000</speed>
<extensions>
<speed>0.0</speed>
<temp>0.00</temp>
<bpm>0</bpm>
<rpm>0.00</rpm>
</extensions>
</trkpt>
<trkpt lat="64.310592651" lon="-20.305292130">
<ele>105.869141</ele>
<time>2012-07-19T18:57:06Z</time>
<extensions>
<speed>0.0</speed>
<temp>0.00</temp>
<bpm>0</bpm>
<rpm>0.00</rpm>
</extensions>
</trkpt>
<trkpt lat="64.310592651" lon="-20.305292130">
<ele>105.867188</ele>
<time>2012-07-19T18:57:11Z</time>
<extensions>
<speed>0.0</speed>
<temp>0.00</temp>
<bpm>0</bpm>
<rpm>0.00</rpm>
</extensions>
</trkpt>
<trkpt lat="64.310592651" lon="-20.305292130">
<ele>105.865234</ele>
<time>2012-07-19T18:57:16Z</time>
<speed>0.080000</speed>
<extensions>
<speed>0.1</speed>
<temp>0.00</temp>
<bpm>0</bpm>
<rpm>0.00</rpm>
</extensions>
</trkpt>
<trkpt lat="64.310592651" lon="-20.305292130">
<ele>105.869141</ele>
<time>2012-07-19T18:57:21Z</time>
<extensions>
<speed>0.0</speed>
<temp>0.00</temp>
<bpm>0</bpm>
<rpm>0.00</rpm>
</extensions>
</trkpt>
<trkpt lat="64.310592651" lon="-20.305292130">
<ele>105.865234</ele>
<time>2012-07-19T18:57:26Z</time>
<speed>0.010000</speed>
<extensions>
<speed>0.0</speed>
<temp>0.00</temp>
<bpm>0</bpm>
<rpm>0.00</rpm>
</extensions>
</trkpt>
<trkpt lat="64.310592651" lon="-20.305294037">
<ele>105.861328</ele>
<time>2012-07-19T18:57:31Z</time>
<speed>0.040000</speed>
<extensions>
<speed>0.0</speed>
<temp>0.00</temp>
<bpm>0</bpm>
<rpm>0.00</rpm>
</extensions>
</trkpt>
<trkpt lat="64.310585022" lon="-20.305316925">
<ele>105.835938</ele>
<time>2012-07-19T18:57:36Z</time>
<speed>1.100000</speed>
<extensions>
<speed>1.1</speed>
<temp>0.00</temp>
<bpm>0</bpm>
<rpm>0.00</rpm>
</extensions>
</trkpt>
<trkpt lat="64.310585022" lon="-20.305324554">
<ele>105.636719</ele>
<time>2012-07-19T18:57:41Z</time>
<speed>0.180000</speed>
<extensions>
<speed>0.2</speed>
<temp>0.00</temp>
<bpm>0</bpm>
<rpm>0.00</rpm>
</extensions>
</trkpt>
<trkpt lat="64.310585022" lon="-20.305320740">
<ele>105.816406</ele>
<time>2012-07-19T18:57:46Z</time>
<speed>0.050000</speed>
<extensions>
<speed>0.1</speed>
<temp>0.00</temp>
<bpm>0</bpm>
<rpm>0.00</rpm>
</extensions>
</trkpt>
<trkpt lat="64.310585022" lon="-20.305320740">
<ele>105.818359</ele>
<time>2012-07-19T18:57:51Z</time>
<speed>0.010000</speed>
<extensions>
<speed>0.0</speed>
<temp>0.00</temp>
<bpm>0</bpm>
<rpm>0.00</rpm>
</extensions>
</trkpt>
<trkpt lat="64.310585022" lon="-20.305320740">
<ele>105.832031</ele>
<time>2012-07-19T18:57:56Z</time>
<extensions>
<speed>0.0</speed>
<temp>0.00</temp>
<bpm>0</bpm>
<rpm>0.00</rpm>
</extensions>
</trkpt>
<trkpt lat="64.310585022" lon="-20.305320740">
<ele>105.845703</ele>
<time>2012-07-19T18:58:01Z</time>
<extensions>
<speed>0.0</speed>
<temp>0.00</temp>
<bpm>0</bpm>
<rpm>0.00</rpm>
</extensions>
</trkpt>
<trkpt lat="64.310585022" lon="-20.305320740">
<ele>105.855469</ele>
<time>2012-07-19T18:58:06Z</time>
<extensions>
<speed>0.0</speed>
<temp>0.00</temp>
<bpm>0</bpm>
<rpm>0.00</rpm>
</extensions>
</trkpt>
<trkpt lat="64.310585022" lon="-20.305320740">
<ele>105.869141</ele>
<time>2012-07-19T18:58:11Z</time>
<speed>0.010000</speed>
<extensions>
<speed>0.0</speed>
<temp>0.00</temp>
<bpm>0</bpm>
<rpm>0.00</rpm>
</extensions>
</trkpt>
<trkpt lat="64.310585022" lon="-20.305322647">
<ele>105.880859</ele>
<time>2012-07-19T18:58:16Z</time>
<extensions>
<speed>0.0</speed>
<temp>0.00</temp>
<bpm>0</bpm>
<rpm>0.00</rpm>
</extensions>
</trkpt>
<trkpt lat="64.310585022" lon="-20.305322647">
<ele>105.896484</ele>
<time>2012-07-19T18:58:21Z</time>
<extensions>
<speed>0.0</speed>
<temp>0.00</temp>
<bpm>0</bpm>
<rpm>0.00</rpm>
</extensions>
</trkpt>
<trkpt lat="64.310585022" lon="-20.305322647">
<ele>105.908203</ele>
<time>2012-07-19T18:58:26Z</time>
<extensions>
<speed>0.0</speed>
<temp>0.00</temp>
<bpm>0</bpm>
<rpm>0.00</rpm>
</extensions>
</trkpt>
<trkpt lat="64.310585022" lon="-20.305322647">
<ele>105.921875</ele>
<time>2012-07-19T18:58:31Z</time>
<extensions>
<speed>0.0</speed>
<temp>0.00</temp>
<bpm>0</bpm>
<rpm>0.00</rpm>
</extensions>
</trkpt>
<trkpt lat="64.310585022" lon="-20.305322647">
<ele>105.919922</ele>
<time>2012-07-19T18:58:36Z</time>
<extensions>
<speed>0.0</speed>
<temp>0.00</temp>
<bpm>0</bpm>
<rpm>0.00</rpm>
</extensions>
</trkpt>
<trkpt lat="64.310585022" lon="-20.305322647">
<ele>105.910156</ele>
<time>2012-07-19T18:58:41Z</time>
<extensions>
<speed>0.0</speed>
<temp>0.00</temp>
<bpm>0</bpm>
<rpm>0.00</rpm>
</extensions>
</trkpt>
<trkpt lat="64.310585022" lon="-20.305322647">
<ele>105.902344</ele>
<time>2012-07-19T18:58:46Z</time>
<extensions>
<speed>0.0</speed>
<temp>0.00</temp>
<bpm>0</bpm>
<rpm>0.00</rpm>
</extensions>
</trkpt>
<trkpt lat="64.310585022" lon="-20.305322647">
<ele>105.912109</ele>
<time>2012-07-19T18:58:51Z</time>
<extensions>
<speed>0.0</speed>
<temp>0.00</temp>
<bpm>0</bpm>
<rpm>0.00</rpm>
</extensions>
</trkpt>
<trkpt lat="64.310585022" lon="-20.305322647">
<ele>105.917969</ele>
<time>2012-07-19T18:58:56Z</time>
<speed>0.010000</speed>
<extensions>
<speed>0.0</speed>
<temp>0.00</temp>
<bpm>0</bpm>
<rpm>0.00</rpm>
</extensions>
</trkpt>
<trkpt lat="64.310585022" lon="-20.305324554">
<ele>105.917969</ele>
<time>2012-07-19T18:59:01Z</time>
<speed>0.010000</speed>
<extensions>
<speed>0.0</speed>
<temp>0.00</temp>
<bpm>0</bpm>
<rpm>0.00</rpm>
</extensions>
</trkpt>
<trkpt lat="64.310585022" lon="-20.305324554">
<ele>105.929688</ele>
<time>2012-07-19T18:59:06Z</time>
<speed>0.010000</speed>
<extensions>
<speed>0.0</speed>
<temp>0.00</temp>
<bpm>0</bpm>
<rpm>0.00</rpm>
</extensions>
</trkpt>
<trkpt lat="64.310585022" lon="-20.305324554">
<ele>105.941406</ele>
<time>2012-07-19T18:59:11Z</time>
<extensions>
<speed>0.0</speed>
<temp>0.00</temp>
<bpm>0</bpm>
<rpm>0.00</rpm>
</extensions>
</trkpt>
<trkpt lat="64.310585022" lon="-20.305324554">
<ele>105.955078</ele>
<time>2012-07-19T18:59:16Z</time>
<extensions>
<speed>0.0</speed>
<temp>0.00</temp>
<bpm>0</bpm>
<rpm>0.00</rpm>
</extensions>
</trkpt>
<trkpt lat="64.310585022" lon="-20.305324554">
<ele>105.968750</ele>
<time>2012-07-19T18:59:21Z</time>
<extensions>
<speed>0.0</speed>
<temp>0.00</temp>
<bpm>0</bpm>
<rpm>0.00</rpm>
</extensions>
</trkpt>
<trkpt lat="64.310585022" lon="-20.305324554">
<ele>105.990234</ele>
<time>2012-07-19T18:59:26Z</time>
<extensions>
<speed>0.0</speed>
<temp>0.00</temp>
<bpm>0</bpm>
<rpm>0.00</rpm>
</extensions>
</trkpt>
<trkpt lat="64.310585022" lon="-20.305324554">
<ele>105.992188</ele>
<time>2012-07-19T18:59:31Z</time>
<extensions>
<speed>0.0</speed>
<temp>0.00</temp>
<bpm>0</bpm>
<rpm>0.00</rpm>
</extensions>
</trkpt>
<trkpt lat="64.310585022" lon="-20.305324554">
<ele>106.001953</ele>
<time>2012-07-19T18:59:36Z</time>
<extensions>
<speed>0.0</speed>
<temp>0.00</temp>
<bpm>0</bpm>
<rpm>0.00</rpm>
</extensions>
</trkpt>
<trkpt lat="64.310585022" lon="-20.305324554">
<ele>105.992188</ele>
<time>2012-07-19T18:59:41Z</time>
<extensions>
<speed>0.0</speed>
<temp>0.00</temp>
<bpm>0</bpm>
<rpm>0.00</rpm>
</extensions>
</trkpt>
<trkpt lat="64.310585022" lon="-20.305324554">
<ele>105.988281</ele>
<time>2012-07-19T18:59:46Z</time>
<extensions>
<speed>0.0</speed>
<temp>0.00</temp>
<bpm>0</bpm>
<rpm>0.00</rpm>
</extensions>
</trkpt>
<trkpt lat="64.310585022" lon="-20.305324554">
<ele>105.994141</ele>
<time>2012-07-19T18:59:51Z</time>
<extensions>
<speed>0.0</speed>
<temp>0.00</temp>
<bpm>0</bpm>
<rpm>0.00</rpm>
</extensions>
</trkpt>
<trkpt lat="64.310585022" lon="-20.305324554">
<ele>105.992188</ele>
<time>2012-07-19T18:59:56Z</time>
<extensions>
<speed>0.0</speed>
<temp>0.00</temp>
<bpm>0</bpm>
<rpm>0.00</rpm>
</extensions>
</trkpt>
<trkpt lat="64.310585022" lon="-20.305324554">
<ele>105.996094</ele>
<time>2012-07-19T19:00:01Z</time>
<extensions>
<speed>0.0</speed>
<temp>0.00</temp>
<bpm>0</bpm>
<rpm>0.00</rpm>
</extensions>
</trkpt>
<trkpt lat="64.310585022" lon="-20.305324554">
<ele>106.000000</ele>
<time>2012-07-19T19:00:06Z</time>
<extensions>
<speed>0.0</speed>
<temp>0.00</temp>
<bpm>0</bpm>
<rpm>0.00</rpm>
</extensions>
</trkpt>
<trkpt lat="64.310585022" lon="-20.305324554">
<ele>105.996094</ele>
<time>2012-07-19T19:00:11Z</time>
<extensions>
<speed>0.0</speed>
<temp>0.00</temp>
<bpm>0</bpm>
<rpm>0.00</rpm>
</extensions>
</trkpt>
<trkpt lat="64.310585022" lon="-20.305324554">
<ele>105.988281</ele>
<time>2012-07-19T19:00:16Z</time>
<extensions>
<speed>0.0</speed>
<temp>0.00</temp>
<bpm>0</bpm>
<rpm>0.00</rpm>
</extensions>
</trkpt>
<trkpt lat="64.310585022" lon="-20.305324554">
<ele>105.976563</ele>
<time>2012-07-19T19:00:21Z</time>
<extensions>
<speed>0.0</speed>
<temp>0.00</temp>
<bpm>0</bpm>
<rpm>0.00</rpm>
</extensions>
</trkpt>
<trkpt lat="64.310585022" lon="-20.305324554">
<ele>105.962891</ele>
<time>2012-07-19T19:00:26Z</time>
<extensions>
<speed>0.0</speed>
<temp>0.00</temp>
<bpm>0</bpm>
<rpm>0.00</rpm>
</extensions>
</trkpt>
<trkpt lat="64.310585022" lon="-20.305324554">
<ele>105.949219</ele>
<time>2012-07-19T19:00:31Z</time>
<extensions>
<speed>0.0</speed>
<temp>0.00</temp>
<bpm>0</bpm>
<rpm>0.00</rpm>
</extensions>
</trkpt>
<trkpt lat="64.310585022" lon="-20.305324554">
<ele>105.933594</ele>
<time>2012-07-19T19:00:36Z</time>
<speed>0.010000</speed>
<extensions>
<speed>0.0</speed>
<temp>0.00</temp>
<bpm>0</bpm>
<rpm>0.00</rpm>
</extensions>
</trkpt>
<trkpt lat="64.310585022" lon="-20.305324554">
<ele>105.919922</ele>
<time>2012-07-19T19:00:41Z</time>
<extensions>
<speed>0.0</speed>
<temp>0.00</temp>
<bpm>0</bpm>
<rpm>0.00</rpm>
</extensions>
</trkpt>
<trkpt lat="64.310585022" lon="-20.305324554">
<ele>105.912109</ele>
<time>2012-07-19T19:00:46Z</time>
<extensions>
<speed>0.0</speed>
<temp>0.00</temp>
<bpm>0</bpm>
<rpm>0.00</rpm>
</extensions>
</trkpt>
<trkpt lat="64.310585022" lon="-20.305324554">
<ele>105.904297</ele>
<time>2012-07-19T19:00:51Z</time>
<extensions>
<speed>0.0</speed>
<temp>0.00</temp>
<bpm>0</bpm>
<rpm>0.00</rpm>
</extensions>
</trkpt>
<trkpt lat="64.310585022" lon="-20.305324554">
<ele>105.902344</ele>
<time>2012-07-19T19:00:56Z</time>
<extensions>
<speed>0.0</speed>
<temp>0.00</temp>
<bpm>0</bpm>
<rpm>0.00</rpm>
</extensions>
</trkpt>
<trkpt lat="64.310585022" lon="-20.305324554">
<ele>105.919922</ele>
<time>2012-07-19T19:01:01Z</time>
<speed>0.020000</speed>
<extensions>
<speed>0.0</speed>
<temp>0.00</temp>
<bpm>0</bpm>
<rpm>0.00</rpm>
</extensions>
</trkpt>
<trkpt lat="64.310585022" lon="-20.305324554">
<ele>105.917969</ele>
<time>2012-07-19T19:01:06Z</time>
<speed>0.020000</speed>
<extensions>
<speed>0.0</speed>
<temp>0.00</temp>
<bpm>0</bpm>
<rpm>0.00</rpm>
</extensions>
</trkpt>
<trkpt lat="64.310585022" lon="-20.305324554">
<ele>105.919922</ele>
<time>2012-07-19T19:01:11Z</time>
<extensions>
<speed>0.0</speed>
<temp>0.00</temp>
<bpm>0</bpm>
<rpm>0.00</rpm>
</extensions>
</trkpt>
<trkpt lat="64.310585022" lon="-20.305324554">
<ele>105.912109</ele>
<time>2012-07-19T19:01:16Z</time>
<extensions>
<speed>0.0</speed>
<temp>0.00</temp>
<bpm>0</bpm>
<rpm>0.00</rpm>
</extensions>
</trkpt>
<trkpt lat="64.310585022" lon="-20.305324554">
<ele>105.908203</ele>
<time>2012-07-19T19:01:21Z</time>
<extensions>
<speed>0.0</speed>
<temp>0.00</temp>
<bpm>0</bpm>
<rpm>0.00</rpm>
</extensions>
</trkpt>
<trkpt lat="64.310585022" lon="-20.305324554">
<ele>105.921875</ele>
<time>2012-07-19T19:01:26Z</time>
<extensions>
<speed>0.0</speed>
<temp>0.00</temp>
<bpm>0</bpm>
<rpm>0.00</rpm>
</extensions>
</trkpt>
<trkpt lat="64.310585022" lon="-20.305324554">
<ele>105.931641</ele>
<time>2012-07-19T19:01:31Z</time>
<extensions>
<speed>0.0</speed>
<temp>0.00</temp>
<bpm>0</bpm>
<rpm>0.00</rpm>
</extensions>
</trkpt>
<trkpt lat="64.310585022" lon="-20.305324554">
<ele>105.933594</ele>
<time>2012-07-19T19:01:36Z</time>
<speed>0.010000</speed>
<extensions>
<speed>0.0</speed>
<temp>0.00</temp>
<bpm>0</bpm>
<rpm>0.00</rpm>
</extensions>
</trkpt>
<trkpt lat="64.310585022" lon="-20.305324554">
<ele>105.937500</ele>
<time>2012-07-19T19:01:41Z</time>
<extensions>
<speed>0.0</speed>
<temp>0.00</temp>
<bpm>0</bpm>
<rpm>0.00</rpm>
</extensions>
</trkpt>
<trkpt lat="64.310585022" lon="-20.305324554">
<ele>105.943359</ele>
<time>2012-07-19T19:01:46Z</time>
<extensions>
<speed>0.0</speed>
<temp>0.00</temp>
<bpm>0</bpm>
<rpm>0.00</rpm>
</extensions>
</trkpt>
<trkpt lat="64.310585022" lon="-20.305324554">
<ele>105.943359</ele>
<time>2012-07-19T19:01:51Z</time>
<extensions>
<speed>0.0</speed>
<temp>0.00</temp>
<bpm>0</bpm>
<rpm>0.00</rpm>
</extensions>
</trkpt>
<trkpt lat="64.310585022" lon="-20.305324554">
<ele>105.949219</ele>
<time>2012-07-19T19:01:56Z</time>
<extensions>
<speed>0.0</speed>
<temp>0.00</temp>
<bpm>0</bpm>
<rpm>0.00</rpm>
</extensions>
</trkpt>
<trkpt lat="64.310585022" lon="-20.305324554">
<ele>105.958984</ele>
<time>2012-07-19T19:02:01Z</time>
<speed>0.010000</speed>
<extensions>
<speed>0.0</speed>
<temp>0.00</temp>
<bpm>0</bpm>
<rpm>0.00</rpm>
</extensions>
</trkpt>
<trkpt lat="64.310585022" lon="-20.305324554">
<ele>105.974609</ele>
<time>2012-07-19T19:02:06Z</time>
<extensions>
<speed>0.0</speed>
<temp>0.00</temp>
<bpm>0</bpm>
<rpm>0.00</rpm>
</extensions>
</trkpt>
<trkpt lat="64.310585022" lon="-20.305324554">
<ele>105.980469</ele>
<time>2012-07-19T19:02:11Z</time>
<extensions>
<speed>0.0</speed>
<temp>0.00</temp>
<bpm>0</bpm>
<rpm>0.00</rpm>
</extensions>
</trkpt>
<trkpt lat="64.310585022" lon="-20.305324554">
<ele>105.986328</ele>
<time>2012-07-19T19:02:16Z</time>
<extensions>
<speed>0.0</speed>
<temp>0.00</temp>
<bpm>0</bpm>
<rpm>0.00</rpm>
</extensions>
</trkpt>
<trkpt lat="64.310585022" lon="-20.305324554">
<ele>105.982422</ele>
<time>2012-07-19T19:02:21Z</time>
<extensions>
<speed>0.0</speed>
<temp>0.00</temp>
<bpm>0</bpm>
<rpm>0.00</rpm>
</extensions>
</trkpt>
<trkpt lat="64.310585022" lon="-20.305324554">
<ele>105.976563</ele>
<time>2012-07-19T19:02:26Z</time>
<extensions>
<speed>0.0</speed>
<temp>0.00</temp>
<bpm>0</bpm>
<rpm>0.00</rpm>
</extensions>
</trkpt>
<trkpt lat="64.310585022" lon="-20.305324554">
<ele>105.976563</ele>
<time>2012-07-19T19:02:31Z</time>
<extensions>
<speed>0.0</speed>
<temp>0.00</temp>
<bpm>0</bpm>
<rpm>0.00</rpm>
</extensions>
</trkpt>
<trkpt lat="64.310585022" lon="-20.305324554">
<ele>105.978516</ele>
<time>2012-07-19T19:02:36Z</time>
<extensions>
<speed>0.0</speed>
<temp>0.00</temp>
<bpm>0</bpm>
<rpm>0.00</rpm>
</extensions>
</trkpt>
<trkpt lat="64.310585022" lon="-20.305324554">
<ele>105.982422</ele>
<time>2012-07-19T19:02:41Z</time>
<extensions>
<speed>0.0</speed>
<temp>0.00</temp>
<bpm>0</bpm>
<rpm>0.00</rpm>
</extensions>
</trkpt>
<trkpt lat="64.310585022" lon="-20.305324554">
<ele>105.982422</ele>
<time>2012-07-19T19:02:46Z</time>
<extensions>
<speed>0.0</speed>
<temp>0.00</temp>
<bpm>0</bpm>
<rpm>0.00</rpm>
</extensions>
</trkpt>
<trkpt lat="64.310585022" lon="-20.305324554">
<ele>105.980469</ele>
<time>2012-07-19T19:02:51Z</time>
<extensions>
<speed>0.0</speed>
<temp>0.00</temp>
<bpm>0</bpm>
<rpm>0.00</rpm>
</extensions>
</trkpt>
<trkpt lat="64.310585022" lon="-20.305324554">
<ele>105.974609</ele>
<time>2012-07-19T19:02:56Z</time>
<extensions>
<speed>0.0</speed>
<temp>0.00</temp>
<bpm>0</bpm>
<rpm>0.00</rpm>
</extensions>
</trkpt>
<trkpt lat="64.310585022" lon="-20.305324554">
<ele>105.972656</ele>
<time>2012-07-19T19:03:01Z</time>
<extensions>
<speed>0.0</speed>
<temp>0.00</temp>
<bpm>0</bpm>
<rpm>0.00</rpm>
</extensions>
</trkpt>
<trkpt lat="64.310585022" lon="-20.305326462">
<ele>105.974609</ele>
<time>2012-07-19T19:03:06Z</time>
<extensions>
<speed>0.0</speed>
<temp>0.00</temp>
<bpm>0</bpm>
<rpm>0.00</rpm>
</extensions>
</trkpt>
<trkpt lat="64.310585022" lon="-20.305326462">
<ele>105.974609</ele>
<time>2012-07-19T19:03:11Z</time>
<extensions>
<speed>0.0</speed>
<temp>0.00</temp>
<bpm>0</bpm>
<rpm>0.00</rpm>
</extensions>
</trkpt>
<trkpt lat="64.310585022" lon="-20.305326462">
<ele>105.972656</ele>
<time>2012-07-19T19:03:16Z</time>
<extensions>
<speed>0.0</speed>
<temp>0.00</temp>
<bpm>0</bpm>
<rpm>0.00</rpm>
</extensions>
</trkpt>
<trkpt lat="64.310585022" lon="-20.305326462">
<ele>105.972656</ele>
<time>2012-07-19T19:03:21Z</time>
<speed>0.010000</speed>
<extensions>
<speed>0.0</speed>
<temp>0.00</temp>
<bpm>0</bpm>
<rpm>0.00</rpm>
</extensions>
</trkpt>
<trkpt lat="64.310585022" lon="-20.305328369">
<ele>105.960938</ele>
<time>2012-07-19T19:03:26Z</time>
<speed>0.010000</speed>
<extensions>
<speed>0.0</speed>
<temp>0.00</temp>
<bpm>0</bpm>
<rpm>0.00</rpm>
</extensions>
</trkpt>
<trkpt lat="64.310585022" lon="-20.305328369">
<ele>105.960938</ele>
<time>2012-07-19T19:03:31Z</time>
<speed>0.010000</speed>
<extensions>
<speed>0.0</speed>
<temp>0.00</temp>
<bpm>0</bpm>
<rpm>0.00</rpm>
</extensions>
</trkpt>
<trkpt lat="64.310585022" lon="-20.305328369">
<ele>105.958984</ele>
<time>2012-07-19T19:03:36Z</time>
<extensions>
<speed>0.0</speed>
<temp>0.00</temp>
<bpm>0</bpm>
<rpm>0.00</rpm>
</extensions>
</trkpt>
<trkpt lat="64.310585022" lon="-20.305328369">
<ele>105.957031</ele>
<time>2012-07-19T19:03:41Z</time>
<extensions>
<speed>0.0</speed>
<temp>0.00</temp>
<bpm>0</bpm>
<rpm>0.00</rpm>
</extensions>
</trkpt>
<trkpt lat="64.310585022" lon="-20.305328369">
<ele>105.955078</ele>
<time>2012-07-19T19:03:46Z</time>
<extensions>
<speed>0.0</speed>
<temp>0.00</temp>
<bpm>0</bpm>
<rpm>0.00</rpm>
</extensions>
</trkpt>
<trkpt lat="64.310585022" lon="-20.305328369">
<ele>105.960938</ele>
<time>2012-07-19T19:03:51Z</time>
<extensions>
<speed>0.0</speed>
<temp>0.00</temp>
<bpm>0</bpm>
<rpm>0.00</rpm>
</extensions>
</trkpt>
<trkpt lat="64.310577393" lon="-20.305328369">
<ele>105.966797</ele>
<time>2012-07-19T19:03:56Z</time>
<speed>0.010000</speed>
<extensions>
<speed>0.0</speed>
<temp>0.00</temp>
<bpm>0</bpm>
<rpm>0.00</rpm>
</extensions>
</trkpt>
<trkpt lat="64.310577393" lon="-20.305328369">
<ele>105.976563</ele>
<time>2012-07-19T19:04:01Z</time>
<extensions>
<speed>0.0</speed>
<temp>0.00</temp>
<bpm>0</bpm>
<rpm>0.00</rpm>
</extensions>
</trkpt>
<trkpt lat="64.310577393" lon="-20.305328369">
<ele>105.974609</ele>
<time>2012-07-19T19:04:06Z</time>
<extensions>
<speed>0.0</speed>
<temp>0.00</temp>
<bpm>0</bpm>
<rpm>0.00</rpm>
</extensions>
</trkpt>
<trkpt lat="64.310577393" lon="-20.305328369">
<ele>105.968750</ele>
<time>2012-07-19T19:04:11Z</time>
<extensions>
<speed>0.0</speed>
<temp>0.00</temp>
<bpm>0</bpm>
<rpm>0.00</rpm>
</extensions>
</trkpt>
<trkpt lat="64.310577393" lon="-20.305328369">
<ele>105.972656</ele>
<time>2012-07-19T19:04:16Z</time>
<extensions>
<speed>0.0</speed>
<temp>0.00</temp>
<bpm>0</bpm>
<rpm>0.00</rpm>
</extensions>
</trkpt>
<trkpt lat="64.310577393" lon="-20.305328369">
<ele>105.978516</ele>
<time>2012-07-19T19:04:21Z</time>
<extensions>
<speed>0.0</speed>
<temp>0.00</temp>
<bpm>0</bpm>
<rpm>0.00</rpm>
</extensions>
</trkpt>
<trkpt lat="64.310577393" lon="-20.305328369">
<ele>105.976563</ele>
<time>2012-07-19T19:04:26Z</time>
<extensions>
<speed>0.0</speed>
<temp>0.00</temp>
<bpm>0</bpm>
<rpm>0.00</rpm>
</extensions>
</trkpt>
<trkpt lat="64.310577393" lon="-20.305328369">
<ele>105.970703</ele>
<time>2012-07-19T19:04:31Z</time>
<extensions>
<speed>0.0</speed>
<temp>0.00</temp>
<bpm>0</bpm>
<rpm>0.00</rpm>
</extensions>
</trkpt>
<trkpt lat="64.310577393" lon="-20.305328369">
<ele>105.968750</ele>
<time>2012-07-19T19:04:36Z</time>
<extensions>
<speed>0.0</speed>
<temp>0.00</temp>
<bpm>0</bpm>
<rpm>0.00</rpm>
</extensions>
</trkpt>
<trkpt lat="64.310577393" lon="-20.305328369">
<ele>105.960938</ele>
<time>2012-07-19T19:04:41Z</time>
<extensions>
<speed>0.0</speed>
<temp>0.00</temp>
<bpm>0</bpm>
<rpm>0.00</rpm>
</extensions>
</trkpt>
<trkpt lat="64.310577393" lon="-20.305328369">
<ele>105.957031</ele>
<time>2012-07-19T19:04:46Z</time>
<speed>0.020000</speed>
<extensions>
<speed>0.0</speed>
<temp>0.00</temp>
<bpm>0</bpm>
<rpm>0.00</rpm>
</extensions>
</trkpt>
<trkpt lat="64.310577393" lon="-20.305328369">
<ele>105.958984</ele>
<time>2012-07-19T19:04:51Z</time>
<extensions>
<speed>0.0</speed>
<temp>0.00</temp>
<bpm>0</bpm>
<rpm>0.00</rpm>
</extensions>
</trkpt>
<trkpt lat="64.310577393" lon="-20.305330276">
<ele>105.958984</ele>
<time>2012-07-19T19:04:56Z</time>
<extensions>
<speed>0.0</speed>
<temp>0.00</temp>
<bpm>0</bpm>
<rpm>0.00</rpm>
</extensions>
</trkpt>
<trkpt lat="64.310577393" lon="-20.305330276">
<ele>105.962891</ele>
<time>2012-07-19T19:05:01Z</time>
<extensions>
<speed>0.0</speed>
<temp>0.00</temp>
<bpm>0</bpm>
<rpm>0.00</rpm>
</extensions>
</trkpt>
<trkpt lat="64.310577393" lon="-20.305330276">
<ele>105.960938</ele>
<time>2012-07-19T19:05:06Z</time>
<extensions>
<speed>0.0</speed>
<temp>0.00</temp>
<bpm>0</bpm>
<rpm>0.00</rpm>
</extensions>
</trkpt>
<trkpt lat="64.310577393" lon="-20.305330276">
<ele>105.955078</ele>
<time>2012-07-19T19:05:11Z</time>
<extensions>
<speed>0.0</speed>
<temp>0.00</temp>
<bpm>0</bpm>
<rpm>0.00</rpm>
</extensions>
</trkpt>
<trkpt lat="64.310577393" lon="-20.305330276">
<ele>105.951172</ele>
<time>2012-07-19T19:05:16Z</time>
<extensions>
<speed>0.0</speed>
<temp>0.00</temp>
<bpm>0</bpm>
<rpm>0.00</rpm>
</extensions>
</trkpt>
<trkpt lat="64.310577393" lon="-20.305332184">
<ele>105.945313</ele>
<time>2012-07-19T19:05:21Z</time>
<extensions>
<speed>0.0</speed>
<temp>0.00</temp>
<bpm>0</bpm>
<rpm>0.00</rpm>
</extensions>
</trkpt>
<trkpt lat="64.310577393" lon="-20.305332184">
<ele>105.939453</ele>
<time>2012-07-19T19:05:26Z</time>
<extensions>
<speed>0.0</speed>
<temp>0.00</temp>
<bpm>0</bpm>
<rpm>0.00</rpm>
</extensions>
</trkpt>
<trkpt lat="64.310577393" lon="-20.305332184">
<ele>105.933594</ele>
<time>2012-07-19T19:05:31Z</time>
<extensions>
<speed>0.0</speed>
<temp>0.00</temp>
<bpm>0</bpm>
<rpm>0.00</rpm>
</extensions>
</trkpt>
<trkpt lat="64.310577393" lon="-20.305332184">
<ele>105.931641</ele>
<time>2012-07-19T19:05:36Z</time>
<extensions>
<speed>0.0</speed>
<temp>0.00</temp>
<bpm>0</bpm>
<rpm>0.00</rpm>
</extensions>
</trkpt>
<trkpt lat="64.310577393" lon="-20.305332184">
<ele>105.929688</ele>
<time>2012-07-19T19:05:41Z</time>
<extensions>
<speed>0.0</speed>
<temp>0.00</temp>
<bpm>0</bpm>
<rpm>0.00</rpm>
</extensions>
</trkpt>
<trkpt lat="64.310577393" lon="-20.305332184">
<ele>105.927734</ele>
<time>2012-07-19T19:05:46Z</time>
<extensions>
<speed>0.0</speed>
<temp>0.00</temp>
<bpm>0</bpm>
<rpm>0.00</rpm>
</extensions>
</trkpt>
<trkpt lat="64.310577393" lon="-20.305332184">
<ele>105.929688</ele>
<time>2012-07-19T19:05:51Z</time>
<extensions>
<speed>0.0</speed>
<temp>0.00</temp>
<bpm>0</bpm>
<rpm>0.00</rpm>
</extensions>
</trkpt>
<trkpt lat="64.310577393" lon="-20.305334091">
<ele>105.939453</ele>
<time>2012-07-19T19:05:56Z</time>
<extensions>
<speed>0.0</speed>
<temp>0.00</temp>
<bpm>0</bpm>
<rpm>0.00</rpm>
</extensions>
</trkpt>
<trkpt lat="64.310577393" lon="-20.305334091">
<ele>105.943359</ele>
<time>2012-07-19T19:06:01Z</time>
<extensions>
<speed>0.0</speed>
<temp>0.00</temp>
<bpm>0</bpm>
<rpm>0.00</rpm>
</extensions>
</trkpt>
<trkpt lat="64.310577393" lon="-20.305334091">
<ele>105.939453</ele>
<time>2012-07-19T19:06:06Z</time>
<extensions>
<speed>0.0</speed>
<temp>0.00</temp>
<bpm>0</bpm>
<rpm>0.00</rpm>
</extensions>
</trkpt>
<trkpt lat="64.310577393" lon="-20.305334091">
<ele>105.933594</ele>
<time>2012-07-19T19:06:11Z</time>
<extensions>
<speed>0.0</speed>
<temp>0.00</temp>
<bpm>0</bpm>
<rpm>0.00</rpm>
</extensions>
</trkpt>
<trkpt lat="64.310577393" lon="-20.305335999">
<ele>105.917969</ele>
<time>2012-07-19T19:06:16Z</time>
<extensions>
<speed>0.0</speed>
<temp>0.00</temp>
<bpm>0</bpm>
<rpm>0.00</rpm>
</extensions>
</trkpt>
<trkpt lat="64.310577393" lon="-20.305335999">
<ele>105.910156</ele>
<time>2012-07-19T19:06:21Z</time>
<extensions>
<speed>0.0</speed>
<temp>0.00</temp>
<bpm>0</bpm>
<rpm>0.00</rpm>
</extensions>
</trkpt>
<trkpt lat="64.310577393" lon="-20.305335999">
<ele>105.900391</ele>
<time>2012-07-19T19:06:26Z</time>
<extensions>
<speed>0.0</speed>
<temp>0.00</temp>
<bpm>0</bpm>
<rpm>0.00</rpm>
</extensions>
</trkpt>
<trkpt lat="64.310577393" lon="-20.305335999">
<ele>105.890625</ele>
<time>2012-07-19T19:06:31Z</time>
<extensions>
<speed>0.0</speed>
<temp>0.00</temp>
<bpm>0</bpm>
<rpm>0.00</rpm>
</extensions>
</trkpt>
<trkpt lat="64.310577393" lon="-20.305335999">
<ele>105.888672</ele>
<time>2012-07-19T19:06:36Z</time>
<extensions>
<speed>0.0</speed>
<temp>0.00</temp>
<bpm>0</bpm>
<rpm>0.00</rpm>
</extensions>
</trkpt>
<trkpt lat="64.310577393" lon="-20.305335999">
<ele>105.882813</ele>
<time>2012-07-19T19:06:41Z</time>
<extensions>
<speed>0.0</speed>
<temp>0.00</temp>
<bpm>0</bpm>
<rpm>0.00</rpm>
</extensions>
</trkpt>
<trkpt lat="64.310577393" lon="-20.305335999">
<ele>105.878906</ele>
<time>2012-07-19T19:06:46Z</time>
<extensions>
<speed>0.0</speed>
<temp>0.00</temp>
<bpm>0</bpm>
<rpm>0.00</rpm>
</extensions>
</trkpt>
<trkpt lat="64.310577393" lon="-20.305335999">
<ele>105.873047</ele>
<time>2012-07-19T19:06:51Z</time>
<extensions>
<speed>0.0</speed>
<temp>0.00</temp>
<bpm>0</bpm>
<rpm>0.00</rpm>
</extensions>
</trkpt>
<trkpt lat="64.310577393" lon="-20.305335999">
<ele>105.867188</ele>
<time>2012-07-19T19:06:56Z</time>
<speed>0.020000</speed>
<extensions>
<speed>0.0</speed>
<temp>0.00</temp>
<bpm>0</bpm>
<rpm>0.00</rpm>
</extensions>
</trkpt>
<trkpt lat="64.310577393" lon="-20.305335999">
<ele>105.859375</ele>
<time>2012-07-19T19:07:01Z</time>
<speed>0.010000</speed>
<extensions>
<speed>0.0</speed>
<temp>0.00</temp>
<bpm>0</bpm>
<rpm>0.00</rpm>
</extensions>
</trkpt>
<trkpt lat="64.310577393" lon="-20.305335999">
<ele>105.861328</ele>
<time>2012-07-19T19:07:06Z</time>
<extensions>
<speed>0.0</speed>
<temp>0.00</temp>
<bpm>0</bpm>
<rpm>0.00</rpm>
</extensions>
</trkpt>
<trkpt lat="64.310577393" lon="-20.305335999">
<ele>105.867188</ele>
<time>2012-07-19T19:07:11Z</time>
<extensions>
<speed>0.0</speed>
<temp>0.00</temp>
<bpm>0</bpm>
<rpm>0.00</rpm>
</extensions>
</trkpt>
<trkpt lat="64.310577393" lon="-20.305335999">
<ele>105.869141</ele>
<time>2012-07-19T19:07:16Z</time>
<extensions>
<speed>0.0</speed>
<temp>0.00</temp>
<bpm>0</bpm>
<rpm>0.00</rpm>
</extensions>
</trkpt>
<trkpt lat="64.310577393" lon="-20.305335999">
<ele>105.871094</ele>
<time>2012-07-19T19:07:21Z</time>
<extensions>
<speed>0.0</speed>
<temp>0.00</temp>
<bpm>0</bpm>
<rpm>0.00</rpm>
</extensions>
</trkpt>
<trkpt lat="64.310577393" lon="-20.305335999">
<ele>105.878906</ele>
<time>2012-07-19T19:07:26Z</time>
<speed>0.010000</speed>
<extensions>
<speed>0.0</speed>
<temp>0.00</temp>
<bpm>0</bpm>
<rpm>0.00</rpm>
</extensions>
</trkpt>
<trkpt lat="64.310577393" lon="-20.305337906">
<ele>105.884766</ele>
<time>2012-07-19T19:07:31Z</time>
<extensions>
<speed>0.0</speed>
<temp>0.00</temp>
<bpm>0</bpm>
<rpm>0.00</rpm>
</extensions>
</trkpt>
<trkpt lat="64.310577393" lon="-20.305337906">
<ele>105.878906</ele>
<time>2012-07-19T19:07:36Z</time>
<speed>0.010000</speed>
<extensions>
<speed>0.0</speed>
<temp>0.00</temp>
<bpm>0</bpm>
<rpm>0.00</rpm>
</extensions>
</trkpt>
<trkpt lat="64.310577393" lon="-20.305337906">
<ele>105.871094</ele>
<time>2012-07-19T19:07:41Z</time>
<speed>0.190000</speed>
<extensions>
<speed>0.2</speed>
<temp>0.00</temp>
<bpm>0</bpm>
<rpm>0.00</rpm>
</extensions>
</trkpt>
<trkpt lat="64.310577393" lon="-20.305337906">
<ele>105.857422</ele>
<time>2012-07-19T19:07:46Z</time>
<extensions>
<speed>0.0</speed>
<temp>0.00</temp>
<bpm>0</bpm>
<rpm>0.00</rpm>
</extensions>
</trkpt>
<trkpt lat="64.310577393" lon="-20.305337906">
<ele>105.841797</ele>
<time>2012-07-19T19:07:51Z</time>
<speed>0.010000</speed>
<extensions>
<speed>0.0</speed>
<temp>0.00</temp>
<bpm>0</bpm>
<rpm>0.00</rpm>
</extensions>
</trkpt>
<trkpt lat="64.310577393" lon="-20.305337906">
<ele>105.832031</ele>
<time>2012-07-19T19:07:56Z</time>
<speed>0.010000</speed>
<extensions>
<speed>0.0</speed>
<temp>0.00</temp>
<bpm>0</bpm>
<rpm>0.00</rpm>
</extensions>
</trkpt>
<trkpt lat="64.310577393" lon="-20.305337906">
<ele>105.818359</ele>
<time>2012-07-19T19:08:01Z</time>
<extensions>
<speed>0.0</speed>
<temp>0.00</temp>
<bpm>0</bpm>
<rpm>0.00</rpm>
</extensions>
</trkpt>
<trkpt lat="64.310577393" lon="-20.305337906">
<ele>105.818359</ele>
<time>2012-07-19T19:08:06Z</time>
<extensions>
<speed>0.0</speed>
<temp>0.00</temp>
<bpm>0</bpm>
<rpm>0.00</rpm>
</extensions>
</trkpt>
<trkpt lat="64.310577393" lon="-20.305337906">
<ele>105.820313</ele>
<time>2012-07-19T19:08:11Z</time>
<speed>0.030000</speed>
<extensions>
<speed>0.0</speed>
<temp>0.00</temp>
<bpm>0</bpm>
<rpm>0.00</rpm>
</extensions>
</trkpt>
<trkpt lat="64.310577393" lon="-20.305337906">
<ele>105.820313</ele>
<time>2012-07-19T19:08:16Z</time>
<extensions>
<speed>0.0</speed>
<temp>0.00</temp>
<bpm>0</bpm>
<rpm>0.00</rpm>
</extensions>
</trkpt>
<trkpt lat="64.310577393" lon="-20.305337906">
<ele>105.833984</ele>
<time>2012-07-19T19:08:21Z</time>
<extensions>
<speed>0.0</speed>
<temp>0.00</temp>
<bpm>0</bpm>
<rpm>0.00</rpm>
</extensions>
</trkpt>
<trkpt lat="64.310577393" lon="-20.305337906">
<ele>105.855469</ele>
<time>2012-07-19T19:08:26Z</time>
<extensions>
<speed>0.0</speed>
<temp>0.00</temp>
<bpm>0</bpm>
<rpm>0.00</rpm>
</extensions>
</trkpt>
<trkpt lat="64.310577393" lon="-20.305337906">
<ele>105.869141</ele>
<time>2012-07-19T19:08:31Z</time>
<extensions>
<speed>0.0</speed>
<temp>0.00</temp>
<bpm>0</bpm>
<rpm>0.00</rpm>
</extensions>
</trkpt>
<trkpt lat="64.310577393" lon="-20.305339813">
<ele>105.878906</ele>
<time>2012-07-19T19:08:36Z</time>
<extensions>
<speed>0.0</speed>
<temp>0.00</temp>
<bpm>0</bpm>
<rpm>0.00</rpm>
</extensions>
</trkpt>
<trkpt lat="64.310577393" lon="-20.305339813">
<ele>105.876953</ele>
<time>2012-07-19T19:08:41Z</time>
<extensions>
<speed>0.0</speed>
<temp>0.00</temp>
<bpm>0</bpm>
<rpm>0.00</rpm>
</extensions>
</trkpt>
<trkpt lat="64.310577393" lon="-20.305339813">
<ele>105.876953</ele>
<time>2012-07-19T19:08:46Z</time>
<extensions>
<speed>0.0</speed>
<temp>0.00</temp>
<bpm>0</bpm>
<rpm>0.00</rpm>
</extensions>
</trkpt>
<trkpt lat="64.310577393" lon="-20.305343628">
<ele>105.882813</ele>
<time>2012-07-19T19:08:51Z</time>
<speed>0.070000</speed>
<extensions>
<speed>0.1</speed>
<temp>0.00</temp>
<bpm>0</bpm>
<rpm>0.00</rpm>
</extensions>
</trkpt>
<trkpt lat="64.310585022" lon="-20.305337906">
<ele>105.822266</ele>
<time>2012-07-19T19:08:56Z</time>
<speed>0.260000</speed>
<extensions>
<speed>0.3</speed>
<temp>0.00</temp>
<bpm>0</bpm>
<rpm>0.00</rpm>
</extensions>
</trkpt>
<trkpt lat="64.310585022" lon="-20.305349350">
<ele>105.671875</ele>
<time>2012-07-19T19:09:01Z</time>
<speed>0.010000</speed>
<extensions>
<speed>0.0</speed>
<temp>0.00</temp>
<bpm>0</bpm>
<rpm>0.00</rpm>
</extensions>
</trkpt>
<trkpt lat="64.310585022" lon="-20.305347443">
<ele>105.492188</ele>
<time>2012-07-19T19:09:06Z</time>
<speed>0.020000</speed>
<extensions>
<speed>0.0</speed>
<temp>0.00</temp>
<bpm>0</bpm>
<rpm>0.00</rpm>
</extensions>
</trkpt>
<trkpt lat="64.310585022" lon="-20.305349350">
<ele>105.351563</ele>
<time>2012-07-19T19:09:11Z</time>
<speed>0.030000</speed>
<extensions>
<speed>0.0</speed>
<temp>0.00</temp>
<bpm>0</bpm>
<rpm>0.00</rpm>
</extensions>
</trkpt>
<trkpt lat="64.310585022" lon="-20.305349350">
<ele>105.277344</ele>
<time>2012-07-19T19:09:16Z</time>
<extensions>
<speed>0.0</speed>
<temp>0.00</temp>
<bpm>0</bpm>
<rpm>0.00</rpm>
</extensions>
</trkpt>
<trkpt lat="64.310585022" lon="-20.305349350">
<ele>105.279297</ele>
<time>2012-07-19T19:09:21Z</time>
<extensions>
<speed>0.0</speed>
<temp>0.00</temp>
<bpm>0</bpm>
<rpm>0.00</rpm>
</extensions>
</trkpt>
<trkpt lat="64.310585022" lon="-20.305349350">
<ele>105.281250</ele>
<time>2012-07-19T19:09:26Z</time>
<extensions>
<speed>0.0</speed>
<temp>0.00</temp>
<bpm>0</bpm>
<rpm>0.00</rpm>
</extensions>
</trkpt>
<trkpt lat="64.310585022" lon="-20.305349350">
<ele>105.283203</ele>
<time>2012-07-19T19:09:31Z</time>
<speed>0.010000</speed>
<extensions>
<speed>0.0</speed>
<temp>0.00</temp>
<bpm>0</bpm>
<rpm>0.00</rpm>
</extensions>
</trkpt>
<trkpt lat="64.310585022" lon="-20.305349350">
<ele>105.279297</ele>
<time>2012-07-19T19:09:36Z</time>
<speed>0.010000</speed>
<extensions>
<speed>0.0</speed>
<temp>0.00</temp>
<bpm>0</bpm>
<rpm>0.00</rpm>
</extensions>
</trkpt>
<trkpt lat="64.310585022" lon="-20.305349350">
<ele>105.277344</ele>
<time>2012-07-19T19:09:41Z</time>
<extensions>
<speed>0.0</speed>
<temp>0.00</temp>
<bpm>0</bpm>
<rpm>0.00</rpm>
</extensions>
</trkpt>
<trkpt lat="64.310585022" lon="-20.305347443">
<ele>105.279297</ele>
<time>2012-07-19T19:09:46Z</time>
<extensions>
<speed>0.0</speed>
<temp>0.00</temp>
<bpm>0</bpm>
<rpm>0.00</rpm>
</extensions>
</trkpt>
<trkpt lat="64.310585022" lon="-20.305347443">
<ele>105.281250</ele>
<time>2012-07-19T19:09:51Z</time>
<extensions>
<speed>0.0</speed>
<temp>0.00</temp>
<bpm>0</bpm>
<rpm>0.00</rpm>
</extensions>
</trkpt>
<trkpt lat="64.310585022" lon="-20.305347443">
<ele>105.271484</ele>
<time>2012-07-19T19:09:56Z</time>
<extensions>
<speed>0.0</speed>
<temp>0.00</temp>
<bpm>0</bpm>
<rpm>0.00</rpm>
</extensions>
</trkpt>
<trkpt lat="64.310585022" lon="-20.305347443">
<ele>105.269531</ele>
<time>2012-07-19T19:10:01Z</time>
<extensions>
<speed>0.0</speed>
<temp>0.00</temp>
<bpm>0</bpm>
<rpm>0.00</rpm>
</extensions>
</trkpt>
<trkpt lat="64.310585022" lon="-20.305347443">
<ele>105.265625</ele>
<time>2012-07-19T19:10:06Z</time>
<speed>0.010000</speed>
<extensions>
<speed>0.0</speed>
<temp>0.00</temp>
<bpm>0</bpm>
<rpm>0.00</rpm>
</extensions>
</trkpt>
<trkpt lat="64.310585022" lon="-20.305347443">
<ele>105.267578</ele>
<time>2012-07-19T19:10:11Z</time>
<extensions>
<speed>0.0</speed>
<temp>0.00</temp>
<bpm>0</bpm>
<rpm>0.00</rpm>
</extensions>
</trkpt>
<trkpt lat="64.310585022" lon="-20.305347443">
<ele>105.273438</ele>
<time>2012-07-19T19:10:16Z</time>
<speed>0.010000</speed>
<extensions>
<speed>0.0</speed>
<temp>0.00</temp>
<bpm>0</bpm>
<rpm>0.00</rpm>
</extensions>
</trkpt>
<trkpt lat="64.310585022" lon="-20.305347443">
<ele>105.273438</ele>
<time>2012-07-19T19:10:21Z</time>
<speed>0.020000</speed>
<extensions>
<speed>0.0</speed>
<temp>0.00</temp>
<bpm>0</bpm>
<rpm>0.00</rpm>
</extensions>
</trkpt>
<trkpt lat="64.310585022" lon="-20.305347443">
<ele>105.269531</ele>
<time>2012-07-19T19:10:26Z</time>
<speed>0.020000</speed>
<extensions>
<speed>0.0</speed>
<temp>0.00</temp>
<bpm>0</bpm>
<rpm>0.00</rpm>
</extensions>
</trkpt>
<trkpt lat="64.310585022" lon="-20.305347443">
<ele>105.277344</ele>
<time>2012-07-19T19:10:31Z</time>
<extensions>
<speed>0.0</speed>
<temp>0.00</temp>
<bpm>0</bpm>
<rpm>0.00</rpm>
</extensions>
</trkpt>
<trkpt lat="64.310585022" lon="-20.305347443">
<ele>105.281250</ele>
<time>2012-07-19T19:10:36Z</time>
<speed>0.010000</speed>
<extensions>
<speed>0.0</speed>
<temp>0.00</temp>
<bpm>0</bpm>
<rpm>0.00</rpm>
</extensions>
</trkpt>
<trkpt lat="64.310585022" lon="-20.305347443">
<ele>105.287109</ele>
<time>2012-07-19T19:10:41Z</time>
<speed>0.010000</speed>
<extensions>
<speed>0.0</speed>
<temp>0.00</temp>
<bpm>0</bpm>
<rpm>0.00</rpm>
</extensions>
</trkpt>
<trkpt lat="64.310585022" lon="-20.305347443">
<ele>105.292969</ele>
<time>2012-07-19T19:10:46Z</time>
<extensions>
<speed>0.0</speed>
<temp>0.00</temp>
<bpm>0</bpm>
<rpm>0.00</rpm>
</extensions>
</trkpt>
<trkpt lat="64.310585022" lon="-20.305347443">
<ele>105.294922</ele>
<time>2012-07-19T19:10:51Z</time>
<speed>0.020000</speed>
<extensions>
<speed>0.0</speed>
<temp>0.00</temp>
<bpm>0</bpm>
<rpm>0.00</rpm>
</extensions>
</trkpt>
<trkpt lat="64.310577393" lon="-20.305345535">
<ele>105.294922</ele>
<time>2012-07-19T19:10:56Z</time>
<speed>0.010000</speed>
<extensions>
<speed>0.0</speed>
<temp>0.00</temp>
<bpm>0</bpm>
<rpm>0.00</rpm>
</extensions>
</trkpt>
<trkpt lat="64.310577393" lon="-20.305345535">
<ele>105.302734</ele>
<time>2012-07-19T19:11:01Z</time>
<extensions>
<speed>0.0</speed>
<temp>0.00</temp>
<bpm>0</bpm>
<rpm>0.00</rpm>
</extensions>
</trkpt>
<trkpt lat="64.310577393" lon="-20.305345535">
<ele>105.308594</ele>
<time>2012-07-19T19:11:06Z</time>
<speed>0.010000</speed>
<extensions>
<speed>0.0</speed>
<temp>0.00</temp>
<bpm>0</bpm>
<rpm>0.00</rpm>
</extensions>
</trkpt>
<trkpt lat="64.310577393" lon="-20.305345535">
<ele>105.306641</ele>
<time>2012-07-19T19:11:11Z</time>
<extensions>
<speed>0.0</speed>
<temp>0.00</temp>
<bpm>0</bpm>
<rpm>0.00</rpm>
</extensions>
</trkpt>
<trkpt lat="64.310577393" lon="-20.305345535">
<ele>105.298828</ele>
<time>2012-07-19T19:11:16Z</time>
<extensions>
<speed>0.0</speed>
<temp>0.00</temp>
<bpm>0</bpm>
<rpm>0.00</rpm>
</extensions>
</trkpt>
<trkpt lat="64.310577393" lon="-20.305345535">
<ele>105.294922</ele>
<time>2012-07-19T19:11:21Z</time>
<speed>0.010000</speed>
<extensions>
<speed>0.0</speed>
<temp>0.00</temp>
<bpm>0</bpm>
<rpm>0.00</rpm>
</extensions>
</trkpt>
<trkpt lat="64.310577393" lon="-20.305345535">
<ele>105.298828</ele>
<time>2012-07-19T19:11:26Z</time>
<speed>0.010000</speed>
<extensions>
<speed>0.0</speed>
<temp>0.00</temp>
<bpm>0</bpm>
<rpm>0.00</rpm>
</extensions>
</trkpt>
<trkpt lat="64.310577393" lon="-20.305345535">
<ele>105.296875</ele>
<time>2012-07-19T19:11:31Z</time>
<extensions>
<speed>0.0</speed>
<temp>0.00</temp>
<bpm>0</bpm>
<rpm>0.00</rpm>
</extensions>
</trkpt>
<trkpt lat="64.310577393" lon="-20.305345535">
<ele>105.296875</ele>
<time>2012-07-19T19:11:36Z</time>
<speed>0.010000</speed>
<extensions>
<speed>0.0</speed>
<temp>0.00</temp>
<bpm>0</bpm>
<rpm>0.00</rpm>
</extensions>
</trkpt>
<trkpt lat="64.310577393" lon="-20.305345535">
<ele>105.287109</ele>
<time>2012-07-19T19:11:41Z</time>
<speed>0.020000</speed>
<extensions>
<speed>0.0</speed>
<temp>0.00</temp>
<bpm>0</bpm>
<rpm>0.00</rpm>
</extensions>
</trkpt>
<trkpt lat="64.310577393" lon="-20.305343628">
<ele>105.291016</ele>
<time>2012-07-19T19:11:46Z</time>
<speed>0.010000</speed>
<extensions>
<speed>0.0</speed>
<temp>0.00</temp>
<bpm>0</bpm>
<rpm>0.00</rpm>
</extensions>
</trkpt>
<trkpt lat="64.310577393" lon="-20.305343628">
<ele>105.292969</ele>
<time>2012-07-19T19:11:51Z</time>
<speed>0.010000</speed>
<extensions>
<speed>0.0</speed>
<temp>0.00</temp>
<bpm>0</bpm>
<rpm>0.00</rpm>
</extensions>
</trkpt>
<trkpt lat="64.310577393" lon="-20.305343628">
<ele>105.292969</ele>
<time>2012-07-19T19:11:56Z</time>
<speed>0.010000</speed>
<extensions>
<speed>0.0</speed>
<temp>0.00</temp>
<bpm>0</bpm>
<rpm>0.00</rpm>
</extensions>
</trkpt>
<trkpt lat="64.310577393" lon="-20.305343628">
<ele>105.294922</ele>
<time>2012-07-19T19:12:01Z</time>
<extensions>
<speed>0.0</speed>
<temp>0.00</temp>
<bpm>0</bpm>
<rpm>0.00</rpm>
</extensions>
</trkpt>
<trkpt lat="64.310577393" lon="-20.305343628">
<ele>105.292969</ele>
<time>2012-07-19T19:12:06Z</time>
<extensions>
<speed>0.0</speed>
<temp>0.00</temp>
<bpm>0</bpm>
<rpm>0.00</rpm>
</extensions>
</trkpt>
<trkpt lat="64.310577393" lon="-20.305343628">
<ele>105.296875</ele>
<time>2012-07-19T19:12:11Z</time>
<extensions>
<speed>0.0</speed>
<temp>0.00</temp>
<bpm>0</bpm>
<rpm>0.00</rpm>
</extensions>
</trkpt>
<trkpt lat="64.310577393" lon="-20.305343628">
<ele>105.296875</ele>
<time>2012-07-19T19:12:16Z</time>
<speed>0.010000</speed>
<extensions>
<speed>0.0</speed>
<temp>0.00</temp>
<bpm>0</bpm>
<rpm>0.00</rpm>
</extensions>
</trkpt>
<trkpt lat="64.310577393" lon="-20.305343628">
<ele>105.296875</ele>
<time>2012-07-19T19:12:21Z</time>
<speed>0.010000</speed>
<extensions>
<speed>0.0</speed>
<temp>0.00</temp>
<bpm>0</bpm>
<rpm>0.00</rpm>
</extensions>
</trkpt>
<trkpt lat="64.310577393" lon="-20.305343628">
<ele>105.292969</ele>
<time>2012-07-19T19:12:26Z</time>
<extensions>
<speed>0.0</speed>
<temp>0.00</temp>
<bpm>0</bpm>
<rpm>0.00</rpm>
</extensions>
</trkpt>
<trkpt lat="64.310577393" lon="-20.305343628">
<ele>105.283203</ele>
<time>2012-07-19T19:12:31Z</time>
<extensions>
<speed>0.0</speed>
<temp>0.00</temp>
<bpm>0</bpm>
<rpm>0.00</rpm>
</extensions>
</trkpt>
<trkpt lat="64.310577393" lon="-20.305343628">
<ele>105.265625</ele>
<time>2012-07-19T19:12:36Z</time>
<speed>0.010000</speed>
<extensions>
<speed>0.0</speed>
<temp>0.00</temp>
<bpm>0</bpm>
<rpm>0.00</rpm>
</extensions>
</trkpt>
<trkpt lat="64.310577393" lon="-20.305343628">
<ele>105.259766</ele>
<time>2012-07-19T19:12:41Z</time>
<extensions>
<speed>0.0</speed>
<temp>0.00</temp>
<bpm>0</bpm>
<rpm>0.00</rpm>
</extensions>
</trkpt>
<trkpt lat="64.310577393" lon="-20.305343628">
<ele>105.269531</ele>
<time>2012-07-19T19:12:46Z</time>
<speed>0.020000</speed>
<extensions>
<speed>0.0</speed>
<temp>0.00</temp>
<bpm>0</bpm>
<rpm>0.00</rpm>
</extensions>
</trkpt>
<trkpt lat="64.310577393" lon="-20.305343628">
<ele>105.285156</ele>
<time>2012-07-19T19:12:51Z</time>
<extensions>
<speed>0.0</speed>
<temp>0.00</temp>
<bpm>0</bpm>
<rpm>0.00</rpm>
</extensions>
</trkpt>
<trkpt lat="64.310577393" lon="-20.305343628">
<ele>105.283203</ele>
<time>2012-07-19T19:12:56Z</time>
<extensions>
<speed>0.0</speed>
<temp>0.00</temp>
<bpm>0</bpm>
<rpm>0.00</rpm>
</extensions>
</trkpt>
<trkpt lat="64.310577393" lon="-20.305343628">
<ele>105.275391</ele>
<time>2012-07-19T19:13:01Z</time>
<speed>0.010000</speed>
<extensions>
<speed>0.0</speed>
<temp>0.00</temp>
<bpm>0</bpm>
<rpm>0.00</rpm>
</extensions>
</trkpt>
<trkpt lat="64.310577393" lon="-20.305343628">
<ele>105.283203</ele>
<time>2012-07-19T19:13:06Z</time>
<speed>0.030000</speed>
<extensions>
<speed>0.0</speed>
<temp>0.00</temp>
<bpm>0</bpm>
<rpm>0.00</rpm>
</extensions>
</trkpt>
<trkpt lat="64.310577393" lon="-20.305343628">
<ele>105.316406</ele>
<time>2012-07-19T19:13:11Z</time>
<extensions>
<speed>0.0</speed>
<temp>0.00</temp>
<bpm>0</bpm>
<rpm>0.00</rpm>
</extensions>
</trkpt>
<trkpt lat="64.310577393" lon="-20.305343628">
<ele>105.312500</ele>
<time>2012-07-19T19:13:16Z</time>
<speed>0.010000</speed>
<extensions>
<speed>0.0</speed>
<temp>0.00</temp>
<bpm>0</bpm>
<rpm>0.00</rpm>
</extensions>
</trkpt>
<trkpt lat="64.310577393" lon="-20.305343628">
<ele>105.314453</ele>
<time>2012-07-19T19:13:21Z</time>
<speed>0.020000</speed>
<extensions>
<speed>0.0</speed>
<temp>0.00</temp>
<bpm>0</bpm>
<rpm>0.00</rpm>
</extensions>
</trkpt>
<trkpt lat="64.310577393" lon="-20.305343628">
<ele>105.318359</ele>
<time>2012-07-19T19:13:26Z</time>
<speed>0.010000</speed>
<extensions>
<speed>0.0</speed>
<temp>0.00</temp>
<bpm>0</bpm>
<rpm>0.00</rpm>
</extensions>
</trkpt>
<trkpt lat="64.310577393" lon="-20.305341721">
<ele>105.310547</ele>
<time>2012-07-19T19:13:31Z</time>
<extensions>
<speed>0.0</speed>
<temp>0.00</temp>
<bpm>0</bpm>
<rpm>0.00</rpm>
</extensions>
</trkpt>
<trkpt lat="64.310577393" lon="-20.305341721">
<ele>105.310547</ele>
<time>2012-07-19T19:13:36Z</time>
<speed>0.010000</speed>
<extensions>
<speed>0.0</speed>
<temp>0.00</temp>
<bpm>0</bpm>
<rpm>0.00</rpm>
</extensions>
</trkpt>
<trkpt lat="64.310577393" lon="-20.305341721">
<ele>105.318359</ele>
<time>2012-07-19T19:13:41Z</time>
<speed>0.010000</speed>
<extensions>
<speed>0.0</speed>
<temp>0.00</temp>
<bpm>0</bpm>
<rpm>0.00</rpm>
</extensions>
</trkpt>
<trkpt lat="64.310577393" lon="-20.305341721">
<ele>105.314453</ele>
<time>2012-07-19T19:13:46Z</time>
<extensions>
<speed>0.0</speed>
<temp>0.00</temp>
<bpm>0</bpm>
<rpm>0.00</rpm>
</extensions>
</trkpt>
<trkpt lat="64.310577393" lon="-20.305343628">
<ele>105.314453</ele>
<time>2012-07-19T19:13:51Z</time>
<extensions>
<speed>0.0</speed>
<temp>0.00</temp>
<bpm>0</bpm>
<rpm>0.00</rpm>
</extensions>
</trkpt>
<trkpt lat="64.310577393" lon="-20.305343628">
<ele>105.318359</ele>
<time>2012-07-19T19:13:56Z</time>
<speed>0.010000</speed>
<extensions>
<speed>0.0</speed>
<temp>0.00</temp>
<bpm>0</bpm>
<rpm>0.00</rpm>
</extensions>
</trkpt>
<trkpt lat="64.310577393" lon="-20.305343628">
<ele>105.308594</ele>
<time>2012-07-19T19:14:01Z</time>
<extensions>
<speed>0.0</speed>
<temp>0.00</temp>
<bpm>0</bpm>
<rpm>0.00</rpm>
</extensions>
</trkpt>
<trkpt lat="64.310577393" lon="-20.305343628">
<ele>105.298828</ele>
<time>2012-07-19T19:14:06Z</time>
<speed>0.010000</speed>
<extensions>
<speed>0.0</speed>
<temp>0.00</temp>
<bpm>0</bpm>
<rpm>0.00</rpm>
</extensions>
</trkpt>
<trkpt lat="64.310577393" lon="-20.305343628">
<ele>105.291016</ele>
<time>2012-07-19T19:14:11Z</time>
<extensions>
<speed>0.0</speed>
<temp>0.00</temp>
<bpm>0</bpm>
<rpm>0.00</rpm>
</extensions>
</trkpt>
<trkpt lat="64.310577393" lon="-20.305343628">
<ele>105.292969</ele>
<time>2012-07-19T19:14:16Z</time>
<speed>0.010000</speed>
<extensions>
<speed>0.0</speed>
<temp>0.00</temp>
<bpm>0</bpm>
<rpm>0.00</rpm>
</extensions>
</trkpt>
<trkpt lat="64.310577393" lon="-20.305343628">
<ele>105.291016</ele>
<time>2012-07-19T19:14:21Z</time>
<speed>0.010000</speed>
<extensions>
<speed>0.0</speed>
<temp>0.00</temp>
<bpm>0</bpm>
<rpm>0.00</rpm>
</extensions>
</trkpt>
<trkpt lat="64.310577393" lon="-20.305343628">
<ele>105.283203</ele>
<time>2012-07-19T19:14:26Z</time>
<extensions>
<speed>0.0</speed>
<temp>0.00</temp>
<bpm>0</bpm>
<rpm>0.00</rpm>
</extensions>
</trkpt>
<trkpt lat="64.310577393" lon="-20.305343628">
<ele>105.283203</ele>
<time>2012-07-19T19:14:31Z</time>
<speed>0.010000</speed>
<extensions>
<speed>0.0</speed>
<temp>0.00</temp>
<bpm>0</bpm>
<rpm>0.00</rpm>
</extensions>
</trkpt>
<trkpt lat="64.310577393" lon="-20.305343628">
<ele>105.275391</ele>
<time>2012-07-19T19:14:36Z</time>
<speed>0.020000</speed>
<extensions>
<speed>0.0</speed>
<temp>0.00</temp>
<bpm>0</bpm>
<rpm>0.00</rpm>
</extensions>
</trkpt>
<trkpt lat="64.310577393" lon="-20.305343628">
<ele>105.269531</ele>
<time>2012-07-19T19:14:41Z</time>
<extensions>
<speed>0.0</speed>
<temp>0.00</temp>
<bpm>0</bpm>
<rpm>0.00</rpm>
</extensions>
</trkpt>
<trkpt lat="64.310577393" lon="-20.305343628">
<ele>105.281250</ele>
<time>2012-07-19T19:14:46Z</time>
<speed>0.010000</speed>
<extensions>
<speed>0.0</speed>
<temp>0.00</temp>
<bpm>0</bpm>
<rpm>0.00</rpm>
</extensions>
</trkpt>
<trkpt lat="64.310577393" lon="-20.305343628">
<ele>105.291016</ele>
<time>2012-07-19T19:14:51Z</time>
<speed>0.020000</speed>
<extensions>
<speed>0.0</speed>
<temp>0.00</temp>
<bpm>0</bpm>
<rpm>0.00</rpm>
</extensions>
</trkpt>
<trkpt lat="64.310577393" lon="-20.305343628">
<ele>105.296875</ele>
<time>2012-07-19T19:14:56Z</time>
<extensions>
<speed>0.0</speed>
<temp>0.00</temp>
<bpm>0</bpm>
<rpm>0.00</rpm>
</extensions>
</trkpt>
<trkpt lat="64.310577393" lon="-20.305343628">
<ele>105.298828</ele>
<time>2012-07-19T19:15:01Z</time>
<extensions>
<speed>0.0</speed>
<temp>0.00</temp>
<bpm>0</bpm>
<rpm>0.00</rpm>
</extensions>
</trkpt>
<trkpt lat="64.310577393" lon="-20.305343628">
<ele>105.308594</ele>
<time>2012-07-19T19:15:06Z</time>
<extensions>
<speed>0.0</speed>
<temp>0.00</temp>
<bpm>0</bpm>
<rpm>0.00</rpm>
</extensions>
</trkpt>
<trkpt lat="64.310577393" lon="-20.305343628">
<ele>105.306641</ele>
<time>2012-07-19T19:15:11Z</time>
<extensions>
<speed>0.0</speed>
<temp>0.00</temp>
<bpm>0</bpm>
<rpm>0.00</rpm>
</extensions>
</trkpt>
<trkpt lat="64.310577393" lon="-20.305343628">
<ele>105.300781</ele>
<time>2012-07-19T19:15:16Z</time>
<extensions>
<speed>0.0</speed>
<temp>0.00</temp>
<bpm>0</bpm>
<rpm>0.00</rpm>
</extensions>
</trkpt>
<trkpt lat="64.310577393" lon="-20.305343628">
<ele>105.302734</ele>
<time>2012-07-19T19:15:21Z</time>
<extensions>
<speed>0.0</speed>
<temp>0.00</temp>
<bpm>0</bpm>
<rpm>0.00</rpm>
</extensions>
</trkpt>
<trkpt lat="64.310577393" lon="-20.305343628">
<ele>105.300781</ele>
<time>2012-07-19T19:15:26Z</time>
<speed>0.010000</speed>
<extensions>
<speed>0.0</speed>
<temp>0.00</temp>
<bpm>0</bpm>
<rpm>0.00</rpm>
</extensions>
</trkpt>
<trkpt lat="64.310577393" lon="-20.305343628">
<ele>105.304688</ele>
<time>2012-07-19T19:15:31Z</time>
<extensions>
<speed>0.0</speed>
<temp>0.00</temp>
<bpm>0</bpm>
<rpm>0.00</rpm>
</extensions>
</trkpt>
<trkpt lat="64.310577393" lon="-20.305343628">
<ele>105.304688</ele>
<time>2012-07-19T19:15:36Z</time>
<extensions>
<speed>0.0</speed>
<temp>0.00</temp>
<bpm>0</bpm>
<rpm>0.00</rpm>
</extensions>
</trkpt>
<trkpt lat="64.310577393" lon="-20.305343628">
<ele>105.302734</ele>
<time>2012-07-19T19:15:41Z</time>
<extensions>
<speed>0.0</speed>
<temp>0.00</temp>
<bpm>0</bpm>
<rpm>0.00</rpm>
</extensions>
</trkpt>
<trkpt lat="64.310577393" lon="-20.305343628">
<ele>105.306641</ele>
<time>2012-07-19T19:15:46Z</time>
<extensions>
<speed>0.0</speed>
<temp>0.00</temp>
<bpm>0</bpm>
<rpm>0.00</rpm>
</extensions>
</trkpt>
<trkpt lat="64.310569763" lon="-20.305343628">
<ele>105.302734</ele>
<time>2012-07-19T19:15:51Z</time>
<extensions>
<speed>0.0</speed>
<temp>0.00</temp>
<bpm>0</bpm>
<rpm>0.00</rpm>
</extensions>
</trkpt>
<trkpt lat="64.310569763" lon="-20.305343628">
<ele>105.298828</ele>
<time>2012-07-19T19:15:56Z</time>
<speed>0.010000</speed>
<extensions>
<speed>0.0</speed>
<temp>0.00</temp>
<bpm>0</bpm>
<rpm>0.00</rpm>
</extensions>
</trkpt>
<trkpt lat="64.310569763" lon="-20.305343628">
<ele>105.298828</ele>
<time>2012-07-19T19:16:01Z</time>
<speed>0.020000</speed>
<extensions>
<speed>0.0</speed>
<temp>0.00</temp>
<bpm>0</bpm>
<rpm>0.00</rpm>
</extensions>
</trkpt>
<trkpt lat="64.310569763" lon="-20.305337906">
<ele>105.177734</ele>
<time>2012-07-19T19:16:06Z</time>
<speed>0.010000</speed>
<extensions>
<speed>0.0</speed>
<temp>0.00</temp>
<bpm>0</bpm>
<rpm>0.00</rpm>
</extensions>
</trkpt>
<trkpt lat="64.310569763" lon="-20.305337906">
<ele>105.183594</ele>
<time>2012-07-19T19:16:11Z</time>
<speed>0.010000</speed>
<extensions>
<speed>0.0</speed>
<temp>0.00</temp>
<bpm>0</bpm>
<rpm>0.00</rpm>
</extensions>
</trkpt>
<trkpt lat="64.310569763" lon="-20.305337906">
<ele>105.175781</ele>
<time>2012-07-19T19:16:16Z</time>
<extensions>
<speed>0.0</speed>
<temp>0.00</temp>
<bpm>0</bpm>
<rpm>0.00</rpm>
</extensions>
</trkpt>
<trkpt lat="64.310569763" lon="-20.305337906">
<ele>105.181641</ele>
<time>2012-07-19T19:16:21Z</time>
<extensions>
<speed>0.0</speed>
<temp>0.00</temp>
<bpm>0</bpm>
<rpm>0.00</rpm>
</extensions>
</trkpt>
<trkpt lat="64.310569763" lon="-20.305337906">
<ele>105.187500</ele>
<time>2012-07-19T19:16:26Z</time>
<extensions>
<speed>0.0</speed>
<temp>0.00</temp>
<bpm>0</bpm>
<rpm>0.00</rpm>
</extensions>
</trkpt>
<trkpt lat="64.310569763" lon="-20.305337906">
<ele>105.187500</ele>
<time>2012-07-19T19:16:31Z</time>
<extensions>
<speed>0.0</speed>
<temp>0.00</temp>
<bpm>0</bpm>
<rpm>0.00</rpm>
</extensions>
</trkpt>
<trkpt lat="64.310569763" lon="-20.305337906">
<ele>105.187500</ele>
<time>2012-07-19T19:16:36Z</time>
<speed>0.010000</speed>
<extensions>
<speed>0.0</speed>
<temp>0.00</temp>
<bpm>0</bpm>
<rpm>0.00</rpm>
</extensions>
</trkpt>
<trkpt lat="64.310569763" lon="-20.305337906">
<ele>105.193359</ele>
<time>2012-07-19T19:16:41Z</time>
<extensions>
<speed>0.0</speed>
<temp>0.00</temp>
<bpm>0</bpm>
<rpm>0.00</rpm>
</extensions>
</trkpt>
<trkpt lat="64.310569763" lon="-20.305337906">
<ele>105.199219</ele>
<time>2012-07-19T19:16:46Z</time>
<extensions>
<speed>0.0</speed>
<temp>0.00</temp>
<bpm>0</bpm>
<rpm>0.00</rpm>
</extensions>
</trkpt>
<trkpt lat="64.310569763" lon="-20.305337906">
<ele>105.199219</ele>
<time>2012-07-19T19:16:51Z</time>
<speed>0.030000</speed>
<extensions>
<speed>0.0</speed>
<temp>0.00</temp>
<bpm>0</bpm>
<rpm>0.00</rpm>
</extensions>
</trkpt>
<trkpt lat="64.310569763" lon="-20.305337906">
<ele>105.222656</ele>
<time>2012-07-19T19:16:56Z</time>
<speed>0.010000</speed>
<extensions>
<speed>0.0</speed>
<temp>0.00</temp>
<bpm>0</bpm>
<rpm>0.00</rpm>
</extensions>
</trkpt>
<trkpt lat="64.310569763" lon="-20.305337906">
<ele>105.218750</ele>
<time>2012-07-19T19:17:01Z</time>
<extensions>
<speed>0.0</speed>
<temp>0.00</temp>
<bpm>0</bpm>
<rpm>0.00</rpm>
</extensions>
</trkpt>
<trkpt lat="64.310569763" lon="-20.305337906">
<ele>105.212891</ele>
<time>2012-07-19T19:17:06Z</time>
<extensions>
<speed>0.0</speed>
<temp>0.00</temp>
<bpm>0</bpm>
<rpm>0.00</rpm>
</extensions>
</trkpt>
<trkpt lat="64.310569763" lon="-20.305337906">
<ele>105.216797</ele>
<time>2012-07-19T19:17:11Z</time>
<extensions>
<speed>0.0</speed>
<temp>0.00</temp>
<bpm>0</bpm>
<rpm>0.00</rpm>
</extensions>
</trkpt>
<trkpt lat="64.310569763" lon="-20.305335999">
<ele>105.220703</ele>
<time>2012-07-19T19:17:16Z</time>
<speed>0.020000</speed>
<extensions>
<speed>0.0</speed>
<temp>0.00</temp>
<bpm>0</bpm>
<rpm>0.00</rpm>
</extensions>
</trkpt>
<trkpt lat="64.310569763" lon="-20.305335999">
<ele>105.218750</ele>
<time>2012-07-19T19:17:21Z</time>
<extensions>
<speed>0.0</speed>
<temp>0.00</temp>
<bpm>0</bpm>
<rpm>0.00</rpm>
</extensions>
</trkpt>
<trkpt lat="64.310569763" lon="-20.305335999">
<ele>105.226563</ele>
<time>2012-07-19T19:17:26Z</time>
<speed>0.010000</speed>
<extensions>
<speed>0.0</speed>
<temp>0.00</temp>
<bpm>0</bpm>
<rpm>0.00</rpm>
</extensions>
</trkpt>
<trkpt lat="64.310569763" lon="-20.305335999">
<ele>105.232422</ele>
<time>2012-07-19T19:17:31Z</time>
<speed>0.010000</speed>
<extensions>
<speed>0.0</speed>
<temp>0.00</temp>
<bpm>0</bpm>
<rpm>0.00</rpm>
</extensions>
</trkpt>
<trkpt lat="64.310569763" lon="-20.305335999">
<ele>105.222656</ele>
<time>2012-07-19T19:17:36Z</time>
<extensions>
<speed>0.0</speed>
<temp>0.00</temp>
<bpm>0</bpm>
<rpm>0.00</rpm>
</extensions>
</trkpt>
<trkpt lat="64.310569763" lon="-20.305335999">
<ele>105.216797</ele>
<time>2012-07-19T19:17:41Z</time>
<extensions>
<speed>0.0</speed>
<temp>0.00</temp>
<bpm>0</bpm>
<rpm>0.00</rpm>
</extensions>
</trkpt>
<trkpt lat="64.310569763" lon="-20.305335999">
<ele>105.220703</ele>
<time>2012-07-19T19:17:46Z</time>
<speed>0.010000</speed>
<extensions>
<speed>0.0</speed>
<temp>0.00</temp>
<bpm>0</bpm>
<rpm>0.00</rpm>
</extensions>
</trkpt>
<trkpt lat="64.310569763" lon="-20.305335999">
<ele>105.222656</ele>
<time>2012-07-19T19:17:51Z</time>
<extensions>
<speed>0.0</speed>
<temp>0.00</temp>
<bpm>0</bpm>
<rpm>0.00</rpm>
</extensions>
</trkpt>
<trkpt lat="64.310569763" lon="-20.305335999">
<ele>105.234375</ele>
<time>2012-07-19T19:17:56Z</time>
<speed>0.270000</speed>
<extensions>
<speed>0.3</speed>
<temp>0.00</temp>
<bpm>0</bpm>
<rpm>0.00</rpm>
</extensions>
</trkpt>
<trkpt lat="64.310569763" lon="-20.305335999">
<ele>105.242188</ele>
<time>2012-07-19T19:18:01Z</time>
<extensions>
<speed>0.0</speed>
<temp>0.00</temp>
<bpm>0</bpm>
<rpm>0.00</rpm>
</extensions>
</trkpt>
<trkpt lat="64.310569763" lon="-20.305335999">
<ele>105.242188</ele>
<time>2012-07-19T19:18:06Z</time>
<speed>0.020000</speed>
<extensions>
<speed>0.0</speed>
<temp>0.00</temp>
<bpm>0</bpm>
<rpm>0.00</rpm>
</extensions>
</trkpt>
<trkpt lat="64.310569763" lon="-20.305335999">
<ele>105.234375</ele>
<time>2012-07-19T19:18:11Z</time>
<extensions>
<speed>0.0</speed>
<temp>0.00</temp>
<bpm>0</bpm>
<rpm>0.00</rpm>
</extensions>
</trkpt>
<trkpt lat="64.310569763" lon="-20.305335999">
<ele>105.234375</ele>
<time>2012-07-19T19:18:16Z</time>
<speed>0.010000</speed>
<extensions>
<speed>0.0</speed>
<temp>0.00</temp>
<bpm>0</bpm>
<rpm>0.00</rpm>
</extensions>
</trkpt>
<trkpt lat="64.310569763" lon="-20.305335999">
<ele>105.228516</ele>
<time>2012-07-19T19:18:21Z</time>
<extensions>
<speed>0.0</speed>
<temp>0.00</temp>
<bpm>0</bpm>
<rpm>0.00</rpm>
</extensions>
</trkpt>
<trkpt lat="64.310569763" lon="-20.305334091">
<ele>105.228516</ele>
<time>2012-07-19T19:18:26Z</time>
<extensions>
<speed>0.0</speed>
<temp>0.00</temp>
<bpm>0</bpm>
<rpm>0.00</rpm>
</extensions>
</trkpt>
<trkpt lat="64.310569763" lon="-20.305334091">
<ele>105.224609</ele>
<time>2012-07-19T19:18:31Z</time>
<speed>0.010000</speed>
<extensions>
<speed>0.0</speed>
<temp>0.00</temp>
<bpm>0</bpm>
<rpm>0.00</rpm>
</extensions>
</trkpt>
<trkpt lat="64.310569763" lon="-20.305334091">
<ele>105.224609</ele>
<time>2012-07-19T19:18:36Z</time>
<extensions>
<speed>0.0</speed>
<temp>0.00</temp>
<bpm>0</bpm>
<rpm>0.00</rpm>
</extensions>
</trkpt>
<trkpt lat="64.310569763" lon="-20.305334091">
<ele>105.224609</ele>
<time>2012-07-19T19:18:41Z</time>
<extensions>
<speed>0.0</speed>
<temp>0.00</temp>
<bpm>0</bpm>
<rpm>0.00</rpm>
</extensions>
</trkpt>
<trkpt lat="64.310569763" lon="-20.305334091">
<ele>105.224609</ele>
<time>2012-07-19T19:18:46Z</time>
<extensions>
<speed>0.0</speed>
<temp>0.00</temp>
<bpm>0</bpm>
<rpm>0.00</rpm>
</extensions>
</trkpt>
<trkpt lat="64.310569763" lon="-20.305334091">
<ele>105.220703</ele>
<time>2012-07-19T19:18:51Z</time>
<extensions>
<speed>0.0</speed>
<temp>0.00</temp>
<bpm>0</bpm>
<rpm>0.00</rpm>
</extensions>
</trkpt>
<trkpt lat="64.310569763" lon="-20.305334091">
<ele>105.218750</ele>
<time>2012-07-19T19:18:56Z</time>
<extensions>
<speed>0.0</speed>
<temp>0.00</temp>
<bpm>0</bpm>
<rpm>0.00</rpm>
</extensions>
</trkpt>
<trkpt lat="64.310569763" lon="-20.305334091">
<ele>105.214844</ele>
<time>2012-07-19T19:19:01Z</time>
<speed>0.010000</speed>
<extensions>
<speed>0.0</speed>
<temp>0.00</temp>
<bpm>0</bpm>
<rpm>0.00</rpm>
</extensions>
</trkpt>
<trkpt lat="64.310569763" lon="-20.305330276">
<ele>105.285156</ele>
<time>2012-07-19T19:19:06Z</time>
<speed>0.070000</speed>
<extensions>
<speed>0.1</speed>
<temp>0.00</temp>
<bpm>0</bpm>
<rpm>0.00</rpm>
</extensions>
</trkpt>
<trkpt lat="64.310569763" lon="-20.305322647">
<ele>105.433594</ele>
<time>2012-07-19T19:19:11Z</time>
<speed>0.010000</speed>
<extensions>
<speed>0.0</speed>
<temp>0.00</temp>
<bpm>0</bpm>
<rpm>0.00</rpm>
</extensions>
</trkpt>
<trkpt lat="64.310569763" lon="-20.305322647">
<ele>105.435547</ele>
<time>2012-07-19T19:19:16Z</time>
<speed>0.010000</speed>
<extensions>
<speed>0.0</speed>
<temp>0.00</temp>
<bpm>0</bpm>
<rpm>0.00</rpm>
</extensions>
</trkpt>
<trkpt lat="64.310569763" lon="-20.305322647">
<ele>105.437500</ele>
<time>2012-07-19T19:19:21Z</time>
<extensions>
<speed>0.0</speed>
<temp>0.00</temp>
<bpm>0</bpm>
<rpm>0.00</rpm>
</extensions>
</trkpt>
<trkpt lat="64.310569763" lon="-20.305324554">
<ele>105.441406</ele>
<time>2012-07-19T19:19:26Z</time>
<extensions>
<speed>0.0</speed>
<temp>0.00</temp>
<bpm>0</bpm>
<rpm>0.00</rpm>
</extensions>
</trkpt>
<trkpt lat="64.310569763" lon="-20.305324554">
<ele>105.453125</ele>
<time>2012-07-19T19:19:31Z</time>
<extensions>
<speed>0.0</speed>
<temp>0.00</temp>
<bpm>0</bpm>
<rpm>0.00</rpm>
</extensions>
</trkpt>
<trkpt lat="64.310562134" lon="-20.305324554">
<ele>105.455078</ele>
<time>2012-07-19T19:19:36Z</time>
<speed>0.010000</speed>
<extensions>
<speed>0.0</speed>
<temp>0.00</temp>
<bpm>0</bpm>
<rpm>0.00</rpm>
</extensions>
</trkpt>
<trkpt lat="64.310562134" lon="-20.305324554">
<ele>105.457031</ele>
<time>2012-07-19T19:19:41Z</time>
<extensions>
<speed>0.0</speed>
<temp>0.00</temp>
<bpm>0</bpm>
<rpm>0.00</rpm>
</extensions>
</trkpt>
<trkpt lat="64.310562134" lon="-20.305324554">
<ele>105.458984</ele>
<time>2012-07-19T19:19:46Z</time>
<extensions>
<speed>0.0</speed>
<temp>0.00</temp>
<bpm>0</bpm>
<rpm>0.00</rpm>
</extensions>
</trkpt>
<trkpt lat="64.310562134" lon="-20.305324554">
<ele>105.462891</ele>
<time>2012-07-19T19:19:51Z</time>
<extensions>
<speed>0.0</speed>
<temp>0.00</temp>
<bpm>0</bpm>
<rpm>0.00</rpm>
</extensions>
</trkpt>
<trkpt lat="64.310562134" lon="-20.305324554">
<ele>105.470703</ele>
<time>2012-07-19T19:19:56Z</time>
<extensions>
<speed>0.0</speed>
<temp>0.00</temp>
<bpm>0</bpm>
<rpm>0.00</rpm>
</extensions>
</trkpt>
<trkpt lat="64.310562134" lon="-20.305324554">
<ele>105.462891</ele>
<time>2012-07-19T19:20:01Z</time>
<speed>0.010000</speed>
<extensions>
<speed>0.0</speed>
<temp>0.00</temp>
<bpm>0</bpm>
<rpm>0.00</rpm>
</extensions>
</trkpt>
<trkpt lat="64.310562134" lon="-20.305324554">
<ele>105.455078</ele>
<time>2012-07-19T19:20:06Z</time>
<extensions>
<speed>0.0</speed>
<temp>0.00</temp>
<bpm>0</bpm>
<rpm>0.00</rpm>
</extensions>
</trkpt>
<trkpt lat="64.310562134" lon="-20.305324554">
<ele>105.455078</ele>
<time>2012-07-19T19:20:11Z</time>
<speed>0.010000</speed>
<extensions>
<speed>0.0</speed>
<temp>0.00</temp>
<bpm>0</bpm>
<rpm>0.00</rpm>
</extensions>
</trkpt>
<trkpt lat="64.310562134" lon="-20.305324554">
<ele>105.455078</ele>
<time>2012-07-19T19:20:16Z</time>
<extensions>
<speed>0.0</speed>
<temp>0.00</temp>
<bpm>0</bpm>
<rpm>0.00</rpm>
</extensions>
</trkpt>
<trkpt lat="64.310562134" lon="-20.305324554">
<ele>105.453125</ele>
<time>2012-07-19T19:20:21Z</time>
<extensions>
<speed>0.0</speed>
<temp>0.00</temp>
<bpm>0</bpm>
<rpm>0.00</rpm>
</extensions>
</trkpt>
<trkpt lat="64.310562134" lon="-20.305322647">
<ele>105.439453</ele>
<time>2012-07-19T19:20:26Z</time>
<speed>0.010000</speed>
<extensions>
<speed>0.0</speed>
<temp>0.00</temp>
<bpm>0</bpm>
<rpm>0.00</rpm>
</extensions>
</trkpt>
<trkpt lat="64.310562134" lon="-20.305322647">
<ele>105.421875</ele>
<time>2012-07-19T19:20:31Z</time>
<extensions>
<speed>0.0</speed>
<temp>0.00</temp>
<bpm>0</bpm>
<rpm>0.00</rpm>
</extensions>
</trkpt>
<trkpt lat="64.310562134" lon="-20.305322647">
<ele>105.416016</ele>
<time>2012-07-19T19:20:36Z</time>
<extensions>
<speed>0.0</speed>
<temp>0.00</temp>
<bpm>0</bpm>
<rpm>0.00</rpm>
</extensions>
</trkpt>
<trkpt lat="64.310562134" lon="-20.305322647">
<ele>105.414063</ele>
<time>2012-07-19T19:20:41Z</time>
<speed>0.010000</speed>
<extensions>
<speed>0.0</speed>
<temp>0.00</temp>
<bpm>0</bpm>
<rpm>0.00</rpm>
</extensions>
</trkpt>
<trkpt lat="64.310562134" lon="-20.305322647">
<ele>105.417969</ele>
<time>2012-07-19T19:20:46Z</time>
<extensions>
<speed>0.0</speed>
<temp>0.00</temp>
<bpm>0</bpm>
<rpm>0.00</rpm>
</extensions>
</trkpt>
<trkpt lat="64.310562134" lon="-20.305322647">
<ele>105.419922</ele>
<time>2012-07-19T19:20:51Z</time>
<extensions>
<speed>0.0</speed>
<temp>0.00</temp>
<bpm>0</bpm>
<rpm>0.00</rpm>
</extensions>
</trkpt>
<trkpt lat="64.310562134" lon="-20.305322647">
<ele>105.414063</ele>
<time>2012-07-19T19:20:56Z</time>
<extensions>
<speed>0.0</speed>
<temp>0.00</temp>
<bpm>0</bpm>
<rpm>0.00</rpm>
</extensions>
</trkpt>
<trkpt lat="64.310562134" lon="-20.305322647">
<ele>105.406250</ele>
<time>2012-07-19T19:21:01Z</time>
<speed>0.010000</speed>
<extensions>
<speed>0.0</speed>
<temp>0.00</temp>
<bpm>0</bpm>
<rpm>0.00</rpm>
</extensions>
</trkpt>
<trkpt lat="64.310562134" lon="-20.305322647">
<ele>105.400391</ele>
<time>2012-07-19T19:21:06Z</time>
<extensions>
<speed>0.0</speed>
<temp>0.00</temp>
<bpm>0</bpm>
<rpm>0.00</rpm>
</extensions>
</trkpt>
<trkpt lat="64.310562134" lon="-20.305322647">
<ele>105.400391</ele>
<time>2012-07-19T19:21:11Z</time>
<extensions>
<speed>0.0</speed>
<temp>0.00</temp>
<bpm>0</bpm>
<rpm>0.00</rpm>
</extensions>
</trkpt>
<trkpt lat="64.310562134" lon="-20.305322647">
<ele>105.396484</ele>
<time>2012-07-19T19:21:16Z</time>
<speed>0.020000</speed>
<extensions>
<speed>0.0</speed>
<temp>0.00</temp>
<bpm>0</bpm>
<rpm>0.00</rpm>
</extensions>
</trkpt>
<trkpt lat="64.310562134" lon="-20.305322647">
<ele>105.396484</ele>
<time>2012-07-19T19:21:21Z</time>
<extensions>
<speed>0.0</speed>
<temp>0.00</temp>
<bpm>0</bpm>
<rpm>0.00</rpm>
</extensions>
</trkpt>
<trkpt lat="64.310562134" lon="-20.305322647">
<ele>105.390625</ele>
<time>2012-07-19T19:21:26Z</time>
<extensions>
<speed>0.0</speed>
<temp>0.00</temp>
<bpm>0</bpm>
<rpm>0.00</rpm>
</extensions>
</trkpt>
<trkpt lat="64.310562134" lon="-20.305322647">
<ele>105.380859</ele>
<time>2012-07-19T19:21:31Z</time>
<extensions>
<speed>0.0</speed>
<temp>0.00</temp>
<bpm>0</bpm>
<rpm>0.00</rpm>
</extensions>
</trkpt>
<trkpt lat="64.310562134" lon="-20.305322647">
<ele>105.373047</ele>
<time>2012-07-19T19:21:36Z</time>
<extensions>
<speed>0.0</speed>
<temp>0.00</temp>
<bpm>0</bpm>
<rpm>0.00</rpm>
</extensions>
</trkpt>
<trkpt lat="64.310562134" lon="-20.305322647">
<ele>105.365234</ele>
<time>2012-07-19T19:21:41Z</time>
<extensions>
<speed>0.0</speed>
<temp>0.00</temp>
<bpm>0</bpm>
<rpm>0.00</rpm>
</extensions>
</trkpt>
<trkpt lat="64.310562134" lon="-20.305322647">
<ele>105.363281</ele>
<time>2012-07-19T19:21:46Z</time>
<extensions>
<speed>0.0</speed>
<temp>0.00</temp>
<bpm>0</bpm>
<rpm>0.00</rpm>
</extensions>
</trkpt>
<trkpt lat="64.310569763" lon="-20.305324554">
<ele>105.363281</ele>
<time>2012-07-19T19:21:51Z</time>
<extensions>
<speed>0.0</speed>
<temp>0.00</temp>
<bpm>0</bpm>
<rpm>0.00</rpm>
</extensions>
</trkpt>
<trkpt lat="64.310569763" lon="-20.305324554">
<ele>105.361328</ele>
<time>2012-07-19T19:21:56Z</time>
<extensions>
<speed>0.0</speed>
<temp>0.00</temp>
<bpm>0</bpm>
<rpm>0.00</rpm>
</extensions>
</trkpt>
<trkpt lat="64.310562134" lon="-20.305324554">
<ele>105.361328</ele>
<time>2012-07-19T19:22:01Z</time>
<extensions>
<speed>0.0</speed>
<temp>0.00</temp>
<bpm>0</bpm>
<rpm>0.00</rpm>
</extensions>
</trkpt>
<trkpt lat="64.310562134" lon="-20.305324554">
<ele>105.361328</ele>
<time>2012-07-19T19:22:06Z</time>
<speed>0.010000</speed>
<extensions>
<speed>0.0</speed>
<temp>0.00</temp>
<bpm>0</bpm>
<rpm>0.00</rpm>
</extensions>
</trkpt>
<trkpt lat="64.310562134" lon="-20.305324554">
<ele>105.361328</ele>
<time>2012-07-19T19:22:11Z</time>
<extensions>
<speed>0.0</speed>
<temp>0.00</temp>
<bpm>0</bpm>
<rpm>0.00</rpm>
</extensions>
</trkpt>
<trkpt lat="64.310562134" lon="-20.305324554">
<ele>105.349609</ele>
<time>2012-07-19T19:22:16Z</time>
<extensions>
<speed>0.0</speed>
<temp>0.00</temp>
<bpm>0</bpm>
<rpm>0.00</rpm>
</extensions>
</trkpt>
<trkpt lat="64.310562134" lon="-20.305324554">
<ele>105.343750</ele>
<time>2012-07-19T19:22:21Z</time>
<extensions>
<speed>0.0</speed>
<temp>0.00</temp>
<bpm>0</bpm>
<rpm>0.00</rpm>
</extensions>
</trkpt>
<trkpt lat="64.310562134" lon="-20.305324554">
<ele>105.347656</ele>
<time>2012-07-19T19:22:26Z</time>
<speed>0.010000</speed>
<extensions>
<speed>0.0</speed>
<temp>0.00</temp>
<bpm>0</bpm>
<rpm>0.00</rpm>
</extensions>
</trkpt>
<trkpt lat="64.310562134" lon="-20.305324554">
<ele>105.345703</ele>
<time>2012-07-19T19:22:31Z</time>
<extensions>
<speed>0.0</speed>
<temp>0.00</temp>
<bpm>0</bpm>
<rpm>0.00</rpm>
</extensions>
</trkpt>
<trkpt lat="64.310562134" lon="-20.305324554">
<ele>105.351563</ele>
<time>2012-07-19T19:22:36Z</time>
<extensions>
<speed>0.0</speed>
<temp>0.00</temp>
<bpm>0</bpm>
<rpm>0.00</rpm>
</extensions>
</trkpt>
<trkpt lat="64.310562134" lon="-20.305324554">
<ele>105.359375</ele>
<time>2012-07-19T19:22:41Z</time>
<extensions>
<speed>0.0</speed>
<temp>0.00</temp>
<bpm>0</bpm>
<rpm>0.00</rpm>
</extensions>
</trkpt>
<trkpt lat="64.310562134" lon="-20.305324554">
<ele>105.359375</ele>
<time>2012-07-19T19:22:46Z</time>
<speed>0.030000</speed>
<extensions>
<speed>0.0</speed>
<temp>0.00</temp>
<bpm>0</bpm>
<rpm>0.00</rpm>
</extensions>
</trkpt>
<trkpt lat="64.310562134" lon="-20.305324554">
<ele>105.351563</ele>
<time>2012-07-19T19:22:51Z</time>
<extensions>
<speed>0.0</speed>
<temp>0.00</temp>
<bpm>0</bpm>
<rpm>0.00</rpm>
</extensions>
</trkpt>
<trkpt lat="64.310562134" lon="-20.305324554">
<ele>105.345703</ele>
<time>2012-07-19T19:22:56Z</time>
<extensions>
<speed>0.0</speed>
<temp>0.00</temp>
<bpm>0</bpm>
<rpm>0.00</rpm>
</extensions>
</trkpt>
<trkpt lat="64.310562134" lon="-20.305324554">
<ele>105.341797</ele>
<time>2012-07-19T19:23:01Z</time>
<extensions>
<speed>0.0</speed>
<temp>0.00</temp>
<bpm>0</bpm>
<rpm>0.00</rpm>
</extensions>
</trkpt>
<trkpt lat="64.310562134" lon="-20.305324554">
<ele>105.343750</ele>
<time>2012-07-19T19:23:06Z</time>
<speed>0.010000</speed>
<extensions>
<speed>0.0</speed>
<temp>0.00</temp>
<bpm>0</bpm>
<rpm>0.00</rpm>
</extensions>
</trkpt>
<trkpt lat="64.310562134" lon="-20.305324554">
<ele>105.333984</ele>
<time>2012-07-19T19:23:11Z</time>
<speed>0.010000</speed>
<extensions>
<speed>0.0</speed>
<temp>0.00</temp>
<bpm>0</bpm>
<rpm>0.00</rpm>
</extensions>
</trkpt>
<trkpt lat="64.310569763" lon="-20.305324554">
<ele>104.843750</ele>
<time>2012-07-19T19:23:16Z</time>
<extensions>
<speed>0.0</speed>
<temp>0.00</temp>
<bpm>0</bpm>
<rpm>0.00</rpm>
</extensions>
</trkpt>
<trkpt lat="64.310569763" lon="-20.305324554">
<ele>104.833984</ele>
<time>2012-07-19T19:23:21Z</time>
<extensions>
<speed>0.0</speed>
<temp>0.00</temp>
<bpm>0</bpm>
<rpm>0.00</rpm>
</extensions>
</trkpt>
<trkpt lat="64.310569763" lon="-20.305324554">
<ele>104.833984</ele>
<time>2012-07-19T19:23:26Z</time>
<extensions>
<speed>0.0</speed>
<temp>0.00</temp>
<bpm>0</bpm>
<rpm>0.00</rpm>
</extensions>
</trkpt>
<trkpt lat="64.310569763" lon="-20.305324554">
<ele>104.873047</ele>
<time>2012-07-19T19:23:31Z</time>
<extensions>
<speed>0.0</speed>
<temp>0.00</temp>
<bpm>0</bpm>
<rpm>0.00</rpm>
</extensions>
</trkpt>
<trkpt lat="64.310569763" lon="-20.305324554">
<ele>104.865234</ele>
<time>2012-07-19T19:23:36Z</time>
<extensions>
<speed>0.0</speed>
<temp>0.00</temp>
<bpm>0</bpm>
<rpm>0.00</rpm>
</extensions>
</trkpt>
<trkpt lat="64.310569763" lon="-20.305324554">
<ele>104.853516</ele>
<time>2012-07-19T19:23:41Z</time>
<speed>0.010000</speed>
<extensions>
<speed>0.0</speed>
<temp>0.00</temp>
<bpm>0</bpm>
<rpm>0.00</rpm>
</extensions>
</trkpt>
<trkpt lat="64.310569763" lon="-20.305324554">
<ele>104.837891</ele>
<time>2012-07-19T19:23:46Z</time>
<extensions>
<speed>0.0</speed>
<temp>0.00</temp>
<bpm>0</bpm>
<rpm>0.00</rpm>
</extensions>
</trkpt>
<trkpt lat="64.310569763" lon="-20.305324554">
<ele>104.828125</ele>
<time>2012-07-19T19:23:51Z</time>
<extensions>
<speed>0.0</speed>
<temp>0.00</temp>
<bpm>0</bpm>
<rpm>0.00</rpm>
</extensions>
</trkpt>
<trkpt lat="64.310569763" lon="-20.305324554">
<ele>104.822266</ele>
<time>2012-07-19T19:23:56Z</time>
<extensions>
<speed>0.0</speed>
<temp>0.00</temp>
<bpm>0</bpm>
<rpm>0.00</rpm>
</extensions>
</trkpt>
<trkpt lat="64.310569763" lon="-20.305324554">
<ele>104.822266</ele>
<time>2012-07-19T19:24:01Z</time>
<extensions>
<speed>0.0</speed>
<temp>0.00</temp>
<bpm>0</bpm>
<rpm>0.00</rpm>
</extensions>
</trkpt>
<trkpt lat="64.310569763" lon="-20.305324554">
<ele>104.820313</ele>
<time>2012-07-19T19:24:06Z</time>
<extensions>
<speed>0.0</speed>
<temp>0.00</temp>
<bpm>0</bpm>
<rpm>0.00</rpm>
</extensions>
</trkpt>
<trkpt lat="64.310569763" lon="-20.305324554">
<ele>104.810547</ele>
<time>2012-07-19T19:24:11Z</time>
<speed>0.320000</speed>
<extensions>
<speed>0.3</speed>
<temp>0.00</temp>
<bpm>0</bpm>
<rpm>0.00</rpm>
</extensions>
</trkpt>
<trkpt lat="64.310569763" lon="-20.305326462">
<ele>104.474609</ele>
<time>2012-07-19T19:24:16Z</time>
<speed>0.010000</speed>
<extensions>
<speed>0.0</speed>
<temp>0.00</temp>
<bpm>0</bpm>
<rpm>0.00</rpm>
</extensions>
</trkpt>
<trkpt lat="64.310569763" lon="-20.305326462">
<ele>104.468750</ele>
<time>2012-07-19T19:24:21Z</time>
<extensions>
<speed>0.0</speed>
<temp>0.00</temp>
<bpm>0</bpm>
<rpm>0.00</rpm>
</extensions>
</trkpt>
<trkpt lat="64.310562134" lon="-20.305322647">
<ele>104.019531</ele>
<time>2012-07-19T19:24:26Z</time>
<extensions>
<speed>0.0</speed>
<temp>0.00</temp>
<bpm>0</bpm>
<rpm>0.00</rpm>
</extensions>
</trkpt>
<trkpt lat="64.310562134" lon="-20.305324554">
<ele>103.960938</ele>
<time>2012-07-19T19:24:31Z</time>
<speed>0.010000</speed>
<extensions>
<speed>0.0</speed>
<temp>0.00</temp>
<bpm>0</bpm>
<rpm>0.00</rpm>
</extensions>
</trkpt>
<trkpt lat="64.310562134" lon="-20.305322647">
<ele>103.953125</ele>
<time>2012-07-19T19:24:36Z</time>
<speed>0.010000</speed>
<extensions>
<speed>0.0</speed>
<temp>0.00</temp>
<bpm>0</bpm>
<rpm>0.00</rpm>
</extensions>
</trkpt>
<trkpt lat="64.310562134" lon="-20.305322647">
<ele>103.947266</ele>
<time>2012-07-19T19:24:41Z</time>
<extensions>
<speed>0.0</speed>
<temp>0.00</temp>
<bpm>0</bpm>
<rpm>0.00</rpm>
</extensions>
</trkpt>
<trkpt lat="64.310562134" lon="-20.305322647">
<ele>103.939453</ele>
<time>2012-07-19T19:24:46Z</time>
<extensions>
<speed>0.0</speed>
<temp>0.00</temp>
<bpm>0</bpm>
<rpm>0.00</rpm>
</extensions>
</trkpt>
<trkpt lat="64.310562134" lon="-20.305322647">
<ele>103.925781</ele>
<time>2012-07-19T19:24:51Z</time>
<speed>0.390000</speed>
<extensions>
<speed>0.4</speed>
<temp>0.00</temp>
<bpm>0</bpm>
<rpm>0.00</rpm>
</extensions>
</trkpt>
<trkpt lat="64.310562134" lon="-20.305318832">
<ele>103.542969</ele>
<time>2012-07-19T19:24:56Z</time>
<extensions>
<speed>0.0</speed>
<temp>0.00</temp>
<bpm>0</bpm>
<rpm>0.00</rpm>
</extensions>
</trkpt>
<trkpt lat="64.310562134" lon="-20.305318832">
<ele>103.535156</ele>
<time>2012-07-19T19:25:01Z</time>
<extensions>
<speed>0.0</speed>
<temp>0.00</temp>
<bpm>0</bpm>
<rpm>0.00</rpm>
</extensions>
</trkpt>
<trkpt lat="64.310562134" lon="-20.305318832">
<ele>103.521484</ele>
<time>2012-07-19T19:25:06Z</time>
<speed>0.220000</speed>
<extensions>
<speed>0.2</speed>
<temp>0.00</temp>
<bpm>0</bpm>
<rpm>0.00</rpm>
</extensions>
</trkpt>
<trkpt lat="64.310562134" lon="-20.305318832">
<ele>103.494141</ele>
<time>2012-07-19T19:25:11Z</time>
<extensions>
<speed>0.0</speed>
<temp>0.00</temp>
<bpm>0</bpm>
<rpm>0.00</rpm>
</extensions>
</trkpt>
<trkpt lat="64.310562134" lon="-20.305318832">
<ele>103.490234</ele>
<time>2012-07-19T19:25:16Z</time>
<speed>0.010000</speed>
<extensions>
<speed>0.0</speed>
<temp>0.00</temp>
<bpm>0</bpm>
<rpm>0.00</rpm>
</extensions>
</trkpt>
<trkpt lat="64.310562134" lon="-20.305318832">
<ele>103.490234</ele>
<time>2012-07-19T19:25:21Z</time>
<extensions>
<speed>0.0</speed>
<temp>0.00</temp>
<bpm>0</bpm>
<rpm>0.00</rpm>
</extensions>
</trkpt>
<trkpt lat="64.310562134" lon="-20.305318832">
<ele>103.484375</ele>
<time>2012-07-19T19:25:26Z</time>
<extensions>
<speed>0.0</speed>
<temp>0.00</temp>
<bpm>0</bpm>
<rpm>0.00</rpm>
</extensions>
</trkpt>
<trkpt lat="64.310562134" lon="-20.305318832">
<ele>103.478516</ele>
<time>2012-07-19T19:25:31Z</time>
<extensions>
<speed>0.0</speed>
<temp>0.00</temp>
<bpm>0</bpm>
<rpm>0.00</rpm>
</extensions>
</trkpt>
<trkpt lat="64.310562134" lon="-20.305316925">
<ele>103.480469</ele>
<time>2012-07-19T19:25:36Z</time>
<speed>0.010000</speed>
<extensions>
<speed>0.0</speed>
<temp>0.00</temp>
<bpm>0</bpm>
<rpm>0.00</rpm>
</extensions>
</trkpt>
<trkpt lat="64.310562134" lon="-20.305320740">
<ele>103.382813</ele>
<time>2012-07-19T19:25:41Z</time>
<speed>0.010000</speed>
<extensions>
<speed>0.0</speed>
<temp>0.00</temp>
<bpm>0</bpm>
<rpm>0.00</rpm>
</extensions>
</trkpt>
<trkpt lat="64.310562134" lon="-20.305320740">
<ele>103.382813</ele>
<time>2012-07-19T19:25:46Z</time>
<speed>0.010000</speed>
<extensions>
<speed>0.0</speed>
<temp>0.00</temp>
<bpm>0</bpm>
<rpm>0.00</rpm>
</extensions>
</trkpt>
<trkpt lat="64.310562134" lon="-20.305320740">
<ele>103.382813</ele>
<time>2012-07-19T19:25:51Z</time>
<extensions>
<speed>0.0</speed>
<temp>0.00</temp>
<bpm>0</bpm>
<rpm>0.00</rpm>
</extensions>
</trkpt>
<trkpt lat="64.310562134" lon="-20.305320740">
<ele>103.386719</ele>
<time>2012-07-19T19:25:56Z</time>
<extensions>
<speed>0.0</speed>
<temp>0.00</temp>
<bpm>0</bpm>
<rpm>0.00</rpm>
</extensions>
</trkpt>
<trkpt lat="64.310562134" lon="-20.305320740">
<ele>103.380859</ele>
<time>2012-07-19T19:26:01Z</time>
<speed>0.010000</speed>
<extensions>
<speed>0.0</speed>
<temp>0.00</temp>
<bpm>0</bpm>
<rpm>0.00</rpm>
</extensions>
</trkpt>
<trkpt lat="64.310562134" lon="-20.305320740">
<ele>103.378906</ele>
<time>2012-07-19T19:26:06Z</time>
<extensions>
<speed>0.0</speed>
<temp>0.00</temp>
<bpm>0</bpm>
<rpm>0.00</rpm>
</extensions>
</trkpt>
<trkpt lat="64.310562134" lon="-20.305320740">
<ele>103.384766</ele>
<time>2012-07-19T19:26:11Z</time>
<extensions>
<speed>0.0</speed>
<temp>0.00</temp>
<bpm>0</bpm>
<rpm>0.00</rpm>
</extensions>
</trkpt>
<trkpt lat="64.310562134" lon="-20.305320740">
<ele>103.386719</ele>
<time>2012-07-19T19:26:16Z</time>
<extensions>
<speed>0.0</speed>
<temp>0.00</temp>
<bpm>0</bpm>
<rpm>0.00</rpm>
</extensions>
</trkpt>
<trkpt lat="64.310562134" lon="-20.305318832">
<ele>103.386719</ele>
<time>2012-07-19T19:26:21Z</time>
<extensions>
<speed>0.0</speed>
<temp>0.00</temp>
<bpm>0</bpm>
<rpm>0.00</rpm>
</extensions>
</trkpt>
<trkpt lat="64.310562134" lon="-20.305318832">
<ele>103.396484</ele>
<time>2012-07-19T19:26:26Z</time>
<extensions>
<speed>0.0</speed>
<temp>0.00</temp>
<bpm>0</bpm>
<rpm>0.00</rpm>
</extensions>
</trkpt>
<trkpt lat="64.310562134" lon="-20.305318832">
<ele>103.400391</ele>
<time>2012-07-19T19:26:31Z</time>
<extensions>
<speed>0.0</speed>
<temp>0.00</temp>
<bpm>0</bpm>
<rpm>0.00</rpm>
</extensions>
</trkpt>
<trkpt lat="64.310562134" lon="-20.305318832">
<ele>103.406250</ele>
<time>2012-07-19T19:26:36Z</time>
<speed>0.040000</speed>
<extensions>
<speed>0.0</speed>
<temp>0.00</temp>
<bpm>0</bpm>
<rpm>0.00</rpm>
</extensions>
</trkpt>
<trkpt lat="64.310562134" lon="-20.305318832">
<ele>103.447266</ele>
<time>2012-07-19T19:26:41Z</time>
<extensions>
<speed>0.0</speed>
<temp>0.00</temp>
<bpm>0</bpm>
<rpm>0.00</rpm>
</extensions>
</trkpt>
<trkpt lat="64.310562134" lon="-20.305318832">
<ele>103.460938</ele>
<time>2012-07-19T19:26:46Z</time>
<extensions>
<speed>0.0</speed>
<temp>0.00</temp>
<bpm>0</bpm>
<rpm>0.00</rpm>
</extensions>
</trkpt>
<trkpt lat="64.310562134" lon="-20.305318832">
<ele>103.484375</ele>
<time>2012-07-19T19:26:51Z</time>
<speed>0.010000</speed>
<extensions>
<speed>0.0</speed>
<temp>0.00</temp>
<bpm>0</bpm>
<rpm>0.00</rpm>
</extensions>
</trkpt>
<trkpt lat="64.310562134" lon="-20.305318832">
<ele>103.496094</ele>
<time>2012-07-19T19:26:56Z</time>
<speed>0.010000</speed>
<extensions>
<speed>0.0</speed>
<temp>0.00</temp>
<bpm>0</bpm>
<rpm>0.00</rpm>
</extensions>
</trkpt>
<trkpt lat="64.310562134" lon="-20.305318832">
<ele>103.507813</ele>
<time>2012-07-19T19:27:01Z</time>
<speed>0.010000</speed>
<extensions>
<speed>0.0</speed>
<temp>0.00</temp>
<bpm>0</bpm>
<rpm>0.00</rpm>
</extensions>
</trkpt>
<trkpt lat="64.310562134" lon="-20.305318832">
<ele>103.511719</ele>
<time>2012-07-19T19:27:06Z</time>
<extensions>
<speed>0.0</speed>
<temp>0.00</temp>
<bpm>0</bpm>
<rpm>0.00</rpm>
</extensions>
</trkpt>
<trkpt lat="64.310562134" lon="-20.305318832">
<ele>103.513672</ele>
<time>2012-07-19T19:27:11Z</time>
<speed>0.010000</speed>
<extensions>
<speed>0.0</speed>
<temp>0.00</temp>
<bpm>0</bpm>
<rpm>0.00</rpm>
</extensions>
</trkpt>
<trkpt lat="64.310562134" lon="-20.305318832">
<ele>103.500000</ele>
<time>2012-07-19T19:27:16Z</time>
<extensions>
<speed>0.0</speed>
<temp>0.00</temp>
<bpm>0</bpm>
<rpm>0.00</rpm>
</extensions>
</trkpt>
<trkpt lat="64.310562134" lon="-20.305318832">
<ele>103.443359</ele>
<time>2012-07-19T19:27:21Z</time>
<speed>0.010000</speed>
<extensions>
<speed>0.0</speed>
<temp>0.00</temp>
<bpm>0</bpm>
<rpm>0.00</rpm>
</extensions>
</trkpt>
<trkpt lat="64.310562134" lon="-20.305318832">
<ele>103.445313</ele>
<time>2012-07-19T19:27:26Z</time>
<speed>0.010000</speed>
<extensions>
<speed>0.0</speed>
<temp>0.00</temp>
<bpm>0</bpm>
<rpm>0.00</rpm>
</extensions>
</trkpt>
<trkpt lat="64.310562134" lon="-20.305318832">
<ele>103.447266</ele>
<time>2012-07-19T19:27:31Z</time>
<extensions>
<speed>0.0</speed>
<temp>0.00</temp>
<bpm>0</bpm>
<rpm>0.00</rpm>
</extensions>
</trkpt>
<trkpt lat="64.310562134" lon="-20.305318832">
<ele>103.449219</ele>
<time>2012-07-19T19:27:36Z</time>
<speed>0.010000</speed>
<extensions>
<speed>0.0</speed>
<temp>0.00</temp>
<bpm>0</bpm>
<rpm>0.00</rpm>
</extensions>
</trkpt>
<trkpt lat="64.310562134" lon="-20.305318832">
<ele>103.451172</ele>
<time>2012-07-19T19:27:41Z</time>
<speed>0.010000</speed>
<extensions>
<speed>0.0</speed>
<temp>0.00</temp>
<bpm>0</bpm>
<rpm>0.00</rpm>
</extensions>
</trkpt>
<trkpt lat="64.310569763" lon="-20.305315018">
<ele>103.220703</ele>
<time>2012-07-19T19:27:46Z</time>
<extensions>
<speed>0.0</speed>
<temp>0.00</temp>
<bpm>0</bpm>
<rpm>0.00</rpm>
</extensions>
</trkpt>
<trkpt lat="64.310569763" lon="-20.305315018">
<ele>103.228516</ele>
<time>2012-07-19T19:27:51Z</time>
<speed>0.010000</speed>
<extensions>
<speed>0.0</speed>
<temp>0.00</temp>
<bpm>0</bpm>
<rpm>0.00</rpm>
</extensions>
</trkpt>
<trkpt lat="64.310569763" lon="-20.305307388">
<ele>103.380859</ele>
<time>2012-07-19T19:27:56Z</time>
<speed>0.010000</speed>
<extensions>
<speed>0.0</speed>
<temp>0.00</temp>
<bpm>0</bpm>
<rpm>0.00</rpm>
</extensions>
</trkpt>
<trkpt lat="64.310569763" lon="-20.305301666">
<ele>103.746094</ele>
<time>2012-07-19T19:28:01Z</time>
<extensions>
<speed>0.0</speed>
<temp>0.00</temp>
<bpm>0</bpm>
<rpm>0.00</rpm>
</extensions>
</trkpt>
<trkpt lat="64.310569763" lon="-20.305301666">
<ele>103.750000</ele>
<time>2012-07-19T19:28:06Z</time>
<extensions>
<speed>0.0</speed>
<temp>0.00</temp>
<bpm>0</bpm>
<rpm>0.00</rpm>
</extensions>
</trkpt>
<trkpt lat="64.310562134" lon="-20.305305481">
<ele>103.662109</ele>
<time>2012-07-19T19:28:11Z</time>
<extensions>
<speed>0.0</speed>
<temp>0.00</temp>
<bpm>0</bpm>
<rpm>0.00</rpm>
</extensions>
</trkpt>
<trkpt lat="64.310562134" lon="-20.305305481">
<ele>103.654297</ele>
<time>2012-07-19T19:28:16Z</time>
<extensions>
<speed>0.0</speed>
<temp>0.00</temp>
<bpm>0</bpm>
<rpm>0.00</rpm>
</extensions>
</trkpt>
<trkpt lat="64.310562134" lon="-20.305305481">
<ele>103.660156</ele>
<time>2012-07-19T19:28:21Z</time>
<speed>0.280000</speed>
<extensions>
<speed>0.3</speed>
<temp>0.00</temp>
<bpm>0</bpm>
<rpm>0.00</rpm>
</extensions>
</trkpt>
<trkpt lat="64.310562134" lon="-20.305303574">
<ele>103.722656</ele>
<time>2012-07-19T19:28:26Z</time>
<extensions>
<speed>0.0</speed>
<temp>0.00</temp>
<bpm>0</bpm>
<rpm>0.00</rpm>
</extensions>
</trkpt>
<trkpt lat="64.310562134" lon="-20.305303574">
<ele>103.730469</ele>
<time>2012-07-19T19:28:31Z</time>
<extensions>
<speed>0.0</speed>
<temp>0.00</temp>
<bpm>0</bpm>
<rpm>0.00</rpm>
</extensions>
</trkpt>
<trkpt lat="64.310562134" lon="-20.305305481">
<ele>103.744141</ele>
<time>2012-07-19T19:28:36Z</time>
<extensions>
<speed>0.0</speed>
<temp>0.00</temp>
<bpm>0</bpm>
<rpm>0.00</rpm>
</extensions>
</trkpt>
<trkpt lat="64.310562134" lon="-20.305305481">
<ele>103.751953</ele>
<time>2012-07-19T19:28:41Z</time>
<extensions>
<speed>0.0</speed>
<temp>0.00</temp>
<bpm>0</bpm>
<rpm>0.00</rpm>
</extensions>
</trkpt>
<trkpt lat="64.310562134" lon="-20.305305481">
<ele>103.761719</ele>
<time>2012-07-19T19:28:46Z</time>
<extensions>
<speed>0.0</speed>
<temp>0.00</temp>
<bpm>0</bpm>
<rpm>0.00</rpm>
</extensions>
</trkpt>
<trkpt lat="64.310562134" lon="-20.305305481">
<ele>103.775391</ele>
<time>2012-07-19T19:28:51Z</time>
<extensions>
<speed>0.0</speed>
<temp>0.00</temp>
<bpm>0</bpm>
<rpm>0.00</rpm>
</extensions>
</trkpt>
<trkpt lat="64.310562134" lon="-20.305303574">
<ele>103.794922</ele>
<time>2012-07-19T19:28:56Z</time>
<extensions>
<speed>0.0</speed>
<temp>0.00</temp>
<bpm>0</bpm>
<rpm>0.00</rpm>
</extensions>
</trkpt>
<trkpt lat="64.310562134" lon="-20.305303574">
<ele>103.861328</ele>
<time>2012-07-19T19:29:01Z</time>
<extensions>
<speed>0.0</speed>
<temp>0.00</temp>
<bpm>0</bpm>
<rpm>0.00</rpm>
</extensions>
</trkpt>
<trkpt lat="64.310562134" lon="-20.305303574">
<ele>103.861328</ele>
<time>2012-07-19T19:29:06Z</time>
<extensions>
<speed>0.0</speed>
<temp>0.00</temp>
<bpm>0</bpm>
<rpm>0.00</rpm>
</extensions>
</trkpt>
<trkpt lat="64.310562134" lon="-20.305303574">
<ele>103.871094</ele>
<time>2012-07-19T19:29:11Z</time>
<extensions>
<speed>0.0</speed>
<temp>0.00</temp>
<bpm>0</bpm>
<rpm>0.00</rpm>
</extensions>
</trkpt>
<trkpt lat="64.310562134" lon="-20.305303574">
<ele>103.882813</ele>
<time>2012-07-19T19:29:16Z</time>
<extensions>
<speed>0.0</speed>
<temp>0.00</temp>
<bpm>0</bpm>
<rpm>0.00</rpm>
</extensions>
</trkpt>
<trkpt lat="64.310562134" lon="-20.305303574">
<ele>103.900391</ele>
<time>2012-07-19T19:29:21Z</time>
<speed>0.010000</speed>
<extensions>
<speed>0.0</speed>
<temp>0.00</temp>
<bpm>0</bpm>
<rpm>0.00</rpm>
</extensions>
</trkpt>
<trkpt lat="64.310562134" lon="-20.305303574">
<ele>103.912109</ele>
<time>2012-07-19T19:29:26Z</time>
<extensions>
<speed>0.0</speed>
<temp>0.00</temp>
<bpm>0</bpm>
<rpm>0.00</rpm>
</extensions>
</trkpt>
<trkpt lat="64.310562134" lon="-20.305303574">
<ele>103.917969</ele>
<time>2012-07-19T19:29:31Z</time>
<speed>0.010000</speed>
<extensions>
<speed>0.0</speed>
<temp>0.00</temp>
<bpm>0</bpm>
<rpm>0.00</rpm>
</extensions>
</trkpt>
<trkpt lat="64.310562134" lon="-20.305290222">
<ele>104.195313</ele>
<time>2012-07-19T19:29:36Z</time>
<extensions>
<speed>0.0</speed>
<temp>0.00</temp>
<bpm>0</bpm>
<rpm>0.00</rpm>
</extensions>
</trkpt>
<trkpt lat="64.310562134" lon="-20.305288315">
<ele>104.300781</ele>
<time>2012-07-19T19:29:41Z</time>
<extensions>
<speed>0.0</speed>
<temp>0.00</temp>
<bpm>0</bpm>
<rpm>0.00</rpm>
</extensions>
</trkpt>
<trkpt lat="64.310562134" lon="-20.305290222">
<ele>104.318359</ele>
<time>2012-07-19T19:29:46Z</time>
<speed>0.090000</speed>
<extensions>
<speed>0.1</speed>
<temp>0.00</temp>
<bpm>0</bpm>
<rpm>0.00</rpm>
</extensions>
</trkpt>
<trkpt lat="64.310562134" lon="-20.305290222">
<ele>104.341797</ele>
<time>2012-07-19T19:29:51Z</time>
<speed>0.010000</speed>
<extensions>
<speed>0.0</speed>
<temp>0.00</temp>
<bpm>0</bpm>
<rpm>0.00</rpm>
</extensions>
</trkpt>
<trkpt lat="64.310562134" lon="-20.305288315">
<ele>104.345703</ele>
<time>2012-07-19T19:29:56Z</time>
<extensions>
<speed>0.0</speed>
<temp>0.00</temp>
<bpm>0</bpm>
<rpm>0.00</rpm>
</extensions>
</trkpt>
<trkpt lat="64.310562134" lon="-20.305288315">
<ele>104.425781</ele>
<time>2012-07-19T19:30:01Z</time>
<extensions>
<speed>0.0</speed>
<temp>0.00</temp>
<bpm>0</bpm>
<rpm>0.00</rpm>
</extensions>
</trkpt>
<trkpt lat="64.310562134" lon="-20.305288315">
<ele>104.443359</ele>
<time>2012-07-19T19:30:06Z</time>
<extensions>
<speed>0.0</speed>
<temp>0.00</temp>
<bpm>0</bpm>
<rpm>0.00</rpm>
</extensions>
</trkpt>
<trkpt lat="64.310562134" lon="-20.305288315">
<ele>104.455078</ele>
<time>2012-07-19T19:30:11Z</time>
<extensions>
<speed>0.0</speed>
<temp>0.00</temp>
<bpm>0</bpm>
<rpm>0.00</rpm>
</extensions>
</trkpt>
<trkpt lat="64.310562134" lon="-20.305290222">
<ele>104.423828</ele>
<time>2012-07-19T19:30:16Z</time>
<speed>0.020000</speed>
<extensions>
<speed>0.0</speed>
<temp>0.00</temp>
<bpm>0</bpm>
<rpm>0.00</rpm>
</extensions>
</trkpt>
<trkpt lat="64.310562134" lon="-20.305290222">
<ele>104.429688</ele>
<time>2012-07-19T19:30:21Z</time>
<extensions>
<speed>0.0</speed>
<temp>0.00</temp>
<bpm>0</bpm>
<rpm>0.00</rpm>
</extensions>
</trkpt>
<trkpt lat="64.310562134" lon="-20.305288315">
<ele>104.441406</ele>
<time>2012-07-19T19:30:26Z</time>
<extensions>
<speed>0.0</speed>
<temp>0.00</temp>
<bpm>0</bpm>
<rpm>0.00</rpm>
</extensions>
</trkpt>
<trkpt lat="64.310562134" lon="-20.305288315">
<ele>104.449219</ele>
<time>2012-07-19T19:30:31Z</time>
<extensions>
<speed>0.0</speed>
<temp>0.00</temp>
<bpm>0</bpm>
<rpm>0.00</rpm>
</extensions>
</trkpt>
<trkpt lat="64.310562134" lon="-20.305288315">
<ele>104.457031</ele>
<time>2012-07-19T19:30:36Z</time>
<extensions>
<speed>0.0</speed>
<temp>0.00</temp>
<bpm>0</bpm>
<rpm>0.00</rpm>
</extensions>
</trkpt>
<trkpt lat="64.310562134" lon="-20.305288315">
<ele>104.470703</ele>
<time>2012-07-19T19:30:41Z</time>
<speed>0.230000</speed>
<extensions>
<speed>0.2</speed>
<temp>0.00</temp>
<bpm>0</bpm>
<rpm>0.00</rpm>
</extensions>
</trkpt>
<trkpt lat="64.310562134" lon="-20.305288315">
<ele>104.513672</ele>
<time>2012-07-19T19:30:46Z</time>
<speed>0.010000</speed>
<extensions>
<speed>0.0</speed>
<temp>0.00</temp>
<bpm>0</bpm>
<rpm>0.00</rpm>
</extensions>
</trkpt>
<trkpt lat="64.310562134" lon="-20.305288315">
<ele>104.507813</ele>
<time>2012-07-19T19:30:51Z</time>
<speed>0.010000</speed>
<extensions>
<speed>0.0</speed>
<temp>0.00</temp>
<bpm>0</bpm>
<rpm>0.00</rpm>
</extensions>
</trkpt>
<trkpt lat="64.310562134" lon="-20.305288315">
<ele>104.507813</ele>
<time>2012-07-19T19:30:56Z</time>
<extensions>
<speed>0.0</speed>
<temp>0.00</temp>
<bpm>0</bpm>
<rpm>0.00</rpm>
</extensions>
</trkpt>
<trkpt lat="64.310562134" lon="-20.305288315">
<ele>104.503906</ele>
<time>2012-07-19T19:31:01Z</time>
<extensions>
<speed>0.0</speed>
<temp>0.00</temp>
<bpm>0</bpm>
<rpm>0.00</rpm>
</extensions>
</trkpt>
<trkpt lat="64.310562134" lon="-20.305288315">
<ele>104.503906</ele>
<time>2012-07-19T19:31:06Z</time>
<speed>0.010000</speed>
<extensions>
<speed>0.0</speed>
<temp>0.00</temp>
<bpm>0</bpm>
<rpm>0.00</rpm>
</extensions>
</trkpt>
<trkpt lat="64.310562134" lon="-20.305288315">
<ele>104.509766</ele>
<time>2012-07-19T19:31:11Z</time>
<extensions>
<speed>0.0</speed>
<temp>0.00</temp>
<bpm>0</bpm>
<rpm>0.00</rpm>
</extensions>
</trkpt>
<trkpt lat="64.310562134" lon="-20.305288315">
<ele>104.517578</ele>
<time>2012-07-19T19:31:16Z</time>
<speed>0.010000</speed>
<extensions>
<speed>0.0</speed>
<temp>0.00</temp>
<bpm>0</bpm>
<rpm>0.00</rpm>
</extensions>
</trkpt>
<trkpt lat="64.310562134" lon="-20.305288315">
<ele>104.529297</ele>
<time>2012-07-19T19:31:21Z</time>
<extensions>
<speed>0.0</speed>
<temp>0.00</temp>
<bpm>0</bpm>
<rpm>0.00</rpm>
</extensions>
</trkpt>
<trkpt lat="64.310562134" lon="-20.305288315">
<ele>104.541016</ele>
<time>2012-07-19T19:31:26Z</time>
<extensions>
<speed>0.0</speed>
<temp>0.00</temp>
<bpm>0</bpm>
<rpm>0.00</rpm>
</extensions>
</trkpt>
<trkpt lat="64.310562134" lon="-20.305288315">
<ele>104.544922</ele>
<time>2012-07-19T19:31:31Z</time>
<extensions>
<speed>0.0</speed>
<temp>0.00</temp>
<bpm>0</bpm>
<rpm>0.00</rpm>
</extensions>
</trkpt>
<trkpt lat="64.310562134" lon="-20.305288315">
<ele>104.568359</ele>
<time>2012-07-19T19:31:36Z</time>
<extensions>
<speed>0.0</speed>
<temp>0.00</temp>
<bpm>0</bpm>
<rpm>0.00</rpm>
</extensions>
</trkpt>
<trkpt lat="64.310562134" lon="-20.305288315">
<ele>104.564453</ele>
<time>2012-07-19T19:31:41Z</time>
<extensions>
<speed>0.0</speed>
<temp>0.00</temp>
<bpm>0</bpm>
<rpm>0.00</rpm>
</extensions>
</trkpt>
<trkpt lat="64.310562134" lon="-20.305288315">
<ele>104.558594</ele>
<time>2012-07-19T19:31:46Z</time>
<extensions>
<speed>0.0</speed>
<temp>0.00</temp>
<bpm>0</bpm>
<rpm>0.00</rpm>
</extensions>
</trkpt>
<trkpt lat="64.310562134" lon="-20.305288315">
<ele>104.564453</ele>
<time>2012-07-19T19:31:51Z</time>
<extensions>
<speed>0.0</speed>
<temp>0.00</temp>
<bpm>0</bpm>
<rpm>0.00</rpm>
</extensions>
</trkpt>
<trkpt lat="64.310562134" lon="-20.305290222">
<ele>104.574219</ele>
<time>2012-07-19T19:31:56Z</time>
<extensions>
<speed>0.0</speed>
<temp>0.00</temp>
<bpm>0</bpm>
<rpm>0.00</rpm>
</extensions>
</trkpt>
<trkpt lat="64.310562134" lon="-20.305290222">
<ele>104.580078</ele>
<time>2012-07-19T19:32:01Z</time>
<extensions>
<speed>0.0</speed>
<temp>0.00</temp>
<bpm>0</bpm>
<rpm>0.00</rpm>
</extensions>
</trkpt>
<trkpt lat="64.310562134" lon="-20.305290222">
<ele>104.591797</ele>
<time>2012-07-19T19:32:06Z</time>
<extensions>
<speed>0.0</speed>
<temp>0.00</temp>
<bpm>0</bpm>
<rpm>0.00</rpm>
</extensions>
</trkpt>
<trkpt lat="64.310562134" lon="-20.305290222">
<ele>104.607422</ele>
<time>2012-07-19T19:32:11Z</time>
<extensions>
<speed>0.0</speed>
<temp>0.00</temp>
<bpm>0</bpm>
<rpm>0.00</rpm>
</extensions>
</trkpt>
<trkpt lat="64.310562134" lon="-20.305290222">
<ele>104.617188</ele>
<time>2012-07-19T19:32:16Z</time>
<extensions>
<speed>0.0</speed>
<temp>0.00</temp>
<bpm>0</bpm>
<rpm>0.00</rpm>
</extensions>
</trkpt>
<trkpt lat="64.310562134" lon="-20.305290222">
<ele>104.628906</ele>
<time>2012-07-19T19:32:21Z</time>
<extensions>
<speed>0.0</speed>
<temp>0.00</temp>
<bpm>0</bpm>
<rpm>0.00</rpm>
</extensions>
</trkpt>
<trkpt lat="64.310562134" lon="-20.305288315">
<ele>104.628906</ele>
<time>2012-07-19T19:32:26Z</time>
<extensions>
<speed>0.0</speed>
<temp>0.00</temp>
<bpm>0</bpm>
<rpm>0.00</rpm>
</extensions>
</trkpt>
<trkpt lat="64.310562134" lon="-20.305288315">
<ele>104.628906</ele>
<time>2012-07-19T19:32:31Z</time>
<extensions>
<speed>0.0</speed>
<temp>0.00</temp>
<bpm>0</bpm>
<rpm>0.00</rpm>
</extensions>
</trkpt>
<trkpt lat="64.310562134" lon="-20.305288315">
<ele>104.625000</ele>
<time>2012-07-19T19:32:36Z</time>
<extensions>
<speed>0.0</speed>
<temp>0.00</temp>
<bpm>0</bpm>
<rpm>0.00</rpm>
</extensions>
</trkpt>
<trkpt lat="64.310562134" lon="-20.305288315">
<ele>104.621094</ele>
<time>2012-07-19T19:32:41Z</time>
<extensions>
<speed>0.0</speed>
<temp>0.00</temp>
<bpm>0</bpm>
<rpm>0.00</rpm>
</extensions>
</trkpt>
<trkpt lat="64.310562134" lon="-20.305288315">
<ele>104.619141</ele>
<time>2012-07-19T19:32:46Z</time>
<extensions>
<speed>0.0</speed>
<temp>0.00</temp>
<bpm>0</bpm>
<rpm>0.00</rpm>
</extensions>
</trkpt>
<trkpt lat="64.310562134" lon="-20.305288315">
<ele>104.615234</ele>
<time>2012-07-19T19:32:51Z</time>
<speed>0.010000</speed>
<extensions>
<speed>0.0</speed>
<temp>0.00</temp>
<bpm>0</bpm>
<rpm>0.00</rpm>
</extensions>
</trkpt>
<trkpt lat="64.310562134" lon="-20.305290222">
<ele>104.615234</ele>
<time>2012-07-19T19:32:56Z</time>
<speed>0.010000</speed>
<extensions>
<speed>0.0</speed>
<temp>0.00</temp>
<bpm>0</bpm>
<rpm>0.00</rpm>
</extensions>
</trkpt>
<trkpt lat="64.310562134" lon="-20.305290222">
<ele>104.611328</ele>
<time>2012-07-19T19:33:01Z</time>
<extensions>
<speed>0.0</speed>
<temp>0.00</temp>
<bpm>0</bpm>
<rpm>0.00</rpm>
</extensions>
</trkpt>
<trkpt lat="64.310562134" lon="-20.305290222">
<ele>104.609375</ele>
<time>2012-07-19T19:33:06Z</time>
<speed>0.010000</speed>
<extensions>
<speed>0.0</speed>
<temp>0.00</temp>
<bpm>0</bpm>
<rpm>0.00</rpm>
</extensions>
</trkpt>
<trkpt lat="64.310562134" lon="-20.305290222">
<ele>104.609375</ele>
<time>2012-07-19T19:33:11Z</time>
<extensions>
<speed>0.0</speed>
<temp>0.00</temp>
<bpm>0</bpm>
<rpm>0.00</rpm>
</extensions>
</trkpt>
<trkpt lat="64.310562134" lon="-20.305290222">
<ele>104.615234</ele>
<time>2012-07-19T19:33:16Z</time>
<extensions>
<speed>0.0</speed>
<temp>0.00</temp>
<bpm>0</bpm>
<rpm>0.00</rpm>
</extensions>
</trkpt>
<trkpt lat="64.310562134" lon="-20.305290222">
<ele>104.615234</ele>
<time>2012-07-19T19:33:21Z</time>
<extensions>
<speed>0.0</speed>
<temp>0.00</temp>
<bpm>0</bpm>
<rpm>0.00</rpm>
</extensions>
</trkpt>
<trkpt lat="64.310562134" lon="-20.305290222">
<ele>104.611328</ele>
<time>2012-07-19T19:33:26Z</time>
<extensions>
<speed>0.0</speed>
<temp>0.00</temp>
<bpm>0</bpm>
<rpm>0.00</rpm>
</extensions>
</trkpt>
<trkpt lat="64.310562134" lon="-20.305290222">
<ele>104.611328</ele>
<time>2012-07-19T19:33:31Z</time>
<extensions>
<speed>0.0</speed>
<temp>0.00</temp>
<bpm>0</bpm>
<rpm>0.00</rpm>
</extensions>
</trkpt>
<trkpt lat="64.310562134" lon="-20.305290222">
<ele>104.621094</ele>
<time>2012-07-19T19:33:36Z</time>
<speed>0.010000</speed>
<extensions>
<speed>0.0</speed>
<temp>0.00</temp>
<bpm>0</bpm>
<rpm>0.00</rpm>
</extensions>
</trkpt>
<trkpt lat="64.310562134" lon="-20.305290222">
<ele>104.630859</ele>
<time>2012-07-19T19:33:41Z</time>
<extensions>
<speed>0.0</speed>
<temp>0.00</temp>
<bpm>0</bpm>
<rpm>0.00</rpm>
</extensions>
</trkpt>
<trkpt lat="64.310562134" lon="-20.305292130">
<ele>104.589844</ele>
<time>2012-07-19T19:33:46Z</time>
<speed>0.040000</speed>
<extensions>
<speed>0.0</speed>
<temp>0.00</temp>
<bpm>0</bpm>
<rpm>0.00</rpm>
</extensions>
</trkpt>
<trkpt lat="64.310562134" lon="-20.305292130">
<ele>104.533203</ele>
<time>2012-07-19T19:33:51Z</time>
<extensions>
<speed>0.0</speed>
<temp>0.00</temp>
<bpm>0</bpm>
<rpm>0.00</rpm>
</extensions>
</trkpt>
<trkpt lat="64.310562134" lon="-20.305292130">
<ele>104.531250</ele>
<time>2012-07-19T19:33:56Z</time>
<extensions>
<speed>0.0</speed>
<temp>0.00</temp>
<bpm>0</bpm>
<rpm>0.00</rpm>
</extensions>
</trkpt>
<trkpt lat="64.310562134" lon="-20.305292130">
<ele>104.535156</ele>
<time>2012-07-19T19:34:01Z</time>
<extensions>
<speed>0.0</speed>
<temp>0.00</temp>
<bpm>0</bpm>
<rpm>0.00</rpm>
</extensions>
</trkpt>
<trkpt lat="64.310562134" lon="-20.305292130">
<ele>104.541016</ele>
<time>2012-07-19T19:34:06Z</time>
<extensions>
<speed>0.0</speed>
<temp>0.00</temp>
<bpm>0</bpm>
<rpm>0.00</rpm>
</extensions>
</trkpt>
<trkpt lat="64.310562134" lon="-20.305292130">
<ele>104.546875</ele>
<time>2012-07-19T19:34:11Z</time>
<speed>0.380000</speed>
<extensions>
<speed>0.4</speed>
<temp>0.00</temp>
<bpm>0</bpm>
<rpm>0.00</rpm>
</extensions>
</trkpt>
<trkpt lat="64.310569763" lon="-20.305294037">
<ele>104.814453</ele>
<time>2012-07-19T19:34:16Z</time>
<extensions>
<speed>0.0</speed>
<temp>0.00</temp>
<bpm>0</bpm>
<rpm>0.00</rpm>
</extensions>
</trkpt>
<trkpt lat="64.310569763" lon="-20.305294037">
<ele>104.818359</ele>
<time>2012-07-19T19:34:21Z</time>
<extensions>
<speed>0.0</speed>
<temp>0.00</temp>
<bpm>0</bpm>
<rpm>0.00</rpm>
</extensions>
</trkpt>
<trkpt lat="64.310569763" lon="-20.305294037">
<ele>104.865234</ele>
<time>2012-07-19T19:34:26Z</time>
<extensions>
<speed>0.0</speed>
<temp>0.00</temp>
<bpm>0</bpm>
<rpm>0.00</rpm>
</extensions>
</trkpt>
<trkpt lat="64.310569763" lon="-20.305294037">
<ele>104.873047</ele>
<time>2012-07-19T19:34:31Z</time>
<speed>0.010000</speed>
<extensions>
<speed>0.0</speed>
<temp>0.00</temp>
<bpm>0</bpm>
<rpm>0.00</rpm>
</extensions>
</trkpt>
<trkpt lat="64.310569763" lon="-20.305294037">
<ele>104.876953</ele>
<time>2012-07-19T19:34:36Z</time>
<extensions>
<speed>0.0</speed>
<temp>0.00</temp>
<bpm>0</bpm>
<rpm>0.00</rpm>
</extensions>
</trkpt>
<trkpt lat="64.310569763" lon="-20.305295944">
<ele>104.921875</ele>
<time>2012-07-19T19:34:41Z</time>
<speed>0.010000</speed>
<extensions>
<speed>0.0</speed>
<temp>0.00</temp>
<bpm>0</bpm>
<rpm>0.00</rpm>
</extensions>
</trkpt>
<trkpt lat="64.310569763" lon="-20.305294037">
<ele>104.876953</ele>
<time>2012-07-19T19:34:46Z</time>
<speed>0.010000</speed>
<extensions>
<speed>0.0</speed>
<temp>0.00</temp>
<bpm>0</bpm>
<rpm>0.00</rpm>
</extensions>
</trkpt>
<trkpt lat="64.310569763" lon="-20.305294037">
<ele>104.878906</ele>
<time>2012-07-19T19:34:51Z</time>
<extensions>
<speed>0.0</speed>
<temp>0.00</temp>
<bpm>0</bpm>
<rpm>0.00</rpm>
</extensions>
</trkpt>
<trkpt lat="64.310569763" lon="-20.305294037">
<ele>104.886719</ele>
<time>2012-07-19T19:34:56Z</time>
<extensions>
<speed>0.0</speed>
<temp>0.00</temp>
<bpm>0</bpm>
<rpm>0.00</rpm>
</extensions>
</trkpt>
<trkpt lat="64.310569763" lon="-20.305294037">
<ele>104.892578</ele>
<time>2012-07-19T19:35:01Z</time>
<speed>0.010000</speed>
<extensions>
<speed>0.0</speed>
<temp>0.00</temp>
<bpm>0</bpm>
<rpm>0.00</rpm>
</extensions>
</trkpt>
<trkpt lat="64.310569763" lon="-20.305294037">
<ele>104.900391</ele>
<time>2012-07-19T19:35:06Z</time>
<extensions>
<speed>0.0</speed>
<temp>0.00</temp>
<bpm>0</bpm>
<rpm>0.00</rpm>
</extensions>
</trkpt>
<trkpt lat="64.310569763" lon="-20.305290222">
<ele>105.263672</ele>
<time>2012-07-19T19:35:11Z</time>
<extensions>
<speed>0.0</speed>
<temp>0.00</temp>
<bpm>0</bpm>
<rpm>0.00</rpm>
</extensions>
</trkpt>
<trkpt lat="64.310569763" lon="-20.305290222">
<ele>105.269531</ele>
<time>2012-07-19T19:35:16Z</time>
<extensions>
<speed>0.0</speed>
<temp>0.00</temp>
<bpm>0</bpm>
<rpm>0.00</rpm>
</extensions>
</trkpt>
<trkpt lat="64.310569763" lon="-20.305290222">
<ele>105.275391</ele>
<time>2012-07-19T19:35:21Z</time>
<extensions>
<speed>0.0</speed>
<temp>0.00</temp>
<bpm>0</bpm>
<rpm>0.00</rpm>
</extensions>
</trkpt>
<trkpt lat="64.310569763" lon="-20.305290222">
<ele>105.291016</ele>
<time>2012-07-19T19:35:26Z</time>
<extensions>
<speed>0.0</speed>
<temp>0.00</temp>
<bpm>0</bpm>
<rpm>0.00</rpm>
</extensions>
</trkpt>
<trkpt lat="64.310569763" lon="-20.305290222">
<ele>105.308594</ele>
<time>2012-07-19T19:35:31Z</time>
<extensions>
<speed>0.0</speed>
<temp>0.00</temp>
<bpm>0</bpm>
<rpm>0.00</rpm>
</extensions>
</trkpt>
<trkpt lat="64.310569763" lon="-20.305290222">
<ele>105.318359</ele>
<time>2012-07-19T19:35:36Z</time>
<extensions>
<speed>0.0</speed>
<temp>0.00</temp>
<bpm>0</bpm>
<rpm>0.00</rpm>
</extensions>
</trkpt>
<trkpt lat="64.310569763" lon="-20.305290222">
<ele>105.324219</ele>
<time>2012-07-19T19:35:41Z</time>
<extensions>
<speed>0.0</speed>
<temp>0.00</temp>
<bpm>0</bpm>
<rpm>0.00</rpm>
</extensions>
</trkpt>
<trkpt lat="64.310569763" lon="-20.305290222">
<ele>105.333984</ele>
<time>2012-07-19T19:35:46Z</time>
<extensions>
<speed>0.0</speed>
<temp>0.00</temp>
<bpm>0</bpm>
<rpm>0.00</rpm>
</extensions>
</trkpt>
<trkpt lat="64.310569763" lon="-20.305290222">
<ele>105.341797</ele>
<time>2012-07-19T19:35:51Z</time>
<speed>0.010000</speed>
<extensions>
<speed>0.0</speed>
<temp>0.00</temp>
<bpm>0</bpm>
<rpm>0.00</rpm>
</extensions>
</trkpt>
<trkpt lat="64.310569763" lon="-20.305290222">
<ele>105.347656</ele>
<time>2012-07-19T19:35:56Z</time>
<extensions>
<speed>0.0</speed>
<temp>0.00</temp>
<bpm>0</bpm>
<rpm>0.00</rpm>
</extensions>
</trkpt>
<trkpt lat="64.310569763" lon="-20.305290222">
<ele>105.355469</ele>
<time>2012-07-19T19:36:01Z</time>
<extensions>
<speed>0.0</speed>
<temp>0.00</temp>
<bpm>0</bpm>
<rpm>0.00</rpm>
</extensions>
</trkpt>
<trkpt lat="64.310569763" lon="-20.305290222">
<ele>105.357422</ele>
<time>2012-07-19T19:36:06Z</time>
<extensions>
<speed>0.0</speed>
<temp>0.00</temp>
<bpm>0</bpm>
<rpm>0.00</rpm>
</extensions>
</trkpt>
<trkpt lat="64.310569763" lon="-20.305290222">
<ele>105.365234</ele>
<time>2012-07-19T19:36:11Z</time>
<extensions>
<speed>0.0</speed>
<temp>0.00</temp>
<bpm>0</bpm>
<rpm>0.00</rpm>
</extensions>
</trkpt>
<trkpt lat="64.310569763" lon="-20.305290222">
<ele>105.369141</ele>
<time>2012-07-19T19:36:16Z</time>
<extensions>
<speed>0.0</speed>
<temp>0.00</temp>
<bpm>0</bpm>
<rpm>0.00</rpm>
</extensions>
</trkpt>
<trkpt lat="64.310569763" lon="-20.305290222">
<ele>105.371094</ele>
<time>2012-07-19T19:36:21Z</time>
<speed>0.010000</speed>
<extensions>
<speed>0.0</speed>
<temp>0.00</temp>
<bpm>0</bpm>
<rpm>0.00</rpm>
</extensions>
</trkpt>
<trkpt lat="64.310569763" lon="-20.305290222">
<ele>105.380859</ele>
<time>2012-07-19T19:36:26Z</time>
<extensions>
<speed>0.0</speed>
<temp>0.00</temp>
<bpm>0</bpm>
<rpm>0.00</rpm>
</extensions>
</trkpt>
<trkpt lat="64.310569763" lon="-20.305290222">
<ele>105.386719</ele>
<time>2012-07-19T19:36:31Z</time>
<extensions>
<speed>0.0</speed>
<temp>0.00</temp>
<bpm>0</bpm>
<rpm>0.00</rpm>
</extensions>
</trkpt>
<trkpt lat="64.310569763" lon="-20.305290222">
<ele>105.392578</ele>
<time>2012-07-19T19:36:36Z</time>
<extensions>
<speed>0.0</speed>
<temp>0.00</temp>
<bpm>0</bpm>
<rpm>0.00</rpm>
</extensions>
</trkpt>
<trkpt lat="64.310569763" lon="-20.305290222">
<ele>105.404297</ele>
<time>2012-07-19T19:36:41Z</time>
<extensions>
<speed>0.0</speed>
<temp>0.00</temp>
<bpm>0</bpm>
<rpm>0.00</rpm>
</extensions>
</trkpt>
<trkpt lat="64.310569763" lon="-20.305290222">
<ele>105.410156</ele>
<time>2012-07-19T19:36:46Z</time>
<extensions>
<speed>0.0</speed>
<temp>0.00</temp>
<bpm>0</bpm>
<rpm>0.00</rpm>
</extensions>
</trkpt>
<trkpt lat="64.310569763" lon="-20.305290222">
<ele>105.417969</ele>
<time>2012-07-19T19:36:51Z</time>
<extensions>
<speed>0.0</speed>
<temp>0.00</temp>
<bpm>0</bpm>
<rpm>0.00</rpm>
</extensions>
</trkpt>
<trkpt lat="64.310562134" lon="-20.305290222">
<ele>105.417969</ele>
<time>2012-07-19T19:36:56Z</time>
<extensions>
<speed>0.0</speed>
<temp>0.00</temp>
<bpm>0</bpm>
<rpm>0.00</rpm>
</extensions>
</trkpt>
<trkpt lat="64.310569763" lon="-20.305290222">
<ele>105.414063</ele>
<time>2012-07-19T19:37:01Z</time>
<speed>0.010000</speed>
<extensions>
<speed>0.0</speed>
<temp>0.00</temp>
<bpm>0</bpm>
<rpm>0.00</rpm>
</extensions>
</trkpt>
<trkpt lat="64.310569763" lon="-20.305290222">
<ele>105.421875</ele>
<time>2012-07-19T19:37:06Z</time>
<extensions>
<speed>0.0</speed>
<temp>0.00</temp>
<bpm>0</bpm>
<rpm>0.00</rpm>
</extensions>
</trkpt>
<trkpt lat="64.310569763" lon="-20.305290222">
<ele>105.417969</ele>
<time>2012-07-19T19:37:11Z</time>
<speed>0.010000</speed>
<extensions>
<speed>0.0</speed>
<temp>0.00</temp>
<bpm>0</bpm>
<rpm>0.00</rpm>
</extensions>
</trkpt>
<trkpt lat="64.310569763" lon="-20.305290222">
<ele>105.423828</ele>
<time>2012-07-19T19:37:16Z</time>
<extensions>
<speed>0.0</speed>
<temp>0.00</temp>
<bpm>0</bpm>
<rpm>0.00</rpm>
</extensions>
</trkpt>
<trkpt lat="64.310569763" lon="-20.305292130">
<ele>105.433594</ele>
<time>2012-07-19T19:37:21Z</time>
<extensions>
<speed>0.0</speed>
<temp>0.00</temp>
<bpm>0</bpm>
<rpm>0.00</rpm>
</extensions>
</trkpt>
<trkpt lat="64.310569763" lon="-20.305292130">
<ele>105.439453</ele>
<time>2012-07-19T19:37:26Z</time>
<extensions>
<speed>0.0</speed>
<temp>0.00</temp>
<bpm>0</bpm>
<rpm>0.00</rpm>
</extensions>
</trkpt>
<trkpt lat="64.310569763" lon="-20.305292130">
<ele>105.445313</ele>
<time>2012-07-19T19:37:31Z</time>
<extensions>
<speed>0.0</speed>
<temp>0.00</temp>
<bpm>0</bpm>
<rpm>0.00</rpm>
</extensions>
</trkpt>
<trkpt lat="64.310569763" lon="-20.305292130">
<ele>105.447266</ele>
<time>2012-07-19T19:37:36Z</time>
<extensions>
<speed>0.0</speed>
<temp>0.00</temp>
<bpm>0</bpm>
<rpm>0.00</rpm>
</extensions>
</trkpt>
<trkpt lat="64.310569763" lon="-20.305292130">
<ele>105.453125</ele>
<time>2012-07-19T19:37:41Z</time>
<extensions>
<speed>0.0</speed>
<temp>0.00</temp>
<bpm>0</bpm>
<rpm>0.00</rpm>
</extensions>
</trkpt>
<trkpt lat="64.310569763" lon="-20.305292130">
<ele>105.455078</ele>
<time>2012-07-19T19:37:46Z</time>
<extensions>
<speed>0.0</speed>
<temp>0.00</temp>
<bpm>0</bpm>
<rpm>0.00</rpm>
</extensions>
</trkpt>
<trkpt lat="64.310569763" lon="-20.305292130">
<ele>105.466797</ele>
<time>2012-07-19T19:37:51Z</time>
<speed>0.010000</speed>
<extensions>
<speed>0.0</speed>
<temp>0.00</temp>
<bpm>0</bpm>
<rpm>0.00</rpm>
</extensions>
</trkpt>
<trkpt lat="64.310569763" lon="-20.305292130">
<ele>105.476563</ele>
<time>2012-07-19T19:37:56Z</time>
<extensions>
<speed>0.0</speed>
<temp>0.00</temp>
<bpm>0</bpm>
<rpm>0.00</rpm>
</extensions>
</trkpt>
<trkpt lat="64.310569763" lon="-20.305292130">
<ele>105.476563</ele>
<time>2012-07-19T19:38:01Z</time>
<speed>0.010000</speed>
<extensions>
<speed>0.0</speed>
<temp>0.00</temp>
<bpm>0</bpm>
<rpm>0.00</rpm>
</extensions>
</trkpt>
<trkpt lat="64.310569763" lon="-20.305292130">
<ele>105.482422</ele>
<time>2012-07-19T19:38:06Z</time>
<speed>0.010000</speed>
<extensions>
<speed>0.0</speed>
<temp>0.00</temp>
<bpm>0</bpm>
<rpm>0.00</rpm>
</extensions>
</trkpt>
<trkpt lat="64.310569763" lon="-20.305292130">
<ele>105.480469</ele>
<time>2012-07-19T19:38:11Z</time>
<extensions>
<speed>0.0</speed>
<temp>0.00</temp>
<bpm>0</bpm>
<rpm>0.00</rpm>
</extensions>
</trkpt>
<trkpt lat="64.310569763" lon="-20.305292130">
<ele>105.482422</ele>
<time>2012-07-19T19:38:16Z</time>
<extensions>
<speed>0.0</speed>
<temp>0.00</temp>
<bpm>0</bpm>
<rpm>0.00</rpm>
</extensions>
</trkpt>
<trkpt lat="64.310569763" lon="-20.305292130">
<ele>105.484375</ele>
<time>2012-07-19T19:38:21Z</time>
<extensions>
<speed>0.0</speed>
<temp>0.00</temp>
<bpm>0</bpm>
<rpm>0.00</rpm>
</extensions>
</trkpt>
<trkpt lat="64.310569763" lon="-20.305292130">
<ele>105.494141</ele>
<time>2012-07-19T19:38:26Z</time>
<speed>0.010000</speed>
<extensions>
<speed>0.0</speed>
<temp>0.00</temp>
<bpm>0</bpm>
<rpm>0.00</rpm>
</extensions>
</trkpt>
<trkpt lat="64.310569763" lon="-20.305292130">
<ele>105.500000</ele>
<time>2012-07-19T19:38:31Z</time>
<extensions>
<speed>0.0</speed>
<temp>0.00</temp>
<bpm>0</bpm>
<rpm>0.00</rpm>
</extensions>
</trkpt>
<trkpt lat="64.310569763" lon="-20.305292130">
<ele>105.503906</ele>
<time>2012-07-19T19:38:36Z</time>
<extensions>
<speed>0.0</speed>
<temp>0.00</temp>
<bpm>0</bpm>
<rpm>0.00</rpm>
</extensions>
</trkpt>
<trkpt lat="64.310569763" lon="-20.305294037">
<ele>105.505859</ele>
<time>2012-07-19T19:38:41Z</time>
<extensions>
<speed>0.0</speed>
<temp>0.00</temp>
<bpm>0</bpm>
<rpm>0.00</rpm>
</extensions>
</trkpt>
<trkpt lat="64.310569763" lon="-20.305294037">
<ele>105.515625</ele>
<time>2012-07-19T19:38:46Z</time>
<extensions>
<speed>0.0</speed>
<temp>0.00</temp>
<bpm>0</bpm>
<rpm>0.00</rpm>
</extensions>
</trkpt>
<trkpt lat="64.310569763" lon="-20.305294037">
<ele>105.519531</ele>
<time>2012-07-19T19:38:51Z</time>
<extensions>
<speed>0.0</speed>
<temp>0.00</temp>
<bpm>0</bpm>
<rpm>0.00</rpm>
</extensions>
</trkpt>
<trkpt lat="64.310569763" lon="-20.305294037">
<ele>105.521484</ele>
<time>2012-07-19T19:38:56Z</time>
<extensions>
<speed>0.0</speed>
<temp>0.00</temp>
<bpm>0</bpm>
<rpm>0.00</rpm>
</extensions>
</trkpt>
<trkpt lat="64.310569763" lon="-20.305294037">
<ele>105.521484</ele>
<time>2012-07-19T19:39:01Z</time>
<extensions>
<speed>0.0</speed>
<temp>0.00</temp>
<bpm>0</bpm>
<rpm>0.00</rpm>
</extensions>
</trkpt>
<trkpt lat="64.310569763" lon="-20.305294037">
<ele>105.525391</ele>
<time>2012-07-19T19:39:06Z</time>
<extensions>
<speed>0.0</speed>
<temp>0.00</temp>
<bpm>0</bpm>
<rpm>0.00</rpm>
</extensions>
</trkpt>
<trkpt lat="64.310569763" lon="-20.305294037">
<ele>105.531250</ele>
<time>2012-07-19T19:39:11Z</time>
<extensions>
<speed>0.0</speed>
<temp>0.00</temp>
<bpm>0</bpm>
<rpm>0.00</rpm>
</extensions>
</trkpt>
<trkpt lat="64.310569763" lon="-20.305294037">
<ele>105.537109</ele>
<time>2012-07-19T19:39:16Z</time>
<extensions>
<speed>0.0</speed>
<temp>0.00</temp>
<bpm>0</bpm>
<rpm>0.00</rpm>
</extensions>
</trkpt>
<trkpt lat="64.310569763" lon="-20.305294037">
<ele>105.544922</ele>
<time>2012-07-19T19:39:21Z</time>
<extensions>
<speed>0.0</speed>
<temp>0.00</temp>
<bpm>0</bpm>
<rpm>0.00</rpm>
</extensions>
</trkpt>
<trkpt lat="64.310569763" lon="-20.305294037">
<ele>105.556641</ele>
<time>2012-07-19T19:39:26Z</time>
<extensions>
<speed>0.0</speed>
<temp>0.00</temp>
<bpm>0</bpm>
<rpm>0.00</rpm>
</extensions>
</trkpt>
<trkpt lat="64.310569763" lon="-20.305294037">
<ele>105.562500</ele>
<time>2012-07-19T19:39:31Z</time>
<extensions>
<speed>0.0</speed>
<temp>0.00</temp>
<bpm>0</bpm>
<rpm>0.00</rpm>
</extensions>
</trkpt>
<trkpt lat="64.310569763" lon="-20.305294037">
<ele>105.566406</ele>
<time>2012-07-19T19:39:36Z</time>
<extensions>
<speed>0.0</speed>
<temp>0.00</temp>
<bpm>0</bpm>
<rpm>0.00</rpm>
</extensions>
</trkpt>
<trkpt lat="64.310569763" lon="-20.305294037">
<ele>105.570313</ele>
<time>2012-07-19T19:39:41Z</time>
<extensions>
<speed>0.0</speed>
<temp>0.00</temp>
<bpm>0</bpm>
<rpm>0.00</rpm>
</extensions>
</trkpt>
<trkpt lat="64.310569763" lon="-20.305295944">
<ele>105.576172</ele>
<time>2012-07-19T19:39:46Z</time>
<extensions>
<speed>0.0</speed>
<temp>0.00</temp>
<bpm>0</bpm>
<rpm>0.00</rpm>
</extensions>
</trkpt>
<trkpt lat="64.310569763" lon="-20.305295944">
<ele>105.576172</ele>
<time>2012-07-19T19:39:51Z</time>
<extensions>
<speed>0.0</speed>
<temp>0.00</temp>
<bpm>0</bpm>
<rpm>0.00</rpm>
</extensions>
</trkpt>
<trkpt lat="64.310569763" lon="-20.305295944">
<ele>105.583984</ele>
<time>2012-07-19T19:39:56Z</time>
<extensions>
<speed>0.0</speed>
<temp>0.00</temp>
<bpm>0</bpm>
<rpm>0.00</rpm>
</extensions>
</trkpt>
<trkpt lat="64.310569763" lon="-20.305294037">
<ele>105.591797</ele>
<time>2012-07-19T19:40:01Z</time>
<extensions>
<speed>0.0</speed>
<temp>0.00</temp>
<bpm>0</bpm>
<rpm>0.00</rpm>
</extensions>
</trkpt>
<trkpt lat="64.310569763" lon="-20.305294037">
<ele>105.601563</ele>
<time>2012-07-19T19:40:06Z</time>
<extensions>
<speed>0.0</speed>
<temp>0.00</temp>
<bpm>0</bpm>
<rpm>0.00</rpm>
</extensions>
</trkpt>
<trkpt lat="64.310569763" lon="-20.305294037">
<ele>105.605469</ele>
<time>2012-07-19T19:40:11Z</time>
<extensions>
<speed>0.0</speed>
<temp>0.00</temp>
<bpm>0</bpm>
<rpm>0.00</rpm>
</extensions>
</trkpt>
<trkpt lat="64.310569763" lon="-20.305294037">
<ele>105.605469</ele>
<time>2012-07-19T19:40:16Z</time>
<speed>0.030000</speed>
<extensions>
<speed>0.0</speed>
<temp>0.00</temp>
<bpm>0</bpm>
<rpm>0.00</rpm>
</extensions>
</trkpt>
<trkpt lat="64.310569763" lon="-20.305294037">
<ele>105.599609</ele>
<time>2012-07-19T19:40:21Z</time>
<extensions>
<speed>0.0</speed>
<temp>0.00</temp>
<bpm>0</bpm>
<rpm>0.00</rpm>
</extensions>
</trkpt>
<trkpt lat="64.310569763" lon="-20.305294037">
<ele>105.595703</ele>
<time>2012-07-19T19:40:26Z</time>
<extensions>
<speed>0.0</speed>
<temp>0.00</temp>
<bpm>0</bpm>
<rpm>0.00</rpm>
</extensions>
</trkpt>
<trkpt lat="64.310569763" lon="-20.305294037">
<ele>105.593750</ele>
<time>2012-07-19T19:40:31Z</time>
<extensions>
<speed>0.0</speed>
<temp>0.00</temp>
<bpm>0</bpm>
<rpm>0.00</rpm>
</extensions>
</trkpt>
<trkpt lat="64.310569763" lon="-20.305295944">
<ele>105.591797</ele>
<time>2012-07-19T19:40:36Z</time>
<speed>0.010000</speed>
<extensions>
<speed>0.0</speed>
<temp>0.00</temp>
<bpm>0</bpm>
<rpm>0.00</rpm>
</extensions>
</trkpt>
<trkpt lat="64.310569763" lon="-20.305295944">
<ele>105.601563</ele>
<time>2012-07-19T19:40:41Z</time>
<speed>0.030000</speed>
<extensions>
<speed>0.0</speed>
<temp>0.00</temp>
<bpm>0</bpm>
<rpm>0.00</rpm>
</extensions>
</trkpt>
<trkpt lat="64.310569763" lon="-20.305295944">
<ele>105.609375</ele>
<time>2012-07-19T19:40:46Z</time>
<speed>0.010000</speed>
<extensions>
<speed>0.0</speed>
<temp>0.00</temp>
<bpm>0</bpm>
<rpm>0.00</rpm>
</extensions>
</trkpt>
<trkpt lat="64.310569763" lon="-20.305295944">
<ele>105.617188</ele>
<time>2012-07-19T19:40:51Z</time>
<extensions>
<speed>0.0</speed>
<temp>0.00</temp>
<bpm>0</bpm>
<rpm>0.00</rpm>
</extensions>
</trkpt>
<trkpt lat="64.310569763" lon="-20.305295944">
<ele>105.628906</ele>
<time>2012-07-19T19:40:56Z</time>
<extensions>
<speed>0.0</speed>
<temp>0.00</temp>
<bpm>0</bpm>
<rpm>0.00</rpm>
</extensions>
</trkpt>
<trkpt lat="64.310569763" lon="-20.305295944">
<ele>105.632813</ele>
<time>2012-07-19T19:41:01Z</time>
<extensions>
<speed>0.0</speed>
<temp>0.00</temp>
<bpm>0</bpm>
<rpm>0.00</rpm>
</extensions>
</trkpt>
<trkpt lat="64.310569763" lon="-20.305295944">
<ele>105.630859</ele>
<time>2012-07-19T19:41:06Z</time>
<speed>0.010000</speed>
<extensions>
<speed>0.0</speed>
<temp>0.00</temp>
<bpm>0</bpm>
<rpm>0.00</rpm>
</extensions>
</trkpt>
<trkpt lat="64.310569763" lon="-20.305295944">
<ele>105.630859</ele>
<time>2012-07-19T19:41:11Z</time>
<extensions>
<speed>0.0</speed>
<temp>0.00</temp>
<bpm>0</bpm>
<rpm>0.00</rpm>
</extensions>
</trkpt>
<trkpt lat="64.310569763" lon="-20.305295944">
<ele>105.630859</ele>
<time>2012-07-19T19:41:16Z</time>
<extensions>
<speed>0.0</speed>
<temp>0.00</temp>
<bpm>0</bpm>
<rpm>0.00</rpm>
</extensions>
</trkpt>
<trkpt lat="64.310569763" lon="-20.305297852">
<ele>105.625000</ele>
<time>2012-07-19T19:41:21Z</time>
<speed>0.010000</speed>
<extensions>
<speed>0.0</speed>
<temp>0.00</temp>
<bpm>0</bpm>
<rpm>0.00</rpm>
</extensions>
</trkpt>
<trkpt lat="64.310569763" lon="-20.305297852">
<ele>105.626953</ele>
<time>2012-07-19T19:41:26Z</time>
<extensions>
<speed>0.0</speed>
<temp>0.00</temp>
<bpm>0</bpm>
<rpm>0.00</rpm>
</extensions>
</trkpt>
<trkpt lat="64.310569763" lon="-20.305297852">
<ele>105.628906</ele>
<time>2012-07-19T19:41:31Z</time>
<extensions>
<speed>0.0</speed>
<temp>0.00</temp>
<bpm>0</bpm>
<rpm>0.00</rpm>
</extensions>
</trkpt>
<trkpt lat="64.310569763" lon="-20.305297852">
<ele>105.638672</ele>
<time>2012-07-19T19:41:36Z</time>
<extensions>
<speed>0.0</speed>
<temp>0.00</temp>
<bpm>0</bpm>
<rpm>0.00</rpm>
</extensions>
</trkpt>
<trkpt lat="64.310569763" lon="-20.305297852">
<ele>105.646484</ele>
<time>2012-07-19T19:41:41Z</time>
<extensions>
<speed>0.0</speed>
<temp>0.00</temp>
<bpm>0</bpm>
<rpm>0.00</rpm>
</extensions>
</trkpt>
<trkpt lat="64.310569763" lon="-20.305297852">
<ele>105.644531</ele>
<time>2012-07-19T19:41:46Z</time>
<extensions>
<speed>0.0</speed>
<temp>0.00</temp>
<bpm>0</bpm>
<rpm>0.00</rpm>
</extensions>
</trkpt>
<trkpt lat="64.310569763" lon="-20.305297852">
<ele>105.644531</ele>
<time>2012-07-19T19:41:51Z</time>
<extensions>
<speed>0.0</speed>
<temp>0.00</temp>
<bpm>0</bpm>
<rpm>0.00</rpm>
</extensions>
</trkpt>
<trkpt lat="64.310569763" lon="-20.305297852">
<ele>105.652344</ele>
<time>2012-07-19T19:41:56Z</time>
<extensions>
<speed>0.0</speed>
<temp>0.00</temp>
<bpm>0</bpm>
<rpm>0.00</rpm>
</extensions>
</trkpt>
<trkpt lat="64.310569763" lon="-20.305297852">
<ele>105.656250</ele>
<time>2012-07-19T19:42:01Z</time>
<extensions>
<speed>0.0</speed>
<temp>0.00</temp>
<bpm>0</bpm>
<rpm>0.00</rpm>
</extensions>
</trkpt>
<trkpt lat="64.310569763" lon="-20.305297852">
<ele>105.671875</ele>
<time>2012-07-19T19:42:06Z</time>
<extensions>
<speed>0.0</speed>
<temp>0.00</temp>
<bpm>0</bpm>
<rpm>0.00</rpm>
</extensions>
</trkpt>
<trkpt lat="64.310569763" lon="-20.305299759">
<ele>105.679688</ele>
<time>2012-07-19T19:42:11Z</time>
<speed>0.010000</speed>
<extensions>
<speed>0.0</speed>
<temp>0.00</temp>
<bpm>0</bpm>
<rpm>0.00</rpm>
</extensions>
</trkpt>
<trkpt lat="64.310569763" lon="-20.305299759">
<ele>105.695313</ele>
<time>2012-07-19T19:42:16Z</time>
<speed>0.010000</speed>
<extensions>
<speed>0.0</speed>
<temp>0.00</temp>
<bpm>0</bpm>
<rpm>0.00</rpm>
</extensions>
</trkpt>
<trkpt lat="64.310569763" lon="-20.305299759">
<ele>105.710938</ele>
<time>2012-07-19T19:42:21Z</time>
<speed>0.010000</speed>
<extensions>
<speed>0.0</speed>
<temp>0.00</temp>
<bpm>0</bpm>
<rpm>0.00</rpm>
</extensions>
</trkpt>
<trkpt lat="64.310569763" lon="-20.305299759">
<ele>105.722656</ele>
<time>2012-07-19T19:42:26Z</time>
<extensions>
<speed>0.0</speed>
<temp>0.00</temp>
<bpm>0</bpm>
<rpm>0.00</rpm>
</extensions>
</trkpt>
<trkpt lat="64.310569763" lon="-20.305299759">
<ele>105.724609</ele>
<time>2012-07-19T19:42:31Z</time>
<extensions>
<speed>0.0</speed>
<temp>0.00</temp>
<bpm>0</bpm>
<rpm>0.00</rpm>
</extensions>
</trkpt>
<trkpt lat="64.310569763" lon="-20.305299759">
<ele>105.728516</ele>
<time>2012-07-19T19:42:36Z</time>
<speed>0.010000</speed>
<extensions>
<speed>0.0</speed>
<temp>0.00</temp>
<bpm>0</bpm>
<rpm>0.00</rpm>
</extensions>
</trkpt>
<trkpt lat="64.310569763" lon="-20.305299759">
<ele>105.744141</ele>
<time>2012-07-19T19:42:41Z</time>
<extensions>
<speed>0.0</speed>
<temp>0.00</temp>
<bpm>0</bpm>
<rpm>0.00</rpm>
</extensions>
</trkpt>
<trkpt lat="64.310569763" lon="-20.305299759">
<ele>105.759766</ele>
<time>2012-07-19T19:42:46Z</time>
<extensions>
<speed>0.0</speed>
<temp>0.00</temp>
<bpm>0</bpm>
<rpm>0.00</rpm>
</extensions>
</trkpt>
<trkpt lat="64.310569763" lon="-20.305299759">
<ele>105.771484</ele>
<time>2012-07-19T19:42:51Z</time>
<extensions>
<speed>0.0</speed>
<temp>0.00</temp>
<bpm>0</bpm>
<rpm>0.00</rpm>
</extensions>
</trkpt>
<trkpt lat="64.310569763" lon="-20.305299759">
<ele>105.787109</ele>
<time>2012-07-19T19:42:56Z</time>
<extensions>
<speed>0.0</speed>
<temp>0.00</temp>
<bpm>0</bpm>
<rpm>0.00</rpm>
</extensions>
</trkpt>
<trkpt lat="64.310569763" lon="-20.305299759">
<ele>105.806641</ele>
<time>2012-07-19T19:43:01Z</time>
<extensions>
<speed>0.0</speed>
<temp>0.00</temp>
<bpm>0</bpm>
<rpm>0.00</rpm>
</extensions>
</trkpt>
<trkpt lat="64.310569763" lon="-20.305299759">
<ele>105.800781</ele>
<time>2012-07-19T19:43:06Z</time>
<extensions>
<speed>0.0</speed>
<temp>0.00</temp>
<bpm>0</bpm>
<rpm>0.00</rpm>
</extensions>
</trkpt>
<trkpt lat="64.310569763" lon="-20.305299759">
<ele>105.802734</ele>
<time>2012-07-19T19:43:11Z</time>
<extensions>
<speed>0.0</speed>
<temp>0.00</temp>
<bpm>0</bpm>
<rpm>0.00</rpm>
</extensions>
</trkpt>
<trkpt lat="64.310569763" lon="-20.305299759">
<ele>105.794922</ele>
<time>2012-07-19T19:43:16Z</time>
<speed>0.050000</speed>
<extensions>
<speed>0.1</speed>
<temp>0.00</temp>
<bpm>0</bpm>
<rpm>0.00</rpm>
</extensions>
</trkpt>
<trkpt lat="64.310569763" lon="-20.305299759">
<ele>105.789063</ele>
<time>2012-07-19T19:43:21Z</time>
<extensions>
<speed>0.0</speed>
<temp>0.00</temp>
<bpm>0</bpm>
<rpm>0.00</rpm>
</extensions>
</trkpt>
<trkpt lat="64.310569763" lon="-20.305299759">
<ele>105.775391</ele>
<time>2012-07-19T19:43:26Z</time>
<extensions>
<speed>0.0</speed>
<temp>0.00</temp>
<bpm>0</bpm>
<rpm>0.00</rpm>
</extensions>
</trkpt>
<trkpt lat="64.310569763" lon="-20.305299759">
<ele>105.751953</ele>
<time>2012-07-19T19:43:31Z</time>
<speed>0.040000</speed>
<extensions>
<speed>0.0</speed>
<temp>0.00</temp>
<bpm>0</bpm>
<rpm>0.00</rpm>
</extensions>
</trkpt>
<trkpt lat="64.310569763" lon="-20.305299759">
<ele>105.746094</ele>
<time>2012-07-19T19:43:36Z</time>
<speed>0.010000</speed>
<extensions>
<speed>0.0</speed>
<temp>0.00</temp>
<bpm>0</bpm>
<rpm>0.00</rpm>
</extensions>
</trkpt>
<trkpt lat="64.310569763" lon="-20.305299759">
<ele>105.734375</ele>
<time>2012-07-19T19:43:41Z</time>
<extensions>
<speed>0.0</speed>
<temp>0.00</temp>
<bpm>0</bpm>
<rpm>0.00</rpm>
</extensions>
</trkpt>
<trkpt lat="64.310569763" lon="-20.305303574">
<ele>105.455078</ele>
<time>2012-07-19T19:43:46Z</time>
<extensions>
<speed>0.0</speed>
<temp>0.00</temp>
<bpm>0</bpm>
<rpm>0.00</rpm>
</extensions>
</trkpt>
<trkpt lat="64.310569763" lon="-20.305303574">
<ele>105.455078</ele>
<time>2012-07-19T19:43:51Z</time>
<speed>0.010000</speed>
<extensions>
<speed>0.0</speed>
<temp>0.00</temp>
<bpm>0</bpm>
<rpm>0.00</rpm>
</extensions>
</trkpt>
<trkpt lat="64.310569763" lon="-20.305303574">
<ele>105.466797</ele>
<time>2012-07-19T19:43:56Z</time>
<extensions>
<speed>0.0</speed>
<temp>0.00</temp>
<bpm>0</bpm>
<rpm>0.00</rpm>
</extensions>
</trkpt>
<trkpt lat="64.310569763" lon="-20.305303574">
<ele>105.474609</ele>
<time>2012-07-19T19:44:01Z</time>
<extensions>
<speed>0.0</speed>
<temp>0.00</temp>
<bpm>0</bpm>
<rpm>0.00</rpm>
</extensions>
</trkpt>
<trkpt lat="64.310569763" lon="-20.305303574">
<ele>105.482422</ele>
<time>2012-07-19T19:44:06Z</time>
<extensions>
<speed>0.0</speed>
<temp>0.00</temp>
<bpm>0</bpm>
<rpm>0.00</rpm>
</extensions>
</trkpt>
<trkpt lat="64.310569763" lon="-20.305303574">
<ele>105.408203</ele>
<time>2012-07-19T19:44:11Z</time>
<extensions>
<speed>0.0</speed>
<temp>0.00</temp>
<bpm>0</bpm>
<rpm>0.00</rpm>
</extensions>
</trkpt>
<trkpt lat="64.310569763" lon="-20.305305481">
<ele>105.412109</ele>
<time>2012-07-19T19:44:16Z</time>
<extensions>
<speed>0.0</speed>
<temp>0.00</temp>
<bpm>0</bpm>
<rpm>0.00</rpm>
</extensions>
</trkpt>
<trkpt lat="64.310569763" lon="-20.305305481">
<ele>105.416016</ele>
<time>2012-07-19T19:44:21Z</time>
<extensions>
<speed>0.0</speed>
<temp>0.00</temp>
<bpm>0</bpm>
<rpm>0.00</rpm>
</extensions>
</trkpt>
<trkpt lat="64.310569763" lon="-20.305305481">
<ele>105.417969</ele>
<time>2012-07-19T19:44:26Z</time>
<extensions>
<speed>0.0</speed>
<temp>0.00</temp>
<bpm>0</bpm>
<rpm>0.00</rpm>
</extensions>
</trkpt>
<trkpt lat="64.310569763" lon="-20.305305481">
<ele>105.417969</ele>
<time>2012-07-19T19:44:31Z</time>
<extensions>
<speed>0.0</speed>
<temp>0.00</temp>
<bpm>0</bpm>
<rpm>0.00</rpm>
</extensions>
</trkpt>
<trkpt lat="64.310569763" lon="-20.305305481">
<ele>105.410156</ele>
<time>2012-07-19T19:44:36Z</time>
<extensions>
<speed>0.0</speed>
<temp>0.00</temp>
<bpm>0</bpm>
<rpm>0.00</rpm>
</extensions>
</trkpt>
<trkpt lat="64.310569763" lon="-20.305305481">
<ele>105.408203</ele>
<time>2012-07-19T19:44:41Z</time>
<speed>0.010000</speed>
<extensions>
<speed>0.0</speed>
<temp>0.00</temp>
<bpm>0</bpm>
<rpm>0.00</rpm>
</extensions>
</trkpt>
<trkpt lat="64.310569763" lon="-20.305305481">
<ele>105.402344</ele>
<time>2012-07-19T19:44:46Z</time>
<speed>0.490000</speed>
<extensions>
<speed>0.5</speed>
<temp>0.00</temp>
<bpm>0</bpm>
<rpm>0.00</rpm>
</extensions>
</trkpt>
<trkpt lat="64.310569763" lon="-20.305315018">
<ele>105.019531</ele>
<time>2012-07-19T19:44:51Z</time>
<extensions>
<speed>0.0</speed>
<temp>0.00</temp>
<bpm>0</bpm>
<rpm>0.00</rpm>
</extensions>
</trkpt>
<trkpt lat="64.310569763" lon="-20.305315018">
<ele>105.017578</ele>
<time>2012-07-19T19:44:56Z</time>
<extensions>
<speed>0.0</speed>
<temp>0.00</temp>
<bpm>0</bpm>
<rpm>0.00</rpm>
</extensions>
</trkpt>
<trkpt lat="64.310569763" lon="-20.305315018">
<ele>105.009766</ele>
<time>2012-07-19T19:45:01Z</time>
<extensions>
<speed>0.0</speed>
<temp>0.00</temp>
<bpm>0</bpm>
<rpm>0.00</rpm>
</extensions>
</trkpt>
<trkpt lat="64.310569763" lon="-20.305315018">
<ele>104.998047</ele>
<time>2012-07-19T19:45:06Z</time>
<extensions>
<speed>0.0</speed>
<temp>0.00</temp>
<bpm>0</bpm>
<rpm>0.00</rpm>
</extensions>
</trkpt>
<trkpt lat="64.310569763" lon="-20.305315018">
<ele>105.000000</ele>
<time>2012-07-19T19:45:11Z</time>
<speed>0.010000</speed>
<extensions>
<speed>0.0</speed>
<temp>0.00</temp>
<bpm>0</bpm>
<rpm>0.00</rpm>
</extensions>
</trkpt>
<trkpt lat="64.310569763" lon="-20.305311203">
<ele>105.042969</ele>
<time>2012-07-19T19:45:16Z</time>
<extensions>
<speed>0.0</speed>
<temp>0.00</temp>
<bpm>0</bpm>
<rpm>0.00</rpm>
</extensions>
</trkpt>
<trkpt lat="64.310569763" lon="-20.305311203">
<ele>105.048828</ele>
<time>2012-07-19T19:45:21Z</time>
<extensions>
<speed>0.0</speed>
<temp>0.00</temp>
<bpm>0</bpm>
<rpm>0.00</rpm>
</extensions>
</trkpt>
<trkpt lat="64.310569763" lon="-20.305311203">
<ele>105.056641</ele>
<time>2012-07-19T19:45:26Z</time>
<extensions>
<speed>0.0</speed>
<temp>0.00</temp>
<bpm>0</bpm>
<rpm>0.00</rpm>
</extensions>
</trkpt>
<trkpt lat="64.310569763" lon="-20.305311203">
<ele>105.060547</ele>
<time>2012-07-19T19:45:31Z</time>
<extensions>
<speed>0.0</speed>
<temp>0.00</temp>
<bpm>0</bpm>
<rpm>0.00</rpm>
</extensions>
</trkpt>
<trkpt lat="64.310569763" lon="-20.305311203">
<ele>105.064453</ele>
<time>2012-07-19T19:45:36Z</time>
<speed>0.010000</speed>
<extensions>
<speed>0.0</speed>
<temp>0.00</temp>
<bpm>0</bpm>
<rpm>0.00</rpm>
</extensions>
</trkpt>
<trkpt lat="64.310569763" lon="-20.305311203">
<ele>105.068359</ele>
<time>2012-07-19T19:45:41Z</time>
<speed>0.010000</speed>
<extensions>
<speed>0.0</speed>
<temp>0.00</temp>
<bpm>0</bpm>
<rpm>0.00</rpm>
</extensions>
</trkpt>
<trkpt lat="64.310569763" lon="-20.305311203">
<ele>105.076172</ele>
<time>2012-07-19T19:45:46Z</time>
<extensions>
<speed>0.0</speed>
<temp>0.00</temp>
<bpm>0</bpm>
<rpm>0.00</rpm>
</extensions>
</trkpt>
<trkpt lat="64.310569763" lon="-20.305311203">
<ele>105.083984</ele>
<time>2012-07-19T19:45:51Z</time>
<extensions>
<speed>0.0</speed>
<temp>0.00</temp>
<bpm>0</bpm>
<rpm>0.00</rpm>
</extensions>
</trkpt>
<trkpt lat="64.310569763" lon="-20.305309296">
<ele>105.087891</ele>
<time>2012-07-19T19:45:56Z</time>
<extensions>
<speed>0.0</speed>
<temp>0.00</temp>
<bpm>0</bpm>
<rpm>0.00</rpm>
</extensions>
</trkpt>
<trkpt lat="64.310569763" lon="-20.305311203">
<ele>105.093750</ele>
<time>2012-07-19T19:46:01Z</time>
<extensions>
<speed>0.0</speed>
<temp>0.00</temp>
<bpm>0</bpm>
<rpm>0.00</rpm>
</extensions>
</trkpt>
<trkpt lat="64.310569763" lon="-20.305311203">
<ele>105.132813</ele>
<time>2012-07-19T19:46:06Z</time>
<extensions>
<speed>0.0</speed>
<temp>0.00</temp>
<bpm>0</bpm>
<rpm>0.00</rpm>
</extensions>
</trkpt>
<trkpt lat="64.310569763" lon="-20.305311203">
<ele>105.125000</ele>
<time>2012-07-19T19:46:11Z</time>
<extensions>
<speed>0.0</speed>
<temp>0.00</temp>
<bpm>0</bpm>
<rpm>0.00</rpm>
</extensions>
</trkpt>
<trkpt lat="64.310569763" lon="-20.305311203">
<ele>105.138672</ele>
<time>2012-07-19T19:46:16Z</time>
<speed>0.420000</speed>
<extensions>
<speed>0.4</speed>
<temp>0.00</temp>
<bpm>0</bpm>
<rpm>0.00</rpm>
</extensions>
</trkpt>
<trkpt lat="64.310577393" lon="-20.305313110">
<ele>105.205078</ele>
<time>2012-07-19T19:46:21Z</time>
<extensions>
<speed>0.0</speed>
<temp>0.00</temp>
<bpm>0</bpm>
<rpm>0.00</rpm>
</extensions>
</trkpt>
<trkpt lat="64.310577393" lon="-20.305313110">
<ele>105.197266</ele>
<time>2012-07-19T19:46:26Z</time>
<speed>0.010000</speed>
<extensions>
<speed>0.0</speed>
<temp>0.00</temp>
<bpm>0</bpm>
<rpm>0.00</rpm>
</extensions>
</trkpt>
<trkpt lat="64.310577393" lon="-20.305313110">
<ele>105.191406</ele>
<time>2012-07-19T19:46:31Z</time>
<extensions>
<speed>0.0</speed>
<temp>0.00</temp>
<bpm>0</bpm>
<rpm>0.00</rpm>
</extensions>
</trkpt>
<trkpt lat="64.310577393" lon="-20.305313110">
<ele>105.183594</ele>
<time>2012-07-19T19:46:36Z</time>
<extensions>
<speed>0.0</speed>
<temp>0.00</temp>
<bpm>0</bpm>
<rpm>0.00</rpm>
</extensions>
</trkpt>
<trkpt lat="64.310577393" lon="-20.305313110">
<ele>105.179688</ele>
<time>2012-07-19T19:46:41Z</time>
<speed>0.020000</speed>
<extensions>
<speed>0.0</speed>
<temp>0.00</temp>
<bpm>0</bpm>
<rpm>0.00</rpm>
</extensions>
</trkpt>
<trkpt lat="64.310577393" lon="-20.305313110">
<ele>105.185547</ele>
<time>2012-07-19T19:46:46Z</time>
<extensions>
<speed>0.0</speed>
<temp>0.00</temp>
<bpm>0</bpm>
<rpm>0.00</rpm>
</extensions>
</trkpt>
<trkpt lat="64.310577393" lon="-20.305313110">
<ele>105.179688</ele>
<time>2012-07-19T19:46:51Z</time>
<extensions>
<speed>0.0</speed>
<temp>0.00</temp>
<bpm>0</bpm>
<rpm>0.00</rpm>
</extensions>
</trkpt>
<trkpt lat="64.310577393" lon="-20.305313110">
<ele>105.189453</ele>
<time>2012-07-19T19:46:56Z</time>
<extensions>
<speed>0.0</speed>
<temp>0.00</temp>
<bpm>0</bpm>
<rpm>0.00</rpm>
</extensions>
</trkpt>
<trkpt lat="64.310577393" lon="-20.305313110">
<ele>105.205078</ele>
<time>2012-07-19T19:47:01Z</time>
<extensions>
<speed>0.0</speed>
<temp>0.00</temp>
<bpm>0</bpm>
<rpm>0.00</rpm>
</extensions>
</trkpt>
<trkpt lat="64.310577393" lon="-20.305313110">
<ele>105.228516</ele>
<time>2012-07-19T19:47:06Z</time>
<extensions>
<speed>0.0</speed>
<temp>0.00</temp>
<bpm>0</bpm>
<rpm>0.00</rpm>
</extensions>
</trkpt>
<trkpt lat="64.310577393" lon="-20.305313110">
<ele>105.248047</ele>
<time>2012-07-19T19:47:11Z</time>
<speed>0.010000</speed>
<extensions>
<speed>0.0</speed>
<temp>0.00</temp>
<bpm>0</bpm>
<rpm>0.00</rpm>
</extensions>
</trkpt>
<trkpt lat="64.310577393" lon="-20.305313110">
<ele>105.267578</ele>
<time>2012-07-19T19:47:16Z</time>
<extensions>
<speed>0.0</speed>
<temp>0.00</temp>
<bpm>0</bpm>
<rpm>0.00</rpm>
</extensions>
</trkpt>
<trkpt lat="64.310577393" lon="-20.305313110">
<ele>105.273438</ele>
<time>2012-07-19T19:47:21Z</time>
<speed>0.320000</speed>
<extensions>
<speed>0.3</speed>
<temp>0.00</temp>
<bpm>0</bpm>
<rpm>0.00</rpm>
</extensions>
</trkpt>
<trkpt lat="64.310577393" lon="-20.305315018">
<ele>105.179688</ele>
<time>2012-07-19T19:47:26Z</time>
<speed>0.010000</speed>
<extensions>
<speed>0.0</speed>
<temp>0.00</temp>
<bpm>0</bpm>
<rpm>0.00</rpm>
</extensions>
</trkpt>
<trkpt lat="64.310577393" lon="-20.305315018">
<ele>105.203125</ele>
<time>2012-07-19T19:47:31Z</time>
<speed>0.010000</speed>
<extensions>
<speed>0.0</speed>
<temp>0.00</temp>
<bpm>0</bpm>
<rpm>0.00</rpm>
</extensions>
</trkpt>
<trkpt lat="64.310585022" lon="-20.305316925">
<ele>105.589844</ele>
<time>2012-07-19T19:47:36Z</time>
<speed>0.020000</speed>
<extensions>
<speed>0.0</speed>
<temp>0.00</temp>
<bpm>0</bpm>
<rpm>0.00</rpm>
</extensions>
</trkpt>
<trkpt lat="64.310585022" lon="-20.305318832">
<ele>105.900391</ele>
<time>2012-07-19T19:47:41Z</time>
<speed>0.010000</speed>
<extensions>
<speed>0.0</speed>
<temp>0.00</temp>
<bpm>0</bpm>
<rpm>0.00</rpm>
</extensions>
</trkpt>
<trkpt lat="64.310585022" lon="-20.305318832">
<ele>105.914063</ele>
<time>2012-07-19T19:47:46Z</time>
<speed>0.020000</speed>
<extensions>
<speed>0.0</speed>
<temp>0.00</temp>
<bpm>0</bpm>
<rpm>0.00</rpm>
</extensions>
</trkpt>
<trkpt lat="64.310585022" lon="-20.305318832">
<ele>105.929688</ele>
<time>2012-07-19T19:47:51Z</time>
<extensions>
<speed>0.0</speed>
<temp>0.00</temp>
<bpm>0</bpm>
<rpm>0.00</rpm>
</extensions>
</trkpt>
<trkpt lat="64.310585022" lon="-20.305318832">
<ele>105.953125</ele>
<time>2012-07-19T19:47:56Z</time>
<speed>0.010000</speed>
<extensions>
<speed>0.0</speed>
<temp>0.00</temp>
<bpm>0</bpm>
<rpm>0.00</rpm>
</extensions>
</trkpt>
<trkpt lat="64.310585022" lon="-20.305318832">
<ele>105.964844</ele>
<time>2012-07-19T19:48:01Z</time>
<extensions>
<speed>0.0</speed>
<temp>0.00</temp>
<bpm>0</bpm>
<rpm>0.00</rpm>
</extensions>
</trkpt>
<trkpt lat="64.310585022" lon="-20.305318832">
<ele>105.978516</ele>
<time>2012-07-19T19:48:06Z</time>
<extensions>
<speed>0.0</speed>
<temp>0.00</temp>
<bpm>0</bpm>
<rpm>0.00</rpm>
</extensions>
</trkpt>
<trkpt lat="64.310585022" lon="-20.305318832">
<ele>106.000000</ele>
<time>2012-07-19T19:48:11Z</time>
<speed>0.020000</speed>
<extensions>
<speed>0.0</speed>
<temp>0.00</temp>
<bpm>0</bpm>
<rpm>0.00</rpm>
</extensions>
</trkpt>
<trkpt lat="64.310585022" lon="-20.305318832">
<ele>106.019531</ele>
<time>2012-07-19T19:48:16Z</time>
<extensions>
<speed>0.0</speed>
<temp>0.00</temp>
<bpm>0</bpm>
<rpm>0.00</rpm>
</extensions>
</trkpt>
<trkpt lat="64.310585022" lon="-20.305318832">
<ele>106.041016</ele>
<time>2012-07-19T19:48:21Z</time>
<extensions>
<speed>0.0</speed>
<temp>0.00</temp>
<bpm>0</bpm>
<rpm>0.00</rpm>
</extensions>
</trkpt>
<trkpt lat="64.310585022" lon="-20.305318832">
<ele>106.054688</ele>
<time>2012-07-19T19:48:26Z</time>
<extensions>
<speed>0.0</speed>
<temp>0.00</temp>
<bpm>0</bpm>
<rpm>0.00</rpm>
</extensions>
</trkpt>
<trkpt lat="64.310585022" lon="-20.305316925">
<ele>106.072266</ele>
<time>2012-07-19T19:48:31Z</time>
<speed>0.010000</speed>
<extensions>
<speed>0.0</speed>
<temp>0.00</temp>
<bpm>0</bpm>
<rpm>0.00</rpm>
</extensions>
</trkpt>
<trkpt lat="64.310585022" lon="-20.305316925">
<ele>106.087891</ele>
<time>2012-07-19T19:48:36Z</time>
<extensions>
<speed>0.0</speed>
<temp>0.00</temp>
<bpm>0</bpm>
<rpm>0.00</rpm>
</extensions>
</trkpt>
<trkpt lat="64.310585022" lon="-20.305316925">
<ele>106.111328</ele>
<time>2012-07-19T19:48:41Z</time>
<extensions>
<speed>0.0</speed>
<temp>0.00</temp>
<bpm>0</bpm>
<rpm>0.00</rpm>
</extensions>
</trkpt>
<trkpt lat="64.310585022" lon="-20.305316925">
<ele>106.136719</ele>
<time>2012-07-19T19:48:46Z</time>
<extensions>
<speed>0.0</speed>
<temp>0.00</temp>
<bpm>0</bpm>
<rpm>0.00</rpm>
</extensions>
</trkpt>
<trkpt lat="64.310585022" lon="-20.305316925">
<ele>106.148438</ele>
<time>2012-07-19T19:48:51Z</time>
<speed>0.370000</speed>
<extensions>
<speed>0.4</speed>
<temp>0.00</temp>
<bpm>0</bpm>
<rpm>0.00</rpm>
</extensions>
</trkpt>
<trkpt lat="64.310585022" lon="-20.305309296">
<ele>106.847656</ele>
<time>2012-07-19T19:48:56Z</time>
<extensions>
<speed>0.0</speed>
<temp>0.00</temp>
<bpm>0</bpm>
<rpm>0.00</rpm>
</extensions>
</trkpt>
<trkpt lat="64.310585022" lon="-20.305309296">
<ele>106.853516</ele>
<time>2012-07-19T19:49:01Z</time>
<extensions>
<speed>0.0</speed>
<temp>0.00</temp>
<bpm>0</bpm>
<rpm>0.00</rpm>
</extensions>
</trkpt>
<trkpt lat="64.310592651" lon="-20.305307388">
<ele>107.001953</ele>
<time>2012-07-19T19:49:06Z</time>
<extensions>
<speed>0.0</speed>
<temp>0.00</temp>
<bpm>0</bpm>
<rpm>0.00</rpm>
</extensions>
</trkpt>
<trkpt lat="64.310592651" lon="-20.305309296">
<ele>106.978516</ele>
<time>2012-07-19T19:49:11Z</time>
<extensions>
<speed>0.0</speed>
<temp>0.00</temp>
<bpm>0</bpm>
<rpm>0.00</rpm>
</extensions>
</trkpt>
<trkpt lat="64.310592651" lon="-20.305309296">
<ele>106.980469</ele>
<time>2012-07-19T19:49:16Z</time>
<extensions>
<speed>0.0</speed>
<temp>0.00</temp>
<bpm>0</bpm>
<rpm>0.00</rpm>
</extensions>
</trkpt>
<trkpt lat="64.310592651" lon="-20.305309296">
<ele>106.988281</ele>
<time>2012-07-19T19:49:21Z</time>
<extensions>
<speed>0.0</speed>
<temp>0.00</temp>
<bpm>0</bpm>
<rpm>0.00</rpm>
</extensions>
</trkpt>
<trkpt lat="64.310592651" lon="-20.305309296">
<ele>106.988281</ele>
<time>2012-07-19T19:49:26Z</time>
<extensions>
<speed>0.0</speed>
<temp>0.00</temp>
<bpm>0</bpm>
<rpm>0.00</rpm>
</extensions>
</trkpt>
<trkpt lat="64.310592651" lon="-20.305309296">
<ele>106.980469</ele>
<time>2012-07-19T19:49:31Z</time>
<extensions>
<speed>0.0</speed>
<temp>0.00</temp>
<bpm>0</bpm>
<rpm>0.00</rpm>
</extensions>
</trkpt>
<trkpt lat="64.310592651" lon="-20.305311203">
<ele>106.974609</ele>
<time>2012-07-19T19:49:36Z</time>
<extensions>
<speed>0.0</speed>
<temp>0.00</temp>
<bpm>0</bpm>
<rpm>0.00</rpm>
</extensions>
</trkpt>
<trkpt lat="64.310592651" lon="-20.305311203">
<ele>106.980469</ele>
<time>2012-07-19T19:49:41Z</time>
<speed>0.010000</speed>
<extensions>
<speed>0.0</speed>
<temp>0.00</temp>
<bpm>0</bpm>
<rpm>0.00</rpm>
</extensions>
</trkpt>
<trkpt lat="64.310592651" lon="-20.305311203">
<ele>106.994141</ele>
<time>2012-07-19T19:49:46Z</time>
<extensions>
<speed>0.0</speed>
<temp>0.00</temp>
<bpm>0</bpm>
<rpm>0.00</rpm>
</extensions>
</trkpt>
<trkpt lat="64.310592651" lon="-20.305311203">
<ele>107.013672</ele>
<time>2012-07-19T19:49:51Z</time>
<extensions>
<speed>0.0</speed>
<temp>0.00</temp>
<bpm>0</bpm>
<rpm>0.00</rpm>
</extensions>
</trkpt>
<trkpt lat="64.310592651" lon="-20.305311203">
<ele>107.021484</ele>
<time>2012-07-19T19:49:56Z</time>
<extensions>
<speed>0.0</speed>
<temp>0.00</temp>
<bpm>0</bpm>
<rpm>0.00</rpm>
</extensions>
</trkpt>
<trkpt lat="64.310585022" lon="-20.305311203">
<ele>107.021484</ele>
<time>2012-07-19T19:50:01Z</time>
<extensions>
<speed>0.0</speed>
<temp>0.00</temp>
<bpm>0</bpm>
<rpm>0.00</rpm>
</extensions>
</trkpt>
<trkpt lat="64.310585022" lon="-20.305311203">
<ele>107.027344</ele>
<time>2012-07-19T19:50:06Z</time>
<extensions>
<speed>0.0</speed>
<temp>0.00</temp>
<bpm>0</bpm>
<rpm>0.00</rpm>
</extensions>
</trkpt>
<trkpt lat="64.310585022" lon="-20.305309296">
<ele>107.039063</ele>
<time>2012-07-19T19:50:11Z</time>
<speed>0.010000</speed>
<extensions>
<speed>0.0</speed>
<temp>0.00</temp>
<bpm>0</bpm>
<rpm>0.00</rpm>
</extensions>
</trkpt>
<trkpt lat="64.310585022" lon="-20.305309296">
<ele>107.046875</ele>
<time>2012-07-19T19:50:16Z</time>
<extensions>
<speed>0.0</speed>
<temp>0.00</temp>
<bpm>0</bpm>
<rpm>0.00</rpm>
</extensions>
</trkpt>
<trkpt lat="64.310585022" lon="-20.305311203">
<ele>107.050781</ele>
<time>2012-07-19T19:50:21Z</time>
<extensions>
<speed>0.0</speed>
<temp>0.00</temp>
<bpm>0</bpm>
<rpm>0.00</rpm>
</extensions>
</trkpt>
<trkpt lat="64.310585022" lon="-20.305311203">
<ele>107.068359</ele>
<time>2012-07-19T19:50:26Z</time>
<speed>0.010000</speed>
<extensions>
<speed>0.0</speed>
<temp>0.00</temp>
<bpm>0</bpm>
<rpm>0.00</rpm>
</extensions>
</trkpt>
<trkpt lat="64.310585022" lon="-20.305311203">
<ele>107.074219</ele>
<time>2012-07-19T19:50:31Z</time>
<extensions>
<speed>0.0</speed>
<temp>0.00</temp>
<bpm>0</bpm>
<rpm>0.00</rpm>
</extensions>
</trkpt>
<trkpt lat="64.310585022" lon="-20.305311203">
<ele>107.083984</ele>
<time>2012-07-19T19:50:36Z</time>
<extensions>
<speed>0.0</speed>
<temp>0.00</temp>
<bpm>0</bpm>
<rpm>0.00</rpm>
</extensions>
</trkpt>
<trkpt lat="64.310585022" lon="-20.305311203">
<ele>107.087891</ele>
<time>2012-07-19T19:50:41Z</time>
<extensions>
<speed>0.0</speed>
<temp>0.00</temp>
<bpm>0</bpm>
<rpm>0.00</rpm>
</extensions>
</trkpt>
<trkpt lat="64.310585022" lon="-20.305311203">
<ele>107.105469</ele>
<time>2012-07-19T19:50:46Z</time>
<speed>0.010000</speed>
<extensions>
<speed>0.0</speed>
<temp>0.00</temp>
<bpm>0</bpm>
<rpm>0.00</rpm>
</extensions>
</trkpt>
<trkpt lat="64.310585022" lon="-20.305311203">
<ele>107.123047</ele>
<time>2012-07-19T19:50:51Z</time>
<speed>0.010000</speed>
<extensions>
<speed>0.0</speed>
<temp>0.00</temp>
<bpm>0</bpm>
<rpm>0.00</rpm>
</extensions>
</trkpt>
<trkpt lat="64.310585022" lon="-20.305311203">
<ele>107.128906</ele>
<time>2012-07-19T19:50:56Z</time>
<extensions>
<speed>0.0</speed>
<temp>0.00</temp>
<bpm>0</bpm>
<rpm>0.00</rpm>
</extensions>
</trkpt>
<trkpt lat="64.310585022" lon="-20.305311203">
<ele>107.136719</ele>
<time>2012-07-19T19:51:01Z</time>
<extensions>
<speed>0.0</speed>
<temp>0.00</temp>
<bpm>0</bpm>
<rpm>0.00</rpm>
</extensions>
</trkpt>
<trkpt lat="64.310585022" lon="-20.305311203">
<ele>107.138672</ele>
<time>2012-07-19T19:51:06Z</time>
<extensions>
<speed>0.0</speed>
<temp>0.00</temp>
<bpm>0</bpm>
<rpm>0.00</rpm>
</extensions>
</trkpt>
<trkpt lat="64.310585022" lon="-20.305311203">
<ele>107.152344</ele>
<time>2012-07-19T19:51:11Z</time>
<speed>0.030000</speed>
<extensions>
<speed>0.0</speed>
<temp>0.00</temp>
<bpm>0</bpm>
<rpm>0.00</rpm>
</extensions>
</trkpt>
<trkpt lat="64.310585022" lon="-20.305311203">
<ele>107.166016</ele>
<time>2012-07-19T19:51:16Z</time>
<extensions>
<speed>0.0</speed>
<temp>0.00</temp>
<bpm>0</bpm>
<rpm>0.00</rpm>
</extensions>
</trkpt>
<trkpt lat="64.310585022" lon="-20.305311203">
<ele>107.171875</ele>
<time>2012-07-19T19:51:21Z</time>
<extensions>
<speed>0.0</speed>
<temp>0.00</temp>
<bpm>0</bpm>
<rpm>0.00</rpm>
</extensions>
</trkpt>
<trkpt lat="64.310585022" lon="-20.305311203">
<ele>107.189453</ele>
<time>2012-07-19T19:51:26Z</time>
<extensions>
<speed>0.0</speed>
<temp>0.00</temp>
<bpm>0</bpm>
<rpm>0.00</rpm>
</extensions>
</trkpt>
<trkpt lat="64.310585022" lon="-20.305311203">
<ele>107.197266</ele>
<time>2012-07-19T19:51:31Z</time>
<speed>0.020000</speed>
<extensions>
<speed>0.0</speed>
<temp>0.00</temp>
<bpm>0</bpm>
<rpm>0.00</rpm>
</extensions>
</trkpt>
<trkpt lat="64.310585022" lon="-20.305311203">
<ele>107.220703</ele>
<time>2012-07-19T19:51:36Z</time>
<extensions>
<speed>0.0</speed>
<temp>0.00</temp>
<bpm>0</bpm>
<rpm>0.00</rpm>
</extensions>
</trkpt>
<trkpt lat="64.310585022" lon="-20.305311203">
<ele>107.224609</ele>
<time>2012-07-19T19:51:41Z</time>
<speed>0.030000</speed>
<extensions>
<speed>0.0</speed>
<temp>0.00</temp>
<bpm>0</bpm>
<rpm>0.00</rpm>
</extensions>
</trkpt>
<trkpt lat="64.310585022" lon="-20.305311203">
<ele>107.232422</ele>
<time>2012-07-19T19:51:46Z</time>
<speed>0.020000</speed>
<extensions>
<speed>0.0</speed>
<temp>0.00</temp>
<bpm>0</bpm>
<rpm>0.00</rpm>
</extensions>
</trkpt>
<trkpt lat="64.310585022" lon="-20.305311203">
<ele>107.240234</ele>
<time>2012-07-19T19:51:51Z</time>
<extensions>
<speed>0.0</speed>
<temp>0.00</temp>
<bpm>0</bpm>
<rpm>0.00</rpm>
</extensions>
</trkpt>
<trkpt lat="64.310585022" lon="-20.305313110">
<ele>107.189453</ele>
<time>2012-07-19T19:51:56Z</time>
<speed>0.010000</speed>
<extensions>
<speed>0.0</speed>
<temp>0.00</temp>
<bpm>0</bpm>
<rpm>0.00</rpm>
</extensions>
</trkpt>
<trkpt lat="64.310585022" lon="-20.305315018">
<ele>107.363281</ele>
<time>2012-07-19T19:52:01Z</time>
<extensions>
<speed>0.0</speed>
<temp>0.00</temp>
<bpm>0</bpm>
<rpm>0.00</rpm>
</extensions>
</trkpt>
<trkpt lat="64.310585022" lon="-20.305316925">
<ele>107.400391</ele>
<time>2012-07-19T19:52:06Z</time>
<speed>0.020000</speed>
<extensions>
<speed>0.0</speed>
<temp>0.00</temp>
<bpm>0</bpm>
<rpm>0.00</rpm>
</extensions>
</trkpt>
<trkpt lat="64.310592651" lon="-20.305332184">
<ele>107.384766</ele>
<time>2012-07-19T19:52:11Z</time>
<speed>0.010000</speed>
<extensions>
<speed>0.0</speed>
<temp>0.00</temp>
<bpm>0</bpm>
<rpm>0.00</rpm>
</extensions>
</trkpt>
<trkpt lat="64.310592651" lon="-20.305328369">
<ele>107.507813</ele>
<time>2012-07-19T19:52:16Z</time>
<speed>0.020000</speed>
<extensions>
<speed>0.0</speed>
<temp>0.00</temp>
<bpm>0</bpm>
<rpm>0.00</rpm>
</extensions>
</trkpt>
<trkpt lat="64.310592651" lon="-20.305332184">
<ele>107.277344</ele>
<time>2012-07-19T19:52:21Z</time>
<speed>0.010000</speed>
<extensions>
<speed>0.0</speed>
<temp>0.00</temp>
<bpm>0</bpm>
<rpm>0.00</rpm>
</extensions>
</trkpt>
<trkpt lat="64.310592651" lon="-20.305328369">
<ele>106.873047</ele>
<time>2012-07-19T19:52:26Z</time>
<extensions>
<speed>0.0</speed>
<temp>0.00</temp>
<bpm>0</bpm>
<rpm>0.00</rpm>
</extensions>
</trkpt>
<trkpt lat="64.310585022" lon="-20.305330276">
<ele>106.861328</ele>
<time>2012-07-19T19:52:31Z</time>
<extensions>
<speed>0.0</speed>
<temp>0.00</temp>
<bpm>0</bpm>
<rpm>0.00</rpm>
</extensions>
</trkpt>
<trkpt lat="64.310569763" lon="-20.305339813">
<ele>106.884766</ele>
<time>2012-07-19T19:52:36Z</time>
<extensions>
<speed>0.0</speed>
<temp>0.00</temp>
<bpm>0</bpm>
<rpm>0.00</rpm>
</extensions>
</trkpt>
<trkpt lat="64.310569763" lon="-20.305337906">
<ele>106.955078</ele>
<time>2012-07-19T19:52:41Z</time>
<extensions>
<speed>0.0</speed>
<temp>0.00</temp>
<bpm>0</bpm>
<rpm>0.00</rpm>
</extensions>
</trkpt>
<trkpt lat="64.310569763" lon="-20.305337906">
<ele>106.953125</ele>
<time>2012-07-19T19:52:46Z</time>
<speed>0.020000</speed>
<extensions>
<speed>0.0</speed>
<temp>0.00</temp>
<bpm>0</bpm>
<rpm>0.00</rpm>
</extensions>
</trkpt>
<trkpt lat="64.310569763" lon="-20.305335999">
<ele>106.953125</ele>
<time>2012-07-19T19:52:51Z</time>
<extensions>
<speed>0.0</speed>
<temp>0.00</temp>
<bpm>0</bpm>
<rpm>0.00</rpm>
</extensions>
</trkpt>
<trkpt lat="64.310569763" lon="-20.305335999">
<ele>106.947266</ele>
<time>2012-07-19T19:52:56Z</time>
<speed>0.010000</speed>
<extensions>
<speed>0.0</speed>
<temp>0.00</temp>
<bpm>0</bpm>
<rpm>0.00</rpm>
</extensions>
</trkpt>
<trkpt lat="64.310569763" lon="-20.305335999">
<ele>106.953125</ele>
<time>2012-07-19T19:53:01Z</time>
<speed>0.020000</speed>
<extensions>
<speed>0.0</speed>
<temp>0.00</temp>
<bpm>0</bpm>
<rpm>0.00</rpm>
</extensions>
</trkpt>
<trkpt lat="64.310569763" lon="-20.305334091">
<ele>106.955078</ele>
<time>2012-07-19T19:53:06Z</time>
<extensions>
<speed>0.0</speed>
<temp>0.00</temp>
<bpm>0</bpm>
<rpm>0.00</rpm>
</extensions>
</trkpt>
<trkpt lat="64.310569763" lon="-20.305334091">
<ele>106.953125</ele>
<time>2012-07-19T19:53:11Z</time>
<extensions>
<speed>0.0</speed>
<temp>0.00</temp>
<bpm>0</bpm>
<rpm>0.00</rpm>
</extensions>
</trkpt>
<trkpt lat="64.310569763" lon="-20.305334091">
<ele>106.933594</ele>
<time>2012-07-19T19:53:16Z</time>
<speed>0.010000</speed>
<extensions>
<speed>0.0</speed>
<temp>0.00</temp>
<bpm>0</bpm>
<rpm>0.00</rpm>
</extensions>
</trkpt>
<trkpt lat="64.310569763" lon="-20.305334091">
<ele>106.931641</ele>
<time>2012-07-19T19:53:21Z</time>
<speed>0.010000</speed>
<extensions>
<speed>0.0</speed>
<temp>0.00</temp>
<bpm>0</bpm>
<rpm>0.00</rpm>
</extensions>
</trkpt>
<trkpt lat="64.310569763" lon="-20.305332184">
<ele>106.933594</ele>
<time>2012-07-19T19:53:26Z</time>
<extensions>
<speed>0.0</speed>
<temp>0.00</temp>
<bpm>0</bpm>
<rpm>0.00</rpm>
</extensions>
</trkpt>
<trkpt lat="64.310569763" lon="-20.305332184">
<ele>106.958984</ele>
<time>2012-07-19T19:53:31Z</time>
<extensions>
<speed>0.0</speed>
<temp>0.00</temp>
<bpm>0</bpm>
<rpm>0.00</rpm>
</extensions>
</trkpt>
<trkpt lat="64.310569763" lon="-20.305332184">
<ele>106.990234</ele>
<time>2012-07-19T19:53:36Z</time>
<speed>0.010000</speed>
<extensions>
<speed>0.0</speed>
<temp>0.00</temp>
<bpm>0</bpm>
<rpm>0.00</rpm>
</extensions>
</trkpt>
<trkpt lat="64.310569763" lon="-20.305332184">
<ele>107.044922</ele>
<time>2012-07-19T19:53:41Z</time>
<extensions>
<speed>0.0</speed>
<temp>0.00</temp>
<bpm>0</bpm>
<rpm>0.00</rpm>
</extensions>
</trkpt>
<trkpt lat="64.310569763" lon="-20.305332184">
<ele>107.085938</ele>
<time>2012-07-19T19:53:46Z</time>
<speed>0.010000</speed>
<extensions>
<speed>0.0</speed>
<temp>0.00</temp>
<bpm>0</bpm>
<rpm>0.00</rpm>
</extensions>
</trkpt>
<trkpt lat="64.310569763" lon="-20.305332184">
<ele>107.126953</ele>
<time>2012-07-19T19:53:51Z</time>
<extensions>
<speed>0.0</speed>
<temp>0.00</temp>
<bpm>0</bpm>
<rpm>0.00</rpm>
</extensions>
</trkpt>
<trkpt lat="64.310569763" lon="-20.305332184">
<ele>107.171875</ele>
<time>2012-07-19T19:53:56Z</time>
<speed>0.010000</speed>
<extensions>
<speed>0.0</speed>
<temp>0.00</temp>
<bpm>0</bpm>
<rpm>0.00</rpm>
</extensions>
</trkpt>
<trkpt lat="64.310569763" lon="-20.305332184">
<ele>107.212891</ele>
<time>2012-07-19T19:54:01Z</time>
<speed>0.040000</speed>
<extensions>
<speed>0.0</speed>
<temp>0.00</temp>
<bpm>0</bpm>
<rpm>0.00</rpm>
</extensions>
</trkpt>
<trkpt lat="64.310577393" lon="-20.305332184">
<ele>107.244141</ele>
<time>2012-07-19T19:54:06Z</time>
<speed>0.010000</speed>
<extensions>
<speed>0.0</speed>
<temp>0.00</temp>
<bpm>0</bpm>
<rpm>0.00</rpm>
</extensions>
</trkpt>
<trkpt lat="64.310577393" lon="-20.305332184">
<ele>107.291016</ele>
<time>2012-07-19T19:54:11Z</time>
<speed>0.020000</speed>
<extensions>
<speed>0.0</speed>
<temp>0.00</temp>
<bpm>0</bpm>
<rpm>0.00</rpm>
</extensions>
</trkpt>
<trkpt lat="64.310577393" lon="-20.305332184">
<ele>107.320313</ele>
<time>2012-07-19T19:54:16Z</time>
<extensions>
<speed>0.0</speed>
<temp>0.00</temp>
<bpm>0</bpm>
<rpm>0.00</rpm>
</extensions>
</trkpt>
<trkpt lat="64.310577393" lon="-20.305332184">
<ele>107.343750</ele>
<time>2012-07-19T19:54:21Z</time>
<speed>0.010000</speed>
<extensions>
<speed>0.0</speed>
<temp>0.00</temp>
<bpm>0</bpm>
<rpm>0.00</rpm>
</extensions>
</trkpt>
<trkpt lat="64.310577393" lon="-20.305332184">
<ele>107.361328</ele>
<time>2012-07-19T19:54:26Z</time>
<speed>0.010000</speed>
<extensions>
<speed>0.0</speed>
<temp>0.00</temp>
<bpm>0</bpm>
<rpm>0.00</rpm>
</extensions>
</trkpt>
<trkpt lat="64.310577393" lon="-20.305332184">
<ele>107.406250</ele>
<time>2012-07-19T19:54:31Z</time>
<extensions>
<speed>0.0</speed>
<temp>0.00</temp>
<bpm>0</bpm>
<rpm>0.00</rpm>
</extensions>
</trkpt>
<trkpt lat="64.310577393" lon="-20.305332184">
<ele>107.437500</ele>
<time>2012-07-19T19:54:36Z</time>
<extensions>
<speed>0.0</speed>
<temp>0.00</temp>
<bpm>0</bpm>
<rpm>0.00</rpm>
</extensions>
</trkpt>
<trkpt lat="64.310577393" lon="-20.305332184">
<ele>107.439453</ele>
<time>2012-07-19T19:54:41Z</time>
<speed>0.010000</speed>
<extensions>
<speed>0.0</speed>
<temp>0.00</temp>
<bpm>0</bpm>
<rpm>0.00</rpm>
</extensions>
</trkpt>
<trkpt lat="64.310577393" lon="-20.305330276">
<ele>107.451172</ele>
<time>2012-07-19T19:54:46Z</time>
<extensions>
<speed>0.0</speed>
<temp>0.00</temp>
<bpm>0</bpm>
<rpm>0.00</rpm>
</extensions>
</trkpt>
<trkpt lat="64.310577393" lon="-20.305330276">
<ele>107.453125</ele>
<time>2012-07-19T19:54:51Z</time>
<speed>0.010000</speed>
<extensions>
<speed>0.0</speed>
<temp>0.00</temp>
<bpm>0</bpm>
<rpm>0.00</rpm>
</extensions>
</trkpt>
<trkpt lat="64.310577393" lon="-20.305330276">
<ele>107.458984</ele>
<time>2012-07-19T19:54:56Z</time>
<extensions>
<speed>0.0</speed>
<temp>0.00</temp>
<bpm>0</bpm>
<rpm>0.00</rpm>
</extensions>
</trkpt>
<trkpt lat="64.310577393" lon="-20.305330276">
<ele>107.455078</ele>
<time>2012-07-19T19:55:01Z</time>
<extensions>
<speed>0.0</speed>
<temp>0.00</temp>
<bpm>0</bpm>
<rpm>0.00</rpm>
</extensions>
</trkpt>
<trkpt lat="64.310577393" lon="-20.305330276">
<ele>107.451172</ele>
<time>2012-07-19T19:55:06Z</time>
<extensions>
<speed>0.0</speed>
<temp>0.00</temp>
<bpm>0</bpm>
<rpm>0.00</rpm>
</extensions>
</trkpt>
<trkpt lat="64.310577393" lon="-20.305330276">
<ele>107.462891</ele>
<time>2012-07-19T19:55:11Z</time>
<speed>0.010000</speed>
<extensions>
<speed>0.0</speed>
<temp>0.00</temp>
<bpm>0</bpm>
<rpm>0.00</rpm>
</extensions>
</trkpt>
<trkpt lat="64.310577393" lon="-20.305330276">
<ele>107.492188</ele>
<time>2012-07-19T19:55:16Z</time>
<extensions>
<speed>0.0</speed>
<temp>0.00</temp>
<bpm>0</bpm>
<rpm>0.00</rpm>
</extensions>
</trkpt>
<trkpt lat="64.310577393" lon="-20.305328369">
<ele>107.503906</ele>
<time>2012-07-19T19:55:21Z</time>
<extensions>
<speed>0.0</speed>
<temp>0.00</temp>
<bpm>0</bpm>
<rpm>0.00</rpm>
</extensions>
</trkpt>
<trkpt lat="64.310577393" lon="-20.305328369">
<ele>107.523438</ele>
<time>2012-07-19T19:55:26Z</time>
<extensions>
<speed>0.0</speed>
<temp>0.00</temp>
<bpm>0</bpm>
<rpm>0.00</rpm>
</extensions>
</trkpt>
<trkpt lat="64.310577393" lon="-20.305328369">
<ele>107.550781</ele>
<time>2012-07-19T19:55:31Z</time>
<extensions>
<speed>0.0</speed>
<temp>0.00</temp>
<bpm>0</bpm>
<rpm>0.00</rpm>
</extensions>
</trkpt>
<trkpt lat="64.310577393" lon="-20.305328369">
<ele>107.582031</ele>
<time>2012-07-19T19:55:36Z</time>
<speed>0.010000</speed>
<extensions>
<speed>0.0</speed>
<temp>0.00</temp>
<bpm>0</bpm>
<rpm>0.00</rpm>
</extensions>
</trkpt>
<trkpt lat="64.310577393" lon="-20.305328369">
<ele>107.609375</ele>
<time>2012-07-19T19:55:41Z</time>
<extensions>
<speed>0.0</speed>
<temp>0.00</temp>
<bpm>0</bpm>
<rpm>0.00</rpm>
</extensions>
</trkpt>
<trkpt lat="64.310577393" lon="-20.305328369">
<ele>107.634766</ele>
<time>2012-07-19T19:55:46Z</time>
<extensions>
<speed>0.0</speed>
<temp>0.00</temp>
<bpm>0</bpm>
<rpm>0.00</rpm>
</extensions>
</trkpt>
<trkpt lat="64.310577393" lon="-20.305328369">
<ele>107.681641</ele>
<time>2012-07-19T19:55:51Z</time>
<speed>0.010000</speed>
<extensions>
<speed>0.0</speed>
<temp>0.00</temp>
<bpm>0</bpm>
<rpm>0.00</rpm>
</extensions>
</trkpt>
<trkpt lat="64.310577393" lon="-20.305328369">
<ele>107.724609</ele>
<time>2012-07-19T19:55:56Z</time>
<speed>0.010000</speed>
<extensions>
<speed>0.0</speed>
<temp>0.00</temp>
<bpm>0</bpm>
<rpm>0.00</rpm>
</extensions>
</trkpt>
<trkpt lat="64.310577393" lon="-20.305328369">
<ele>107.785156</ele>
<time>2012-07-19T19:56:01Z</time>
<extensions>
<speed>0.0</speed>
<temp>0.00</temp>
<bpm>0</bpm>
<rpm>0.00</rpm>
</extensions>
</trkpt>
<trkpt lat="64.310577393" lon="-20.305328369">
<ele>107.812500</ele>
<time>2012-07-19T19:56:06Z</time>
<extensions>
<speed>0.0</speed>
<temp>0.00</temp>
<bpm>0</bpm>
<rpm>0.00</rpm>
</extensions>
</trkpt>
<trkpt lat="64.310577393" lon="-20.305328369">
<ele>107.847656</ele>
<time>2012-07-19T19:56:11Z</time>
<speed>0.010000</speed>
<extensions>
<speed>0.0</speed>
<temp>0.00</temp>
<bpm>0</bpm>
<rpm>0.00</rpm>
</extensions>
</trkpt>
<trkpt lat="64.310577393" lon="-20.305328369">
<ele>107.884766</ele>
<time>2012-07-19T19:56:16Z</time>
<speed>0.010000</speed>
<extensions>
<speed>0.0</speed>
<temp>0.00</temp>
<bpm>0</bpm>
<rpm>0.00</rpm>
</extensions>
</trkpt>
<trkpt lat="64.310577393" lon="-20.305328369">
<ele>107.953125</ele>
<time>2012-07-19T19:56:21Z</time>
<extensions>
<speed>0.0</speed>
<temp>0.00</temp>
<bpm>0</bpm>
<rpm>0.00</rpm>
</extensions>
</trkpt>
<trkpt lat="64.310577393" lon="-20.305328369">
<ele>108.003906</ele>
<time>2012-07-19T19:56:26Z</time>
<extensions>
<speed>0.0</speed>
<temp>0.00</temp>
<bpm>0</bpm>
<rpm>0.00</rpm>
</extensions>
</trkpt>
<trkpt lat="64.310577393" lon="-20.305328369">
<ele>108.033203</ele>
<time>2012-07-19T19:56:31Z</time>
<extensions>
<speed>0.0</speed>
<temp>0.00</temp>
<bpm>0</bpm>
<rpm>0.00</rpm>
</extensions>
</trkpt>
<trkpt lat="64.310577393" lon="-20.305328369">
<ele>108.062500</ele>
<time>2012-07-19T19:56:36Z</time>
<extensions>
<speed>0.0</speed>
<temp>0.00</temp>
<bpm>0</bpm>
<rpm>0.00</rpm>
</extensions>
</trkpt>
<trkpt lat="64.310577393" lon="-20.305328369">
<ele>108.078125</ele>
<time>2012-07-19T19:56:41Z</time>
<speed>0.010000</speed>
<extensions>
<speed>0.0</speed>
<temp>0.00</temp>
<bpm>0</bpm>
<rpm>0.00</rpm>
</extensions>
</trkpt>
<trkpt lat="64.310577393" lon="-20.305328369">
<ele>108.138672</ele>
<time>2012-07-19T19:56:46Z</time>
<speed>0.010000</speed>
<extensions>
<speed>0.0</speed>
<temp>0.00</temp>
<bpm>0</bpm>
<rpm>0.00</rpm>
</extensions>
</trkpt>
<trkpt lat="64.310577393" lon="-20.305328369">
<ele>108.162109</ele>
<time>2012-07-19T19:56:51Z</time>
<extensions>
<speed>0.0</speed>
<temp>0.00</temp>
<bpm>0</bpm>
<rpm>0.00</rpm>
</extensions>
</trkpt>
<trkpt lat="64.310577393" lon="-20.305328369">
<ele>108.197266</ele>
<time>2012-07-19T19:56:56Z</time>
<extensions>
<speed>0.0</speed>
<temp>0.00</temp>
<bpm>0</bpm>
<rpm>0.00</rpm>
</extensions>
</trkpt>
<trkpt lat="64.310577393" lon="-20.305328369">
<ele>108.220703</ele>
<time>2012-07-19T19:57:01Z</time>
<extensions>
<speed>0.0</speed>
<temp>0.00</temp>
<bpm>0</bpm>
<rpm>0.00</rpm>
</extensions>
</trkpt>
<trkpt lat="64.310577393" lon="-20.305328369">
<ele>108.234375</ele>
<time>2012-07-19T19:57:06Z</time>
<extensions>
<speed>0.0</speed>
<temp>0.00</temp>
<bpm>0</bpm>
<rpm>0.00</rpm>
</extensions>
</trkpt>
<trkpt lat="64.310577393" lon="-20.305328369">
<ele>108.269531</ele>
<time>2012-07-19T19:57:11Z</time>
<extensions>
<speed>0.0</speed>
<temp>0.00</temp>
<bpm>0</bpm>
<rpm>0.00</rpm>
</extensions>
</trkpt>
<trkpt lat="64.310577393" lon="-20.305328369">
<ele>108.289063</ele>
<time>2012-07-19T19:57:16Z</time>
<speed>0.010000</speed>
<extensions>
<speed>0.0</speed>
<temp>0.00</temp>
<bpm>0</bpm>
<rpm>0.00</rpm>
</extensions>
</trkpt>
<trkpt lat="64.310577393" lon="-20.305328369">
<ele>108.302734</ele>
<time>2012-07-19T19:57:21Z</time>
<extensions>
<speed>0.0</speed>
<temp>0.00</temp>
<bpm>0</bpm>
<rpm>0.00</rpm>
</extensions>
</trkpt>
<trkpt lat="64.310577393" lon="-20.305328369">
<ele>108.332031</ele>
<time>2012-07-19T19:57:26Z</time>
<speed>0.010000</speed>
<extensions>
<speed>0.0</speed>
<temp>0.00</temp>
<bpm>0</bpm>
<rpm>0.00</rpm>
</extensions>
</trkpt>
<trkpt lat="64.310577393" lon="-20.305328369">
<ele>108.355469</ele>
<time>2012-07-19T19:57:31Z</time>
<speed>0.010000</speed>
<extensions>
<speed>0.0</speed>
<temp>0.00</temp>
<bpm>0</bpm>
<rpm>0.00</rpm>
</extensions>
</trkpt>
<trkpt lat="64.310577393" lon="-20.305328369">
<ele>108.363281</ele>
<time>2012-07-19T19:57:36Z</time>
<speed>0.010000</speed>
<extensions>
<speed>0.0</speed>
<temp>0.00</temp>
<bpm>0</bpm>
<rpm>0.00</rpm>
</extensions>
</trkpt>
<trkpt lat="64.310577393" lon="-20.305328369">
<ele>108.355469</ele>
<time>2012-07-19T19:57:41Z</time>
<extensions>
<speed>0.0</speed>
<temp>0.00</temp>
<bpm>0</bpm>
<rpm>0.00</rpm>
</extensions>
</trkpt>
<trkpt lat="64.310577393" lon="-20.305328369">
<ele>108.349609</ele>
<time>2012-07-19T19:57:46Z</time>
<speed>0.010000</speed>
<extensions>
<speed>0.0</speed>
<temp>0.00</temp>
<bpm>0</bpm>
<rpm>0.00</rpm>
</extensions>
</trkpt>
<trkpt lat="64.310577393" lon="-20.305328369">
<ele>108.375000</ele>
<time>2012-07-19T19:57:51Z</time>
<extensions>
<speed>0.0</speed>
<temp>0.00</temp>
<bpm>0</bpm>
<rpm>0.00</rpm>
</extensions>
</trkpt>
<trkpt lat="64.310577393" lon="-20.305328369">
<ele>108.421875</ele>
<time>2012-07-19T19:57:56Z</time>
<extensions>
<speed>0.0</speed>
<temp>0.00</temp>
<bpm>0</bpm>
<rpm>0.00</rpm>
</extensions>
</trkpt>
<trkpt lat="64.310577393" lon="-20.305328369">
<ele>108.453125</ele>
<time>2012-07-19T19:58:01Z</time>
<extensions>
<speed>0.0</speed>
<temp>0.00</temp>
<bpm>0</bpm>
<rpm>0.00</rpm>
</extensions>
</trkpt>
<trkpt lat="64.310577393" lon="-20.305328369">
<ele>108.494141</ele>
<time>2012-07-19T19:58:06Z</time>
<extensions>
<speed>0.0</speed>
<temp>0.00</temp>
<bpm>0</bpm>
<rpm>0.00</rpm>
</extensions>
</trkpt>
<trkpt lat="64.310577393" lon="-20.305328369">
<ele>108.527344</ele>
<time>2012-07-19T19:58:11Z</time>
<extensions>
<speed>0.0</speed>
<temp>0.00</temp>
<bpm>0</bpm>
<rpm>0.00</rpm>
</extensions>
</trkpt>
<trkpt lat="64.310577393" lon="-20.305328369">
<ele>108.566406</ele>
<time>2012-07-19T19:58:16Z</time>
<speed>0.010000</speed>
<extensions>
<speed>0.0</speed>
<temp>0.00</temp>
<bpm>0</bpm>
<rpm>0.00</rpm>
</extensions>
</trkpt>
<trkpt lat="64.310577393" lon="-20.305328369">
<ele>108.582031</ele>
<time>2012-07-19T19:58:21Z</time>
<extensions>
<speed>0.0</speed>
<temp>0.00</temp>
<bpm>0</bpm>
<rpm>0.00</rpm>
</extensions>
</trkpt>
<trkpt lat="64.310577393" lon="-20.305328369">
<ele>108.572266</ele>
<time>2012-07-19T19:58:26Z</time>
<speed>0.010000</speed>
<extensions>
<speed>0.0</speed>
<temp>0.00</temp>
<bpm>0</bpm>
<rpm>0.00</rpm>
</extensions>
</trkpt>
<trkpt lat="64.310577393" lon="-20.305328369">
<ele>108.554688</ele>
<time>2012-07-19T19:58:31Z</time>
<extensions>
<speed>0.0</speed>
<temp>0.00</temp>
<bpm>0</bpm>
<rpm>0.00</rpm>
</extensions>
</trkpt>
<trkpt lat="64.310577393" lon="-20.305326462">
<ele>108.548828</ele>
<time>2012-07-19T19:58:36Z</time>
<speed>0.010000</speed>
<extensions>
<speed>0.0</speed>
<temp>0.00</temp>
<bpm>0</bpm>
<rpm>0.00</rpm>
</extensions>
</trkpt>
<trkpt lat="64.310577393" lon="-20.305326462">
<ele>108.539063</ele>
<time>2012-07-19T19:58:41Z</time>
<speed>0.010000</speed>
<extensions>
<speed>0.0</speed>
<temp>0.00</temp>
<bpm>0</bpm>
<rpm>0.00</rpm>
</extensions>
</trkpt>
<trkpt lat="64.310577393" lon="-20.305326462">
<ele>108.546875</ele>
<time>2012-07-19T19:58:46Z</time>
<speed>0.010000</speed>
<extensions>
<speed>0.0</speed>
<temp>0.00</temp>
<bpm>0</bpm>
<rpm>0.00</rpm>
</extensions>
</trkpt>
<trkpt lat="64.310577393" lon="-20.305326462">
<ele>108.558594</ele>
<time>2012-07-19T19:58:51Z</time>
<speed>0.010000</speed>
<extensions>
<speed>0.0</speed>
<temp>0.00</temp>
<bpm>0</bpm>
<rpm>0.00</rpm>
</extensions>
</trkpt>
<trkpt lat="64.310577393" lon="-20.305326462">
<ele>108.593750</ele>
<time>2012-07-19T19:58:56Z</time>
<speed>0.010000</speed>
<extensions>
<speed>0.0</speed>
<temp>0.00</temp>
<bpm>0</bpm>
<rpm>0.00</rpm>
</extensions>
</trkpt>
<trkpt lat="64.310577393" lon="-20.305326462">
<ele>108.613281</ele>
<time>2012-07-19T19:59:01Z</time>
<extensions>
<speed>0.0</speed>
<temp>0.00</temp>
<bpm>0</bpm>
<rpm>0.00</rpm>
</extensions>
</trkpt>
<trkpt lat="64.310577393" lon="-20.305326462">
<ele>108.623047</ele>
<time>2012-07-19T19:59:06Z</time>
<speed>0.010000</speed>
<extensions>
<speed>0.0</speed>
<temp>0.00</temp>
<bpm>0</bpm>
<rpm>0.00</rpm>
</extensions>
</trkpt>
<trkpt lat="64.310577393" lon="-20.305324554">
<ele>108.650391</ele>
<time>2012-07-19T19:59:11Z</time>
<speed>0.010000</speed>
<extensions>
<speed>0.0</speed>
<temp>0.00</temp>
<bpm>0</bpm>
<rpm>0.00</rpm>
</extensions>
</trkpt>
<trkpt lat="64.310577393" lon="-20.305324554">
<ele>108.693359</ele>
<time>2012-07-19T19:59:16Z</time>
<speed>0.010000</speed>
<extensions>
<speed>0.0</speed>
<temp>0.00</temp>
<bpm>0</bpm>
<rpm>0.00</rpm>
</extensions>
</trkpt>
<trkpt lat="64.310577393" lon="-20.305324554">
<ele>108.708984</ele>
<time>2012-07-19T19:59:21Z</time>
<speed>0.010000</speed>
<extensions>
<speed>0.0</speed>
<temp>0.00</temp>
<bpm>0</bpm>
<rpm>0.00</rpm>
</extensions>
</trkpt>
<trkpt lat="64.310577393" lon="-20.305324554">
<ele>108.748047</ele>
<time>2012-07-19T19:59:26Z</time>
<extensions>
<speed>0.0</speed>
<temp>0.00</temp>
<bpm>0</bpm>
<rpm>0.00</rpm>
</extensions>
</trkpt>
<trkpt lat="64.310577393" lon="-20.305324554">
<ele>108.794922</ele>
<time>2012-07-19T19:59:31Z</time>
<speed>0.010000</speed>
<extensions>
<speed>0.0</speed>
<temp>0.00</temp>
<bpm>0</bpm>
<rpm>0.00</rpm>
</extensions>
</trkpt>
<trkpt lat="64.310577393" lon="-20.305324554">
<ele>108.845703</ele>
<time>2012-07-19T19:59:36Z</time>
<extensions>
<speed>0.0</speed>
<temp>0.00</temp>
<bpm>0</bpm>
<rpm>0.00</rpm>
</extensions>
</trkpt>
<trkpt lat="64.310577393" lon="-20.305324554">
<ele>108.896484</ele>
<time>2012-07-19T19:59:41Z</time>
<extensions>
<speed>0.0</speed>
<temp>0.00</temp>
<bpm>0</bpm>
<rpm>0.00</rpm>
</extensions>
</trkpt>
<trkpt lat="64.310577393" lon="-20.305324554">
<ele>108.916016</ele>
<time>2012-07-19T19:59:46Z</time>
<speed>0.020000</speed>
<extensions>
<speed>0.0</speed>
<temp>0.00</temp>
<bpm>0</bpm>
<rpm>0.00</rpm>
</extensions>
</trkpt>
<trkpt lat="64.310577393" lon="-20.305322647">
<ele>108.968750</ele>
<time>2012-07-19T19:59:51Z</time>
<speed>0.010000</speed>
<extensions>
<speed>0.0</speed>
<temp>0.00</temp>
<bpm>0</bpm>
<rpm>0.00</rpm>
</extensions>
</trkpt>
<trkpt lat="64.310577393" lon="-20.305322647">
<ele>108.988281</ele>
<time>2012-07-19T19:59:56Z</time>
<extensions>
<speed>0.0</speed>
<temp>0.00</temp>
<bpm>0</bpm>
<rpm>0.00</rpm>
</extensions>
</trkpt>
<trkpt lat="64.310577393" lon="-20.305324554">
<ele>109.019531</ele>
<time>2012-07-19T20:00:01Z</time>
<speed>0.010000</speed>
<extensions>
<speed>0.0</speed>
<temp>0.00</temp>
<bpm>0</bpm>
<rpm>0.00</rpm>
</extensions>
</trkpt>
<trkpt lat="64.310577393" lon="-20.305324554">
<ele>109.025391</ele>
<time>2012-07-19T20:00:06Z</time>
<speed>0.020000</speed>
<extensions>
<speed>0.0</speed>
<temp>0.00</temp>
<bpm>0</bpm>
<rpm>0.00</rpm>
</extensions>
</trkpt>
<trkpt lat="64.310577393" lon="-20.305324554">
<ele>109.046875</ele>
<time>2012-07-19T20:00:11Z</time>
<extensions>
<speed>0.0</speed>
<temp>0.00</temp>
<bpm>0</bpm>
<rpm>0.00</rpm>
</extensions>
</trkpt>
<trkpt lat="64.310577393" lon="-20.305322647">
<ele>109.042969</ele>
<time>2012-07-19T20:00:16Z</time>
<extensions>
<speed>0.0</speed>
<temp>0.00</temp>
<bpm>0</bpm>
<rpm>0.00</rpm>
</extensions>
</trkpt>
<trkpt lat="64.310577393" lon="-20.305322647">
<ele>109.029297</ele>
<time>2012-07-19T20:00:21Z</time>
<extensions>
<speed>0.0</speed>
<temp>0.00</temp>
<bpm>0</bpm>
<rpm>0.00</rpm>
</extensions>
</trkpt>
<trkpt lat="64.310577393" lon="-20.305322647">
<ele>109.037109</ele>
<time>2012-07-19T20:00:26Z</time>
<extensions>
<speed>0.0</speed>
<temp>0.00</temp>
<bpm>0</bpm>
<rpm>0.00</rpm>
</extensions>
</trkpt>
<trkpt lat="64.310577393" lon="-20.305322647">
<ele>109.070313</ele>
<time>2012-07-19T20:00:31Z</time>
<speed>0.010000</speed>
<extensions>
<speed>0.0</speed>
<temp>0.00</temp>
<bpm>0</bpm>
<rpm>0.00</rpm>
</extensions>
</trkpt>
<trkpt lat="64.310577393" lon="-20.305322647">
<ele>109.109375</ele>
<time>2012-07-19T20:00:36Z</time>
<extensions>
<speed>0.0</speed>
<temp>0.00</temp>
<bpm>0</bpm>
<rpm>0.00</rpm>
</extensions>
</trkpt>
<trkpt lat="64.310577393" lon="-20.305322647">
<ele>109.138672</ele>
<time>2012-07-19T20:00:41Z</time>
<speed>0.010000</speed>
<extensions>
<speed>0.0</speed>
<temp>0.00</temp>
<bpm>0</bpm>
<rpm>0.00</rpm>
</extensions>
</trkpt>
<trkpt lat="64.310577393" lon="-20.305322647">
<ele>109.189453</ele>
<time>2012-07-19T20:00:46Z</time>
<speed>0.010000</speed>
<extensions>
<speed>0.0</speed>
<temp>0.00</temp>
<bpm>0</bpm>
<rpm>0.00</rpm>
</extensions>
</trkpt>
<trkpt lat="64.310577393" lon="-20.305322647">
<ele>109.255859</ele>
<time>2012-07-19T20:00:51Z</time>
<extensions>
<speed>0.0</speed>
<temp>0.00</temp>
<bpm>0</bpm>
<rpm>0.00</rpm>
</extensions>
</trkpt>
<trkpt lat="64.310577393" lon="-20.305324554">
<ele>109.363281</ele>
<time>2012-07-19T20:00:56Z</time>
<speed>0.010000</speed>
<extensions>
<speed>0.0</speed>
<temp>0.00</temp>
<bpm>0</bpm>
<rpm>0.00</rpm>
</extensions>
</trkpt>
<trkpt lat="64.310577393" lon="-20.305324554">
<ele>109.423828</ele>
<time>2012-07-19T20:01:01Z</time>
<speed>0.010000</speed>
<extensions>
<speed>0.0</speed>
<temp>0.00</temp>
<bpm>0</bpm>
<rpm>0.00</rpm>
</extensions>
</trkpt>
<trkpt lat="64.310577393" lon="-20.305324554">
<ele>109.474609</ele>
<time>2012-07-19T20:01:06Z</time>
<extensions>
<speed>0.0</speed>
<temp>0.00</temp>
<bpm>0</bpm>
<rpm>0.00</rpm>
</extensions>
</trkpt>
<trkpt lat="64.310577393" lon="-20.305326462">
<ele>109.500000</ele>
<time>2012-07-19T20:01:11Z</time>
<extensions>
<speed>0.0</speed>
<temp>0.00</temp>
<bpm>0</bpm>
<rpm>0.00</rpm>
</extensions>
</trkpt>
<trkpt lat="64.310577393" lon="-20.305326462">
<ele>109.527344</ele>
<time>2012-07-19T20:01:16Z</time>
<extensions>
<speed>0.0</speed>
<temp>0.00</temp>
<bpm>0</bpm>
<rpm>0.00</rpm>
</extensions>
</trkpt>
<trkpt lat="64.310577393" lon="-20.305326462">
<ele>109.542969</ele>
<time>2012-07-19T20:01:21Z</time>
<speed>0.010000</speed>
<extensions>
<speed>0.0</speed>
<temp>0.00</temp>
<bpm>0</bpm>
<rpm>0.00</rpm>
</extensions>
</trkpt>
<trkpt lat="64.310577393" lon="-20.305326462">
<ele>109.537109</ele>
<time>2012-07-19T20:01:26Z</time>
<speed>0.010000</speed>
<extensions>
<speed>0.0</speed>
<temp>0.00</temp>
<bpm>0</bpm>
<rpm>0.00</rpm>
</extensions>
</trkpt>
<trkpt lat="64.310577393" lon="-20.305326462">
<ele>109.535156</ele>
<time>2012-07-19T20:01:31Z</time>
<extensions>
<speed>0.0</speed>
<temp>0.00</temp>
<bpm>0</bpm>
<rpm>0.00</rpm>
</extensions>
</trkpt>
<trkpt lat="64.310577393" lon="-20.305326462">
<ele>109.513672</ele>
<time>2012-07-19T20:01:36Z</time>
<extensions>
<speed>0.0</speed>
<temp>0.00</temp>
<bpm>0</bpm>
<rpm>0.00</rpm>
</extensions>
</trkpt>
<trkpt lat="64.310577393" lon="-20.305326462">
<ele>109.509766</ele>
<time>2012-07-19T20:01:41Z</time>
<speed>0.010000</speed>
<extensions>
<speed>0.0</speed>
<temp>0.00</temp>
<bpm>0</bpm>
<rpm>0.00</rpm>
</extensions>
</trkpt>
<trkpt lat="64.310585022" lon="-20.305326462">
<ele>109.494141</ele>
<time>2012-07-19T20:01:46Z</time>
<extensions>
<speed>0.0</speed>
<temp>0.00</temp>
<bpm>0</bpm>
<rpm>0.00</rpm>
</extensions>
</trkpt>
<trkpt lat="64.310585022" lon="-20.305326462">
<ele>109.494141</ele>
<time>2012-07-19T20:01:51Z</time>
<speed>0.010000</speed>
<extensions>
<speed>0.0</speed>
<temp>0.00</temp>
<bpm>0</bpm>
<rpm>0.00</rpm>
</extensions>
</trkpt>
<trkpt lat="64.310585022" lon="-20.305326462">
<ele>109.509766</ele>
<time>2012-07-19T20:01:56Z</time>
<extensions>
<speed>0.0</speed>
<temp>0.00</temp>
<bpm>0</bpm>
<rpm>0.00</rpm>
</extensions>
</trkpt>
<trkpt lat="64.310585022" lon="-20.305326462">
<ele>109.507813</ele>
<time>2012-07-19T20:02:01Z</time>
<extensions>
<speed>0.0</speed>
<temp>0.00</temp>
<bpm>0</bpm>
<rpm>0.00</rpm>
</extensions>
</trkpt>
<trkpt lat="64.310585022" lon="-20.305326462">
<ele>109.515625</ele>
<time>2012-07-19T20:02:06Z</time>
<extensions>
<speed>0.0</speed>
<temp>0.00</temp>
<bpm>0</bpm>
<rpm>0.00</rpm>
</extensions>
</trkpt>
<trkpt lat="64.310585022" lon="-20.305326462">
<ele>109.529297</ele>
<time>2012-07-19T20:02:11Z</time>
<extensions>
<speed>0.0</speed>
<temp>0.00</temp>
<bpm>0</bpm>
<rpm>0.00</rpm>
</extensions>
</trkpt>
<trkpt lat="64.310585022" lon="-20.305326462">
<ele>109.533203</ele>
<time>2012-07-19T20:02:16Z</time>
<extensions>
<speed>0.0</speed>
<temp>0.00</temp>
<bpm>0</bpm>
<rpm>0.00</rpm>
</extensions>
</trkpt>
<trkpt lat="64.310585022" lon="-20.305326462">
<ele>109.546875</ele>
<time>2012-07-19T20:02:21Z</time>
<extensions>
<speed>0.0</speed>
<temp>0.00</temp>
<bpm>0</bpm>
<rpm>0.00</rpm>
</extensions>
</trkpt>
<trkpt lat="64.310585022" lon="-20.305326462">
<ele>109.541016</ele>
<time>2012-07-19T20:02:26Z</time>
<extensions>
<speed>0.0</speed>
<temp>0.00</temp>
<bpm>0</bpm>
<rpm>0.00</rpm>
</extensions>
</trkpt>
<trkpt lat="64.310585022" lon="-20.305326462">
<ele>109.529297</ele>
<time>2012-07-19T20:02:31Z</time>
<extensions>
<speed>0.0</speed>
<temp>0.00</temp>
<bpm>0</bpm>
<rpm>0.00</rpm>
</extensions>
</trkpt>
<trkpt lat="64.310585022" lon="-20.305326462">
<ele>109.529297</ele>
<time>2012-07-19T20:02:36Z</time>
<extensions>
<speed>0.0</speed>
<temp>0.00</temp>
<bpm>0</bpm>
<rpm>0.00</rpm>
</extensions>
</trkpt>
<trkpt lat="64.310585022" lon="-20.305328369">
<ele>109.560547</ele>
<time>2012-07-19T20:02:41Z</time>
<extensions>
<speed>0.0</speed>
<temp>0.00</temp>
<bpm>0</bpm>
<rpm>0.00</rpm>
</extensions>
</trkpt>
<trkpt lat="64.310585022" lon="-20.305328369">
<ele>109.597656</ele>
<time>2012-07-19T20:02:46Z</time>
<extensions>
<speed>0.0</speed>
<temp>0.00</temp>
<bpm>0</bpm>
<rpm>0.00</rpm>
</extensions>
</trkpt>
<trkpt lat="64.310585022" lon="-20.305326462">
<ele>109.628906</ele>
<time>2012-07-19T20:02:51Z</time>
<extensions>
<speed>0.0</speed>
<temp>0.00</temp>
<bpm>0</bpm>
<rpm>0.00</rpm>
</extensions>
</trkpt>
<trkpt lat="64.310585022" lon="-20.305326462">
<ele>109.656250</ele>
<time>2012-07-19T20:02:56Z</time>
<extensions>
<speed>0.0</speed>
<temp>0.00</temp>
<bpm>0</bpm>
<rpm>0.00</rpm>
</extensions>
</trkpt>
<trkpt lat="64.310585022" lon="-20.305326462">
<ele>109.695313</ele>
<time>2012-07-19T20:03:01Z</time>
<extensions>
<speed>0.0</speed>
<temp>0.00</temp>
<bpm>0</bpm>
<rpm>0.00</rpm>
</extensions>
</trkpt>
<trkpt lat="64.310585022" lon="-20.305326462">
<ele>109.726563</ele>
<time>2012-07-19T20:03:06Z</time>
<extensions>
<speed>0.0</speed>
<temp>0.00</temp>
<bpm>0</bpm>
<rpm>0.00</rpm>
</extensions>
</trkpt>
<trkpt lat="64.310585022" lon="-20.305326462">
<ele>109.767578</ele>
<time>2012-07-19T20:03:11Z</time>
<speed>0.010000</speed>
<extensions>
<speed>0.0</speed>
<temp>0.00</temp>
<bpm>0</bpm>
<rpm>0.00</rpm>
</extensions>
</trkpt>
<trkpt lat="64.310585022" lon="-20.305326462">
<ele>109.785156</ele>
<time>2012-07-19T20:03:16Z</time>
<extensions>
<speed>0.0</speed>
<temp>0.00</temp>
<bpm>0</bpm>
<rpm>0.00</rpm>
</extensions>
</trkpt>
<trkpt lat="64.310585022" lon="-20.305326462">
<ele>109.779297</ele>
<time>2012-07-19T20:03:21Z</time>
<speed>0.010000</speed>
<extensions>
<speed>0.0</speed>
<temp>0.00</temp>
<bpm>0</bpm>
<rpm>0.00</rpm>
</extensions>
</trkpt>
<trkpt lat="64.310585022" lon="-20.305326462">
<ele>109.787109</ele>
<time>2012-07-19T20:03:26Z</time>
<speed>0.010000</speed>
<extensions>
<speed>0.0</speed>
<temp>0.00</temp>
<bpm>0</bpm>
<rpm>0.00</rpm>
</extensions>
</trkpt>
<trkpt lat="64.310585022" lon="-20.305326462">
<ele>109.816406</ele>
<time>2012-07-19T20:03:31Z</time>
<extensions>
<speed>0.0</speed>
<temp>0.00</temp>
<bpm>0</bpm>
<rpm>0.00</rpm>
</extensions>
</trkpt>
<trkpt lat="64.310585022" lon="-20.305326462">
<ele>109.835938</ele>
<time>2012-07-19T20:03:36Z</time>
<extensions>
<speed>0.0</speed>
<temp>0.00</temp>
<bpm>0</bpm>
<rpm>0.00</rpm>
</extensions>
</trkpt>
<trkpt lat="64.310585022" lon="-20.305326462">
<ele>109.865234</ele>
<time>2012-07-19T20:03:41Z</time>
<extensions>
<speed>0.0</speed>
<temp>0.00</temp>
<bpm>0</bpm>
<rpm>0.00</rpm>
</extensions>
</trkpt>
<trkpt lat="64.310585022" lon="-20.305326462">
<ele>109.914063</ele>
<time>2012-07-19T20:03:46Z</time>
<extensions>
<speed>0.0</speed>
<temp>0.00</temp>
<bpm>0</bpm>
<rpm>0.00</rpm>
</extensions>
</trkpt>
<trkpt lat="64.310585022" lon="-20.305326462">
<ele>109.958984</ele>
<time>2012-07-19T20:03:51Z</time>
<extensions>
<speed>0.0</speed>
<temp>0.00</temp>
<bpm>0</bpm>
<rpm>0.00</rpm>
</extensions>
</trkpt>
<trkpt lat="64.310585022" lon="-20.305326462">
<ele>110.000000</ele>
<time>2012-07-19T20:03:56Z</time>
<extensions>
<speed>0.0</speed>
<temp>0.00</temp>
<bpm>0</bpm>
<rpm>0.00</rpm>
</extensions>
</trkpt>
<trkpt lat="64.310585022" lon="-20.305326462">
<ele>110.042969</ele>
<time>2012-07-19T20:04:01Z</time>
<extensions>
<speed>0.0</speed>
<temp>0.00</temp>
<bpm>0</bpm>
<rpm>0.00</rpm>
</extensions>
</trkpt>
<trkpt lat="64.310585022" lon="-20.305326462">
<ele>110.050781</ele>
<time>2012-07-19T20:04:06Z</time>
<speed>0.010000</speed>
<extensions>
<speed>0.0</speed>
<temp>0.00</temp>
<bpm>0</bpm>
<rpm>0.00</rpm>
</extensions>
</trkpt>
<trkpt lat="64.310585022" lon="-20.305326462">
<ele>110.083984</ele>
<time>2012-07-19T20:04:11Z</time>
<extensions>
<speed>0.0</speed>
<temp>0.00</temp>
<bpm>0</bpm>
<rpm>0.00</rpm>
</extensions>
</trkpt>
<trkpt lat="64.310585022" lon="-20.305326462">
<ele>110.109375</ele>
<time>2012-07-19T20:04:16Z</time>
<extensions>
<speed>0.0</speed>
<temp>0.00</temp>
<bpm>0</bpm>
<rpm>0.00</rpm>
</extensions>
</trkpt>
<trkpt lat="64.310585022" lon="-20.305326462">
<ele>110.142578</ele>
<time>2012-07-19T20:04:21Z</time>
<speed>0.010000</speed>
<extensions>
<speed>0.0</speed>
<temp>0.00</temp>
<bpm>0</bpm>
<rpm>0.00</rpm>
</extensions>
</trkpt>
<trkpt lat="64.310585022" lon="-20.305326462">
<ele>110.169922</ele>
<time>2012-07-19T20:04:26Z</time>
<speed>0.010000</speed>
<extensions>
<speed>0.0</speed>
<temp>0.00</temp>
<bpm>0</bpm>
<rpm>0.00</rpm>
</extensions>
</trkpt>
<trkpt lat="64.310585022" lon="-20.305326462">
<ele>110.183594</ele>
<time>2012-07-19T20:04:31Z</time>
<extensions>
<speed>0.0</speed>
<temp>0.00</temp>
<bpm>0</bpm>
<rpm>0.00</rpm>
</extensions>
</trkpt>
<trkpt lat="64.310585022" lon="-20.305326462">
<ele>110.214844</ele>
<time>2012-07-19T20:04:36Z</time>
<speed>0.010000</speed>
<extensions>
<speed>0.0</speed>
<temp>0.00</temp>
<bpm>0</bpm>
<rpm>0.00</rpm>
</extensions>
</trkpt>
<trkpt lat="64.310585022" lon="-20.305326462">
<ele>110.236328</ele>
<time>2012-07-19T20:04:41Z</time>
<speed>0.030000</speed>
<extensions>
<speed>0.0</speed>
<temp>0.00</temp>
<bpm>0</bpm>
<rpm>0.00</rpm>
</extensions>
</trkpt>
<trkpt lat="64.310585022" lon="-20.305326462">
<ele>110.251953</ele>
<time>2012-07-19T20:04:46Z</time>
<speed>0.010000</speed>
<extensions>
<speed>0.0</speed>
<temp>0.00</temp>
<bpm>0</bpm>
<rpm>0.00</rpm>
</extensions>
</trkpt>
<trkpt lat="64.310585022" lon="-20.305326462">
<ele>110.242188</ele>
<time>2012-07-19T20:04:51Z</time>
<extensions>
<speed>0.0</speed>
<temp>0.00</temp>
<bpm>0</bpm>
<rpm>0.00</rpm>
</extensions>
</trkpt>
<trkpt lat="64.310585022" lon="-20.305326462">
<ele>110.246094</ele>
<time>2012-07-19T20:04:56Z</time>
<speed>0.010000</speed>
<extensions>
<speed>0.0</speed>
<temp>0.00</temp>
<bpm>0</bpm>
<rpm>0.00</rpm>
</extensions>
</trkpt>
<trkpt lat="64.310585022" lon="-20.305326462">
<ele>110.275391</ele>
<time>2012-07-19T20:05:01Z</time>
<extensions>
<speed>0.0</speed>
<temp>0.00</temp>
<bpm>0</bpm>
<rpm>0.00</rpm>
</extensions>
</trkpt>
<trkpt lat="64.310585022" lon="-20.305326462">
<ele>110.339844</ele>
<time>2012-07-19T20:05:06Z</time>
<extensions>
<speed>0.0</speed>
<temp>0.00</temp>
<bpm>0</bpm>
<rpm>0.00</rpm>
</extensions>
</trkpt>
<trkpt lat="64.310585022" lon="-20.305326462">
<ele>110.390625</ele>
<time>2012-07-19T20:05:11Z</time>
<extensions>
<speed>0.0</speed>
<temp>0.00</temp>
<bpm>0</bpm>
<rpm>0.00</rpm>
</extensions>
</trkpt>
<trkpt lat="64.310585022" lon="-20.305326462">
<ele>110.437500</ele>
<time>2012-07-19T20:05:16Z</time>
<speed>0.010000</speed>
<extensions>
<speed>0.0</speed>
<temp>0.00</temp>
<bpm>0</bpm>
<rpm>0.00</rpm>
</extensions>
</trkpt>
<trkpt lat="64.310585022" lon="-20.305328369">
<ele>110.476563</ele>
<time>2012-07-19T20:05:21Z</time>
<extensions>
<speed>0.0</speed>
<temp>0.00</temp>
<bpm>0</bpm>
<rpm>0.00</rpm>
</extensions>
</trkpt>
<trkpt lat="64.310585022" lon="-20.305328369">
<ele>110.515625</ele>
<time>2012-07-19T20:05:26Z</time>
<speed>0.020000</speed>
<extensions>
<speed>0.0</speed>
<temp>0.00</temp>
<bpm>0</bpm>
<rpm>0.00</rpm>
</extensions>
</trkpt>
<trkpt lat="64.310585022" lon="-20.305328369">
<ele>110.550781</ele>
<time>2012-07-19T20:05:31Z</time>
<speed>0.020000</speed>
<extensions>
<speed>0.0</speed>
<temp>0.00</temp>
<bpm>0</bpm>
<rpm>0.00</rpm>
</extensions>
</trkpt>
<trkpt lat="64.310585022" lon="-20.305328369">
<ele>110.574219</ele>
<time>2012-07-19T20:05:36Z</time>
<extensions>
<speed>0.0</speed>
<temp>0.00</temp>
<bpm>0</bpm>
<rpm>0.00</rpm>
</extensions>
</trkpt>
<trkpt lat="64.310585022" lon="-20.305328369">
<ele>110.580078</ele>
<time>2012-07-19T20:05:41Z</time>
<extensions>
<speed>0.0</speed>
<temp>0.00</temp>
<bpm>0</bpm>
<rpm>0.00</rpm>
</extensions>
</trkpt>
<trkpt lat="64.310585022" lon="-20.305328369">
<ele>110.564453</ele>
<time>2012-07-19T20:05:46Z</time>
<speed>0.010000</speed>
<extensions>
<speed>0.0</speed>
<temp>0.00</temp>
<bpm>0</bpm>
<rpm>0.00</rpm>
</extensions>
</trkpt>
<trkpt lat="64.310585022" lon="-20.305328369">
<ele>110.552734</ele>
<time>2012-07-19T20:05:51Z</time>
<speed>0.010000</speed>
<extensions>
<speed>0.0</speed>
<temp>0.00</temp>
<bpm>0</bpm>
<rpm>0.00</rpm>
</extensions>
</trkpt>
<trkpt lat="64.310585022" lon="-20.305326462">
<ele>110.519531</ele>
<time>2012-07-19T20:05:56Z</time>
<speed>0.010000</speed>
<extensions>
<speed>0.0</speed>
<temp>0.00</temp>
<bpm>0</bpm>
<rpm>0.00</rpm>
</extensions>
</trkpt>
<trkpt lat="64.310585022" lon="-20.305326462">
<ele>110.517578</ele>
<time>2012-07-19T20:06:01Z</time>
<speed>0.010000</speed>
<extensions>
<speed>0.0</speed>
<temp>0.00</temp>
<bpm>0</bpm>
<rpm>0.00</rpm>
</extensions>
</trkpt>
<trkpt lat="64.310585022" lon="-20.305326462">
<ele>110.501953</ele>
<time>2012-07-19T20:06:06Z</time>
<extensions>
<speed>0.0</speed>
<temp>0.00</temp>
<bpm>0</bpm>
<rpm>0.00</rpm>
</extensions>
</trkpt>
<trkpt lat="64.310585022" lon="-20.305326462">
<ele>110.474609</ele>
<time>2012-07-19T20:06:11Z</time>
<extensions>
<speed>0.0</speed>
<temp>0.00</temp>
<bpm>0</bpm>
<rpm>0.00</rpm>
</extensions>
</trkpt>
<trkpt lat="64.310585022" lon="-20.305326462">
<ele>110.472656</ele>
<time>2012-07-19T20:06:16Z</time>
<speed>0.010000</speed>
<extensions>
<speed>0.0</speed>
<temp>0.00</temp>
<bpm>0</bpm>
<rpm>0.00</rpm>
</extensions>
</trkpt>
<trkpt lat="64.310585022" lon="-20.305326462">
<ele>110.449219</ele>
<time>2012-07-19T20:06:21Z</time>
<speed>0.010000</speed>
<extensions>
<speed>0.0</speed>
<temp>0.00</temp>
<bpm>0</bpm>
<rpm>0.00</rpm>
</extensions>
</trkpt>
<trkpt lat="64.310585022" lon="-20.305326462">
<ele>110.427734</ele>
<time>2012-07-19T20:06:26Z</time>
<speed>0.010000</speed>
<extensions>
<speed>0.0</speed>
<temp>0.00</temp>
<bpm>0</bpm>
<rpm>0.00</rpm>
</extensions>
</trkpt>
<trkpt lat="64.310585022" lon="-20.305324554">
<ele>110.414063</ele>
<time>2012-07-19T20:06:31Z</time>
<extensions>
<speed>0.0</speed>
<temp>0.00</temp>
<bpm>0</bpm>
<rpm>0.00</rpm>
</extensions>
</trkpt>
<trkpt lat="64.310585022" lon="-20.305324554">
<ele>110.375000</ele>
<time>2012-07-19T20:06:36Z</time>
<extensions>
<speed>0.0</speed>
<temp>0.00</temp>
<bpm>0</bpm>
<rpm>0.00</rpm>
</extensions>
</trkpt>
<trkpt lat="64.310585022" lon="-20.305324554">
<ele>110.351563</ele>
<time>2012-07-19T20:06:41Z</time>
<extensions>
<speed>0.0</speed>
<temp>0.00</temp>
<bpm>0</bpm>
<rpm>0.00</rpm>
</extensions>
</trkpt>
<trkpt lat="64.310585022" lon="-20.305324554">
<ele>110.357422</ele>
<time>2012-07-19T20:06:46Z</time>
<extensions>
<speed>0.0</speed>
<temp>0.00</temp>
<bpm>0</bpm>
<rpm>0.00</rpm>
</extensions>
</trkpt>
<trkpt lat="64.310585022" lon="-20.305324554">
<ele>110.371094</ele>
<time>2012-07-19T20:06:51Z</time>
<extensions>
<speed>0.0</speed>
<temp>0.00</temp>
<bpm>0</bpm>
<rpm>0.00</rpm>
</extensions>
</trkpt>
<trkpt lat="64.310585022" lon="-20.305324554">
<ele>110.378906</ele>
<time>2012-07-19T20:06:56Z</time>
<extensions>
<speed>0.0</speed>
<temp>0.00</temp>
<bpm>0</bpm>
<rpm>0.00</rpm>
</extensions>
</trkpt>
<trkpt lat="64.310585022" lon="-20.305324554">
<ele>110.359375</ele>
<time>2012-07-19T20:07:01Z</time>
<extensions>
<speed>0.0</speed>
<temp>0.00</temp>
<bpm>0</bpm>
<rpm>0.00</rpm>
</extensions>
</trkpt>
<trkpt lat="64.310592651" lon="-20.305324554">
<ele>110.375000</ele>
<time>2012-07-19T20:07:06Z</time>
<speed>0.010000</speed>
<extensions>
<speed>0.0</speed>
<temp>0.00</temp>
<bpm>0</bpm>
<rpm>0.00</rpm>
</extensions>
</trkpt>
<trkpt lat="64.310592651" lon="-20.305324554">
<ele>110.373047</ele>
<time>2012-07-19T20:07:11Z</time>
<extensions>
<speed>0.0</speed>
<temp>0.00</temp>
<bpm>0</bpm>
<rpm>0.00</rpm>
</extensions>
</trkpt>
<trkpt lat="64.310592651" lon="-20.305324554">
<ele>110.382813</ele>
<time>2012-07-19T20:07:16Z</time>
<extensions>
<speed>0.0</speed>
<temp>0.00</temp>
<bpm>0</bpm>
<rpm>0.00</rpm>
</extensions>
</trkpt>
<trkpt lat="64.310592651" lon="-20.305324554">
<ele>110.394531</ele>
<time>2012-07-19T20:07:21Z</time>
<speed>0.020000</speed>
<extensions>
<speed>0.0</speed>
<temp>0.00</temp>
<bpm>0</bpm>
<rpm>0.00</rpm>
</extensions>
</trkpt>
<trkpt lat="64.310592651" lon="-20.305324554">
<ele>110.361328</ele>
<time>2012-07-19T20:07:26Z</time>
<speed>0.010000</speed>
<extensions>
<speed>0.0</speed>
<temp>0.00</temp>
<bpm>0</bpm>
<rpm>0.00</rpm>
</extensions>
</trkpt>
<trkpt lat="64.310592651" lon="-20.305322647">
<ele>110.308594</ele>
<time>2012-07-19T20:07:31Z</time>
<speed>0.020000</speed>
<extensions>
<speed>0.0</speed>
<temp>0.00</temp>
<bpm>0</bpm>
<rpm>0.00</rpm>
</extensions>
</trkpt>
<trkpt lat="64.310585022" lon="-20.305322647">
<ele>110.255859</ele>
<time>2012-07-19T20:07:36Z</time>
<extensions>
<speed>0.0</speed>
<temp>0.00</temp>
<bpm>0</bpm>
<rpm>0.00</rpm>
</extensions>
</trkpt>
<trkpt lat="64.310585022" lon="-20.305320740">
<ele>110.250000</ele>
<time>2012-07-19T20:07:41Z</time>
<speed>0.010000</speed>
<extensions>
<speed>0.0</speed>
<temp>0.00</temp>
<bpm>0</bpm>
<rpm>0.00</rpm>
</extensions>
</trkpt>
<trkpt lat="64.310585022" lon="-20.305320740">
<ele>110.244141</ele>
<time>2012-07-19T20:07:46Z</time>
<extensions>
<speed>0.0</speed>
<temp>0.00</temp>
<bpm>0</bpm>
<rpm>0.00</rpm>
</extensions>
</trkpt>
<trkpt lat="64.310585022" lon="-20.305320740">
<ele>110.244141</ele>
<time>2012-07-19T20:07:51Z</time>
<extensions>
<speed>0.0</speed>
<temp>0.00</temp>
<bpm>0</bpm>
<rpm>0.00</rpm>
</extensions>
</trkpt>
<trkpt lat="64.310585022" lon="-20.305320740">
<ele>110.228516</ele>
<time>2012-07-19T20:07:56Z</time>
<extensions>
<speed>0.0</speed>
<temp>0.00</temp>
<bpm>0</bpm>
<rpm>0.00</rpm>
</extensions>
</trkpt>
<trkpt lat="64.310585022" lon="-20.305320740">
<ele>110.208984</ele>
<time>2012-07-19T20:08:01Z</time>
<extensions>
<speed>0.0</speed>
<temp>0.00</temp>
<bpm>0</bpm>
<rpm>0.00</rpm>
</extensions>
</trkpt>
<trkpt lat="64.310585022" lon="-20.305320740">
<ele>110.181641</ele>
<time>2012-07-19T20:08:06Z</time>
<extensions>
<speed>0.0</speed>
<temp>0.00</temp>
<bpm>0</bpm>
<rpm>0.00</rpm>
</extensions>
</trkpt>
<trkpt lat="64.310585022" lon="-20.305318832">
<ele>110.150391</ele>
<time>2012-07-19T20:08:11Z</time>
<speed>0.020000</speed>
<extensions>
<speed>0.0</speed>
<temp>0.00</temp>
<bpm>0</bpm>
<rpm>0.00</rpm>
</extensions>
</trkpt>
<trkpt lat="64.310585022" lon="-20.305318832">
<ele>110.142578</ele>
<time>2012-07-19T20:08:16Z</time>
<speed>0.020000</speed>
<extensions>
<speed>0.0</speed>
<temp>0.00</temp>
<bpm>0</bpm>
<rpm>0.00</rpm>
</extensions>
</trkpt>
<trkpt lat="64.310585022" lon="-20.305318832">
<ele>110.136719</ele>
<time>2012-07-19T20:08:21Z</time>
<speed>0.030000</speed>
<extensions>
<speed>0.0</speed>
<temp>0.00</temp>
<bpm>0</bpm>
<rpm>0.00</rpm>
</extensions>
</trkpt>
<trkpt lat="64.310585022" lon="-20.305318832">
<ele>110.136719</ele>
<time>2012-07-19T20:08:26Z</time>
<extensions>
<speed>0.0</speed>
<temp>0.00</temp>
<bpm>0</bpm>
<rpm>0.00</rpm>
</extensions>
</trkpt>
<trkpt lat="64.310585022" lon="-20.305318832">
<ele>110.162109</ele>
<time>2012-07-19T20:08:31Z</time>
<speed>0.010000</speed>
<extensions>
<speed>0.0</speed>
<temp>0.00</temp>
<bpm>0</bpm>
<rpm>0.00</rpm>
</extensions>
</trkpt>
<trkpt lat="64.310585022" lon="-20.305318832">
<ele>110.183594</ele>
<time>2012-07-19T20:08:36Z</time>
<extensions>
<speed>0.0</speed>
<temp>0.00</temp>
<bpm>0</bpm>
<rpm>0.00</rpm>
</extensions>
</trkpt>
<trkpt lat="64.310585022" lon="-20.305318832">
<ele>110.216797</ele>
<time>2012-07-19T20:08:41Z</time>
<speed>0.020000</speed>
<extensions>
<speed>0.0</speed>
<temp>0.00</temp>
<bpm>0</bpm>
<rpm>0.00</rpm>
</extensions>
</trkpt>
<trkpt lat="64.310585022" lon="-20.305318832">
<ele>110.240234</ele>
<time>2012-07-19T20:08:46Z</time>
<speed>0.010000</speed>
<extensions>
<speed>0.0</speed>
<temp>0.00</temp>
<bpm>0</bpm>
<rpm>0.00</rpm>
</extensions>
</trkpt>
<trkpt lat="64.310585022" lon="-20.305318832">
<ele>110.253906</ele>
<time>2012-07-19T20:08:51Z</time>
<extensions>
<speed>0.0</speed>
<temp>0.00</temp>
<bpm>0</bpm>
<rpm>0.00</rpm>
</extensions>
</trkpt>
<trkpt lat="64.310585022" lon="-20.305318832">
<ele>110.244141</ele>
<time>2012-07-19T20:08:56Z</time>
<extensions>
<speed>0.0</speed>
<temp>0.00</temp>
<bpm>0</bpm>
<rpm>0.00</rpm>
</extensions>
</trkpt>
<trkpt lat="64.310585022" lon="-20.305318832">
<ele>110.242188</ele>
<time>2012-07-19T20:09:01Z</time>
<extensions>
<speed>0.0</speed>
<temp>0.00</temp>
<bpm>0</bpm>
<rpm>0.00</rpm>
</extensions>
</trkpt>
<trkpt lat="64.310585022" lon="-20.305318832">
<ele>110.240234</ele>
<time>2012-07-19T20:09:06Z</time>
<extensions>
<speed>0.0</speed>
<temp>0.00</temp>
<bpm>0</bpm>
<rpm>0.00</rpm>
</extensions>
</trkpt>
<trkpt lat="64.310585022" lon="-20.305318832">
<ele>110.216797</ele>
<time>2012-07-19T20:09:11Z</time>
<extensions>
<speed>0.0</speed>
<temp>0.00</temp>
<bpm>0</bpm>
<rpm>0.00</rpm>
</extensions>
</trkpt>
<trkpt lat="64.310585022" lon="-20.305318832">
<ele>110.162109</ele>
<time>2012-07-19T20:09:16Z</time>
<extensions>
<speed>0.0</speed>
<temp>0.00</temp>
<bpm>0</bpm>
<rpm>0.00</rpm>
</extensions>
</trkpt>
<trkpt lat="64.310585022" lon="-20.305316925">
<ele>110.101563</ele>
<time>2012-07-19T20:09:21Z</time>
<extensions>
<speed>0.0</speed>
<temp>0.00</temp>
<bpm>0</bpm>
<rpm>0.00</rpm>
</extensions>
</trkpt>
<trkpt lat="64.310585022" lon="-20.305316925">
<ele>110.046875</ele>
<time>2012-07-19T20:09:26Z</time>
<speed>0.010000</speed>
<extensions>
<speed>0.0</speed>
<temp>0.00</temp>
<bpm>0</bpm>
<rpm>0.00</rpm>
</extensions>
</trkpt>
<trkpt lat="64.310585022" lon="-20.305316925">
<ele>109.990234</ele>
<time>2012-07-19T20:09:31Z</time>
<extensions>
<speed>0.0</speed>
<temp>0.00</temp>
<bpm>0</bpm>
<rpm>0.00</rpm>
</extensions>
</trkpt>
<trkpt lat="64.310585022" lon="-20.305316925">
<ele>109.941406</ele>
<time>2012-07-19T20:09:36Z</time>
<extensions>
<speed>0.0</speed>
<temp>0.00</temp>
<bpm>0</bpm>
<rpm>0.00</rpm>
</extensions>
</trkpt>
<trkpt lat="64.310585022" lon="-20.305315018">
<ele>109.919922</ele>
<time>2012-07-19T20:09:41Z</time>
<extensions>
<speed>0.0</speed>
<temp>0.00</temp>
<bpm>0</bpm>
<rpm>0.00</rpm>
</extensions>
</trkpt>
<trkpt lat="64.310585022" lon="-20.305315018">
<ele>109.898438</ele>
<time>2012-07-19T20:09:46Z</time>
<extensions>
<speed>0.0</speed>
<temp>0.00</temp>
<bpm>0</bpm>
<rpm>0.00</rpm>
</extensions>
</trkpt>
<trkpt lat="64.310585022" lon="-20.305315018">
<ele>109.886719</ele>
<time>2012-07-19T20:09:51Z</time>
<extensions>
<speed>0.0</speed>
<temp>0.00</temp>
<bpm>0</bpm>
<rpm>0.00</rpm>
</extensions>
</trkpt>
<trkpt lat="64.310585022" lon="-20.305315018">
<ele>109.884766</ele>
<time>2012-07-19T20:09:56Z</time>
<extensions>
<speed>0.0</speed>
<temp>0.00</temp>
<bpm>0</bpm>
<rpm>0.00</rpm>
</extensions>
</trkpt>
<trkpt lat="64.310585022" lon="-20.305315018">
<ele>109.886719</ele>
<time>2012-07-19T20:10:01Z</time>
<speed>0.010000</speed>
<extensions>
<speed>0.0</speed>
<temp>0.00</temp>
<bpm>0</bpm>
<rpm>0.00</rpm>
</extensions>
</trkpt>
<trkpt lat="64.310585022" lon="-20.305315018">
<ele>109.867188</ele>
<time>2012-07-19T20:10:06Z</time>
<extensions>
<speed>0.0</speed>
<temp>0.00</temp>
<bpm>0</bpm>
<rpm>0.00</rpm>
</extensions>
</trkpt>
<trkpt lat="64.310585022" lon="-20.305315018">
<ele>109.876953</ele>
<time>2012-07-19T20:10:11Z</time>
<extensions>
<speed>0.0</speed>
<temp>0.00</temp>
<bpm>0</bpm>
<rpm>0.00</rpm>
</extensions>
</trkpt>
<trkpt lat="64.310585022" lon="-20.305315018">
<ele>109.876953</ele>
<time>2012-07-19T20:10:16Z</time>
<extensions>
<speed>0.0</speed>
<temp>0.00</temp>
<bpm>0</bpm>
<rpm>0.00</rpm>
</extensions>
</trkpt>
<trkpt lat="64.310585022" lon="-20.305315018">
<ele>109.896484</ele>
<time>2012-07-19T20:10:21Z</time>
<speed>0.020000</speed>
<extensions>
<speed>0.0</speed>
<temp>0.00</temp>
<bpm>0</bpm>
<rpm>0.00</rpm>
</extensions>
</trkpt>
<trkpt lat="64.310585022" lon="-20.305315018">
<ele>109.908203</ele>
<time>2012-07-19T20:10:26Z</time>
<extensions>
<speed>0.0</speed>
<temp>0.00</temp>
<bpm>0</bpm>
<rpm>0.00</rpm>
</extensions>
</trkpt>
<trkpt lat="64.310585022" lon="-20.305315018">
<ele>109.937500</ele>
<time>2012-07-19T20:10:31Z</time>
<extensions>
<speed>0.0</speed>
<temp>0.00</temp>
<bpm>0</bpm>
<rpm>0.00</rpm>
</extensions>
</trkpt>
<trkpt lat="64.310585022" lon="-20.305315018">
<ele>109.982422</ele>
<time>2012-07-19T20:10:36Z</time>
<extensions>
<speed>0.0</speed>
<temp>0.00</temp>
<bpm>0</bpm>
<rpm>0.00</rpm>
</extensions>
</trkpt>
<trkpt lat="64.310585022" lon="-20.305316925">
<ele>110.029297</ele>
<time>2012-07-19T20:10:41Z</time>
<extensions>
<speed>0.0</speed>
<temp>0.00</temp>
<bpm>0</bpm>
<rpm>0.00</rpm>
</extensions>
</trkpt>
<trkpt lat="64.310585022" lon="-20.305315018">
<ele>110.039063</ele>
<time>2012-07-19T20:10:46Z</time>
<extensions>
<speed>0.0</speed>
<temp>0.00</temp>
<bpm>0</bpm>
<rpm>0.00</rpm>
</extensions>
</trkpt>
<trkpt lat="64.310585022" lon="-20.305315018">
<ele>110.019531</ele>
<time>2012-07-19T20:10:51Z</time>
<speed>0.010000</speed>
<extensions>
<speed>0.0</speed>
<temp>0.00</temp>
<bpm>0</bpm>
<rpm>0.00</rpm>
</extensions>
</trkpt>
<trkpt lat="64.310585022" lon="-20.305315018">
<ele>110.013672</ele>
<time>2012-07-19T20:10:56Z</time>
<extensions>
<speed>0.0</speed>
<temp>0.00</temp>
<bpm>0</bpm>
<rpm>0.00</rpm>
</extensions>
</trkpt>
<trkpt lat="64.310585022" lon="-20.305315018">
<ele>110.001953</ele>
<time>2012-07-19T20:11:01Z</time>
<extensions>
<speed>0.0</speed>
<temp>0.00</temp>
<bpm>0</bpm>
<rpm>0.00</rpm>
</extensions>
</trkpt>
<trkpt lat="64.310585022" lon="-20.305315018">
<ele>110.005859</ele>
<time>2012-07-19T20:11:06Z</time>
<extensions>
<speed>0.0</speed>
<temp>0.00</temp>
<bpm>0</bpm>
<rpm>0.00</rpm>
</extensions>
</trkpt>
<trkpt lat="64.310585022" lon="-20.305315018">
<ele>110.001953</ele>
<time>2012-07-19T20:11:11Z</time>
<extensions>
<speed>0.0</speed>
<temp>0.00</temp>
<bpm>0</bpm>
<rpm>0.00</rpm>
</extensions>
</trkpt>
<trkpt lat="64.310585022" lon="-20.305315018">
<ele>109.982422</ele>
<time>2012-07-19T20:11:16Z</time>
<speed>0.010000</speed>
<extensions>
<speed>0.0</speed>
<temp>0.00</temp>
<bpm>0</bpm>
<rpm>0.00</rpm>
</extensions>
</trkpt>
<trkpt lat="64.310585022" lon="-20.305315018">
<ele>109.980469</ele>
<time>2012-07-19T20:11:21Z</time>
<extensions>
<speed>0.0</speed>
<temp>0.00</temp>
<bpm>0</bpm>
<rpm>0.00</rpm>
</extensions>
</trkpt>
<trkpt lat="64.310585022" lon="-20.305315018">
<ele>109.978516</ele>
<time>2012-07-19T20:11:26Z</time>
<speed>0.010000</speed>
<extensions>
<speed>0.0</speed>
<temp>0.00</temp>
<bpm>0</bpm>
<rpm>0.00</rpm>
</extensions>
</trkpt>
<trkpt lat="64.310585022" lon="-20.305315018">
<ele>109.986328</ele>
<time>2012-07-19T20:11:31Z</time>
<extensions>
<speed>0.0</speed>
<temp>0.00</temp>
<bpm>0</bpm>
<rpm>0.00</rpm>
</extensions>
</trkpt>
<trkpt lat="64.310585022" lon="-20.305315018">
<ele>109.976563</ele>
<time>2012-07-19T20:11:36Z</time>
<extensions>
<speed>0.0</speed>
<temp>0.00</temp>
<bpm>0</bpm>
<rpm>0.00</rpm>
</extensions>
</trkpt>
<trkpt lat="64.310585022" lon="-20.305316925">
<ele>109.996094</ele>
<time>2012-07-19T20:11:41Z</time>
<extensions>
<speed>0.0</speed>
<temp>0.00</temp>
<bpm>0</bpm>
<rpm>0.00</rpm>
</extensions>
</trkpt>
<trkpt lat="64.310585022" lon="-20.305316925">
<ele>110.003906</ele>
<time>2012-07-19T20:11:46Z</time>
<extensions>
<speed>0.0</speed>
<temp>0.00</temp>
<bpm>0</bpm>
<rpm>0.00</rpm>
</extensions>
</trkpt>
<trkpt lat="64.310585022" lon="-20.305316925">
<ele>110.009766</ele>
<time>2012-07-19T20:11:51Z</time>
<extensions>
<speed>0.0</speed>
<temp>0.00</temp>
<bpm>0</bpm>
<rpm>0.00</rpm>
</extensions>
</trkpt>
<trkpt lat="64.310585022" lon="-20.305316925">
<ele>110.009766</ele>
<time>2012-07-19T20:11:56Z</time>
<extensions>
<speed>0.0</speed>
<temp>0.00</temp>
<bpm>0</bpm>
<rpm>0.00</rpm>
</extensions>
</trkpt>
<trkpt lat="64.310585022" lon="-20.305316925">
<ele>110.007813</ele>
<time>2012-07-19T20:12:01Z</time>
<extensions>
<speed>0.0</speed>
<temp>0.00</temp>
<bpm>0</bpm>
<rpm>0.00</rpm>
</extensions>
</trkpt>
<trkpt lat="64.310585022" lon="-20.305316925">
<ele>110.009766</ele>
<time>2012-07-19T20:12:06Z</time>
<extensions>
<speed>0.0</speed>
<temp>0.00</temp>
<bpm>0</bpm>
<rpm>0.00</rpm>
</extensions>
</trkpt>
<trkpt lat="64.310585022" lon="-20.305316925">
<ele>110.000000</ele>
<time>2012-07-19T20:12:11Z</time>
<extensions>
<speed>0.0</speed>
<temp>0.00</temp>
<bpm>0</bpm>
<rpm>0.00</rpm>
</extensions>
</trkpt>
<trkpt lat="64.310585022" lon="-20.305315018">
<ele>110.015625</ele>
<time>2012-07-19T20:12:16Z</time>
<extensions>
<speed>0.0</speed>
<temp>0.00</temp>
<bpm>0</bpm>
<rpm>0.00</rpm>
</extensions>
</trkpt>
<trkpt lat="64.310585022" lon="-20.305315018">
<ele>110.039063</ele>
<time>2012-07-19T20:12:21Z</time>
<extensions>
<speed>0.0</speed>
<temp>0.00</temp>
<bpm>0</bpm>
<rpm>0.00</rpm>
</extensions>
</trkpt>
<trkpt lat="64.310585022" lon="-20.305315018">
<ele>110.052734</ele>
<time>2012-07-19T20:12:26Z</time>
<extensions>
<speed>0.0</speed>
<temp>0.00</temp>
<bpm>0</bpm>
<rpm>0.00</rpm>
</extensions>
</trkpt>
<trkpt lat="64.310585022" lon="-20.305316925">
<ele>110.066406</ele>
<time>2012-07-19T20:12:31Z</time>
<extensions>
<speed>0.0</speed>
<temp>0.00</temp>
<bpm>0</bpm>
<rpm>0.00</rpm>
</extensions>
</trkpt>
<trkpt lat="64.310585022" lon="-20.305315018">
<ele>110.056641</ele>
<time>2012-07-19T20:12:36Z</time>
<speed>0.010000</speed>
<extensions>
<speed>0.0</speed>
<temp>0.00</temp>
<bpm>0</bpm>
<rpm>0.00</rpm>
</extensions>
</trkpt>
<trkpt lat="64.310585022" lon="-20.305315018">
<ele>110.039063</ele>
<time>2012-07-19T20:12:41Z</time>
<extensions>
<speed>0.0</speed>
<temp>0.00</temp>
<bpm>0</bpm>
<rpm>0.00</rpm>
</extensions>
</trkpt>
<trkpt lat="64.310585022" lon="-20.305315018">
<ele>110.029297</ele>
<time>2012-07-19T20:12:46Z</time>
<speed>0.010000</speed>
<extensions>
<speed>0.0</speed>
<temp>0.00</temp>
<bpm>0</bpm>
<rpm>0.00</rpm>
</extensions>
</trkpt>
<trkpt lat="64.310585022" lon="-20.305315018">
<ele>110.013672</ele>
<time>2012-07-19T20:12:51Z</time>
<extensions>
<speed>0.0</speed>
<temp>0.00</temp>
<bpm>0</bpm>
<rpm>0.00</rpm>
</extensions>
</trkpt>
<trkpt lat="64.310585022" lon="-20.305315018">
<ele>110.023438</ele>
<time>2012-07-19T20:12:56Z</time>
<speed>0.020000</speed>
<extensions>
<speed>0.0</speed>
<temp>0.00</temp>
<bpm>0</bpm>
<rpm>0.00</rpm>
</extensions>
</trkpt>
<trkpt lat="64.310585022" lon="-20.305315018">
<ele>110.021484</ele>
<time>2012-07-19T20:13:01Z</time>
<extensions>
<speed>0.0</speed>
<temp>0.00</temp>
<bpm>0</bpm>
<rpm>0.00</rpm>
</extensions>
</trkpt>
<trkpt lat="64.310585022" lon="-20.305315018">
<ele>110.025391</ele>
<time>2012-07-19T20:13:06Z</time>
<extensions>
<speed>0.0</speed>
<temp>0.00</temp>
<bpm>0</bpm>
<rpm>0.00</rpm>
</extensions>
</trkpt>
<trkpt lat="64.310585022" lon="-20.305315018">
<ele>110.029297</ele>
<time>2012-07-19T20:13:11Z</time>
<extensions>
<speed>0.0</speed>
<temp>0.00</temp>
<bpm>0</bpm>
<rpm>0.00</rpm>
</extensions>
</trkpt>
<trkpt lat="64.310585022" lon="-20.305315018">
<ele>110.041016</ele>
<time>2012-07-19T20:13:16Z</time>
<extensions>
<speed>0.0</speed>
<temp>0.00</temp>
<bpm>0</bpm>
<rpm>0.00</rpm>
</extensions>
</trkpt>
<trkpt lat="64.310585022" lon="-20.305315018">
<ele>110.029297</ele>
<time>2012-07-19T20:13:21Z</time>
<speed>0.010000</speed>
<extensions>
<speed>0.0</speed>
<temp>0.00</temp>
<bpm>0</bpm>
<rpm>0.00</rpm>
</extensions>
</trkpt>
<trkpt lat="64.310585022" lon="-20.305315018">
<ele>110.035156</ele>
<time>2012-07-19T20:13:26Z</time>
<speed>0.010000</speed>
<extensions>
<speed>0.0</speed>
<temp>0.00</temp>
<bpm>0</bpm>
<rpm>0.00</rpm>
</extensions>
</trkpt>
<trkpt lat="64.310585022" lon="-20.305315018">
<ele>110.041016</ele>
<time>2012-07-19T20:13:31Z</time>
<speed>0.020000</speed>
<extensions>
<speed>0.0</speed>
<temp>0.00</temp>
<bpm>0</bpm>
<rpm>0.00</rpm>
</extensions>
</trkpt>
<trkpt lat="64.310585022" lon="-20.305316925">
<ele>110.046875</ele>
<time>2012-07-19T20:13:36Z</time>
<speed>0.010000</speed>
<extensions>
<speed>0.0</speed>
<temp>0.00</temp>
<bpm>0</bpm>
<rpm>0.00</rpm>
</extensions>
</trkpt>
<trkpt lat="64.310585022" lon="-20.305316925">
<ele>110.050781</ele>
<time>2012-07-19T20:13:41Z</time>
<extensions>
<speed>0.0</speed>
<temp>0.00</temp>
<bpm>0</bpm>
<rpm>0.00</rpm>
</extensions>
</trkpt>
<trkpt lat="64.310585022" lon="-20.305316925">
<ele>110.087891</ele>
<time>2012-07-19T20:13:46Z</time>
<speed>0.010000</speed>
<extensions>
<speed>0.0</speed>
<temp>0.00</temp>
<bpm>0</bpm>
<rpm>0.00</rpm>
</extensions>
</trkpt>
<trkpt lat="64.310585022" lon="-20.305316925">
<ele>110.111328</ele>
<time>2012-07-19T20:13:51Z</time>
<extensions>
<speed>0.0</speed>
<temp>0.00</temp>
<bpm>0</bpm>
<rpm>0.00</rpm>
</extensions>
</trkpt>
<trkpt lat="64.310585022" lon="-20.305316925">
<ele>110.123047</ele>
<time>2012-07-19T20:13:56Z</time>
<extensions>
<speed>0.0</speed>
<temp>0.00</temp>
<bpm>0</bpm>
<rpm>0.00</rpm>
</extensions>
</trkpt>
<trkpt lat="64.310585022" lon="-20.305318832">
<ele>110.130859</ele>
<time>2012-07-19T20:14:01Z</time>
<speed>0.010000</speed>
<extensions>
<speed>0.0</speed>
<temp>0.00</temp>
<bpm>0</bpm>
<rpm>0.00</rpm>
</extensions>
</trkpt>
<trkpt lat="64.310585022" lon="-20.305318832">
<ele>110.126953</ele>
<time>2012-07-19T20:14:06Z</time>
<speed>0.020000</speed>
<extensions>
<speed>0.0</speed>
<temp>0.00</temp>
<bpm>0</bpm>
<rpm>0.00</rpm>
</extensions>
</trkpt>
<trkpt lat="64.310585022" lon="-20.305318832">
<ele>110.099609</ele>
<time>2012-07-19T20:14:11Z</time>
<speed>0.020000</speed>
<extensions>
<speed>0.0</speed>
<temp>0.00</temp>
<bpm>0</bpm>
<rpm>0.00</rpm>
</extensions>
</trkpt>
<trkpt lat="64.310585022" lon="-20.305318832">
<ele>110.076172</ele>
<time>2012-07-19T20:14:16Z</time>
<speed>0.010000</speed>
<extensions>
<speed>0.0</speed>
<temp>0.00</temp>
<bpm>0</bpm>
<rpm>0.00</rpm>
</extensions>
</trkpt>
<trkpt lat="64.310585022" lon="-20.305318832">
<ele>110.076172</ele>
<time>2012-07-19T20:14:21Z</time>
<speed>0.030000</speed>
<extensions>
<speed>0.0</speed>
<temp>0.00</temp>
<bpm>0</bpm>
<rpm>0.00</rpm>
</extensions>
</trkpt>
<trkpt lat="64.310585022" lon="-20.305318832">
<ele>110.062500</ele>
<time>2012-07-19T20:14:26Z</time>
<speed>0.020000</speed>
<extensions>
<speed>0.0</speed>
<temp>0.00</temp>
<bpm>0</bpm>
<rpm>0.00</rpm>
</extensions>
</trkpt>
<trkpt lat="64.310592651" lon="-20.305318832">
<ele>110.044922</ele>
<time>2012-07-19T20:14:31Z</time>
<speed>0.020000</speed>
<extensions>
<speed>0.0</speed>
<temp>0.00</temp>
<bpm>0</bpm>
<rpm>0.00</rpm>
</extensions>
</trkpt>
<trkpt lat="64.310592651" lon="-20.305318832">
<ele>110.021484</ele>
<time>2012-07-19T20:14:36Z</time>
<extensions>
<speed>0.0</speed>
<temp>0.00</temp>
<bpm>0</bpm>
<rpm>0.00</rpm>
</extensions>
</trkpt>
<trkpt lat="64.310592651" lon="-20.305318832">
<ele>110.005859</ele>
<time>2012-07-19T20:14:41Z</time>
<extensions>
<speed>0.0</speed>
<temp>0.00</temp>
<bpm>0</bpm>
<rpm>0.00</rpm>
</extensions>
</trkpt>
<trkpt lat="64.310592651" lon="-20.305318832">
<ele>110.007813</ele>
<time>2012-07-19T20:14:46Z</time>
<extensions>
<speed>0.0</speed>
<temp>0.00</temp>
<bpm>0</bpm>
<rpm>0.00</rpm>
</extensions>
</trkpt>
<trkpt lat="64.310592651" lon="-20.305318832">
<ele>110.011719</ele>
<time>2012-07-19T20:14:51Z</time>
<speed>0.010000</speed>
<extensions>
<speed>0.0</speed>
<temp>0.00</temp>
<bpm>0</bpm>
<rpm>0.00</rpm>
</extensions>
</trkpt>
<trkpt lat="64.310592651" lon="-20.305318832">
<ele>110.021484</ele>
<time>2012-07-19T20:14:56Z</time>
<extensions>
<speed>0.0</speed>
<temp>0.00</temp>
<bpm>0</bpm>
<rpm>0.00</rpm>
</extensions>
</trkpt>
<trkpt lat="64.310592651" lon="-20.305318832">
<ele>110.021484</ele>
<time>2012-07-19T20:15:01Z</time>
<speed>0.010000</speed>
<extensions>
<speed>0.0</speed>
<temp>0.00</temp>
<bpm>0</bpm>
<rpm>0.00</rpm>
</extensions>
</trkpt>
<trkpt lat="64.310592651" lon="-20.305320740">
<ele>110.037109</ele>
<time>2012-07-19T20:15:06Z</time>
<speed>0.010000</speed>
<extensions>
<speed>0.0</speed>
<temp>0.00</temp>
<bpm>0</bpm>
<rpm>0.00</rpm>
</extensions>
</trkpt>
<trkpt lat="64.310592651" lon="-20.305320740">
<ele>110.044922</ele>
<time>2012-07-19T20:15:11Z</time>
<speed>0.020000</speed>
<extensions>
<speed>0.0</speed>
<temp>0.00</temp>
<bpm>0</bpm>
<rpm>0.00</rpm>
</extensions>
</trkpt>
<trkpt lat="64.310592651" lon="-20.305320740">
<ele>110.037109</ele>
<time>2012-07-19T20:15:16Z</time>
<extensions>
<speed>0.0</speed>
<temp>0.00</temp>
<bpm>0</bpm>
<rpm>0.00</rpm>
</extensions>
</trkpt>
<trkpt lat="64.310592651" lon="-20.305320740">
<ele>110.025391</ele>
<time>2012-07-19T20:15:21Z</time>
<extensions>
<speed>0.0</speed>
<temp>0.00</temp>
<bpm>0</bpm>
<rpm>0.00</rpm>
</extensions>
</trkpt>
<trkpt lat="64.310592651" lon="-20.305320740">
<ele>110.003906</ele>
<time>2012-07-19T20:15:26Z</time>
<speed>0.010000</speed>
<extensions>
<speed>0.0</speed>
<temp>0.00</temp>
<bpm>0</bpm>
<rpm>0.00</rpm>
</extensions>
</trkpt>
<trkpt lat="64.310592651" lon="-20.305320740">
<ele>109.994141</ele>
<time>2012-07-19T20:15:31Z</time>
<extensions>
<speed>0.0</speed>
<temp>0.00</temp>
<bpm>0</bpm>
<rpm>0.00</rpm>
</extensions>
</trkpt>
<trkpt lat="64.310592651" lon="-20.305320740">
<ele>109.986328</ele>
<time>2012-07-19T20:15:36Z</time>
<extensions>
<speed>0.0</speed>
<temp>0.00</temp>
<bpm>0</bpm>
<rpm>0.00</rpm>
</extensions>
</trkpt>
<trkpt lat="64.310592651" lon="-20.305320740">
<ele>109.986328</ele>
<time>2012-07-19T20:15:41Z</time>
<speed>0.010000</speed>
<extensions>
<speed>0.0</speed>
<temp>0.00</temp>
<bpm>0</bpm>
<rpm>0.00</rpm>
</extensions>
</trkpt>
<trkpt lat="64.310592651" lon="-20.305320740">
<ele>110.003906</ele>
<time>2012-07-19T20:15:46Z</time>
<extensions>
<speed>0.0</speed>
<temp>0.00</temp>
<bpm>0</bpm>
<rpm>0.00</rpm>
</extensions>
</trkpt>
<trkpt lat="64.310592651" lon="-20.305320740">
<ele>110.013672</ele>
<time>2012-07-19T20:15:51Z</time>
<extensions>
<speed>0.0</speed>
<temp>0.00</temp>
<bpm>0</bpm>
<rpm>0.00</rpm>
</extensions>
</trkpt>
<trkpt lat="64.310592651" lon="-20.305320740">
<ele>110.035156</ele>
<time>2012-07-19T20:15:56Z</time>
<extensions>
<speed>0.0</speed>
<temp>0.00</temp>
<bpm>0</bpm>
<rpm>0.00</rpm>
</extensions>
</trkpt>
<trkpt lat="64.310592651" lon="-20.305320740">
<ele>110.044922</ele>
<time>2012-07-19T20:16:01Z</time>
<extensions>
<speed>0.0</speed>
<temp>0.00</temp>
<bpm>0</bpm>
<rpm>0.00</rpm>
</extensions>
</trkpt>
<trkpt lat="64.310592651" lon="-20.305320740">
<ele>110.056641</ele>
<time>2012-07-19T20:16:06Z</time>
<extensions>
<speed>0.0</speed>
<temp>0.00</temp>
<bpm>0</bpm>
<rpm>0.00</rpm>
</extensions>
</trkpt>
<trkpt lat="64.310592651" lon="-20.305320740">
<ele>110.082031</ele>
<time>2012-07-19T20:16:11Z</time>
<extensions>
<speed>0.0</speed>
<temp>0.00</temp>
<bpm>0</bpm>
<rpm>0.00</rpm>
</extensions>
</trkpt>
<trkpt lat="64.310592651" lon="-20.305320740">
<ele>110.121094</ele>
<time>2012-07-19T20:16:16Z</time>
<speed>0.010000</speed>
<extensions>
<speed>0.0</speed>
<temp>0.00</temp>
<bpm>0</bpm>
<rpm>0.00</rpm>
</extensions>
</trkpt>
<trkpt lat="64.310592651" lon="-20.305320740">
<ele>110.142578</ele>
<time>2012-07-19T20:16:21Z</time>
<extensions>
<speed>0.0</speed>
<temp>0.00</temp>
<bpm>0</bpm>
<rpm>0.00</rpm>
</extensions>
</trkpt>
<trkpt lat="64.310592651" lon="-20.305320740">
<ele>110.169922</ele>
<time>2012-07-19T20:16:26Z</time>
<extensions>
<speed>0.0</speed>
<temp>0.00</temp>
<bpm>0</bpm>
<rpm>0.00</rpm>
</extensions>
</trkpt>
<trkpt lat="64.310592651" lon="-20.305320740">
<ele>110.185547</ele>
<time>2012-07-19T20:16:31Z</time>
<extensions>
<speed>0.0</speed>
<temp>0.00</temp>
<bpm>0</bpm>
<rpm>0.00</rpm>
</extensions>
</trkpt>
<trkpt lat="64.310592651" lon="-20.305320740">
<ele>110.201172</ele>
<time>2012-07-19T20:16:36Z</time>
<speed>0.010000</speed>
<extensions>
<speed>0.0</speed>
<temp>0.00</temp>
<bpm>0</bpm>
<rpm>0.00</rpm>
</extensions>
</trkpt>
<trkpt lat="64.310592651" lon="-20.305320740">
<ele>110.214844</ele>
<time>2012-07-19T20:16:41Z</time>
<extensions>
<speed>0.0</speed>
<temp>0.00</temp>
<bpm>0</bpm>
<rpm>0.00</rpm>
</extensions>
</trkpt>
<trkpt lat="64.310592651" lon="-20.305320740">
<ele>110.224609</ele>
<time>2012-07-19T20:16:46Z</time>
<extensions>
<speed>0.0</speed>
<temp>0.00</temp>
<bpm>0</bpm>
<rpm>0.00</rpm>
</extensions>
</trkpt>
<trkpt lat="64.310592651" lon="-20.305320740">
<ele>110.251953</ele>
<time>2012-07-19T20:16:51Z</time>
<speed>0.010000</speed>
<extensions>
<speed>0.0</speed>
<temp>0.00</temp>
<bpm>0</bpm>
<rpm>0.00</rpm>
</extensions>
</trkpt>
<trkpt lat="64.310585022" lon="-20.305320740">
<ele>110.259766</ele>
<time>2012-07-19T20:16:56Z</time>
<extensions>
<speed>0.0</speed>
<temp>0.00</temp>
<bpm>0</bpm>
<rpm>0.00</rpm>
</extensions>
</trkpt>
<trkpt lat="64.310585022" lon="-20.305320740">
<ele>110.273438</ele>
<time>2012-07-19T20:17:01Z</time>
<speed>0.010000</speed>
<extensions>
<speed>0.0</speed>
<temp>0.00</temp>
<bpm>0</bpm>
<rpm>0.00</rpm>
</extensions>
</trkpt>
<trkpt lat="64.310585022" lon="-20.305320740">
<ele>110.273438</ele>
<time>2012-07-19T20:17:06Z</time>
<speed>0.010000</speed>
<extensions>
<speed>0.0</speed>
<temp>0.00</temp>
<bpm>0</bpm>
<rpm>0.00</rpm>
</extensions>
</trkpt>
<trkpt lat="64.310585022" lon="-20.305320740">
<ele>110.287109</ele>
<time>2012-07-19T20:17:11Z</time>
<extensions>
<speed>0.0</speed>
<temp>0.00</temp>
<bpm>0</bpm>
<rpm>0.00</rpm>
</extensions>
</trkpt>
<trkpt lat="64.310592651" lon="-20.305320740">
<ele>110.277344</ele>
<time>2012-07-19T20:17:16Z</time>
<extensions>
<speed>0.0</speed>
<temp>0.00</temp>
<bpm>0</bpm>
<rpm>0.00</rpm>
</extensions>
</trkpt>
<trkpt lat="64.310592651" lon="-20.305320740">
<ele>110.273438</ele>
<time>2012-07-19T20:17:21Z</time>
<extensions>
<speed>0.0</speed>
<temp>0.00</temp>
<bpm>0</bpm>
<rpm>0.00</rpm>
</extensions>
</trkpt>
<trkpt lat="64.310585022" lon="-20.305320740">
<ele>110.263672</ele>
<time>2012-07-19T20:17:26Z</time>
<speed>0.010000</speed>
<extensions>
<speed>0.0</speed>
<temp>0.00</temp>
<bpm>0</bpm>
<rpm>0.00</rpm>
</extensions>
</trkpt>
<trkpt lat="64.310585022" lon="-20.305320740">
<ele>110.263672</ele>
<time>2012-07-19T20:17:31Z</time>
<extensions>
<speed>0.0</speed>
<temp>0.00</temp>
<bpm>0</bpm>
<rpm>0.00</rpm>
</extensions>
</trkpt>
<trkpt lat="64.310585022" lon="-20.305320740">
<ele>110.261719</ele>
<time>2012-07-19T20:17:36Z</time>
<speed>0.010000</speed>
<extensions>
<speed>0.0</speed>
<temp>0.00</temp>
<bpm>0</bpm>
<rpm>0.00</rpm>
</extensions>
</trkpt>
<trkpt lat="64.310585022" lon="-20.305320740">
<ele>110.267578</ele>
<time>2012-07-19T20:17:41Z</time>
<extensions>
<speed>0.0</speed>
<temp>0.00</temp>
<bpm>0</bpm>
<rpm>0.00</rpm>
</extensions>
</trkpt>
<trkpt lat="64.310592651" lon="-20.305320740">
<ele>110.257813</ele>
<time>2012-07-19T20:17:46Z</time>
<extensions>
<speed>0.0</speed>
<temp>0.00</temp>
<bpm>0</bpm>
<rpm>0.00</rpm>
</extensions>
</trkpt>
<trkpt lat="64.310592651" lon="-20.305320740">
<ele>110.259766</ele>
<time>2012-07-19T20:17:51Z</time>
<speed>0.020000</speed>
<extensions>
<speed>0.0</speed>
<temp>0.00</temp>
<bpm>0</bpm>
<rpm>0.00</rpm>
</extensions>
</trkpt>
<trkpt lat="64.310592651" lon="-20.305320740">
<ele>110.246094</ele>
<time>2012-07-19T20:17:56Z</time>
<speed>0.010000</speed>
<extensions>
<speed>0.0</speed>
<temp>0.00</temp>
<bpm>0</bpm>
<rpm>0.00</rpm>
</extensions>
</trkpt>
<trkpt lat="64.310592651" lon="-20.305320740">
<ele>110.232422</ele>
<time>2012-07-19T20:18:01Z</time>
<extensions>
<speed>0.0</speed>
<temp>0.00</temp>
<bpm>0</bpm>
<rpm>0.00</rpm>
</extensions>
</trkpt>
<trkpt lat="64.310592651" lon="-20.305320740">
<ele>110.216797</ele>
<time>2012-07-19T20:18:06Z</time>
<extensions>
<speed>0.0</speed>
<temp>0.00</temp>
<bpm>0</bpm>
<rpm>0.00</rpm>
</extensions>
</trkpt>
<trkpt lat="64.310592651" lon="-20.305318832">
<ele>110.201172</ele>
<time>2012-07-19T20:18:11Z</time>
<extensions>
<speed>0.0</speed>
<temp>0.00</temp>
<bpm>0</bpm>
<rpm>0.00</rpm>
</extensions>
</trkpt>
<trkpt lat="64.310592651" lon="-20.305318832">
<ele>110.205078</ele>
<time>2012-07-19T20:18:16Z</time>
<speed>0.010000</speed>
<extensions>
<speed>0.0</speed>
<temp>0.00</temp>
<bpm>0</bpm>
<rpm>0.00</rpm>
</extensions>
</trkpt>
<trkpt lat="64.310592651" lon="-20.305318832">
<ele>110.205078</ele>
<time>2012-07-19T20:18:21Z</time>
<extensions>
<speed>0.0</speed>
<temp>0.00</temp>
<bpm>0</bpm>
<rpm>0.00</rpm>
</extensions>
</trkpt>
<trkpt lat="64.310592651" lon="-20.305318832">
<ele>110.212891</ele>
<time>2012-07-19T20:18:26Z</time>
<extensions>
<speed>0.0</speed>
<temp>0.00</temp>
<bpm>0</bpm>
<rpm>0.00</rpm>
</extensions>
</trkpt>
<trkpt lat="64.310592651" lon="-20.305318832">
<ele>110.210938</ele>
<time>2012-07-19T20:18:31Z</time>
<extensions>
<speed>0.0</speed>
<temp>0.00</temp>
<bpm>0</bpm>
<rpm>0.00</rpm>
</extensions>
</trkpt>
<trkpt lat="64.310592651" lon="-20.305318832">
<ele>110.224609</ele>
<time>2012-07-19T20:18:36Z</time>
<speed>0.020000</speed>
<extensions>
<speed>0.0</speed>
<temp>0.00</temp>
<bpm>0</bpm>
<rpm>0.00</rpm>
</extensions>
</trkpt>
<trkpt lat="64.310592651" lon="-20.305318832">
<ele>110.224609</ele>
<time>2012-07-19T20:18:41Z</time>
<extensions>
<speed>0.0</speed>
<temp>0.00</temp>
<bpm>0</bpm>
<rpm>0.00</rpm>
</extensions>
</trkpt>
<trkpt lat="64.310592651" lon="-20.305318832">
<ele>110.218750</ele>
<time>2012-07-19T20:18:46Z</time>
<speed>0.020000</speed>
<extensions>
<speed>0.0</speed>
<temp>0.00</temp>
<bpm>0</bpm>
<rpm>0.00</rpm>
</extensions>
</trkpt>
<trkpt lat="64.310592651" lon="-20.305318832">
<ele>110.216797</ele>
<time>2012-07-19T20:18:51Z</time>
<extensions>
<speed>0.0</speed>
<temp>0.00</temp>
<bpm>0</bpm>
<rpm>0.00</rpm>
</extensions>
</trkpt>
<trkpt lat="64.310592651" lon="-20.305318832">
<ele>110.212891</ele>
<time>2012-07-19T20:18:56Z</time>
<extensions>
<speed>0.0</speed>
<temp>0.00</temp>
<bpm>0</bpm>
<rpm>0.00</rpm>
</extensions>
</trkpt>
<trkpt lat="64.310585022" lon="-20.305316925">
<ele>110.216797</ele>
<time>2012-07-19T20:19:01Z</time>
<extensions>
<speed>0.0</speed>
<temp>0.00</temp>
<bpm>0</bpm>
<rpm>0.00</rpm>
</extensions>
</trkpt>
<trkpt lat="64.310585022" lon="-20.305316925">
<ele>110.230469</ele>
<time>2012-07-19T20:19:06Z</time>
<speed>0.010000</speed>
<extensions>
<speed>0.0</speed>
<temp>0.00</temp>
<bpm>0</bpm>
<rpm>0.00</rpm>
</extensions>
</trkpt>
<trkpt lat="64.310585022" lon="-20.305316925">
<ele>110.240234</ele>
<time>2012-07-19T20:19:11Z</time>
<extensions>
<speed>0.0</speed>
<temp>0.00</temp>
<bpm>0</bpm>
<rpm>0.00</rpm>
</extensions>
</trkpt>
<trkpt lat="64.310585022" lon="-20.305318832">
<ele>110.250000</ele>
<time>2012-07-19T20:19:16Z</time>
<extensions>
<speed>0.0</speed>
<temp>0.00</temp>
<bpm>0</bpm>
<rpm>0.00</rpm>
</extensions>
</trkpt>
<trkpt lat="64.310585022" lon="-20.305318832">
<ele>110.253906</ele>
<time>2012-07-19T20:19:21Z</time>
<speed>0.020000</speed>
<extensions>
<speed>0.0</speed>
<temp>0.00</temp>
<bpm>0</bpm>
<rpm>0.00</rpm>
</extensions>
</trkpt>
<trkpt lat="64.310585022" lon="-20.305318832">
<ele>110.271484</ele>
<time>2012-07-19T20:19:26Z</time>
<extensions>
<speed>0.0</speed>
<temp>0.00</temp>
<bpm>0</bpm>
<rpm>0.00</rpm>
</extensions>
</trkpt>
<trkpt lat="64.310592651" lon="-20.305318832">
<ele>110.283203</ele>
<time>2012-07-19T20:19:31Z</time>
<extensions>
<speed>0.0</speed>
<temp>0.00</temp>
<bpm>0</bpm>
<rpm>0.00</rpm>
</extensions>
</trkpt>
<trkpt lat="64.310592651" lon="-20.305318832">
<ele>110.304688</ele>
<time>2012-07-19T20:19:36Z</time>
<extensions>
<speed>0.0</speed>
<temp>0.00</temp>
<bpm>0</bpm>
<rpm>0.00</rpm>
</extensions>
</trkpt>
<trkpt lat="64.310592651" lon="-20.305318832">
<ele>110.318359</ele>
<time>2012-07-19T20:19:41Z</time>
<speed>0.020000</speed>
<extensions>
<speed>0.0</speed>
<temp>0.00</temp>
<bpm>0</bpm>
<rpm>0.00</rpm>
</extensions>
</trkpt>
<trkpt lat="64.310592651" lon="-20.305318832">
<ele>110.310547</ele>
<time>2012-07-19T20:19:46Z</time>
<speed>0.010000</speed>
<extensions>
<speed>0.0</speed>
<temp>0.00</temp>
<bpm>0</bpm>
<rpm>0.00</rpm>
</extensions>
</trkpt>
<trkpt lat="64.310592651" lon="-20.305318832">
<ele>110.291016</ele>
<time>2012-07-19T20:19:51Z</time>
<speed>0.010000</speed>
<extensions>
<speed>0.0</speed>
<temp>0.00</temp>
<bpm>0</bpm>
<rpm>0.00</rpm>
</extensions>
</trkpt>
<trkpt lat="64.310592651" lon="-20.305318832">
<ele>110.265625</ele>
<time>2012-07-19T20:19:56Z</time>
<extensions>
<speed>0.0</speed>
<temp>0.00</temp>
<bpm>0</bpm>
<rpm>0.00</rpm>
</extensions>
</trkpt>
<trkpt lat="64.310592651" lon="-20.305318832">
<ele>110.250000</ele>
<time>2012-07-19T20:20:01Z</time>
<extensions>
<speed>0.0</speed>
<temp>0.00</temp>
<bpm>0</bpm>
<rpm>0.00</rpm>
</extensions>
</trkpt>
<trkpt lat="64.310592651" lon="-20.305318832">
<ele>110.226563</ele>
<time>2012-07-19T20:20:06Z</time>
<extensions>
<speed>0.0</speed>
<temp>0.00</temp>
<bpm>0</bpm>
<rpm>0.00</rpm>
</extensions>
</trkpt>
<trkpt lat="64.310592651" lon="-20.305318832">
<ele>110.216797</ele>
<time>2012-07-19T20:20:11Z</time>
<extensions>
<speed>0.0</speed>
<temp>0.00</temp>
<bpm>0</bpm>
<rpm>0.00</rpm>
</extensions>
</trkpt>
<trkpt lat="64.310592651" lon="-20.305318832">
<ele>110.205078</ele>
<time>2012-07-19T20:20:16Z</time>
<speed>0.010000</speed>
<extensions>
<speed>0.0</speed>
<temp>0.00</temp>
<bpm>0</bpm>
<rpm>0.00</rpm>
</extensions>
</trkpt>
<trkpt lat="64.310592651" lon="-20.305318832">
<ele>110.203125</ele>
<time>2012-07-19T20:20:21Z</time>
<speed>0.010000</speed>
<extensions>
<speed>0.0</speed>
<temp>0.00</temp>
<bpm>0</bpm>
<rpm>0.00</rpm>
</extensions>
</trkpt>
<trkpt lat="64.310592651" lon="-20.305316925">
<ele>110.199219</ele>
<time>2012-07-19T20:20:26Z</time>
<speed>0.020000</speed>
<extensions>
<speed>0.0</speed>
<temp>0.00</temp>
<bpm>0</bpm>
<rpm>0.00</rpm>
</extensions>
</trkpt>
<trkpt lat="64.310592651" lon="-20.305316925">
<ele>110.201172</ele>
<time>2012-07-19T20:20:31Z</time>
<speed>0.010000</speed>
<extensions>
<speed>0.0</speed>
<temp>0.00</temp>
<bpm>0</bpm>
<rpm>0.00</rpm>
</extensions>
</trkpt>
<trkpt lat="64.310585022" lon="-20.305316925">
<ele>110.203125</ele>
<time>2012-07-19T20:20:36Z</time>
<speed>0.020000</speed>
<extensions>
<speed>0.0</speed>
<temp>0.00</temp>
<bpm>0</bpm>
<rpm>0.00</rpm>
</extensions>
</trkpt>
<trkpt lat="64.310585022" lon="-20.305316925">
<ele>110.220703</ele>
<time>2012-07-19T20:20:41Z</time>
<extensions>
<speed>0.0</speed>
<temp>0.00</temp>
<bpm>0</bpm>
<rpm>0.00</rpm>
</extensions>
</trkpt>
<trkpt lat="64.310585022" lon="-20.305316925">
<ele>110.248047</ele>
<time>2012-07-19T20:20:46Z</time>
<speed>0.010000</speed>
<extensions>
<speed>0.0</speed>
<temp>0.00</temp>
<bpm>0</bpm>
<rpm>0.00</rpm>
</extensions>
</trkpt>
<trkpt lat="64.310585022" lon="-20.305316925">
<ele>110.271484</ele>
<time>2012-07-19T20:20:51Z</time>
<speed>0.020000</speed>
<extensions>
<speed>0.0</speed>
<temp>0.00</temp>
<bpm>0</bpm>
<rpm>0.00</rpm>
</extensions>
</trkpt>
<trkpt lat="64.310585022" lon="-20.305316925">
<ele>110.285156</ele>
<time>2012-07-19T20:20:56Z</time>
<speed>0.010000</speed>
<extensions>
<speed>0.0</speed>
<temp>0.00</temp>
<bpm>0</bpm>
<rpm>0.00</rpm>
</extensions>
</trkpt>
<trkpt lat="64.310585022" lon="-20.305316925">
<ele>110.298828</ele>
<time>2012-07-19T20:21:01Z</time>
<extensions>
<speed>0.0</speed>
<temp>0.00</temp>
<bpm>0</bpm>
<rpm>0.00</rpm>
</extensions>
</trkpt>
<trkpt lat="64.310585022" lon="-20.305316925">
<ele>110.316406</ele>
<time>2012-07-19T20:21:06Z</time>
<speed>0.010000</speed>
<extensions>
<speed>0.0</speed>
<temp>0.00</temp>
<bpm>0</bpm>
<rpm>0.00</rpm>
</extensions>
</trkpt>
<trkpt lat="64.310585022" lon="-20.305316925">
<ele>110.324219</ele>
<time>2012-07-19T20:21:11Z</time>
<extensions>
<speed>0.0</speed>
<temp>0.00</temp>
<bpm>0</bpm>
<rpm>0.00</rpm>
</extensions>
</trkpt>
<trkpt lat="64.310585022" lon="-20.305316925">
<ele>110.341797</ele>
<time>2012-07-19T20:21:16Z</time>
<extensions>
<speed>0.0</speed>
<temp>0.00</temp>
<bpm>0</bpm>
<rpm>0.00</rpm>
</extensions>
</trkpt>
<trkpt lat="64.310585022" lon="-20.305316925">
<ele>110.343750</ele>
<time>2012-07-19T20:21:21Z</time>
<extensions>
<speed>0.0</speed>
<temp>0.00</temp>
<bpm>0</bpm>
<rpm>0.00</rpm>
</extensions>
</trkpt>
<trkpt lat="64.310585022" lon="-20.305316925">
<ele>110.345703</ele>
<time>2012-07-19T20:21:26Z</time>
<extensions>
<speed>0.0</speed>
<temp>0.00</temp>
<bpm>0</bpm>
<rpm>0.00</rpm>
</extensions>
</trkpt>
<trkpt lat="64.310585022" lon="-20.305316925">
<ele>110.345703</ele>
<time>2012-07-19T20:21:31Z</time>
<extensions>
<speed>0.0</speed>
<temp>0.00</temp>
<bpm>0</bpm>
<rpm>0.00</rpm>
</extensions>
</trkpt>
<trkpt lat="64.310585022" lon="-20.305316925">
<ele>110.339844</ele>
<time>2012-07-19T20:21:36Z</time>
<speed>0.010000</speed>
<extensions>
<speed>0.0</speed>
<temp>0.00</temp>
<bpm>0</bpm>
<rpm>0.00</rpm>
</extensions>
</trkpt>
<trkpt lat="64.310585022" lon="-20.305316925">
<ele>110.347656</ele>
<time>2012-07-19T20:21:41Z</time>
<extensions>
<speed>0.0</speed>
<temp>0.00</temp>
<bpm>0</bpm>
<rpm>0.00</rpm>
</extensions>
</trkpt>
<trkpt lat="64.310585022" lon="-20.305316925">
<ele>110.351563</ele>
<time>2012-07-19T20:21:46Z</time>
<extensions>
<speed>0.0</speed>
<temp>0.00</temp>
<bpm>0</bpm>
<rpm>0.00</rpm>
</extensions>
</trkpt>
<trkpt lat="64.310585022" lon="-20.305316925">
<ele>110.351563</ele>
<time>2012-07-19T20:21:51Z</time>
<extensions>
<speed>0.0</speed>
<temp>0.00</temp>
<bpm>0</bpm>
<rpm>0.00</rpm>
</extensions>
</trkpt>
<trkpt lat="64.310585022" lon="-20.305316925">
<ele>110.359375</ele>
<time>2012-07-19T20:21:56Z</time>
<extensions>
<speed>0.0</speed>
<temp>0.00</temp>
<bpm>0</bpm>
<rpm>0.00</rpm>
</extensions>
</trkpt>
<trkpt lat="64.310585022" lon="-20.305316925">
<ele>110.367188</ele>
<time>2012-07-19T20:22:01Z</time>
<extensions>
<speed>0.0</speed>
<temp>0.00</temp>
<bpm>0</bpm>
<rpm>0.00</rpm>
</extensions>
</trkpt>
<trkpt lat="64.310585022" lon="-20.305316925">
<ele>110.380859</ele>
<time>2012-07-19T20:22:06Z</time>
<extensions>
<speed>0.0</speed>
<temp>0.00</temp>
<bpm>0</bpm>
<rpm>0.00</rpm>
</extensions>
</trkpt>
<trkpt lat="64.310585022" lon="-20.305316925">
<ele>110.400391</ele>
<time>2012-07-19T20:22:11Z</time>
<extensions>
<speed>0.0</speed>
<temp>0.00</temp>
<bpm>0</bpm>
<rpm>0.00</rpm>
</extensions>
</trkpt>
<trkpt lat="64.310585022" lon="-20.305316925">
<ele>110.408203</ele>
<time>2012-07-19T20:22:16Z</time>
<extensions>
<speed>0.0</speed>
<temp>0.00</temp>
<bpm>0</bpm>
<rpm>0.00</rpm>
</extensions>
</trkpt>
<trkpt lat="64.310585022" lon="-20.305316925">
<ele>110.414063</ele>
<time>2012-07-19T20:22:21Z</time>
<speed>0.010000</speed>
<extensions>
<speed>0.0</speed>
<temp>0.00</temp>
<bpm>0</bpm>
<rpm>0.00</rpm>
</extensions>
</trkpt>
<trkpt lat="64.310585022" lon="-20.305316925">
<ele>110.431641</ele>
<time>2012-07-19T20:22:26Z</time>
<speed>0.010000</speed>
<extensions>
<speed>0.0</speed>
<temp>0.00</temp>
<bpm>0</bpm>
<rpm>0.00</rpm>
</extensions>
</trkpt>
<trkpt lat="64.310585022" lon="-20.305318832">
<ele>110.419922</ele>
<time>2012-07-19T20:22:31Z</time>
<extensions>
<speed>0.0</speed>
<temp>0.00</temp>
<bpm>0</bpm>
<rpm>0.00</rpm>
</extensions>
</trkpt>
<trkpt lat="64.310585022" lon="-20.305318832">
<ele>110.427734</ele>
<time>2012-07-19T20:22:36Z</time>
<speed>0.020000</speed>
<extensions>
<speed>0.0</speed>
<temp>0.00</temp>
<bpm>0</bpm>
<rpm>0.00</rpm>
</extensions>
</trkpt>
<trkpt lat="64.310585022" lon="-20.305318832">
<ele>110.416016</ele>
<time>2012-07-19T20:22:41Z</time>
<speed>0.010000</speed>
<extensions>
<speed>0.0</speed>
<temp>0.00</temp>
<bpm>0</bpm>
<rpm>0.00</rpm>
</extensions>
</trkpt>
<trkpt lat="64.310585022" lon="-20.305316925">
<ele>110.408203</ele>
<time>2012-07-19T20:22:46Z</time>
<speed>0.020000</speed>
<extensions>
<speed>0.0</speed>
<temp>0.00</temp>
<bpm>0</bpm>
<rpm>0.00</rpm>
</extensions>
</trkpt>
<trkpt lat="64.310585022" lon="-20.305316925">
<ele>110.410156</ele>
<time>2012-07-19T20:22:51Z</time>
<speed>0.010000</speed>
<extensions>
<speed>0.0</speed>
<temp>0.00</temp>
<bpm>0</bpm>
<rpm>0.00</rpm>
</extensions>
</trkpt>
<trkpt lat="64.310585022" lon="-20.305316925">
<ele>110.431641</ele>
<time>2012-07-19T20:22:56Z</time>
<speed>0.020000</speed>
<extensions>
<speed>0.0</speed>
<temp>0.00</temp>
<bpm>0</bpm>
<rpm>0.00</rpm>
</extensions>
</trkpt>
<trkpt lat="64.310585022" lon="-20.305316925">
<ele>110.447266</ele>
<time>2012-07-19T20:23:01Z</time>
<extensions>
<speed>0.0</speed>
<temp>0.00</temp>
<bpm>0</bpm>
<rpm>0.00</rpm>
</extensions>
</trkpt>
<trkpt lat="64.310585022" lon="-20.305316925">
<ele>110.458984</ele>
<time>2012-07-19T20:23:06Z</time>
<extensions>
<speed>0.0</speed>
<temp>0.00</temp>
<bpm>0</bpm>
<rpm>0.00</rpm>
</extensions>
</trkpt>
<trkpt lat="64.310585022" lon="-20.305316925">
<ele>110.474609</ele>
<time>2012-07-19T20:23:11Z</time>
<speed>0.010000</speed>
<extensions>
<speed>0.0</speed>
<temp>0.00</temp>
<bpm>0</bpm>
<rpm>0.00</rpm>
</extensions>
</trkpt>
<trkpt lat="64.310585022" lon="-20.305316925">
<ele>110.503906</ele>
<time>2012-07-19T20:23:16Z</time>
<extensions>
<speed>0.0</speed>
<temp>0.00</temp>
<bpm>0</bpm>
<rpm>0.00</rpm>
</extensions>
</trkpt>
<trkpt lat="64.310585022" lon="-20.305316925">
<ele>110.505859</ele>
<time>2012-07-19T20:23:21Z</time>
<speed>0.010000</speed>
<extensions>
<speed>0.0</speed>
<temp>0.00</temp>
<bpm>0</bpm>
<rpm>0.00</rpm>
</extensions>
</trkpt>
<trkpt lat="64.310585022" lon="-20.305316925">
<ele>110.511719</ele>
<time>2012-07-19T20:23:26Z</time>
<speed>0.010000</speed>
<extensions>
<speed>0.0</speed>
<temp>0.00</temp>
<bpm>0</bpm>
<rpm>0.00</rpm>
</extensions>
</trkpt>
<trkpt lat="64.310585022" lon="-20.305316925">
<ele>110.515625</ele>
<time>2012-07-19T20:23:31Z</time>
<extensions>
<speed>0.0</speed>
<temp>0.00</temp>
<bpm>0</bpm>
<rpm>0.00</rpm>
</extensions>
</trkpt>
<trkpt lat="64.310585022" lon="-20.305316925">
<ele>110.527344</ele>
<time>2012-07-19T20:23:36Z</time>
<extensions>
<speed>0.0</speed>
<temp>0.00</temp>
<bpm>0</bpm>
<rpm>0.00</rpm>
</extensions>
</trkpt>
<trkpt lat="64.310585022" lon="-20.305316925">
<ele>110.535156</ele>
<time>2012-07-19T20:23:41Z</time>
<extensions>
<speed>0.0</speed>
<temp>0.00</temp>
<bpm>0</bpm>
<rpm>0.00</rpm>
</extensions>
</trkpt>
<trkpt lat="64.310585022" lon="-20.305316925">
<ele>110.519531</ele>
<time>2012-07-19T20:23:46Z</time>
<extensions>
<speed>0.0</speed>
<temp>0.00</temp>
<bpm>0</bpm>
<rpm>0.00</rpm>
</extensions>
</trkpt>
<trkpt lat="64.310585022" lon="-20.305316925">
<ele>110.515625</ele>
<time>2012-07-19T20:23:51Z</time>
<extensions>
<speed>0.0</speed>
<temp>0.00</temp>
<bpm>0</bpm>
<rpm>0.00</rpm>
</extensions>
</trkpt>
<trkpt lat="64.310585022" lon="-20.305316925">
<ele>110.519531</ele>
<time>2012-07-19T20:23:56Z</time>
<extensions>
<speed>0.0</speed>
<temp>0.00</temp>
<bpm>0</bpm>
<rpm>0.00</rpm>
</extensions>
</trkpt>
<trkpt lat="64.310585022" lon="-20.305316925">
<ele>110.515625</ele>
<time>2012-07-19T20:24:01Z</time>
<extensions>
<speed>0.0</speed>
<temp>0.00</temp>
<bpm>0</bpm>
<rpm>0.00</rpm>
</extensions>
</trkpt>
<trkpt lat="64.310585022" lon="-20.305316925">
<ele>110.515625</ele>
<time>2012-07-19T20:24:06Z</time>
<speed>0.020000</speed>
<extensions>
<speed>0.0</speed>
<temp>0.00</temp>
<bpm>0</bpm>
<rpm>0.00</rpm>
</extensions>
</trkpt>
<trkpt lat="64.310585022" lon="-20.305316925">
<ele>110.509766</ele>
<time>2012-07-19T20:24:11Z</time>
<extensions>
<speed>0.0</speed>
<temp>0.00</temp>
<bpm>0</bpm>
<rpm>0.00</rpm>
</extensions>
</trkpt>
<trkpt lat="64.310585022" lon="-20.305316925">
<ele>110.484375</ele>
<time>2012-07-19T20:24:16Z</time>
<speed>0.010000</speed>
<extensions>
<speed>0.0</speed>
<temp>0.00</temp>
<bpm>0</bpm>
<rpm>0.00</rpm>
</extensions>
</trkpt>
<trkpt lat="64.310585022" lon="-20.305316925">
<ele>110.466797</ele>
<time>2012-07-19T20:24:21Z</time>
<extensions>
<speed>0.0</speed>
<temp>0.00</temp>
<bpm>0</bpm>
<rpm>0.00</rpm>
</extensions>
</trkpt>
<trkpt lat="64.310585022" lon="-20.305315018">
<ele>110.458984</ele>
<time>2012-07-19T20:24:26Z</time>
<extensions>
<speed>0.0</speed>
<temp>0.00</temp>
<bpm>0</bpm>
<rpm>0.00</rpm>
</extensions>
</trkpt>
<trkpt lat="64.310585022" lon="-20.305316925">
<ele>110.458984</ele>
<time>2012-07-19T20:24:31Z</time>
<speed>0.010000</speed>
<extensions>
<speed>0.0</speed>
<temp>0.00</temp>
<bpm>0</bpm>
<rpm>0.00</rpm>
</extensions>
</trkpt>
<trkpt lat="64.310585022" lon="-20.305315018">
<ele>110.445313</ele>
<time>2012-07-19T20:24:36Z</time>
<speed>0.010000</speed>
<extensions>
<speed>0.0</speed>
<temp>0.00</temp>
<bpm>0</bpm>
<rpm>0.00</rpm>
</extensions>
</trkpt>
<trkpt lat="64.310585022" lon="-20.305315018">
<ele>110.447266</ele>
<time>2012-07-19T20:24:41Z</time>
<speed>0.020000</speed>
<extensions>
<speed>0.0</speed>
<temp>0.00</temp>
<bpm>0</bpm>
<rpm>0.00</rpm>
</extensions>
</trkpt>
<trkpt lat="64.310585022" lon="-20.305315018">
<ele>110.447266</ele>
<time>2012-07-19T20:24:46Z</time>
<speed>0.010000</speed>
<extensions>
<speed>0.0</speed>
<temp>0.00</temp>
<bpm>0</bpm>
<rpm>0.00</rpm>
</extensions>
</trkpt>
<trkpt lat="64.310585022" lon="-20.305315018">
<ele>110.464844</ele>
<time>2012-07-19T20:24:51Z</time>
<speed>0.030000</speed>
<extensions>
<speed>0.0</speed>
<temp>0.00</temp>
<bpm>0</bpm>
<rpm>0.00</rpm>
</extensions>
</trkpt>
<trkpt lat="64.310577393" lon="-20.305315018">
<ele>110.490234</ele>
<time>2012-07-19T20:24:56Z</time>
<speed>0.010000</speed>
<extensions>
<speed>0.0</speed>
<temp>0.00</temp>
<bpm>0</bpm>
<rpm>0.00</rpm>
</extensions>
</trkpt>
<trkpt lat="64.310577393" lon="-20.305316925">
<ele>110.494141</ele>
<time>2012-07-19T20:25:01Z</time>
<speed>0.020000</speed>
<extensions>
<speed>0.0</speed>
<temp>0.00</temp>
<bpm>0</bpm>
<rpm>0.00</rpm>
</extensions>
</trkpt>
<trkpt lat="64.310577393" lon="-20.305316925">
<ele>110.503906</ele>
<time>2012-07-19T20:25:06Z</time>
<extensions>
<speed>0.0</speed>
<temp>0.00</temp>
<bpm>0</bpm>
<rpm>0.00</rpm>
</extensions>
</trkpt>
<trkpt lat="64.310577393" lon="-20.305316925">
<ele>110.505859</ele>
<time>2012-07-19T20:25:11Z</time>
<speed>0.010000</speed>
<extensions>
<speed>0.0</speed>
<temp>0.00</temp>
<bpm>0</bpm>
<rpm>0.00</rpm>
</extensions>
</trkpt>
<trkpt lat="64.310585022" lon="-20.305316925">
<ele>110.505859</ele>
<time>2012-07-19T20:25:16Z</time>
<extensions>
<speed>0.0</speed>
<temp>0.00</temp>
<bpm>0</bpm>
<rpm>0.00</rpm>
</extensions>
</trkpt>
<trkpt lat="64.310585022" lon="-20.305316925">
<ele>110.500000</ele>
<time>2012-07-19T20:25:21Z</time>
<speed>0.010000</speed>
<extensions>
<speed>0.0</speed>
<temp>0.00</temp>
<bpm>0</bpm>
<rpm>0.00</rpm>
</extensions>
</trkpt>
<trkpt lat="64.310585022" lon="-20.305316925">
<ele>110.490234</ele>
<time>2012-07-19T20:25:26Z</time>
<extensions>
<speed>0.0</speed>
<temp>0.00</temp>
<bpm>0</bpm>
<rpm>0.00</rpm>
</extensions>
</trkpt>
<trkpt lat="64.310585022" lon="-20.305316925">
<ele>110.490234</ele>
<time>2012-07-19T20:25:31Z</time>
<speed>0.010000</speed>
<extensions>
<speed>0.0</speed>
<temp>0.00</temp>
<bpm>0</bpm>
<rpm>0.00</rpm>
</extensions>
</trkpt>
<trkpt lat="64.310585022" lon="-20.305316925">
<ele>110.509766</ele>
<time>2012-07-19T20:25:36Z</time>
<extensions>
<speed>0.0</speed>
<temp>0.00</temp>
<bpm>0</bpm>
<rpm>0.00</rpm>
</extensions>
</trkpt>
<trkpt lat="64.310585022" lon="-20.305316925">
<ele>110.513672</ele>
<time>2012-07-19T20:25:41Z</time>
<extensions>
<speed>0.0</speed>
<temp>0.00</temp>
<bpm>0</bpm>
<rpm>0.00</rpm>
</extensions>
</trkpt>
<trkpt lat="64.310585022" lon="-20.305316925">
<ele>110.498047</ele>
<time>2012-07-19T20:25:46Z</time>
<extensions>
<speed>0.0</speed>
<temp>0.00</temp>
<bpm>0</bpm>
<rpm>0.00</rpm>
</extensions>
</trkpt>
<trkpt lat="64.310585022" lon="-20.305316925">
<ele>110.513672</ele>
<time>2012-07-19T20:25:51Z</time>
<speed>0.010000</speed>
<extensions>
<speed>0.0</speed>
<temp>0.00</temp>
<bpm>0</bpm>
<rpm>0.00</rpm>
</extensions>
</trkpt>
<trkpt lat="64.310585022" lon="-20.305316925">
<ele>110.531250</ele>
<time>2012-07-19T20:25:56Z</time>
<speed>0.020000</speed>
<extensions>
<speed>0.0</speed>
<temp>0.00</temp>
<bpm>0</bpm>
<rpm>0.00</rpm>
</extensions>
</trkpt>
<trkpt lat="64.310585022" lon="-20.305315018">
<ele>110.548828</ele>
<time>2012-07-19T20:26:01Z</time>
<speed>0.010000</speed>
<extensions>
<speed>0.0</speed>
<temp>0.00</temp>
<bpm>0</bpm>
<rpm>0.00</rpm>
</extensions>
</trkpt>
<trkpt lat="64.310585022" lon="-20.305315018">
<ele>110.560547</ele>
<time>2012-07-19T20:26:06Z</time>
<extensions>
<speed>0.0</speed>
<temp>0.00</temp>
<bpm>0</bpm>
<rpm>0.00</rpm>
</extensions>
</trkpt>
<trkpt lat="64.310585022" lon="-20.305315018">
<ele>110.550781</ele>
<time>2012-07-19T20:26:11Z</time>
<speed>0.020000</speed>
<extensions>
<speed>0.0</speed>
<temp>0.00</temp>
<bpm>0</bpm>
<rpm>0.00</rpm>
</extensions>
</trkpt>
<trkpt lat="64.310585022" lon="-20.305315018">
<ele>110.542969</ele>
<time>2012-07-19T20:26:16Z</time>
<speed>0.010000</speed>
<extensions>
<speed>0.0</speed>
<temp>0.00</temp>
<bpm>0</bpm>
<rpm>0.00</rpm>
</extensions>
</trkpt>
<trkpt lat="64.310585022" lon="-20.305315018">
<ele>110.558594</ele>
<time>2012-07-19T20:26:21Z</time>
<extensions>
<speed>0.0</speed>
<temp>0.00</temp>
<bpm>0</bpm>
<rpm>0.00</rpm>
</extensions>
</trkpt>
<trkpt lat="64.310585022" lon="-20.305315018">
<ele>110.587891</ele>
<time>2012-07-19T20:26:26Z</time>
<extensions>
<speed>0.0</speed>
<temp>0.00</temp>
<bpm>0</bpm>
<rpm>0.00</rpm>
</extensions>
</trkpt>
<trkpt lat="64.310585022" lon="-20.305315018">
<ele>110.638672</ele>
<time>2012-07-19T20:26:31Z</time>
<speed>0.020000</speed>
<extensions>
<speed>0.0</speed>
<temp>0.00</temp>
<bpm>0</bpm>
<rpm>0.00</rpm>
</extensions>
</trkpt>
<trkpt lat="64.310585022" lon="-20.305315018">
<ele>110.683594</ele>
<time>2012-07-19T20:26:36Z</time>
<extensions>
<speed>0.0</speed>
<temp>0.00</temp>
<bpm>0</bpm>
<rpm>0.00</rpm>
</extensions>
</trkpt>
<trkpt lat="64.310585022" lon="-20.305315018">
<ele>110.701172</ele>
<time>2012-07-19T20:26:41Z</time>
<extensions>
<speed>0.0</speed>
<temp>0.00</temp>
<bpm>0</bpm>
<rpm>0.00</rpm>
</extensions>
</trkpt>
<trkpt lat="64.310585022" lon="-20.305315018">
<ele>110.671875</ele>
<time>2012-07-19T20:26:46Z</time>
<speed>0.010000</speed>
<extensions>
<speed>0.0</speed>
<temp>0.00</temp>
<bpm>0</bpm>
<rpm>0.00</rpm>
</extensions>
</trkpt>
<trkpt lat="64.310585022" lon="-20.305315018">
<ele>110.664063</ele>
<time>2012-07-19T20:26:51Z</time>
<speed>0.010000</speed>
<extensions>
<speed>0.0</speed>
<temp>0.00</temp>
<bpm>0</bpm>
<rpm>0.00</rpm>
</extensions>
</trkpt>
<trkpt lat="64.310585022" lon="-20.305315018">
<ele>110.679688</ele>
<time>2012-07-19T20:26:56Z</time>
<extensions>
<speed>0.0</speed>
<temp>0.00</temp>
<bpm>0</bpm>
<rpm>0.00</rpm>
</extensions>
</trkpt>
<trkpt lat="64.310585022" lon="-20.305315018">
<ele>110.677734</ele>
<time>2012-07-19T20:27:01Z</time>
<speed>0.010000</speed>
<extensions>
<speed>0.0</speed>
<temp>0.00</temp>
<bpm>0</bpm>
<rpm>0.00</rpm>
</extensions>
</trkpt>
<trkpt lat="64.310585022" lon="-20.305315018">
<ele>110.697266</ele>
<time>2012-07-19T20:27:06Z</time>
<extensions>
<speed>0.0</speed>
<temp>0.00</temp>
<bpm>0</bpm>
<rpm>0.00</rpm>
</extensions>
</trkpt>
<trkpt lat="64.310585022" lon="-20.305313110">
<ele>110.742188</ele>
<time>2012-07-19T20:27:11Z</time>
<speed>0.030000</speed>
<extensions>
<speed>0.0</speed>
<temp>0.00</temp>
<bpm>0</bpm>
<rpm>0.00</rpm>
</extensions>
</trkpt>
<trkpt lat="64.310585022" lon="-20.305313110">
<ele>110.730469</ele>
<time>2012-07-19T20:27:16Z</time>
<extensions>
<speed>0.0</speed>
<temp>0.00</temp>
<bpm>0</bpm>
<rpm>0.00</rpm>
</extensions>
</trkpt>
<trkpt lat="64.310585022" lon="-20.305313110">
<ele>110.763672</ele>
<time>2012-07-19T20:27:21Z</time>
<extensions>
<speed>0.0</speed>
<temp>0.00</temp>
<bpm>0</bpm>
<rpm>0.00</rpm>
</extensions>
</trkpt>
<trkpt lat="64.310585022" lon="-20.305313110">
<ele>110.783203</ele>
<time>2012-07-19T20:27:26Z</time>
<speed>0.010000</speed>
<extensions>
<speed>0.0</speed>
<temp>0.00</temp>
<bpm>0</bpm>
<rpm>0.00</rpm>
</extensions>
</trkpt>
<trkpt lat="64.310585022" lon="-20.305313110">
<ele>110.816406</ele>
<time>2012-07-19T20:27:31Z</time>
<speed>0.030000</speed>
<extensions>
<speed>0.0</speed>
<temp>0.00</temp>
<bpm>0</bpm>
<rpm>0.00</rpm>
</extensions>
</trkpt>
<trkpt lat="64.310577393" lon="-20.305313110">
<ele>110.839844</ele>
<time>2012-07-19T20:27:36Z</time>
<speed>0.010000</speed>
<extensions>
<speed>0.0</speed>
<temp>0.00</temp>
<bpm>0</bpm>
<rpm>0.00</rpm>
</extensions>
</trkpt>
<trkpt lat="64.310577393" lon="-20.305313110">
<ele>110.839844</ele>
<time>2012-07-19T20:27:41Z</time>
<speed>0.010000</speed>
<extensions>
<speed>0.0</speed>
<temp>0.00</temp>
<bpm>0</bpm>
<rpm>0.00</rpm>
</extensions>
</trkpt>
<trkpt lat="64.310577393" lon="-20.305313110">
<ele>110.861328</ele>
<time>2012-07-19T20:27:46Z</time>
<speed>0.010000</speed>
<extensions>
<speed>0.0</speed>
<temp>0.00</temp>
<bpm>0</bpm>
<rpm>0.00</rpm>
</extensions>
</trkpt>
<trkpt lat="64.310577393" lon="-20.305311203">
<ele>110.875000</ele>
<time>2012-07-19T20:27:51Z</time>
<speed>0.010000</speed>
<extensions>
<speed>0.0</speed>
<temp>0.00</temp>
<bpm>0</bpm>
<rpm>0.00</rpm>
</extensions>
</trkpt>
<trkpt lat="64.310577393" lon="-20.305311203">
<ele>110.865234</ele>
<time>2012-07-19T20:27:56Z</time>
<speed>0.020000</speed>
<extensions>
<speed>0.0</speed>
<temp>0.00</temp>
<bpm>0</bpm>
<rpm>0.00</rpm>
</extensions>
</trkpt>
<trkpt lat="64.310577393" lon="-20.305311203">
<ele>110.869141</ele>
<time>2012-07-19T20:28:01Z</time>
<extensions>
<speed>0.0</speed>
<temp>0.00</temp>
<bpm>0</bpm>
<rpm>0.00</rpm>
</extensions>
</trkpt>
<trkpt lat="64.310577393" lon="-20.305311203">
<ele>110.876953</ele>
<time>2012-07-19T20:28:06Z</time>
<extensions>
<speed>0.0</speed>
<temp>0.00</temp>
<bpm>0</bpm>
<rpm>0.00</rpm>
</extensions>
</trkpt>
<trkpt lat="64.310577393" lon="-20.305311203">
<ele>110.880859</ele>
<time>2012-07-19T20:28:11Z</time>
<speed>0.020000</speed>
<extensions>
<speed>0.0</speed>
<temp>0.00</temp>
<bpm>0</bpm>
<rpm>0.00</rpm>
</extensions>
</trkpt>
<trkpt lat="64.310577393" lon="-20.305311203">
<ele>110.890625</ele>
<time>2012-07-19T20:28:16Z</time>
<speed>0.020000</speed>
<extensions>
<speed>0.0</speed>
<temp>0.00</temp>
<bpm>0</bpm>
<rpm>0.00</rpm>
</extensions>
</trkpt>
<trkpt lat="64.310577393" lon="-20.305311203">
<ele>110.919922</ele>
<time>2012-07-19T20:28:21Z</time>
<speed>0.010000</speed>
<extensions>
<speed>0.0</speed>
<temp>0.00</temp>
<bpm>0</bpm>
<rpm>0.00</rpm>
</extensions>
</trkpt>
<trkpt lat="64.310577393" lon="-20.305311203">
<ele>110.958984</ele>
<time>2012-07-19T20:28:26Z</time>
<extensions>
<speed>0.0</speed>
<temp>0.00</temp>
<bpm>0</bpm>
<rpm>0.00</rpm>
</extensions>
</trkpt>
<trkpt lat="64.310577393" lon="-20.305311203">
<ele>110.982422</ele>
<time>2012-07-19T20:28:31Z</time>
<extensions>
<speed>0.0</speed>
<temp>0.00</temp>
<bpm>0</bpm>
<rpm>0.00</rpm>
</extensions>
</trkpt>
<trkpt lat="64.310577393" lon="-20.305311203">
<ele>111.003906</ele>
<time>2012-07-19T20:28:36Z</time>
<extensions>
<speed>0.0</speed>
<temp>0.00</temp>
<bpm>0</bpm>
<rpm>0.00</rpm>
</extensions>
</trkpt>
<trkpt lat="64.310577393" lon="-20.305311203">
<ele>111.007813</ele>
<time>2012-07-19T20:28:41Z</time>
<extensions>
<speed>0.0</speed>
<temp>0.00</temp>
<bpm>0</bpm>
<rpm>0.00</rpm>
</extensions>
</trkpt>
<trkpt lat="64.310577393" lon="-20.305311203">
<ele>111.017578</ele>
<time>2012-07-19T20:28:46Z</time>
<extensions>
<speed>0.0</speed>
<temp>0.00</temp>
<bpm>0</bpm>
<rpm>0.00</rpm>
</extensions>
</trkpt>
<trkpt lat="64.310577393" lon="-20.305311203">
<ele>111.015625</ele>
<time>2012-07-19T20:28:51Z</time>
<extensions>
<speed>0.0</speed>
<temp>0.00</temp>
<bpm>0</bpm>
<rpm>0.00</rpm>
</extensions>
</trkpt>
<trkpt lat="64.310577393" lon="-20.305311203">
<ele>111.013672</ele>
<time>2012-07-19T20:28:56Z</time>
<extensions>
<speed>0.0</speed>
<temp>0.00</temp>
<bpm>0</bpm>
<rpm>0.00</rpm>
</extensions>
</trkpt>
<trkpt lat="64.310577393" lon="-20.305309296">
<ele>111.005859</ele>
<time>2012-07-19T20:29:01Z</time>
<extensions>
<speed>0.0</speed>
<temp>0.00</temp>
<bpm>0</bpm>
<rpm>0.00</rpm>
</extensions>
</trkpt>
<trkpt lat="64.310577393" lon="-20.305309296">
<ele>111.003906</ele>
<time>2012-07-19T20:29:06Z</time>
<extensions>
<speed>0.0</speed>
<temp>0.00</temp>
<bpm>0</bpm>
<rpm>0.00</rpm>
</extensions>
</trkpt>
<trkpt lat="64.310577393" lon="-20.305309296">
<ele>111.000000</ele>
<time>2012-07-19T20:29:11Z</time>
<speed>0.010000</speed>
<extensions>
<speed>0.0</speed>
<temp>0.00</temp>
<bpm>0</bpm>
<rpm>0.00</rpm>
</extensions>
</trkpt>
<trkpt lat="64.310577393" lon="-20.305309296">
<ele>111.000000</ele>
<time>2012-07-19T20:29:16Z</time>
<extensions>
<speed>0.0</speed>
<temp>0.00</temp>
<bpm>0</bpm>
<rpm>0.00</rpm>
</extensions>
</trkpt>
<trkpt lat="64.310577393" lon="-20.305309296">
<ele>111.003906</ele>
<time>2012-07-19T20:29:21Z</time>
<extensions>
<speed>0.0</speed>
<temp>0.00</temp>
<bpm>0</bpm>
<rpm>0.00</rpm>
</extensions>
</trkpt>
<trkpt lat="64.310577393" lon="-20.305309296">
<ele>111.017578</ele>
<time>2012-07-19T20:29:26Z</time>
<speed>0.010000</speed>
<extensions>
<speed>0.0</speed>
<temp>0.00</temp>
<bpm>0</bpm>
<rpm>0.00</rpm>
</extensions>
</trkpt>
<trkpt lat="64.310577393" lon="-20.305309296">
<ele>111.027344</ele>
<time>2012-07-19T20:29:31Z</time>
<extensions>
<speed>0.0</speed>
<temp>0.00</temp>
<bpm>0</bpm>
<rpm>0.00</rpm>
</extensions>
</trkpt>
<trkpt lat="64.310577393" lon="-20.305309296">
<ele>111.027344</ele>
<time>2012-07-19T20:29:36Z</time>
<extensions>
<speed>0.0</speed>
<temp>0.00</temp>
<bpm>0</bpm>
<rpm>0.00</rpm>
</extensions>
</trkpt>
<trkpt lat="64.310577393" lon="-20.305307388">
<ele>111.035156</ele>
<time>2012-07-19T20:29:41Z</time>
<extensions>
<speed>0.0</speed>
<temp>0.00</temp>
<bpm>0</bpm>
<rpm>0.00</rpm>
</extensions>
</trkpt>
<trkpt lat="64.310577393" lon="-20.305307388">
<ele>111.041016</ele>
<time>2012-07-19T20:29:46Z</time>
<extensions>
<speed>0.0</speed>
<temp>0.00</temp>
<bpm>0</bpm>
<rpm>0.00</rpm>
</extensions>
</trkpt>
<trkpt lat="64.310577393" lon="-20.305307388">
<ele>111.041016</ele>
<time>2012-07-19T20:29:51Z</time>
<extensions>
<speed>0.0</speed>
<temp>0.00</temp>
<bpm>0</bpm>
<rpm>0.00</rpm>
</extensions>
</trkpt>
<trkpt lat="64.310577393" lon="-20.305307388">
<ele>111.048828</ele>
<time>2012-07-19T20:29:56Z</time>
<speed>0.010000</speed>
<extensions>
<speed>0.0</speed>
<temp>0.00</temp>
<bpm>0</bpm>
<rpm>0.00</rpm>
</extensions>
</trkpt>
<trkpt lat="64.310577393" lon="-20.305307388">
<ele>111.066406</ele>
<time>2012-07-19T20:30:01Z</time>
<speed>0.020000</speed>
<extensions>
<speed>0.0</speed>
<temp>0.00</temp>
<bpm>0</bpm>
<rpm>0.00</rpm>
</extensions>
</trkpt>
<trkpt lat="64.310577393" lon="-20.305307388">
<ele>111.089844</ele>
<time>2012-07-19T20:30:06Z</time>
<speed>0.010000</speed>
<extensions>
<speed>0.0</speed>
<temp>0.00</temp>
<bpm>0</bpm>
<rpm>0.00</rpm>
</extensions>
</trkpt>
<trkpt lat="64.310577393" lon="-20.305307388">
<ele>111.119141</ele>
<time>2012-07-19T20:30:11Z</time>
<speed>0.010000</speed>
<extensions>
<speed>0.0</speed>
<temp>0.00</temp>
<bpm>0</bpm>
<rpm>0.00</rpm>
</extensions>
</trkpt>
<trkpt lat="64.310577393" lon="-20.305305481">
<ele>111.134766</ele>
<time>2012-07-19T20:30:16Z</time>
<speed>0.010000</speed>
<extensions>
<speed>0.0</speed>
<temp>0.00</temp>
<bpm>0</bpm>
<rpm>0.00</rpm>
</extensions>
</trkpt>
<trkpt lat="64.310577393" lon="-20.305305481">
<ele>111.152344</ele>
<time>2012-07-19T20:30:21Z</time>
<extensions>
<speed>0.0</speed>
<temp>0.00</temp>
<bpm>0</bpm>
<rpm>0.00</rpm>
</extensions>
</trkpt>
<trkpt lat="64.310577393" lon="-20.305305481">
<ele>111.187500</ele>
<time>2012-07-19T20:30:26Z</time>
<speed>0.010000</speed>
<extensions>
<speed>0.0</speed>
<temp>0.00</temp>
<bpm>0</bpm>
<rpm>0.00</rpm>
</extensions>
</trkpt>
<trkpt lat="64.310577393" lon="-20.305305481">
<ele>111.214844</ele>
<time>2012-07-19T20:30:31Z</time>
<speed>0.010000</speed>
<extensions>
<speed>0.0</speed>
<temp>0.00</temp>
<bpm>0</bpm>
<rpm>0.00</rpm>
</extensions>
</trkpt>
<trkpt lat="64.310577393" lon="-20.305305481">
<ele>111.228516</ele>
<time>2012-07-19T20:30:36Z</time>
<extensions>
<speed>0.0</speed>
<temp>0.00</temp>
<bpm>0</bpm>
<rpm>0.00</rpm>
</extensions>
</trkpt>
<trkpt lat="64.310577393" lon="-20.305305481">
<ele>111.259766</ele>
<time>2012-07-19T20:30:41Z</time>
<extensions>
<speed>0.0</speed>
<temp>0.00</temp>
<bpm>0</bpm>
<rpm>0.00</rpm>
</extensions>
</trkpt>
<trkpt lat="64.310577393" lon="-20.305305481">
<ele>111.289063</ele>
<time>2012-07-19T20:30:46Z</time>
<speed>0.010000</speed>
<extensions>
<speed>0.0</speed>
<temp>0.00</temp>
<bpm>0</bpm>
<rpm>0.00</rpm>
</extensions>
</trkpt>
<trkpt lat="64.310577393" lon="-20.305305481">
<ele>111.326172</ele>
<time>2012-07-19T20:30:51Z</time>
<extensions>
<speed>0.0</speed>
<temp>0.00</temp>
<bpm>0</bpm>
<rpm>0.00</rpm>
</extensions>
</trkpt>
<trkpt lat="64.310577393" lon="-20.305305481">
<ele>111.369141</ele>
<time>2012-07-19T20:30:56Z</time>
<speed>0.020000</speed>
<extensions>
<speed>0.0</speed>
<temp>0.00</temp>
<bpm>0</bpm>
<rpm>0.00</rpm>
</extensions>
</trkpt>
<trkpt lat="64.310577393" lon="-20.305305481">
<ele>111.404297</ele>
<time>2012-07-19T20:31:01Z</time>
<speed>0.010000</speed>
<extensions>
<speed>0.0</speed>
<temp>0.00</temp>
<bpm>0</bpm>
<rpm>0.00</rpm>
</extensions>
</trkpt>
<trkpt lat="64.310577393" lon="-20.305305481">
<ele>111.423828</ele>
<time>2012-07-19T20:31:06Z</time>
<speed>0.010000</speed>
<extensions>
<speed>0.0</speed>
<temp>0.00</temp>
<bpm>0</bpm>
<rpm>0.00</rpm>
</extensions>
</trkpt>
<trkpt lat="64.310577393" lon="-20.305305481">
<ele>111.435547</ele>
<time>2012-07-19T20:31:11Z</time>
<extensions>
<speed>0.0</speed>
<temp>0.00</temp>
<bpm>0</bpm>
<rpm>0.00</rpm>
</extensions>
</trkpt>
<trkpt lat="64.310577393" lon="-20.305305481">
<ele>111.453125</ele>
<time>2012-07-19T20:31:16Z</time>
<extensions>
<speed>0.0</speed>
<temp>0.00</temp>
<bpm>0</bpm>
<rpm>0.00</rpm>
</extensions>
</trkpt>
<trkpt lat="64.310577393" lon="-20.305305481">
<ele>111.474609</ele>
<time>2012-07-19T20:31:21Z</time>
<extensions>
<speed>0.0</speed>
<temp>0.00</temp>
<bpm>0</bpm>
<rpm>0.00</rpm>
</extensions>
</trkpt>
<trkpt lat="64.310577393" lon="-20.305303574">
<ele>111.500000</ele>
<time>2012-07-19T20:31:26Z</time>
<extensions>
<speed>0.0</speed>
<temp>0.00</temp>
<bpm>0</bpm>
<rpm>0.00</rpm>
</extensions>
</trkpt>
<trkpt lat="64.310577393" lon="-20.305303574">
<ele>111.523438</ele>
<time>2012-07-19T20:31:31Z</time>
<speed>0.020000</speed>
<extensions>
<speed>0.0</speed>
<temp>0.00</temp>
<bpm>0</bpm>
<rpm>0.00</rpm>
</extensions>
</trkpt>
<trkpt lat="64.310577393" lon="-20.305303574">
<ele>111.507813</ele>
<time>2012-07-19T20:31:36Z</time>
<extensions>
<speed>0.0</speed>
<temp>0.00</temp>
<bpm>0</bpm>
<rpm>0.00</rpm>
</extensions>
</trkpt>
<trkpt lat="64.310585022" lon="-20.305303574">
<ele>111.511719</ele>
<time>2012-07-19T20:31:41Z</time>
<extensions>
<speed>0.0</speed>
<temp>0.00</temp>
<bpm>0</bpm>
<rpm>0.00</rpm>
</extensions>
</trkpt>
<trkpt lat="64.310585022" lon="-20.305305481">
<ele>111.529297</ele>
<time>2012-07-19T20:31:46Z</time>
<extensions>
<speed>0.0</speed>
<temp>0.00</temp>
<bpm>0</bpm>
<rpm>0.00</rpm>
</extensions>
</trkpt>
<trkpt lat="64.310585022" lon="-20.305303574">
<ele>111.558594</ele>
<time>2012-07-19T20:31:51Z</time>
<extensions>
<speed>0.0</speed>
<temp>0.00</temp>
<bpm>0</bpm>
<rpm>0.00</rpm>
</extensions>
</trkpt>
<trkpt lat="64.310585022" lon="-20.305303574">
<ele>111.582031</ele>
<time>2012-07-19T20:31:56Z</time>
<extensions>
<speed>0.0</speed>
<temp>0.00</temp>
<bpm>0</bpm>
<rpm>0.00</rpm>
</extensions>
</trkpt>
<trkpt lat="64.310585022" lon="-20.305303574">
<ele>111.617188</ele>
<time>2012-07-19T20:32:01Z</time>
<extensions>
<speed>0.0</speed>
<temp>0.00</temp>
<bpm>0</bpm>
<rpm>0.00</rpm>
</extensions>
</trkpt>
<trkpt lat="64.310585022" lon="-20.305303574">
<ele>111.650391</ele>
<time>2012-07-19T20:32:06Z</time>
<speed>0.010000</speed>
<extensions>
<speed>0.0</speed>
<temp>0.00</temp>
<bpm>0</bpm>
<rpm>0.00</rpm>
</extensions>
</trkpt>
<trkpt lat="64.310585022" lon="-20.305303574">
<ele>111.701172</ele>
<time>2012-07-19T20:32:11Z</time>
<extensions>
<speed>0.0</speed>
<temp>0.00</temp>
<bpm>0</bpm>
<rpm>0.00</rpm>
</extensions>
</trkpt>
<trkpt lat="64.310585022" lon="-20.305303574">
<ele>111.742188</ele>
<time>2012-07-19T20:32:16Z</time>
<speed>0.010000</speed>
<extensions>
<speed>0.0</speed>
<temp>0.00</temp>
<bpm>0</bpm>
<rpm>0.00</rpm>
</extensions>
</trkpt>
<trkpt lat="64.310585022" lon="-20.305301666">
<ele>111.791016</ele>
<time>2012-07-19T20:32:21Z</time>
<extensions>
<speed>0.0</speed>
<temp>0.00</temp>
<bpm>0</bpm>
<rpm>0.00</rpm>
</extensions>
</trkpt>
<trkpt lat="64.310585022" lon="-20.305301666">
<ele>111.830078</ele>
<time>2012-07-19T20:32:26Z</time>
<speed>0.010000</speed>
<extensions>
<speed>0.0</speed>
<temp>0.00</temp>
<bpm>0</bpm>
<rpm>0.00</rpm>
</extensions>
</trkpt>
<trkpt lat="64.310585022" lon="-20.305301666">
<ele>111.865234</ele>
<time>2012-07-19T20:32:31Z</time>
<extensions>
<speed>0.0</speed>
<temp>0.00</temp>
<bpm>0</bpm>
<rpm>0.00</rpm>
</extensions>
</trkpt>
<trkpt lat="64.310585022" lon="-20.305301666">
<ele>111.917969</ele>
<time>2012-07-19T20:32:36Z</time>
<extensions>
<speed>0.0</speed>
<temp>0.00</temp>
<bpm>0</bpm>
<rpm>0.00</rpm>
</extensions>
</trkpt>
<trkpt lat="64.310585022" lon="-20.305301666">
<ele>111.935547</ele>
<time>2012-07-19T20:32:41Z</time>
<extensions>
<speed>0.0</speed>
<temp>0.00</temp>
<bpm>0</bpm>
<rpm>0.00</rpm>
</extensions>
</trkpt>
<trkpt lat="64.310585022" lon="-20.305299759">
<ele>111.949219</ele>
<time>2012-07-19T20:32:46Z</time>
<extensions>
<speed>0.0</speed>
<temp>0.00</temp>
<bpm>0</bpm>
<rpm>0.00</rpm>
</extensions>
</trkpt>
<trkpt lat="64.310585022" lon="-20.305299759">
<ele>111.945313</ele>
<time>2012-07-19T20:32:51Z</time>
<extensions>
<speed>0.0</speed>
<temp>0.00</temp>
<bpm>0</bpm>
<rpm>0.00</rpm>
</extensions>
</trkpt>
<trkpt lat="64.310585022" lon="-20.305299759">
<ele>111.960938</ele>
<time>2012-07-19T20:32:56Z</time>
<extensions>
<speed>0.0</speed>
<temp>0.00</temp>
<bpm>0</bpm>
<rpm>0.00</rpm>
</extensions>
</trkpt>
<trkpt lat="64.310585022" lon="-20.305299759">
<ele>111.984375</ele>
<time>2012-07-19T20:33:01Z</time>
<extensions>
<speed>0.0</speed>
<temp>0.00</temp>
<bpm>0</bpm>
<rpm>0.00</rpm>
</extensions>
</trkpt>
<trkpt lat="64.310585022" lon="-20.305299759">
<ele>112.007813</ele>
<time>2012-07-19T20:33:06Z</time>
<extensions>
<speed>0.0</speed>
<temp>0.00</temp>
<bpm>0</bpm>
<rpm>0.00</rpm>
</extensions>
</trkpt>
<trkpt lat="64.310585022" lon="-20.305299759">
<ele>112.029297</ele>
<time>2012-07-19T20:33:11Z</time>
<extensions>
<speed>0.0</speed>
<temp>0.00</temp>
<bpm>0</bpm>
<rpm>0.00</rpm>
</extensions>
</trkpt>
<trkpt lat="64.310585022" lon="-20.305299759">
<ele>112.046875</ele>
<time>2012-07-19T20:33:16Z</time>
<extensions>
<speed>0.0</speed>
<temp>0.00</temp>
<bpm>0</bpm>
<rpm>0.00</rpm>
</extensions>
</trkpt>
<trkpt lat="64.310585022" lon="-20.305299759">
<ele>112.060547</ele>
<time>2012-07-19T20:33:21Z</time>
<extensions>
<speed>0.0</speed>
<temp>0.00</temp>
<bpm>0</bpm>
<rpm>0.00</rpm>
</extensions>
</trkpt>
<trkpt lat="64.310585022" lon="-20.305299759">
<ele>112.097656</ele>
<time>2012-07-19T20:33:26Z</time>
<extensions>
<speed>0.0</speed>
<temp>0.00</temp>
<bpm>0</bpm>
<rpm>0.00</rpm>
</extensions>
</trkpt>
<trkpt lat="64.310585022" lon="-20.305299759">
<ele>112.130859</ele>
<time>2012-07-19T20:33:31Z</time>
<extensions>
<speed>0.0</speed>
<temp>0.00</temp>
<bpm>0</bpm>
<rpm>0.00</rpm>
</extensions>
</trkpt>
<trkpt lat="64.310585022" lon="-20.305299759">
<ele>112.160156</ele>
<time>2012-07-19T20:33:36Z</time>
<speed>0.010000</speed>
<extensions>
<speed>0.0</speed>
<temp>0.00</temp>
<bpm>0</bpm>
<rpm>0.00</rpm>
</extensions>
</trkpt>
<trkpt lat="64.310585022" lon="-20.305299759">
<ele>112.169922</ele>
<time>2012-07-19T20:33:41Z</time>
<extensions>
<speed>0.0</speed>
<temp>0.00</temp>
<bpm>0</bpm>
<rpm>0.00</rpm>
</extensions>
</trkpt>
<trkpt lat="64.310585022" lon="-20.305299759">
<ele>112.183594</ele>
<time>2012-07-19T20:33:46Z</time>
<extensions>
<speed>0.0</speed>
<temp>0.00</temp>
<bpm>0</bpm>
<rpm>0.00</rpm>
</extensions>
</trkpt>
<trkpt lat="64.310585022" lon="-20.305299759">
<ele>112.189453</ele>
<time>2012-07-19T20:33:51Z</time>
<speed>0.010000</speed>
<extensions>
<speed>0.0</speed>
<temp>0.00</temp>
<bpm>0</bpm>
<rpm>0.00</rpm>
</extensions>
</trkpt>
<trkpt lat="64.310585022" lon="-20.305299759">
<ele>112.197266</ele>
<time>2012-07-19T20:33:56Z</time>
<speed>0.010000</speed>
<extensions>
<speed>0.0</speed>
<temp>0.00</temp>
<bpm>0</bpm>
<rpm>0.00</rpm>
</extensions>
</trkpt>
<trkpt lat="64.310585022" lon="-20.305299759">
<ele>112.208984</ele>
<time>2012-07-19T20:34:01Z</time>
<extensions>
<speed>0.0</speed>
<temp>0.00</temp>
<bpm>0</bpm>
<rpm>0.00</rpm>
</extensions>
</trkpt>
<trkpt lat="64.310585022" lon="-20.305297852">
<ele>112.232422</ele>
<time>2012-07-19T20:34:06Z</time>
<extensions>
<speed>0.0</speed>
<temp>0.00</temp>
<bpm>0</bpm>
<rpm>0.00</rpm>
</extensions>
</trkpt>
<trkpt lat="64.310585022" lon="-20.305297852">
<ele>112.234375</ele>
<time>2012-07-19T20:34:11Z</time>
<extensions>
<speed>0.0</speed>
<temp>0.00</temp>
<bpm>0</bpm>
<rpm>0.00</rpm>
</extensions>
</trkpt>
<trkpt lat="64.310585022" lon="-20.305297852">
<ele>112.228516</ele>
<time>2012-07-19T20:34:16Z</time>
<speed>0.010000</speed>
<extensions>
<speed>0.0</speed>
<temp>0.00</temp>
<bpm>0</bpm>
<rpm>0.00</rpm>
</extensions>
</trkpt>
<trkpt lat="64.310585022" lon="-20.305297852">
<ele>112.228516</ele>
<time>2012-07-19T20:34:21Z</time>
<speed>0.010000</speed>
<extensions>
<speed>0.0</speed>
<temp>0.00</temp>
<bpm>0</bpm>
<rpm>0.00</rpm>
</extensions>
</trkpt>
<trkpt lat="64.310585022" lon="-20.305297852">
<ele>112.240234</ele>
<time>2012-07-19T20:34:26Z</time>
<extensions>
<speed>0.0</speed>
<temp>0.00</temp>
<bpm>0</bpm>
<rpm>0.00</rpm>
</extensions>
</trkpt>
<trkpt lat="64.310585022" lon="-20.305297852">
<ele>112.257813</ele>
<time>2012-07-19T20:34:31Z</time>
<speed>0.020000</speed>
<extensions>
<speed>0.0</speed>
<temp>0.00</temp>
<bpm>0</bpm>
<rpm>0.00</rpm>
</extensions>
</trkpt>
<trkpt lat="64.310585022" lon="-20.305295944">
<ele>112.267578</ele>
<time>2012-07-19T20:34:36Z</time>
<speed>0.010000</speed>
<extensions>
<speed>0.0</speed>
<temp>0.00</temp>
<bpm>0</bpm>
<rpm>0.00</rpm>
</extensions>
</trkpt>
<trkpt lat="64.310585022" lon="-20.305295944">
<ele>112.253906</ele>
<time>2012-07-19T20:34:41Z</time>
<speed>0.030000</speed>
<extensions>
<speed>0.0</speed>
<temp>0.00</temp>
<bpm>0</bpm>
<rpm>0.00</rpm>
</extensions>
</trkpt>
<trkpt lat="64.310585022" lon="-20.305295944">
<ele>112.259766</ele>
<time>2012-07-19T20:34:46Z</time>
<speed>0.020000</speed>
<extensions>
<speed>0.0</speed>
<temp>0.00</temp>
<bpm>0</bpm>
<rpm>0.00</rpm>
</extensions>
</trkpt>
<trkpt lat="64.310585022" lon="-20.305295944">
<ele>112.265625</ele>
<time>2012-07-19T20:34:51Z</time>
<extensions>
<speed>0.0</speed>
<temp>0.00</temp>
<bpm>0</bpm>
<rpm>0.00</rpm>
</extensions>
</trkpt>
<trkpt lat="64.310585022" lon="-20.305295944">
<ele>112.283203</ele>
<time>2012-07-19T20:34:56Z</time>
<extensions>
<speed>0.0</speed>
<temp>0.00</temp>
<bpm>0</bpm>
<rpm>0.00</rpm>
</extensions>
</trkpt>
<trkpt lat="64.310585022" lon="-20.305295944">
<ele>112.304688</ele>
<time>2012-07-19T20:35:01Z</time>
<speed>0.020000</speed>
<extensions>
<speed>0.0</speed>
<temp>0.00</temp>
<bpm>0</bpm>
<rpm>0.00</rpm>
</extensions>
</trkpt>
<trkpt lat="64.310592651" lon="-20.305294037">
<ele>112.312500</ele>
<time>2012-07-19T20:35:06Z</time>
<speed>0.010000</speed>
<extensions>
<speed>0.0</speed>
<temp>0.00</temp>
<bpm>0</bpm>
<rpm>0.00</rpm>
</extensions>
</trkpt>
<trkpt lat="64.310592651" lon="-20.305294037">
<ele>112.322266</ele>
<time>2012-07-19T20:35:11Z</time>
<extensions>
<speed>0.0</speed>
<temp>0.00</temp>
<bpm>0</bpm>
<rpm>0.00</rpm>
</extensions>
</trkpt>
<trkpt lat="64.310592651" lon="-20.305294037">
<ele>112.337891</ele>
<time>2012-07-19T20:35:16Z</time>
<extensions>
<speed>0.0</speed>
<temp>0.00</temp>
<bpm>0</bpm>
<rpm>0.00</rpm>
</extensions>
</trkpt>
<trkpt lat="64.310592651" lon="-20.305294037">
<ele>112.339844</ele>
<time>2012-07-19T20:35:21Z</time>
<extensions>
<speed>0.0</speed>
<temp>0.00</temp>
<bpm>0</bpm>
<rpm>0.00</rpm>
</extensions>
</trkpt>
<trkpt lat="64.310592651" lon="-20.305294037">
<ele>112.343750</ele>
<time>2012-07-19T20:35:26Z</time>
<extensions>
<speed>0.0</speed>
<temp>0.00</temp>
<bpm>0</bpm>
<rpm>0.00</rpm>
</extensions>
</trkpt>
<trkpt lat="64.310592651" lon="-20.305294037">
<ele>112.328125</ele>
<time>2012-07-19T20:35:31Z</time>
<extensions>
<speed>0.0</speed>
<temp>0.00</temp>
<bpm>0</bpm>
<rpm>0.00</rpm>
</extensions>
</trkpt>
<trkpt lat="64.310592651" lon="-20.305294037">
<ele>112.326172</ele>
<time>2012-07-19T20:35:36Z</time>
<speed>0.010000</speed>
<extensions>
<speed>0.0</speed>
<temp>0.00</temp>
<bpm>0</bpm>
<rpm>0.00</rpm>
</extensions>
</trkpt>
<trkpt lat="64.310592651" lon="-20.305294037">
<ele>112.326172</ele>
<time>2012-07-19T20:35:41Z</time>
<extensions>
<speed>0.0</speed>
<temp>0.00</temp>
<bpm>0</bpm>
<rpm>0.00</rpm>
</extensions>
</trkpt>
<trkpt lat="64.310592651" lon="-20.305292130">
<ele>112.343750</ele>
<time>2012-07-19T20:35:46Z</time>
<extensions>
<speed>0.0</speed>
<temp>0.00</temp>
<bpm>0</bpm>
<rpm>0.00</rpm>
</extensions>
</trkpt>
<trkpt lat="64.310592651" lon="-20.305292130">
<ele>112.345703</ele>
<time>2012-07-19T20:35:51Z</time>
<extensions>
<speed>0.0</speed>
<temp>0.00</temp>
<bpm>0</bpm>
<rpm>0.00</rpm>
</extensions>
</trkpt>
<trkpt lat="64.310592651" lon="-20.305292130">
<ele>112.328125</ele>
<time>2012-07-19T20:35:56Z</time>
<extensions>
<speed>0.0</speed>
<temp>0.00</temp>
<bpm>0</bpm>
<rpm>0.00</rpm>
</extensions>
</trkpt>
<trkpt lat="64.310592651" lon="-20.305292130">
<ele>112.328125</ele>
<time>2012-07-19T20:36:01Z</time>
<extensions>
<speed>0.0</speed>
<temp>0.00</temp>
<bpm>0</bpm>
<rpm>0.00</rpm>
</extensions>
</trkpt>
<trkpt lat="64.310592651" lon="-20.305292130">
<ele>112.347656</ele>
<time>2012-07-19T20:36:06Z</time>
<extensions>
<speed>0.0</speed>
<temp>0.00</temp>
<bpm>0</bpm>
<rpm>0.00</rpm>
</extensions>
</trkpt>
<trkpt lat="64.310592651" lon="-20.305292130">
<ele>112.357422</ele>
<time>2012-07-19T20:36:11Z</time>
<extensions>
<speed>0.0</speed>
<temp>0.00</temp>
<bpm>0</bpm>
<rpm>0.00</rpm>
</extensions>
</trkpt>
<trkpt lat="64.310592651" lon="-20.305292130">
<ele>112.359375</ele>
<time>2012-07-19T20:36:16Z</time>
<extensions>
<speed>0.0</speed>
<temp>0.00</temp>
<bpm>0</bpm>
<rpm>0.00</rpm>
</extensions>
</trkpt>
<trkpt lat="64.310592651" lon="-20.305292130">
<ele>112.353516</ele>
<time>2012-07-19T20:36:21Z</time>
<speed>0.010000</speed>
<extensions>
<speed>0.0</speed>
<temp>0.00</temp>
<bpm>0</bpm>
<rpm>0.00</rpm>
</extensions>
</trkpt>
<trkpt lat="64.310592651" lon="-20.305292130">
<ele>112.365234</ele>
<time>2012-07-19T20:36:26Z</time>
<extensions>
<speed>0.0</speed>
<temp>0.00</temp>
<bpm>0</bpm>
<rpm>0.00</rpm>
</extensions>
</trkpt>
<trkpt lat="64.310592651" lon="-20.305292130">
<ele>112.367188</ele>
<time>2012-07-19T20:36:31Z</time>
<extensions>
<speed>0.0</speed>
<temp>0.00</temp>
<bpm>0</bpm>
<rpm>0.00</rpm>
</extensions>
</trkpt>
<trkpt lat="64.310592651" lon="-20.305292130">
<ele>112.371094</ele>
<time>2012-07-19T20:36:36Z</time>
<extensions>
<speed>0.0</speed>
<temp>0.00</temp>
<bpm>0</bpm>
<rpm>0.00</rpm>
</extensions>
</trkpt>
<trkpt lat="64.310592651" lon="-20.305292130">
<ele>112.375000</ele>
<time>2012-07-19T20:36:41Z</time>
<extensions>
<speed>0.0</speed>
<temp>0.00</temp>
<bpm>0</bpm>
<rpm>0.00</rpm>
</extensions>
</trkpt>
<trkpt lat="64.310592651" lon="-20.305292130">
<ele>112.375000</ele>
<time>2012-07-19T20:36:46Z</time>
<speed>0.010000</speed>
<extensions>
<speed>0.0</speed>
<temp>0.00</temp>
<bpm>0</bpm>
<rpm>0.00</rpm>
</extensions>
</trkpt>
<trkpt lat="64.310592651" lon="-20.305292130">
<ele>112.371094</ele>
<time>2012-07-19T20:36:51Z</time>
<speed>0.010000</speed>
<extensions>
<speed>0.0</speed>
<temp>0.00</temp>
<bpm>0</bpm>
<rpm>0.00</rpm>
</extensions>
</trkpt>
<trkpt lat="64.310592651" lon="-20.305292130">
<ele>112.371094</ele>
<time>2012-07-19T20:36:56Z</time>
<speed>0.020000</speed>
<extensions>
<speed>0.0</speed>
<temp>0.00</temp>
<bpm>0</bpm>
<rpm>0.00</rpm>
</extensions>
</trkpt>
<trkpt lat="64.310592651" lon="-20.305292130">
<ele>112.378906</ele>
<time>2012-07-19T20:37:01Z</time>
<extensions>
<speed>0.0</speed>
<temp>0.00</temp>
<bpm>0</bpm>
<rpm>0.00</rpm>
</extensions>
</trkpt>
<trkpt lat="64.310592651" lon="-20.305292130">
<ele>112.396484</ele>
<time>2012-07-19T20:37:06Z</time>
<extensions>
<speed>0.0</speed>
<temp>0.00</temp>
<bpm>0</bpm>
<rpm>0.00</rpm>
</extensions>
</trkpt>
<trkpt lat="64.310592651" lon="-20.305292130">
<ele>112.408203</ele>
<time>2012-07-19T20:37:11Z</time>
<extensions>
<speed>0.0</speed>
<temp>0.00</temp>
<bpm>0</bpm>
<rpm>0.00</rpm>
</extensions>
</trkpt>
<trkpt lat="64.310592651" lon="-20.305292130">
<ele>112.427734</ele>
<time>2012-07-19T20:37:16Z</time>
<extensions>
<speed>0.0</speed>
<temp>0.00</temp>
<bpm>0</bpm>
<rpm>0.00</rpm>
</extensions>
</trkpt>
<trkpt lat="64.310592651" lon="-20.305292130">
<ele>112.445313</ele>
<time>2012-07-19T20:37:21Z</time>
<extensions>
<speed>0.0</speed>
<temp>0.00</temp>
<bpm>0</bpm>
<rpm>0.00</rpm>
</extensions>
</trkpt>
<trkpt lat="64.310592651" lon="-20.305292130">
<ele>112.472656</ele>
<time>2012-07-19T20:37:26Z</time>
<extensions>
<speed>0.0</speed>
<temp>0.00</temp>
<bpm>0</bpm>
<rpm>0.00</rpm>
</extensions>
</trkpt>
<trkpt lat="64.310592651" lon="-20.305292130">
<ele>112.480469</ele>
<time>2012-07-19T20:37:31Z</time>
<speed>0.010000</speed>
<extensions>
<speed>0.0</speed>
<temp>0.00</temp>
<bpm>0</bpm>
<rpm>0.00</rpm>
</extensions>
</trkpt>
<trkpt lat="64.310592651" lon="-20.305292130">
<ele>112.503906</ele>
<time>2012-07-19T20:37:36Z</time>
<speed>0.010000</speed>
<extensions>
<speed>0.0</speed>
<temp>0.00</temp>
<bpm>0</bpm>
<rpm>0.00</rpm>
</extensions>
</trkpt>
<trkpt lat="64.310592651" lon="-20.305292130">
<ele>112.519531</ele>
<time>2012-07-19T20:37:41Z</time>
<extensions>
<speed>0.0</speed>
<temp>0.00</temp>
<bpm>0</bpm>
<rpm>0.00</rpm>
</extensions>
</trkpt>
<trkpt lat="64.310592651" lon="-20.305292130">
<ele>112.521484</ele>
<time>2012-07-19T20:37:46Z</time>
<extensions>
<speed>0.0</speed>
<temp>0.00</temp>
<bpm>0</bpm>
<rpm>0.00</rpm>
</extensions>
</trkpt>
<trkpt lat="64.310592651" lon="-20.305292130">
<ele>112.517578</ele>
<time>2012-07-19T20:37:51Z</time>
<speed>0.010000</speed>
<extensions>
<speed>0.0</speed>
<temp>0.00</temp>
<bpm>0</bpm>
<rpm>0.00</rpm>
</extensions>
</trkpt>
<trkpt lat="64.310592651" lon="-20.305292130">
<ele>112.525391</ele>
<time>2012-07-19T20:37:56Z</time>
<speed>0.010000</speed>
<extensions>
<speed>0.0</speed>
<temp>0.00</temp>
<bpm>0</bpm>
<rpm>0.00</rpm>
</extensions>
</trkpt>
<trkpt lat="64.310592651" lon="-20.305292130">
<ele>112.560547</ele>
<time>2012-07-19T20:38:01Z</time>
<extensions>
<speed>0.0</speed>
<temp>0.00</temp>
<bpm>0</bpm>
<rpm>0.00</rpm>
</extensions>
</trkpt>
<trkpt lat="64.310592651" lon="-20.305292130">
<ele>112.576172</ele>
<time>2012-07-19T20:38:06Z</time>
<speed>0.010000</speed>
<extensions>
<speed>0.0</speed>
<temp>0.00</temp>
<bpm>0</bpm>
<rpm>0.00</rpm>
</extensions>
</trkpt>
<trkpt lat="64.310592651" lon="-20.305292130">
<ele>112.578125</ele>
<time>2012-07-19T20:38:11Z</time>
<speed>0.010000</speed>
<extensions>
<speed>0.0</speed>
<temp>0.00</temp>
<bpm>0</bpm>
<rpm>0.00</rpm>
</extensions>
</trkpt>
<trkpt lat="64.310592651" lon="-20.305292130">
<ele>112.572266</ele>
<time>2012-07-19T20:38:16Z</time>
<extensions>
<speed>0.0</speed>
<temp>0.00</temp>
<bpm>0</bpm>
<rpm>0.00</rpm>
</extensions>
</trkpt>
<trkpt lat="64.310592651" lon="-20.305292130">
<ele>112.574219</ele>
<time>2012-07-19T20:38:21Z</time>
<speed>0.010000</speed>
<extensions>
<speed>0.0</speed>
<temp>0.00</temp>
<bpm>0</bpm>
<rpm>0.00</rpm>
</extensions>
</trkpt>
<trkpt lat="64.310592651" lon="-20.305292130">
<ele>112.595703</ele>
<time>2012-07-19T20:38:26Z</time>
<extensions>
<speed>0.0</speed>
<temp>0.00</temp>
<bpm>0</bpm>
<rpm>0.00</rpm>
</extensions>
</trkpt>
<trkpt lat="64.310592651" lon="-20.305292130">
<ele>112.589844</ele>
<time>2012-07-19T20:38:31Z</time>
<extensions>
<speed>0.0</speed>
<temp>0.00</temp>
<bpm>0</bpm>
<rpm>0.00</rpm>
</extensions>
</trkpt>
<trkpt lat="64.310592651" lon="-20.305292130">
<ele>112.603516</ele>
<time>2012-07-19T20:38:36Z</time>
<extensions>
<speed>0.0</speed>
<temp>0.00</temp>
<bpm>0</bpm>
<rpm>0.00</rpm>
</extensions>
</trkpt>
<trkpt lat="64.310592651" lon="-20.305292130">
<ele>112.601563</ele>
<time>2012-07-19T20:38:41Z</time>
<extensions>
<speed>0.0</speed>
<temp>0.00</temp>
<bpm>0</bpm>
<rpm>0.00</rpm>
</extensions>
</trkpt>
<trkpt lat="64.310592651" lon="-20.305292130">
<ele>112.603516</ele>
<time>2012-07-19T20:38:46Z</time>
<extensions>
<speed>0.0</speed>
<temp>0.00</temp>
<bpm>0</bpm>
<rpm>0.00</rpm>
</extensions>
</trkpt>
<trkpt lat="64.310592651" lon="-20.305292130">
<ele>112.619141</ele>
<time>2012-07-19T20:38:51Z</time>
<speed>0.010000</speed>
<extensions>
<speed>0.0</speed>
<temp>0.00</temp>
<bpm>0</bpm>
<rpm>0.00</rpm>
</extensions>
</trkpt>
<trkpt lat="64.310592651" lon="-20.305292130">
<ele>112.636719</ele>
<time>2012-07-19T20:38:56Z</time>
<extensions>
<speed>0.0</speed>
<temp>0.00</temp>
<bpm>0</bpm>
<rpm>0.00</rpm>
</extensions>
</trkpt>
<trkpt lat="64.310592651" lon="-20.305292130">
<ele>112.652344</ele>
<time>2012-07-19T20:39:01Z</time>
<extensions>
<speed>0.0</speed>
<temp>0.00</temp>
<bpm>0</bpm>
<rpm>0.00</rpm>
</extensions>
</trkpt>
<trkpt lat="64.310592651" lon="-20.305292130">
<ele>112.671875</ele>
<time>2012-07-19T20:39:06Z</time>
<extensions>
<speed>0.0</speed>
<temp>0.00</temp>
<bpm>0</bpm>
<rpm>0.00</rpm>
</extensions>
</trkpt>
<trkpt lat="64.310592651" lon="-20.305292130">
<ele>112.683594</ele>
<time>2012-07-19T20:39:11Z</time>
<extensions>
<speed>0.0</speed>
<temp>0.00</temp>
<bpm>0</bpm>
<rpm>0.00</rpm>
</extensions>
</trkpt>
<trkpt lat="64.310592651" lon="-20.305292130">
<ele>112.681641</ele>
<time>2012-07-19T20:39:16Z</time>
<extensions>
<speed>0.0</speed>
<temp>0.00</temp>
<bpm>0</bpm>
<rpm>0.00</rpm>
</extensions>
</trkpt>
<trkpt lat="64.310592651" lon="-20.305292130">
<ele>112.701172</ele>
<time>2012-07-19T20:39:21Z</time>
<speed>0.010000</speed>
<extensions>
<speed>0.0</speed>
<temp>0.00</temp>
<bpm>0</bpm>
<rpm>0.00</rpm>
</extensions>
</trkpt>
<trkpt lat="64.310592651" lon="-20.305292130">
<ele>112.703125</ele>
<time>2012-07-19T20:39:26Z</time>
<extensions>
<speed>0.0</speed>
<temp>0.00</temp>
<bpm>0</bpm>
<rpm>0.00</rpm>
</extensions>
</trkpt>
<trkpt lat="64.310592651" lon="-20.305292130">
<ele>112.718750</ele>
<time>2012-07-19T20:39:31Z</time>
<extensions>
<speed>0.0</speed>
<temp>0.00</temp>
<bpm>0</bpm>
<rpm>0.00</rpm>
</extensions>
</trkpt>
<trkpt lat="64.310592651" lon="-20.305292130">
<ele>112.724609</ele>
<time>2012-07-19T20:39:36Z</time>
<speed>0.010000</speed>
<extensions>
<speed>0.0</speed>
<temp>0.00</temp>
<bpm>0</bpm>
<rpm>0.00</rpm>
</extensions>
</trkpt>
<trkpt lat="64.310592651" lon="-20.305292130">
<ele>112.732422</ele>
<time>2012-07-19T20:39:41Z</time>
<extensions>
<speed>0.0</speed>
<temp>0.00</temp>
<bpm>0</bpm>
<rpm>0.00</rpm>
</extensions>
</trkpt>
<trkpt lat="64.310592651" lon="-20.305292130">
<ele>112.742188</ele>
<time>2012-07-19T20:39:46Z</time>
<extensions>
<speed>0.0</speed>
<temp>0.00</temp>
<bpm>0</bpm>
<rpm>0.00</rpm>
</extensions>
</trkpt>
<trkpt lat="64.310592651" lon="-20.305294037">
<ele>112.765625</ele>
<time>2012-07-19T20:39:51Z</time>
<extensions>
<speed>0.0</speed>
<temp>0.00</temp>
<bpm>0</bpm>
<rpm>0.00</rpm>
</extensions>
</trkpt>
<trkpt lat="64.310592651" lon="-20.305292130">
<ele>112.781250</ele>
<time>2012-07-19T20:39:56Z</time>
<extensions>
<speed>0.0</speed>
<temp>0.00</temp>
<bpm>0</bpm>
<rpm>0.00</rpm>
</extensions>
</trkpt>
<trkpt lat="64.310592651" lon="-20.305292130">
<ele>112.798828</ele>
<time>2012-07-19T20:40:01Z</time>
<extensions>
<speed>0.0</speed>
<temp>0.00</temp>
<bpm>0</bpm>
<rpm>0.00</rpm>
</extensions>
</trkpt>
<trkpt lat="64.310592651" lon="-20.305292130">
<ele>112.826172</ele>
<time>2012-07-19T20:40:06Z</time>
<extensions>
<speed>0.0</speed>
<temp>0.00</temp>
<bpm>0</bpm>
<rpm>0.00</rpm>
</extensions>
</trkpt>
<trkpt lat="64.310592651" lon="-20.305292130">
<ele>112.832031</ele>
<time>2012-07-19T20:40:11Z</time>
<extensions>
<speed>0.0</speed>
<temp>0.00</temp>
<bpm>0</bpm>
<rpm>0.00</rpm>
</extensions>
</trkpt>
<trkpt lat="64.310592651" lon="-20.305292130">
<ele>112.845703</ele>
<time>2012-07-19T20:40:16Z</time>
<extensions>
<speed>0.0</speed>
<temp>0.00</temp>
<bpm>0</bpm>
<rpm>0.00</rpm>
</extensions>
</trkpt>
<trkpt lat="64.310592651" lon="-20.305292130">
<ele>112.845703</ele>
<time>2012-07-19T20:40:21Z</time>
<extensions>
<speed>0.0</speed>
<temp>0.00</temp>
<bpm>0</bpm>
<rpm>0.00</rpm>
</extensions>
</trkpt>
<trkpt lat="64.310592651" lon="-20.305292130">
<ele>112.845703</ele>
<time>2012-07-19T20:40:26Z</time>
<extensions>
<speed>0.0</speed>
<temp>0.00</temp>
<bpm>0</bpm>
<rpm>0.00</rpm>
</extensions>
</trkpt>
<trkpt lat="64.310592651" lon="-20.305292130">
<ele>112.859375</ele>
<time>2012-07-19T20:40:31Z</time>
<extensions>
<speed>0.0</speed>
<temp>0.00</temp>
<bpm>0</bpm>
<rpm>0.00</rpm>
</extensions>
</trkpt>
<trkpt lat="64.310592651" lon="-20.305292130">
<ele>112.865234</ele>
<time>2012-07-19T20:40:36Z</time>
<extensions>
<speed>0.0</speed>
<temp>0.00</temp>
<bpm>0</bpm>
<rpm>0.00</rpm>
</extensions>
</trkpt>
<trkpt lat="64.310592651" lon="-20.305292130">
<ele>112.859375</ele>
<time>2012-07-19T20:40:41Z</time>
<extensions>
<speed>0.0</speed>
<temp>0.00</temp>
<bpm>0</bpm>
<rpm>0.00</rpm>
</extensions>
</trkpt>
<trkpt lat="64.310592651" lon="-20.305292130">
<ele>112.853516</ele>
<time>2012-07-19T20:40:46Z</time>
<extensions>
<speed>0.0</speed>
<temp>0.00</temp>
<bpm>0</bpm>
<rpm>0.00</rpm>
</extensions>
</trkpt>
<trkpt lat="64.310592651" lon="-20.305292130">
<ele>112.875000</ele>
<time>2012-07-19T20:40:51Z</time>
<extensions>
<speed>0.0</speed>
<temp>0.00</temp>
<bpm>0</bpm>
<rpm>0.00</rpm>
</extensions>
</trkpt>
<trkpt lat="64.310592651" lon="-20.305292130">
<ele>112.876953</ele>
<time>2012-07-19T20:40:56Z</time>
<speed>0.010000</speed>
<extensions>
<speed>0.0</speed>
<temp>0.00</temp>
<bpm>0</bpm>
<rpm>0.00</rpm>
</extensions>
</trkpt>
<trkpt lat="64.310592651" lon="-20.305292130">
<ele>112.878906</ele>
<time>2012-07-19T20:41:01Z</time>
<speed>0.010000</speed>
<extensions>
<speed>0.0</speed>
<temp>0.00</temp>
<bpm>0</bpm>
<rpm>0.00</rpm>
</extensions>
</trkpt>
<trkpt lat="64.310592651" lon="-20.305292130">
<ele>112.878906</ele>
<time>2012-07-19T20:41:06Z</time>
<extensions>
<speed>0.0</speed>
<temp>0.00</temp>
<bpm>0</bpm>
<rpm>0.00</rpm>
</extensions>
</trkpt>
<trkpt lat="64.310592651" lon="-20.305292130">
<ele>112.871094</ele>
<time>2012-07-19T20:41:11Z</time>
<extensions>
<speed>0.0</speed>
<temp>0.00</temp>
<bpm>0</bpm>
<rpm>0.00</rpm>
</extensions>
</trkpt>
<trkpt lat="64.310592651" lon="-20.305292130">
<ele>112.863281</ele>
<time>2012-07-19T20:41:16Z</time>
<extensions>
<speed>0.0</speed>
<temp>0.00</temp>
<bpm>0</bpm>
<rpm>0.00</rpm>
</extensions>
</trkpt>
<trkpt lat="64.310592651" lon="-20.305292130">
<ele>112.867188</ele>
<time>2012-07-19T20:41:21Z</time>
<extensions>
<speed>0.0</speed>
<temp>0.00</temp>
<bpm>0</bpm>
<rpm>0.00</rpm>
</extensions>
</trkpt>
<trkpt lat="64.310592651" lon="-20.305292130">
<ele>112.880859</ele>
<time>2012-07-19T20:41:26Z</time>
<extensions>
<speed>0.0</speed>
<temp>0.00</temp>
<bpm>0</bpm>
<rpm>0.00</rpm>
</extensions>
</trkpt>
<trkpt lat="64.310592651" lon="-20.305292130">
<ele>112.912109</ele>
<time>2012-07-19T20:41:31Z</time>
<speed>0.010000</speed>
<extensions>
<speed>0.0</speed>
<temp>0.00</temp>
<bpm>0</bpm>
<rpm>0.00</rpm>
</extensions>
</trkpt>
<trkpt lat="64.310592651" lon="-20.305290222">
<ele>112.919922</ele>
<time>2012-07-19T20:41:36Z</time>
<extensions>
<speed>0.0</speed>
<temp>0.00</temp>
<bpm>0</bpm>
<rpm>0.00</rpm>
</extensions>
</trkpt>
<trkpt lat="64.310592651" lon="-20.305290222">
<ele>112.925781</ele>
<time>2012-07-19T20:41:41Z</time>
<extensions>
<speed>0.0</speed>
<temp>0.00</temp>
<bpm>0</bpm>
<rpm>0.00</rpm>
</extensions>
</trkpt>
<trkpt lat="64.310592651" lon="-20.305290222">
<ele>112.937500</ele>
<time>2012-07-19T20:41:46Z</time>
<speed>0.010000</speed>
<extensions>
<speed>0.0</speed>
<temp>0.00</temp>
<bpm>0</bpm>
<rpm>0.00</rpm>
</extensions>
</trkpt>
<trkpt lat="64.310592651" lon="-20.305290222">
<ele>112.939453</ele>
<time>2012-07-19T20:41:51Z</time>
<extensions>
<speed>0.0</speed>
<temp>0.00</temp>
<bpm>0</bpm>
<rpm>0.00</rpm>
</extensions>
</trkpt>
<trkpt lat="64.310592651" lon="-20.305290222">
<ele>112.939453</ele>
<time>2012-07-19T20:41:56Z</time>
<speed>0.010000</speed>
<extensions>
<speed>0.0</speed>
<temp>0.00</temp>
<bpm>0</bpm>
<rpm>0.00</rpm>
</extensions>
</trkpt>
<trkpt lat="64.310592651" lon="-20.305290222">
<ele>112.949219</ele>
<time>2012-07-19T20:42:01Z</time>
<extensions>
<speed>0.0</speed>
<temp>0.00</temp>
<bpm>0</bpm>
<rpm>0.00</rpm>
</extensions>
</trkpt>
<trkpt lat="64.310592651" lon="-20.305290222">
<ele>112.949219</ele>
<time>2012-07-19T20:42:06Z</time>
<extensions>
<speed>0.0</speed>
<temp>0.00</temp>
<bpm>0</bpm>
<rpm>0.00</rpm>
</extensions>
</trkpt>
<trkpt lat="64.310592651" lon="-20.305290222">
<ele>112.974609</ele>
<time>2012-07-19T20:42:11Z</time>
<extensions>
<speed>0.0</speed>
<temp>0.00</temp>
<bpm>0</bpm>
<rpm>0.00</rpm>
</extensions>
</trkpt>
<trkpt lat="64.310592651" lon="-20.305288315">
<ele>112.984375</ele>
<time>2012-07-19T20:42:16Z</time>
<extensions>
<speed>0.0</speed>
<temp>0.00</temp>
<bpm>0</bpm>
<rpm>0.00</rpm>
</extensions>
</trkpt>
<trkpt lat="64.310592651" lon="-20.305290222">
<ele>113.007813</ele>
<time>2012-07-19T20:42:21Z</time>
<extensions>
<speed>0.0</speed>
<temp>0.00</temp>
<bpm>0</bpm>
<rpm>0.00</rpm>
</extensions>
</trkpt>
<trkpt lat="64.310592651" lon="-20.305290222">
<ele>113.027344</ele>
<time>2012-07-19T20:42:26Z</time>
<speed>0.010000</speed>
<extensions>
<speed>0.0</speed>
<temp>0.00</temp>
<bpm>0</bpm>
<rpm>0.00</rpm>
</extensions>
</trkpt>
<trkpt lat="64.310592651" lon="-20.305290222">
<ele>113.044922</ele>
<time>2012-07-19T20:42:31Z</time>
<extensions>
<speed>0.0</speed>
<temp>0.00</temp>
<bpm>0</bpm>
<rpm>0.00</rpm>
</extensions>
</trkpt>
<trkpt lat="64.310592651" lon="-20.305290222">
<ele>113.066406</ele>
<time>2012-07-19T20:42:36Z</time>
<extensions>
<speed>0.0</speed>
<temp>0.00</temp>
<bpm>0</bpm>
<rpm>0.00</rpm>
</extensions>
</trkpt>
<trkpt lat="64.310592651" lon="-20.305290222">
<ele>113.087891</ele>
<time>2012-07-19T20:42:41Z</time>
<extensions>
<speed>0.0</speed>
<temp>0.00</temp>
<bpm>0</bpm>
<rpm>0.00</rpm>
</extensions>
</trkpt>
<trkpt lat="64.310592651" lon="-20.305290222">
<ele>113.115234</ele>
<time>2012-07-19T20:42:46Z</time>
<extensions>
<speed>0.0</speed>
<temp>0.00</temp>
<bpm>0</bpm>
<rpm>0.00</rpm>
</extensions>
</trkpt>
<trkpt lat="64.310592651" lon="-20.305290222">
<ele>113.134766</ele>
<time>2012-07-19T20:42:51Z</time>
<speed>0.010000</speed>
<extensions>
<speed>0.0</speed>
<temp>0.00</temp>
<bpm>0</bpm>
<rpm>0.00</rpm>
</extensions>
</trkpt>
<trkpt lat="64.310592651" lon="-20.305290222">
<ele>113.158203</ele>
<time>2012-07-19T20:42:56Z</time>
<speed>0.010000</speed>
<extensions>
<speed>0.0</speed>
<temp>0.00</temp>
<bpm>0</bpm>
<rpm>0.00</rpm>
</extensions>
</trkpt>
<trkpt lat="64.310592651" lon="-20.305290222">
<ele>113.177734</ele>
<time>2012-07-19T20:43:01Z</time>
<extensions>
<speed>0.0</speed>
<temp>0.00</temp>
<bpm>0</bpm>
<rpm>0.00</rpm>
</extensions>
</trkpt>
<trkpt lat="64.310592651" lon="-20.305290222">
<ele>113.185547</ele>
<time>2012-07-19T20:43:06Z</time>
<extensions>
<speed>0.0</speed>
<temp>0.00</temp>
<bpm>0</bpm>
<rpm>0.00</rpm>
</extensions>
</trkpt>
<trkpt lat="64.310592651" lon="-20.305290222">
<ele>113.189453</ele>
<time>2012-07-19T20:43:11Z</time>
<extensions>
<speed>0.0</speed>
<temp>0.00</temp>
<bpm>0</bpm>
<rpm>0.00</rpm>
</extensions>
</trkpt>
<trkpt lat="64.310592651" lon="-20.305290222">
<ele>113.207031</ele>
<time>2012-07-19T20:43:16Z</time>
<extensions>
<speed>0.0</speed>
<temp>0.00</temp>
<bpm>0</bpm>
<rpm>0.00</rpm>
</extensions>
</trkpt>
<trkpt lat="64.310592651" lon="-20.305290222">
<ele>113.230469</ele>
<time>2012-07-19T20:43:21Z</time>
<extensions>
<speed>0.0</speed>
<temp>0.00</temp>
<bpm>0</bpm>
<rpm>0.00</rpm>
</extensions>
</trkpt>
<trkpt lat="64.310592651" lon="-20.305290222">
<ele>113.257813</ele>
<time>2012-07-19T20:43:26Z</time>
<extensions>
<speed>0.0</speed>
<temp>0.00</temp>
<bpm>0</bpm>
<rpm>0.00</rpm>
</extensions>
</trkpt>
<trkpt lat="64.310592651" lon="-20.305290222">
<ele>113.285156</ele>
<time>2012-07-19T20:43:31Z</time>
<extensions>
<speed>0.0</speed>
<temp>0.00</temp>
<bpm>0</bpm>
<rpm>0.00</rpm>
</extensions>
</trkpt>
<trkpt lat="64.310592651" lon="-20.305290222">
<ele>113.308594</ele>
<time>2012-07-19T20:43:36Z</time>
<extensions>
<speed>0.0</speed>
<temp>0.00</temp>
<bpm>0</bpm>
<rpm>0.00</rpm>
</extensions>
</trkpt>
<trkpt lat="64.310592651" lon="-20.305290222">
<ele>113.347656</ele>
<time>2012-07-19T20:43:41Z</time>
<extensions>
<speed>0.0</speed>
<temp>0.00</temp>
<bpm>0</bpm>
<rpm>0.00</rpm>
</extensions>
</trkpt>
<trkpt lat="64.310592651" lon="-20.305290222">
<ele>113.384766</ele>
<time>2012-07-19T20:43:46Z</time>
<extensions>
<speed>0.0</speed>
<temp>0.00</temp>
<bpm>0</bpm>
<rpm>0.00</rpm>
</extensions>
</trkpt>
<trkpt lat="64.310592651" lon="-20.305290222">
<ele>113.416016</ele>
<time>2012-07-19T20:43:51Z</time>
<extensions>
<speed>0.0</speed>
<temp>0.00</temp>
<bpm>0</bpm>
<rpm>0.00</rpm>
</extensions>
</trkpt>
<trkpt lat="64.310592651" lon="-20.305290222">
<ele>113.451172</ele>
<time>2012-07-19T20:43:56Z</time>
<extensions>
<speed>0.0</speed>
<temp>0.00</temp>
<bpm>0</bpm>
<rpm>0.00</rpm>
</extensions>
</trkpt>
<trkpt lat="64.310592651" lon="-20.305290222">
<ele>113.464844</ele>
<time>2012-07-19T20:44:01Z</time>
<extensions>
<speed>0.0</speed>
<temp>0.00</temp>
<bpm>0</bpm>
<rpm>0.00</rpm>
</extensions>
</trkpt>
<trkpt lat="64.310592651" lon="-20.305290222">
<ele>113.472656</ele>
<time>2012-07-19T20:44:06Z</time>
<extensions>
<speed>0.0</speed>
<temp>0.00</temp>
<bpm>0</bpm>
<rpm>0.00</rpm>
</extensions>
</trkpt>
<trkpt lat="64.310600281" lon="-20.305290222">
<ele>113.478516</ele>
<time>2012-07-19T20:44:11Z</time>
<extensions>
<speed>0.0</speed>
<temp>0.00</temp>
<bpm>0</bpm>
<rpm>0.00</rpm>
</extensions>
</trkpt>
<trkpt lat="64.310600281" lon="-20.305290222">
<ele>113.490234</ele>
<time>2012-07-19T20:44:16Z</time>
<extensions>
<speed>0.0</speed>
<temp>0.00</temp>
<bpm>0</bpm>
<rpm>0.00</rpm>
</extensions>
</trkpt>
<trkpt lat="64.310600281" lon="-20.305290222">
<ele>113.507813</ele>
<time>2012-07-19T20:44:21Z</time>
<extensions>
<speed>0.0</speed>
<temp>0.00</temp>
<bpm>0</bpm>
<rpm>0.00</rpm>
</extensions>
</trkpt>
<trkpt lat="64.310600281" lon="-20.305290222">
<ele>113.527344</ele>
<time>2012-07-19T20:44:26Z</time>
<extensions>
<speed>0.0</speed>
<temp>0.00</temp>
<bpm>0</bpm>
<rpm>0.00</rpm>
</extensions>
</trkpt>
<trkpt lat="64.310600281" lon="-20.305292130">
<ele>113.560547</ele>
<time>2012-07-19T20:44:31Z</time>
<speed>0.010000</speed>
<extensions>
<speed>0.0</speed>
<temp>0.00</temp>
<bpm>0</bpm>
<rpm>0.00</rpm>
</extensions>
</trkpt>
<trkpt lat="64.310600281" lon="-20.305292130">
<ele>113.580078</ele>
<time>2012-07-19T20:44:36Z</time>
<speed>0.010000</speed>
<extensions>
<speed>0.0</speed>
<temp>0.00</temp>
<bpm>0</bpm>
<rpm>0.00</rpm>
</extensions>
</trkpt>
<trkpt lat="64.310600281" lon="-20.305292130">
<ele>113.599609</ele>
<time>2012-07-19T20:44:41Z</time>
<extensions>
<speed>0.0</speed>
<temp>0.00</temp>
<bpm>0</bpm>
<rpm>0.00</rpm>
</extensions>
</trkpt>
<trkpt lat="64.310600281" lon="-20.305292130">
<ele>113.607422</ele>
<time>2012-07-19T20:44:46Z</time>
<extensions>
<speed>0.0</speed>
<temp>0.00</temp>
<bpm>0</bpm>
<rpm>0.00</rpm>
</extensions>
</trkpt>
<trkpt lat="64.310600281" lon="-20.305290222">
<ele>113.613281</ele>
<time>2012-07-19T20:44:51Z</time>
<extensions>
<speed>0.0</speed>
<temp>0.00</temp>
<bpm>0</bpm>
<rpm>0.00</rpm>
</extensions>
</trkpt>
<trkpt lat="64.310600281" lon="-20.305292130">
<ele>113.613281</ele>
<time>2012-07-19T20:44:56Z</time>
<extensions>
<speed>0.0</speed>
<temp>0.00</temp>
<bpm>0</bpm>
<rpm>0.00</rpm>
</extensions>
</trkpt>
<trkpt lat="64.310600281" lon="-20.305290222">
<ele>113.603516</ele>
<time>2012-07-19T20:45:01Z</time>
<extensions>
<speed>0.0</speed>
<temp>0.00</temp>
<bpm>0</bpm>
<rpm>0.00</rpm>
</extensions>
</trkpt>
<trkpt lat="64.310600281" lon="-20.305290222">
<ele>113.613281</ele>
<time>2012-07-19T20:45:06Z</time>
<extensions>
<speed>0.0</speed>
<temp>0.00</temp>
<bpm>0</bpm>
<rpm>0.00</rpm>
</extensions>
</trkpt>
<trkpt lat="64.310600281" lon="-20.305290222">
<ele>113.613281</ele>
<time>2012-07-19T20:45:11Z</time>
<extensions>
<speed>0.0</speed>
<temp>0.00</temp>
<bpm>0</bpm>
<rpm>0.00</rpm>
</extensions>
</trkpt>
<trkpt lat="64.310600281" lon="-20.305290222">
<ele>113.615234</ele>
<time>2012-07-19T20:45:16Z</time>
<extensions>
<speed>0.0</speed>
<temp>0.00</temp>
<bpm>0</bpm>
<rpm>0.00</rpm>
</extensions>
</trkpt>
<trkpt lat="64.310600281" lon="-20.305290222">
<ele>113.630859</ele>
<time>2012-07-19T20:45:21Z</time>
<extensions>
<speed>0.0</speed>
<temp>0.00</temp>
<bpm>0</bpm>
<rpm>0.00</rpm>
</extensions>
</trkpt>
<trkpt lat="64.310600281" lon="-20.305290222">
<ele>113.638672</ele>
<time>2012-07-19T20:45:26Z</time>
<extensions>
<speed>0.0</speed>
<temp>0.00</temp>
<bpm>0</bpm>
<rpm>0.00</rpm>
</extensions>
</trkpt>
<trkpt lat="64.310600281" lon="-20.305292130">
<ele>113.650391</ele>
<time>2012-07-19T20:45:31Z</time>
<extensions>
<speed>0.0</speed>
<temp>0.00</temp>
<bpm>0</bpm>
<rpm>0.00</rpm>
</extensions>
</trkpt>
<trkpt lat="64.310600281" lon="-20.305290222">
<ele>113.658203</ele>
<time>2012-07-19T20:45:36Z</time>
<extensions>
<speed>0.0</speed>
<temp>0.00</temp>
<bpm>0</bpm>
<rpm>0.00</rpm>
</extensions>
</trkpt>
<trkpt lat="64.310600281" lon="-20.305292130">
<ele>113.687500</ele>
<time>2012-07-19T20:45:41Z</time>
<extensions>
<speed>0.0</speed>
<temp>0.00</temp>
<bpm>0</bpm>
<rpm>0.00</rpm>
</extensions>
</trkpt>
<trkpt lat="64.310600281" lon="-20.305292130">
<ele>113.703125</ele>
<time>2012-07-19T20:45:46Z</time>
<extensions>
<speed>0.0</speed>
<temp>0.00</temp>
<bpm>0</bpm>
<rpm>0.00</rpm>
</extensions>
</trkpt>
<trkpt lat="64.310600281" lon="-20.305292130">
<ele>113.730469</ele>
<time>2012-07-19T20:45:51Z</time>
<extensions>
<speed>0.0</speed>
<temp>0.00</temp>
<bpm>0</bpm>
<rpm>0.00</rpm>
</extensions>
</trkpt>
<trkpt lat="64.310600281" lon="-20.305292130">
<ele>113.755859</ele>
<time>2012-07-19T20:45:56Z</time>
<extensions>
<speed>0.0</speed>
<temp>0.00</temp>
<bpm>0</bpm>
<rpm>0.00</rpm>
</extensions>
</trkpt>
<trkpt lat="64.310600281" lon="-20.305292130">
<ele>113.771484</ele>
<time>2012-07-19T20:46:01Z</time>
<extensions>
<speed>0.0</speed>
<temp>0.00</temp>
<bpm>0</bpm>
<rpm>0.00</rpm>
</extensions>
</trkpt>
<trkpt lat="64.310600281" lon="-20.305292130">
<ele>113.789063</ele>
<time>2012-07-19T20:46:06Z</time>
<extensions>
<speed>0.0</speed>
<temp>0.00</temp>
<bpm>0</bpm>
<rpm>0.00</rpm>
</extensions>
</trkpt>
<trkpt lat="64.310600281" lon="-20.305290222">
<ele>113.794922</ele>
<time>2012-07-19T20:46:11Z</time>
<extensions>
<speed>0.0</speed>
<temp>0.00</temp>
<bpm>0</bpm>
<rpm>0.00</rpm>
</extensions>
</trkpt>
<trkpt lat="64.310600281" lon="-20.305290222">
<ele>113.802734</ele>
<time>2012-07-19T20:46:16Z</time>
<speed>0.010000</speed>
<extensions>
<speed>0.0</speed>
<temp>0.00</temp>
<bpm>0</bpm>
<rpm>0.00</rpm>
</extensions>
</trkpt>
<trkpt lat="64.310600281" lon="-20.305290222">
<ele>113.816406</ele>
<time>2012-07-19T20:46:21Z</time>
<extensions>
<speed>0.0</speed>
<temp>0.00</temp>
<bpm>0</bpm>
<rpm>0.00</rpm>
</extensions>
</trkpt>
<trkpt lat="64.310600281" lon="-20.305292130">
<ele>113.839844</ele>
<time>2012-07-19T20:46:26Z</time>
<extensions>
<speed>0.0</speed>
<temp>0.00</temp>
<bpm>0</bpm>
<rpm>0.00</rpm>
</extensions>
</trkpt>
<trkpt lat="64.310600281" lon="-20.305292130">
<ele>113.855469</ele>
<time>2012-07-19T20:46:31Z</time>
<extensions>
<speed>0.0</speed>
<temp>0.00</temp>
<bpm>0</bpm>
<rpm>0.00</rpm>
</extensions>
</trkpt>
<trkpt lat="64.310600281" lon="-20.305292130">
<ele>113.884766</ele>
<time>2012-07-19T20:46:36Z</time>
<extensions>
<speed>0.0</speed>
<temp>0.00</temp>
<bpm>0</bpm>
<rpm>0.00</rpm>
</extensions>
</trkpt>
<trkpt lat="64.310600281" lon="-20.305292130">
<ele>113.904297</ele>
<time>2012-07-19T20:46:41Z</time>
<extensions>
<speed>0.0</speed>
<temp>0.00</temp>
<bpm>0</bpm>
<rpm>0.00</rpm>
</extensions>
</trkpt>
<trkpt lat="64.310600281" lon="-20.305292130">
<ele>113.927734</ele>
<time>2012-07-19T20:46:46Z</time>
<extensions>
<speed>0.0</speed>
<temp>0.00</temp>
<bpm>0</bpm>
<rpm>0.00</rpm>
</extensions>
</trkpt>
<trkpt lat="64.310600281" lon="-20.305292130">
<ele>113.939453</ele>
<time>2012-07-19T20:46:51Z</time>
<extensions>
<speed>0.0</speed>
<temp>0.00</temp>
<bpm>0</bpm>
<rpm>0.00</rpm>
</extensions>
</trkpt>
<trkpt lat="64.310600281" lon="-20.305292130">
<ele>113.949219</ele>
<time>2012-07-19T20:46:56Z</time>
<extensions>
<speed>0.0</speed>
<temp>0.00</temp>
<bpm>0</bpm>
<rpm>0.00</rpm>
</extensions>
</trkpt>
<trkpt lat="64.310600281" lon="-20.305292130">
<ele>113.947266</ele>
<time>2012-07-19T20:47:01Z</time>
<extensions>
<speed>0.0</speed>
<temp>0.00</temp>
<bpm>0</bpm>
<rpm>0.00</rpm>
</extensions>
</trkpt>
<trkpt lat="64.310600281" lon="-20.305292130">
<ele>113.960938</ele>
<time>2012-07-19T20:47:06Z</time>
<speed>0.010000</speed>
<extensions>
<speed>0.0</speed>
<temp>0.00</temp>
<bpm>0</bpm>
<rpm>0.00</rpm>
</extensions>
</trkpt>
<trkpt lat="64.310600281" lon="-20.305292130">
<ele>113.964844</ele>
<time>2012-07-19T20:47:11Z</time>
<extensions>
<speed>0.0</speed>
<temp>0.00</temp>
<bpm>0</bpm>
<rpm>0.00</rpm>
</extensions>
</trkpt>
<trkpt lat="64.310600281" lon="-20.305292130">
<ele>113.968750</ele>
<time>2012-07-19T20:47:16Z</time>
<extensions>
<speed>0.0</speed>
<temp>0.00</temp>
<bpm>0</bpm>
<rpm>0.00</rpm>
</extensions>
</trkpt>
<trkpt lat="64.310600281" lon="-20.305292130">
<ele>113.968750</ele>
<time>2012-07-19T20:47:21Z</time>
<extensions>
<speed>0.0</speed>
<temp>0.00</temp>
<bpm>0</bpm>
<rpm>0.00</rpm>
</extensions>
</trkpt>
<trkpt lat="64.310600281" lon="-20.305292130">
<ele>113.980469</ele>
<time>2012-07-19T20:47:26Z</time>
<extensions>
<speed>0.0</speed>
<temp>0.00</temp>
<bpm>0</bpm>
<rpm>0.00</rpm>
</extensions>
</trkpt>
<trkpt lat="64.310600281" lon="-20.305292130">
<ele>114.001953</ele>
<time>2012-07-19T20:47:31Z</time>
<speed>0.010000</speed>
<extensions>
<speed>0.0</speed>
<temp>0.00</temp>
<bpm>0</bpm>
<rpm>0.00</rpm>
</extensions>
</trkpt>
<trkpt lat="64.310600281" lon="-20.305292130">
<ele>114.039063</ele>
<time>2012-07-19T20:47:36Z</time>
<speed>0.010000</speed>
<extensions>
<speed>0.0</speed>
<temp>0.00</temp>
<bpm>0</bpm>
<rpm>0.00</rpm>
</extensions>
</trkpt>
<trkpt lat="64.310600281" lon="-20.305294037">
<ele>114.074219</ele>
<time>2012-07-19T20:47:41Z</time>
<extensions>
<speed>0.0</speed>
<temp>0.00</temp>
<bpm>0</bpm>
<rpm>0.00</rpm>
</extensions>
</trkpt>
<trkpt lat="64.310600281" lon="-20.305294037">
<ele>114.099609</ele>
<time>2012-07-19T20:47:46Z</time>
<speed>0.010000</speed>
<extensions>
<speed>0.0</speed>
<temp>0.00</temp>
<bpm>0</bpm>
<rpm>0.00</rpm>
</extensions>
</trkpt>
<trkpt lat="64.310600281" lon="-20.305294037">
<ele>114.115234</ele>
<time>2012-07-19T20:47:51Z</time>
<speed>0.010000</speed>
<extensions>
<speed>0.0</speed>
<temp>0.00</temp>
<bpm>0</bpm>
<rpm>0.00</rpm>
</extensions>
</trkpt>
<trkpt lat="64.310600281" lon="-20.305294037">
<ele>114.130859</ele>
<time>2012-07-19T20:47:56Z</time>
<extensions>
<speed>0.0</speed>
<temp>0.00</temp>
<bpm>0</bpm>
<rpm>0.00</rpm>
</extensions>
</trkpt>
<trkpt lat="64.310600281" lon="-20.305294037">
<ele>114.152344</ele>
<time>2012-07-19T20:48:01Z</time>
<speed>0.010000</speed>
<extensions>
<speed>0.0</speed>
<temp>0.00</temp>
<bpm>0</bpm>
<rpm>0.00</rpm>
</extensions>
</trkpt>
<trkpt lat="64.310600281" lon="-20.305294037">
<ele>114.173828</ele>
<time>2012-07-19T20:48:06Z</time>
<extensions>
<speed>0.0</speed>
<temp>0.00</temp>
<bpm>0</bpm>
<rpm>0.00</rpm>
</extensions>
</trkpt>
<trkpt lat="64.310600281" lon="-20.305294037">
<ele>114.197266</ele>
<time>2012-07-19T20:48:11Z</time>
<extensions>
<speed>0.0</speed>
<temp>0.00</temp>
<bpm>0</bpm>
<rpm>0.00</rpm>
</extensions>
</trkpt>
<trkpt lat="64.310600281" lon="-20.305294037">
<ele>114.218750</ele>
<time>2012-07-19T20:48:16Z</time>
<extensions>
<speed>0.0</speed>
<temp>0.00</temp>
<bpm>0</bpm>
<rpm>0.00</rpm>
</extensions>
</trkpt>
<trkpt lat="64.310600281" lon="-20.305294037">
<ele>114.246094</ele>
<time>2012-07-19T20:48:21Z</time>
<extensions>
<speed>0.0</speed>
<temp>0.00</temp>
<bpm>0</bpm>
<rpm>0.00</rpm>
</extensions>
</trkpt>
<trkpt lat="64.310600281" lon="-20.305294037">
<ele>114.277344</ele>
<time>2012-07-19T20:48:26Z</time>
<extensions>
<speed>0.0</speed>
<temp>0.00</temp>
<bpm>0</bpm>
<rpm>0.00</rpm>
</extensions>
</trkpt>
<trkpt lat="64.310592651" lon="-20.305294037">
<ele>114.312500</ele>
<time>2012-07-19T20:48:31Z</time>
<extensions>
<speed>0.0</speed>
<temp>0.00</temp>
<bpm>0</bpm>
<rpm>0.00</rpm>
</extensions>
</trkpt>
<trkpt lat="64.310592651" lon="-20.305294037">
<ele>114.328125</ele>
<time>2012-07-19T20:48:36Z</time>
<extensions>
<speed>0.0</speed>
<temp>0.00</temp>
<bpm>0</bpm>
<rpm>0.00</rpm>
</extensions>
</trkpt>
<trkpt lat="64.310592651" lon="-20.305294037">
<ele>114.343750</ele>
<time>2012-07-19T20:48:41Z</time>
<extensions>
<speed>0.0</speed>
<temp>0.00</temp>
<bpm>0</bpm>
<rpm>0.00</rpm>
</extensions>
</trkpt>
<trkpt lat="64.310592651" lon="-20.305294037">
<ele>114.359375</ele>
<time>2012-07-19T20:48:46Z</time>
<extensions>
<speed>0.0</speed>
<temp>0.00</temp>
<bpm>0</bpm>
<rpm>0.00</rpm>
</extensions>
</trkpt>
<trkpt lat="64.310592651" lon="-20.305294037">
<ele>114.384766</ele>
<time>2012-07-19T20:48:51Z</time>
<speed>0.010000</speed>
<extensions>
<speed>0.0</speed>
<temp>0.00</temp>
<bpm>0</bpm>
<rpm>0.00</rpm>
</extensions>
</trkpt>
<trkpt lat="64.310592651" lon="-20.305294037">
<ele>114.404297</ele>
<time>2012-07-19T20:48:56Z</time>
<extensions>
<speed>0.0</speed>
<temp>0.00</temp>
<bpm>0</bpm>
<rpm>0.00</rpm>
</extensions>
</trkpt>
<trkpt lat="64.310592651" lon="-20.305294037">
<ele>114.421875</ele>
<time>2012-07-19T20:49:01Z</time>
<extensions>
<speed>0.0</speed>
<temp>0.00</temp>
<bpm>0</bpm>
<rpm>0.00</rpm>
</extensions>
</trkpt>
<trkpt lat="64.310592651" lon="-20.305294037">
<ele>114.447266</ele>
<time>2012-07-19T20:49:06Z</time>
<extensions>
<speed>0.0</speed>
<temp>0.00</temp>
<bpm>0</bpm>
<rpm>0.00</rpm>
</extensions>
</trkpt>
<trkpt lat="64.310592651" lon="-20.305294037">
<ele>114.455078</ele>
<time>2012-07-19T20:49:11Z</time>
<extensions>
<speed>0.0</speed>
<temp>0.00</temp>
<bpm>0</bpm>
<rpm>0.00</rpm>
</extensions>
</trkpt>
<trkpt lat="64.310592651" lon="-20.305294037">
<ele>114.470703</ele>
<time>2012-07-19T20:49:16Z</time>
<extensions>
<speed>0.0</speed>
<temp>0.00</temp>
<bpm>0</bpm>
<rpm>0.00</rpm>
</extensions>
</trkpt>
<trkpt lat="64.310592651" lon="-20.305294037">
<ele>114.476563</ele>
<time>2012-07-19T20:49:21Z</time>
<extensions>
<speed>0.0</speed>
<temp>0.00</temp>
<bpm>0</bpm>
<rpm>0.00</rpm>
</extensions>
</trkpt>
<trkpt lat="64.310592651" lon="-20.305294037">
<ele>114.486328</ele>
<time>2012-07-19T20:49:26Z</time>
<extensions>
<speed>0.0</speed>
<temp>0.00</temp>
<bpm>0</bpm>
<rpm>0.00</rpm>
</extensions>
</trkpt>
<trkpt lat="64.310592651" lon="-20.305294037">
<ele>114.507813</ele>
<time>2012-07-19T20:49:31Z</time>
<extensions>
<speed>0.0</speed>
<temp>0.00</temp>
<bpm>0</bpm>
<rpm>0.00</rpm>
</extensions>
</trkpt>
<trkpt lat="64.310592651" lon="-20.305294037">
<ele>114.550781</ele>
<time>2012-07-19T20:49:36Z</time>
<extensions>
<speed>0.0</speed>
<temp>0.00</temp>
<bpm>0</bpm>
<rpm>0.00</rpm>
</extensions>
</trkpt>
<trkpt lat="64.310592651" lon="-20.305294037">
<ele>114.589844</ele>
<time>2012-07-19T20:49:41Z</time>
<extensions>
<speed>0.0</speed>
<temp>0.00</temp>
<bpm>0</bpm>
<rpm>0.00</rpm>
</extensions>
</trkpt>
<trkpt lat="64.310592651" lon="-20.305294037">
<ele>114.623047</ele>
<time>2012-07-19T20:49:46Z</time>
<extensions>
<speed>0.0</speed>
<temp>0.00</temp>
<bpm>0</bpm>
<rpm>0.00</rpm>
</extensions>
</trkpt>
<trkpt lat="64.310592651" lon="-20.305294037">
<ele>114.644531</ele>
<time>2012-07-19T20:49:51Z</time>
<extensions>
<speed>0.0</speed>
<temp>0.00</temp>
<bpm>0</bpm>
<rpm>0.00</rpm>
</extensions>
</trkpt>
<trkpt lat="64.310592651" lon="-20.305294037">
<ele>114.664063</ele>
<time>2012-07-19T20:49:56Z</time>
<extensions>
<speed>0.0</speed>
<temp>0.00</temp>
<bpm>0</bpm>
<rpm>0.00</rpm>
</extensions>
</trkpt>
<trkpt lat="64.310592651" lon="-20.305295944">
<ele>114.675781</ele>
<time>2012-07-19T20:50:01Z</time>
<extensions>
<speed>0.0</speed>
<temp>0.00</temp>
<bpm>0</bpm>
<rpm>0.00</rpm>
</extensions>
</trkpt>
<trkpt lat="64.310592651" lon="-20.305295944">
<ele>114.693359</ele>
<time>2012-07-19T20:50:06Z</time>
<extensions>
<speed>0.0</speed>
<temp>0.00</temp>
<bpm>0</bpm>
<rpm>0.00</rpm>
</extensions>
</trkpt>
<trkpt lat="64.310592651" lon="-20.305295944">
<ele>114.707031</ele>
<time>2012-07-19T20:50:11Z</time>
<speed>0.010000</speed>
<extensions>
<speed>0.0</speed>
<temp>0.00</temp>
<bpm>0</bpm>
<rpm>0.00</rpm>
</extensions>
</trkpt>
<trkpt lat="64.310592651" lon="-20.305295944">
<ele>114.730469</ele>
<time>2012-07-19T20:50:16Z</time>
<speed>0.010000</speed>
<extensions>
<speed>0.0</speed>
<temp>0.00</temp>
<bpm>0</bpm>
<rpm>0.00</rpm>
</extensions>
</trkpt>
<trkpt lat="64.310592651" lon="-20.305295944">
<ele>114.748047</ele>
<time>2012-07-19T20:50:21Z</time>
<extensions>
<speed>0.0</speed>
<temp>0.00</temp>
<bpm>0</bpm>
<rpm>0.00</rpm>
</extensions>
</trkpt>
<trkpt lat="64.310592651" lon="-20.305295944">
<ele>114.753906</ele>
<time>2012-07-19T20:50:26Z</time>
<speed>0.010000</speed>
<extensions>
<speed>0.0</speed>
<temp>0.00</temp>
<bpm>0</bpm>
<rpm>0.00</rpm>
</extensions>
</trkpt>
<trkpt lat="64.310592651" lon="-20.305295944">
<ele>114.761719</ele>
<time>2012-07-19T20:50:31Z</time>
<speed>0.010000</speed>
<extensions>
<speed>0.0</speed>
<temp>0.00</temp>
<bpm>0</bpm>
<rpm>0.00</rpm>
</extensions>
</trkpt>
<trkpt lat="64.310592651" lon="-20.305295944">
<ele>114.755859</ele>
<time>2012-07-19T20:50:36Z</time>
<extensions>
<speed>0.0</speed>
<temp>0.00</temp>
<bpm>0</bpm>
<rpm>0.00</rpm>
</extensions>
</trkpt>
<trkpt lat="64.310592651" lon="-20.305294037">
<ele>114.748047</ele>
<time>2012-07-19T20:50:41Z</time>
<speed>0.010000</speed>
<extensions>
<speed>0.0</speed>
<temp>0.00</temp>
<bpm>0</bpm>
<rpm>0.00</rpm>
</extensions>
</trkpt>
<trkpt lat="64.310592651" lon="-20.305294037">
<ele>114.728516</ele>
<time>2012-07-19T20:50:46Z</time>
<extensions>
<speed>0.0</speed>
<temp>0.00</temp>
<bpm>0</bpm>
<rpm>0.00</rpm>
</extensions>
</trkpt>
<trkpt lat="64.310592651" lon="-20.305294037">
<ele>114.736328</ele>
<time>2012-07-19T20:50:51Z</time>
<extensions>
<speed>0.0</speed>
<temp>0.00</temp>
<bpm>0</bpm>
<rpm>0.00</rpm>
</extensions>
</trkpt>
<trkpt lat="64.310592651" lon="-20.305294037">
<ele>114.740234</ele>
<time>2012-07-19T20:50:56Z</time>
<speed>0.010000</speed>
<extensions>
<speed>0.0</speed>
<temp>0.00</temp>
<bpm>0</bpm>
<rpm>0.00</rpm>
</extensions>
</trkpt>
<trkpt lat="64.310592651" lon="-20.305294037">
<ele>114.746094</ele>
<time>2012-07-19T20:51:01Z</time>
<speed>0.010000</speed>
<extensions>
<speed>0.0</speed>
<temp>0.00</temp>
<bpm>0</bpm>
<rpm>0.00</rpm>
</extensions>
</trkpt>
<trkpt lat="64.310592651" lon="-20.305294037">
<ele>114.718750</ele>
<time>2012-07-19T20:51:06Z</time>
<extensions>
<speed>0.0</speed>
<temp>0.00</temp>
<bpm>0</bpm>
<rpm>0.00</rpm>
</extensions>
</trkpt>
<trkpt lat="64.310592651" lon="-20.305294037">
<ele>114.683594</ele>
<time>2012-07-19T20:51:11Z</time>
<extensions>
<speed>0.0</speed>
<temp>0.00</temp>
<bpm>0</bpm>
<rpm>0.00</rpm>
</extensions>
</trkpt>
<trkpt lat="64.310592651" lon="-20.305294037">
<ele>114.644531</ele>
<time>2012-07-19T20:51:16Z</time>
<extensions>
<speed>0.0</speed>
<temp>0.00</temp>
<bpm>0</bpm>
<rpm>0.00</rpm>
</extensions>
</trkpt>
<trkpt lat="64.310592651" lon="-20.305294037">
<ele>114.609375</ele>
<time>2012-07-19T20:51:21Z</time>
<extensions>
<speed>0.0</speed>
<temp>0.00</temp>
<bpm>0</bpm>
<rpm>0.00</rpm>
</extensions>
</trkpt>
<trkpt lat="64.310592651" lon="-20.305292130">
<ele>114.580078</ele>
<time>2012-07-19T20:51:26Z</time>
<extensions>
<speed>0.0</speed>
<temp>0.00</temp>
<bpm>0</bpm>
<rpm>0.00</rpm>
</extensions>
</trkpt>
<trkpt lat="64.310592651" lon="-20.305292130">
<ele>114.558594</ele>
<time>2012-07-19T20:51:31Z</time>
<extensions>
<speed>0.0</speed>
<temp>0.00</temp>
<bpm>0</bpm>
<rpm>0.00</rpm>
</extensions>
</trkpt>
<trkpt lat="64.310592651" lon="-20.305292130">
<ele>114.539063</ele>
<time>2012-07-19T20:51:36Z</time>
<extensions>
<speed>0.0</speed>
<temp>0.00</temp>
<bpm>0</bpm>
<rpm>0.00</rpm>
</extensions>
</trkpt>
<trkpt lat="64.310592651" lon="-20.305292130">
<ele>114.531250</ele>
<time>2012-07-19T20:51:41Z</time>
<speed>0.010000</speed>
<extensions>
<speed>0.0</speed>
<temp>0.00</temp>
<bpm>0</bpm>
<rpm>0.00</rpm>
</extensions>
</trkpt>
<trkpt lat="64.310592651" lon="-20.305292130">
<ele>114.527344</ele>
<time>2012-07-19T20:51:46Z</time>
<extensions>
<speed>0.0</speed>
<temp>0.00</temp>
<bpm>0</bpm>
<rpm>0.00</rpm>
</extensions>
</trkpt>
<trkpt lat="64.310592651" lon="-20.305292130">
<ele>114.537109</ele>
<time>2012-07-19T20:51:51Z</time>
<extensions>
<speed>0.0</speed>
<temp>0.00</temp>
<bpm>0</bpm>
<rpm>0.00</rpm>
</extensions>
</trkpt>
<trkpt lat="64.310592651" lon="-20.305292130">
<ele>114.533203</ele>
<time>2012-07-19T20:51:56Z</time>
<speed>0.010000</speed>
<extensions>
<speed>0.0</speed>
<temp>0.00</temp>
<bpm>0</bpm>
<rpm>0.00</rpm>
</extensions>
</trkpt>
<trkpt lat="64.310592651" lon="-20.305292130">
<ele>114.535156</ele>
<time>2012-07-19T20:52:01Z</time>
<extensions>
<speed>0.0</speed>
<temp>0.00</temp>
<bpm>0</bpm>
<rpm>0.00</rpm>
</extensions>
</trkpt>
<trkpt lat="64.310592651" lon="-20.305292130">
<ele>114.531250</ele>
<time>2012-07-19T20:52:06Z</time>
<extensions>
<speed>0.0</speed>
<temp>0.00</temp>
<bpm>0</bpm>
<rpm>0.00</rpm>
</extensions>
</trkpt>
<trkpt lat="64.310592651" lon="-20.305294037">
<ele>114.546875</ele>
<time>2012-07-19T20:52:11Z</time>
<extensions>
<speed>0.0</speed>
<temp>0.00</temp>
<bpm>0</bpm>
<rpm>0.00</rpm>
</extensions>
</trkpt>
<trkpt lat="64.310592651" lon="-20.305294037">
<ele>114.529297</ele>
<time>2012-07-19T20:52:16Z</time>
<extensions>
<speed>0.0</speed>
<temp>0.00</temp>
<bpm>0</bpm>
<rpm>0.00</rpm>
</extensions>
</trkpt>
<trkpt lat="64.310592651" lon="-20.305294037">
<ele>114.521484</ele>
<time>2012-07-19T20:52:21Z</time>
<extensions>
<speed>0.0</speed>
<temp>0.00</temp>
<bpm>0</bpm>
<rpm>0.00</rpm>
</extensions>
</trkpt>
<trkpt lat="64.310592651" lon="-20.305294037">
<ele>114.531250</ele>
<time>2012-07-19T20:52:26Z</time>
<extensions>
<speed>0.0</speed>
<temp>0.00</temp>
<bpm>0</bpm>
<rpm>0.00</rpm>
</extensions>
</trkpt>
<trkpt lat="64.310592651" lon="-20.305294037">
<ele>114.525391</ele>
<time>2012-07-19T20:52:31Z</time>
<extensions>
<speed>0.0</speed>
<temp>0.00</temp>
<bpm>0</bpm>
<rpm>0.00</rpm>
</extensions>
</trkpt>
<trkpt lat="64.310592651" lon="-20.305294037">
<ele>114.544922</ele>
<time>2012-07-19T20:52:36Z</time>
<speed>0.010000</speed>
<extensions>
<speed>0.0</speed>
<temp>0.00</temp>
<bpm>0</bpm>
<rpm>0.00</rpm>
</extensions>
</trkpt>
<trkpt lat="64.310592651" lon="-20.305294037">
<ele>114.539063</ele>
<time>2012-07-19T20:52:41Z</time>
<extensions>
<speed>0.0</speed>
<temp>0.00</temp>
<bpm>0</bpm>
<rpm>0.00</rpm>
</extensions>
</trkpt>
<trkpt lat="64.310592651" lon="-20.305294037">
<ele>114.533203</ele>
<time>2012-07-19T20:52:46Z</time>
<extensions>
<speed>0.0</speed>
<temp>0.00</temp>
<bpm>0</bpm>
<rpm>0.00</rpm>
</extensions>
</trkpt>
<trkpt lat="64.310592651" lon="-20.305294037">
<ele>114.529297</ele>
<time>2012-07-19T20:52:51Z</time>
<extensions>
<speed>0.0</speed>
<temp>0.00</temp>
<bpm>0</bpm>
<rpm>0.00</rpm>
</extensions>
</trkpt>
<trkpt lat="64.310592651" lon="-20.305294037">
<ele>114.521484</ele>
<time>2012-07-19T20:52:56Z</time>
<extensions>
<speed>0.0</speed>
<temp>0.00</temp>
<bpm>0</bpm>
<rpm>0.00</rpm>
</extensions>
</trkpt>
<trkpt lat="64.310592651" lon="-20.305294037">
<ele>114.521484</ele>
<time>2012-07-19T20:53:01Z</time>
<extensions>
<speed>0.0</speed>
<temp>0.00</temp>
<bpm>0</bpm>
<rpm>0.00</rpm>
</extensions>
</trkpt>
<trkpt lat="64.310592651" lon="-20.305294037">
<ele>114.535156</ele>
<time>2012-07-19T20:53:06Z</time>
<extensions>
<speed>0.0</speed>
<temp>0.00</temp>
<bpm>0</bpm>
<rpm>0.00</rpm>
</extensions>
</trkpt>
<trkpt lat="64.310592651" lon="-20.305292130">
<ele>114.542969</ele>
<time>2012-07-19T20:53:11Z</time>
<extensions>
<speed>0.0</speed>
<temp>0.00</temp>
<bpm>0</bpm>
<rpm>0.00</rpm>
</extensions>
</trkpt>
<trkpt lat="64.310592651" lon="-20.305294037">
<ele>114.556641</ele>
<time>2012-07-19T20:53:16Z</time>
<extensions>
<speed>0.0</speed>
<temp>0.00</temp>
<bpm>0</bpm>
<rpm>0.00</rpm>
</extensions>
</trkpt>
<trkpt lat="64.310592651" lon="-20.305294037">
<ele>114.568359</ele>
<time>2012-07-19T20:53:21Z</time>
<extensions>
<speed>0.0</speed>
<temp>0.00</temp>
<bpm>0</bpm>
<rpm>0.00</rpm>
</extensions>
</trkpt>
<trkpt lat="64.310592651" lon="-20.305294037">
<ele>114.570313</ele>
<time>2012-07-19T20:53:26Z</time>
<extensions>
<speed>0.0</speed>
<temp>0.00</temp>
<bpm>0</bpm>
<rpm>0.00</rpm>
</extensions>
</trkpt>
<trkpt lat="64.310592651" lon="-20.305294037">
<ele>114.572266</ele>
<time>2012-07-19T20:53:31Z</time>
<extensions>
<speed>0.0</speed>
<temp>0.00</temp>
<bpm>0</bpm>
<rpm>0.00</rpm>
</extensions>
</trkpt>
<trkpt lat="64.310592651" lon="-20.305294037">
<ele>114.580078</ele>
<time>2012-07-19T20:53:36Z</time>
<extensions>
<speed>0.0</speed>
<temp>0.00</temp>
<bpm>0</bpm>
<rpm>0.00</rpm>
</extensions>
</trkpt>
<trkpt lat="64.310592651" lon="-20.305294037">
<ele>114.587891</ele>
<time>2012-07-19T20:53:41Z</time>
<extensions>
<speed>0.0</speed>
<temp>0.00</temp>
<bpm>0</bpm>
<rpm>0.00</rpm>
</extensions>
</trkpt>
<trkpt lat="64.310592651" lon="-20.305294037">
<ele>114.589844</ele>
<time>2012-07-19T20:53:46Z</time>
<extensions>
<speed>0.0</speed>
<temp>0.00</temp>
<bpm>0</bpm>
<rpm>0.00</rpm>
</extensions>
</trkpt>
<trkpt lat="64.310592651" lon="-20.305294037">
<ele>114.591797</ele>
<time>2012-07-19T20:53:51Z</time>
<extensions>
<speed>0.0</speed>
<temp>0.00</temp>
<bpm>0</bpm>
<rpm>0.00</rpm>
</extensions>
</trkpt>
<trkpt lat="64.310592651" lon="-20.305294037">
<ele>114.593750</ele>
<time>2012-07-19T20:53:56Z</time>
<extensions>
<speed>0.0</speed>
<temp>0.00</temp>
<bpm>0</bpm>
<rpm>0.00</rpm>
</extensions>
</trkpt>
<trkpt lat="64.310592651" lon="-20.305294037">
<ele>114.603516</ele>
<time>2012-07-19T20:54:01Z</time>
<extensions>
<speed>0.0</speed>
<temp>0.00</temp>
<bpm>0</bpm>
<rpm>0.00</rpm>
</extensions>
</trkpt>
<trkpt lat="64.310592651" lon="-20.305294037">
<ele>114.595703</ele>
<time>2012-07-19T20:54:06Z</time>
<extensions>
<speed>0.0</speed>
<temp>0.00</temp>
<bpm>0</bpm>
<rpm>0.00</rpm>
</extensions>
</trkpt>
<trkpt lat="64.310592651" lon="-20.305294037">
<ele>114.566406</ele>
<time>2012-07-19T20:54:11Z</time>
<extensions>
<speed>0.0</speed>
<temp>0.00</temp>
<bpm>0</bpm>
<rpm>0.00</rpm>
</extensions>
</trkpt>
<trkpt lat="64.310592651" lon="-20.305294037">
<ele>114.539063</ele>
<time>2012-07-19T20:54:16Z</time>
<extensions>
<speed>0.0</speed>
<temp>0.00</temp>
<bpm>0</bpm>
<rpm>0.00</rpm>
</extensions>
</trkpt>
<trkpt lat="64.310592651" lon="-20.305294037">
<ele>114.494141</ele>
<time>2012-07-19T20:54:21Z</time>
<extensions>
<speed>0.0</speed>
<temp>0.00</temp>
<bpm>0</bpm>
<rpm>0.00</rpm>
</extensions>
</trkpt>
<trkpt lat="64.310592651" lon="-20.305294037">
<ele>114.466797</ele>
<time>2012-07-19T20:54:26Z</time>
<extensions>
<speed>0.0</speed>
<temp>0.00</temp>
<bpm>0</bpm>
<rpm>0.00</rpm>
</extensions>
</trkpt>
<trkpt lat="64.310592651" lon="-20.305292130">
<ele>114.462891</ele>
<time>2012-07-19T20:54:31Z</time>
<extensions>
<speed>0.0</speed>
<temp>0.00</temp>
<bpm>0</bpm>
<rpm>0.00</rpm>
</extensions>
</trkpt>
<trkpt lat="64.310592651" lon="-20.305292130">
<ele>114.472656</ele>
<time>2012-07-19T20:54:36Z</time>
<extensions>
<speed>0.0</speed>
<temp>0.00</temp>
<bpm>0</bpm>
<rpm>0.00</rpm>
</extensions>
</trkpt>
<trkpt lat="64.310592651" lon="-20.305292130">
<ele>114.484375</ele>
<time>2012-07-19T20:54:41Z</time>
<extensions>
<speed>0.0</speed>
<temp>0.00</temp>
<bpm>0</bpm>
<rpm>0.00</rpm>
</extensions>
</trkpt>
<trkpt lat="64.310592651" lon="-20.305292130">
<ele>114.496094</ele>
<time>2012-07-19T20:54:46Z</time>
<extensions>
<speed>0.0</speed>
<temp>0.00</temp>
<bpm>0</bpm>
<rpm>0.00</rpm>
</extensions>
</trkpt>
<trkpt lat="64.310592651" lon="-20.305292130">
<ele>114.509766</ele>
<time>2012-07-19T20:54:51Z</time>
<extensions>
<speed>0.0</speed>
<temp>0.00</temp>
<bpm>0</bpm>
<rpm>0.00</rpm>
</extensions>
</trkpt>
<trkpt lat="64.310592651" lon="-20.305292130">
<ele>114.533203</ele>
<time>2012-07-19T20:54:56Z</time>
<extensions>
<speed>0.0</speed>
<temp>0.00</temp>
<bpm>0</bpm>
<rpm>0.00</rpm>
</extensions>
</trkpt>
<trkpt lat="64.310592651" lon="-20.305292130">
<ele>114.552734</ele>
<time>2012-07-19T20:55:01Z</time>
<extensions>
<speed>0.0</speed>
<temp>0.00</temp>
<bpm>0</bpm>
<rpm>0.00</rpm>
</extensions>
</trkpt>
<trkpt lat="64.310592651" lon="-20.305290222">
<ele>114.603516</ele>
<time>2012-07-19T20:55:06Z</time>
<speed>0.010000</speed>
<extensions>
<speed>0.0</speed>
<temp>0.00</temp>
<bpm>0</bpm>
<rpm>0.00</rpm>
</extensions>
</trkpt>
<trkpt lat="64.310592651" lon="-20.305290222">
<ele>114.636719</ele>
<time>2012-07-19T20:55:11Z</time>
<extensions>
<speed>0.0</speed>
<temp>0.00</temp>
<bpm>0</bpm>
<rpm>0.00</rpm>
</extensions>
</trkpt>
<trkpt lat="64.310592651" lon="-20.305290222">
<ele>114.669922</ele>
<time>2012-07-19T20:55:16Z</time>
<speed>0.010000</speed>
<extensions>
<speed>0.0</speed>
<temp>0.00</temp>
<bpm>0</bpm>
<rpm>0.00</rpm>
</extensions>
</trkpt>
<trkpt lat="64.310592651" lon="-20.305290222">
<ele>114.703125</ele>
<time>2012-07-19T20:55:21Z</time>
<extensions>
<speed>0.0</speed>
<temp>0.00</temp>
<bpm>0</bpm>
<rpm>0.00</rpm>
</extensions>
</trkpt>
<trkpt lat="64.310592651" lon="-20.305290222">
<ele>114.726563</ele>
<time>2012-07-19T20:55:26Z</time>
<extensions>
<speed>0.0</speed>
<temp>0.00</temp>
<bpm>0</bpm>
<rpm>0.00</rpm>
</extensions>
</trkpt>
<trkpt lat="64.310592651" lon="-20.305290222">
<ele>114.761719</ele>
<time>2012-07-19T20:55:31Z</time>
<extensions>
<speed>0.0</speed>
<temp>0.00</temp>
<bpm>0</bpm>
<rpm>0.00</rpm>
</extensions>
</trkpt>
<trkpt lat="64.310592651" lon="-20.305290222">
<ele>114.798828</ele>
<time>2012-07-19T20:55:36Z</time>
<extensions>
<speed>0.0</speed>
<temp>0.00</temp>
<bpm>0</bpm>
<rpm>0.00</rpm>
</extensions>
</trkpt>
<trkpt lat="64.310592651" lon="-20.305290222">
<ele>114.820313</ele>
<time>2012-07-19T20:55:41Z</time>
<extensions>
<speed>0.0</speed>
<temp>0.00</temp>
<bpm>0</bpm>
<rpm>0.00</rpm>
</extensions>
</trkpt>
<trkpt lat="64.310592651" lon="-20.305290222">
<ele>114.837891</ele>
<time>2012-07-19T20:55:46Z</time>
<extensions>
<speed>0.0</speed>
<temp>0.00</temp>
<bpm>0</bpm>
<rpm>0.00</rpm>
</extensions>
</trkpt>
<trkpt lat="64.310592651" lon="-20.305290222">
<ele>114.835938</ele>
<time>2012-07-19T20:55:51Z</time>
<extensions>
<speed>0.0</speed>
<temp>0.00</temp>
<bpm>0</bpm>
<rpm>0.00</rpm>
</extensions>
</trkpt>
<trkpt lat="64.310592651" lon="-20.305290222">
<ele>114.835938</ele>
<time>2012-07-19T20:55:56Z</time>
<extensions>
<speed>0.0</speed>
<temp>0.00</temp>
<bpm>0</bpm>
<rpm>0.00</rpm>
</extensions>
</trkpt>
<trkpt lat="64.310592651" lon="-20.305290222">
<ele>114.832031</ele>
<time>2012-07-19T20:56:01Z</time>
<extensions>
<speed>0.0</speed>
<temp>0.00</temp>
<bpm>0</bpm>
<rpm>0.00</rpm>
</extensions>
</trkpt>
<trkpt lat="64.310592651" lon="-20.305290222">
<ele>114.839844</ele>
<time>2012-07-19T20:56:06Z</time>
<extensions>
<speed>0.0</speed>
<temp>0.00</temp>
<bpm>0</bpm>
<rpm>0.00</rpm>
</extensions>
</trkpt>
<trkpt lat="64.310592651" lon="-20.305290222">
<ele>114.851563</ele>
<time>2012-07-19T20:56:11Z</time>
<extensions>
<speed>0.0</speed>
<temp>0.00</temp>
<bpm>0</bpm>
<rpm>0.00</rpm>
</extensions>
</trkpt>
<trkpt lat="64.310592651" lon="-20.305290222">
<ele>114.863281</ele>
<time>2012-07-19T20:56:16Z</time>
<extensions>
<speed>0.0</speed>
<temp>0.00</temp>
<bpm>0</bpm>
<rpm>0.00</rpm>
</extensions>
</trkpt>
<trkpt lat="64.310592651" lon="-20.305290222">
<ele>114.886719</ele>
<time>2012-07-19T20:56:21Z</time>
<extensions>
<speed>0.0</speed>
<temp>0.00</temp>
<bpm>0</bpm>
<rpm>0.00</rpm>
</extensions>
</trkpt>
<trkpt lat="64.310592651" lon="-20.305290222">
<ele>114.906250</ele>
<time>2012-07-19T20:56:26Z</time>
<extensions>
<speed>0.0</speed>
<temp>0.00</temp>
<bpm>0</bpm>
<rpm>0.00</rpm>
</extensions>
</trkpt>
<trkpt lat="64.310592651" lon="-20.305290222">
<ele>114.912109</ele>
<time>2012-07-19T20:56:31Z</time>
<extensions>
<speed>0.0</speed>
<temp>0.00</temp>
<bpm>0</bpm>
<rpm>0.00</rpm>
</extensions>
</trkpt>
<trkpt lat="64.310592651" lon="-20.305290222">
<ele>114.929688</ele>
<time>2012-07-19T20:56:36Z</time>
<extensions>
<speed>0.0</speed>
<temp>0.00</temp>
<bpm>0</bpm>
<rpm>0.00</rpm>
</extensions>
</trkpt>
<trkpt lat="64.310592651" lon="-20.305290222">
<ele>114.929688</ele>
<time>2012-07-19T20:56:41Z</time>
<extensions>
<speed>0.0</speed>
<temp>0.00</temp>
<bpm>0</bpm>
<rpm>0.00</rpm>
</extensions>
</trkpt>
<trkpt lat="64.310592651" lon="-20.305290222">
<ele>114.921875</ele>
<time>2012-07-19T20:56:46Z</time>
<extensions>
<speed>0.0</speed>
<temp>0.00</temp>
<bpm>0</bpm>
<rpm>0.00</rpm>
</extensions>
</trkpt>
<trkpt lat="64.310592651" lon="-20.305290222">
<ele>114.914063</ele>
<time>2012-07-19T20:56:51Z</time>
<extensions>
<speed>0.0</speed>
<temp>0.00</temp>
<bpm>0</bpm>
<rpm>0.00</rpm>
</extensions>
</trkpt>
<trkpt lat="64.310592651" lon="-20.305290222">
<ele>114.910156</ele>
<time>2012-07-19T20:56:56Z</time>
<extensions>
<speed>0.0</speed>
<temp>0.00</temp>
<bpm>0</bpm>
<rpm>0.00</rpm>
</extensions>
</trkpt>
<trkpt lat="64.310592651" lon="-20.305288315">
<ele>114.894531</ele>
<time>2012-07-19T20:57:01Z</time>
<extensions>
<speed>0.0</speed>
<temp>0.00</temp>
<bpm>0</bpm>
<rpm>0.00</rpm>
</extensions>
</trkpt>
<trkpt lat="64.310592651" lon="-20.305288315">
<ele>114.890625</ele>
<time>2012-07-19T20:57:06Z</time>
<extensions>
<speed>0.0</speed>
<temp>0.00</temp>
<bpm>0</bpm>
<rpm>0.00</rpm>
</extensions>
</trkpt>
<trkpt lat="64.310592651" lon="-20.305288315">
<ele>114.886719</ele>
<time>2012-07-19T20:57:11Z</time>
<extensions>
<speed>0.0</speed>
<temp>0.00</temp>
<bpm>0</bpm>
<rpm>0.00</rpm>
</extensions>
</trkpt>
<trkpt lat="64.310592651" lon="-20.305288315">
<ele>114.880859</ele>
<time>2012-07-19T20:57:16Z</time>
<extensions>
<speed>0.0</speed>
<temp>0.00</temp>
<bpm>0</bpm>
<rpm>0.00</rpm>
</extensions>
</trkpt>
<trkpt lat="64.310592651" lon="-20.305288315">
<ele>114.867188</ele>
<time>2012-07-19T20:57:21Z</time>
<extensions>
<speed>0.0</speed>
<temp>0.00</temp>
<bpm>0</bpm>
<rpm>0.00</rpm>
</extensions>
</trkpt>
<trkpt lat="64.310592651" lon="-20.305288315">
<ele>114.849609</ele>
<time>2012-07-19T20:57:26Z</time>
<extensions>
<speed>0.0</speed>
<temp>0.00</temp>
<bpm>0</bpm>
<rpm>0.00</rpm>
</extensions>
</trkpt>
<trkpt lat="64.310592651" lon="-20.305288315">
<ele>114.837891</ele>
<time>2012-07-19T20:57:31Z</time>
<extensions>
<speed>0.0</speed>
<temp>0.00</temp>
<bpm>0</bpm>
<rpm>0.00</rpm>
</extensions>
</trkpt>
<trkpt lat="64.310592651" lon="-20.305288315">
<ele>114.828125</ele>
<time>2012-07-19T20:57:36Z</time>
<speed>0.010000</speed>
<extensions>
<speed>0.0</speed>
<temp>0.00</temp>
<bpm>0</bpm>
<rpm>0.00</rpm>
</extensions>
</trkpt>
<trkpt lat="64.310592651" lon="-20.305288315">
<ele>114.822266</ele>
<time>2012-07-19T20:57:41Z</time>
<speed>0.010000</speed>
<extensions>
<speed>0.0</speed>
<temp>0.00</temp>
<bpm>0</bpm>
<rpm>0.00</rpm>
</extensions>
</trkpt>
<trkpt lat="64.310592651" lon="-20.305288315">
<ele>114.820313</ele>
<time>2012-07-19T20:57:46Z</time>
<extensions>
<speed>0.0</speed>
<temp>0.00</temp>
<bpm>0</bpm>
<rpm>0.00</rpm>
</extensions>
</trkpt>
<trkpt lat="64.310592651" lon="-20.305288315">
<ele>114.833984</ele>
<time>2012-07-19T20:57:51Z</time>
<extensions>
<speed>0.0</speed>
<temp>0.00</temp>
<bpm>0</bpm>
<rpm>0.00</rpm>
</extensions>
</trkpt>
<trkpt lat="64.310592651" lon="-20.305290222">
<ele>114.839844</ele>
<time>2012-07-19T20:57:56Z</time>
<extensions>
<speed>0.0</speed>
<temp>0.00</temp>
<bpm>0</bpm>
<rpm>0.00</rpm>
</extensions>
</trkpt>
<trkpt lat="64.310585022" lon="-20.305290222">
<ele>114.835938</ele>
<time>2012-07-19T20:58:01Z</time>
<speed>0.010000</speed>
<extensions>
<speed>0.0</speed>
<temp>0.00</temp>
<bpm>0</bpm>
<rpm>0.00</rpm>
</extensions>
</trkpt>
<trkpt lat="64.310585022" lon="-20.305290222">
<ele>114.826172</ele>
<time>2012-07-19T20:58:06Z</time>
<extensions>
<speed>0.0</speed>
<temp>0.00</temp>
<bpm>0</bpm>
<rpm>0.00</rpm>
</extensions>
</trkpt>
<trkpt lat="64.310585022" lon="-20.305290222">
<ele>114.828125</ele>
<time>2012-07-19T20:58:11Z</time>
<extensions>
<speed>0.0</speed>
<temp>0.00</temp>
<bpm>0</bpm>
<rpm>0.00</rpm>
</extensions>
</trkpt>
<trkpt lat="64.310585022" lon="-20.305290222">
<ele>114.843750</ele>
<time>2012-07-19T20:58:16Z</time>
<speed>0.010000</speed>
<extensions>
<speed>0.0</speed>
<temp>0.00</temp>
<bpm>0</bpm>
<rpm>0.00</rpm>
</extensions>
</trkpt>
<trkpt lat="64.310585022" lon="-20.305292130">
<ele>114.855469</ele>
<time>2012-07-19T20:58:21Z</time>
<extensions>
<speed>0.0</speed>
<temp>0.00</temp>
<bpm>0</bpm>
<rpm>0.00</rpm>
</extensions>
</trkpt>
<trkpt lat="64.310585022" lon="-20.305292130">
<ele>114.873047</ele>
<time>2012-07-19T20:58:26Z</time>
<extensions>
<speed>0.0</speed>
<temp>0.00</temp>
<bpm>0</bpm>
<rpm>0.00</rpm>
</extensions>
</trkpt>
<trkpt lat="64.310585022" lon="-20.305292130">
<ele>114.890625</ele>
<time>2012-07-19T20:58:31Z</time>
<extensions>
<speed>0.0</speed>
<temp>0.00</temp>
<bpm>0</bpm>
<rpm>0.00</rpm>
</extensions>
</trkpt>
<trkpt lat="64.310585022" lon="-20.305292130">
<ele>114.906250</ele>
<time>2012-07-19T20:58:36Z</time>
<extensions>
<speed>0.0</speed>
<temp>0.00</temp>
<bpm>0</bpm>
<rpm>0.00</rpm>
</extensions>
</trkpt>
<trkpt lat="64.310585022" lon="-20.305292130">
<ele>114.908203</ele>
<time>2012-07-19T20:58:41Z</time>
<extensions>
<speed>0.0</speed>
<temp>0.00</temp>
<bpm>0</bpm>
<rpm>0.00</rpm>
</extensions>
</trkpt>
<trkpt lat="64.310585022" lon="-20.305292130">
<ele>114.914063</ele>
<time>2012-07-19T20:58:46Z</time>
<extensions>
<speed>0.0</speed>
<temp>0.00</temp>
<bpm>0</bpm>
<rpm>0.00</rpm>
</extensions>
</trkpt>
<trkpt lat="64.310585022" lon="-20.305292130">
<ele>114.921875</ele>
<time>2012-07-19T20:58:51Z</time>
<speed>0.010000</speed>
<extensions>
<speed>0.0</speed>
<temp>0.00</temp>
<bpm>0</bpm>
<rpm>0.00</rpm>
</extensions>
</trkpt>
<trkpt lat="64.310585022" lon="-20.305292130">
<ele>114.925781</ele>
<time>2012-07-19T20:58:56Z</time>
<extensions>
<speed>0.0</speed>
<temp>0.00</temp>
<bpm>0</bpm>
<rpm>0.00</rpm>
</extensions>
</trkpt>
<trkpt lat="64.310585022" lon="-20.305292130">
<ele>114.929688</ele>
<time>2012-07-19T20:59:01Z</time>
<speed>0.020000</speed>
<extensions>
<speed>0.0</speed>
<temp>0.00</temp>
<bpm>0</bpm>
<rpm>0.00</rpm>
</extensions>
</trkpt>
<trkpt lat="64.310585022" lon="-20.305292130">
<ele>114.939453</ele>
<time>2012-07-19T20:59:06Z</time>
<speed>0.010000</speed>
<extensions>
<speed>0.0</speed>
<temp>0.00</temp>
<bpm>0</bpm>
<rpm>0.00</rpm>
</extensions>
</trkpt>
<trkpt lat="64.310585022" lon="-20.305294037">
<ele>114.941406</ele>
<time>2012-07-19T20:59:11Z</time>
<speed>0.020000</speed>
<extensions>
<speed>0.0</speed>
<temp>0.00</temp>
<bpm>0</bpm>
<rpm>0.00</rpm>
</extensions>
</trkpt>
<trkpt lat="64.310585022" lon="-20.305294037">
<ele>114.933594</ele>
<time>2012-07-19T20:59:16Z</time>
<speed>0.010000</speed>
<extensions>
<speed>0.0</speed>
<temp>0.00</temp>
<bpm>0</bpm>
<rpm>0.00</rpm>
</extensions>
</trkpt>
<trkpt lat="64.310585022" lon="-20.305294037">
<ele>114.931641</ele>
<time>2012-07-19T20:59:21Z</time>
<extensions>
<speed>0.0</speed>
<temp>0.00</temp>
<bpm>0</bpm>
<rpm>0.00</rpm>
</extensions>
</trkpt>
<trkpt lat="64.310585022" lon="-20.305294037">
<ele>114.945313</ele>
<time>2012-07-19T20:59:26Z</time>
<extensions>
<speed>0.0</speed>
<temp>0.00</temp>
<bpm>0</bpm>
<rpm>0.00</rpm>
</extensions>
</trkpt>
<trkpt lat="64.310585022" lon="-20.305294037">
<ele>114.941406</ele>
<time>2012-07-19T20:59:31Z</time>
<extensions>
<speed>0.0</speed>
<temp>0.00</temp>
<bpm>0</bpm>
<rpm>0.00</rpm>
</extensions>
</trkpt>
<trkpt lat="64.310585022" lon="-20.305294037">
<ele>114.955078</ele>
<time>2012-07-19T20:59:36Z</time>
<extensions>
<speed>0.0</speed>
<temp>0.00</temp>
<bpm>0</bpm>
<rpm>0.00</rpm>
</extensions>
</trkpt>
<trkpt lat="64.310585022" lon="-20.305294037">
<ele>114.958984</ele>
<time>2012-07-19T20:59:41Z</time>
<extensions>
<speed>0.0</speed>
<temp>0.00</temp>
<bpm>0</bpm>
<rpm>0.00</rpm>
</extensions>
</trkpt>
<trkpt lat="64.310585022" lon="-20.305294037">
<ele>114.958984</ele>
<time>2012-07-19T20:59:46Z</time>
<speed>0.010000</speed>
<extensions>
<speed>0.0</speed>
<temp>0.00</temp>
<bpm>0</bpm>
<rpm>0.00</rpm>
</extensions>
</trkpt>
<trkpt lat="64.310585022" lon="-20.305294037">
<ele>114.964844</ele>
<time>2012-07-19T20:59:51Z</time>
<speed>0.010000</speed>
<extensions>
<speed>0.0</speed>
<temp>0.00</temp>
<bpm>0</bpm>
<rpm>0.00</rpm>
</extensions>
</trkpt>
<trkpt lat="64.310585022" lon="-20.305295944">
<ele>114.962891</ele>
<time>2012-07-19T20:59:56Z</time>
<speed>0.020000</speed>
<extensions>
<speed>0.0</speed>
<temp>0.00</temp>
<bpm>0</bpm>
<rpm>0.00</rpm>
</extensions>
</trkpt>
<trkpt lat="64.310585022" lon="-20.305295944">
<ele>114.951172</ele>
<time>2012-07-19T21:00:01Z</time>
<speed>0.020000</speed>
<extensions>
<speed>0.0</speed>
<temp>0.00</temp>
<bpm>0</bpm>
<rpm>0.00</rpm>
</extensions>
</trkpt>
<trkpt lat="64.310585022" lon="-20.305295944">
<ele>114.945313</ele>
<time>2012-07-19T21:00:06Z</time>
<speed>0.010000</speed>
<extensions>
<speed>0.0</speed>
<temp>0.00</temp>
<bpm>0</bpm>
<rpm>0.00</rpm>
</extensions>
</trkpt>
<trkpt lat="64.310585022" lon="-20.305297852">
<ele>114.962891</ele>
<time>2012-07-19T21:00:11Z</time>
<extensions>
<speed>0.0</speed>
<temp>0.00</temp>
<bpm>0</bpm>
<rpm>0.00</rpm>
</extensions>
</trkpt>
<trkpt lat="64.310585022" lon="-20.305297852">
<ele>115.007813</ele>
<time>2012-07-19T21:00:16Z</time>
<speed>0.020000</speed>
<extensions>
<speed>0.0</speed>
<temp>0.00</temp>
<bpm>0</bpm>
<rpm>0.00</rpm>
</extensions>
</trkpt>
<trkpt lat="64.310585022" lon="-20.305297852">
<ele>115.039063</ele>
<time>2012-07-19T21:00:21Z</time>
<speed>0.030000</speed>
<extensions>
<speed>0.0</speed>
<temp>0.00</temp>
<bpm>0</bpm>
<rpm>0.00</rpm>
</extensions>
</trkpt>
<trkpt lat="64.310585022" lon="-20.305297852">
<ele>115.054688</ele>
<time>2012-07-19T21:00:26Z</time>
<extensions>
<speed>0.0</speed>
<temp>0.00</temp>
<bpm>0</bpm>
<rpm>0.00</rpm>
</extensions>
</trkpt>
<trkpt lat="64.310585022" lon="-20.305297852">
<ele>115.080078</ele>
<time>2012-07-19T21:00:31Z</time>
<speed>0.020000</speed>
<extensions>
<speed>0.0</speed>
<temp>0.00</temp>
<bpm>0</bpm>
<rpm>0.00</rpm>
</extensions>
</trkpt>
<trkpt lat="64.310585022" lon="-20.305297852">
<ele>115.101563</ele>
<time>2012-07-19T21:00:36Z</time>
<speed>0.020000</speed>
<extensions>
<speed>0.0</speed>
<temp>0.00</temp>
<bpm>0</bpm>
<rpm>0.00</rpm>
</extensions>
</trkpt>
<trkpt lat="64.310585022" lon="-20.305297852">
<ele>115.115234</ele>
<time>2012-07-19T21:00:41Z</time>
<extensions>
<speed>0.0</speed>
<temp>0.00</temp>
<bpm>0</bpm>
<rpm>0.00</rpm>
</extensions>
</trkpt>
<trkpt lat="64.310585022" lon="-20.305297852">
<ele>115.113281</ele>
<time>2012-07-19T21:00:46Z</time>
<speed>0.020000</speed>
<extensions>
<speed>0.0</speed>
<temp>0.00</temp>
<bpm>0</bpm>
<rpm>0.00</rpm>
</extensions>
</trkpt>
<trkpt lat="64.310585022" lon="-20.305299759">
<ele>115.111328</ele>
<time>2012-07-19T21:00:51Z</time>
<speed>0.020000</speed>
<extensions>
<speed>0.0</speed>
<temp>0.00</temp>
<bpm>0</bpm>
<rpm>0.00</rpm>
</extensions>
</trkpt>
<trkpt lat="64.310577393" lon="-20.305299759">
<ele>115.107422</ele>
<time>2012-07-19T21:00:56Z</time>
<extensions>
<speed>0.0</speed>
<temp>0.00</temp>
<bpm>0</bpm>
<rpm>0.00</rpm>
</extensions>
</trkpt>
<trkpt lat="64.310577393" lon="-20.305299759">
<ele>115.103516</ele>
<time>2012-07-19T21:01:01Z</time>
<extensions>
<speed>0.0</speed>
<temp>0.00</temp>
<bpm>0</bpm>
<rpm>0.00</rpm>
</extensions>
</trkpt>
<trkpt lat="64.310577393" lon="-20.305299759">
<ele>115.111328</ele>
<time>2012-07-19T21:01:06Z</time>
<extensions>
<speed>0.0</speed>
<temp>0.00</temp>
<bpm>0</bpm>
<rpm>0.00</rpm>
</extensions>
</trkpt>
<trkpt lat="64.310577393" lon="-20.305299759">
<ele>115.130859</ele>
<time>2012-07-19T21:01:11Z</time>
<extensions>
<speed>0.0</speed>
<temp>0.00</temp>
<bpm>0</bpm>
<rpm>0.00</rpm>
</extensions>
</trkpt>
<trkpt lat="64.310577393" lon="-20.305299759">
<ele>115.138672</ele>
<time>2012-07-19T21:01:16Z</time>
<speed>0.010000</speed>
<extensions>
<speed>0.0</speed>
<temp>0.00</temp>
<bpm>0</bpm>
<rpm>0.00</rpm>
</extensions>
</trkpt>
<trkpt lat="64.310577393" lon="-20.305299759">
<ele>115.150391</ele>
<time>2012-07-19T21:01:21Z</time>
<speed>0.010000</speed>
<extensions>
<speed>0.0</speed>
<temp>0.00</temp>
<bpm>0</bpm>
<rpm>0.00</rpm>
</extensions>
</trkpt>
<trkpt lat="64.310577393" lon="-20.305299759">
<ele>115.177734</ele>
<time>2012-07-19T21:01:26Z</time>
<extensions>
<speed>0.0</speed>
<temp>0.00</temp>
<bpm>0</bpm>
<rpm>0.00</rpm>
</extensions>
</trkpt>
<trkpt lat="64.310577393" lon="-20.305299759">
<ele>115.208984</ele>
<time>2012-07-19T21:01:31Z</time>
<speed>0.010000</speed>
<extensions>
<speed>0.0</speed>
<temp>0.00</temp>
<bpm>0</bpm>
<rpm>0.00</rpm>
</extensions>
</trkpt>
<trkpt lat="64.310577393" lon="-20.305301666">
<ele>115.234375</ele>
<time>2012-07-19T21:01:36Z</time>
<speed>0.010000</speed>
<extensions>
<speed>0.0</speed>
<temp>0.00</temp>
<bpm>0</bpm>
<rpm>0.00</rpm>
</extensions>
</trkpt>
<trkpt lat="64.310577393" lon="-20.305301666">
<ele>115.255859</ele>
<time>2012-07-19T21:01:41Z</time>
<extensions>
<speed>0.0</speed>
<temp>0.00</temp>
<bpm>0</bpm>
<rpm>0.00</rpm>
</extensions>
</trkpt>
<trkpt lat="64.310577393" lon="-20.305301666">
<ele>115.250000</ele>
<time>2012-07-19T21:01:46Z</time>
<speed>0.020000</speed>
<extensions>
<speed>0.0</speed>
<temp>0.00</temp>
<bpm>0</bpm>
<rpm>0.00</rpm>
</extensions>
</trkpt>
<trkpt lat="64.310577393" lon="-20.305301666">
<ele>115.246094</ele>
<time>2012-07-19T21:01:51Z</time>
<speed>0.010000</speed>
<extensions>
<speed>0.0</speed>
<temp>0.00</temp>
<bpm>0</bpm>
<rpm>0.00</rpm>
</extensions>
</trkpt>
<trkpt lat="64.310577393" lon="-20.305299759">
<ele>115.265625</ele>
<time>2012-07-19T21:01:56Z</time>
<speed>0.010000</speed>
<extensions>
<speed>0.0</speed>
<temp>0.00</temp>
<bpm>0</bpm>
<rpm>0.00</rpm>
</extensions>
</trkpt>
<trkpt lat="64.310577393" lon="-20.305299759">
<ele>115.283203</ele>
<time>2012-07-19T21:02:01Z</time>
<speed>0.010000</speed>
<extensions>
<speed>0.0</speed>
<temp>0.00</temp>
<bpm>0</bpm>
<rpm>0.00</rpm>
</extensions>
</trkpt>
<trkpt lat="64.310577393" lon="-20.305301666">
<ele>115.314453</ele>
<time>2012-07-19T21:02:06Z</time>
<extensions>
<speed>0.0</speed>
<temp>0.00</temp>
<bpm>0</bpm>
<rpm>0.00</rpm>
</extensions>
</trkpt>
<trkpt lat="64.310577393" lon="-20.305301666">
<ele>115.333984</ele>
<time>2012-07-19T21:02:11Z</time>
<speed>0.010000</speed>
<extensions>
<speed>0.0</speed>
<temp>0.00</temp>
<bpm>0</bpm>
<rpm>0.00</rpm>
</extensions>
</trkpt>
<trkpt lat="64.310577393" lon="-20.305301666">
<ele>115.353516</ele>
<time>2012-07-19T21:02:16Z</time>
<speed>0.010000</speed>
<extensions>
<speed>0.0</speed>
<temp>0.00</temp>
<bpm>0</bpm>
<rpm>0.00</rpm>
</extensions>
</trkpt>
<trkpt lat="64.310577393" lon="-20.305301666">
<ele>115.376953</ele>
<time>2012-07-19T21:02:21Z</time>
<extensions>
<speed>0.0</speed>
<temp>0.00</temp>
<bpm>0</bpm>
<rpm>0.00</rpm>
</extensions>
</trkpt>
<trkpt lat="64.310577393" lon="-20.305301666">
<ele>115.398438</ele>
<time>2012-07-19T21:02:26Z</time>
<extensions>
<speed>0.0</speed>
<temp>0.00</temp>
<bpm>0</bpm>
<rpm>0.00</rpm>
</extensions>
</trkpt>
<trkpt lat="64.310577393" lon="-20.305301666">
<ele>115.421875</ele>
<time>2012-07-19T21:02:31Z</time>
<extensions>
<speed>0.0</speed>
<temp>0.00</temp>
<bpm>0</bpm>
<rpm>0.00</rpm>
</extensions>
</trkpt>
<trkpt lat="64.310577393" lon="-20.305301666">
<ele>115.431641</ele>
<time>2012-07-19T21:02:36Z</time>
<extensions>
<speed>0.0</speed>
<temp>0.00</temp>
<bpm>0</bpm>
<rpm>0.00</rpm>
</extensions>
</trkpt>
<trkpt lat="64.310577393" lon="-20.305301666">
<ele>115.427734</ele>
<time>2012-07-19T21:02:41Z</time>
<extensions>
<speed>0.0</speed>
<temp>0.00</temp>
<bpm>0</bpm>
<rpm>0.00</rpm>
</extensions>
</trkpt>
<trkpt lat="64.310577393" lon="-20.305301666">
<ele>115.431641</ele>
<time>2012-07-19T21:02:46Z</time>
<extensions>
<speed>0.0</speed>
<temp>0.00</temp>
<bpm>0</bpm>
<rpm>0.00</rpm>
</extensions>
</trkpt>
<trkpt lat="64.310577393" lon="-20.305301666">
<ele>115.435547</ele>
<time>2012-07-19T21:02:51Z</time>
<extensions>
<speed>0.0</speed>
<temp>0.00</temp>
<bpm>0</bpm>
<rpm>0.00</rpm>
</extensions>
</trkpt>
<trkpt lat="64.310577393" lon="-20.305301666">
<ele>115.437500</ele>
<time>2012-07-19T21:02:56Z</time>
<extensions>
<speed>0.0</speed>
<temp>0.00</temp>
<bpm>0</bpm>
<rpm>0.00</rpm>
</extensions>
</trkpt>
<trkpt lat="64.310577393" lon="-20.305301666">
<ele>115.445313</ele>
<time>2012-07-19T21:03:01Z</time>
<extensions>
<speed>0.0</speed>
<temp>0.00</temp>
<bpm>0</bpm>
<rpm>0.00</rpm>
</extensions>
</trkpt>
<trkpt lat="64.310577393" lon="-20.305301666">
<ele>115.462891</ele>
<time>2012-07-19T21:03:06Z</time>
<extensions>
<speed>0.0</speed>
<temp>0.00</temp>
<bpm>0</bpm>
<rpm>0.00</rpm>
</extensions>
</trkpt>
<trkpt lat="64.310577393" lon="-20.305301666">
<ele>115.482422</ele>
<time>2012-07-19T21:03:11Z</time>
<speed>0.010000</speed>
<extensions>
<speed>0.0</speed>
<temp>0.00</temp>
<bpm>0</bpm>
<rpm>0.00</rpm>
</extensions>
</trkpt>
<trkpt lat="64.310577393" lon="-20.305301666">
<ele>115.492188</ele>
<time>2012-07-19T21:03:16Z</time>
<extensions>
<speed>0.0</speed>
<temp>0.00</temp>
<bpm>0</bpm>
<rpm>0.00</rpm>
</extensions>
</trkpt>
<trkpt lat="64.310577393" lon="-20.305301666">
<ele>115.492188</ele>
<time>2012-07-19T21:03:21Z</time>
<extensions>
<speed>0.0</speed>
<temp>0.00</temp>
<bpm>0</bpm>
<rpm>0.00</rpm>
</extensions>
</trkpt>
<trkpt lat="64.310577393" lon="-20.305301666">
<ele>115.488281</ele>
<time>2012-07-19T21:03:26Z</time>
<extensions>
<speed>0.0</speed>
<temp>0.00</temp>
<bpm>0</bpm>
<rpm>0.00</rpm>
</extensions>
</trkpt>
<trkpt lat="64.310577393" lon="-20.305301666">
<ele>115.500000</ele>
<time>2012-07-19T21:03:31Z</time>
<speed>0.010000</speed>
<extensions>
<speed>0.0</speed>
<temp>0.00</temp>
<bpm>0</bpm>
<rpm>0.00</rpm>
</extensions>
</trkpt>
<trkpt lat="64.310577393" lon="-20.305301666">
<ele>115.503906</ele>
<time>2012-07-19T21:03:36Z</time>
<extensions>
<speed>0.0</speed>
<temp>0.00</temp>
<bpm>0</bpm>
<rpm>0.00</rpm>
</extensions>
</trkpt>
<trkpt lat="64.310577393" lon="-20.305301666">
<ele>115.517578</ele>
<time>2012-07-19T21:03:41Z</time>
<extensions>
<speed>0.0</speed>
<temp>0.00</temp>
<bpm>0</bpm>
<rpm>0.00</rpm>
</extensions>
</trkpt>
<trkpt lat="64.310577393" lon="-20.305301666">
<ele>115.535156</ele>
<time>2012-07-19T21:03:46Z</time>
<extensions>
<speed>0.0</speed>
<temp>0.00</temp>
<bpm>0</bpm>
<rpm>0.00</rpm>
</extensions>
</trkpt>
<trkpt lat="64.310577393" lon="-20.305301666">
<ele>115.554688</ele>
<time>2012-07-19T21:03:51Z</time>
<speed>0.010000</speed>
<extensions>
<speed>0.0</speed>
<temp>0.00</temp>
<bpm>0</bpm>
<rpm>0.00</rpm>
</extensions>
</trkpt>
<trkpt lat="64.310577393" lon="-20.305303574">
<ele>115.556641</ele>
<time>2012-07-19T21:03:56Z</time>
<extensions>
<speed>0.0</speed>
<temp>0.00</temp>
<bpm>0</bpm>
<rpm>0.00</rpm>
</extensions>
</trkpt>
<trkpt lat="64.310577393" lon="-20.305303574">
<ele>115.554688</ele>
<time>2012-07-19T21:04:01Z</time>
<extensions>
<speed>0.0</speed>
<temp>0.00</temp>
<bpm>0</bpm>
<rpm>0.00</rpm>
</extensions>
</trkpt>
<trkpt lat="64.310577393" lon="-20.305303574">
<ele>115.556641</ele>
<time>2012-07-19T21:04:06Z</time>
<extensions>
<speed>0.0</speed>
<temp>0.00</temp>
<bpm>0</bpm>
<rpm>0.00</rpm>
</extensions>
</trkpt>
<trkpt lat="64.310577393" lon="-20.305303574">
<ele>115.570313</ele>
<time>2012-07-19T21:04:11Z</time>
<extensions>
<speed>0.0</speed>
<temp>0.00</temp>
<bpm>0</bpm>
<rpm>0.00</rpm>
</extensions>
</trkpt>
<trkpt lat="64.310577393" lon="-20.305303574">
<ele>115.591797</ele>
<time>2012-07-19T21:04:16Z</time>
<extensions>
<speed>0.0</speed>
<temp>0.00</temp>
<bpm>0</bpm>
<rpm>0.00</rpm>
</extensions>
</trkpt>
<trkpt lat="64.310577393" lon="-20.305303574">
<ele>115.609375</ele>
<time>2012-07-19T21:04:21Z</time>
<extensions>
<speed>0.0</speed>
<temp>0.00</temp>
<bpm>0</bpm>
<rpm>0.00</rpm>
</extensions>
</trkpt>
<trkpt lat="64.310577393" lon="-20.305303574">
<ele>115.621094</ele>
<time>2012-07-19T21:04:26Z</time>
<extensions>
<speed>0.0</speed>
<temp>0.00</temp>
<bpm>0</bpm>
<rpm>0.00</rpm>
</extensions>
</trkpt>
<trkpt lat="64.310577393" lon="-20.305303574">
<ele>115.628906</ele>
<time>2012-07-19T21:04:31Z</time>
<extensions>
<speed>0.0</speed>
<temp>0.00</temp>
<bpm>0</bpm>
<rpm>0.00</rpm>
</extensions>
</trkpt>
<trkpt lat="64.310577393" lon="-20.305303574">
<ele>115.636719</ele>
<time>2012-07-19T21:04:36Z</time>
<extensions>
<speed>0.0</speed>
<temp>0.00</temp>
<bpm>0</bpm>
<rpm>0.00</rpm>
</extensions>
</trkpt>
<trkpt lat="64.310577393" lon="-20.305303574">
<ele>115.638672</ele>
<time>2012-07-19T21:04:41Z</time>
<extensions>
<speed>0.0</speed>
<temp>0.00</temp>
<bpm>0</bpm>
<rpm>0.00</rpm>
</extensions>
</trkpt>
<trkpt lat="64.310577393" lon="-20.305303574">
<ele>115.636719</ele>
<time>2012-07-19T21:04:46Z</time>
<extensions>
<speed>0.0</speed>
<temp>0.00</temp>
<bpm>0</bpm>
<rpm>0.00</rpm>
</extensions>
</trkpt>
<trkpt lat="64.310577393" lon="-20.305303574">
<ele>115.632813</ele>
<time>2012-07-19T21:04:51Z</time>
<extensions>
<speed>0.0</speed>
<temp>0.00</temp>
<bpm>0</bpm>
<rpm>0.00</rpm>
</extensions>
</trkpt>
<trkpt lat="64.310577393" lon="-20.305301666">
<ele>115.636719</ele>
<time>2012-07-19T21:04:56Z</time>
<extensions>
<speed>0.0</speed>
<temp>0.00</temp>
<bpm>0</bpm>
<rpm>0.00</rpm>
</extensions>
</trkpt>
<trkpt lat="64.310577393" lon="-20.305303574">
<ele>115.650391</ele>
<time>2012-07-19T21:05:01Z</time>
<speed>0.010000</speed>
<extensions>
<speed>0.0</speed>
<temp>0.00</temp>
<bpm>0</bpm>
<rpm>0.00</rpm>
</extensions>
</trkpt>
<trkpt lat="64.310577393" lon="-20.305303574">
<ele>115.667969</ele>
<time>2012-07-19T21:05:06Z</time>
<speed>0.010000</speed>
<extensions>
<speed>0.0</speed>
<temp>0.00</temp>
<bpm>0</bpm>
<rpm>0.00</rpm>
</extensions>
</trkpt>
<trkpt lat="64.310577393" lon="-20.305303574">
<ele>115.677734</ele>
<time>2012-07-19T21:05:11Z</time>
<speed>0.020000</speed>
<extensions>
<speed>0.0</speed>
<temp>0.00</temp>
<bpm>0</bpm>
<rpm>0.00</rpm>
</extensions>
</trkpt>
<trkpt lat="64.310577393" lon="-20.305303574">
<ele>115.691406</ele>
<time>2012-07-19T21:05:16Z</time>
<speed>0.010000</speed>
<extensions>
<speed>0.0</speed>
<temp>0.00</temp>
<bpm>0</bpm>
<rpm>0.00</rpm>
</extensions>
</trkpt>
<trkpt lat="64.310577393" lon="-20.305301666">
<ele>115.714844</ele>
<time>2012-07-19T21:05:21Z</time>
<extensions>
<speed>0.0</speed>
<temp>0.00</temp>
<bpm>0</bpm>
<rpm>0.00</rpm>
</extensions>
</trkpt>
<trkpt lat="64.310577393" lon="-20.305301666">
<ele>115.712891</ele>
<time>2012-07-19T21:05:26Z</time>
<extensions>
<speed>0.0</speed>
<temp>0.00</temp>
<bpm>0</bpm>
<rpm>0.00</rpm>
</extensions>
</trkpt>
<trkpt lat="64.310577393" lon="-20.305301666">
<ele>115.716797</ele>
<time>2012-07-19T21:05:31Z</time>
<extensions>
<speed>0.0</speed>
<temp>0.00</temp>
<bpm>0</bpm>
<rpm>0.00</rpm>
</extensions>
</trkpt>
<trkpt lat="64.310577393" lon="-20.305301666">
<ele>115.730469</ele>
<time>2012-07-19T21:05:36Z</time>
<extensions>
<speed>0.0</speed>
<temp>0.00</temp>
<bpm>0</bpm>
<rpm>0.00</rpm>
</extensions>
</trkpt>
<trkpt lat="64.310577393" lon="-20.305301666">
<ele>115.738281</ele>
<time>2012-07-19T21:05:41Z</time>
<extensions>
<speed>0.0</speed>
<temp>0.00</temp>
<bpm>0</bpm>
<rpm>0.00</rpm>
</extensions>
</trkpt>
<trkpt lat="64.310577393" lon="-20.305301666">
<ele>115.746094</ele>
<time>2012-07-19T21:05:46Z</time>
<extensions>
<speed>0.0</speed>
<temp>0.00</temp>
<bpm>0</bpm>
<rpm>0.00</rpm>
</extensions>
</trkpt>
<trkpt lat="64.310577393" lon="-20.305301666">
<ele>115.755859</ele>
<time>2012-07-19T21:05:51Z</time>
<extensions>
<speed>0.0</speed>
<temp>0.00</temp>
<bpm>0</bpm>
<rpm>0.00</rpm>
</extensions>
</trkpt>
<trkpt lat="64.310577393" lon="-20.305301666">
<ele>115.773438</ele>
<time>2012-07-19T21:05:56Z</time>
<extensions>
<speed>0.0</speed>
<temp>0.00</temp>
<bpm>0</bpm>
<rpm>0.00</rpm>
</extensions>
</trkpt>
<trkpt lat="64.310577393" lon="-20.305301666">
<ele>115.773438</ele>
<time>2012-07-19T21:06:01Z</time>
<extensions>
<speed>0.0</speed>
<temp>0.00</temp>
<bpm>0</bpm>
<rpm>0.00</rpm>
</extensions>
</trkpt>
<trkpt lat="64.310577393" lon="-20.305301666">
<ele>115.773438</ele>
<time>2012-07-19T21:06:06Z</time>
<extensions>
<speed>0.0</speed>
<temp>0.00</temp>
<bpm>0</bpm>
<rpm>0.00</rpm>
</extensions>
</trkpt>
<trkpt lat="64.310577393" lon="-20.305301666">
<ele>115.775391</ele>
<time>2012-07-19T21:06:11Z</time>
<extensions>
<speed>0.0</speed>
<temp>0.00</temp>
<bpm>0</bpm>
<rpm>0.00</rpm>
</extensions>
</trkpt>
<trkpt lat="64.310577393" lon="-20.305299759">
<ele>115.796875</ele>
<time>2012-07-19T21:06:16Z</time>
<extensions>
<speed>0.0</speed>
<temp>0.00</temp>
<bpm>0</bpm>
<rpm>0.00</rpm>
</extensions>
</trkpt>
<trkpt lat="64.310577393" lon="-20.305299759">
<ele>115.804688</ele>
<time>2012-07-19T21:06:21Z</time>
<extensions>
<speed>0.0</speed>
<temp>0.00</temp>
<bpm>0</bpm>
<rpm>0.00</rpm>
</extensions>
</trkpt>
<trkpt lat="64.310577393" lon="-20.305299759">
<ele>115.810547</ele>
<time>2012-07-19T21:06:26Z</time>
<extensions>
<speed>0.0</speed>
<temp>0.00</temp>
<bpm>0</bpm>
<rpm>0.00</rpm>
</extensions>
</trkpt>
<trkpt lat="64.310577393" lon="-20.305299759">
<ele>115.810547</ele>
<time>2012-07-19T21:06:31Z</time>
<extensions>
<speed>0.0</speed>
<temp>0.00</temp>
<bpm>0</bpm>
<rpm>0.00</rpm>
</extensions>
</trkpt>
<trkpt lat="64.310577393" lon="-20.305299759">
<ele>115.791016</ele>
<time>2012-07-19T21:06:36Z</time>
<extensions>
<speed>0.0</speed>
<temp>0.00</temp>
<bpm>0</bpm>
<rpm>0.00</rpm>
</extensions>
</trkpt>
<trkpt lat="64.310577393" lon="-20.305299759">
<ele>115.781250</ele>
<time>2012-07-19T21:06:41Z</time>
<extensions>
<speed>0.0</speed>
<temp>0.00</temp>
<bpm>0</bpm>
<rpm>0.00</rpm>
</extensions>
</trkpt>
<trkpt lat="64.310577393" lon="-20.305299759">
<ele>115.765625</ele>
<time>2012-07-19T21:06:46Z</time>
<extensions>
<speed>0.0</speed>
<temp>0.00</temp>
<bpm>0</bpm>
<rpm>0.00</rpm>
</extensions>
</trkpt>
<trkpt lat="64.310577393" lon="-20.305299759">
<ele>115.757813</ele>
<time>2012-07-19T21:06:51Z</time>
<speed>0.020000</speed>
<extensions>
<speed>0.0</speed>
<temp>0.00</temp>
<bpm>0</bpm>
<rpm>0.00</rpm>
</extensions>
</trkpt>
<trkpt lat="64.310577393" lon="-20.305297852">
<ele>115.746094</ele>
<time>2012-07-19T21:06:56Z</time>
<extensions>
<speed>0.0</speed>
<temp>0.00</temp>
<bpm>0</bpm>
<rpm>0.00</rpm>
</extensions>
</trkpt>
<trkpt lat="64.310577393" lon="-20.305299759">
<ele>115.732422</ele>
<time>2012-07-19T21:07:01Z</time>
<extensions>
<speed>0.0</speed>
<temp>0.00</temp>
<bpm>0</bpm>
<rpm>0.00</rpm>
</extensions>
</trkpt>
<trkpt lat="64.310577393" lon="-20.305299759">
<ele>115.712891</ele>
<time>2012-07-19T21:07:06Z</time>
<extensions>
<speed>0.0</speed>
<temp>0.00</temp>
<bpm>0</bpm>
<rpm>0.00</rpm>
</extensions>
</trkpt>
<trkpt lat="64.310577393" lon="-20.305299759">
<ele>115.689453</ele>
<time>2012-07-19T21:07:11Z</time>
<extensions>
<speed>0.0</speed>
<temp>0.00</temp>
<bpm>0</bpm>
<rpm>0.00</rpm>
</extensions>
</trkpt>
<trkpt lat="64.310577393" lon="-20.305299759">
<ele>115.667969</ele>
<time>2012-07-19T21:07:16Z</time>
<extensions>
<speed>0.0</speed>
<temp>0.00</temp>
<bpm>0</bpm>
<rpm>0.00</rpm>
</extensions>
</trkpt>
<trkpt lat="64.310577393" lon="-20.305297852">
<ele>115.679688</ele>
<time>2012-07-19T21:07:21Z</time>
<extensions>
<speed>0.0</speed>
<temp>0.00</temp>
<bpm>0</bpm>
<rpm>0.00</rpm>
</extensions>
</trkpt>
<trkpt lat="64.310577393" lon="-20.305297852">
<ele>115.679688</ele>
<time>2012-07-19T21:07:26Z</time>
<extensions>
<speed>0.0</speed>
<temp>0.00</temp>
<bpm>0</bpm>
<rpm>0.00</rpm>
</extensions>
</trkpt>
<trkpt lat="64.310577393" lon="-20.305297852">
<ele>115.664063</ele>
<time>2012-07-19T21:07:31Z</time>
<extensions>
<speed>0.0</speed>
<temp>0.00</temp>
<bpm>0</bpm>
<rpm>0.00</rpm>
</extensions>
</trkpt>
<trkpt lat="64.310577393" lon="-20.305297852">
<ele>115.667969</ele>
<time>2012-07-19T21:07:36Z</time>
<extensions>
<speed>0.0</speed>
<temp>0.00</temp>
<bpm>0</bpm>
<rpm>0.00</rpm>
</extensions>
</trkpt>
<trkpt lat="64.310577393" lon="-20.305297852">
<ele>115.664063</ele>
<time>2012-07-19T21:07:41Z</time>
<extensions>
<speed>0.0</speed>
<temp>0.00</temp>
<bpm>0</bpm>
<rpm>0.00</rpm>
</extensions>
</trkpt>
<trkpt lat="64.310577393" lon="-20.305297852">
<ele>115.654297</ele>
<time>2012-07-19T21:07:46Z</time>
<speed>0.010000</speed>
<extensions>
<speed>0.0</speed>
<temp>0.00</temp>
<bpm>0</bpm>
<rpm>0.00</rpm>
</extensions>
</trkpt>
<trkpt lat="64.310577393" lon="-20.305297852">
<ele>115.654297</ele>
<time>2012-07-19T21:07:51Z</time>
<speed>0.010000</speed>
<extensions>
<speed>0.0</speed>
<temp>0.00</temp>
<bpm>0</bpm>
<rpm>0.00</rpm>
</extensions>
</trkpt>
<trkpt lat="64.310577393" lon="-20.305297852">
<ele>115.667969</ele>
<time>2012-07-19T21:07:56Z</time>
<extensions>
<speed>0.0</speed>
<temp>0.00</temp>
<bpm>0</bpm>
<rpm>0.00</rpm>
</extensions>
</trkpt>
<trkpt lat="64.310577393" lon="-20.305297852">
<ele>115.662109</ele>
<time>2012-07-19T21:08:01Z</time>
<extensions>
<speed>0.0</speed>
<temp>0.00</temp>
<bpm>0</bpm>
<rpm>0.00</rpm>
</extensions>
</trkpt>
<trkpt lat="64.310577393" lon="-20.305297852">
<ele>115.664063</ele>
<time>2012-07-19T21:08:06Z</time>
<extensions>
<speed>0.0</speed>
<temp>0.00</temp>
<bpm>0</bpm>
<rpm>0.00</rpm>
</extensions>
</trkpt>
<trkpt lat="64.310577393" lon="-20.305297852">
<ele>115.638672</ele>
<time>2012-07-19T21:08:11Z</time>
<extensions>
<speed>0.0</speed>
<temp>0.00</temp>
<bpm>0</bpm>
<rpm>0.00</rpm>
</extensions>
</trkpt>
<trkpt lat="64.310577393" lon="-20.305297852">
<ele>115.609375</ele>
<time>2012-07-19T21:08:16Z</time>
<extensions>
<speed>0.0</speed>
<temp>0.00</temp>
<bpm>0</bpm>
<rpm>0.00</rpm>
</extensions>
</trkpt>
<trkpt lat="64.310577393" lon="-20.305297852">
<ele>115.599609</ele>
<time>2012-07-19T21:08:21Z</time>
<extensions>
<speed>0.0</speed>
<temp>0.00</temp>
<bpm>0</bpm>
<rpm>0.00</rpm>
</extensions>
</trkpt>
<trkpt lat="64.310577393" lon="-20.305295944">
<ele>115.599609</ele>
<time>2012-07-19T21:08:26Z</time>
<extensions>
<speed>0.0</speed>
<temp>0.00</temp>
<bpm>0</bpm>
<rpm>0.00</rpm>
</extensions>
</trkpt>
<trkpt lat="64.310577393" lon="-20.305295944">
<ele>115.589844</ele>
<time>2012-07-19T21:08:31Z</time>
<extensions>
<speed>0.0</speed>
<temp>0.00</temp>
<bpm>0</bpm>
<rpm>0.00</rpm>
</extensions>
</trkpt>
<trkpt lat="64.310577393" lon="-20.305295944">
<ele>115.580078</ele>
<time>2012-07-19T21:08:36Z</time>
<extensions>
<speed>0.0</speed>
<temp>0.00</temp>
<bpm>0</bpm>
<rpm>0.00</rpm>
</extensions>
</trkpt>
<trkpt lat="64.310577393" lon="-20.305295944">
<ele>115.589844</ele>
<time>2012-07-19T21:08:41Z</time>
<extensions>
<speed>0.0</speed>
<temp>0.00</temp>
<bpm>0</bpm>
<rpm>0.00</rpm>
</extensions>
</trkpt>
<trkpt lat="64.310577393" lon="-20.305295944">
<ele>115.601563</ele>
<time>2012-07-19T21:08:46Z</time>
<extensions>
<speed>0.0</speed>
<temp>0.00</temp>
<bpm>0</bpm>
<rpm>0.00</rpm>
</extensions>
</trkpt>
<trkpt lat="64.310577393" lon="-20.305295944">
<ele>115.621094</ele>
<time>2012-07-19T21:08:51Z</time>
<extensions>
<speed>0.0</speed>
<temp>0.00</temp>
<bpm>0</bpm>
<rpm>0.00</rpm>
</extensions>
</trkpt>
<trkpt lat="64.310577393" lon="-20.305295944">
<ele>115.628906</ele>
<time>2012-07-19T21:08:56Z</time>
<extensions>
<speed>0.0</speed>
<temp>0.00</temp>
<bpm>0</bpm>
<rpm>0.00</rpm>
</extensions>
</trkpt>
<trkpt lat="64.310577393" lon="-20.305295944">
<ele>115.638672</ele>
<time>2012-07-19T21:09:01Z</time>
<extensions>
<speed>0.0</speed>
<temp>0.00</temp>
<bpm>0</bpm>
<rpm>0.00</rpm>
</extensions>
</trkpt>
<trkpt lat="64.310577393" lon="-20.305295944">
<ele>115.642578</ele>
<time>2012-07-19T21:09:06Z</time>
<extensions>
<speed>0.0</speed>
<temp>0.00</temp>
<bpm>0</bpm>
<rpm>0.00</rpm>
</extensions>
</trkpt>
<trkpt lat="64.310577393" lon="-20.305295944">
<ele>115.664063</ele>
<time>2012-07-19T21:09:11Z</time>
<extensions>
<speed>0.0</speed>
<temp>0.00</temp>
<bpm>0</bpm>
<rpm>0.00</rpm>
</extensions>
</trkpt>
<trkpt lat="64.310577393" lon="-20.305294037">
<ele>115.671875</ele>
<time>2012-07-19T21:09:16Z</time>
<extensions>
<speed>0.0</speed>
<temp>0.00</temp>
<bpm>0</bpm>
<rpm>0.00</rpm>
</extensions>
</trkpt>
<trkpt lat="64.310577393" lon="-20.305294037">
<ele>115.679688</ele>
<time>2012-07-19T21:09:21Z</time>
<extensions>
<speed>0.0</speed>
<temp>0.00</temp>
<bpm>0</bpm>
<rpm>0.00</rpm>
</extensions>
</trkpt>
<trkpt lat="64.310577393" lon="-20.305294037">
<ele>115.695313</ele>
<time>2012-07-19T21:09:26Z</time>
<extensions>
<speed>0.0</speed>
<temp>0.00</temp>
<bpm>0</bpm>
<rpm>0.00</rpm>
</extensions>
</trkpt>
<trkpt lat="64.310577393" lon="-20.305294037">
<ele>115.707031</ele>
<time>2012-07-19T21:09:31Z</time>
<extensions>
<speed>0.0</speed>
<temp>0.00</temp>
<bpm>0</bpm>
<rpm>0.00</rpm>
</extensions>
</trkpt>
<trkpt lat="64.310577393" lon="-20.305294037">
<ele>115.732422</ele>
<time>2012-07-19T21:09:36Z</time>
<extensions>
<speed>0.0</speed>
<temp>0.00</temp>
<bpm>0</bpm>
<rpm>0.00</rpm>
</extensions>
</trkpt>
<trkpt lat="64.310577393" lon="-20.305294037">
<ele>115.740234</ele>
<time>2012-07-19T21:09:41Z</time>
<extensions>
<speed>0.0</speed>
<temp>0.00</temp>
<bpm>0</bpm>
<rpm>0.00</rpm>
</extensions>
</trkpt>
<trkpt lat="64.310577393" lon="-20.305292130">
<ele>115.742188</ele>
<time>2012-07-19T21:09:46Z</time>
<extensions>
<speed>0.0</speed>
<temp>0.00</temp>
<bpm>0</bpm>
<rpm>0.00</rpm>
</extensions>
</trkpt>
<trkpt lat="64.310577393" lon="-20.305292130">
<ele>115.744141</ele>
<time>2012-07-19T21:09:51Z</time>
<extensions>
<speed>0.0</speed>
<temp>0.00</temp>
<bpm>0</bpm>
<rpm>0.00</rpm>
</extensions>
</trkpt>
<trkpt lat="64.310577393" lon="-20.305292130">
<ele>115.738281</ele>
<time>2012-07-19T21:09:56Z</time>
<extensions>
<speed>0.0</speed>
<temp>0.00</temp>
<bpm>0</bpm>
<rpm>0.00</rpm>
</extensions>
</trkpt>
<trkpt lat="64.310577393" lon="-20.305292130">
<ele>115.750000</ele>
<time>2012-07-19T21:10:01Z</time>
<extensions>
<speed>0.0</speed>
<temp>0.00</temp>
<bpm>0</bpm>
<rpm>0.00</rpm>
</extensions>
</trkpt>
<trkpt lat="64.310577393" lon="-20.305292130">
<ele>115.759766</ele>
<time>2012-07-19T21:10:06Z</time>
<extensions>
<speed>0.0</speed>
<temp>0.00</temp>
<bpm>0</bpm>
<rpm>0.00</rpm>
</extensions>
</trkpt>
<trkpt lat="64.310577393" lon="-20.305292130">
<ele>115.765625</ele>
<time>2012-07-19T21:10:11Z</time>
<extensions>
<speed>0.0</speed>
<temp>0.00</temp>
<bpm>0</bpm>
<rpm>0.00</rpm>
</extensions>
</trkpt>
<trkpt lat="64.310577393" lon="-20.305292130">
<ele>115.787109</ele>
<time>2012-07-19T21:10:16Z</time>
<extensions>
<speed>0.0</speed>
<temp>0.00</temp>
<bpm>0</bpm>
<rpm>0.00</rpm>
</extensions>
</trkpt>
<trkpt lat="64.310577393" lon="-20.305292130">
<ele>115.818359</ele>
<time>2012-07-19T21:10:21Z</time>
<extensions>
<speed>0.0</speed>
<temp>0.00</temp>
<bpm>0</bpm>
<rpm>0.00</rpm>
</extensions>
</trkpt>
<trkpt lat="64.310577393" lon="-20.305290222">
<ele>115.841797</ele>
<time>2012-07-19T21:10:26Z</time>
<extensions>
<speed>0.0</speed>
<temp>0.00</temp>
<bpm>0</bpm>
<rpm>0.00</rpm>
</extensions>
</trkpt>
<trkpt lat="64.310577393" lon="-20.305290222">
<ele>115.853516</ele>
<time>2012-07-19T21:10:31Z</time>
<extensions>
<speed>0.0</speed>
<temp>0.00</temp>
<bpm>0</bpm>
<rpm>0.00</rpm>
</extensions>
</trkpt>
<trkpt lat="64.310577393" lon="-20.305290222">
<ele>115.857422</ele>
<time>2012-07-19T21:10:36Z</time>
<extensions>
<speed>0.0</speed>
<temp>0.00</temp>
<bpm>0</bpm>
<rpm>0.00</rpm>
</extensions>
</trkpt>
<trkpt lat="64.310577393" lon="-20.305290222">
<ele>115.865234</ele>
<time>2012-07-19T21:10:41Z</time>
<extensions>
<speed>0.0</speed>
<temp>0.00</temp>
<bpm>0</bpm>
<rpm>0.00</rpm>
</extensions>
</trkpt>
<trkpt lat="64.310577393" lon="-20.305290222">
<ele>115.857422</ele>
<time>2012-07-19T21:10:46Z</time>
<extensions>
<speed>0.0</speed>
<temp>0.00</temp>
<bpm>0</bpm>
<rpm>0.00</rpm>
</extensions>
</trkpt>
<trkpt lat="64.310577393" lon="-20.305290222">
<ele>115.865234</ele>
<time>2012-07-19T21:10:51Z</time>
<extensions>
<speed>0.0</speed>
<temp>0.00</temp>
<bpm>0</bpm>
<rpm>0.00</rpm>
</extensions>
</trkpt>
<trkpt lat="64.310577393" lon="-20.305290222">
<ele>115.869141</ele>
<time>2012-07-19T21:10:56Z</time>
<extensions>
<speed>0.0</speed>
<temp>0.00</temp>
<bpm>0</bpm>
<rpm>0.00</rpm>
</extensions>
</trkpt>
<trkpt lat="64.310577393" lon="-20.305288315">
<ele>115.875000</ele>
<time>2012-07-19T21:11:01Z</time>
<extensions>
<speed>0.0</speed>
<temp>0.00</temp>
<bpm>0</bpm>
<rpm>0.00</rpm>
</extensions>
</trkpt>
<trkpt lat="64.310577393" lon="-20.305288315">
<ele>115.904297</ele>
<time>2012-07-19T21:11:06Z</time>
<extensions>
<speed>0.0</speed>
<temp>0.00</temp>
<bpm>0</bpm>
<rpm>0.00</rpm>
</extensions>
</trkpt>
<trkpt lat="64.310577393" lon="-20.305288315">
<ele>115.943359</ele>
<time>2012-07-19T21:11:11Z</time>
<extensions>
<speed>0.0</speed>
<temp>0.00</temp>
<bpm>0</bpm>
<rpm>0.00</rpm>
</extensions>
</trkpt>
<trkpt lat="64.310577393" lon="-20.305288315">
<ele>115.966797</ele>
<time>2012-07-19T21:11:16Z</time>
<extensions>
<speed>0.0</speed>
<temp>0.00</temp>
<bpm>0</bpm>
<rpm>0.00</rpm>
</extensions>
</trkpt>
<trkpt lat="64.310577393" lon="-20.305286407">
<ele>115.992188</ele>
<time>2012-07-19T21:11:21Z</time>
<extensions>
<speed>0.0</speed>
<temp>0.00</temp>
<bpm>0</bpm>
<rpm>0.00</rpm>
</extensions>
</trkpt>
<trkpt lat="64.310577393" lon="-20.305286407">
<ele>116.007813</ele>
<time>2012-07-19T21:11:26Z</time>
<extensions>
<speed>0.0</speed>
<temp>0.00</temp>
<bpm>0</bpm>
<rpm>0.00</rpm>
</extensions>
</trkpt>
<trkpt lat="64.310577393" lon="-20.305286407">
<ele>116.015625</ele>
<time>2012-07-19T21:11:31Z</time>
<extensions>
<speed>0.0</speed>
<temp>0.00</temp>
<bpm>0</bpm>
<rpm>0.00</rpm>
</extensions>
</trkpt>
<trkpt lat="64.310577393" lon="-20.305286407">
<ele>116.023438</ele>
<time>2012-07-19T21:11:36Z</time>
<extensions>
<speed>0.0</speed>
<temp>0.00</temp>
<bpm>0</bpm>
<rpm>0.00</rpm>
</extensions>
</trkpt>
<trkpt lat="64.310577393" lon="-20.305284500">
<ele>116.033203</ele>
<time>2012-07-19T21:11:41Z</time>
<speed>0.010000</speed>
<extensions>
<speed>0.0</speed>
<temp>0.00</temp>
<bpm>0</bpm>
<rpm>0.00</rpm>
</extensions>
</trkpt>
<trkpt lat="64.310577393" lon="-20.305284500">
<ele>116.054688</ele>
<time>2012-07-19T21:11:46Z</time>
<extensions>
<speed>0.0</speed>
<temp>0.00</temp>
<bpm>0</bpm>
<rpm>0.00</rpm>
</extensions>
</trkpt>
<trkpt lat="64.310577393" lon="-20.305284500">
<ele>116.078125</ele>
<time>2012-07-19T21:11:51Z</time>
<extensions>
<speed>0.0</speed>
<temp>0.00</temp>
<bpm>0</bpm>
<rpm>0.00</rpm>
</extensions>
</trkpt>
<trkpt lat="64.310577393" lon="-20.305282593">
<ele>116.095703</ele>
<time>2012-07-19T21:11:56Z</time>
<extensions>
<speed>0.0</speed>
<temp>0.00</temp>
<bpm>0</bpm>
<rpm>0.00</rpm>
</extensions>
</trkpt>
<trkpt lat="64.310577393" lon="-20.305282593">
<ele>116.117188</ele>
<time>2012-07-19T21:12:01Z</time>
<extensions>
<speed>0.0</speed>
<temp>0.00</temp>
<bpm>0</bpm>
<rpm>0.00</rpm>
</extensions>
</trkpt>
<trkpt lat="64.310577393" lon="-20.305282593">
<ele>116.150391</ele>
<time>2012-07-19T21:12:06Z</time>
<extensions>
<speed>0.0</speed>
<temp>0.00</temp>
<bpm>0</bpm>
<rpm>0.00</rpm>
</extensions>
</trkpt>
<trkpt lat="64.310577393" lon="-20.305282593">
<ele>116.183594</ele>
<time>2012-07-19T21:12:11Z</time>
<extensions>
<speed>0.0</speed>
<temp>0.00</temp>
<bpm>0</bpm>
<rpm>0.00</rpm>
</extensions>
</trkpt>
<trkpt lat="64.310577393" lon="-20.305282593">
<ele>116.207031</ele>
<time>2012-07-19T21:12:16Z</time>
<extensions>
<speed>0.0</speed>
<temp>0.00</temp>
<bpm>0</bpm>
<rpm>0.00</rpm>
</extensions>
</trkpt>
<trkpt lat="64.310577393" lon="-20.305280685">
<ele>116.230469</ele>
<time>2012-07-19T21:12:21Z</time>
<extensions>
<speed>0.0</speed>
<temp>0.00</temp>
<bpm>0</bpm>
<rpm>0.00</rpm>
</extensions>
</trkpt>
<trkpt lat="64.310577393" lon="-20.305280685">
<ele>116.257813</ele>
<time>2012-07-19T21:12:26Z</time>
<extensions>
<speed>0.0</speed>
<temp>0.00</temp>
<bpm>0</bpm>
<rpm>0.00</rpm>
</extensions>
</trkpt>
<trkpt lat="64.310577393" lon="-20.305280685">
<ele>116.277344</ele>
<time>2012-07-19T21:12:31Z</time>
<extensions>
<speed>0.0</speed>
<temp>0.00</temp>
<bpm>0</bpm>
<rpm>0.00</rpm>
</extensions>
</trkpt>
<trkpt lat="64.310577393" lon="-20.305280685">
<ele>116.298828</ele>
<time>2012-07-19T21:12:36Z</time>
<extensions>
<speed>0.0</speed>
<temp>0.00</temp>
<bpm>0</bpm>
<rpm>0.00</rpm>
</extensions>
</trkpt>
<trkpt lat="64.310577393" lon="-20.305278778">
<ele>116.326172</ele>
<time>2012-07-19T21:12:41Z</time>
<extensions>
<speed>0.0</speed>
<temp>0.00</temp>
<bpm>0</bpm>
<rpm>0.00</rpm>
</extensions>
</trkpt>
<trkpt lat="64.310577393" lon="-20.305278778">
<ele>116.347656</ele>
<time>2012-07-19T21:12:46Z</time>
<extensions>
<speed>0.0</speed>
<temp>0.00</temp>
<bpm>0</bpm>
<rpm>0.00</rpm>
</extensions>
</trkpt>
<trkpt lat="64.310577393" lon="-20.305278778">
<ele>116.349609</ele>
<time>2012-07-19T21:12:51Z</time>
<extensions>
<speed>0.0</speed>
<temp>0.00</temp>
<bpm>0</bpm>
<rpm>0.00</rpm>
</extensions>
</trkpt>
<trkpt lat="64.310577393" lon="-20.305278778">
<ele>116.349609</ele>
<time>2012-07-19T21:12:56Z</time>
<extensions>
<speed>0.0</speed>
<temp>0.00</temp>
<bpm>0</bpm>
<rpm>0.00</rpm>
</extensions>
</trkpt>
<trkpt lat="64.310577393" lon="-20.305276871">
<ele>116.332031</ele>
<time>2012-07-19T21:13:01Z</time>
<extensions>
<speed>0.0</speed>
<temp>0.00</temp>
<bpm>0</bpm>
<rpm>0.00</rpm>
</extensions>
</trkpt>
<trkpt lat="64.310577393" lon="-20.305276871">
<ele>116.324219</ele>
<time>2012-07-19T21:13:06Z</time>
<extensions>
<speed>0.0</speed>
<temp>0.00</temp>
<bpm>0</bpm>
<rpm>0.00</rpm>
</extensions>
</trkpt>
<trkpt lat="64.310577393" lon="-20.305276871">
<ele>116.310547</ele>
<time>2012-07-19T21:13:11Z</time>
<extensions>
<speed>0.0</speed>
<temp>0.00</temp>
<bpm>0</bpm>
<rpm>0.00</rpm>
</extensions>
</trkpt>
<trkpt lat="64.310577393" lon="-20.305276871">
<ele>116.306641</ele>
<time>2012-07-19T21:13:16Z</time>
<extensions>
<speed>0.0</speed>
<temp>0.00</temp>
<bpm>0</bpm>
<rpm>0.00</rpm>
</extensions>
</trkpt>
<trkpt lat="64.310577393" lon="-20.305276871">
<ele>116.302734</ele>
<time>2012-07-19T21:13:21Z</time>
<extensions>
<speed>0.0</speed>
<temp>0.00</temp>
<bpm>0</bpm>
<rpm>0.00</rpm>
</extensions>
</trkpt>
<trkpt lat="64.310577393" lon="-20.305276871">
<ele>116.298828</ele>
<time>2012-07-19T21:13:26Z</time>
<extensions>
<speed>0.0</speed>
<temp>0.00</temp>
<bpm>0</bpm>
<rpm>0.00</rpm>
</extensions>
</trkpt>
<trkpt lat="64.310577393" lon="-20.305276871">
<ele>116.304688</ele>
<time>2012-07-19T21:13:31Z</time>
<extensions>
<speed>0.0</speed>
<temp>0.00</temp>
<bpm>0</bpm>
<rpm>0.00</rpm>
</extensions>
</trkpt>
<trkpt lat="64.310577393" lon="-20.305274963">
<ele>116.294922</ele>
<time>2012-07-19T21:13:36Z</time>
<speed>0.010000</speed>
<extensions>
<speed>0.0</speed>
<temp>0.00</temp>
<bpm>0</bpm>
<rpm>0.00</rpm>
</extensions>
</trkpt>
<trkpt lat="64.310577393" lon="-20.305274963">
<ele>116.306641</ele>
<time>2012-07-19T21:13:41Z</time>
<speed>0.010000</speed>
<extensions>
<speed>0.0</speed>
<temp>0.00</temp>
<bpm>0</bpm>
<rpm>0.00</rpm>
</extensions>
</trkpt>
<trkpt lat="64.310577393" lon="-20.305274963">
<ele>116.332031</ele>
<time>2012-07-19T21:13:46Z</time>
<extensions>
<speed>0.0</speed>
<temp>0.00</temp>
<bpm>0</bpm>
<rpm>0.00</rpm>
</extensions>
</trkpt>
<trkpt lat="64.310577393" lon="-20.305273056">
<ele>116.349609</ele>
<time>2012-07-19T21:13:51Z</time>
<speed>0.010000</speed>
<extensions>
<speed>0.0</speed>
<temp>0.00</temp>
<bpm>0</bpm>
<rpm>0.00</rpm>
</extensions>
</trkpt>
<trkpt lat="64.310577393" lon="-20.305273056">
<ele>116.371094</ele>
<time>2012-07-19T21:13:56Z</time>
<speed>0.010000</speed>
<extensions>
<speed>0.0</speed>
<temp>0.00</temp>
<bpm>0</bpm>
<rpm>0.00</rpm>
</extensions>
</trkpt>
<trkpt lat="64.310577393" lon="-20.305273056">
<ele>116.371094</ele>
<time>2012-07-19T21:14:01Z</time>
<extensions>
<speed>0.0</speed>
<temp>0.00</temp>
<bpm>0</bpm>
<rpm>0.00</rpm>
</extensions>
</trkpt>
<trkpt lat="64.310577393" lon="-20.305273056">
<ele>116.375000</ele>
<time>2012-07-19T21:14:06Z</time>
<extensions>
<speed>0.0</speed>
<temp>0.00</temp>
<bpm>0</bpm>
<rpm>0.00</rpm>
</extensions>
</trkpt>
<trkpt lat="64.310577393" lon="-20.305273056">
<ele>116.382813</ele>
<time>2012-07-19T21:14:11Z</time>
<extensions>
<speed>0.0</speed>
<temp>0.00</temp>
<bpm>0</bpm>
<rpm>0.00</rpm>
</extensions>
</trkpt>
<trkpt lat="64.310577393" lon="-20.305273056">
<ele>116.404297</ele>
<time>2012-07-19T21:14:16Z</time>
<extensions>
<speed>0.0</speed>
<temp>0.00</temp>
<bpm>0</bpm>
<rpm>0.00</rpm>
</extensions>
</trkpt>
<trkpt lat="64.310577393" lon="-20.305271149">
<ele>116.419922</ele>
<time>2012-07-19T21:14:21Z</time>
<speed>0.010000</speed>
<extensions>
<speed>0.0</speed>
<temp>0.00</temp>
<bpm>0</bpm>
<rpm>0.00</rpm>
</extensions>
</trkpt>
<trkpt lat="64.310577393" lon="-20.305273056">
<ele>116.417969</ele>
<time>2012-07-19T21:14:26Z</time>
<extensions>
<speed>0.0</speed>
<temp>0.00</temp>
<bpm>0</bpm>
<rpm>0.00</rpm>
</extensions>
</trkpt>
<trkpt lat="64.310577393" lon="-20.305271149">
<ele>116.404297</ele>
<time>2012-07-19T21:14:31Z</time>
<speed>0.010000</speed>
<extensions>
<speed>0.0</speed>
<temp>0.00</temp>
<bpm>0</bpm>
<rpm>0.00</rpm>
</extensions>
</trkpt>
<trkpt lat="64.310577393" lon="-20.305271149">
<ele>116.400391</ele>
<time>2012-07-19T21:14:36Z</time>
<extensions>
<speed>0.0</speed>
<temp>0.00</temp>
<bpm>0</bpm>
<rpm>0.00</rpm>
</extensions>
</trkpt>
<trkpt lat="64.310577393" lon="-20.305271149">
<ele>116.392578</ele>
<time>2012-07-19T21:14:41Z</time>
<extensions>
<speed>0.0</speed>
<temp>0.00</temp>
<bpm>0</bpm>
<rpm>0.00</rpm>
</extensions>
</trkpt>
<trkpt lat="64.310577393" lon="-20.305271149">
<ele>116.382813</ele>
<time>2012-07-19T21:14:46Z</time>
<extensions>
<speed>0.0</speed>
<temp>0.00</temp>
<bpm>0</bpm>
<rpm>0.00</rpm>
</extensions>
</trkpt>
<trkpt lat="64.310577393" lon="-20.305269241">
<ele>116.375000</ele>
<time>2012-07-19T21:14:51Z</time>
<speed>0.010000</speed>
<extensions>
<speed>0.0</speed>
<temp>0.00</temp>
<bpm>0</bpm>
<rpm>0.00</rpm>
</extensions>
</trkpt>
<trkpt lat="64.310577393" lon="-20.305269241">
<ele>116.378906</ele>
<time>2012-07-19T21:14:56Z</time>
<speed>0.010000</speed>
<extensions>
<speed>0.0</speed>
<temp>0.00</temp>
<bpm>0</bpm>
<rpm>0.00</rpm>
</extensions>
</trkpt>
<trkpt lat="64.310577393" lon="-20.305269241">
<ele>116.378906</ele>
<time>2012-07-19T21:15:01Z</time>
<speed>0.010000</speed>
<extensions>
<speed>0.0</speed>
<temp>0.00</temp>
<bpm>0</bpm>
<rpm>0.00</rpm>
</extensions>
</trkpt>
<trkpt lat="64.310577393" lon="-20.305267334">
<ele>116.367188</ele>
<time>2012-07-19T21:15:06Z</time>
<extensions>
<speed>0.0</speed>
<temp>0.00</temp>
<bpm>0</bpm>
<rpm>0.00</rpm>
</extensions>
</trkpt>
<trkpt lat="64.310577393" lon="-20.305267334">
<ele>116.369141</ele>
<time>2012-07-19T21:15:11Z</time>
<speed>0.010000</speed>
<extensions>
<speed>0.0</speed>
<temp>0.00</temp>
<bpm>0</bpm>
<rpm>0.00</rpm>
</extensions>
</trkpt>
<trkpt lat="64.310577393" lon="-20.305267334">
<ele>116.371094</ele>
<time>2012-07-19T21:15:16Z</time>
<extensions>
<speed>0.0</speed>
<temp>0.00</temp>
<bpm>0</bpm>
<rpm>0.00</rpm>
</extensions>
</trkpt>
<trkpt lat="64.310577393" lon="-20.305267334">
<ele>116.382813</ele>
<time>2012-07-19T21:15:21Z</time>
<speed>0.010000</speed>
<extensions>
<speed>0.0</speed>
<temp>0.00</temp>
<bpm>0</bpm>
<rpm>0.00</rpm>
</extensions>
</trkpt>
<trkpt lat="64.310577393" lon="-20.305267334">
<ele>116.388672</ele>
<time>2012-07-19T21:15:26Z</time>
<extensions>
<speed>0.0</speed>
<temp>0.00</temp>
<bpm>0</bpm>
<rpm>0.00</rpm>
</extensions>
</trkpt>
<trkpt lat="64.310577393" lon="-20.305265427">
<ele>116.392578</ele>
<time>2012-07-19T21:15:31Z</time>
<extensions>
<speed>0.0</speed>
<temp>0.00</temp>
<bpm>0</bpm>
<rpm>0.00</rpm>
</extensions>
</trkpt>
<trkpt lat="64.310577393" lon="-20.305265427">
<ele>116.386719</ele>
<time>2012-07-19T21:15:36Z</time>
<extensions>
<speed>0.0</speed>
<temp>0.00</temp>
<bpm>0</bpm>
<rpm>0.00</rpm>
</extensions>
</trkpt>
<trkpt lat="64.310577393" lon="-20.305265427">
<ele>116.402344</ele>
<time>2012-07-19T21:15:41Z</time>
<extensions>
<speed>0.0</speed>
<temp>0.00</temp>
<bpm>0</bpm>
<rpm>0.00</rpm>
</extensions>
</trkpt>
<trkpt lat="64.310577393" lon="-20.305265427">
<ele>116.394531</ele>
<time>2012-07-19T21:15:46Z</time>
<speed>0.010000</speed>
<extensions>
<speed>0.0</speed>
<temp>0.00</temp>
<bpm>0</bpm>
<rpm>0.00</rpm>
</extensions>
</trkpt>
<trkpt lat="64.310577393" lon="-20.305263519">
<ele>116.369141</ele>
<time>2012-07-19T21:15:51Z</time>
<extensions>
<speed>0.0</speed>
<temp>0.00</temp>
<bpm>0</bpm>
<rpm>0.00</rpm>
</extensions>
</trkpt>
<trkpt lat="64.310577393" lon="-20.305263519">
<ele>116.351563</ele>
<time>2012-07-19T21:15:56Z</time>
<speed>0.010000</speed>
<extensions>
<speed>0.0</speed>
<temp>0.00</temp>
<bpm>0</bpm>
<rpm>0.00</rpm>
</extensions>
</trkpt>
<trkpt lat="64.310577393" lon="-20.305263519">
<ele>116.333984</ele>
<time>2012-07-19T21:16:01Z</time>
<extensions>
<speed>0.0</speed>
<temp>0.00</temp>
<bpm>0</bpm>
<rpm>0.00</rpm>
</extensions>
</trkpt>
<trkpt lat="64.310577393" lon="-20.305263519">
<ele>116.314453</ele>
<time>2012-07-19T21:16:06Z</time>
<extensions>
<speed>0.0</speed>
<temp>0.00</temp>
<bpm>0</bpm>
<rpm>0.00</rpm>
</extensions>
</trkpt>
<trkpt lat="64.310577393" lon="-20.305261612">
<ele>116.302734</ele>
<time>2012-07-19T21:16:11Z</time>
<extensions>
<speed>0.0</speed>
<temp>0.00</temp>
<bpm>0</bpm>
<rpm>0.00</rpm>
</extensions>
</trkpt>
<trkpt lat="64.310577393" lon="-20.305261612">
<ele>116.279297</ele>
<time>2012-07-19T21:16:16Z</time>
<extensions>
<speed>0.0</speed>
<temp>0.00</temp>
<bpm>0</bpm>
<rpm>0.00</rpm>
</extensions>
</trkpt>
<trkpt lat="64.310577393" lon="-20.305261612">
<ele>116.257813</ele>
<time>2012-07-19T21:16:21Z</time>
<extensions>
<speed>0.0</speed>
<temp>0.00</temp>
<bpm>0</bpm>
<rpm>0.00</rpm>
</extensions>
</trkpt>
<trkpt lat="64.310577393" lon="-20.305261612">
<ele>116.250000</ele>
<time>2012-07-19T21:16:26Z</time>
<extensions>
<speed>0.0</speed>
<temp>0.00</temp>
<bpm>0</bpm>
<rpm>0.00</rpm>
</extensions>
</trkpt>
<trkpt lat="64.310577393" lon="-20.305263519">
<ele>116.234375</ele>
<time>2012-07-19T21:16:31Z</time>
<extensions>
<speed>0.0</speed>
<temp>0.00</temp>
<bpm>0</bpm>
<rpm>0.00</rpm>
</extensions>
</trkpt>
<trkpt lat="64.310577393" lon="-20.305263519">
<ele>116.236328</ele>
<time>2012-07-19T21:16:36Z</time>
<extensions>
<speed>0.0</speed>
<temp>0.00</temp>
<bpm>0</bpm>
<rpm>0.00</rpm>
</extensions>
</trkpt>
<trkpt lat="64.310577393" lon="-20.305261612">
<ele>116.238281</ele>
<time>2012-07-19T21:16:41Z</time>
<extensions>
<speed>0.0</speed>
<temp>0.00</temp>
<bpm>0</bpm>
<rpm>0.00</rpm>
</extensions>
</trkpt>
<trkpt lat="64.310577393" lon="-20.305261612">
<ele>116.236328</ele>
<time>2012-07-19T21:16:46Z</time>
<extensions>
<speed>0.0</speed>
<temp>0.00</temp>
<bpm>0</bpm>
<rpm>0.00</rpm>
</extensions>
</trkpt>
<trkpt lat="64.310577393" lon="-20.305261612">
<ele>116.226563</ele>
<time>2012-07-19T21:16:51Z</time>
<extensions>
<speed>0.0</speed>
<temp>0.00</temp>
<bpm>0</bpm>
<rpm>0.00</rpm>
</extensions>
</trkpt>
<trkpt lat="64.310577393" lon="-20.305261612">
<ele>116.228516</ele>
<time>2012-07-19T21:16:56Z</time>
<speed>0.010000</speed>
<extensions>
<speed>0.0</speed>
<temp>0.00</temp>
<bpm>0</bpm>
<rpm>0.00</rpm>
</extensions>
</trkpt>
<trkpt lat="64.310577393" lon="-20.305261612">
<ele>116.222656</ele>
<time>2012-07-19T21:17:01Z</time>
<extensions>
<speed>0.0</speed>
<temp>0.00</temp>
<bpm>0</bpm>
<rpm>0.00</rpm>
</extensions>
</trkpt>
<trkpt lat="64.310577393" lon="-20.305261612">
<ele>116.222656</ele>
<time>2012-07-19T21:17:06Z</time>
<extensions>
<speed>0.0</speed>
<temp>0.00</temp>
<bpm>0</bpm>
<rpm>0.00</rpm>
</extensions>
</trkpt>
<trkpt lat="64.310577393" lon="-20.305259705">
<ele>116.208984</ele>
<time>2012-07-19T21:17:11Z</time>
<extensions>
<speed>0.0</speed>
<temp>0.00</temp>
<bpm>0</bpm>
<rpm>0.00</rpm>
</extensions>
</trkpt>
<trkpt lat="64.310577393" lon="-20.305259705">
<ele>116.195313</ele>
<time>2012-07-19T21:17:16Z</time>
<extensions>
<speed>0.0</speed>
<temp>0.00</temp>
<bpm>0</bpm>
<rpm>0.00</rpm>
</extensions>
</trkpt>
<trkpt lat="64.310577393" lon="-20.305261612">
<ele>116.193359</ele>
<time>2012-07-19T21:17:21Z</time>
<extensions>
<speed>0.0</speed>
<temp>0.00</temp>
<bpm>0</bpm>
<rpm>0.00</rpm>
</extensions>
</trkpt>
<trkpt lat="64.310577393" lon="-20.305261612">
<ele>116.208984</ele>
<time>2012-07-19T21:17:26Z</time>
<extensions>
<speed>0.0</speed>
<temp>0.00</temp>
<bpm>0</bpm>
<rpm>0.00</rpm>
</extensions>
</trkpt>
<trkpt lat="64.310577393" lon="-20.305261612">
<ele>116.208984</ele>
<time>2012-07-19T21:17:31Z</time>
<extensions>
<speed>0.0</speed>
<temp>0.00</temp>
<bpm>0</bpm>
<rpm>0.00</rpm>
</extensions>
</trkpt>
<trkpt lat="64.310577393" lon="-20.305259705">
<ele>116.220703</ele>
<time>2012-07-19T21:17:36Z</time>
<extensions>
<speed>0.0</speed>
<temp>0.00</temp>
<bpm>0</bpm>
<rpm>0.00</rpm>
</extensions>
</trkpt>
<trkpt lat="64.310577393" lon="-20.305259705">
<ele>116.218750</ele>
<time>2012-07-19T21:17:41Z</time>
<extensions>
<speed>0.0</speed>
<temp>0.00</temp>
<bpm>0</bpm>
<rpm>0.00</rpm>
</extensions>
</trkpt>
<trkpt lat="64.310577393" lon="-20.305259705">
<ele>116.210938</ele>
<time>2012-07-19T21:17:46Z</time>
<extensions>
<speed>0.0</speed>
<temp>0.00</temp>
<bpm>0</bpm>
<rpm>0.00</rpm>
</extensions>
</trkpt>
<trkpt lat="64.310577393" lon="-20.305259705">
<ele>116.208984</ele>
<time>2012-07-19T21:17:51Z</time>
<extensions>
<speed>0.0</speed>
<temp>0.00</temp>
<bpm>0</bpm>
<rpm>0.00</rpm>
</extensions>
</trkpt>
<trkpt lat="64.310577393" lon="-20.305259705">
<ele>116.199219</ele>
<time>2012-07-19T21:17:56Z</time>
<extensions>
<speed>0.0</speed>
<temp>0.00</temp>
<bpm>0</bpm>
<rpm>0.00</rpm>
</extensions>
</trkpt>
<trkpt lat="64.310577393" lon="-20.305259705">
<ele>116.208984</ele>
<time>2012-07-19T21:18:01Z</time>
<extensions>
<speed>0.0</speed>
<temp>0.00</temp>
<bpm>0</bpm>
<rpm>0.00</rpm>
</extensions>
</trkpt>
<trkpt lat="64.310577393" lon="-20.305259705">
<ele>116.208984</ele>
<time>2012-07-19T21:18:06Z</time>
<extensions>
<speed>0.0</speed>
<temp>0.00</temp>
<bpm>0</bpm>
<rpm>0.00</rpm>
</extensions>
</trkpt>
<trkpt lat="64.310577393" lon="-20.305259705">
<ele>116.238281</ele>
<time>2012-07-19T21:18:11Z</time>
<extensions>
<speed>0.0</speed>
<temp>0.00</temp>
<bpm>0</bpm>
<rpm>0.00</rpm>
</extensions>
</trkpt>
<trkpt lat="64.310577393" lon="-20.305259705">
<ele>116.265625</ele>
<time>2012-07-19T21:18:16Z</time>
<extensions>
<speed>0.0</speed>
<temp>0.00</temp>
<bpm>0</bpm>
<rpm>0.00</rpm>
</extensions>
</trkpt>
<trkpt lat="64.310577393" lon="-20.305259705">
<ele>116.265625</ele>
<time>2012-07-19T21:18:21Z</time>
<extensions>
<speed>0.0</speed>
<temp>0.00</temp>
<bpm>0</bpm>
<rpm>0.00</rpm>
</extensions>
</trkpt>
<trkpt lat="64.310577393" lon="-20.305259705">
<ele>116.277344</ele>
<time>2012-07-19T21:18:26Z</time>
<extensions>
<speed>0.0</speed>
<temp>0.00</temp>
<bpm>0</bpm>
<rpm>0.00</rpm>
</extensions>
</trkpt>
<trkpt lat="64.310577393" lon="-20.305257797">
<ele>116.283203</ele>
<time>2012-07-19T21:18:31Z</time>
<extensions>
<speed>0.0</speed>
<temp>0.00</temp>
<bpm>0</bpm>
<rpm>0.00</rpm>
</extensions>
</trkpt>
<trkpt lat="64.310577393" lon="-20.305257797">
<ele>116.283203</ele>
<time>2012-07-19T21:18:36Z</time>
<extensions>
<speed>0.0</speed>
<temp>0.00</temp>
<bpm>0</bpm>
<rpm>0.00</rpm>
</extensions>
</trkpt>
<trkpt lat="64.310577393" lon="-20.305257797">
<ele>116.285156</ele>
<time>2012-07-19T21:18:41Z</time>
<extensions>
<speed>0.0</speed>
<temp>0.00</temp>
<bpm>0</bpm>
<rpm>0.00</rpm>
</extensions>
</trkpt>
<trkpt lat="64.310577393" lon="-20.305257797">
<ele>116.292969</ele>
<time>2012-07-19T21:18:46Z</time>
<extensions>
<speed>0.0</speed>
<temp>0.00</temp>
<bpm>0</bpm>
<rpm>0.00</rpm>
</extensions>
</trkpt>
<trkpt lat="64.310577393" lon="-20.305257797">
<ele>116.314453</ele>
<time>2012-07-19T21:18:51Z</time>
<extensions>
<speed>0.0</speed>
<temp>0.00</temp>
<bpm>0</bpm>
<rpm>0.00</rpm>
</extensions>
</trkpt>
<trkpt lat="64.310577393" lon="-20.305257797">
<ele>116.328125</ele>
<time>2012-07-19T21:18:56Z</time>
<extensions>
<speed>0.0</speed>
<temp>0.00</temp>
<bpm>0</bpm>
<rpm>0.00</rpm>
</extensions>
</trkpt>
<trkpt lat="64.310577393" lon="-20.305257797">
<ele>116.339844</ele>
<time>2012-07-19T21:19:01Z</time>
<extensions>
<speed>0.0</speed>
<temp>0.00</temp>
<bpm>0</bpm>
<rpm>0.00</rpm>
</extensions>
</trkpt>
<trkpt lat="64.310577393" lon="-20.305257797">
<ele>116.353516</ele>
<time>2012-07-19T21:19:06Z</time>
<extensions>
<speed>0.0</speed>
<temp>0.00</temp>
<bpm>0</bpm>
<rpm>0.00</rpm>
</extensions>
</trkpt>
<trkpt lat="64.310577393" lon="-20.305257797">
<ele>116.357422</ele>
<time>2012-07-19T21:19:11Z</time>
<extensions>
<speed>0.0</speed>
<temp>0.00</temp>
<bpm>0</bpm>
<rpm>0.00</rpm>
</extensions>
</trkpt>
<trkpt lat="64.310577393" lon="-20.305257797">
<ele>116.359375</ele>
<time>2012-07-19T21:19:16Z</time>
<extensions>
<speed>0.0</speed>
<temp>0.00</temp>
<bpm>0</bpm>
<rpm>0.00</rpm>
</extensions>
</trkpt>
<trkpt lat="64.310577393" lon="-20.305257797">
<ele>116.371094</ele>
<time>2012-07-19T21:19:21Z</time>
<extensions>
<speed>0.0</speed>
<temp>0.00</temp>
<bpm>0</bpm>
<rpm>0.00</rpm>
</extensions>
</trkpt>
<trkpt lat="64.310577393" lon="-20.305257797">
<ele>116.371094</ele>
<time>2012-07-19T21:19:26Z</time>
<extensions>
<speed>0.0</speed>
<temp>0.00</temp>
<bpm>0</bpm>
<rpm>0.00</rpm>
</extensions>
</trkpt>
<trkpt lat="64.310577393" lon="-20.305257797">
<ele>116.357422</ele>
<time>2012-07-19T21:19:31Z</time>
<extensions>
<speed>0.0</speed>
<temp>0.00</temp>
<bpm>0</bpm>
<rpm>0.00</rpm>
</extensions>
</trkpt>
<trkpt lat="64.310577393" lon="-20.305257797">
<ele>116.357422</ele>
<time>2012-07-19T21:19:36Z</time>
<extensions>
<speed>0.0</speed>
<temp>0.00</temp>
<bpm>0</bpm>
<rpm>0.00</rpm>
</extensions>
</trkpt>
<trkpt lat="64.310585022" lon="-20.305257797">
<ele>116.337891</ele>
<time>2012-07-19T21:19:41Z</time>
<extensions>
<speed>0.0</speed>
<temp>0.00</temp>
<bpm>0</bpm>
<rpm>0.00</rpm>
</extensions>
</trkpt>
<trkpt lat="64.310585022" lon="-20.305257797">
<ele>116.314453</ele>
<time>2012-07-19T21:19:46Z</time>
<speed>0.060000</speed>
<extensions>
<speed>0.1</speed>
<temp>0.00</temp>
<bpm>0</bpm>
<rpm>0.00</rpm>
</extensions>
</trkpt>
<trkpt lat="64.310585022" lon="-20.305257797">
<ele>116.312500</ele>
<time>2012-07-19T21:19:51Z</time>
<speed>0.030000</speed>
<extensions>
<speed>0.0</speed>
<temp>0.00</temp>
<bpm>0</bpm>
<rpm>0.00</rpm>
</extensions>
</trkpt>
<trkpt lat="64.310585022" lon="-20.305257797">
<ele>116.318359</ele>
<time>2012-07-19T21:19:56Z</time>
<extensions>
<speed>0.0</speed>
<temp>0.00</temp>
<bpm>0</bpm>
<rpm>0.00</rpm>
</extensions>
</trkpt>
</trkseg>
</trk>
</gpx>